<?xml version='1.0' encoding='UTF-8'?><gpx version="1.1" creator="JPX - https://github.com/jenetics/jpx" xmlns="http://www.topografix.com/GPX/1/1"><trk><trkseg><trkpt lat="44.0897321" lon="11.9793495"><ele>148.0</ele><time>2026-04-18T07:37:25.631Z</time></trkpt><trkpt lat="44.0896867" lon="11.9794567"><ele>148.0</ele><time>2026-04-18T07:39:28.061Z</time></trkpt><trkpt lat="44.08971" lon="11.9795883"><ele>148.0</ele><time>2026-04-18T07:39:30.062Z</time></trkpt><trkpt lat="44.0897967" lon="11.9797333"><ele>148.0</ele><time>2026-04-18T07:39:32.061Z</time></trkpt><trkpt lat="44.0898767" lon="11.9797983"><ele>148.0</ele><time>2026-04-18T07:39:33.062Z</time></trkpt><trkpt lat="44.0899567" lon="11.9798633"><ele>148.5</ele><time>2026-04-18T07:39:34.061Z</time></trkpt><trkpt lat="44.09004" lon="11.9799333"><ele>149.0</ele><time>2026-04-18T07:39:35.062Z</time></trkpt><trkpt lat="44.090115" lon="11.9800033"><ele>149.5</ele><time>2026-04-18T07:39:36.061Z</time></trkpt><trkpt lat="44.0901883" lon="11.9800717"><ele>150.0</ele><time>2026-04-18T07:39:37.062Z</time></trkpt><trkpt lat="44.09026" lon="11.9801383"><ele>150.5</ele><time>2026-04-18T07:39:38.062Z</time></trkpt><trkpt lat="44.09033" lon="11.9802017"><ele>151.0</ele><time>2026-04-18T07:39:39.062Z</time></trkpt><trkpt lat="44.0904067" lon="11.9802717"><ele>149.8</ele><time>2026-04-18T07:39:40.062Z</time></trkpt><trkpt lat="44.0904867" lon="11.9803467"><ele>148.6</ele><time>2026-04-18T07:39:41.062Z</time></trkpt><trkpt lat="44.09056" lon="11.9804167"><ele>147.4</ele><time>2026-04-18T07:39:42.061Z</time></trkpt><trkpt lat="44.09063" lon="11.980485"><ele>146.2</ele><time>2026-04-18T07:39:43.062Z</time></trkpt><trkpt lat="44.0907067" lon="11.980565"><ele>145.0</ele><time>2026-04-18T07:39:44.062Z</time></trkpt><trkpt lat="44.09078" lon="11.980645"><ele>145.0</ele><time>2026-04-18T07:39:45.061Z</time></trkpt><trkpt lat="44.0908567" lon="11.98072"><ele>145.0</ele><time>2026-04-18T07:39:46.062Z</time></trkpt><trkpt lat="44.090935" lon="11.9807917"><ele>145.0</ele><time>2026-04-18T07:39:47.062Z</time></trkpt><trkpt lat="44.0910183" lon="11.9808633"><ele>145.0</ele><time>2026-04-18T07:39:48.062Z</time></trkpt><trkpt lat="44.0911083" lon="11.9809383"><ele>145.0</ele><time>2026-04-18T07:39:49.061Z</time></trkpt><trkpt lat="44.09119" lon="11.9809933"><ele>144.66666666666669</ele><time>2026-04-18T07:39:50.062Z</time></trkpt><trkpt lat="44.0912683" lon="11.9810333"><ele>144.33333333333334</ele><time>2026-04-18T07:39:51.062Z</time></trkpt><trkpt lat="44.0913467" lon="11.981065"><ele>144.0</ele><time>2026-04-18T07:39:52.061Z</time></trkpt><trkpt lat="44.091425" lon="11.98109"><ele>143.66666666666666</ele><time>2026-04-18T07:39:53.062Z</time></trkpt><trkpt lat="44.0915" lon="11.9811117"><ele>143.33333333333331</ele><time>2026-04-18T07:39:54.061Z</time></trkpt><trkpt lat="44.0915717" lon="11.9811417"><ele>143.0</ele><time>2026-04-18T07:39:55.061Z</time></trkpt><trkpt lat="44.0916217" lon="11.9812017"><ele>142.66666666666666</ele><time>2026-04-18T07:39:56.062Z</time></trkpt><trkpt lat="44.0916483" lon="11.9812833"><ele>142.33333333333331</ele><time>2026-04-18T07:39:57.062Z</time></trkpt><trkpt lat="44.0916483" lon="11.9813767"><ele>142.0</ele><time>2026-04-18T07:39:58.062Z</time></trkpt><trkpt lat="44.0916333" lon="11.9814733"><ele>141.66666666666666</ele><time>2026-04-18T07:39:59.062Z</time></trkpt><trkpt lat="44.0916017" lon="11.9815767"><ele>141.33333333333334</ele><time>2026-04-18T07:40:00.062Z</time></trkpt><trkpt lat="44.0915583" lon="11.9817"><ele>141.0</ele><time>2026-04-18T07:40:01.061Z</time></trkpt><trkpt lat="44.09151" lon="11.981835"><ele>142.0</ele><time>2026-04-18T07:40:02.062Z</time></trkpt><trkpt lat="44.09146" lon="11.9819683"><ele>143.0</ele><time>2026-04-18T07:40:03.062Z</time></trkpt><trkpt lat="44.0914067" lon="11.9820983"><ele>144.0</ele><time>2026-04-18T07:40:04.061Z</time></trkpt><trkpt lat="44.091355" lon="11.9822217"><ele>145.0</ele><time>2026-04-18T07:40:05.062Z</time></trkpt><trkpt lat="44.09129" lon="11.98233"><ele>146.0</ele><time>2026-04-18T07:40:06.062Z</time></trkpt><trkpt lat="44.0912083" lon="11.9824233"><ele>146.0</ele><time>2026-04-18T07:40:07.062Z</time></trkpt><trkpt lat="44.0911217" lon="11.9824867"><ele>146.0</ele><time>2026-04-18T07:40:08.061Z</time></trkpt><trkpt lat="44.09103" lon="11.9825517"><ele>146.0</ele><time>2026-04-18T07:40:09.062Z</time></trkpt><trkpt lat="44.0909383" lon="11.98262"><ele>146.0</ele><time>2026-04-18T07:40:10.062Z</time></trkpt><trkpt lat="44.090845" lon="11.9827033"><ele>146.0</ele><time>2026-04-18T07:40:11.062Z</time></trkpt><trkpt lat="44.0907583" lon="11.9828167"><ele>147.0</ele><time>2026-04-18T07:40:12.062Z</time></trkpt><trkpt lat="44.0906783" lon="11.9829417"><ele>148.0</ele><time>2026-04-18T07:40:13.062Z</time></trkpt><trkpt lat="44.0906133" lon="11.9830733"><ele>149.0</ele><time>2026-04-18T07:40:14.062Z</time></trkpt><trkpt lat="44.09055" lon="11.9832133"><ele>150.0</ele><time>2026-04-18T07:40:15.062Z</time></trkpt><trkpt lat="44.0904967" lon="11.983355"><ele>150.83333333333334</ele><time>2026-04-18T07:40:16.062Z</time></trkpt><trkpt lat="44.0904433" lon="11.983475"><ele>151.66666666666666</ele><time>2026-04-18T07:40:17.062Z</time></trkpt><trkpt lat="44.0903933" lon="11.9835783"><ele>152.5</ele><time>2026-04-18T07:40:18.061Z</time></trkpt><trkpt lat="44.09035" lon="11.9836667"><ele>153.33333333333331</ele><time>2026-04-18T07:40:19.062Z</time></trkpt><trkpt lat="44.0903133" lon="11.9837583"><ele>154.16666666666666</ele><time>2026-04-18T07:40:20.062Z</time></trkpt><trkpt lat="44.090285" lon="11.9838617"><ele>155.0</ele><time>2026-04-18T07:40:21.062Z</time></trkpt><trkpt lat="44.0902517" lon="11.98396"><ele>155.0</ele><time>2026-04-18T07:40:22.062Z</time></trkpt><trkpt lat="44.0902183" lon="11.9840583"><ele>155.0</ele><time>2026-04-18T07:40:23.061Z</time></trkpt><trkpt lat="44.0901783" lon="11.9841567"><ele>155.0</ele><time>2026-04-18T07:40:24.062Z</time></trkpt><trkpt lat="44.0901383" lon="11.98425"><ele>155.0</ele><time>2026-04-18T07:40:25.062Z</time></trkpt><trkpt lat="44.0900983" lon="11.984345"><ele>155.0</ele><time>2026-04-18T07:40:26.062Z</time></trkpt><trkpt lat="44.09006" lon="11.9844433"><ele>155.0</ele><time>2026-04-18T07:40:27.062Z</time></trkpt><trkpt lat="44.0900183" lon="11.984535"><ele>156.16666666666666</ele><time>2026-04-18T07:40:28.062Z</time></trkpt><trkpt lat="44.0899783" lon="11.9846167"><ele>157.33333333333331</ele><time>2026-04-18T07:40:29.062Z</time></trkpt><trkpt lat="44.0899383" lon="11.98469"><ele>158.5</ele><time>2026-04-18T07:40:30.062Z</time></trkpt><trkpt lat="44.0898683" lon="11.9848017"><ele>159.66666666666666</ele><time>2026-04-18T07:40:32.062Z</time></trkpt><trkpt lat="44.0898033" lon="11.9848433"><ele>160.83333333333334</ele><time>2026-04-18T07:40:34.061Z</time></trkpt><trkpt lat="44.08973" lon="11.9848383"><ele>162.0</ele><time>2026-04-18T07:40:36.062Z</time></trkpt><trkpt lat="44.089645" lon="11.984835"><ele>162.2</ele><time>2026-04-18T07:40:38.062Z</time></trkpt><trkpt lat="44.0895267" lon="11.9848583"><ele>162.39999999999998</ele><time>2026-04-18T07:40:40.061Z</time></trkpt><trkpt lat="44.089435" lon="11.9849317"><ele>162.60000000000002</ele><time>2026-04-18T07:40:42.062Z</time></trkpt><trkpt lat="44.0894067" lon="11.98503"><ele>162.8</ele><time>2026-04-18T07:40:44.062Z</time></trkpt><trkpt lat="44.0894883" lon="11.9851217"><ele>163.0</ele><time>2026-04-18T07:40:47.062Z</time></trkpt><trkpt lat="44.0895633" lon="11.9851533"><ele>166.16666666666669</ele><time>2026-04-18T07:40:48.062Z</time></trkpt><trkpt lat="44.089645" lon="11.9851933"><ele>169.33333333333334</ele><time>2026-04-18T07:40:49.062Z</time></trkpt><trkpt lat="44.0897167" lon="11.9852417"><ele>172.5</ele><time>2026-04-18T07:40:50.062Z</time></trkpt><trkpt lat="44.0897917" lon="11.98531"><ele>175.66666666666666</ele><time>2026-04-18T07:40:51.062Z</time></trkpt><trkpt lat="44.0898533" lon="11.9853817"><ele>178.83333333333331</ele><time>2026-04-18T07:40:52.062Z</time></trkpt><trkpt lat="44.08992" lon="11.98545"><ele>182.0</ele><time>2026-04-18T07:40:53.062Z</time></trkpt><trkpt lat="44.089985" lon="11.98551"><ele>182.0</ele><time>2026-04-18T07:40:54.062Z</time></trkpt><trkpt lat="44.0900517" lon="11.985565"><ele>182.0</ele><time>2026-04-18T07:40:55.062Z</time></trkpt><trkpt lat="44.0901233" lon="11.9856217"><ele>182.0</ele><time>2026-04-18T07:40:56.062Z</time></trkpt><trkpt lat="44.0901983" lon="11.9856783"><ele>182.0</ele><time>2026-04-18T07:40:57.062Z</time></trkpt><trkpt lat="44.0902717" lon="11.9857433"><ele>182.0</ele><time>2026-04-18T07:40:58.061Z</time></trkpt><trkpt lat="44.0903383" lon="11.9858167"><ele>182.0</ele><time>2026-04-18T07:40:59.062Z</time></trkpt><trkpt lat="44.0903983" lon="11.98589"><ele>185.0</ele><time>2026-04-18T07:41:00.061Z</time></trkpt><trkpt lat="44.0904533" lon="11.9859667"><ele>188.0</ele><time>2026-04-18T07:41:01.062Z</time></trkpt><trkpt lat="44.0905033" lon="11.9860467"><ele>191.0</ele><time>2026-04-18T07:41:02.062Z</time></trkpt><trkpt lat="44.0905517" lon="11.98613"><ele>194.0</ele><time>2026-04-18T07:41:03.062Z</time></trkpt><trkpt lat="44.0905967" lon="11.986215"><ele>197.00000000000003</ele><time>2026-04-18T07:41:04.062Z</time></trkpt><trkpt lat="44.0906417" lon="11.9863017"><ele>200.0</ele><time>2026-04-18T07:41:05.062Z</time></trkpt><trkpt lat="44.0906867" lon="11.9863867"><ele>200.00000000000003</ele><time>2026-04-18T07:41:06.062Z</time></trkpt><trkpt lat="44.090735" lon="11.9864733"><ele>200.0</ele><time>2026-04-18T07:41:07.062Z</time></trkpt><trkpt lat="44.0907833" lon="11.9865567"><ele>200.0</ele><time>2026-04-18T07:41:08.062Z</time></trkpt><trkpt lat="44.09083" lon="11.9866283"><ele>200.0</ele><time>2026-04-18T07:41:09.062Z</time></trkpt><trkpt lat="44.0908767" lon="11.98669"><ele>200.00000000000003</ele><time>2026-04-18T07:41:10.062Z</time></trkpt><trkpt lat="44.0909783" lon="11.9867983"><ele>200.0</ele><time>2026-04-18T07:41:12.061Z</time></trkpt><trkpt lat="44.0910417" lon="11.9868667"><ele>199.83333333333334</ele><time>2026-04-18T07:41:13.062Z</time></trkpt><trkpt lat="44.0911033" lon="11.986945"><ele>199.66666666666669</ele><time>2026-04-18T07:41:14.062Z</time></trkpt><trkpt lat="44.09116" lon="11.9870083"><ele>199.5</ele><time>2026-04-18T07:41:15.061Z</time></trkpt><trkpt lat="44.0912217" lon="11.98708"><ele>199.33333333333331</ele><time>2026-04-18T07:41:16.061Z</time></trkpt><trkpt lat="44.0912833" lon="11.98714"><ele>199.16666666666666</ele><time>2026-04-18T07:41:17.062Z</time></trkpt><trkpt lat="44.0913467" lon="11.9871967"><ele>199.0</ele><time>2026-04-18T07:41:18.062Z</time></trkpt><trkpt lat="44.091415" lon="11.98725"><ele>198.99999999999997</ele><time>2026-04-18T07:41:19.061Z</time></trkpt><trkpt lat="44.09149" lon="11.9873017"><ele>199.0</ele><time>2026-04-18T07:41:20.062Z</time></trkpt><trkpt lat="44.09157" lon="11.98736"><ele>199.0</ele><time>2026-04-18T07:41:21.062Z</time></trkpt><trkpt lat="44.0916433" lon="11.9874183"><ele>199.0</ele><time>2026-04-18T07:41:22.062Z</time></trkpt><trkpt lat="44.0917067" lon="11.9874767"><ele>198.99999999999997</ele><time>2026-04-18T07:41:23.062Z</time></trkpt><trkpt lat="44.09178" lon="11.9875733"><ele>199.0</ele><time>2026-04-18T07:41:25.062Z</time></trkpt><trkpt lat="44.091795" lon="11.9876983"><ele>201.0</ele><time>2026-04-18T07:41:27.062Z</time></trkpt><trkpt lat="44.091775" lon="11.98785"><ele>203.0</ele><time>2026-04-18T07:41:29.062Z</time></trkpt><trkpt lat="44.0917783" lon="11.9879767"><ele>205.0</ele><time>2026-04-18T07:41:31.062Z</time></trkpt><trkpt lat="44.0918117" lon="11.9881233"><ele>207.0</ele><time>2026-04-18T07:41:33.062Z</time></trkpt><trkpt lat="44.0918167" lon="11.98822"><ele>209.0</ele><time>2026-04-18T07:41:34.062Z</time></trkpt><trkpt lat="44.0918117" lon="11.9883417"><ele>208.83333333333334</ele><time>2026-04-18T07:41:35.062Z</time></trkpt><trkpt lat="44.0918" lon="11.9884433"><ele>208.66666666666669</ele><time>2026-04-18T07:41:36.062Z</time></trkpt><trkpt lat="44.09179" lon="11.98854"><ele>208.5</ele><time>2026-04-18T07:41:37.062Z</time></trkpt><trkpt lat="44.091765" lon="11.988685"><ele>208.33333333333331</ele><time>2026-04-18T07:41:39.062Z</time></trkpt><trkpt lat="44.0917233" lon="11.988795"><ele>208.16666666666666</ele><time>2026-04-18T07:41:41.062Z</time></trkpt><trkpt lat="44.091665" lon="11.9888933"><ele>208.0</ele><time>2026-04-18T07:41:43.062Z</time></trkpt><trkpt lat="44.0915733" lon="11.9890167"><ele>208.99999999999997</ele><time>2026-04-18T07:41:45.062Z</time></trkpt><trkpt lat="44.0915167" lon="11.9890883"><ele>210.0</ele><time>2026-04-18T07:41:46.062Z</time></trkpt><trkpt lat="44.0914567" lon="11.9891567"><ele>211.0</ele><time>2026-04-18T07:41:47.061Z</time></trkpt><trkpt lat="44.0913883" lon="11.9892267"><ele>212.0</ele><time>2026-04-18T07:41:48.062Z</time></trkpt><trkpt lat="44.0913133" lon="11.9892933"><ele>212.99999999999997</ele><time>2026-04-18T07:41:49.061Z</time></trkpt><trkpt lat="44.0912383" lon="11.9893617"><ele>214.0</ele><time>2026-04-18T07:41:50.061Z</time></trkpt><trkpt lat="44.0911667" lon="11.9894167"><ele>213.99999999999997</ele><time>2026-04-18T07:41:51.062Z</time></trkpt><trkpt lat="44.0910983" lon="11.9894567"><ele>214.0</ele><time>2026-04-18T07:41:52.062Z</time></trkpt><trkpt lat="44.09102" lon="11.9894917"><ele>214.0</ele><time>2026-04-18T07:41:53.062Z</time></trkpt><trkpt lat="44.09094" lon="11.989525"><ele>214.0</ele><time>2026-04-18T07:41:54.062Z</time></trkpt><trkpt lat="44.090865" lon="11.9895617"><ele>213.99999999999997</ele><time>2026-04-18T07:41:55.062Z</time></trkpt><trkpt lat="44.090785" lon="11.9896117"><ele>214.0</ele><time>2026-04-18T07:41:56.062Z</time></trkpt><trkpt lat="44.0907217" lon="11.9896667"><ele>216.42857142857144</ele><time>2026-04-18T07:41:57.062Z</time></trkpt><trkpt lat="44.09067" lon="11.9897183"><ele>218.85714285714286</ele><time>2026-04-18T07:41:58.062Z</time></trkpt><trkpt lat="44.0905567" lon="11.989785"><ele>221.28571428571428</ele><time>2026-04-18T07:42:00.062Z</time></trkpt><trkpt lat="44.0904917" lon="11.9898017"><ele>223.71428571428572</ele><time>2026-04-18T07:42:01.061Z</time></trkpt><trkpt lat="44.0904283" lon="11.9897967"><ele>226.14285714285714</ele><time>2026-04-18T07:42:02.062Z</time></trkpt><trkpt lat="44.0903617" lon="11.9897717"><ele>228.57142857142858</ele><time>2026-04-18T07:42:03.062Z</time></trkpt><trkpt lat="44.0903033" lon="11.9897367"><ele>231.0</ele><time>2026-04-18T07:42:04.062Z</time></trkpt><trkpt lat="44.09025" lon="11.9896883"><ele>231.0</ele><time>2026-04-18T07:42:05.062Z</time></trkpt><trkpt lat="44.0902133" lon="11.989615"><ele>231.00000000000003</ele><time>2026-04-18T07:42:06.061Z</time></trkpt><trkpt lat="44.0901633" lon="11.9895333"><ele>231.00000000000003</ele><time>2026-04-18T07:42:07.062Z</time></trkpt><trkpt lat="44.0901017" lon="11.9894333"><ele>231.0</ele><time>2026-04-18T07:42:08.062Z</time></trkpt><trkpt lat="44.0900183" lon="11.9893233"><ele>231.0</ele><time>2026-04-18T07:42:09.061Z</time></trkpt><trkpt lat="44.0899183" lon="11.9892117"><ele>235.0</ele><time>2026-04-18T07:42:10.062Z</time></trkpt><trkpt lat="44.0898317" lon="11.9890883"><ele>239.00000000000003</ele><time>2026-04-18T07:42:11.062Z</time></trkpt><trkpt lat="44.0897633" lon="11.988965"><ele>243.00000000000003</ele><time>2026-04-18T07:42:12.062Z</time></trkpt><trkpt lat="44.089695" lon="11.988845"><ele>247.0</ele><time>2026-04-18T07:42:13.062Z</time></trkpt><trkpt lat="44.0896267" lon="11.9887467"><ele>251.0</ele><time>2026-04-18T07:42:14.061Z</time></trkpt><trkpt lat="44.0895483" lon="11.9886483"><ele>251.0</ele><time>2026-04-18T07:42:15.062Z</time></trkpt><trkpt lat="44.0894633" lon="11.9885417"><ele>251.00000000000003</ele><time>2026-04-18T07:42:16.062Z</time></trkpt><trkpt lat="44.0893733" lon="11.9884317"><ele>251.00000000000003</ele><time>2026-04-18T07:42:17.062Z</time></trkpt><trkpt lat="44.0893" lon="11.9883433"><ele>251.0</ele><time>2026-04-18T07:42:18.062Z</time></trkpt><trkpt lat="44.08924" lon="11.98828"><ele>251.0</ele><time>2026-04-18T07:42:19.062Z</time></trkpt><trkpt lat="44.089135" lon="11.9882633"><ele>252.00000000000003</ele><time>2026-04-18T07:42:21.062Z</time></trkpt><trkpt lat="44.08907" lon="11.98832"><ele>253.0</ele><time>2026-04-18T07:42:22.061Z</time></trkpt><trkpt lat="44.0890033" lon="11.9884"><ele>254.0</ele><time>2026-04-18T07:42:23.061Z</time></trkpt><trkpt lat="44.0889383" lon="11.988495"><ele>255.0</ele><time>2026-04-18T07:42:24.062Z</time></trkpt><trkpt lat="44.08889" lon="11.988595"><ele>256.0</ele><time>2026-04-18T07:42:25.062Z</time></trkpt><trkpt lat="44.0888483" lon="11.9886917"><ele>257.0</ele><time>2026-04-18T07:42:26.062Z</time></trkpt><trkpt lat="44.088835" lon="11.9887817"><ele>257.6666666666667</ele><time>2026-04-18T07:42:27.062Z</time></trkpt><trkpt lat="44.0888383" lon="11.9888817"><ele>258.33333333333337</ele><time>2026-04-18T07:42:28.062Z</time></trkpt><trkpt lat="44.0888483" lon="11.9889933"><ele>259.0</ele><time>2026-04-18T07:42:29.061Z</time></trkpt><trkpt lat="44.0888583" lon="11.9891167"><ele>259.6666666666667</ele><time>2026-04-18T07:42:30.062Z</time></trkpt><trkpt lat="44.0888583" lon="11.9892533"><ele>260.3333333333333</ele><time>2026-04-18T07:42:31.061Z</time></trkpt><trkpt lat="44.0888467" lon="11.98939"><ele>261.0</ele><time>2026-04-18T07:42:32.062Z</time></trkpt><trkpt lat="44.0888317" lon="11.9895167"><ele>262.1666666666667</ele><time>2026-04-18T07:42:33.062Z</time></trkpt><trkpt lat="44.088825" lon="11.98963"><ele>263.3333333333333</ele><time>2026-04-18T07:42:34.062Z</time></trkpt><trkpt lat="44.08882" lon="11.9897467"><ele>264.5</ele><time>2026-04-18T07:42:35.062Z</time></trkpt><trkpt lat="44.0888183" lon="11.989865"><ele>265.66666666666663</ele><time>2026-04-18T07:42:36.062Z</time></trkpt><trkpt lat="44.0887983" lon="11.9899617"><ele>266.8333333333333</ele><time>2026-04-18T07:42:37.062Z</time></trkpt><trkpt lat="44.08875" lon="11.9900467"><ele>268.0</ele><time>2026-04-18T07:42:38.062Z</time></trkpt><trkpt lat="44.088695" lon="11.9901183"><ele>270.4</ele><time>2026-04-18T07:42:39.061Z</time></trkpt><trkpt lat="44.08864" lon="11.99019"><ele>272.8</ele><time>2026-04-18T07:42:40.062Z</time></trkpt><trkpt lat="44.0885617" lon="11.9902917"><ele>275.2</ele><time>2026-04-18T07:42:42.062Z</time></trkpt><trkpt lat="44.0884833" lon="11.990445"><ele>277.6</ele><time>2026-04-18T07:42:44.062Z</time></trkpt><trkpt lat="44.0884317" lon="11.9905583"><ele>280.0</ele><time>2026-04-18T07:42:45.062Z</time></trkpt><trkpt lat="44.0883767" lon="11.9906667"><ele>280.0</ele><time>2026-04-18T07:42:46.062Z</time></trkpt><trkpt lat="44.0883233" lon="11.9907683"><ele>280.0</ele><time>2026-04-18T07:42:47.061Z</time></trkpt><trkpt lat="44.0882733" lon="11.9908783"><ele>280.0</ele><time>2026-04-18T07:42:48.062Z</time></trkpt><trkpt lat="44.08823" lon="11.9909867"><ele>280.0</ele><time>2026-04-18T07:42:49.061Z</time></trkpt><trkpt lat="44.0881767" lon="11.9911233"><ele>280.0</ele><time>2026-04-18T07:42:50.062Z</time></trkpt><trkpt lat="44.088115" lon="11.9912583"><ele>281.0</ele><time>2026-04-18T07:42:51.062Z</time></trkpt><trkpt lat="44.0880467" lon="11.99138"><ele>282.0</ele><time>2026-04-18T07:42:52.062Z</time></trkpt><trkpt lat="44.0879883" lon="11.9915033"><ele>283.0</ele><time>2026-04-18T07:42:53.062Z</time></trkpt><trkpt lat="44.0879417" lon="11.991645"><ele>284.0</ele><time>2026-04-18T07:42:54.062Z</time></trkpt><trkpt lat="44.0879033" lon="11.991805"><ele>286.75</ele><time>2026-04-18T07:42:55.062Z</time></trkpt><trkpt lat="44.0878633" lon="11.9919683"><ele>289.5</ele><time>2026-04-18T07:42:56.062Z</time></trkpt><trkpt lat="44.0878183" lon="11.992135"><ele>292.25</ele><time>2026-04-18T07:42:57.062Z</time></trkpt><trkpt lat="44.0877683" lon="11.9923083"><ele>295.0</ele><time>2026-04-18T07:42:58.062Z</time></trkpt><trkpt lat="44.0877083" lon="11.9924817"><ele>297.0</ele><time>2026-04-18T07:42:59.062Z</time></trkpt><trkpt lat="44.087645" lon="11.9926567"><ele>299.0</ele><time>2026-04-18T07:43:00.061Z</time></trkpt><trkpt lat="44.087575" lon="11.9928183"><ele>301.0</ele><time>2026-04-18T07:43:01.061Z</time></trkpt><trkpt lat="44.0875183" lon="11.9929683"><ele>303.0</ele><time>2026-04-18T07:43:02.061Z</time></trkpt><trkpt lat="44.0874767" lon="11.9930883"><ele>303.0</ele><time>2026-04-18T07:43:03.062Z</time></trkpt><trkpt lat="44.0874283" lon="11.99319"><ele>303.0</ele><time>2026-04-18T07:43:04.062Z</time></trkpt><trkpt lat="44.0873717" lon="11.99329"><ele>303.0</ele><time>2026-04-18T07:43:05.062Z</time></trkpt><trkpt lat="44.0873133" lon="11.9933783"><ele>303.0</ele><time>2026-04-18T07:43:06.062Z</time></trkpt><trkpt lat="44.08726" lon="11.9934617"><ele>303.0</ele><time>2026-04-18T07:43:07.062Z</time></trkpt><trkpt lat="44.0872183" lon="11.993545"><ele>303.0</ele><time>2026-04-18T07:43:08.062Z</time></trkpt><trkpt lat="44.0871767" lon="11.9936367"><ele>307.0</ele><time>2026-04-18T07:43:09.063Z</time></trkpt><trkpt lat="44.087135" lon="11.9937367"><ele>311.0</ele><time>2026-04-18T07:43:10.063Z</time></trkpt><trkpt lat="44.0870967" lon="11.9938567"><ele>315.0</ele><time>2026-04-18T07:43:11.062Z</time></trkpt><trkpt lat="44.0870617" lon="11.9940133"><ele>319.0</ele><time>2026-04-18T07:43:12.063Z</time></trkpt><trkpt lat="44.0870083" lon="11.9941567"><ele>323.0</ele><time>2026-04-18T07:43:13.063Z</time></trkpt><trkpt lat="44.0869383" lon="11.99427"><ele>325.59999999999997</ele><time>2026-04-18T07:43:14.063Z</time></trkpt><trkpt lat="44.08687" lon="11.994365"><ele>328.2</ele><time>2026-04-18T07:43:15.063Z</time></trkpt><trkpt lat="44.0868" lon="11.9944783"><ele>330.8</ele><time>2026-04-18T07:43:16.063Z</time></trkpt><trkpt lat="44.0867267" lon="11.99459"><ele>333.4</ele><time>2026-04-18T07:43:17.062Z</time></trkpt><trkpt lat="44.0866567" lon="11.9947033"><ele>336.0</ele><time>2026-04-18T07:43:18.063Z</time></trkpt><trkpt lat="44.086575" lon="11.9948167"><ele>336.0</ele><time>2026-04-18T07:43:19.063Z</time></trkpt><trkpt lat="44.0864883" lon="11.9949333"><ele>336.0</ele><time>2026-04-18T07:43:20.063Z</time></trkpt><trkpt lat="44.086425" lon="11.9950483"><ele>336.0</ele><time>2026-04-18T07:43:21.063Z</time></trkpt><trkpt lat="44.0863717" lon="11.99516"><ele>336.0</ele><time>2026-04-18T07:43:22.063Z</time></trkpt><trkpt lat="44.0863317" lon="11.9952817"><ele>336.0</ele><time>2026-04-18T07:43:23.063Z</time></trkpt><trkpt lat="44.086295" lon="11.9954"><ele>340.75</ele><time>2026-04-18T07:43:24.063Z</time></trkpt><trkpt lat="44.08624" lon="11.995525"><ele>345.5</ele><time>2026-04-18T07:43:25.063Z</time></trkpt><trkpt lat="44.0861483" lon="11.995645"><ele>350.25</ele><time>2026-04-18T07:43:26.063Z</time></trkpt><trkpt lat="44.0860417" lon="11.9957483"><ele>355.0</ele><time>2026-04-18T07:43:27.063Z</time></trkpt><trkpt lat="44.0859283" lon="11.9958467"><ele>357.5</ele><time>2026-04-18T07:43:28.062Z</time></trkpt><trkpt lat="44.08581" lon="11.995925"><ele>360.0</ele><time>2026-04-18T07:43:29.063Z</time></trkpt><trkpt lat="44.08569" lon="11.99603"><ele>362.5</ele><time>2026-04-18T07:43:30.062Z</time></trkpt><trkpt lat="44.0855767" lon="11.9961583"><ele>365.0</ele><time>2026-04-18T07:43:31.063Z</time></trkpt><trkpt lat="44.0854783" lon="11.9962617"><ele>365.25</ele><time>2026-04-18T07:43:32.062Z</time></trkpt><trkpt lat="44.085385" lon="11.9963417"><ele>365.5</ele><time>2026-04-18T07:43:33.063Z</time></trkpt><trkpt lat="44.0852733" lon="11.9964233"><ele>365.75</ele><time>2026-04-18T07:43:34.063Z</time></trkpt><trkpt lat="44.0851467" lon="11.9965167"><ele>366.0</ele><time>2026-04-18T07:43:35.062Z</time></trkpt><trkpt lat="44.0850267" lon="11.9966183"><ele>369.6</ele><time>2026-04-18T07:43:36.063Z</time></trkpt><trkpt lat="44.08493" lon="11.9967133"><ele>373.20000000000005</ele><time>2026-04-18T07:43:37.063Z</time></trkpt><trkpt lat="44.08487" lon="11.996795"><ele>376.79999999999995</ele><time>2026-04-18T07:43:38.063Z</time></trkpt><trkpt lat="44.08483" lon="11.99692"><ele>380.4</ele><time>2026-04-18T07:43:39.062Z</time></trkpt><trkpt lat="44.0847917" lon="11.997055"><ele>384.0</ele><time>2026-04-18T07:43:40.063Z</time></trkpt><trkpt lat="44.084765" lon="11.997185"><ele>384.6</ele><time>2026-04-18T07:43:41.063Z</time></trkpt><trkpt lat="44.0847233" lon="11.9972983"><ele>385.2</ele><time>2026-04-18T07:43:42.063Z</time></trkpt><trkpt lat="44.0846867" lon="11.9974133"><ele>385.8</ele><time>2026-04-18T07:43:43.063Z</time></trkpt><trkpt lat="44.084645" lon="11.9975417"><ele>386.40000000000003</ele><time>2026-04-18T07:43:44.063Z</time></trkpt><trkpt lat="44.0845983" lon="11.9976867"><ele>387.0</ele><time>2026-04-18T07:43:45.063Z</time></trkpt><trkpt lat="44.084555" lon="11.997845"><ele>387.8333333333333</ele><time>2026-04-18T07:43:46.063Z</time></trkpt><trkpt lat="44.08451" lon="11.9979867"><ele>388.66666666666663</ele><time>2026-04-18T07:43:47.063Z</time></trkpt><trkpt lat="44.0844717" lon="11.99808"><ele>389.5</ele><time>2026-04-18T07:43:48.063Z</time></trkpt><trkpt lat="44.08439" lon="11.998145"><ele>390.3333333333333</ele><time>2026-04-18T07:43:50.063Z</time></trkpt><trkpt lat="44.0843267" lon="11.9981067"><ele>391.16666666666663</ele><time>2026-04-18T07:43:52.063Z</time></trkpt><trkpt lat="44.0842517" lon="11.9980667"><ele>392.0</ele><time>2026-04-18T07:43:54.062Z</time></trkpt><trkpt lat="44.084175" lon="11.9980533"><ele>392.0</ele><time>2026-04-18T07:43:56.063Z</time></trkpt><trkpt lat="44.0841067" lon="11.9980433"><ele>392.0</ele><time>2026-04-18T07:43:58.063Z</time></trkpt><trkpt lat="44.0840533" lon="11.9979833"><ele>392.0</ele><time>2026-04-18T07:44:00.063Z</time></trkpt><trkpt lat="44.0840067" lon="11.9979117"><ele>392.0</ele><time>2026-04-18T07:44:02.063Z</time></trkpt><trkpt lat="44.0839383" lon="11.997825"><ele>392.0</ele><time>2026-04-18T07:44:09.063Z</time></trkpt><trkpt lat="44.0838833" lon="11.99778"><ele>392.0</ele><time>2026-04-18T07:44:10.063Z</time></trkpt><trkpt lat="44.08381" lon="11.99774"><ele>392.0</ele><time>2026-04-18T07:44:11.063Z</time></trkpt><trkpt lat="44.083725" lon="11.9977083"><ele>391.49999999999994</ele><time>2026-04-18T07:44:12.062Z</time></trkpt><trkpt lat="44.083635" lon="11.997665"><ele>391.0</ele><time>2026-04-18T07:44:13.063Z</time></trkpt><trkpt lat="44.0835517" lon="11.99761"><ele>390.5</ele><time>2026-04-18T07:44:14.063Z</time></trkpt><trkpt lat="44.0834767" lon="11.9975583"><ele>390.0</ele><time>2026-04-18T07:44:15.062Z</time></trkpt><trkpt lat="44.08342" lon="11.9975067"><ele>389.49999999999994</ele><time>2026-04-18T07:44:16.063Z</time></trkpt><trkpt lat="44.083365" lon="11.99744"><ele>389.0</ele><time>2026-04-18T07:44:17.063Z</time></trkpt><trkpt lat="44.08331" lon="11.9973633"><ele>386.16666666666663</ele><time>2026-04-18T07:44:18.063Z</time></trkpt><trkpt lat="44.0832533" lon="11.9972783"><ele>383.3333333333333</ele><time>2026-04-18T07:44:19.063Z</time></trkpt><trkpt lat="44.0832017" lon="11.9972017"><ele>380.5</ele><time>2026-04-18T07:44:20.063Z</time></trkpt><trkpt lat="44.0831483" lon="11.9971167"><ele>377.66666666666663</ele><time>2026-04-18T07:44:21.063Z</time></trkpt><trkpt lat="44.0830983" lon="11.99703"><ele>374.8333333333333</ele><time>2026-04-18T07:44:22.063Z</time></trkpt><trkpt lat="44.083055" lon="11.996955"><ele>372.0</ele><time>2026-04-18T07:44:23.063Z</time></trkpt><trkpt lat="44.0830167" lon="11.99688"><ele>372.0</ele><time>2026-04-18T07:44:24.063Z</time></trkpt><trkpt lat="44.0829733" lon="11.9968117"><ele>372.0</ele><time>2026-04-18T07:44:25.063Z</time></trkpt><trkpt lat="44.0829283" lon="11.9967283"><ele>372.0</ele><time>2026-04-18T07:44:26.063Z</time></trkpt><trkpt lat="44.0828717" lon="11.99662"><ele>372.0</ele><time>2026-04-18T07:44:27.063Z</time></trkpt><trkpt lat="44.0828083" lon="11.9965167"><ele>372.0</ele><time>2026-04-18T07:44:28.063Z</time></trkpt><trkpt lat="44.0827517" lon="11.9964417"><ele>372.0</ele><time>2026-04-18T07:44:29.063Z</time></trkpt><trkpt lat="44.08269" lon="11.9964033"><ele>373.28571428571433</ele><time>2026-04-18T07:44:30.063Z</time></trkpt><trkpt lat="44.082625" lon="11.99638"><ele>374.57142857142856</ele><time>2026-04-18T07:44:31.063Z</time></trkpt><trkpt lat="44.0825633" lon="11.9963467"><ele>375.8571428571429</ele><time>2026-04-18T07:44:32.063Z</time></trkpt><trkpt lat="44.0825033" lon="11.9963033"><ele>377.14285714285717</ele><time>2026-04-18T07:44:33.063Z</time></trkpt><trkpt lat="44.0824433" lon="11.996255"><ele>378.42857142857144</ele><time>2026-04-18T07:44:34.063Z</time></trkpt><trkpt lat="44.082385" lon="11.996205"><ele>379.7142857142857</ele><time>2026-04-18T07:44:35.063Z</time></trkpt><trkpt lat="44.0823267" lon="11.9961483"><ele>381.0</ele><time>2026-04-18T07:44:36.063Z</time></trkpt><trkpt lat="44.0822617" lon="11.996075"><ele>377.6666666666667</ele><time>2026-04-18T07:44:37.063Z</time></trkpt><trkpt lat="44.0822" lon="11.9959933"><ele>374.3333333333333</ele><time>2026-04-18T07:44:38.063Z</time></trkpt><trkpt lat="44.0821367" lon="11.9959117"><ele>371.0</ele><time>2026-04-18T07:44:39.062Z</time></trkpt><trkpt lat="44.082075" lon="11.9958117"><ele>367.66666666666663</ele><time>2026-04-18T07:44:40.063Z</time></trkpt><trkpt lat="44.08201" lon="11.9957067"><ele>364.3333333333333</ele><time>2026-04-18T07:44:41.062Z</time></trkpt><trkpt lat="44.0819567" lon="11.9956167"><ele>361.0</ele><time>2026-04-18T07:44:42.063Z</time></trkpt><trkpt lat="44.08191" lon="11.9955233"><ele>361.0</ele><time>2026-04-18T07:44:43.063Z</time></trkpt><trkpt lat="44.081865" lon="11.995435"><ele>361.0</ele><time>2026-04-18T07:44:44.063Z</time></trkpt><trkpt lat="44.0818217" lon="11.9953417"><ele>361.0</ele><time>2026-04-18T07:44:45.063Z</time></trkpt><trkpt lat="44.0817667" lon="11.9952417"><ele>361.0</ele><time>2026-04-18T07:44:46.063Z</time></trkpt><trkpt lat="44.081705" lon="11.99514"><ele>361.0</ele><time>2026-04-18T07:44:47.063Z</time></trkpt><trkpt lat="44.08163" lon="11.9950417"><ele>361.0</ele><time>2026-04-18T07:44:48.063Z</time></trkpt><trkpt lat="44.0815533" lon="11.9949583"><ele>356.8</ele><time>2026-04-18T07:44:49.063Z</time></trkpt><trkpt lat="44.0814733" lon="11.9948767"><ele>352.6</ele><time>2026-04-18T07:44:50.062Z</time></trkpt><trkpt lat="44.0813917" lon="11.9947933"><ele>348.4</ele><time>2026-04-18T07:44:51.063Z</time></trkpt><trkpt lat="44.081305" lon="11.994695"><ele>344.2</ele><time>2026-04-18T07:44:52.063Z</time></trkpt><trkpt lat="44.0812083" lon="11.99459"><ele>340.0</ele><time>2026-04-18T07:44:53.063Z</time></trkpt><trkpt lat="44.0811083" lon="11.99449"><ele>340.0</ele><time>2026-04-18T07:44:54.063Z</time></trkpt><trkpt lat="44.0810233" lon="11.9943933"><ele>340.0</ele><time>2026-04-18T07:44:55.062Z</time></trkpt><trkpt lat="44.0809383" lon="11.9943067"><ele>340.0</ele><time>2026-04-18T07:44:56.063Z</time></trkpt><trkpt lat="44.0808583" lon="11.9942283"><ele>340.0</ele><time>2026-04-18T07:44:57.063Z</time></trkpt><trkpt lat="44.0807867" lon="11.9941433"><ele>340.0</ele><time>2026-04-18T07:44:58.062Z</time></trkpt><trkpt lat="44.0807267" lon="11.9940467"><ele>338.0</ele><time>2026-04-18T07:44:59.063Z</time></trkpt><trkpt lat="44.08068" lon="11.9939333"><ele>336.0</ele><time>2026-04-18T07:45:00.063Z</time></trkpt><trkpt lat="44.0806483" lon="11.99379"><ele>334.0</ele><time>2026-04-18T07:45:01.063Z</time></trkpt><trkpt lat="44.0806167" lon="11.9936467"><ele>332.0</ele><time>2026-04-18T07:45:02.063Z</time></trkpt><trkpt lat="44.080585" lon="11.9935167"><ele>330.0</ele><time>2026-04-18T07:45:03.062Z</time></trkpt><trkpt lat="44.0805467" lon="11.9933833"><ele>333.0</ele><time>2026-04-18T07:45:04.062Z</time></trkpt><trkpt lat="44.080495" lon="11.9932533"><ele>336.0</ele><time>2026-04-18T07:45:05.063Z</time></trkpt><trkpt lat="44.080425" lon="11.9931283"><ele>339.0</ele><time>2026-04-18T07:45:06.063Z</time></trkpt><trkpt lat="44.0803383" lon="11.9930083"><ele>342.0</ele><time>2026-04-18T07:45:07.063Z</time></trkpt><trkpt lat="44.0802467" lon="11.992885"><ele>342.0</ele><time>2026-04-18T07:45:08.062Z</time></trkpt><trkpt lat="44.0801617" lon="11.9927833"><ele>342.0</ele><time>2026-04-18T07:45:09.063Z</time></trkpt><trkpt lat="44.0800717" lon="11.9926817"><ele>342.0</ele><time>2026-04-18T07:45:10.063Z</time></trkpt><trkpt lat="44.07996" lon="11.9925767"><ele>342.0</ele><time>2026-04-18T07:45:11.063Z</time></trkpt><trkpt lat="44.0798433" lon="11.9924667"><ele>344.0</ele><time>2026-04-18T07:45:12.063Z</time></trkpt><trkpt lat="44.0797183" lon="11.99236"><ele>346.0</ele><time>2026-04-18T07:45:13.063Z</time></trkpt><trkpt lat="44.07959" lon="11.99225"><ele>348.0</ele><time>2026-04-18T07:45:14.063Z</time></trkpt><trkpt lat="44.079465" lon="11.992135"><ele>350.0</ele><time>2026-04-18T07:45:15.063Z</time></trkpt><trkpt lat="44.0793533" lon="11.99203"><ele>350.0</ele><time>2026-04-18T07:45:16.063Z</time></trkpt><trkpt lat="44.0792667" lon="11.9919283"><ele>350.0</ele><time>2026-04-18T07:45:17.063Z</time></trkpt><trkpt lat="44.079215" lon="11.991845"><ele>350.0</ele><time>2026-04-18T07:45:18.063Z</time></trkpt><trkpt lat="44.07917" lon="11.9917833"><ele>350.0</ele><time>2026-04-18T07:45:19.063Z</time></trkpt><trkpt lat="44.0790667" lon="11.9917183"><ele>350.0</ele><time>2026-04-18T07:45:21.063Z</time></trkpt><trkpt lat="44.07898" lon="11.9916933"><ele>351.6</ele><time>2026-04-18T07:45:22.062Z</time></trkpt><trkpt lat="44.0788867" lon="11.99167"><ele>353.2</ele><time>2026-04-18T07:45:23.062Z</time></trkpt><trkpt lat="44.0788067" lon="11.9916383"><ele>354.79999999999995</ele><time>2026-04-18T07:45:24.063Z</time></trkpt><trkpt lat="44.0787133" lon="11.9915833"><ele>356.4</ele><time>2026-04-18T07:45:26.063Z</time></trkpt><trkpt lat="44.0786283" lon="11.9914883"><ele>358.0</ele><time>2026-04-18T07:45:28.063Z</time></trkpt><trkpt lat="44.0785617" lon="11.9914183"><ele>358.0</ele><time>2026-04-18T07:45:29.063Z</time></trkpt><trkpt lat="44.0784867" lon="11.991365"><ele>358.0</ele><time>2026-04-18T07:45:30.063Z</time></trkpt><trkpt lat="44.0783983" lon="11.9913217"><ele>358.0</ele><time>2026-04-18T07:45:31.063Z</time></trkpt><trkpt lat="44.0782883" lon="11.9912867"><ele>358.0</ele><time>2026-04-18T07:45:32.063Z</time></trkpt><trkpt lat="44.0781767" lon="11.9912567"><ele>358.0</ele><time>2026-04-18T07:45:33.063Z</time></trkpt><trkpt lat="44.0780783" lon="11.9912317"><ele>359.5</ele><time>2026-04-18T07:45:34.063Z</time></trkpt><trkpt lat="44.0779967" lon="11.99121"><ele>361.0</ele><time>2026-04-18T07:45:35.063Z</time></trkpt><trkpt lat="44.0779267" lon="11.9911817"><ele>362.5</ele><time>2026-04-18T07:45:36.063Z</time></trkpt><trkpt lat="44.0778567" lon="11.9910933"><ele>364.0</ele><time>2026-04-18T07:45:38.063Z</time></trkpt><trkpt lat="44.0778517" lon="11.991005"><ele>365.5</ele><time>2026-04-18T07:45:39.063Z</time></trkpt><trkpt lat="44.07786" lon="11.9908867"><ele>367.0</ele><time>2026-04-18T07:45:40.062Z</time></trkpt><trkpt lat="44.0778667" lon="11.9907717"><ele>367.0</ele><time>2026-04-18T07:45:41.063Z</time></trkpt><trkpt lat="44.0778567" lon="11.9906533"><ele>367.0</ele><time>2026-04-18T07:45:42.062Z</time></trkpt><trkpt lat="44.0778183" lon="11.9905267"><ele>367.0</ele><time>2026-04-18T07:45:43.063Z</time></trkpt><trkpt lat="44.0777733" lon="11.99042"><ele>367.0</ele><time>2026-04-18T07:45:44.062Z</time></trkpt><trkpt lat="44.0777317" lon="11.99034"><ele>367.0</ele><time>2026-04-18T07:45:45.063Z</time></trkpt><trkpt lat="44.0776767" lon="11.9902133"><ele>367.0</ele><time>2026-04-18T07:45:47.062Z</time></trkpt><trkpt lat="44.0776383" lon="11.9901267"><ele>367.0</ele><time>2026-04-18T07:45:48.063Z</time></trkpt><trkpt lat="44.0775783" lon="11.99001"><ele>367.0</ele><time>2026-04-18T07:45:49.063Z</time></trkpt><trkpt lat="44.0775133" lon="11.9898867"><ele>367.0</ele><time>2026-04-18T07:45:50.062Z</time></trkpt><trkpt lat="44.07745" lon="11.9897517"><ele>367.0</ele><time>2026-04-18T07:45:51.063Z</time></trkpt><trkpt lat="44.077395" lon="11.9896333"><ele>366.40000000000003</ele><time>2026-04-18T07:45:52.062Z</time></trkpt><trkpt lat="44.07734" lon="11.9895167"><ele>365.8</ele><time>2026-04-18T07:45:53.063Z</time></trkpt><trkpt lat="44.0772967" lon="11.9893917"><ele>365.2</ele><time>2026-04-18T07:45:54.062Z</time></trkpt><trkpt lat="44.07726" lon="11.9892683"><ele>364.6</ele><time>2026-04-18T07:45:55.062Z</time></trkpt><trkpt lat="44.07722" lon="11.9891567"><ele>364.0</ele><time>2026-04-18T07:45:56.062Z</time></trkpt><trkpt lat="44.0771567" lon="11.9890483"><ele>365.79999999999995</ele><time>2026-04-18T07:45:57.063Z</time></trkpt><trkpt lat="44.0770783" lon="11.988945"><ele>367.59999999999997</ele><time>2026-04-18T07:45:58.063Z</time></trkpt><trkpt lat="44.0770017" lon="11.9888517"><ele>369.4</ele><time>2026-04-18T07:45:59.063Z</time></trkpt><trkpt lat="44.0769383" lon="11.9887567"><ele>371.2</ele><time>2026-04-18T07:46:00.063Z</time></trkpt><trkpt lat="44.0768817" lon="11.9886733"><ele>373.0</ele><time>2026-04-18T07:46:01.063Z</time></trkpt><trkpt lat="44.0768217" lon="11.988615"><ele>373.0</ele><time>2026-04-18T07:46:02.063Z</time></trkpt><trkpt lat="44.076765" lon="11.988565"><ele>373.0</ele><time>2026-04-18T07:46:03.063Z</time></trkpt><trkpt lat="44.0766917" lon="11.98852"><ele>373.0</ele><time>2026-04-18T07:46:05.062Z</time></trkpt><trkpt lat="44.07661" lon="11.9885033"><ele>373.0</ele><time>2026-04-18T07:46:08.063Z</time></trkpt><trkpt lat="44.0765217" lon="11.988555"><ele>373.0</ele><time>2026-04-18T07:47:02.062Z</time></trkpt><trkpt lat="44.0764367" lon="11.988695"><ele>373.2</ele><time>2026-04-18T07:47:04.063Z</time></trkpt><trkpt lat="44.0763833" lon="11.988795"><ele>373.4</ele><time>2026-04-18T07:47:05.063Z</time></trkpt><trkpt lat="44.0763167" lon="11.9888967"><ele>373.59999999999997</ele><time>2026-04-18T07:47:06.062Z</time></trkpt><trkpt lat="44.0762333" lon="11.9889833"><ele>373.79999999999995</ele><time>2026-04-18T07:47:07.063Z</time></trkpt><trkpt lat="44.0761217" lon="11.9890517"><ele>374.0</ele><time>2026-04-18T07:47:08.063Z</time></trkpt><trkpt lat="44.0759783" lon="11.9890467"><ele>374.0</ele><time>2026-04-18T07:47:09.063Z</time></trkpt><trkpt lat="44.0758383" lon="11.9890317"><ele>374.0</ele><time>2026-04-18T07:47:10.063Z</time></trkpt><trkpt lat="44.0757217" lon="11.9890283"><ele>374.0</ele><time>2026-04-18T07:47:11.063Z</time></trkpt><trkpt lat="44.075625" lon="11.989055"><ele>374.0</ele><time>2026-04-18T07:47:12.063Z</time></trkpt><trkpt lat="44.0755467" lon="11.98911"><ele>374.0</ele><time>2026-04-18T07:47:13.063Z</time></trkpt><trkpt lat="44.0754717" lon="11.9891883"><ele>372.33333333333337</ele><time>2026-04-18T07:47:14.063Z</time></trkpt><trkpt lat="44.0754083" lon="11.989265"><ele>370.6666666666667</ele><time>2026-04-18T07:47:15.063Z</time></trkpt><trkpt lat="44.0753417" lon="11.98933"><ele>369.0</ele><time>2026-04-18T07:47:16.063Z</time></trkpt><trkpt lat="44.0752733" lon="11.9893833"><ele>367.3333333333333</ele><time>2026-04-18T07:47:17.063Z</time></trkpt><trkpt lat="44.0752" lon="11.989435"><ele>365.66666666666663</ele><time>2026-04-18T07:47:18.062Z</time></trkpt><trkpt lat="44.0751183" lon="11.989505"><ele>364.0</ele><time>2026-04-18T07:47:19.063Z</time></trkpt><trkpt lat="44.0750283" lon="11.9895783"><ele>364.0</ele><time>2026-04-18T07:47:20.063Z</time></trkpt><trkpt lat="44.07494" lon="11.98964"><ele>364.0</ele><time>2026-04-18T07:47:21.063Z</time></trkpt><trkpt lat="44.0748567" lon="11.9897067"><ele>364.0</ele><time>2026-04-18T07:47:22.063Z</time></trkpt><trkpt lat="44.0747933" lon="11.9897817"><ele>364.0</ele><time>2026-04-18T07:47:23.062Z</time></trkpt><trkpt lat="44.0747267" lon="11.9898667"><ele>364.0</ele><time>2026-04-18T07:47:24.063Z</time></trkpt><trkpt lat="44.07466" lon="11.9899667"><ele>363.25</ele><time>2026-04-18T07:47:25.063Z</time></trkpt><trkpt lat="44.0745767" lon="11.9900683"><ele>362.5</ele><time>2026-04-18T07:47:26.063Z</time></trkpt><trkpt lat="44.0744833" lon="11.990165"><ele>361.75</ele><time>2026-04-18T07:47:27.063Z</time></trkpt><trkpt lat="44.07438" lon="11.99025"><ele>361.0</ele><time>2026-04-18T07:47:28.063Z</time></trkpt><trkpt lat="44.07428" lon="11.99033"><ele>361.0</ele><time>2026-04-18T07:47:29.063Z</time></trkpt><trkpt lat="44.0741817" lon="11.99041"><ele>361.0</ele><time>2026-04-18T07:47:30.063Z</time></trkpt><trkpt lat="44.0740833" lon="11.990495"><ele>361.0</ele><time>2026-04-18T07:47:31.063Z</time></trkpt><trkpt lat="44.073985" lon="11.9905883"><ele>361.0</ele><time>2026-04-18T07:47:32.062Z</time></trkpt><trkpt lat="44.0738883" lon="11.9906767"><ele>361.5</ele><time>2026-04-18T07:47:33.063Z</time></trkpt><trkpt lat="44.073785" lon="11.9907567"><ele>362.0</ele><time>2026-04-18T07:47:34.063Z</time></trkpt><trkpt lat="44.0736817" lon="11.990825"><ele>362.5</ele><time>2026-04-18T07:47:35.063Z</time></trkpt><trkpt lat="44.0735717" lon="11.990895"><ele>363.0</ele><time>2026-04-18T07:47:36.062Z</time></trkpt><trkpt lat="44.0734583" lon="11.9909717"><ele>358.75</ele><time>2026-04-18T07:47:37.062Z</time></trkpt><trkpt lat="44.0733517" lon="11.99105"><ele>354.5</ele><time>2026-04-18T07:47:38.063Z</time></trkpt><trkpt lat="44.0732417" lon="11.99111"><ele>350.25</ele><time>2026-04-18T07:47:39.062Z</time></trkpt><trkpt lat="44.0731367" lon="11.9911517"><ele>346.0</ele><time>2026-04-18T07:47:40.062Z</time></trkpt><trkpt lat="44.0730283" lon="11.9911667"><ele>345.20000000000005</ele><time>2026-04-18T07:47:41.063Z</time></trkpt><trkpt lat="44.0729183" lon="11.9911567"><ele>344.40000000000003</ele><time>2026-04-18T07:47:42.063Z</time></trkpt><trkpt lat="44.0728167" lon="11.9911167"><ele>343.6</ele><time>2026-04-18T07:47:43.063Z</time></trkpt><trkpt lat="44.0727283" lon="11.9910783"><ele>342.8</ele><time>2026-04-18T07:47:44.063Z</time></trkpt><trkpt lat="44.0726467" lon="11.9910467"><ele>342.0</ele><time>2026-04-18T07:47:45.063Z</time></trkpt><trkpt lat="44.0725633" lon="11.9910233"><ele>342.0</ele><time>2026-04-18T07:47:46.062Z</time></trkpt><trkpt lat="44.072475" lon="11.9909983"><ele>342.0</ele><time>2026-04-18T07:47:47.063Z</time></trkpt><trkpt lat="44.0723783" lon="11.9909767"><ele>342.0</ele><time>2026-04-18T07:47:48.063Z</time></trkpt><trkpt lat="44.07228" lon="11.9909767"><ele>342.0</ele><time>2026-04-18T07:47:49.063Z</time></trkpt><trkpt lat="44.0721967" lon="11.9909933"><ele>342.0</ele><time>2026-04-18T07:47:50.063Z</time></trkpt><trkpt lat="44.0721067" lon="11.99102"><ele>340.8333333333333</ele><time>2026-04-18T07:47:51.063Z</time></trkpt><trkpt lat="44.0720267" lon="11.991045"><ele>339.6666666666667</ele><time>2026-04-18T07:47:52.063Z</time></trkpt><trkpt lat="44.0719433" lon="11.9910567"><ele>338.5</ele><time>2026-04-18T07:47:53.063Z</time></trkpt><trkpt lat="44.0718583" lon="11.9910533"><ele>337.33333333333337</ele><time>2026-04-18T07:47:54.062Z</time></trkpt><trkpt lat="44.07177" lon="11.9910317"><ele>336.1666666666667</ele><time>2026-04-18T07:47:55.063Z</time></trkpt><trkpt lat="44.07168" lon="11.9909933"><ele>335.0</ele><time>2026-04-18T07:47:56.063Z</time></trkpt><trkpt lat="44.0715883" lon="11.99095"><ele>335.0</ele><time>2026-04-18T07:47:57.063Z</time></trkpt><trkpt lat="44.071495" lon="11.990915"><ele>335.0</ele><time>2026-04-18T07:47:58.062Z</time></trkpt><trkpt lat="44.0714083" lon="11.9909033"><ele>335.0</ele><time>2026-04-18T07:47:59.063Z</time></trkpt><trkpt lat="44.0713183" lon="11.9909133"><ele>335.0</ele><time>2026-04-18T07:48:00.064Z</time></trkpt><trkpt lat="44.0712317" lon="11.990955"><ele>335.0</ele><time>2026-04-18T07:48:01.063Z</time></trkpt><trkpt lat="44.0711617" lon="11.9910817"><ele>335.0</ele><time>2026-04-18T07:48:02.063Z</time></trkpt><trkpt lat="44.0710883" lon="11.991205"><ele>335.0</ele><time>2026-04-18T07:48:03.064Z</time></trkpt><trkpt lat="44.0710083" lon="11.9913067"><ele>335.0</ele><time>2026-04-18T07:48:04.064Z</time></trkpt><trkpt lat="44.0709317" lon="11.9913833"><ele>335.0</ele><time>2026-04-18T07:48:05.064Z</time></trkpt><trkpt lat="44.0708583" lon="11.991435"><ele>335.0</ele><time>2026-04-18T07:48:06.064Z</time></trkpt><trkpt lat="44.0707733" lon="11.9914733"><ele>336.4</ele><time>2026-04-18T07:48:07.064Z</time></trkpt><trkpt lat="44.07068" lon="11.9914917"><ele>337.8</ele><time>2026-04-18T07:48:08.064Z</time></trkpt><trkpt lat="44.070585" lon="11.99151"><ele>339.20000000000005</ele><time>2026-04-18T07:48:09.064Z</time></trkpt><trkpt lat="44.07049" lon="11.9915283"><ele>340.6</ele><time>2026-04-18T07:48:10.064Z</time></trkpt><trkpt lat="44.0703883" lon="11.9915567"><ele>342.0</ele><time>2026-04-18T07:48:11.064Z</time></trkpt><trkpt lat="44.0702833" lon="11.991595"><ele>342.0</ele><time>2026-04-18T07:48:12.064Z</time></trkpt><trkpt lat="44.07019" lon="11.99164"><ele>342.0</ele><time>2026-04-18T07:48:13.064Z</time></trkpt><trkpt lat="44.0700967" lon="11.9916867"><ele>342.0</ele><time>2026-04-18T07:48:14.064Z</time></trkpt><trkpt lat="44.0700017" lon="11.9917433"><ele>342.0</ele><time>2026-04-18T07:48:15.064Z</time></trkpt><trkpt lat="44.0699117" lon="11.99182"><ele>342.0</ele><time>2026-04-18T07:48:16.064Z</time></trkpt><trkpt lat="44.0698367" lon="11.9919133"><ele>341.8</ele><time>2026-04-18T07:48:17.063Z</time></trkpt><trkpt lat="44.06978" lon="11.9920133"><ele>341.6</ele><time>2026-04-18T07:48:18.064Z</time></trkpt><trkpt lat="44.06973" lon="11.9921333"><ele>341.40000000000003</ele><time>2026-04-18T07:48:19.064Z</time></trkpt><trkpt lat="44.0696933" lon="11.992275"><ele>341.20000000000005</ele><time>2026-04-18T07:48:20.063Z</time></trkpt><trkpt lat="44.0696683" lon="11.9924183"><ele>341.0</ele><time>2026-04-18T07:48:21.063Z</time></trkpt><trkpt lat="44.0696433" lon="11.9925617"><ele>338.75</ele><time>2026-04-18T07:48:22.064Z</time></trkpt><trkpt lat="44.0696183" lon="11.9927133"><ele>336.5</ele><time>2026-04-18T07:48:23.063Z</time></trkpt><trkpt lat="44.069605" lon="11.9928717"><ele>334.25</ele><time>2026-04-18T07:48:24.064Z</time></trkpt><trkpt lat="44.0696" lon="11.9930333"><ele>332.0</ele><time>2026-04-18T07:48:25.064Z</time></trkpt><trkpt lat="44.0695983" lon="11.993215"><ele>328.75</ele><time>2026-04-18T07:48:26.064Z</time></trkpt><trkpt lat="44.069595" lon="11.9933983"><ele>325.5</ele><time>2026-04-18T07:48:27.064Z</time></trkpt><trkpt lat="44.069595" lon="11.993565"><ele>322.25</ele><time>2026-04-18T07:48:28.064Z</time></trkpt><trkpt lat="44.0695983" lon="11.9937133"><ele>319.0</ele><time>2026-04-18T07:48:29.064Z</time></trkpt><trkpt lat="44.0695983" lon="11.9938633"><ele>319.0</ele><time>2026-04-18T07:48:30.064Z</time></trkpt><trkpt lat="44.0695867" lon="11.9940083"><ele>319.0</ele><time>2026-04-18T07:48:31.063Z</time></trkpt><trkpt lat="44.0695833" lon="11.99415"><ele>319.0</ele><time>2026-04-18T07:48:32.064Z</time></trkpt><trkpt lat="44.0695833" lon="11.9942917"><ele>319.0</ele><time>2026-04-18T07:48:33.064Z</time></trkpt><trkpt lat="44.06959" lon="11.994445"><ele>319.0</ele><time>2026-04-18T07:48:34.063Z</time></trkpt><trkpt lat="44.0696067" lon="11.9945983"><ele>316.4</ele><time>2026-04-18T07:48:35.063Z</time></trkpt><trkpt lat="44.069645" lon="11.9947567"><ele>313.79999999999995</ele><time>2026-04-18T07:48:36.063Z</time></trkpt><trkpt lat="44.06969" lon="11.9949033"><ele>311.20000000000005</ele><time>2026-04-18T07:48:37.064Z</time></trkpt><trkpt lat="44.069735" lon="11.9950383"><ele>308.6</ele><time>2026-04-18T07:48:38.063Z</time></trkpt><trkpt lat="44.0697867" lon="11.995165"><ele>306.0</ele><time>2026-04-18T07:48:39.064Z</time></trkpt><trkpt lat="44.069835" lon="11.9952833"><ele>303.8</ele><time>2026-04-18T07:48:40.064Z</time></trkpt><trkpt lat="44.06986" lon="11.9953833"><ele>301.6</ele><time>2026-04-18T07:48:41.064Z</time></trkpt><trkpt lat="44.0698267" lon="11.995545"><ele>299.4</ele><time>2026-04-18T07:48:43.064Z</time></trkpt><trkpt lat="44.0697617" lon="11.9956067"><ele>297.2</ele><time>2026-04-18T07:48:44.064Z</time></trkpt><trkpt lat="44.0696783" lon="11.9956567"><ele>295.0</ele><time>2026-04-18T07:48:45.064Z</time></trkpt><trkpt lat="44.0695867" lon="11.995675"><ele>295.0</ele><time>2026-04-18T07:48:46.063Z</time></trkpt><trkpt lat="44.069505" lon="11.99562"><ele>295.0</ele><time>2026-04-18T07:48:47.064Z</time></trkpt><trkpt lat="44.0694417" lon="11.9955317"><ele>295.0</ele><time>2026-04-18T07:48:48.063Z</time></trkpt><trkpt lat="44.0693833" lon="11.9954267"><ele>295.0</ele><time>2026-04-18T07:48:49.064Z</time></trkpt><trkpt lat="44.069325" lon="11.9953317"><ele>295.0</ele><time>2026-04-18T07:48:50.064Z</time></trkpt><trkpt lat="44.0692517" lon="11.9952583"><ele>295.0</ele><time>2026-04-18T07:48:51.064Z</time></trkpt><trkpt lat="44.0691683" lon="11.9952283"><ele>295.0</ele><time>2026-04-18T07:48:52.064Z</time></trkpt><trkpt lat="44.069065" lon="11.9952333"><ele>295.0</ele><time>2026-04-18T07:48:53.064Z</time></trkpt><trkpt lat="44.0689417" lon="11.9952633"><ele>295.0</ele><time>2026-04-18T07:48:54.064Z</time></trkpt><trkpt lat="44.06882" lon="11.995285"><ele>295.0</ele><time>2026-04-18T07:48:55.064Z</time></trkpt><trkpt lat="44.0687067" lon="11.9952967"><ele>295.16666666666663</ele><time>2026-04-18T07:48:56.064Z</time></trkpt><trkpt lat="44.06861" lon="11.995295"><ele>295.3333333333333</ele><time>2026-04-18T07:48:57.064Z</time></trkpt><trkpt lat="44.0685283" lon="11.995305"><ele>295.5</ele><time>2026-04-18T07:48:58.064Z</time></trkpt><trkpt lat="44.0684483" lon="11.99535"><ele>295.6666666666667</ele><time>2026-04-18T07:48:59.064Z</time></trkpt><trkpt lat="44.0683733" lon="11.995385"><ele>295.83333333333337</ele><time>2026-04-18T07:49:00.064Z</time></trkpt><trkpt lat="44.0683" lon="11.995425"><ele>296.0</ele><time>2026-04-18T07:49:01.064Z</time></trkpt><trkpt lat="44.0682567" lon="11.9954917"><ele>294.5</ele><time>2026-04-18T07:49:02.064Z</time></trkpt><trkpt lat="44.0682783" lon="11.9956533"><ele>293.0</ele><time>2026-04-18T07:49:04.063Z</time></trkpt><trkpt lat="44.0683633" lon="11.99574"><ele>291.5</ele><time>2026-04-18T07:49:05.064Z</time></trkpt><trkpt lat="44.0684717" lon="11.9958167"><ele>290.0</ele><time>2026-04-18T07:49:06.063Z</time></trkpt><trkpt lat="44.0685783" lon="11.9959033"><ele>288.0</ele><time>2026-04-18T07:49:07.064Z</time></trkpt><trkpt lat="44.0686783" lon="11.99599"><ele>286.0</ele><time>2026-04-18T07:49:08.064Z</time></trkpt><trkpt lat="44.06876" lon="11.9960483"><ele>284.0</ele><time>2026-04-18T07:49:09.063Z</time></trkpt><trkpt lat="44.0688367" lon="11.9961167"><ele>282.0</ele><time>2026-04-18T07:49:10.064Z</time></trkpt><trkpt lat="44.0689" lon="11.99621"><ele>280.0</ele><time>2026-04-18T07:49:11.064Z</time></trkpt><trkpt lat="44.0689367" lon="11.9963333"><ele>280.0</ele><time>2026-04-18T07:49:12.064Z</time></trkpt><trkpt lat="44.0689483" lon="11.9964783"><ele>280.0</ele><time>2026-04-18T07:49:13.064Z</time></trkpt><trkpt lat="44.0689283" lon="11.9966333"><ele>280.0</ele><time>2026-04-18T07:49:14.063Z</time></trkpt><trkpt lat="44.0689117" lon="11.9967833"><ele>280.0</ele><time>2026-04-18T07:49:15.064Z</time></trkpt><trkpt lat="44.0689083" lon="11.9969333"><ele>280.0</ele><time>2026-04-18T07:49:16.064Z</time></trkpt><trkpt lat="44.0689133" lon="11.9970833"><ele>278.8</ele><time>2026-04-18T07:49:17.064Z</time></trkpt><trkpt lat="44.0689183" lon="11.9972267"><ele>277.6</ele><time>2026-04-18T07:49:18.064Z</time></trkpt><trkpt lat="44.0689183" lon="11.997355"><ele>276.4</ele><time>2026-04-18T07:49:19.064Z</time></trkpt><trkpt lat="44.0689183" lon="11.9974883"><ele>275.2</ele><time>2026-04-18T07:49:20.064Z</time></trkpt><trkpt lat="44.0689217" lon="11.99763"><ele>274.0</ele><time>2026-04-18T07:49:21.064Z</time></trkpt><trkpt lat="44.0689317" lon="11.9977833"><ele>273.2</ele><time>2026-04-18T07:49:22.064Z</time></trkpt><trkpt lat="44.0689567" lon="11.997925"><ele>272.4</ele><time>2026-04-18T07:49:23.063Z</time></trkpt><trkpt lat="44.0689983" lon="11.998045"><ele>271.6</ele><time>2026-04-18T07:49:24.064Z</time></trkpt><trkpt lat="44.0690483" lon="11.998145"><ele>270.8</ele><time>2026-04-18T07:49:25.064Z</time></trkpt><trkpt lat="44.0691183" lon="11.998255"><ele>270.0</ele><time>2026-04-18T07:49:26.064Z</time></trkpt><trkpt lat="44.0692067" lon="11.998375"><ele>266.0</ele><time>2026-04-18T07:49:27.064Z</time></trkpt><trkpt lat="44.0692933" lon="11.9985017"><ele>262.0</ele><time>2026-04-18T07:49:28.064Z</time></trkpt><trkpt lat="44.0693733" lon="11.9986283"><ele>258.0</ele><time>2026-04-18T07:49:29.064Z</time></trkpt><trkpt lat="44.069445" lon="11.9987483"><ele>254.0</ele><time>2026-04-18T07:49:30.063Z</time></trkpt><trkpt lat="44.0695167" lon="11.9988433"><ele>254.0</ele><time>2026-04-18T07:49:31.064Z</time></trkpt><trkpt lat="44.0695917" lon="11.9989067"><ele>253.99999999999997</ele><time>2026-04-18T07:49:32.064Z</time></trkpt><trkpt lat="44.06968" lon="11.9989417"><ele>253.99999999999997</ele><time>2026-04-18T07:49:33.064Z</time></trkpt><trkpt lat="44.0697883" lon="11.99896"><ele>254.0</ele><time>2026-04-18T07:49:34.064Z</time></trkpt><trkpt lat="44.06991" lon="11.9989717"><ele>254.0</ele><time>2026-04-18T07:49:35.064Z</time></trkpt><trkpt lat="44.07002" lon="11.99897"><ele>254.39999999999998</ele><time>2026-04-18T07:49:36.064Z</time></trkpt><trkpt lat="44.0701317" lon="11.9989617"><ele>254.79999999999998</ele><time>2026-04-18T07:49:37.064Z</time></trkpt><trkpt lat="44.0702383" lon="11.99896"><ele>255.20000000000002</ele><time>2026-04-18T07:49:38.064Z</time></trkpt><trkpt lat="44.07035" lon="11.9989633"><ele>255.60000000000002</ele><time>2026-04-18T07:49:39.064Z</time></trkpt><trkpt lat="44.070445" lon="11.998955"><ele>256.0</ele><time>2026-04-18T07:49:40.064Z</time></trkpt><trkpt lat="44.0705317" lon="11.9989633"><ele>256.0</ele><time>2026-04-18T07:49:41.064Z</time></trkpt><trkpt lat="44.070595" lon="11.9989883"><ele>256.0</ele><time>2026-04-18T07:49:42.064Z</time></trkpt><trkpt lat="44.0706467" lon="11.9990483"><ele>256.0</ele><time>2026-04-18T07:49:43.064Z</time></trkpt><trkpt lat="44.0706433" lon="11.9992583"><ele>256.0</ele><time>2026-04-18T07:49:45.064Z</time></trkpt><trkpt lat="44.0705917" lon="11.9994067"><ele>256.0</ele><time>2026-04-18T07:49:46.063Z</time></trkpt><trkpt lat="44.0705283" lon="11.999545"><ele>253.0</ele><time>2026-04-18T07:49:47.064Z</time></trkpt><trkpt lat="44.0704567" lon="11.9996717"><ele>250.0</ele><time>2026-04-18T07:49:48.063Z</time></trkpt><trkpt lat="44.0703833" lon="11.9997967"><ele>247.0</ele><time>2026-04-18T07:49:49.064Z</time></trkpt><trkpt lat="44.0703067" lon="11.9999167"><ele>244.0</ele><time>2026-04-18T07:49:50.063Z</time></trkpt><trkpt lat="44.0702233" lon="12.0000283"><ele>244.0</ele><time>2026-04-18T07:49:51.064Z</time></trkpt><trkpt lat="44.0701383" lon="12.0001417"><ele>244.0</ele><time>2026-04-18T07:49:52.064Z</time></trkpt><trkpt lat="44.0700533" lon="12.0002467"><ele>244.0</ele><time>2026-04-18T07:49:53.064Z</time></trkpt><trkpt lat="44.06996" lon="12.0003667"><ele>244.0</ele><time>2026-04-18T07:49:54.064Z</time></trkpt><trkpt lat="44.06988" lon="12.0004733"><ele>244.0</ele><time>2026-04-18T07:49:55.064Z</time></trkpt><trkpt lat="44.0698117" lon="12.0005717"><ele>243.99999999999997</ele><time>2026-04-18T07:49:56.064Z</time></trkpt><trkpt lat="44.0697667" lon="12.0006767"><ele>243.99999999999997</ele><time>2026-04-18T07:49:57.063Z</time></trkpt><trkpt lat="44.069745" lon="12.0008083"><ele>244.0</ele><time>2026-04-18T07:49:58.064Z</time></trkpt><trkpt lat="44.069755" lon="12.0009517"><ele>244.0</ele><time>2026-04-18T07:49:59.064Z</time></trkpt><trkpt lat="44.0697967" lon="12.001095"><ele>241.25</ele><time>2026-04-18T07:50:00.063Z</time></trkpt><trkpt lat="44.0698667" lon="12.0012517"><ele>238.5</ele><time>2026-04-18T07:50:01.064Z</time></trkpt><trkpt lat="44.069935" lon="12.0014017"><ele>235.75</ele><time>2026-04-18T07:50:02.063Z</time></trkpt><trkpt lat="44.070015" lon="12.00155"><ele>233.0</ele><time>2026-04-18T07:50:03.064Z</time></trkpt><trkpt lat="44.070095" lon="12.0017033"><ele>230.0</ele><time>2026-04-18T07:50:04.064Z</time></trkpt><trkpt lat="44.070175" lon="12.0018517"><ele>227.0</ele><time>2026-04-18T07:50:05.064Z</time></trkpt><trkpt lat="44.070245" lon="12.0019817"><ele>224.0</ele><time>2026-04-18T07:50:06.063Z</time></trkpt><trkpt lat="44.0703167" lon="12.00211"><ele>221.0</ele><time>2026-04-18T07:50:07.064Z</time></trkpt><trkpt lat="44.0703817" lon="12.0022333"><ele>221.0</ele><time>2026-04-18T07:50:08.064Z</time></trkpt><trkpt lat="44.0704433" lon="12.0023633"><ele>221.0</ele><time>2026-04-18T07:50:09.064Z</time></trkpt><trkpt lat="44.0705117" lon="12.0024983"><ele>221.0</ele><time>2026-04-18T07:50:10.064Z</time></trkpt><trkpt lat="44.0705767" lon="12.002635"><ele>221.0</ele><time>2026-04-18T07:50:11.064Z</time></trkpt><trkpt lat="44.070635" lon="12.00276"><ele>218.8</ele><time>2026-04-18T07:50:12.064Z</time></trkpt><trkpt lat="44.0707017" lon="12.0028867"><ele>216.60000000000002</ele><time>2026-04-18T07:50:13.064Z</time></trkpt><trkpt lat="44.0707733" lon="12.0030183"><ele>214.4</ele><time>2026-04-18T07:50:14.063Z</time></trkpt><trkpt lat="44.0708367" lon="12.0031333"><ele>212.2</ele><time>2026-04-18T07:50:15.064Z</time></trkpt><trkpt lat="44.07089" lon="12.0032517"><ele>210.0</ele><time>2026-04-18T07:50:16.064Z</time></trkpt><trkpt lat="44.07093" lon="12.0033767"><ele>208.0</ele><time>2026-04-18T07:50:17.063Z</time></trkpt><trkpt lat="44.0709583" lon="12.00352"><ele>206.0</ele><time>2026-04-18T07:50:18.063Z</time></trkpt><trkpt lat="44.070985" lon="12.00369"><ele>204.0</ele><time>2026-04-18T07:50:19.063Z</time></trkpt><trkpt lat="44.07102" lon="12.0038617"><ele>202.0</ele><time>2026-04-18T07:50:20.064Z</time></trkpt><trkpt lat="44.0710533" lon="12.00402"><ele>199.5</ele><time>2026-04-18T07:50:21.064Z</time></trkpt><trkpt lat="44.0710817" lon="12.004185"><ele>197.0</ele><time>2026-04-18T07:50:22.064Z</time></trkpt><trkpt lat="44.07111" lon="12.0043567"><ele>194.5</ele><time>2026-04-18T07:50:23.064Z</time></trkpt><trkpt lat="44.0711417" lon="12.0045283"><ele>192.0</ele><time>2026-04-18T07:50:24.064Z</time></trkpt><trkpt lat="44.071165" lon="12.0046917"><ele>192.0</ele><time>2026-04-18T07:50:25.064Z</time></trkpt><trkpt lat="44.0712133" lon="12.0048783"><ele>192.0</ele><time>2026-04-18T07:50:26.064Z</time></trkpt><trkpt lat="44.0712617" lon="12.0050367"><ele>192.0</ele><time>2026-04-18T07:50:27.064Z</time></trkpt><trkpt lat="44.07131" lon="12.00518"><ele>192.0</ele><time>2026-04-18T07:50:28.064Z</time></trkpt><trkpt lat="44.0713483" lon="12.0053133"><ele>189.8</ele><time>2026-04-18T07:50:29.064Z</time></trkpt><trkpt lat="44.0713833" lon="12.0054367"><ele>187.6</ele><time>2026-04-18T07:50:30.064Z</time></trkpt><trkpt lat="44.0714233" lon="12.0055483"><ele>185.4</ele><time>2026-04-18T07:50:31.063Z</time></trkpt><trkpt lat="44.0714533" lon="12.005655"><ele>183.20000000000002</ele><time>2026-04-18T07:50:32.064Z</time></trkpt><trkpt lat="44.0714583" lon="12.0057433"><ele>181.0</ele><time>2026-04-18T07:50:33.063Z</time></trkpt><trkpt lat="44.071375" lon="12.0058833"><ele>179.20000000000002</ele><time>2026-04-18T07:50:35.064Z</time></trkpt><trkpt lat="44.07129" lon="12.00591"><ele>177.4</ele><time>2026-04-18T07:50:36.064Z</time></trkpt><trkpt lat="44.0711867" lon="12.0059117"><ele>175.6</ele><time>2026-04-18T07:50:37.064Z</time></trkpt><trkpt lat="44.0710667" lon="12.0058967"><ele>173.8</ele><time>2026-04-18T07:50:38.063Z</time></trkpt><trkpt lat="44.0709367" lon="12.0058733"><ele>172.0</ele><time>2026-04-18T07:50:39.064Z</time></trkpt><trkpt lat="44.0708217" lon="12.00585"><ele>173.6</ele><time>2026-04-18T07:50:40.064Z</time></trkpt><trkpt lat="44.070715" lon="12.0058233"><ele>175.2</ele><time>2026-04-18T07:50:41.064Z</time></trkpt><trkpt lat="44.0706083" lon="12.0058317"><ele>176.8</ele><time>2026-04-18T07:50:42.064Z</time></trkpt><trkpt lat="44.0705167" lon="12.0058683"><ele>178.4</ele><time>2026-04-18T07:50:43.064Z</time></trkpt><trkpt lat="44.07042" lon="12.0059367"><ele>180.0</ele><time>2026-04-18T07:50:44.064Z</time></trkpt><trkpt lat="44.070325" lon="12.00601"><ele>180.0</ele><time>2026-04-18T07:50:45.064Z</time></trkpt><trkpt lat="44.070235" lon="12.006075"><ele>180.0</ele><time>2026-04-18T07:50:46.064Z</time></trkpt><trkpt lat="44.0701683" lon="12.0061283"><ele>180.0</ele><time>2026-04-18T07:50:47.064Z</time></trkpt><trkpt lat="44.07013" lon="12.0062533"><ele>180.0</ele><time>2026-04-18T07:50:49.064Z</time></trkpt><trkpt lat="44.0701617" lon="12.0063333"><ele>180.0</ele><time>2026-04-18T07:50:50.064Z</time></trkpt><trkpt lat="44.0702433" lon="12.0064067"><ele>180.0</ele><time>2026-04-18T07:50:51.064Z</time></trkpt><trkpt lat="44.070335" lon="12.006485"><ele>180.0</ele><time>2026-04-18T07:50:52.064Z</time></trkpt><trkpt lat="44.0704133" lon="12.0065783"><ele>180.0</ele><time>2026-04-18T07:50:53.064Z</time></trkpt><trkpt lat="44.07048" lon="12.0067067"><ele>180.0</ele><time>2026-04-18T07:50:54.064Z</time></trkpt><trkpt lat="44.0705317" lon="12.0068367"><ele>180.0</ele><time>2026-04-18T07:50:55.064Z</time></trkpt><trkpt lat="44.0705583" lon="12.00695"><ele>180.0</ele><time>2026-04-18T07:50:56.064Z</time></trkpt><trkpt lat="44.0705667" lon="12.0070667"><ele>181.0</ele><time>2026-04-18T07:50:57.064Z</time></trkpt><trkpt lat="44.0705583" lon="12.0071867"><ele>182.0</ele><time>2026-04-18T07:50:58.064Z</time></trkpt><trkpt lat="44.0705267" lon="12.00732"><ele>183.0</ele><time>2026-04-18T07:50:59.064Z</time></trkpt><trkpt lat="44.0704817" lon="12.007445"><ele>184.0</ele><time>2026-04-18T07:51:00.064Z</time></trkpt><trkpt lat="44.07042" lon="12.0075683"><ele>185.0</ele><time>2026-04-18T07:51:01.064Z</time></trkpt><trkpt lat="44.0703767" lon="12.0077133"><ele>186.75</ele><time>2026-04-18T07:51:02.063Z</time></trkpt><trkpt lat="44.0703383" lon="12.0078683"><ele>188.5</ele><time>2026-04-18T07:51:03.064Z</time></trkpt><trkpt lat="44.0702933" lon="12.0080217"><ele>190.25</ele><time>2026-04-18T07:51:04.064Z</time></trkpt><trkpt lat="44.0702333" lon="12.00817"><ele>192.0</ele><time>2026-04-18T07:51:05.063Z</time></trkpt><trkpt lat="44.0701767" lon="12.0083067"><ele>192.39999999999998</ele><time>2026-04-18T07:51:06.064Z</time></trkpt><trkpt lat="44.0701167" lon="12.0084533"><ele>192.79999999999998</ele><time>2026-04-18T07:51:07.064Z</time></trkpt><trkpt lat="44.0700517" lon="12.0085867"><ele>193.2</ele><time>2026-04-18T07:51:08.064Z</time></trkpt><trkpt lat="44.0699883" lon="12.0087083"><ele>193.6</ele><time>2026-04-18T07:51:09.064Z</time></trkpt><trkpt lat="44.0699533" lon="12.0088317"><ele>194.0</ele><time>2026-04-18T07:51:10.064Z</time></trkpt><trkpt lat="44.0699267" lon="12.008965"><ele>196.79999999999998</ele><time>2026-04-18T07:51:11.064Z</time></trkpt><trkpt lat="44.0699117" lon="12.0091083"><ele>199.6</ele><time>2026-04-18T07:51:12.064Z</time></trkpt><trkpt lat="44.0698867" lon="12.009255"><ele>202.4</ele><time>2026-04-18T07:51:13.063Z</time></trkpt><trkpt lat="44.0698517" lon="12.0093917"><ele>205.2</ele><time>2026-04-18T07:51:14.064Z</time></trkpt><trkpt lat="44.0698067" lon="12.0095267"><ele>208.0</ele><time>2026-04-18T07:51:15.063Z</time></trkpt><trkpt lat="44.06976" lon="12.0096583"><ele>208.16666666666666</ele><time>2026-04-18T07:51:16.064Z</time></trkpt><trkpt lat="44.0697067" lon="12.0097883"><ele>208.33333333333331</ele><time>2026-04-18T07:51:17.064Z</time></trkpt><trkpt lat="44.0696483" lon="12.0099033"><ele>208.5</ele><time>2026-04-18T07:51:18.064Z</time></trkpt><trkpt lat="44.0695883" lon="12.0099783"><ele>208.66666666666669</ele><time>2026-04-18T07:51:19.063Z</time></trkpt><trkpt lat="44.0695217" lon="12.0100217"><ele>208.83333333333334</ele><time>2026-04-18T07:51:20.063Z</time></trkpt><trkpt lat="44.0694483" lon="12.01004"><ele>209.0</ele><time>2026-04-18T07:51:21.064Z</time></trkpt><trkpt lat="44.0693683" lon="12.0100267"><ele>209.0</ele><time>2026-04-18T07:51:22.064Z</time></trkpt><trkpt lat="44.0692717" lon="12.009985"><ele>209.0</ele><time>2026-04-18T07:51:23.064Z</time></trkpt><trkpt lat="44.0691717" lon="12.0099517"><ele>209.0</ele><time>2026-04-18T07:51:24.063Z</time></trkpt><trkpt lat="44.0690717" lon="12.0099483"><ele>209.0</ele><time>2026-04-18T07:51:25.064Z</time></trkpt><trkpt lat="44.06897" lon="12.009995"><ele>209.0</ele><time>2026-04-18T07:51:26.063Z</time></trkpt><trkpt lat="44.0688817" lon="12.010085"><ele>212.39999999999998</ele><time>2026-04-18T07:51:27.064Z</time></trkpt><trkpt lat="44.0688033" lon="12.010205"><ele>215.8</ele><time>2026-04-18T07:51:28.064Z</time></trkpt><trkpt lat="44.068715" lon="12.01035"><ele>219.20000000000002</ele><time>2026-04-18T07:51:29.064Z</time></trkpt><trkpt lat="44.06864" lon="12.01047"><ele>222.60000000000002</ele><time>2026-04-18T07:51:30.063Z</time></trkpt><trkpt lat="44.0685833" lon="12.0105517"><ele>226.0</ele><time>2026-04-18T07:51:31.064Z</time></trkpt><trkpt lat="44.0685133" lon="12.0106483"><ele>226.0</ele><time>2026-04-18T07:51:33.064Z</time></trkpt><trkpt lat="44.0684517" lon="12.01068"><ele>226.0</ele><time>2026-04-18T07:51:35.063Z</time></trkpt><trkpt lat="44.0683583" lon="12.0106383"><ele>226.0</ele><time>2026-04-18T07:51:37.064Z</time></trkpt><trkpt lat="44.0682983" lon="12.0106"><ele>226.0</ele><time>2026-04-18T07:51:38.064Z</time></trkpt><trkpt lat="44.0682383" lon="12.010555"><ele>226.0</ele><time>2026-04-18T07:51:39.063Z</time></trkpt><trkpt lat="44.0681717" lon="12.0105117"><ele>226.0</ele><time>2026-04-18T07:51:40.064Z</time></trkpt><trkpt lat="44.0681117" lon="12.0104767"><ele>226.0</ele><time>2026-04-18T07:51:41.064Z</time></trkpt><trkpt lat="44.0679917" lon="12.0104083"><ele>229.66666666666666</ele><time>2026-04-18T07:51:43.064Z</time></trkpt><trkpt lat="44.0679283" lon="12.0103517"><ele>233.33333333333331</ele><time>2026-04-18T07:51:44.064Z</time></trkpt><trkpt lat="44.0678683" lon="12.0102933"><ele>237.0</ele><time>2026-04-18T07:51:45.064Z</time></trkpt><trkpt lat="44.067815" lon="12.010215"><ele>240.66666666666669</ele><time>2026-04-18T07:51:46.063Z</time></trkpt><trkpt lat="44.0677833" lon="12.0101317"><ele>244.33333333333334</ele><time>2026-04-18T07:51:47.064Z</time></trkpt><trkpt lat="44.0677617" lon="12.0100333"><ele>248.0</ele><time>2026-04-18T07:51:48.063Z</time></trkpt><trkpt lat="44.067755" lon="12.00991"><ele>248.8</ele><time>2026-04-18T07:51:49.064Z</time></trkpt><trkpt lat="44.0677533" lon="12.0097567"><ele>249.60000000000002</ele><time>2026-04-18T07:51:50.064Z</time></trkpt><trkpt lat="44.0677417" lon="12.0096"><ele>250.39999999999998</ele><time>2026-04-18T07:51:51.064Z</time></trkpt><trkpt lat="44.0677333" lon="12.0094433"><ele>251.2</ele><time>2026-04-18T07:51:52.064Z</time></trkpt><trkpt lat="44.0677017" lon="12.0093083"><ele>252.0</ele><time>2026-04-18T07:51:53.064Z</time></trkpt><trkpt lat="44.06765" lon="12.009195"><ele>251.39999999999998</ele><time>2026-04-18T07:51:54.064Z</time></trkpt><trkpt lat="44.0676" lon="12.00907"><ele>250.79999999999998</ele><time>2026-04-18T07:51:55.064Z</time></trkpt><trkpt lat="44.06754" lon="12.0089567"><ele>250.2</ele><time>2026-04-18T07:51:56.063Z</time></trkpt><trkpt lat="44.0674717" lon="12.0088417"><ele>249.6</ele><time>2026-04-18T07:51:57.063Z</time></trkpt><trkpt lat="44.0674067" lon="12.008735"><ele>249.0</ele><time>2026-04-18T07:51:58.064Z</time></trkpt><trkpt lat="44.067345" lon="12.008625"><ele>252.6</ele><time>2026-04-18T07:51:59.064Z</time></trkpt><trkpt lat="44.0672967" lon="12.0085133"><ele>256.2</ele><time>2026-04-18T07:52:00.064Z</time></trkpt><trkpt lat="44.0672467" lon="12.0083983"><ele>259.79999999999995</ele><time>2026-04-18T07:52:01.064Z</time></trkpt><trkpt lat="44.067195" lon="12.0082967"><ele>263.4</ele><time>2026-04-18T07:52:02.064Z</time></trkpt><trkpt lat="44.0671433" lon="12.008195"><ele>267.0</ele><time>2026-04-18T07:52:03.064Z</time></trkpt><trkpt lat="44.0670867" lon="12.0080867"><ele>267.0</ele><time>2026-04-18T07:52:04.064Z</time></trkpt><trkpt lat="44.0670167" lon="12.00798"><ele>267.0</ele><time>2026-04-18T07:52:05.064Z</time></trkpt><trkpt lat="44.066935" lon="12.0078583"><ele>267.0</ele><time>2026-04-18T07:52:06.063Z</time></trkpt><trkpt lat="44.0668467" lon="12.007735"><ele>267.0</ele><time>2026-04-18T07:52:07.063Z</time></trkpt><trkpt lat="44.0667533" lon="12.0076067"><ele>267.0</ele><time>2026-04-18T07:52:08.064Z</time></trkpt><trkpt lat="44.066665" lon="12.007495"><ele>267.0</ele><time>2026-04-18T07:52:09.063Z</time></trkpt><trkpt lat="44.0665783" lon="12.0073983"><ele>267.0</ele><time>2026-04-18T07:52:10.064Z</time></trkpt><trkpt lat="44.0664833" lon="12.0073217"><ele>267.0</ele><time>2026-04-18T07:52:11.064Z</time></trkpt><trkpt lat="44.0663867" lon="12.007255"><ele>267.0</ele><time>2026-04-18T07:52:12.064Z</time></trkpt><trkpt lat="44.066285" lon="12.0072033"><ele>268.75</ele><time>2026-04-18T07:52:13.064Z</time></trkpt><trkpt lat="44.0661783" lon="12.00717"><ele>270.5</ele><time>2026-04-18T07:52:14.064Z</time></trkpt><trkpt lat="44.0660617" lon="12.0071383"><ele>272.25</ele><time>2026-04-18T07:52:15.064Z</time></trkpt><trkpt lat="44.0659483" lon="12.0071067"><ele>274.0</ele><time>2026-04-18T07:52:16.064Z</time></trkpt><trkpt lat="44.0658233" lon="12.0070783"><ele>273.0</ele><time>2026-04-18T07:52:17.064Z</time></trkpt><trkpt lat="44.0657033" lon="12.0070467"><ele>272.0</ele><time>2026-04-18T07:52:18.064Z</time></trkpt><trkpt lat="44.0655967" lon="12.00701"><ele>271.0</ele><time>2026-04-18T07:52:19.064Z</time></trkpt><trkpt lat="44.0655083" lon="12.0069617"><ele>270.0</ele><time>2026-04-18T07:52:20.064Z</time></trkpt><trkpt lat="44.0654267" lon="12.0069033"><ele>269.0</ele><time>2026-04-18T07:52:21.064Z</time></trkpt><trkpt lat="44.0653483" lon="12.006815"><ele>269.0</ele><time>2026-04-18T07:52:22.064Z</time></trkpt><trkpt lat="44.0652567" lon="12.0066817"><ele>269.0</ele><time>2026-04-18T07:52:23.064Z</time></trkpt><trkpt lat="44.0651667" lon="12.00653"><ele>269.0</ele><time>2026-04-18T07:52:24.063Z</time></trkpt><trkpt lat="44.06509" lon="12.0063983"><ele>269.0</ele><time>2026-04-18T07:52:25.064Z</time></trkpt><trkpt lat="44.06503" lon="12.0062783"><ele>270.0</ele><time>2026-04-18T07:52:26.063Z</time></trkpt><trkpt lat="44.0649933" lon="12.0061633"><ele>271.0</ele><time>2026-04-18T07:52:27.064Z</time></trkpt><trkpt lat="44.0649717" lon="12.006035"><ele>272.0</ele><time>2026-04-18T07:52:28.063Z</time></trkpt><trkpt lat="44.0649633" lon="12.00588"><ele>273.0</ele><time>2026-04-18T07:52:29.064Z</time></trkpt><trkpt lat="44.0649617" lon="12.0057233"><ele>274.0</ele><time>2026-04-18T07:52:30.064Z</time></trkpt><trkpt lat="44.06498" lon="12.005555"><ele>275.0</ele><time>2026-04-18T07:52:31.063Z</time></trkpt><trkpt lat="44.0650167" lon="12.0053917"><ele>276.0</ele><time>2026-04-18T07:52:32.064Z</time></trkpt><trkpt lat="44.0650383" lon="12.0052433"><ele>277.0</ele><time>2026-04-18T07:52:33.064Z</time></trkpt><trkpt lat="44.0650367" lon="12.005105"><ele>278.0</ele><time>2026-04-18T07:52:34.064Z</time></trkpt><trkpt lat="44.0650033" lon="12.00496"><ele>279.0</ele><time>2026-04-18T07:52:35.064Z</time></trkpt><trkpt lat="44.0649483" lon="12.00484"><ele>279.8</ele><time>2026-04-18T07:52:36.063Z</time></trkpt><trkpt lat="44.064905" lon="12.00475"><ele>280.59999999999997</ele><time>2026-04-18T07:52:37.063Z</time></trkpt><trkpt lat="44.06488" lon="12.0046667"><ele>281.4</ele><time>2026-04-18T07:52:38.064Z</time></trkpt><trkpt lat="44.064925" lon="12.0044867"><ele>282.2</ele><time>2026-04-18T07:52:40.064Z</time></trkpt><trkpt lat="44.0649867" lon="12.0044"><ele>283.0</ele><time>2026-04-18T07:52:41.064Z</time></trkpt><trkpt lat="44.0650683" lon="12.00429"><ele>283.0</ele><time>2026-04-18T07:52:42.064Z</time></trkpt><trkpt lat="44.0651367" lon="12.0041733"><ele>283.0</ele><time>2026-04-18T07:52:43.064Z</time></trkpt><trkpt lat="44.0651717" lon="12.004045"><ele>283.0</ele><time>2026-04-18T07:52:44.063Z</time></trkpt><trkpt lat="44.0651833" lon="12.003935"><ele>283.0</ele><time>2026-04-18T07:52:45.063Z</time></trkpt><trkpt lat="44.0651617" lon="12.0038333"><ele>283.0</ele><time>2026-04-18T07:52:46.064Z</time></trkpt><trkpt lat="44.0651217" lon="12.0037317"><ele>283.0</ele><time>2026-04-18T07:52:47.064Z</time></trkpt><trkpt lat="44.0650583" lon="12.0036417"><ele>284.2</ele><time>2026-04-18T07:52:48.064Z</time></trkpt><trkpt lat="44.0649783" lon="12.00358"><ele>285.4</ele><time>2026-04-18T07:52:49.063Z</time></trkpt><trkpt lat="44.0648817" lon="12.0035333"><ele>286.59999999999997</ele><time>2026-04-18T07:52:50.064Z</time></trkpt><trkpt lat="44.0647983" lon="12.0034817"><ele>287.8</ele><time>2026-04-18T07:52:51.065Z</time></trkpt><trkpt lat="44.0647283" lon="12.00343"><ele>289.0</ele><time>2026-04-18T07:52:52.065Z</time></trkpt><trkpt lat="44.0646917" lon="12.0032583"><ele>291.4</ele><time>2026-04-18T07:52:54.065Z</time></trkpt><trkpt lat="44.06471" lon="12.00315"><ele>293.79999999999995</ele><time>2026-04-18T07:52:55.065Z</time></trkpt><trkpt lat="44.0647467" lon="12.0030217"><ele>296.20000000000005</ele><time>2026-04-18T07:52:56.065Z</time></trkpt><trkpt lat="44.064785" lon="12.0028833"><ele>298.6</ele><time>2026-04-18T07:52:57.064Z</time></trkpt><trkpt lat="44.0648141" lon="12.0027492"><ele>301.0</ele><time>2026-04-18T07:52:58.065Z</time></trkpt><trkpt lat="44.0648289" lon="12.0026238"><ele>301.0</ele><time>2026-04-18T07:52:59.064Z</time></trkpt><trkpt lat="44.0648253" lon="12.0025181"><ele>301.0</ele><time>2026-04-18T07:53:00.064Z</time></trkpt><trkpt lat="44.0647983" lon="12.0024117"><ele>301.0</ele><time>2026-04-18T07:53:01.065Z</time></trkpt><trkpt lat="44.0647533" lon="12.002295"><ele>301.0</ele><time>2026-04-18T07:53:02.065Z</time></trkpt><trkpt lat="44.064705" lon="12.0021533"><ele>301.0</ele><time>2026-04-18T07:53:03.064Z</time></trkpt><trkpt lat="44.06468" lon="12.00199"><ele>302.5</ele><time>2026-04-18T07:53:04.065Z</time></trkpt><trkpt lat="44.0646733" lon="12.001805"><ele>304.0</ele><time>2026-04-18T07:53:05.065Z</time></trkpt><trkpt lat="44.0646617" lon="12.0016367"><ele>305.5</ele><time>2026-04-18T07:53:06.065Z</time></trkpt><trkpt lat="44.064645" lon="12.0014783"><ele>307.0</ele><time>2026-04-18T07:53:07.065Z</time></trkpt><trkpt lat="44.06462" lon="12.0013317"><ele>309.6</ele><time>2026-04-18T07:53:08.065Z</time></trkpt><trkpt lat="44.06459" lon="12.00118"><ele>312.2</ele><time>2026-04-18T07:53:09.065Z</time></trkpt><trkpt lat="44.0645617" lon="12.0010333"><ele>314.8</ele><time>2026-04-18T07:53:10.065Z</time></trkpt><trkpt lat="44.0645483" lon="12.000905"><ele>317.4</ele><time>2026-04-18T07:53:11.064Z</time></trkpt><trkpt lat="44.06454" lon="12.0007783"><ele>320.0</ele><time>2026-04-18T07:53:12.065Z</time></trkpt><trkpt lat="44.0645433" lon="12.0006517"><ele>322.2</ele><time>2026-04-18T07:53:13.065Z</time></trkpt><trkpt lat="44.0645433" lon="12.0005233"><ele>324.4</ele><time>2026-04-18T07:53:14.065Z</time></trkpt><trkpt lat="44.064535" lon="12.0004"><ele>326.6</ele><time>2026-04-18T07:53:15.064Z</time></trkpt><trkpt lat="44.0645283" lon="12.000285"><ele>328.8</ele><time>2026-04-18T07:53:16.064Z</time></trkpt><trkpt lat="44.0645283" lon="12.0001517"><ele>331.0</ele><time>2026-04-18T07:53:17.065Z</time></trkpt><trkpt lat="44.064525" lon="12.00002"><ele>331.0</ele><time>2026-04-18T07:53:18.065Z</time></trkpt><trkpt lat="44.0645117" lon="11.99989"><ele>331.0</ele><time>2026-04-18T07:53:19.065Z</time></trkpt><trkpt lat="44.064495" lon="11.9997633"><ele>331.0</ele><time>2026-04-18T07:53:20.065Z</time></trkpt><trkpt lat="44.0644617" lon="11.9996367"><ele>331.0</ele><time>2026-04-18T07:53:21.065Z</time></trkpt><trkpt lat="44.0644283" lon="11.9995033"><ele>331.0</ele><time>2026-04-18T07:53:22.065Z</time></trkpt><trkpt lat="44.0643883" lon="11.9993733"><ele>331.0</ele><time>2026-04-18T07:53:23.065Z</time></trkpt><trkpt lat="44.064345" lon="11.9992383"><ele>331.0</ele><time>2026-04-18T07:53:24.065Z</time></trkpt><trkpt lat="44.0642883" lon="11.9991067"><ele>331.0</ele><time>2026-04-18T07:53:25.064Z</time></trkpt><trkpt lat="44.0642167" lon="11.9989867"><ele>331.0</ele><time>2026-04-18T07:53:26.065Z</time></trkpt><trkpt lat="44.06414" lon="11.9988817"><ele>331.0</ele><time>2026-04-18T07:53:27.065Z</time></trkpt><trkpt lat="44.0640783" lon="11.9987683"><ele>332.0</ele><time>2026-04-18T07:53:28.065Z</time></trkpt><trkpt lat="44.064035" lon="11.9986617"><ele>333.0</ele><time>2026-04-18T07:53:29.065Z</time></trkpt><trkpt lat="44.0639967" lon="11.998545"><ele>334.0</ele><time>2026-04-18T07:53:30.064Z</time></trkpt><trkpt lat="44.063955" lon="11.9984083"><ele>335.0</ele><time>2026-04-18T07:53:31.065Z</time></trkpt><trkpt lat="44.063915" lon="11.99827"><ele>336.0</ele><time>2026-04-18T07:53:32.064Z</time></trkpt><trkpt lat="44.0638733" lon="11.9981283"><ele>336.0</ele><time>2026-04-18T07:53:33.065Z</time></trkpt><trkpt lat="44.0638383" lon="11.9979933"><ele>336.0</ele><time>2026-04-18T07:53:34.065Z</time></trkpt><trkpt lat="44.0638133" lon="11.99786"><ele>336.0</ele><time>2026-04-18T07:53:35.065Z</time></trkpt><trkpt lat="44.0638017" lon="11.9977333"><ele>336.0</ele><time>2026-04-18T07:53:36.064Z</time></trkpt><trkpt lat="44.063795" lon="11.9975983"><ele>336.0</ele><time>2026-04-18T07:53:37.065Z</time></trkpt><trkpt lat="44.0637983" lon="11.997465"><ele>337.8333333333333</ele><time>2026-04-18T07:53:38.065Z</time></trkpt><trkpt lat="44.0638117" lon="11.9973533"><ele>339.6666666666667</ele><time>2026-04-18T07:53:39.065Z</time></trkpt><trkpt lat="44.0638467" lon="11.99726"><ele>341.5</ele><time>2026-04-18T07:53:40.065Z</time></trkpt><trkpt lat="44.0638983" lon="11.9971733"><ele>343.33333333333337</ele><time>2026-04-18T07:53:41.065Z</time></trkpt><trkpt lat="44.0639517" lon="11.9970683"><ele>345.1666666666667</ele><time>2026-04-18T07:53:42.065Z</time></trkpt><trkpt lat="44.06399" lon="11.9969617"><ele>347.0</ele><time>2026-04-18T07:53:43.065Z</time></trkpt><trkpt lat="44.0640217" lon="11.99685"><ele>347.0</ele><time>2026-04-18T07:53:44.065Z</time></trkpt><trkpt lat="44.0640467" lon="11.9967333"><ele>347.0</ele><time>2026-04-18T07:53:45.065Z</time></trkpt><trkpt lat="44.0640633" lon="11.9966167"><ele>347.0</ele><time>2026-04-18T07:53:46.065Z</time></trkpt><trkpt lat="44.0640817" lon="11.996505"><ele>347.0</ele><time>2026-04-18T07:53:47.065Z</time></trkpt><trkpt lat="44.0641" lon="11.996395"><ele>347.0</ele><time>2026-04-18T07:53:48.065Z</time></trkpt><trkpt lat="44.06411" lon="11.9962833"><ele>347.0</ele><time>2026-04-18T07:53:49.065Z</time></trkpt><trkpt lat="44.0641217" lon="11.9961767"><ele>351.20000000000005</ele><time>2026-04-18T07:53:50.065Z</time></trkpt><trkpt lat="44.0641367" lon="11.9960867"><ele>355.4</ele><time>2026-04-18T07:53:51.064Z</time></trkpt><trkpt lat="44.0641883" lon="11.9959533"><ele>359.6</ele><time>2026-04-18T07:53:53.065Z</time></trkpt><trkpt lat="44.0642667" lon="11.9958083"><ele>363.79999999999995</ele><time>2026-04-18T07:53:55.065Z</time></trkpt><trkpt lat="44.0643" lon="11.9956633"><ele>368.0</ele><time>2026-04-18T07:53:57.064Z</time></trkpt><trkpt lat="44.0642633" lon="11.9955333"><ele>370.0</ele><time>2026-04-18T07:53:59.065Z</time></trkpt><trkpt lat="44.0641117" lon="11.9954617"><ele>372.0</ele><time>2026-04-18T07:54:01.065Z</time></trkpt><trkpt lat="44.06401" lon="11.9954"><ele>374.0</ele><time>2026-04-18T07:54:02.065Z</time></trkpt><trkpt lat="44.06391" lon="11.995325"><ele>376.0</ele><time>2026-04-18T07:54:03.065Z</time></trkpt><trkpt lat="44.0638033" lon="11.9952417"><ele>376.0</ele><time>2026-04-18T07:54:04.064Z</time></trkpt><trkpt lat="44.06371" lon="11.9951717"><ele>376.0</ele><time>2026-04-18T07:54:05.065Z</time></trkpt><trkpt lat="44.0636433" lon="11.9951083"><ele>376.0</ele><time>2026-04-18T07:54:06.065Z</time></trkpt><trkpt lat="44.0636033" lon="11.9950233"><ele>376.0</ele><time>2026-04-18T07:54:07.065Z</time></trkpt><trkpt lat="44.0635633" lon="11.9949267"><ele>376.0</ele><time>2026-04-18T07:54:08.065Z</time></trkpt><trkpt lat="44.0635367" lon="11.994805"><ele>376.0</ele><time>2026-04-18T07:54:09.065Z</time></trkpt><trkpt lat="44.0635183" lon="11.9946633"><ele>378.66666666666663</ele><time>2026-04-18T07:54:10.065Z</time></trkpt><trkpt lat="44.0635017" lon="11.9945483"><ele>381.3333333333333</ele><time>2026-04-18T07:54:11.065Z</time></trkpt><trkpt lat="44.0634917" lon="11.994445"><ele>384.0</ele><time>2026-04-18T07:54:12.064Z</time></trkpt><trkpt lat="44.0634783" lon="11.994335"><ele>386.66666666666663</ele><time>2026-04-18T07:54:13.065Z</time></trkpt><trkpt lat="44.0634667" lon="11.99422"><ele>389.3333333333333</ele><time>2026-04-18T07:54:14.065Z</time></trkpt><trkpt lat="44.0634617" lon="11.9941117"><ele>392.0</ele><time>2026-04-18T07:54:15.065Z</time></trkpt><trkpt lat="44.0634567" lon="11.9940117"><ele>393.3333333333333</ele><time>2026-04-18T07:54:16.065Z</time></trkpt><trkpt lat="44.0634533" lon="11.9939183"><ele>394.66666666666663</ele><time>2026-04-18T07:54:17.065Z</time></trkpt><trkpt lat="44.0634367" lon="11.9937767"><ele>396.0</ele><time>2026-04-18T07:54:19.065Z</time></trkpt><trkpt lat="44.0633817" lon="11.99371"><ele>397.33333333333337</ele><time>2026-04-18T07:54:21.065Z</time></trkpt><trkpt lat="44.0633183" lon="11.9936467"><ele>398.6666666666667</ele><time>2026-04-18T07:54:24.065Z</time></trkpt><trkpt lat="44.063325" lon="11.993555"><ele>400.0</ele><time>2026-04-18T07:54:26.065Z</time></trkpt><trkpt lat="44.0633383" lon="11.9934133"><ele>401.6</ele><time>2026-04-18T07:54:29.065Z</time></trkpt><trkpt lat="44.0633683" lon="11.99327"><ele>403.2</ele><time>2026-04-18T07:54:31.064Z</time></trkpt><trkpt lat="44.063385" lon="11.9931833"><ele>404.79999999999995</ele><time>2026-04-18T07:54:32.065Z</time></trkpt><trkpt lat="44.063415" lon="11.9930167"><ele>406.4</ele><time>2026-04-18T07:54:34.065Z</time></trkpt><trkpt lat="44.063425" lon="11.9929167"><ele>408.0</ele><time>2026-04-18T07:54:35.065Z</time></trkpt><trkpt lat="44.0634383" lon="11.992725"><ele>408.0</ele><time>2026-04-18T07:54:37.065Z</time></trkpt><trkpt lat="44.0634483" lon="11.9926017"><ele>408.0</ele><time>2026-04-18T07:54:38.065Z</time></trkpt><trkpt lat="44.0634533" lon="11.9924733"><ele>408.0</ele><time>2026-04-18T07:54:39.065Z</time></trkpt><trkpt lat="44.06345" lon="11.9923567"><ele>408.0</ele><time>2026-04-18T07:54:40.065Z</time></trkpt><trkpt lat="44.0634417" lon="11.992255"><ele>408.0</ele><time>2026-04-18T07:54:41.065Z</time></trkpt><trkpt lat="44.063425" lon="11.99216"><ele>408.0</ele><time>2026-04-18T07:54:42.064Z</time></trkpt><trkpt lat="44.0634067" lon="11.9920317"><ele>410.0</ele><time>2026-04-18T07:54:43.065Z</time></trkpt><trkpt lat="44.0633883" lon="11.9919117"><ele>412.0</ele><time>2026-04-18T07:54:44.065Z</time></trkpt><trkpt lat="44.0633617" lon="11.9918017"><ele>414.0</ele><time>2026-04-18T07:54:45.065Z</time></trkpt><trkpt lat="44.0633267" lon="11.9916967"><ele>416.0</ele><time>2026-04-18T07:54:46.065Z</time></trkpt><trkpt lat="44.0632883" lon="11.9916117"><ele>418.0</ele><time>2026-04-18T07:54:47.065Z</time></trkpt><trkpt lat="44.0631933" lon="11.9915117"><ele>420.0</ele><time>2026-04-18T07:54:49.065Z</time></trkpt><trkpt lat="44.063085" lon="11.9914667"><ele>422.8333333333333</ele><time>2026-04-18T07:54:51.065Z</time></trkpt><trkpt lat="44.063005" lon="11.9914533"><ele>425.66666666666663</ele><time>2026-04-18T07:54:53.065Z</time></trkpt><trkpt lat="44.0629217" lon="11.9913917"><ele>428.5</ele><time>2026-04-18T07:54:56.065Z</time></trkpt><trkpt lat="44.0628688" lon="11.9913245"><ele>431.3333333333333</ele><time>2026-04-18T07:55:00.147Z</time></trkpt><trkpt lat="44.0628182" lon="11.9912453"><ele>434.16666666666663</ele><time>2026-04-18T07:55:02.156Z</time></trkpt><trkpt lat="44.0627872" lon="11.991159"><ele>437.0</ele><time>2026-04-18T07:55:05.07Z</time></trkpt><trkpt lat="44.0627447" lon="11.9910684"><ele>436.99999999999994</ele><time>2026-04-18T07:55:07.08Z</time></trkpt><trkpt lat="44.0626925" lon="11.9909474"><ele>437.0</ele><time>2026-04-18T07:55:08.064Z</time></trkpt><trkpt lat="44.0626523" lon="11.9908612"><ele>437.0</ele><time>2026-04-18T07:55:09.065Z</time></trkpt><trkpt lat="44.062613" lon="11.9907819"><ele>437.0</ele><time>2026-04-18T07:55:10.065Z</time></trkpt><trkpt lat="44.0625663" lon="11.9907083"><ele>436.99999999999994</ele><time>2026-04-18T07:55:11.065Z</time></trkpt><trkpt lat="44.062519" lon="11.9906299"><ele>437.0</ele><time>2026-04-18T07:55:12.065Z</time></trkpt><trkpt lat="44.0624813" lon="11.9905516"><ele>441.3333333333333</ele><time>2026-04-18T07:55:13.064Z</time></trkpt><trkpt lat="44.0624516" lon="11.9904664"><ele>445.66666666666663</ele><time>2026-04-18T07:55:14.064Z</time></trkpt><trkpt lat="44.0624302" lon="11.990311"><ele>450.0</ele><time>2026-04-18T07:55:16.065Z</time></trkpt><trkpt lat="44.0624659" lon="11.9902085"><ele>454.33333333333337</ele><time>2026-04-18T07:55:18.065Z</time></trkpt><trkpt lat="44.0625096" lon="11.9900883"><ele>458.6666666666667</ele><time>2026-04-18T07:55:20.064Z</time></trkpt><trkpt lat="44.0625126" lon="11.9899692"><ele>463.0</ele><time>2026-04-18T07:55:22.065Z</time></trkpt><trkpt lat="44.062535" lon="11.9898854"><ele>467.00000000000006</ele><time>2026-04-18T07:55:25.065Z</time></trkpt><trkpt lat="44.0625026" lon="11.9897929"><ele>471.0</ele><time>2026-04-18T07:59:48.066Z</time></trkpt><trkpt lat="44.0624849" lon="11.9898818"><ele>475.0</ele><time>2026-04-18T08:00:24.066Z</time></trkpt><trkpt lat="44.0625771" lon="11.9898777"><ele>479.0</ele><time>2026-04-18T08:01:03.066Z</time></trkpt><trkpt lat="44.0625296" lon="11.98977"><ele>483.00000000000006</ele><time>2026-04-18T08:08:53.068Z</time></trkpt><trkpt lat="44.0625968" lon="11.9896993"><ele>487.0</ele><time>2026-04-18T08:08:55.068Z</time></trkpt><trkpt lat="44.0626918" lon="11.9896203"><ele>487.0</ele><time>2026-04-18T08:08:57.067Z</time></trkpt><trkpt lat="44.0627976" lon="11.9895322"><ele>487.00000000000006</ele><time>2026-04-18T08:08:59.068Z</time></trkpt><trkpt lat="44.0628708" lon="11.9893965"><ele>487.00000000000006</ele><time>2026-04-18T08:09:01.068Z</time></trkpt><trkpt lat="44.0629014" lon="11.9893112"><ele>487.0</ele><time>2026-04-18T08:09:02.068Z</time></trkpt><trkpt lat="44.0629371" lon="11.9892259"><ele>487.0</ele><time>2026-04-18T08:09:03.068Z</time></trkpt><trkpt lat="44.0629825" lon="11.9891336"><ele>487.50000000000006</ele><time>2026-04-18T08:09:04.067Z</time></trkpt><trkpt lat="44.0630372" lon="11.9890407"><ele>488.0</ele><time>2026-04-18T08:09:05.068Z</time></trkpt><trkpt lat="44.0630985" lon="11.9889529"><ele>488.5</ele><time>2026-04-18T08:09:06.067Z</time></trkpt><trkpt lat="44.0631639" lon="11.9888722"><ele>489.0</ele><time>2026-04-18T08:09:07.068Z</time></trkpt><trkpt lat="44.0632314" lon="11.9887989"><ele>489.50000000000006</ele><time>2026-04-18T08:09:08.068Z</time></trkpt><trkpt lat="44.0633028" lon="11.9887318"><ele>490.0</ele><time>2026-04-18T08:09:09.068Z</time></trkpt><trkpt lat="44.0633789" lon="11.9886654"><ele>490.00000000000006</ele><time>2026-04-18T08:09:10.068Z</time></trkpt><trkpt lat="44.0634579" lon="11.9886196"><ele>490.0</ele><time>2026-04-18T08:09:11.068Z</time></trkpt><trkpt lat="44.0635397" lon="11.988599"><ele>490.0</ele><time>2026-04-18T08:09:12.067Z</time></trkpt><trkpt lat="44.0636258" lon="11.9885744"><ele>490.0</ele><time>2026-04-18T08:09:13.068Z</time></trkpt><trkpt lat="44.0637075" lon="11.9885538"><ele>490.00000000000006</ele><time>2026-04-18T08:09:14.067Z</time></trkpt><trkpt lat="44.0637834" lon="11.9885083"><ele>490.0</ele><time>2026-04-18T08:09:15.068Z</time></trkpt><trkpt lat="44.0638464" lon="11.9884459"><ele>490.00000000000006</ele><time>2026-04-18T08:09:16.068Z</time></trkpt><trkpt lat="44.0639034" lon="11.9883653"><ele>490.0</ele><time>2026-04-18T08:09:17.068Z</time></trkpt><trkpt lat="44.0639614" lon="11.9882784"><ele>490.0</ele><time>2026-04-18T08:09:18.068Z</time></trkpt><trkpt lat="44.0640218" lon="11.9882051"><ele>490.0</ele><time>2026-04-18T08:09:19.067Z</time></trkpt><trkpt lat="44.0640888" lon="11.9881521"><ele>490.00000000000006</ele><time>2026-04-18T08:09:20.068Z</time></trkpt><trkpt lat="44.064154" lon="11.9881105"><ele>490.0</ele><time>2026-04-18T08:09:21.068Z</time></trkpt><trkpt lat="44.064213" lon="11.9880598"><ele>491.0</ele><time>2026-04-18T08:09:22.068Z</time></trkpt><trkpt lat="44.0642941" lon="11.9879244"><ele>492.0</ele><time>2026-04-18T08:09:24.067Z</time></trkpt><trkpt lat="44.0643401" lon="11.9877956"><ele>493.0</ele><time>2026-04-18T08:09:26.068Z</time></trkpt><trkpt lat="44.0643623" lon="11.9876697"><ele>494.0</ele><time>2026-04-18T08:09:28.068Z</time></trkpt><trkpt lat="44.0643728" lon="11.9875664"><ele>495.0</ele><time>2026-04-18T08:09:30.067Z</time></trkpt><trkpt lat="44.0642876" lon="11.9875965"><ele>495.0</ele><time>2026-04-18T08:09:34.068Z</time></trkpt><trkpt lat="44.0641659" lon="11.9877085"><ele>495.0</ele><time>2026-04-18T08:09:36.068Z</time></trkpt><trkpt lat="44.0640695" lon="11.9877803"><ele>495.0</ele><time>2026-04-18T08:09:37.068Z</time></trkpt><trkpt lat="44.0639817" lon="11.9878458"><ele>495.0</ele><time>2026-04-18T08:09:38.068Z</time></trkpt><trkpt lat="44.0639034" lon="11.9878997"><ele>495.0</ele><time>2026-04-18T08:09:39.068Z</time></trkpt><trkpt lat="44.0638453" lon="11.9879378"><ele>499.25</ele><time>2026-04-18T08:09:40.067Z</time></trkpt><trkpt lat="44.0637117" lon="11.9880717"><ele>503.5</ele><time>2026-04-18T08:10:13.068Z</time></trkpt><trkpt lat="44.063615" lon="11.98812"><ele>507.75</ele><time>2026-04-18T08:10:15.068Z</time></trkpt><trkpt lat="44.0634733" lon="11.988155"><ele>512.0</ele><time>2026-04-18T08:10:17.068Z</time></trkpt><trkpt lat="44.0633817" lon="11.98817"><ele>512.0</ele><time>2026-04-18T08:10:18.068Z</time></trkpt><trkpt lat="44.0632833" lon="11.98819"><ele>512.0</ele><time>2026-04-18T08:10:19.068Z</time></trkpt><trkpt lat="44.06318" lon="11.98823"><ele>512.0</ele><time>2026-04-18T08:10:20.068Z</time></trkpt><trkpt lat="44.0630867" lon="11.988285"><ele>512.0</ele><time>2026-04-18T08:10:21.068Z</time></trkpt><trkpt lat="44.0629867" lon="11.98836"><ele>512.0</ele><time>2026-04-18T08:10:22.067Z</time></trkpt><trkpt lat="44.062865" lon="11.98846"><ele>511.5</ele><time>2026-04-18T08:10:23.068Z</time></trkpt><trkpt lat="44.0627717" lon="11.98856"><ele>511.0</ele><time>2026-04-18T08:10:24.068Z</time></trkpt><trkpt lat="44.0626817" lon="11.9886583"><ele>510.5</ele><time>2026-04-18T08:10:25.068Z</time></trkpt><trkpt lat="44.062585" lon="11.988745"><ele>510.0</ele><time>2026-04-18T08:10:26.068Z</time></trkpt><trkpt lat="44.06249" lon="11.988815"><ele>512.0</ele><time>2026-04-18T08:10:27.068Z</time></trkpt><trkpt lat="44.0623917" lon="11.98886"><ele>514.0</ele><time>2026-04-18T08:10:28.068Z</time></trkpt><trkpt lat="44.0622867" lon="11.98888"><ele>516.0</ele><time>2026-04-18T08:10:29.068Z</time></trkpt><trkpt lat="44.0621817" lon="11.9888833"><ele>518.0</ele><time>2026-04-18T08:10:30.068Z</time></trkpt><trkpt lat="44.062065" lon="11.988855"><ele>520.0</ele><time>2026-04-18T08:10:31.068Z</time></trkpt><trkpt lat="44.06195" lon="11.9888"><ele>520.0</ele><time>2026-04-18T08:10:32.068Z</time></trkpt><trkpt lat="44.06184" lon="11.98872"><ele>520.0</ele><time>2026-04-18T08:10:33.067Z</time></trkpt><trkpt lat="44.0617417" lon="11.9886167"><ele>520.0</ele><time>2026-04-18T08:10:34.067Z</time></trkpt><trkpt lat="44.0616217" lon="11.98851"><ele>520.0</ele><time>2026-04-18T08:10:35.068Z</time></trkpt><trkpt lat="44.0614583" lon="11.9884033"><ele>525.0</ele><time>2026-04-18T08:10:36.068Z</time></trkpt><trkpt lat="44.0612983" lon="11.9882783"><ele>530.0</ele><time>2026-04-18T08:10:37.068Z</time></trkpt><trkpt lat="44.0611283" lon="11.988145"><ele>535.0</ele><time>2026-04-18T08:10:38.068Z</time></trkpt><trkpt lat="44.060965" lon="11.9880167"><ele>535.0</ele><time>2026-04-18T08:10:39.068Z</time></trkpt><trkpt lat="44.0608117" lon="11.9879133"><ele>535.0</ele><time>2026-04-18T08:10:40.068Z</time></trkpt><trkpt lat="44.0606733" lon="11.9878283"><ele>535.0</ele><time>2026-04-18T08:10:41.068Z</time></trkpt><trkpt lat="44.060545" lon="11.9877667"><ele>535.0</ele><time>2026-04-18T08:10:42.068Z</time></trkpt><trkpt lat="44.0604283" lon="11.9877217"><ele>535.0</ele><time>2026-04-18T08:10:43.068Z</time></trkpt><trkpt lat="44.06033" lon="11.987665"><ele>535.0</ele><time>2026-04-18T08:10:44.068Z</time></trkpt><trkpt lat="44.0602333" lon="11.987585"><ele>535.0</ele><time>2026-04-18T08:10:45.068Z</time></trkpt><trkpt lat="44.0601483" lon="11.9875033"><ele>535.0</ele><time>2026-04-18T08:10:46.067Z</time></trkpt><trkpt lat="44.06005" lon="11.9874417"><ele>529.8</ele><time>2026-04-18T08:10:47.068Z</time></trkpt><trkpt lat="44.0599483" lon="11.9873983"><ele>524.6</ele><time>2026-04-18T08:10:48.068Z</time></trkpt><trkpt lat="44.05985" lon="11.98736"><ele>519.4</ele><time>2026-04-18T08:10:49.067Z</time></trkpt><trkpt lat="44.05977" lon="11.9873117"><ele>514.2</ele><time>2026-04-18T08:10:50.068Z</time></trkpt><trkpt lat="44.0596983" lon="11.9872633"><ele>509.0</ele><time>2026-04-18T08:10:51.068Z</time></trkpt><trkpt lat="44.0596233" lon="11.9872267"><ele>509.0</ele><time>2026-04-18T08:10:52.068Z</time></trkpt><trkpt lat="44.0595433" lon="11.9872"><ele>509.0</ele><time>2026-04-18T08:10:53.068Z</time></trkpt><trkpt lat="44.0594533" lon="11.9871933"><ele>509.0</ele><time>2026-04-18T08:10:54.068Z</time></trkpt><trkpt lat="44.05936" lon="11.987205"><ele>509.0</ele><time>2026-04-18T08:10:55.068Z</time></trkpt><trkpt lat="44.0592333" lon="11.987225"><ele>509.0</ele><time>2026-04-18T08:10:56.068Z</time></trkpt><trkpt lat="44.0591267" lon="11.9872267"><ele>502.4</ele><time>2026-04-18T08:10:57.068Z</time></trkpt><trkpt lat="44.0590317" lon="11.9872317"><ele>495.79999999999995</ele><time>2026-04-18T08:10:58.067Z</time></trkpt><trkpt lat="44.058945" lon="11.9872183"><ele>489.20000000000005</ele><time>2026-04-18T08:10:59.068Z</time></trkpt><trkpt lat="44.0588633" lon="11.9871783"><ele>482.6</ele><time>2026-04-18T08:11:00.068Z</time></trkpt><trkpt lat="44.05878" lon="11.9871183"><ele>476.0</ele><time>2026-04-18T08:11:01.067Z</time></trkpt><trkpt lat="44.0586983" lon="11.98705"><ele>475.99999999999994</ele><time>2026-04-18T08:11:02.068Z</time></trkpt><trkpt lat="44.0586117" lon="11.987"><ele>476.0</ele><time>2026-04-18T08:11:03.068Z</time></trkpt><trkpt lat="44.058525" lon="11.9869783"><ele>476.0</ele><time>2026-04-18T08:11:04.068Z</time></trkpt><trkpt lat="44.0584433" lon="11.9869667"><ele>476.0</ele><time>2026-04-18T08:11:05.068Z</time></trkpt><trkpt lat="44.058365" lon="11.9869383"><ele>475.99999999999994</ele><time>2026-04-18T08:11:06.068Z</time></trkpt><trkpt lat="44.0582983" lon="11.9868833"><ele>476.0</ele><time>2026-04-18T08:11:07.067Z</time></trkpt><trkpt lat="44.0582417" lon="11.9867917"><ele>475.6</ele><time>2026-04-18T08:11:08.068Z</time></trkpt><trkpt lat="44.0581917" lon="11.9866933"><ele>475.20000000000005</ele><time>2026-04-18T08:11:09.068Z</time></trkpt><trkpt lat="44.0581317" lon="11.98658"><ele>474.79999999999995</ele><time>2026-04-18T08:11:10.068Z</time></trkpt><trkpt lat="44.05806" lon="11.9864667"><ele>474.4</ele><time>2026-04-18T08:11:11.067Z</time></trkpt><trkpt lat="44.0579667" lon="11.986385"><ele>474.0</ele><time>2026-04-18T08:11:12.068Z</time></trkpt><trkpt lat="44.057855" lon="11.9863133"><ele>474.0</ele><time>2026-04-18T08:11:13.068Z</time></trkpt><trkpt lat="44.0577617" lon="11.986235"><ele>474.0</ele><time>2026-04-18T08:11:14.068Z</time></trkpt><trkpt lat="44.05768" lon="11.986135"><ele>474.0</ele><time>2026-04-18T08:11:15.068Z</time></trkpt><trkpt lat="44.0576133" lon="11.9860167"><ele>474.0</ele><time>2026-04-18T08:11:16.068Z</time></trkpt><trkpt lat="44.0575433" lon="11.9859217"><ele>474.0</ele><time>2026-04-18T08:11:17.068Z</time></trkpt><trkpt lat="44.05747" lon="11.9858567"><ele>475.8333333333333</ele><time>2026-04-18T08:11:18.068Z</time></trkpt><trkpt lat="44.0573867" lon="11.9858183"><ele>477.66666666666663</ele><time>2026-04-18T08:11:19.067Z</time></trkpt><trkpt lat="44.0572967" lon="11.9857883"><ele>479.5</ele><time>2026-04-18T08:11:20.068Z</time></trkpt><trkpt lat="44.057215" lon="11.9857483"><ele>481.3333333333333</ele><time>2026-04-18T08:11:21.068Z</time></trkpt><trkpt lat="44.057135" lon="11.985685"><ele>483.16666666666663</ele><time>2026-04-18T08:11:22.068Z</time></trkpt><trkpt lat="44.0570733" lon="11.9856067"><ele>485.0</ele><time>2026-04-18T08:11:23.068Z</time></trkpt><trkpt lat="44.05701" lon="11.9855117"><ele>485.0</ele><time>2026-04-18T08:11:24.067Z</time></trkpt><trkpt lat="44.0569417" lon="11.98542"><ele>485.0</ele><time>2026-04-18T08:11:25.068Z</time></trkpt><trkpt lat="44.0568467" lon="11.98534"><ele>485.0</ele><time>2026-04-18T08:11:26.067Z</time></trkpt><trkpt lat="44.0567467" lon="11.985285"><ele>485.0</ele><time>2026-04-18T08:11:27.068Z</time></trkpt><trkpt lat="44.05665" lon="11.9852383"><ele>485.0</ele><time>2026-04-18T08:11:28.068Z</time></trkpt><trkpt lat="44.056555" lon="11.9852317"><ele>483.0</ele><time>2026-04-18T08:11:29.068Z</time></trkpt><trkpt lat="44.0564617" lon="11.985265"><ele>481.0</ele><time>2026-04-18T08:11:30.068Z</time></trkpt><trkpt lat="44.0563733" lon="11.9853333"><ele>479.0</ele><time>2026-04-18T08:11:31.068Z</time></trkpt><trkpt lat="44.05628" lon="11.985405"><ele>477.0</ele><time>2026-04-18T08:11:32.068Z</time></trkpt><trkpt lat="44.0561867" lon="11.985455"><ele>475.0</ele><time>2026-04-18T08:11:33.068Z</time></trkpt><trkpt lat="44.0561" lon="11.9854717"><ele>475.0</ele><time>2026-04-18T08:11:34.068Z</time></trkpt><trkpt lat="44.0560117" lon="11.98546"><ele>475.0</ele><time>2026-04-18T08:11:35.068Z</time></trkpt><trkpt lat="44.0559233" lon="11.9854183"><ele>475.0</ele><time>2026-04-18T08:11:36.068Z</time></trkpt><trkpt lat="44.055845" lon="11.9853317"><ele>475.0</ele><time>2026-04-18T08:11:37.067Z</time></trkpt><trkpt lat="44.05576" lon="11.9852167"><ele>475.0</ele><time>2026-04-18T08:11:38.068Z</time></trkpt><trkpt lat="44.0556767" lon="11.9850767"><ele>476.6666666666667</ele><time>2026-04-18T08:11:39.068Z</time></trkpt><trkpt lat="44.0555867" lon="11.9849167"><ele>478.33333333333337</ele><time>2026-04-18T08:11:40.067Z</time></trkpt><trkpt lat="44.0554717" lon="11.984765"><ele>480.0</ele><time>2026-04-18T08:11:41.068Z</time></trkpt><trkpt lat="44.05536" lon="11.9846217"><ele>480.0</ele><time>2026-04-18T08:11:42.068Z</time></trkpt><trkpt lat="44.0552617" lon="11.9844817"><ele>480.0</ele><time>2026-04-18T08:11:43.068Z</time></trkpt><trkpt lat="44.055165" lon="11.9843433"><ele>480.0</ele><time>2026-04-18T08:11:44.068Z</time></trkpt><trkpt lat="44.0550717" lon="11.984205"><ele>480.0</ele><time>2026-04-18T08:11:45.068Z</time></trkpt><trkpt lat="44.0549783" lon="11.9840567"><ele>484.5</ele><time>2026-04-18T08:11:46.068Z</time></trkpt><trkpt lat="44.0548817" lon="11.9839167"><ele>489.0</ele><time>2026-04-18T08:11:47.068Z</time></trkpt><trkpt lat="44.0547883" lon="11.98377"><ele>493.5</ele><time>2026-04-18T08:11:48.068Z</time></trkpt><trkpt lat="44.0546933" lon="11.9836317"><ele>498.0</ele><time>2026-04-18T08:11:49.067Z</time></trkpt><trkpt lat="44.0546017" lon="11.9834967"><ele>503.25</ele><time>2026-04-18T08:11:50.068Z</time></trkpt><trkpt lat="44.05452" lon="11.9833417"><ele>508.5</ele><time>2026-04-18T08:11:51.068Z</time></trkpt><trkpt lat="44.0544433" lon="11.9831667"><ele>513.75</ele><time>2026-04-18T08:11:52.068Z</time></trkpt><trkpt lat="44.05437" lon="11.9830017"><ele>519.0</ele><time>2026-04-18T08:11:53.068Z</time></trkpt><trkpt lat="44.0543017" lon="11.9828383"><ele>519.0</ele><time>2026-04-18T08:11:54.068Z</time></trkpt><trkpt lat="44.05424" lon="11.9827017"><ele>519.0</ele><time>2026-04-18T08:11:55.068Z</time></trkpt><trkpt lat="44.0541883" lon="11.9825683"><ele>519.0</ele><time>2026-04-18T08:11:56.067Z</time></trkpt><trkpt lat="44.0541333" lon="11.98243"><ele>519.0</ele><time>2026-04-18T08:11:57.068Z</time></trkpt><trkpt lat="44.0540833" lon="11.9822867"><ele>523.0</ele><time>2026-04-18T08:11:58.068Z</time></trkpt><trkpt lat="44.05403" lon="11.9821333"><ele>527.0</ele><time>2026-04-18T08:11:59.068Z</time></trkpt><trkpt lat="44.0539783" lon="11.9819783"><ele>531.0</ele><time>2026-04-18T08:12:00.068Z</time></trkpt><trkpt lat="44.053925" lon="11.9818383"><ele>535.0</ele><time>2026-04-18T08:12:01.067Z</time></trkpt><trkpt lat="44.05389" lon="11.9817267"><ele>539.0</ele><time>2026-04-18T08:12:02.068Z</time></trkpt><trkpt lat="44.05387" lon="11.981625"><ele>541.2</ele><time>2026-04-18T08:12:03.067Z</time></trkpt><trkpt lat="44.0538533" lon="11.9815283"><ele>543.4</ele><time>2026-04-18T08:12:04.068Z</time></trkpt><trkpt lat="44.05383" lon="11.98138"><ele>545.6</ele><time>2026-04-18T08:12:06.068Z</time></trkpt><trkpt lat="44.053805" lon="11.9812233"><ele>547.8</ele><time>2026-04-18T08:12:08.068Z</time></trkpt><trkpt lat="44.0537933" lon="11.9810933"><ele>550.0</ele><time>2026-04-18T08:12:10.068Z</time></trkpt><trkpt lat="44.0538217" lon="11.9809733"><ele>550.0</ele><time>2026-04-18T08:12:13.068Z</time></trkpt><trkpt lat="44.053865" lon="11.9808633"><ele>550.0</ele><time>2026-04-18T08:12:15.068Z</time></trkpt><trkpt lat="44.053905" lon="11.980795"><ele>550.0</ele><time>2026-04-18T08:12:16.067Z</time></trkpt><trkpt lat="44.053955" lon="11.98073"><ele>550.0</ele><time>2026-04-18T08:12:17.067Z</time></trkpt><trkpt lat="44.0540167" lon="11.9806617"><ele>550.0</ele><time>2026-04-18T08:12:18.068Z</time></trkpt><trkpt lat="44.054085" lon="11.9805967"><ele>550.0</ele><time>2026-04-18T08:12:19.068Z</time></trkpt><trkpt lat="44.0541533" lon="11.980545"><ele>544.1666666666667</ele><time>2026-04-18T08:12:20.068Z</time></trkpt><trkpt lat="44.054215" lon="11.9805033"><ele>538.3333333333334</ele><time>2026-04-18T08:12:21.068Z</time></trkpt><trkpt lat="44.0543067" lon="11.980445"><ele>532.5</ele><time>2026-04-18T08:12:23.067Z</time></trkpt><trkpt lat="44.05437" lon="11.9803883"><ele>526.6666666666666</ele><time>2026-04-18T08:12:25.068Z</time></trkpt><trkpt lat="44.054425" lon="11.9803183"><ele>520.8333333333333</ele><time>2026-04-18T08:12:27.067Z</time></trkpt><trkpt lat="44.05448" lon="11.980255"><ele>515.0</ele><time>2026-04-18T08:12:29.068Z</time></trkpt><trkpt lat="44.0545333" lon="11.980195"><ele>515.0</ele><time>2026-04-18T08:12:31.068Z</time></trkpt><trkpt lat="44.0545867" lon="11.9801217"><ele>515.0</ele><time>2026-04-18T08:12:34.068Z</time></trkpt><trkpt lat="44.0545983" lon="11.9799583"><ele>515.0</ele><time>2026-04-18T08:14:49.069Z</time></trkpt><trkpt lat="44.0545567" lon="11.9798783"><ele>515.0</ele><time>2026-04-18T08:14:51.069Z</time></trkpt><trkpt lat="44.054465" lon="11.9797517"><ele>515.0</ele><time>2026-04-18T08:14:53.068Z</time></trkpt><trkpt lat="44.05439" lon="11.9796583"><ele>516.0</ele><time>2026-04-18T08:14:54.068Z</time></trkpt><trkpt lat="44.0543167" lon="11.97956"><ele>517.0</ele><time>2026-04-18T08:14:55.069Z</time></trkpt><trkpt lat="44.054245" lon="11.9794533"><ele>518.0</ele><time>2026-04-18T08:14:56.068Z</time></trkpt><trkpt lat="44.05419" lon="11.9793367"><ele>519.0</ele><time>2026-04-18T08:14:57.069Z</time></trkpt><trkpt lat="44.0541517" lon="11.9792333"><ele>520.0</ele><time>2026-04-18T08:14:58.069Z</time></trkpt><trkpt lat="44.0541317" lon="11.9791317"><ele>524.1666666666667</ele><time>2026-04-18T08:14:59.069Z</time></trkpt><trkpt lat="44.05411" lon="11.979045"><ele>528.3333333333334</ele><time>2026-04-18T08:15:00.069Z</time></trkpt><trkpt lat="44.0540633" lon="11.9789783"><ele>532.5</ele><time>2026-04-18T08:15:01.069Z</time></trkpt><trkpt lat="44.0540083" lon="11.9789267"><ele>536.6666666666666</ele><time>2026-04-18T08:15:02.069Z</time></trkpt><trkpt lat="44.05395" lon="11.978885"><ele>540.8333333333333</ele><time>2026-04-18T08:15:03.069Z</time></trkpt><trkpt lat="44.0538233" lon="11.9788433"><ele>545.0</ele><time>2026-04-18T08:15:05.069Z</time></trkpt><trkpt lat="44.0537633" lon="11.9788167"><ele>545.0</ele><time>2026-04-18T08:15:06.069Z</time></trkpt><trkpt lat="44.0537083" lon="11.97877"><ele>545.0</ele><time>2026-04-18T08:15:07.068Z</time></trkpt><trkpt lat="44.0536567" lon="11.9787083"><ele>545.0</ele><time>2026-04-18T08:15:08.068Z</time></trkpt><trkpt lat="44.0536067" lon="11.9786467"><ele>545.0</ele><time>2026-04-18T08:15:09.069Z</time></trkpt><trkpt lat="44.053555" lon="11.978575"><ele>545.0</ele><time>2026-04-18T08:15:10.069Z</time></trkpt><trkpt lat="44.053515" lon="11.9785017"><ele>545.0</ele><time>2026-04-18T08:15:11.069Z</time></trkpt><trkpt lat="44.0534817" lon="11.9784067"><ele>545.0</ele><time>2026-04-18T08:15:12.069Z</time></trkpt><trkpt lat="44.0534633" lon="11.9782967"><ele>542.0</ele><time>2026-04-18T08:15:13.069Z</time></trkpt><trkpt lat="44.053445" lon="11.9781917"><ele>539.0</ele><time>2026-04-18T08:15:14.069Z</time></trkpt><trkpt lat="44.0534" lon="11.97805"><ele>536.0</ele><time>2026-04-18T08:15:16.069Z</time></trkpt><trkpt lat="44.053305" lon="11.978"><ele>533.0</ele><time>2026-04-18T08:15:18.069Z</time></trkpt><trkpt lat="44.0532417" lon="11.978"><ele>530.0</ele><time>2026-04-18T08:15:19.069Z</time></trkpt><trkpt lat="44.0531483" lon="11.97803"><ele>530.0</ele><time>2026-04-18T08:15:20.069Z</time></trkpt><trkpt lat="44.05303" lon="11.978085"><ele>530.0</ele><time>2026-04-18T08:15:21.069Z</time></trkpt><trkpt lat="44.052905" lon="11.9781367"><ele>530.0</ele><time>2026-04-18T08:15:22.069Z</time></trkpt><trkpt lat="44.0528017" lon="11.9781867"><ele>530.0</ele><time>2026-04-18T08:15:23.069Z</time></trkpt><trkpt lat="44.0527283" lon="11.9782233"><ele>530.0</ele><time>2026-04-18T08:15:24.069Z</time></trkpt><trkpt lat="44.052665" lon="11.9782467"><ele>530.0</ele><time>2026-04-18T08:15:25.069Z</time></trkpt><trkpt lat="44.0525633" lon="11.9782067"><ele>530.0</ele><time>2026-04-18T08:15:27.069Z</time></trkpt><trkpt lat="44.0525033" lon="11.9781617"><ele>530.0</ele><time>2026-04-18T08:15:28.069Z</time></trkpt><trkpt lat="44.0524333" lon="11.9780917"><ele>530.0</ele><time>2026-04-18T08:15:29.069Z</time></trkpt><trkpt lat="44.0523633" lon="11.9780117"><ele>530.0</ele><time>2026-04-18T08:15:30.068Z</time></trkpt><trkpt lat="44.052305" lon="11.9779367"><ele>530.0</ele><time>2026-04-18T08:15:31.069Z</time></trkpt><trkpt lat="44.0522583" lon="11.9778733"><ele>528.8</ele><time>2026-04-18T08:15:32.069Z</time></trkpt><trkpt lat="44.0521717" lon="11.9777433"><ele>527.6</ele><time>2026-04-18T08:15:34.069Z</time></trkpt><trkpt lat="44.052095" lon="11.9776517"><ele>526.4</ele><time>2026-04-18T08:15:36.069Z</time></trkpt><trkpt lat="44.052015" lon="11.9775867"><ele>525.2</ele><time>2026-04-18T08:15:38.069Z</time></trkpt><trkpt lat="44.051955" lon="11.97755"><ele>524.0</ele><time>2026-04-18T08:15:39.068Z</time></trkpt><trkpt lat="44.05182" lon="11.9775"><ele>524.0</ele><time>2026-04-18T08:15:41.069Z</time></trkpt><trkpt lat="44.0517433" lon="11.977455"><ele>524.0</ele><time>2026-04-18T08:15:42.069Z</time></trkpt><trkpt lat="44.0516733" lon="11.9773967"><ele>524.0</ele><time>2026-04-18T08:15:43.069Z</time></trkpt><trkpt lat="44.0516233" lon="11.9773383"><ele>524.0</ele><time>2026-04-18T08:15:44.068Z</time></trkpt><trkpt lat="44.051555" lon="11.97722"><ele>524.0</ele><time>2026-04-18T08:15:46.069Z</time></trkpt><trkpt lat="44.0514767" lon="11.97709"><ele>524.8333333333333</ele><time>2026-04-18T08:15:48.069Z</time></trkpt><trkpt lat="44.051425" lon="11.9770367"><ele>525.6666666666666</ele><time>2026-04-18T08:15:49.068Z</time></trkpt><trkpt lat="44.0513683" lon="11.97699"><ele>526.5</ele><time>2026-04-18T08:15:50.069Z</time></trkpt><trkpt lat="44.0513217" lon="11.97693"><ele>527.3333333333334</ele><time>2026-04-18T08:15:51.069Z</time></trkpt><trkpt lat="44.0512467" lon="11.9768267"><ele>528.1666666666667</ele><time>2026-04-18T08:15:53.068Z</time></trkpt><trkpt lat="44.05121" lon="11.9767433"><ele>529.0</ele><time>2026-04-18T08:15:55.069Z</time></trkpt><trkpt lat="44.0511783" lon="11.976615"><ele>529.0</ele><time>2026-04-18T08:15:57.069Z</time></trkpt><trkpt lat="44.05113" lon="11.97649"><ele>529.0</ele><time>2026-04-18T08:15:59.069Z</time></trkpt><trkpt lat="44.0510983" lon="11.9764117"><ele>529.0</ele><time>2026-04-18T08:16:00.069Z</time></trkpt><trkpt lat="44.051045" lon="11.9763033"><ele>529.0</ele><time>2026-04-18T08:16:02.069Z</time></trkpt><trkpt lat="44.051" lon="11.97622"><ele>529.0</ele><time>2026-04-18T08:16:04.069Z</time></trkpt><trkpt lat="44.0509317" lon="11.9761667"><ele>529.0</ele><time>2026-04-18T08:16:06.069Z</time></trkpt><trkpt lat="44.0508633" lon="11.9760683"><ele>529.0</ele><time>2026-04-18T08:16:08.069Z</time></trkpt><trkpt lat="44.0508017" lon="11.9759517"><ele>529.0</ele><time>2026-04-18T08:16:10.068Z</time></trkpt><trkpt lat="44.050745" lon="11.975845"><ele>529.0</ele><time>2026-04-18T08:16:12.069Z</time></trkpt><trkpt lat="44.0506583" lon="11.975715"><ele>529.0</ele><time>2026-04-18T08:35:35.072Z</time></trkpt><trkpt lat="44.0506283" lon="11.9756083"><ele>529.0</ele><time>2026-04-18T08:35:37.071Z</time></trkpt><trkpt lat="44.0506017" lon="11.9754917"><ele>524.0</ele><time>2026-04-18T08:35:39.072Z</time></trkpt><trkpt lat="44.05057" lon="11.9753817"><ele>519.0</ele><time>2026-04-18T08:35:41.072Z</time></trkpt><trkpt lat="44.050545" lon="11.975275"><ele>514.0</ele><time>2026-04-18T08:35:43.072Z</time></trkpt><trkpt lat="44.0505167" lon="11.9751917"><ele>509.0</ele><time>2026-04-18T08:35:45.072Z</time></trkpt><trkpt lat="44.0504933" lon="11.9750933"><ele>504.00000000000006</ele><time>2026-04-18T08:35:48.072Z</time></trkpt><trkpt lat="44.0504517" lon="11.974965"><ele>499.0</ele><time>2026-04-18T08:37:05.073Z</time></trkpt><trkpt lat="44.0503833" lon="11.9748817"><ele>499.0</ele><time>2026-04-18T08:37:07.073Z</time></trkpt><trkpt lat="44.0503117" lon="11.974665"><ele>499.0</ele><time>2026-04-18T08:37:38.073Z</time></trkpt><trkpt lat="44.05023" lon="11.9745117"><ele>499.0</ele><time>2026-04-18T08:41:58.073Z</time></trkpt><trkpt lat="44.0502033" lon="11.97442"><ele>499.0</ele><time>2026-04-18T08:42:01.073Z</time></trkpt><trkpt lat="44.0501767" lon="11.974335"><ele>499.0</ele><time>2026-04-18T08:42:05.073Z</time></trkpt><trkpt lat="44.0501567" lon="11.9741683"><ele>500.79999999999995</ele><time>2026-04-18T08:42:46.074Z</time></trkpt><trkpt lat="44.0501117" lon="11.97406"><ele>502.59999999999997</ele><time>2026-04-18T08:42:49.073Z</time></trkpt><trkpt lat="44.0500883" lon="11.9738217"><ele>504.4</ele><time>2026-04-18T08:43:41.074Z</time></trkpt><trkpt lat="44.050105" lon="11.9737067"><ele>506.2</ele><time>2026-04-18T08:43:46.074Z</time></trkpt><trkpt lat="44.0500767" lon="11.973585"><ele>508.0</ele><time>2026-04-18T08:43:49.073Z</time></trkpt><trkpt lat="44.05008" lon="11.9734633"><ele>508.00000000000006</ele><time>2026-04-18T08:43:52.074Z</time></trkpt><trkpt lat="44.0500767" lon="11.9733733"><ele>508.0</ele><time>2026-04-18T08:43:54.073Z</time></trkpt><trkpt lat="44.0500533" lon="11.9732717"><ele>508.0</ele><time>2026-04-18T08:43:56.074Z</time></trkpt><trkpt lat="44.050015" lon="11.9731717"><ele>508.0</ele><time>2026-04-18T08:43:58.074Z</time></trkpt><trkpt lat="44.0499783" lon="11.9730917"><ele>508.00000000000006</ele><time>2026-04-18T08:44:00.074Z</time></trkpt><trkpt lat="44.0499733" lon="11.9729867"><ele>508.0</ele><time>2026-04-18T08:44:03.074Z</time></trkpt><trkpt lat="44.0499917" lon="11.9728617"><ele>509.0</ele><time>2026-04-18T08:44:05.074Z</time></trkpt><trkpt lat="44.05" lon="11.9727367"><ele>509.99999999999994</ele><time>2026-04-18T08:44:07.073Z</time></trkpt><trkpt lat="44.0500083" lon="11.9726183"><ele>510.99999999999994</ele><time>2026-04-18T08:44:09.074Z</time></trkpt><trkpt lat="44.0500167" lon="11.9724967"><ele>512.0</ele><time>2026-04-18T08:44:11.074Z</time></trkpt><trkpt lat="44.050025" lon="11.9723717"><ele>513.0</ele><time>2026-04-18T08:44:13.074Z</time></trkpt><trkpt lat="44.050015" lon="11.9722083"><ele>514.1999999999999</ele><time>2026-04-18T08:44:15.074Z</time></trkpt><trkpt lat="44.0500033" lon="11.9720783"><ele>515.4</ele><time>2026-04-18T08:44:18.073Z</time></trkpt><trkpt lat="44.050015" lon="11.9719767"><ele>516.5999999999999</ele><time>2026-04-18T08:44:21.074Z</time></trkpt><trkpt lat="44.0500017" lon="11.971785"><ele>517.8</ele><time>2026-04-18T08:44:40.074Z</time></trkpt><trkpt lat="44.0499733" lon="11.971685"><ele>519.0</ele><time>2026-04-18T08:45:20.074Z</time></trkpt><trkpt lat="44.0499733" lon="11.9715617"><ele>518.6</ele><time>2026-04-18T08:45:23.074Z</time></trkpt><trkpt lat="44.0499483" lon="11.9714617"><ele>518.2</ele><time>2026-04-18T08:45:25.074Z</time></trkpt><trkpt lat="44.0499117" lon="11.97132"><ele>517.8000000000001</ele><time>2026-04-18T08:45:27.074Z</time></trkpt><trkpt lat="44.0498733" lon="11.971185"><ele>517.4</ele><time>2026-04-18T08:45:29.074Z</time></trkpt><trkpt lat="44.0498283" lon="11.9710533"><ele>517.0</ele><time>2026-04-18T08:45:31.074Z</time></trkpt><trkpt lat="44.049795" lon="11.970925"><ele>517.8333333333334</ele><time>2026-04-18T08:45:33.074Z</time></trkpt><trkpt lat="44.0497483" lon="11.9708217"><ele>518.6666666666667</ele><time>2026-04-18T08:45:35.074Z</time></trkpt><trkpt lat="44.0496933" lon="11.97072"><ele>519.5</ele><time>2026-04-18T08:45:37.074Z</time></trkpt><trkpt lat="44.0496433" lon="11.97061"><ele>520.3333333333334</ele><time>2026-04-18T08:45:39.074Z</time></trkpt><trkpt lat="44.0495867" lon="11.9705083"><ele>521.1666666666666</ele><time>2026-04-18T08:45:41.074Z</time></trkpt><trkpt lat="44.049545" lon="11.97042"><ele>522.0</ele><time>2026-04-18T08:45:43.074Z</time></trkpt><trkpt lat="44.049525" lon="11.970325"><ele>522.0</ele><time>2026-04-18T08:45:45.073Z</time></trkpt><trkpt lat="44.0494917" lon="11.9702133"><ele>522.0</ele><time>2026-04-18T08:45:47.074Z</time></trkpt><trkpt lat="44.0494533" lon="11.9701233"><ele>522.0</ele><time>2026-04-18T08:45:49.074Z</time></trkpt><trkpt lat="44.04943" lon="11.9700383"><ele>522.0</ele><time>2026-04-18T08:45:51.073Z</time></trkpt><trkpt lat="44.0493983" lon="11.969955"><ele>522.0</ele><time>2026-04-18T08:45:55.073Z</time></trkpt><trkpt lat="44.049345" lon="11.9697917"><ele>522.0</ele><time>2026-04-18T08:46:19.074Z</time></trkpt><trkpt lat="44.0492833" lon="11.9696733"><ele>520.6</ele><time>2026-04-18T08:46:35.074Z</time></trkpt><trkpt lat="44.0492183" lon="11.96955"><ele>519.2</ele><time>2026-04-18T08:47:07.074Z</time></trkpt><trkpt lat="44.0491383" lon="11.9695267"><ele>517.8</ele><time>2026-04-18T08:47:11.074Z</time></trkpt><trkpt lat="44.0490517" lon="11.9695217"><ele>516.4</ele><time>2026-04-18T08:47:14.074Z</time></trkpt><trkpt lat="44.0489767" lon="11.9695533"><ele>515.0</ele><time>2026-04-18T08:47:16.074Z</time></trkpt><trkpt lat="44.0488817" lon="11.969575"><ele>511.8333333333333</ele><time>2026-04-18T08:47:18.074Z</time></trkpt><trkpt lat="44.0487683" lon="11.969605"><ele>508.66666666666663</ele><time>2026-04-18T08:47:20.074Z</time></trkpt><trkpt lat="44.0486933" lon="11.9696117"><ele>505.5</ele><time>2026-04-18T08:47:21.074Z</time></trkpt><trkpt lat="44.0486183" lon="11.969615"><ele>502.33333333333337</ele><time>2026-04-18T08:47:22.074Z</time></trkpt><trkpt lat="44.04853" lon="11.969615"><ele>499.1666666666667</ele><time>2026-04-18T08:47:23.074Z</time></trkpt><trkpt lat="44.0484567" lon="11.9696267"><ele>496.0</ele><time>2026-04-18T08:47:24.074Z</time></trkpt><trkpt lat="44.0483933" lon="11.9696383"><ele>491.83333333333337</ele><time>2026-04-18T08:47:25.074Z</time></trkpt><trkpt lat="44.048285" lon="11.9696567"><ele>487.6666666666667</ele><time>2026-04-18T08:47:27.073Z</time></trkpt><trkpt lat="44.0482" lon="11.9696833"><ele>483.5</ele><time>2026-04-18T08:47:29.074Z</time></trkpt><trkpt lat="44.0481117" lon="11.9697483"><ele>479.33333333333337</ele><time>2026-04-18T08:47:31.074Z</time></trkpt><trkpt lat="44.0480667" lon="11.9698133"><ele>475.1666666666667</ele><time>2026-04-18T08:47:32.073Z</time></trkpt><trkpt lat="44.04803" lon="11.96989"><ele>471.0</ele><time>2026-04-18T08:47:33.073Z</time></trkpt><trkpt lat="44.0479883" lon="11.9699817"><ele>469.20000000000005</ele><time>2026-04-18T08:47:34.074Z</time></trkpt><trkpt lat="44.047955" lon="11.9700633"><ele>467.40000000000003</ele><time>2026-04-18T08:47:35.074Z</time></trkpt><trkpt lat="44.0478933" lon="11.9702167"><ele>465.6</ele><time>2026-04-18T08:47:37.073Z</time></trkpt><trkpt lat="44.04787" lon="11.97038"><ele>463.8</ele><time>2026-04-18T08:47:39.074Z</time></trkpt><trkpt lat="44.0478883" lon="11.97053"><ele>462.0</ele><time>2026-04-18T08:47:41.074Z</time></trkpt><trkpt lat="44.0479233" lon="11.97071"><ele>462.0</ele><time>2026-04-18T08:47:43.074Z</time></trkpt><trkpt lat="44.0479317" lon="11.9708017"><ele>462.0</ele><time>2026-04-18T08:47:44.073Z</time></trkpt><trkpt lat="44.047935" lon="11.9709467"><ele>462.0</ele><time>2026-04-18T08:47:46.074Z</time></trkpt><trkpt lat="44.0479183" lon="11.9710583"><ele>462.0</ele><time>2026-04-18T08:47:48.073Z</time></trkpt><trkpt lat="44.0478733" lon="11.971165"><ele>462.0</ele><time>2026-04-18T08:47:50.074Z</time></trkpt><trkpt lat="44.0478283" lon="11.97127"><ele>462.0</ele><time>2026-04-18T08:47:52.074Z</time></trkpt><trkpt lat="44.0477917" lon="11.9713517"><ele>460.6666666666667</ele><time>2026-04-18T08:47:54.074Z</time></trkpt><trkpt lat="44.0477267" lon="11.97141"><ele>459.33333333333337</ele><time>2026-04-18T08:47:57.074Z</time></trkpt><trkpt lat="44.0476533" lon="11.971335"><ele>458.0</ele><time>2026-04-18T08:48:00.074Z</time></trkpt><trkpt lat="44.0475933" lon="11.9712683"><ele>456.6666666666667</ele><time>2026-04-18T08:48:02.074Z</time></trkpt><trkpt lat="44.0475233" lon="11.9711983"><ele>455.33333333333337</ele><time>2026-04-18T08:48:05.074Z</time></trkpt><trkpt lat="44.0474867" lon="11.971045"><ele>454.0</ele><time>2026-04-18T08:48:13.074Z</time></trkpt><trkpt lat="44.0474683" lon="11.970895"><ele>450.6</ele><time>2026-04-18T08:48:15.073Z</time></trkpt><trkpt lat="44.0474567" lon="11.97077"><ele>447.2</ele><time>2026-04-18T08:48:17.073Z</time></trkpt><trkpt lat="44.0474417" lon="11.9706433"><ele>443.80000000000007</ele><time>2026-04-18T08:48:19.074Z</time></trkpt><trkpt lat="44.0474367" lon="11.9704917"><ele>440.40000000000003</ele><time>2026-04-18T08:48:26.074Z</time></trkpt><trkpt lat="44.0473833" lon="11.9704433"><ele>437.0</ele><time>2026-04-18T08:48:29.073Z</time></trkpt><trkpt lat="44.0473033" lon="11.9705917"><ele>436.99999999999994</ele><time>2026-04-18T08:48:32.074Z</time></trkpt><trkpt lat="44.04728" lon="11.9706967"><ele>437.0</ele><time>2026-04-18T08:48:33.073Z</time></trkpt><trkpt lat="44.0472733" lon="11.9708167"><ele>437.0</ele><time>2026-04-18T08:48:34.073Z</time></trkpt><trkpt lat="44.0472717" lon="11.97092"><ele>437.0</ele><time>2026-04-18T08:48:35.074Z</time></trkpt><trkpt lat="44.0472617" lon="11.97101"><ele>436.99999999999994</ele><time>2026-04-18T08:48:36.073Z</time></trkpt><trkpt lat="44.0472533" lon="11.9710983"><ele>437.0</ele><time>2026-04-18T08:48:37.074Z</time></trkpt><trkpt lat="44.0472267" lon="11.9712617"><ele>434.8</ele><time>2026-04-18T08:48:39.074Z</time></trkpt><trkpt lat="44.0471567" lon="11.9713333"><ele>432.6</ele><time>2026-04-18T08:48:41.074Z</time></trkpt><trkpt lat="44.0470683" lon="11.9712817"><ele>430.40000000000003</ele><time>2026-04-18T08:48:42.073Z</time></trkpt><trkpt lat="44.0469667" lon="11.97122"><ele>428.20000000000005</ele><time>2026-04-18T08:48:43.074Z</time></trkpt><trkpt lat="44.0468567" lon="11.97115"><ele>426.0</ele><time>2026-04-18T08:48:44.074Z</time></trkpt><trkpt lat="44.0467417" lon="11.97108"><ele>426.0</ele><time>2026-04-18T08:48:45.073Z</time></trkpt><trkpt lat="44.046635" lon="11.9710083"><ele>426.0</ele><time>2026-04-18T08:48:46.074Z</time></trkpt><trkpt lat="44.0465283" lon="11.9709417"><ele>426.0</ele><time>2026-04-18T08:48:47.074Z</time></trkpt><trkpt lat="44.046425" lon="11.970875"><ele>426.0</ele><time>2026-04-18T08:48:48.075Z</time></trkpt><trkpt lat="44.0463217" lon="11.97081"><ele>427.25</ele><time>2026-04-18T08:48:49.075Z</time></trkpt><trkpt lat="44.0462033" lon="11.9707367"><ele>428.5</ele><time>2026-04-18T08:48:50.075Z</time></trkpt><trkpt lat="44.04609" lon="11.970665"><ele>429.75</ele><time>2026-04-18T08:48:51.075Z</time></trkpt><trkpt lat="44.0459833" lon="11.9705983"><ele>431.0</ele><time>2026-04-18T08:48:52.075Z</time></trkpt><trkpt lat="44.04588" lon="11.97054"><ele>433.20000000000005</ele><time>2026-04-18T08:48:53.074Z</time></trkpt><trkpt lat="44.0457867" lon="11.9704867"><ele>435.40000000000003</ele><time>2026-04-18T08:48:54.075Z</time></trkpt><trkpt lat="44.0456967" lon="11.9704633"><ele>437.6</ele><time>2026-04-18T08:48:55.075Z</time></trkpt><trkpt lat="44.0455983" lon="11.970485"><ele>439.8</ele><time>2026-04-18T08:48:56.075Z</time></trkpt><trkpt lat="44.045505" lon="11.9705283"><ele>442.0</ele><time>2026-04-18T08:48:57.075Z</time></trkpt><trkpt lat="44.0454" lon="11.970605"><ele>442.0</ele><time>2026-04-18T08:48:58.075Z</time></trkpt><trkpt lat="44.0452967" lon="11.970675"><ele>442.00000000000006</ele><time>2026-04-18T08:48:59.074Z</time></trkpt><trkpt lat="44.04519" lon="11.9707317"><ele>442.00000000000006</ele><time>2026-04-18T08:49:00.075Z</time></trkpt><trkpt lat="44.0450933" lon="11.9707933"><ele>442.0</ele><time>2026-04-18T08:49:01.075Z</time></trkpt><trkpt lat="44.0450067" lon="11.9708533"><ele>442.0</ele><time>2026-04-18T08:49:02.075Z</time></trkpt><trkpt lat="44.0449217" lon="11.970895"><ele>442.0</ele><time>2026-04-18T08:49:03.075Z</time></trkpt><trkpt lat="44.0448367" lon="11.9709467"><ele>442.00000000000006</ele><time>2026-04-18T08:49:04.075Z</time></trkpt><trkpt lat="44.0447583" lon="11.9709967"><ele>442.00000000000006</ele><time>2026-04-18T08:49:05.075Z</time></trkpt><trkpt lat="44.0446667" lon="11.9710417"><ele>442.0</ele><time>2026-04-18T08:49:06.075Z</time></trkpt><trkpt lat="44.0445733" lon="11.971095"><ele>442.0</ele><time>2026-04-18T08:49:07.075Z</time></trkpt><trkpt lat="44.0444783" lon="11.9711417"><ele>442.00000000000006</ele><time>2026-04-18T08:49:08.074Z</time></trkpt><trkpt lat="44.04439" lon="11.9711817"><ele>442.0</ele><time>2026-04-18T08:49:09.075Z</time></trkpt><trkpt lat="44.0443133" lon="11.971215"><ele>442.0</ele><time>2026-04-18T08:49:10.074Z</time></trkpt><trkpt lat="44.0442433" lon="11.9712767"><ele>442.0</ele><time>2026-04-18T08:49:11.075Z</time></trkpt><trkpt lat="44.0441817" lon="11.971345"><ele>442.00000000000006</ele><time>2026-04-18T08:49:12.074Z</time></trkpt><trkpt lat="44.044115" lon="11.9714217"><ele>442.0</ele><time>2026-04-18T08:49:13.074Z</time></trkpt><trkpt lat="44.04405" lon="11.9715083"><ele>436.83333333333337</ele><time>2026-04-18T08:49:14.075Z</time></trkpt><trkpt lat="44.04399" lon="11.971595"><ele>431.6666666666667</ele><time>2026-04-18T08:49:15.075Z</time></trkpt><trkpt lat="44.0439417" lon="11.97167"><ele>426.5</ele><time>2026-04-18T08:49:16.075Z</time></trkpt><trkpt lat="44.0439083" lon="11.9717617"><ele>421.33333333333337</ele><time>2026-04-18T08:49:17.075Z</time></trkpt><trkpt lat="44.0438883" lon="11.9718533"><ele>416.1666666666667</ele><time>2026-04-18T08:49:18.075Z</time></trkpt><trkpt lat="44.043905" lon="11.9719517"><ele>411.0</ele><time>2026-04-18T08:49:19.075Z</time></trkpt><trkpt lat="44.0439383" lon="11.9720617"><ele>410.20000000000005</ele><time>2026-04-18T08:49:20.075Z</time></trkpt><trkpt lat="44.0439867" lon="11.9721667"><ele>409.40000000000003</ele><time>2026-04-18T08:49:21.075Z</time></trkpt><trkpt lat="44.044055" lon="11.97228"><ele>408.6</ele><time>2026-04-18T08:49:22.075Z</time></trkpt><trkpt lat="44.0441233" lon="11.972395"><ele>407.8</ele><time>2026-04-18T08:49:23.074Z</time></trkpt><trkpt lat="44.0441883" lon="11.9725033"><ele>407.0</ele><time>2026-04-18T08:49:24.075Z</time></trkpt><trkpt lat="44.0442417" lon="11.97263"><ele>407.0</ele><time>2026-04-18T08:49:25.075Z</time></trkpt><trkpt lat="44.0442917" lon="11.972755"><ele>407.0</ele><time>2026-04-18T08:49:26.075Z</time></trkpt><trkpt lat="44.0443433" lon="11.9728717"><ele>407.0</ele><time>2026-04-18T08:49:27.074Z</time></trkpt><trkpt lat="44.0443967" lon="11.97299"><ele>407.0</ele><time>2026-04-18T08:49:28.074Z</time></trkpt><trkpt lat="44.0444533" lon="11.973115"><ele>407.0</ele><time>2026-04-18T08:49:29.075Z</time></trkpt><trkpt lat="44.0444933" lon="11.9732483"><ele>403.20000000000005</ele><time>2026-04-18T08:49:30.075Z</time></trkpt><trkpt lat="44.0445217" lon="11.9733817"><ele>399.4</ele><time>2026-04-18T08:49:31.075Z</time></trkpt><trkpt lat="44.0445483" lon="11.9735217"><ele>395.6</ele><time>2026-04-18T08:49:32.075Z</time></trkpt><trkpt lat="44.044565" lon="11.9736667"><ele>391.79999999999995</ele><time>2026-04-18T08:49:33.075Z</time></trkpt><trkpt lat="44.0445817" lon="11.9738017"><ele>388.0</ele><time>2026-04-18T08:49:34.075Z</time></trkpt><trkpt lat="44.0446083" lon="11.9739383"><ele>388.0</ele><time>2026-04-18T08:49:35.075Z</time></trkpt><trkpt lat="44.0446267" lon="11.974075"><ele>388.0</ele><time>2026-04-18T08:49:36.075Z</time></trkpt><trkpt lat="44.0446367" lon="11.9742083"><ele>388.0</ele><time>2026-04-18T08:49:37.075Z</time></trkpt><trkpt lat="44.0446383" lon="11.9743367"><ele>388.0</ele><time>2026-04-18T08:49:38.075Z</time></trkpt><trkpt lat="44.0446383" lon="11.97447"><ele>388.0</ele><time>2026-04-18T08:49:39.075Z</time></trkpt><trkpt lat="44.044635" lon="11.9746067"><ele>386.4</ele><time>2026-04-18T08:49:40.075Z</time></trkpt><trkpt lat="44.0446233" lon="11.974745"><ele>384.79999999999995</ele><time>2026-04-18T08:49:41.075Z</time></trkpt><trkpt lat="44.0446033" lon="11.9748767"><ele>383.2</ele><time>2026-04-18T08:49:42.074Z</time></trkpt><trkpt lat="44.0445783" lon="11.9750233"><ele>381.6</ele><time>2026-04-18T08:49:43.075Z</time></trkpt><trkpt lat="44.0445533" lon="11.97518"><ele>380.0</ele><time>2026-04-18T08:49:44.075Z</time></trkpt><trkpt lat="44.0445283" lon="11.9753367"><ele>380.0</ele><time>2026-04-18T08:49:45.075Z</time></trkpt><trkpt lat="44.044495" lon="11.9754833"><ele>380.0</ele><time>2026-04-18T08:49:46.075Z</time></trkpt><trkpt lat="44.0444633" lon="11.9756383"><ele>380.0</ele><time>2026-04-18T08:49:47.075Z</time></trkpt><trkpt lat="44.0444217" lon="11.975795"><ele>380.0</ele><time>2026-04-18T08:49:48.075Z</time></trkpt><trkpt lat="44.04437" lon="11.975945"><ele>379.8</ele><time>2026-04-18T08:49:49.075Z</time></trkpt><trkpt lat="44.0443067" lon="11.9760767"><ele>379.6</ele><time>2026-04-18T08:49:50.075Z</time></trkpt><trkpt lat="44.0442417" lon="11.9761967"><ele>379.4</ele><time>2026-04-18T08:49:51.075Z</time></trkpt><trkpt lat="44.044185" lon="11.9763283"><ele>379.2</ele><time>2026-04-18T08:49:52.075Z</time></trkpt><trkpt lat="44.04414" lon="11.97646"><ele>379.0</ele><time>2026-04-18T08:49:53.075Z</time></trkpt><trkpt lat="44.0441167" lon="11.9765983"><ele>372.75</ele><time>2026-04-18T08:49:54.074Z</time></trkpt><trkpt lat="44.04411" lon="11.9767567"><ele>366.5</ele><time>2026-04-18T08:49:55.074Z</time></trkpt><trkpt lat="44.0441117" lon="11.97692"><ele>360.25</ele><time>2026-04-18T08:49:56.075Z</time></trkpt><trkpt lat="44.04411" lon="11.97708"><ele>354.0</ele><time>2026-04-18T08:49:57.075Z</time></trkpt><trkpt lat="44.044095" lon="11.9772383"><ele>354.0</ele><time>2026-04-18T08:49:58.075Z</time></trkpt><trkpt lat="44.04407" lon="11.9773783"><ele>354.0</ele><time>2026-04-18T08:49:59.074Z</time></trkpt><trkpt lat="44.04403" lon="11.9774967"><ele>354.0</ele><time>2026-04-18T08:50:00.075Z</time></trkpt><trkpt lat="44.0439767" lon="11.9775867"><ele>354.0</ele><time>2026-04-18T08:50:01.074Z</time></trkpt><trkpt lat="44.0439117" lon="11.9776717"><ele>354.0</ele><time>2026-04-18T08:50:02.074Z</time></trkpt><trkpt lat="44.0438283" lon="11.977745"><ele>355.4</ele><time>2026-04-18T08:50:03.075Z</time></trkpt><trkpt lat="44.0437317" lon="11.9777917"><ele>356.79999999999995</ele><time>2026-04-18T08:50:04.074Z</time></trkpt><trkpt lat="44.0436367" lon="11.9778433"><ele>358.20000000000005</ele><time>2026-04-18T08:50:05.075Z</time></trkpt><trkpt lat="44.0435467" lon="11.9779033"><ele>359.6</ele><time>2026-04-18T08:50:06.074Z</time></trkpt><trkpt lat="44.0434533" lon="11.97795"><ele>361.0</ele><time>2026-04-18T08:50:07.075Z</time></trkpt><trkpt lat="44.04336" lon="11.9779867"><ele>359.3333333333333</ele><time>2026-04-18T08:50:08.075Z</time></trkpt><trkpt lat="44.0432667" lon="11.9780067"><ele>357.66666666666663</ele><time>2026-04-18T08:50:09.075Z</time></trkpt><trkpt lat="44.0431717" lon="11.978015"><ele>356.0</ele><time>2026-04-18T08:50:10.074Z</time></trkpt><trkpt lat="44.043085" lon="11.9780067"><ele>354.3333333333333</ele><time>2026-04-18T08:50:11.075Z</time></trkpt><trkpt lat="44.043005" lon="11.977995"><ele>352.6666666666667</ele><time>2026-04-18T08:50:12.074Z</time></trkpt><trkpt lat="44.04294" lon="11.9779917"><ele>351.0</ele><time>2026-04-18T08:50:13.075Z</time></trkpt><trkpt lat="44.0428767" lon="11.9780067"><ele>351.0</ele><time>2026-04-18T08:50:14.075Z</time></trkpt><trkpt lat="44.042815" lon="11.9780467"><ele>351.0</ele><time>2026-04-18T08:50:15.075Z</time></trkpt><trkpt lat="44.04275" lon="11.9781017"><ele>351.0</ele><time>2026-04-18T08:50:16.075Z</time></trkpt><trkpt lat="44.042685" lon="11.9781633"><ele>351.0</ele><time>2026-04-18T08:50:17.075Z</time></trkpt><trkpt lat="44.0426167" lon="11.978225"><ele>351.0</ele><time>2026-04-18T08:50:18.075Z</time></trkpt><trkpt lat="44.0425467" lon="11.9782733"><ele>351.0</ele><time>2026-04-18T08:50:19.074Z</time></trkpt><trkpt lat="44.04247" lon="11.9783083"><ele>347.6666666666667</ele><time>2026-04-18T08:50:20.075Z</time></trkpt><trkpt lat="44.0423917" lon="11.9783533"><ele>344.3333333333333</ele><time>2026-04-18T08:50:21.074Z</time></trkpt><trkpt lat="44.042315" lon="11.9783917"><ele>341.0</ele><time>2026-04-18T08:50:22.074Z</time></trkpt><trkpt lat="44.04224" lon="11.97843"><ele>337.66666666666663</ele><time>2026-04-18T08:50:23.075Z</time></trkpt><trkpt lat="44.042165" lon="11.9784783"><ele>334.3333333333333</ele><time>2026-04-18T08:50:24.075Z</time></trkpt><trkpt lat="44.0420967" lon="11.9785133"><ele>331.0</ele><time>2026-04-18T08:50:25.075Z</time></trkpt><trkpt lat="44.0420233" lon="11.978505"><ele>331.0</ele><time>2026-04-18T08:50:26.075Z</time></trkpt><trkpt lat="44.0419517" lon="11.9784733"><ele>331.0</ele><time>2026-04-18T08:50:27.075Z</time></trkpt><trkpt lat="44.04188" lon="11.9784583"><ele>331.0</ele><time>2026-04-18T08:50:28.075Z</time></trkpt><trkpt lat="44.0417733" lon="11.97847"><ele>331.0</ele><time>2026-04-18T08:50:30.074Z</time></trkpt><trkpt lat="44.04169" lon="11.97853"><ele>331.0</ele><time>2026-04-18T08:50:32.075Z</time></trkpt><trkpt lat="44.041665" lon="11.9786367"><ele>331.0</ele><time>2026-04-18T08:50:34.075Z</time></trkpt><trkpt lat="44.0417067" lon="11.978805"><ele>331.0</ele><time>2026-04-18T08:50:36.075Z</time></trkpt><trkpt lat="44.04174" lon="11.97891"><ele>331.0</ele><time>2026-04-18T08:50:37.075Z</time></trkpt><trkpt lat="44.0417717" lon="11.9790167"><ele>331.0</ele><time>2026-04-18T08:50:38.074Z</time></trkpt><trkpt lat="44.0418033" lon="11.9791383"><ele>331.0</ele><time>2026-04-18T08:50:39.075Z</time></trkpt><trkpt lat="44.0418333" lon="11.9792483"><ele>331.0</ele><time>2026-04-18T08:50:40.074Z</time></trkpt><trkpt lat="44.041865" lon="11.9793683"><ele>331.0</ele><time>2026-04-18T08:50:41.074Z</time></trkpt><trkpt lat="44.0418933" lon="11.9795017"><ele>327.6</ele><time>2026-04-18T08:50:42.075Z</time></trkpt><trkpt lat="44.04191" lon="11.9796367"><ele>324.20000000000005</ele><time>2026-04-18T08:50:43.075Z</time></trkpt><trkpt lat="44.0419067" lon="11.9797633"><ele>320.79999999999995</ele><time>2026-04-18T08:50:44.074Z</time></trkpt><trkpt lat="44.0419067" lon="11.9798933"><ele>317.4</ele><time>2026-04-18T08:50:45.075Z</time></trkpt><trkpt lat="44.0419083" lon="11.98003"><ele>314.0</ele><time>2026-04-18T08:50:46.075Z</time></trkpt><trkpt lat="44.0419217" lon="11.9801667"><ele>313.1666666666667</ele><time>2026-04-18T08:50:47.075Z</time></trkpt><trkpt lat="44.0419367" lon="11.9803"><ele>312.33333333333337</ele><time>2026-04-18T08:50:48.074Z</time></trkpt><trkpt lat="44.0419533" lon="11.980425"><ele>311.5</ele><time>2026-04-18T08:50:49.075Z</time></trkpt><trkpt lat="44.04196" lon="11.9805467"><ele>310.6666666666667</ele><time>2026-04-18T08:50:50.075Z</time></trkpt><trkpt lat="44.0419633" lon="11.980675"><ele>309.8333333333333</ele><time>2026-04-18T08:50:51.075Z</time></trkpt><trkpt lat="44.04195" lon="11.9807783"><ele>309.0</ele><time>2026-04-18T08:50:52.075Z</time></trkpt><trkpt lat="44.0419183" lon="11.9808667"><ele>308.3333333333333</ele><time>2026-04-18T08:50:53.075Z</time></trkpt><trkpt lat="44.0418683" lon="11.9809417"><ele>307.6666666666667</ele><time>2026-04-18T08:50:54.075Z</time></trkpt><trkpt lat="44.0418033" lon="11.981"><ele>307.0</ele><time>2026-04-18T08:50:55.075Z</time></trkpt><trkpt lat="44.041725" lon="11.9810683"><ele>306.33333333333337</ele><time>2026-04-18T08:50:56.075Z</time></trkpt><trkpt lat="44.0416417" lon="11.9811267"><ele>305.6666666666667</ele><time>2026-04-18T08:50:57.075Z</time></trkpt><trkpt lat="44.0415633" lon="11.9811817"><ele>305.0</ele><time>2026-04-18T08:50:58.075Z</time></trkpt><trkpt lat="44.041485" lon="11.981235"><ele>305.0</ele><time>2026-04-18T08:50:59.075Z</time></trkpt><trkpt lat="44.0414083" lon="11.9812817"><ele>305.0</ele><time>2026-04-18T08:51:00.075Z</time></trkpt><trkpt lat="44.0413333" lon="11.98133"><ele>305.0</ele><time>2026-04-18T08:51:01.075Z</time></trkpt><trkpt lat="44.0412567" lon="11.9813767"><ele>305.0</ele><time>2026-04-18T08:51:02.075Z</time></trkpt><trkpt lat="44.0411817" lon="11.9814033"><ele>305.0</ele><time>2026-04-18T08:51:03.075Z</time></trkpt><trkpt lat="44.041105" lon="11.9814183"><ele>305.0</ele><time>2026-04-18T08:51:04.075Z</time></trkpt><trkpt lat="44.0410317" lon="11.9814283"><ele>305.0</ele><time>2026-04-18T08:51:05.075Z</time></trkpt><trkpt lat="44.0409533" lon="11.98142"><ele>305.0</ele><time>2026-04-18T08:51:06.075Z</time></trkpt><trkpt lat="44.0408783" lon="11.981415"><ele>305.0</ele><time>2026-04-18T08:51:07.074Z</time></trkpt><trkpt lat="44.0407967" lon="11.9813967"><ele>305.0</ele><time>2026-04-18T08:51:08.075Z</time></trkpt><trkpt lat="44.0407167" lon="11.9813817"><ele>305.0</ele><time>2026-04-18T08:51:09.075Z</time></trkpt><trkpt lat="44.04064" lon="11.9813767"><ele>305.0</ele><time>2026-04-18T08:51:10.075Z</time></trkpt><trkpt lat="44.0405683" lon="11.98139"><ele>303.1666666666667</ele><time>2026-04-18T08:51:11.075Z</time></trkpt><trkpt lat="44.0404933" lon="11.981425"><ele>301.33333333333337</ele><time>2026-04-18T08:51:12.075Z</time></trkpt><trkpt lat="44.04044" lon="11.981505"><ele>299.5</ele><time>2026-04-18T08:51:13.075Z</time></trkpt><trkpt lat="44.040395" lon="11.98159"><ele>297.6666666666667</ele><time>2026-04-18T08:51:14.075Z</time></trkpt><trkpt lat="44.0403583" lon="11.9817"><ele>295.8333333333333</ele><time>2026-04-18T08:51:15.075Z</time></trkpt><trkpt lat="44.0403533" lon="11.9818233"><ele>294.0</ele><time>2026-04-18T08:51:16.075Z</time></trkpt><trkpt lat="44.0403433" lon="11.981945"><ele>294.0</ele><time>2026-04-18T08:51:17.075Z</time></trkpt><trkpt lat="44.0403117" lon="11.9820433"><ele>294.0</ele><time>2026-04-18T08:51:18.075Z</time></trkpt><trkpt lat="44.0402483" lon="11.9821167"><ele>294.0</ele><time>2026-04-18T08:51:19.074Z</time></trkpt><trkpt lat="44.040185" lon="11.9821733"><ele>294.0</ele><time>2026-04-18T08:51:20.075Z</time></trkpt><trkpt lat="44.0400967" lon="11.9821783"><ele>294.0</ele><time>2026-04-18T08:51:21.075Z</time></trkpt><trkpt lat="44.0400117" lon="11.9821717"><ele>294.0</ele><time>2026-04-18T08:51:22.075Z</time></trkpt><trkpt lat="44.039935" lon="11.982185"><ele>291.0</ele><time>2026-04-18T08:51:23.075Z</time></trkpt><trkpt lat="44.0398817" lon="11.9822483"><ele>288.0</ele><time>2026-04-18T08:51:24.075Z</time></trkpt><trkpt lat="44.03984" lon="11.9823317"><ele>285.0</ele><time>2026-04-18T08:51:25.075Z</time></trkpt><trkpt lat="44.03981" lon="11.9824433"><ele>282.0</ele><time>2026-04-18T08:51:26.074Z</time></trkpt><trkpt lat="44.0397883" lon="11.98258"><ele>279.0</ele><time>2026-04-18T08:51:27.075Z</time></trkpt><trkpt lat="44.03976" lon="11.9827183"><ele>276.0</ele><time>2026-04-18T08:51:28.075Z</time></trkpt><trkpt lat="44.0397133" lon="11.9828567"><ele>276.0</ele><time>2026-04-18T08:51:29.075Z</time></trkpt><trkpt lat="44.039655" lon="11.9829833"><ele>276.0</ele><time>2026-04-18T08:51:30.075Z</time></trkpt><trkpt lat="44.039595" lon="11.9830867"><ele>276.0</ele><time>2026-04-18T08:51:31.075Z</time></trkpt><trkpt lat="44.0395317" lon="11.98318"><ele>276.0</ele><time>2026-04-18T08:51:32.075Z</time></trkpt><trkpt lat="44.0394633" lon="11.98328"><ele>276.0</ele><time>2026-04-18T08:51:33.075Z</time></trkpt><trkpt lat="44.039385" lon="11.9833517"><ele>276.2</ele><time>2026-04-18T08:51:34.075Z</time></trkpt><trkpt lat="44.0392983" lon="11.9834"><ele>276.40000000000003</ele><time>2026-04-18T08:51:35.075Z</time></trkpt><trkpt lat="44.0392033" lon="11.983445"><ele>276.6</ele><time>2026-04-18T08:51:36.075Z</time></trkpt><trkpt lat="44.0390933" lon="11.9834683"><ele>276.8</ele><time>2026-04-18T08:51:37.074Z</time></trkpt><trkpt lat="44.038975" lon="11.983485"><ele>277.0</ele><time>2026-04-18T08:51:38.075Z</time></trkpt><trkpt lat="44.038865" lon="11.9834883"><ele>277.0</ele><time>2026-04-18T08:51:39.075Z</time></trkpt><trkpt lat="44.0387717" lon="11.9834833"><ele>277.0</ele><time>2026-04-18T08:51:40.075Z</time></trkpt><trkpt lat="44.038695" lon="11.9834983"><ele>277.0</ele><time>2026-04-18T08:51:41.075Z</time></trkpt><trkpt lat="44.0386233" lon="11.98353"><ele>277.0</ele><time>2026-04-18T08:51:42.075Z</time></trkpt><trkpt lat="44.0385567" lon="11.9835883"><ele>277.0</ele><time>2026-04-18T08:51:43.075Z</time></trkpt><trkpt lat="44.038495" lon="11.9836767"><ele>277.0</ele><time>2026-04-18T08:51:44.075Z</time></trkpt><trkpt lat="44.038445" lon="11.98378"><ele>277.0</ele><time>2026-04-18T08:51:45.075Z</time></trkpt><trkpt lat="44.0383867" lon="11.9838733"><ele>277.0</ele><time>2026-04-18T08:51:46.075Z</time></trkpt><trkpt lat="44.0383033" lon="11.9839583"><ele>277.0</ele><time>2026-04-18T08:51:47.075Z</time></trkpt><trkpt lat="44.0382233" lon="11.9840167"><ele>277.0</ele><time>2026-04-18T08:51:48.075Z</time></trkpt><trkpt lat="44.0381417" lon="11.9840367"><ele>277.0</ele><time>2026-04-18T08:51:49.075Z</time></trkpt><trkpt lat="44.0380633" lon="11.9840333"><ele>277.0</ele><time>2026-04-18T08:51:50.075Z</time></trkpt><trkpt lat="44.037985" lon="11.9840033"><ele>273.8333333333333</ele><time>2026-04-18T08:51:51.074Z</time></trkpt><trkpt lat="44.0379" lon="11.983965"><ele>270.66666666666663</ele><time>2026-04-18T08:51:52.074Z</time></trkpt><trkpt lat="44.037815" lon="11.9839367"><ele>267.5</ele><time>2026-04-18T08:51:53.075Z</time></trkpt><trkpt lat="44.03772" lon="11.98392"><ele>264.3333333333333</ele><time>2026-04-18T08:51:54.075Z</time></trkpt><trkpt lat="44.0376317" lon="11.9839183"><ele>261.1666666666667</ele><time>2026-04-18T08:51:55.075Z</time></trkpt><trkpt lat="44.0375483" lon="11.9839283"><ele>258.0</ele><time>2026-04-18T08:51:56.075Z</time></trkpt><trkpt lat="44.03747" lon="11.98394"><ele>253.0</ele><time>2026-04-18T08:51:57.075Z</time></trkpt><trkpt lat="44.0373983" lon="11.98397"><ele>248.0</ele><time>2026-04-18T08:51:58.074Z</time></trkpt><trkpt lat="44.0373333" lon="11.9840083"><ele>243.0</ele><time>2026-04-18T08:51:59.075Z</time></trkpt><trkpt lat="44.0372817" lon="11.9840833"><ele>238.0</ele><time>2026-04-18T08:52:00.075Z</time></trkpt><trkpt lat="44.0372433" lon="11.9842117"><ele>233.0</ele><time>2026-04-18T08:52:01.075Z</time></trkpt><trkpt lat="44.037245" lon="11.984325"><ele>228.0</ele><time>2026-04-18T08:52:02.075Z</time></trkpt><trkpt lat="44.0372767" lon="11.9844517"><ele>224.75</ele><time>2026-04-18T08:52:03.075Z</time></trkpt><trkpt lat="44.0373233" lon="11.9845833"><ele>221.5</ele><time>2026-04-18T08:52:04.075Z</time></trkpt><trkpt lat="44.0373833" lon="11.9847233"><ele>218.25</ele><time>2026-04-18T08:52:05.075Z</time></trkpt><trkpt lat="44.0374583" lon="11.9848733"><ele>215.0</ele><time>2026-04-18T08:52:06.075Z</time></trkpt><trkpt lat="44.037535" lon="11.9850267"><ele>215.0</ele><time>2026-04-18T08:52:07.075Z</time></trkpt><trkpt lat="44.03761" lon="11.985185"><ele>215.0</ele><time>2026-04-18T08:52:08.075Z</time></trkpt><trkpt lat="44.0376867" lon="11.98535"><ele>215.0</ele><time>2026-04-18T08:52:09.074Z</time></trkpt><trkpt lat="44.037755" lon="11.9855133"><ele>215.0</ele><time>2026-04-18T08:52:10.075Z</time></trkpt><trkpt lat="44.037825" lon="11.9856717"><ele>215.0</ele><time>2026-04-18T08:52:11.075Z</time></trkpt><trkpt lat="44.0378883" lon="11.9858117"><ele>215.0</ele><time>2026-04-18T08:52:12.074Z</time></trkpt><trkpt lat="44.037945" lon="11.9859367"><ele>215.0</ele><time>2026-04-18T08:52:13.075Z</time></trkpt><trkpt lat="44.038" lon="11.9860567"><ele>215.0</ele><time>2026-04-18T08:52:14.075Z</time></trkpt><trkpt lat="44.03806" lon="11.9861767"><ele>215.0</ele><time>2026-04-18T08:52:15.075Z</time></trkpt><trkpt lat="44.0381233" lon="11.9863067"><ele>209.25</ele><time>2026-04-18T08:52:16.075Z</time></trkpt><trkpt lat="44.03819" lon="11.9864383"><ele>203.5</ele><time>2026-04-18T08:52:17.075Z</time></trkpt><trkpt lat="44.03825" lon="11.9865917"><ele>197.75</ele><time>2026-04-18T08:52:18.074Z</time></trkpt><trkpt lat="44.0383133" lon="11.986755"><ele>192.0</ele><time>2026-04-18T08:52:19.075Z</time></trkpt><trkpt lat="44.0383683" lon="11.9869167"><ele>192.0</ele><time>2026-04-18T08:52:20.074Z</time></trkpt><trkpt lat="44.0384267" lon="11.9870817"><ele>192.0</ele><time>2026-04-18T08:52:21.075Z</time></trkpt><trkpt lat="44.038485" lon="11.98726"><ele>192.0</ele><time>2026-04-18T08:52:22.075Z</time></trkpt><trkpt lat="44.038545" lon="11.987435"><ele>192.0</ele><time>2026-04-18T08:52:23.074Z</time></trkpt><trkpt lat="44.0386017" lon="11.987605"><ele>188.0</ele><time>2026-04-18T08:52:24.075Z</time></trkpt><trkpt lat="44.03866" lon="11.9877617"><ele>184.0</ele><time>2026-04-18T08:52:25.075Z</time></trkpt><trkpt lat="44.038725" lon="11.987915"><ele>180.0</ele><time>2026-04-18T08:52:26.074Z</time></trkpt><trkpt lat="44.0387817" lon="11.9880717"><ele>176.0</ele><time>2026-04-18T08:52:27.075Z</time></trkpt><trkpt lat="44.0388433" lon="11.988235"><ele>174.0</ele><time>2026-04-18T08:52:28.075Z</time></trkpt><trkpt lat="44.0389083" lon="11.9883967"><ele>172.0</ele><time>2026-04-18T08:52:29.074Z</time></trkpt><trkpt lat="44.03898" lon="11.9885533"><ele>170.0</ele><time>2026-04-18T08:52:30.074Z</time></trkpt><trkpt lat="44.03905" lon="11.988695"><ele>168.0</ele><time>2026-04-18T08:52:31.075Z</time></trkpt><trkpt lat="44.03912" lon="11.9888417"><ele>168.25</ele><time>2026-04-18T08:52:32.075Z</time></trkpt><trkpt lat="44.03918" lon="11.989"><ele>168.5</ele><time>2026-04-18T08:52:33.075Z</time></trkpt><trkpt lat="44.0392383" lon="11.9891617"><ele>168.75</ele><time>2026-04-18T08:52:34.075Z</time></trkpt><trkpt lat="44.039295" lon="11.9893217"><ele>169.0</ele><time>2026-04-18T08:52:35.074Z</time></trkpt><trkpt lat="44.039345" lon="11.9894517"><ele>167.0</ele><time>2026-04-18T08:52:36.075Z</time></trkpt><trkpt lat="44.0393933" lon="11.9895717"><ele>165.0</ele><time>2026-04-18T08:52:37.075Z</time></trkpt><trkpt lat="44.039435" lon="11.9896833"><ele>163.0</ele><time>2026-04-18T08:52:38.074Z</time></trkpt><trkpt lat="44.03947" lon="11.9897883"><ele>161.0</ele><time>2026-04-18T08:52:39.075Z</time></trkpt><trkpt lat="44.0394917" lon="11.9898833"><ele>159.0</ele><time>2026-04-18T08:52:40.075Z</time></trkpt><trkpt lat="44.0394883" lon="11.989975"><ele>157.0</ele><time>2026-04-18T08:52:41.075Z</time></trkpt><trkpt lat="44.0394667" lon="11.9900717"><ele>155.83333333333334</ele><time>2026-04-18T08:52:42.075Z</time></trkpt><trkpt lat="44.039435" lon="11.9901683"><ele>154.66666666666669</ele><time>2026-04-18T08:52:43.075Z</time></trkpt><trkpt lat="44.0393933" lon="11.9902633"><ele>153.5</ele><time>2026-04-18T08:52:44.075Z</time></trkpt><trkpt lat="44.0393483" lon="11.9903433"><ele>152.33333333333334</ele><time>2026-04-18T08:52:45.075Z</time></trkpt><trkpt lat="44.03927" lon="11.9903667"><ele>151.16666666666666</ele><time>2026-04-18T08:52:46.075Z</time></trkpt><trkpt lat="44.0391817" lon="11.9903833"><ele>150.0</ele><time>2026-04-18T08:52:47.075Z</time></trkpt><trkpt lat="44.0390733" lon="11.9903883"><ele>147.75</ele><time>2026-04-18T08:52:48.075Z</time></trkpt><trkpt lat="44.0389617" lon="11.9903967"><ele>145.5</ele><time>2026-04-18T08:52:49.075Z</time></trkpt><trkpt lat="44.0388417" lon="11.9904017"><ele>143.25</ele><time>2026-04-18T08:52:50.075Z</time></trkpt><trkpt lat="44.0387283" lon="11.9904033"><ele>141.0</ele><time>2026-04-18T08:52:51.075Z</time></trkpt><trkpt lat="44.0386233" lon="11.9904133"><ele>141.0</ele><time>2026-04-18T08:52:52.074Z</time></trkpt><trkpt lat="44.0385217" lon="11.9904333"><ele>141.0</ele><time>2026-04-18T08:52:53.074Z</time></trkpt><trkpt lat="44.0384283" lon="11.9904567"><ele>141.0</ele><time>2026-04-18T08:52:54.074Z</time></trkpt><trkpt lat="44.0383383" lon="11.9904867"><ele>141.0</ele><time>2026-04-18T08:52:55.074Z</time></trkpt><trkpt lat="44.0382633" lon="11.9905317"><ele>141.0</ele><time>2026-04-18T08:52:56.075Z</time></trkpt><trkpt lat="44.03819" lon="11.9905867"><ele>139.66666666666666</ele><time>2026-04-18T08:52:57.075Z</time></trkpt><trkpt lat="44.0381267" lon="11.9906533"><ele>138.33333333333334</ele><time>2026-04-18T08:52:58.075Z</time></trkpt><trkpt lat="44.038045" lon="11.9907233"><ele>137.0</ele><time>2026-04-18T08:52:59.075Z</time></trkpt><trkpt lat="44.0379933" lon="11.990805"><ele>135.66666666666669</ele><time>2026-04-18T08:53:00.074Z</time></trkpt><trkpt lat="44.0379433" lon="11.9908933"><ele>134.33333333333334</ele><time>2026-04-18T08:53:01.074Z</time></trkpt><trkpt lat="44.0378933" lon="11.9909767"><ele>133.0</ele><time>2026-04-18T08:53:02.074Z</time></trkpt><trkpt lat="44.0378467" lon="11.991055"><ele>132.20000000000002</ele><time>2026-04-18T08:53:03.075Z</time></trkpt><trkpt lat="44.037795" lon="11.991125"><ele>131.4</ele><time>2026-04-18T08:53:04.075Z</time></trkpt><trkpt lat="44.037745" lon="11.9911967"><ele>130.60000000000002</ele><time>2026-04-18T08:53:05.075Z</time></trkpt><trkpt lat="44.0376533" lon="11.9913083"><ele>129.8</ele><time>2026-04-18T08:53:07.075Z</time></trkpt><trkpt lat="44.0376217" lon="11.9914333"><ele>129.0</ele><time>2026-04-18T08:53:09.075Z</time></trkpt><trkpt lat="44.037635" lon="11.9915933"><ele>128.66666666666666</ele><time>2026-04-18T08:53:11.075Z</time></trkpt><trkpt lat="44.0376083" lon="11.991735"><ele>128.33333333333334</ele><time>2026-04-18T08:53:13.075Z</time></trkpt><trkpt lat="44.037565" lon="11.9918067"><ele>128.0</ele><time>2026-04-18T08:53:14.075Z</time></trkpt><trkpt lat="44.0375217" lon="11.99189"><ele>127.66666666666667</ele><time>2026-04-18T08:53:15.074Z</time></trkpt><trkpt lat="44.0374933" lon="11.991975"><ele>127.33333333333334</ele><time>2026-04-18T08:53:16.074Z</time></trkpt><trkpt lat="44.037475" lon="11.9920667"><ele>127.0</ele><time>2026-04-18T08:53:17.074Z</time></trkpt><trkpt lat="44.0374817" lon="11.9921617"><ele>127.0</ele><time>2026-04-18T08:53:18.075Z</time></trkpt><trkpt lat="44.03752" lon="11.9922533"><ele>126.99999999999999</ele><time>2026-04-18T08:53:19.075Z</time></trkpt><trkpt lat="44.0375917" lon="11.99235"><ele>126.99999999999999</ele><time>2026-04-18T08:53:20.075Z</time></trkpt><trkpt lat="44.03767" lon="11.9924417"><ele>127.0</ele><time>2026-04-18T08:53:21.075Z</time></trkpt><trkpt lat="44.0377567" lon="11.9925367"><ele>127.0</ele><time>2026-04-18T08:53:22.075Z</time></trkpt><trkpt lat="44.0378483" lon="11.9926317"><ele>128.5</ele><time>2026-04-18T08:53:23.074Z</time></trkpt><trkpt lat="44.03794" lon="11.9927283"><ele>130.0</ele><time>2026-04-18T08:53:24.075Z</time></trkpt><trkpt lat="44.0380317" lon="11.99282"><ele>131.5</ele><time>2026-04-18T08:53:25.075Z</time></trkpt><trkpt lat="44.038125" lon="11.9929117"><ele>133.0</ele><time>2026-04-18T08:53:26.075Z</time></trkpt><trkpt lat="44.0382183" lon="11.9929983"><ele>130.5</ele><time>2026-04-18T08:53:27.075Z</time></trkpt><trkpt lat="44.03832" lon="11.9930917"><ele>128.0</ele><time>2026-04-18T08:53:28.075Z</time></trkpt><trkpt lat="44.0384317" lon="11.9931667"><ele>125.5</ele><time>2026-04-18T08:53:29.075Z</time></trkpt><trkpt lat="44.03855" lon="11.9932317"><ele>123.0</ele><time>2026-04-18T08:53:30.075Z</time></trkpt><trkpt lat="44.0386667" lon="11.993295"><ele>123.25</ele><time>2026-04-18T08:53:31.075Z</time></trkpt><trkpt lat="44.038785" lon="11.993355"><ele>123.5</ele><time>2026-04-18T08:53:32.074Z</time></trkpt><trkpt lat="44.0389067" lon="11.9934133"><ele>123.75</ele><time>2026-04-18T08:53:33.075Z</time></trkpt><trkpt lat="44.0390233" lon="11.9934583"><ele>124.0</ele><time>2026-04-18T08:53:34.075Z</time></trkpt><trkpt lat="44.0391433" lon="11.9935117"><ele>124.0</ele><time>2026-04-18T08:53:35.075Z</time></trkpt><trkpt lat="44.039265" lon="11.9935817"><ele>124.0</ele><time>2026-04-18T08:53:36.075Z</time></trkpt><trkpt lat="44.0393867" lon="11.9936433"><ele>124.0</ele><time>2026-04-18T08:53:37.075Z</time></trkpt><trkpt lat="44.0395067" lon="11.993695"><ele>124.0</ele><time>2026-04-18T08:53:38.074Z</time></trkpt><trkpt lat="44.039625" lon="11.9937383"><ele>124.0</ele><time>2026-04-18T08:53:39.074Z</time></trkpt><trkpt lat="44.0397433" lon="11.9937717"><ele>124.0</ele><time>2026-04-18T08:53:40.075Z</time></trkpt><trkpt lat="44.039855" lon="11.9938017"><ele>124.0</ele><time>2026-04-18T08:53:41.074Z</time></trkpt><trkpt lat="44.0399667" lon="11.993825"><ele>124.0</ele><time>2026-04-18T08:53:42.074Z</time></trkpt><trkpt lat="44.0400867" lon="11.9938467"><ele>124.6</ele><time>2026-04-18T08:53:43.074Z</time></trkpt><trkpt lat="44.040205" lon="11.9938667"><ele>125.2</ele><time>2026-04-18T08:53:44.075Z</time></trkpt><trkpt lat="44.0403133" lon="11.9938833"><ele>125.79999999999998</ele><time>2026-04-18T08:53:45.075Z</time></trkpt><trkpt lat="44.0404033" lon="11.9939017"><ele>126.39999999999999</ele><time>2026-04-18T08:53:46.075Z</time></trkpt><trkpt lat="44.0404767" lon="11.9939383"><ele>127.0</ele><time>2026-04-18T08:53:47.074Z</time></trkpt><trkpt lat="44.04054" lon="11.9939967"><ele>127.0</ele><time>2026-04-18T08:53:48.075Z</time></trkpt><trkpt lat="44.0406" lon="11.9940733"><ele>126.99999999999999</ele><time>2026-04-18T08:53:49.075Z</time></trkpt><trkpt lat="44.0406517" lon="11.9941783"><ele>126.99999999999999</ele><time>2026-04-18T08:53:50.075Z</time></trkpt><trkpt lat="44.0406867" lon="11.9943017"><ele>127.0</ele><time>2026-04-18T08:53:51.074Z</time></trkpt><trkpt lat="44.0407017" lon="11.994445"><ele>127.0</ele><time>2026-04-18T08:53:52.075Z</time></trkpt><trkpt lat="44.0407067" lon="11.9945933"><ele>126.8</ele><time>2026-04-18T08:53:53.075Z</time></trkpt><trkpt lat="44.040705" lon="11.9947433"><ele>126.6</ele><time>2026-04-18T08:53:54.075Z</time></trkpt><trkpt lat="44.0406983" lon="11.9948933"><ele>126.39999999999999</ele><time>2026-04-18T08:53:55.075Z</time></trkpt><trkpt lat="44.0406717" lon="11.9950433"><ele>126.19999999999999</ele><time>2026-04-18T08:53:56.075Z</time></trkpt><trkpt lat="44.0406483" lon="11.995195"><ele>126.0</ele><time>2026-04-18T08:53:57.075Z</time></trkpt><trkpt lat="44.0406217" lon="11.9953433"><ele>126.0</ele><time>2026-04-18T08:53:58.075Z</time></trkpt><trkpt lat="44.0406017" lon="11.99549"><ele>126.0</ele><time>2026-04-18T08:53:59.074Z</time></trkpt><trkpt lat="44.0405767" lon="11.9956483"><ele>126.0</ele><time>2026-04-18T08:54:00.075Z</time></trkpt><trkpt lat="44.040545" lon="11.9958017"><ele>126.0</ele><time>2026-04-18T08:54:01.074Z</time></trkpt><trkpt lat="44.0405017" lon="11.99594"><ele>126.0</ele><time>2026-04-18T08:54:02.074Z</time></trkpt><trkpt lat="44.0404517" lon="11.9960717"><ele>125.83333333333333</ele><time>2026-04-18T08:54:03.075Z</time></trkpt><trkpt lat="44.0404033" lon="11.996185"><ele>125.66666666666666</ele><time>2026-04-18T08:54:04.075Z</time></trkpt><trkpt lat="44.0403517" lon="11.9962917"><ele>125.5</ele><time>2026-04-18T08:54:05.075Z</time></trkpt><trkpt lat="44.0403017" lon="11.9963967"><ele>125.33333333333333</ele><time>2026-04-18T08:54:06.075Z</time></trkpt><trkpt lat="44.0402583" lon="11.9964917"><ele>125.16666666666666</ele><time>2026-04-18T08:54:07.075Z</time></trkpt><trkpt lat="44.0402183" lon="11.9965933"><ele>125.0</ele><time>2026-04-18T08:54:08.074Z</time></trkpt><trkpt lat="44.040175" lon="11.9966883"><ele>124.66666666666666</ele><time>2026-04-18T08:54:09.075Z</time></trkpt><trkpt lat="44.04013" lon="11.996785"><ele>124.33333333333333</ele><time>2026-04-18T08:54:10.074Z</time></trkpt><trkpt lat="44.0400817" lon="11.996885"><ele>124.0</ele><time>2026-04-18T08:54:11.075Z</time></trkpt><trkpt lat="44.0400317" lon="11.996985"><ele>123.66666666666666</ele><time>2026-04-18T08:54:12.075Z</time></trkpt><trkpt lat="44.0399783" lon="11.997085"><ele>123.33333333333333</ele><time>2026-04-18T08:54:13.075Z</time></trkpt><trkpt lat="44.03993" lon="11.99718"><ele>123.0</ele><time>2026-04-18T08:54:14.075Z</time></trkpt><trkpt lat="44.0398817" lon="11.9972717"><ele>122.66666666666667</ele><time>2026-04-18T08:54:15.075Z</time></trkpt><trkpt lat="44.0398383" lon="11.99736"><ele>122.33333333333334</ele><time>2026-04-18T08:54:16.074Z</time></trkpt><trkpt lat="44.0397967" lon="11.99744"><ele>122.0</ele><time>2026-04-18T08:54:17.074Z</time></trkpt><trkpt lat="44.03973" lon="11.9975517"><ele>121.66666666666667</ele><time>2026-04-18T08:54:19.075Z</time></trkpt><trkpt lat="44.0396983" lon="11.9976333"><ele>121.33333333333334</ele><time>2026-04-18T08:54:22.075Z</time></trkpt><trkpt lat="44.03965" lon="11.997735"><ele>121.0</ele><time>2026-04-18T08:54:39.074Z</time></trkpt><trkpt lat="44.0396083" lon="11.9978233"><ele>121.0</ele><time>2026-04-18T08:54:42.075Z</time></trkpt><trkpt lat="44.0396167" lon="11.9979267"><ele>121.0</ele><time>2026-04-18T08:54:44.075Z</time></trkpt><trkpt lat="44.0397067" lon="11.9980833"><ele>121.0</ele><time>2026-04-18T08:54:46.074Z</time></trkpt><trkpt lat="44.0397683" lon="11.9981833"><ele>121.0</ele><time>2026-04-18T08:54:47.075Z</time></trkpt><trkpt lat="44.0398317" lon="11.9982767"><ele>121.0</ele><time>2026-04-18T08:54:48.075Z</time></trkpt><trkpt lat="44.03989" lon="11.9983717"><ele>121.0</ele><time>2026-04-18T08:54:49.075Z</time></trkpt><trkpt lat="44.0399567" lon="11.99848"><ele>121.0</ele><time>2026-04-18T08:54:50.075Z</time></trkpt><trkpt lat="44.0400367" lon="11.998605"><ele>121.0</ele><time>2026-04-18T08:54:51.075Z</time></trkpt><trkpt lat="44.0401217" lon="11.9987417"><ele>121.0</ele><time>2026-04-18T08:54:52.075Z</time></trkpt><trkpt lat="44.0401983" lon="11.9988617"><ele>121.0</ele><time>2026-04-18T08:54:53.075Z</time></trkpt><trkpt lat="44.040265" lon="11.9989733"><ele>121.0</ele><time>2026-04-18T08:54:54.074Z</time></trkpt><trkpt lat="44.0403367" lon="11.9990983"><ele>121.0</ele><time>2026-04-18T08:54:55.074Z</time></trkpt><trkpt lat="44.0404167" lon="11.9992317"><ele>121.0</ele><time>2026-04-18T08:54:56.075Z</time></trkpt><trkpt lat="44.040505" lon="11.9993717"><ele>120.75</ele><time>2026-04-18T08:54:57.075Z</time></trkpt><trkpt lat="44.040585" lon="11.9995167"><ele>120.5</ele><time>2026-04-18T08:54:58.075Z</time></trkpt><trkpt lat="44.0406583" lon="11.9996633"><ele>120.25</ele><time>2026-04-18T08:54:59.074Z</time></trkpt><trkpt lat="44.0407417" lon="11.9998167"><ele>120.0</ele><time>2026-04-18T08:55:00.075Z</time></trkpt><trkpt lat="44.04082" lon="11.99998"><ele>120.0</ele><time>2026-04-18T08:55:01.076Z</time></trkpt><trkpt lat="44.0408967" lon="12.000135"><ele>120.0</ele><time>2026-04-18T08:55:02.075Z</time></trkpt><trkpt lat="44.04097" lon="12.00028"><ele>120.0</ele><time>2026-04-18T08:55:03.076Z</time></trkpt><trkpt lat="44.0410383" lon="12.000425"><ele>120.0</ele><time>2026-04-18T08:55:04.076Z</time></trkpt><trkpt lat="44.0411117" lon="12.00057"><ele>120.0</ele><time>2026-04-18T08:55:05.075Z</time></trkpt><trkpt lat="44.0411833" lon="12.0007317"><ele>120.0</ele><time>2026-04-18T08:55:06.076Z</time></trkpt><trkpt lat="44.0412583" lon="12.00089"><ele>120.0</ele><time>2026-04-18T08:55:07.076Z</time></trkpt><trkpt lat="44.041335" lon="12.001055"><ele>120.0</ele><time>2026-04-18T08:55:08.076Z</time></trkpt><trkpt lat="44.0414083" lon="12.0012267"><ele>120.0</ele><time>2026-04-18T08:55:09.076Z</time></trkpt><trkpt lat="44.041485" lon="12.0013717"><ele>120.0</ele><time>2026-04-18T08:55:10.076Z</time></trkpt><trkpt lat="44.0415483" lon="12.001525"><ele>120.0</ele><time>2026-04-18T08:55:11.076Z</time></trkpt><trkpt lat="44.041615" lon="12.0016767"><ele>120.0</ele><time>2026-04-18T08:55:12.075Z</time></trkpt><trkpt lat="44.0416833" lon="12.0018367"><ele>120.0</ele><time>2026-04-18T08:55:13.076Z</time></trkpt><trkpt lat="44.041755" lon="12.0019883"><ele>120.0</ele><time>2026-04-18T08:55:14.076Z</time></trkpt><trkpt lat="44.0418167" lon="12.0021283"><ele>120.0</ele><time>2026-04-18T08:55:15.076Z</time></trkpt><trkpt lat="44.0418733" lon="12.00226"><ele>120.0</ele><time>2026-04-18T08:55:16.076Z</time></trkpt><trkpt lat="44.0419317" lon="12.0023933"><ele>119.5</ele><time>2026-04-18T08:55:17.076Z</time></trkpt><trkpt lat="44.0419917" lon="12.002525"><ele>119.0</ele><time>2026-04-18T08:55:18.075Z</time></trkpt><trkpt lat="44.0420567" lon="12.00267"><ele>118.5</ele><time>2026-04-18T08:55:19.076Z</time></trkpt><trkpt lat="44.04212" lon="12.00281"><ele>118.0</ele><time>2026-04-18T08:55:20.076Z</time></trkpt><trkpt lat="44.0421783" lon="12.0029617"><ele>118.0</ele><time>2026-04-18T08:55:21.075Z</time></trkpt><trkpt lat="44.0422417" lon="12.0031167"><ele>118.0</ele><time>2026-04-18T08:55:22.076Z</time></trkpt><trkpt lat="44.04231" lon="12.0032667"><ele>118.0</ele><time>2026-04-18T08:55:23.076Z</time></trkpt><trkpt lat="44.0423867" lon="12.0034233"><ele>118.0</ele><time>2026-04-18T08:55:24.076Z</time></trkpt><trkpt lat="44.0424567" lon="12.0035817"><ele>118.0</ele><time>2026-04-18T08:55:25.076Z</time></trkpt><trkpt lat="44.0425283" lon="12.00374"><ele>118.0</ele><time>2026-04-18T08:55:26.076Z</time></trkpt><trkpt lat="44.0425917" lon="12.0039017"><ele>118.0</ele><time>2026-04-18T08:55:27.076Z</time></trkpt><trkpt lat="44.0426417" lon="12.0040583"><ele>118.0</ele><time>2026-04-18T08:55:28.076Z</time></trkpt><trkpt lat="44.0426733" lon="12.004215"><ele>117.75</ele><time>2026-04-18T08:55:29.076Z</time></trkpt><trkpt lat="44.0426917" lon="12.0043733"><ele>117.5</ele><time>2026-04-18T08:55:30.076Z</time></trkpt><trkpt lat="44.0427083" lon="12.0045383"><ele>117.25</ele><time>2026-04-18T08:55:31.076Z</time></trkpt><trkpt lat="44.0427267" lon="12.004695"><ele>117.0</ele><time>2026-04-18T08:55:32.076Z</time></trkpt><trkpt lat="44.0427433" lon="12.00486"><ele>117.0</ele><time>2026-04-18T08:55:33.076Z</time></trkpt><trkpt lat="44.042765" lon="12.005035"><ele>117.0</ele><time>2026-04-18T08:55:34.076Z</time></trkpt><trkpt lat="44.0427883" lon="12.005195"><ele>117.0</ele><time>2026-04-18T08:55:35.075Z</time></trkpt><trkpt lat="44.0428183" lon="12.0053533"><ele>117.0</ele><time>2026-04-18T08:55:36.076Z</time></trkpt><trkpt lat="44.0428633" lon="12.0054917"><ele>117.0</ele><time>2026-04-18T08:55:37.076Z</time></trkpt><trkpt lat="44.0429267" lon="12.0056067"><ele>116.99999999999999</ele><time>2026-04-18T08:55:38.075Z</time></trkpt><trkpt lat="44.043" lon="12.0057067"><ele>116.99999999999999</ele><time>2026-04-18T08:55:39.076Z</time></trkpt><trkpt lat="44.0430883" lon="12.0058017"><ele>117.0</ele><time>2026-04-18T08:55:40.076Z</time></trkpt><trkpt lat="44.0431883" lon="12.0058733"><ele>117.0</ele><time>2026-04-18T08:55:41.076Z</time></trkpt><trkpt lat="44.0433033" lon="12.0059267"><ele>117.5</ele><time>2026-04-18T08:55:42.076Z</time></trkpt><trkpt lat="44.043425" lon="12.0059633"><ele>118.0</ele><time>2026-04-18T08:55:43.076Z</time></trkpt><trkpt lat="44.0435533" lon="12.0059817"><ele>118.5</ele><time>2026-04-18T08:55:44.076Z</time></trkpt><trkpt lat="44.0436883" lon="12.0059933"><ele>119.0</ele><time>2026-04-18T08:55:45.075Z</time></trkpt><trkpt lat="44.0438233" lon="12.0060167"><ele>119.0</ele><time>2026-04-18T08:55:46.076Z</time></trkpt><trkpt lat="44.0439567" lon="12.006035"><ele>119.0</ele><time>2026-04-18T08:55:47.075Z</time></trkpt><trkpt lat="44.0440817" lon="12.0060517"><ele>119.0</ele><time>2026-04-18T08:55:48.076Z</time></trkpt><trkpt lat="44.0441917" lon="12.0060783"><ele>119.0</ele><time>2026-04-18T08:55:49.076Z</time></trkpt><trkpt lat="44.044295" lon="12.0061233"><ele>118.4</ele><time>2026-04-18T08:55:50.076Z</time></trkpt><trkpt lat="44.044375" lon="12.006195"><ele>117.80000000000001</ele><time>2026-04-18T08:55:51.075Z</time></trkpt><trkpt lat="44.0444317" lon="12.0062733"><ele>117.19999999999999</ele><time>2026-04-18T08:55:52.076Z</time></trkpt><trkpt lat="44.0444683" lon="12.0063533"><ele>116.6</ele><time>2026-04-18T08:55:53.075Z</time></trkpt><trkpt lat="44.0444867" lon="12.0064917"><ele>116.0</ele><time>2026-04-18T08:55:55.076Z</time></trkpt><trkpt lat="44.0444533" lon="12.0066617"><ele>117.19999999999999</ele><time>2026-04-18T08:55:57.075Z</time></trkpt><trkpt lat="44.0444033" lon="12.0067617"><ele>118.39999999999999</ele><time>2026-04-18T08:55:58.076Z</time></trkpt><trkpt lat="44.0443367" lon="12.0068417"><ele>119.6</ele><time>2026-04-18T08:55:59.076Z</time></trkpt><trkpt lat="44.0442617" lon="12.006915"><ele>120.8</ele><time>2026-04-18T08:56:00.075Z</time></trkpt><trkpt lat="44.0441667" lon="12.0069967"><ele>122.0</ele><time>2026-04-18T08:56:01.076Z</time></trkpt><trkpt lat="44.0440717" lon="12.0070867"><ele>124.25</ele><time>2026-04-18T08:56:02.075Z</time></trkpt><trkpt lat="44.043975" lon="12.007175"><ele>126.5</ele><time>2026-04-18T08:56:03.075Z</time></trkpt><trkpt lat="44.0438683" lon="12.0072567"><ele>128.75</ele><time>2026-04-18T08:56:04.076Z</time></trkpt><trkpt lat="44.0437633" lon="12.0073483"><ele>131.0</ele><time>2026-04-18T08:56:05.075Z</time></trkpt><trkpt lat="44.04366" lon="12.00744"><ele>132.4</ele><time>2026-04-18T08:56:06.076Z</time></trkpt><trkpt lat="44.0435867" lon="12.0075333"><ele>133.8</ele><time>2026-04-18T08:56:07.076Z</time></trkpt><trkpt lat="44.043545" lon="12.007645"><ele>135.20000000000002</ele><time>2026-04-18T08:56:08.076Z</time></trkpt><trkpt lat="44.0435267" lon="12.0077783"><ele>136.6</ele><time>2026-04-18T08:56:09.076Z</time></trkpt><trkpt lat="44.0435283" lon="12.0079133"><ele>138.0</ele><time>2026-04-18T08:56:10.075Z</time></trkpt><trkpt lat="44.0435383" lon="12.0080383"><ele>138.0</ele><time>2026-04-18T08:56:11.076Z</time></trkpt><trkpt lat="44.0435433" lon="12.0081583"><ele>138.0</ele><time>2026-04-18T08:56:12.076Z</time></trkpt><trkpt lat="44.043545" lon="12.0082767"><ele>138.0</ele><time>2026-04-18T08:56:13.076Z</time></trkpt><trkpt lat="44.0435433" lon="12.0084033"><ele>138.0</ele><time>2026-04-18T08:56:14.075Z</time></trkpt><trkpt lat="44.04353" lon="12.0085317"><ele>138.0</ele><time>2026-04-18T08:56:15.076Z</time></trkpt><trkpt lat="44.0435033" lon="12.00867"><ele>138.8</ele><time>2026-04-18T08:56:16.076Z</time></trkpt><trkpt lat="44.04347" lon="12.0088"><ele>139.60000000000002</ele><time>2026-04-18T08:56:17.076Z</time></trkpt><trkpt lat="44.0434183" lon="12.00892"><ele>140.39999999999998</ele><time>2026-04-18T08:56:18.076Z</time></trkpt><trkpt lat="44.0433667" lon="12.009055"><ele>141.2</ele><time>2026-04-18T08:56:19.076Z</time></trkpt><trkpt lat="44.0433133" lon="12.00919"><ele>142.0</ele><time>2026-04-18T08:56:20.076Z</time></trkpt><trkpt lat="44.0432583" lon="12.0093217"><ele>144.0</ele><time>2026-04-18T08:56:21.075Z</time></trkpt><trkpt lat="44.0432033" lon="12.00945"><ele>146.0</ele><time>2026-04-18T08:56:22.075Z</time></trkpt><trkpt lat="44.0431533" lon="12.0095833"><ele>148.0</ele><time>2026-04-18T08:56:23.076Z</time></trkpt><trkpt lat="44.0431033" lon="12.00972"><ele>150.0</ele><time>2026-04-18T08:56:24.075Z</time></trkpt><trkpt lat="44.0430517" lon="12.00984"><ele>152.0</ele><time>2026-04-18T08:56:25.076Z</time></trkpt><trkpt lat="44.0429833" lon="12.00996"><ele>152.0</ele><time>2026-04-18T08:56:26.076Z</time></trkpt><trkpt lat="44.0429033" lon="12.0100183"><ele>152.0</ele><time>2026-04-18T08:56:27.075Z</time></trkpt><trkpt lat="44.042825" lon="12.010015"><ele>152.0</ele><time>2026-04-18T08:56:28.076Z</time></trkpt><trkpt lat="44.0427483" lon="12.0099717"><ele>152.0</ele><time>2026-04-18T08:56:29.076Z</time></trkpt><trkpt lat="44.0426783" lon="12.0099133"><ele>152.0</ele><time>2026-04-18T08:56:30.075Z</time></trkpt><trkpt lat="44.0426117" lon="12.0098767"><ele>152.0</ele><time>2026-04-18T08:56:31.076Z</time></trkpt><trkpt lat="44.0425383" lon="12.009885"><ele>152.0</ele><time>2026-04-18T08:56:32.076Z</time></trkpt><trkpt lat="44.0424817" lon="12.0099483"><ele>152.0</ele><time>2026-04-18T08:56:33.076Z</time></trkpt><trkpt lat="44.0424467" lon="12.010045"><ele>152.0</ele><time>2026-04-18T08:56:34.076Z</time></trkpt><trkpt lat="44.0424383" lon="12.0101617"><ele>152.0</ele><time>2026-04-18T08:56:35.076Z</time></trkpt><trkpt lat="44.0424467" lon="12.010295"><ele>152.0</ele><time>2026-04-18T08:56:36.076Z</time></trkpt><trkpt lat="44.0424583" lon="12.0104233"><ele>152.0</ele><time>2026-04-18T08:56:37.075Z</time></trkpt><trkpt lat="44.042465" lon="12.0105733"><ele>153.75</ele><time>2026-04-18T08:56:38.075Z</time></trkpt><trkpt lat="44.0424633" lon="12.0107317"><ele>155.5</ele><time>2026-04-18T08:56:39.076Z</time></trkpt><trkpt lat="44.04244" lon="12.0108883"><ele>157.25</ele><time>2026-04-18T08:56:40.076Z</time></trkpt><trkpt lat="44.0424067" lon="12.0110583"><ele>159.0</ele><time>2026-04-18T08:56:41.076Z</time></trkpt><trkpt lat="44.04235" lon="12.01119"><ele>162.0</ele><time>2026-04-18T08:56:42.076Z</time></trkpt><trkpt lat="44.0422833" lon="12.0113167"><ele>165.0</ele><time>2026-04-18T08:56:43.075Z</time></trkpt><trkpt lat="44.0422083" lon="12.0114317"><ele>168.0</ele><time>2026-04-18T08:56:44.076Z</time></trkpt><trkpt lat="44.0421233" lon="12.0115417"><ele>171.0</ele><time>2026-04-18T08:56:45.076Z</time></trkpt><trkpt lat="44.042035" lon="12.0116517"><ele>171.75</ele><time>2026-04-18T08:56:46.076Z</time></trkpt><trkpt lat="44.041935" lon="12.0117517"><ele>172.5</ele><time>2026-04-18T08:56:47.076Z</time></trkpt><trkpt lat="44.041835" lon="12.0118483"><ele>173.25</ele><time>2026-04-18T08:56:48.075Z</time></trkpt><trkpt lat="44.0417367" lon="12.0119417"><ele>174.0</ele><time>2026-04-18T08:56:49.076Z</time></trkpt><trkpt lat="44.0416317" lon="12.0120267"><ele>174.0</ele><time>2026-04-18T08:56:50.076Z</time></trkpt><trkpt lat="44.0415283" lon="12.01212"><ele>174.0</ele><time>2026-04-18T08:56:51.076Z</time></trkpt><trkpt lat="44.0414267" lon="12.0122317"><ele>174.0</ele><time>2026-04-18T08:56:52.076Z</time></trkpt><trkpt lat="44.0413267" lon="12.01235"><ele>174.0</ele><time>2026-04-18T08:56:53.075Z</time></trkpt><trkpt lat="44.0412333" lon="12.0124667"><ele>176.2</ele><time>2026-04-18T08:56:54.076Z</time></trkpt><trkpt lat="44.04115" lon="12.012605"><ele>178.39999999999998</ele><time>2026-04-18T08:56:55.075Z</time></trkpt><trkpt lat="44.0410783" lon="12.0127383"><ele>180.6</ele><time>2026-04-18T08:56:56.076Z</time></trkpt><trkpt lat="44.0410183" lon="12.0128517"><ele>182.8</ele><time>2026-04-18T08:56:57.076Z</time></trkpt><trkpt lat="44.0409667" lon="12.0129617"><ele>185.0</ele><time>2026-04-18T08:56:58.076Z</time></trkpt><trkpt lat="44.0409133" lon="12.0130633"><ele>185.0</ele><time>2026-04-18T08:56:59.076Z</time></trkpt><trkpt lat="44.0408617" lon="12.01316"><ele>185.0</ele><time>2026-04-18T08:57:00.076Z</time></trkpt><trkpt lat="44.0408083" lon="12.0132517"><ele>185.0</ele><time>2026-04-18T08:57:01.076Z</time></trkpt><trkpt lat="44.0407517" lon="12.0133583"><ele>185.0</ele><time>2026-04-18T08:57:02.075Z</time></trkpt><trkpt lat="44.0406817" lon="12.0134733"><ele>185.0</ele><time>2026-04-18T08:57:03.076Z</time></trkpt><trkpt lat="44.0406033" lon="12.013585"><ele>186.25</ele><time>2026-04-18T08:57:04.075Z</time></trkpt><trkpt lat="44.0405217" lon="12.0136933"><ele>187.5</ele><time>2026-04-18T08:57:05.076Z</time></trkpt><trkpt lat="44.0404417" lon="12.01381"><ele>188.75</ele><time>2026-04-18T08:57:06.076Z</time></trkpt><trkpt lat="44.0403567" lon="12.0139333"><ele>190.0</ele><time>2026-04-18T08:57:07.076Z</time></trkpt><trkpt lat="44.040275" lon="12.0140733"><ele>192.5</ele><time>2026-04-18T08:57:08.076Z</time></trkpt><trkpt lat="44.0401917" lon="12.0142117"><ele>195.0</ele><time>2026-04-18T08:57:09.075Z</time></trkpt><trkpt lat="44.04011" lon="12.0143633"><ele>197.5</ele><time>2026-04-18T08:57:10.075Z</time></trkpt><trkpt lat="44.0400383" lon="12.0145233"><ele>200.0</ele><time>2026-04-18T08:57:11.076Z</time></trkpt><trkpt lat="44.0399733" lon="12.0146983"><ele>198.75</ele><time>2026-04-18T08:57:12.076Z</time></trkpt><trkpt lat="44.03991" lon="12.014875"><ele>197.5</ele><time>2026-04-18T08:57:13.076Z</time></trkpt><trkpt lat="44.0398517" lon="12.0150567"><ele>196.25</ele><time>2026-04-18T08:57:14.076Z</time></trkpt><trkpt lat="44.0397967" lon="12.0152433"><ele>195.0</ele><time>2026-04-18T08:57:15.076Z</time></trkpt><trkpt lat="44.0397467" lon="12.0154267"><ele>199.33333333333331</ele><time>2026-04-18T08:57:16.075Z</time></trkpt><trkpt lat="44.03969" lon="12.0156317"><ele>203.66666666666666</ele><time>2026-04-18T08:57:17.075Z</time></trkpt><trkpt lat="44.0396383" lon="12.0158417"><ele>208.0</ele><time>2026-04-18T08:57:18.076Z</time></trkpt><trkpt lat="44.0395867" lon="12.016035"><ele>212.0</ele><time>2026-04-18T08:57:19.076Z</time></trkpt><trkpt lat="44.0395233" lon="12.0162333"><ele>216.0</ele><time>2026-04-18T08:57:20.075Z</time></trkpt><trkpt lat="44.039445" lon="12.0164167"><ele>220.0</ele><time>2026-04-18T08:57:21.076Z</time></trkpt><trkpt lat="44.039355" lon="12.0165883"><ele>222.0</ele><time>2026-04-18T08:57:22.076Z</time></trkpt><trkpt lat="44.0392583" lon="12.0167567"><ele>224.0</ele><time>2026-04-18T08:57:23.076Z</time></trkpt><trkpt lat="44.03915" lon="12.0169233"><ele>226.0</ele><time>2026-04-18T08:57:24.076Z</time></trkpt><trkpt lat="44.039035" lon="12.0171"><ele>229.33333333333331</ele><time>2026-04-18T08:57:25.075Z</time></trkpt><trkpt lat="44.0389033" lon="12.0172783"><ele>232.66666666666669</ele><time>2026-04-18T08:57:26.076Z</time></trkpt><trkpt lat="44.0387717" lon="12.017445"><ele>236.0</ele><time>2026-04-18T08:57:27.076Z</time></trkpt><trkpt lat="44.038665" lon="12.0175883"><ele>237.5</ele><time>2026-04-18T08:57:28.076Z</time></trkpt><trkpt lat="44.0385467" lon="12.017715"><ele>239.0</ele><time>2026-04-18T08:57:29.076Z</time></trkpt><trkpt lat="44.0384133" lon="12.0178117"><ele>240.5</ele><time>2026-04-18T08:57:30.076Z</time></trkpt><trkpt lat="44.0382717" lon="12.01787"><ele>242.0</ele><time>2026-04-18T08:57:31.076Z</time></trkpt><trkpt lat="44.0381133" lon="12.0178933"><ele>245.33333333333334</ele><time>2026-04-18T08:57:32.076Z</time></trkpt><trkpt lat="44.0379583" lon="12.0178767"><ele>248.66666666666669</ele><time>2026-04-18T08:57:33.075Z</time></trkpt><trkpt lat="44.0378083" lon="12.0178417"><ele>252.0</ele><time>2026-04-18T08:57:34.075Z</time></trkpt><trkpt lat="44.037655" lon="12.0177983"><ele>252.0</ele><time>2026-04-18T08:57:35.076Z</time></trkpt><trkpt lat="44.0375217" lon="12.01778"><ele>252.0</ele><time>2026-04-18T08:57:36.076Z</time></trkpt><trkpt lat="44.0373883" lon="12.0177933"><ele>252.0</ele><time>2026-04-18T08:57:37.076Z</time></trkpt><trkpt lat="44.0372767" lon="12.0178333"><ele>252.0</ele><time>2026-04-18T08:57:38.076Z</time></trkpt><trkpt lat="44.0371633" lon="12.0179017"><ele>255.0</ele><time>2026-04-18T08:57:39.076Z</time></trkpt><trkpt lat="44.0370617" lon="12.018015"><ele>258.0</ele><time>2026-04-18T08:57:40.076Z</time></trkpt><trkpt lat="44.036955" lon="12.018155"><ele>261.0</ele><time>2026-04-18T08:57:41.076Z</time></trkpt><trkpt lat="44.036855" lon="12.018295"><ele>264.0</ele><time>2026-04-18T08:57:42.076Z</time></trkpt><trkpt lat="44.0367433" lon="12.0184417"><ele>270.5</ele><time>2026-04-18T08:57:43.076Z</time></trkpt><trkpt lat="44.036625" lon="12.0185883"><ele>277.0</ele><time>2026-04-18T08:57:44.075Z</time></trkpt><trkpt lat="44.0365067" lon="12.0187267"><ele>283.5</ele><time>2026-04-18T08:57:45.076Z</time></trkpt><trkpt lat="44.0364083" lon="12.0188567"><ele>290.0</ele><time>2026-04-18T08:57:46.076Z</time></trkpt><trkpt lat="44.0362967" lon="12.0189917"><ele>290.0</ele><time>2026-04-18T08:57:47.076Z</time></trkpt><trkpt lat="44.0361833" lon="12.0191217"><ele>290.0</ele><time>2026-04-18T08:57:48.076Z</time></trkpt><trkpt lat="44.0360717" lon="12.019245"><ele>290.0</ele><time>2026-04-18T08:57:49.076Z</time></trkpt><trkpt lat="44.0359583" lon="12.01938"><ele>290.0</ele><time>2026-04-18T08:57:50.076Z</time></trkpt><trkpt lat="44.0358433" lon="12.0194967"><ele>294.75</ele><time>2026-04-18T08:57:51.076Z</time></trkpt><trkpt lat="44.0357283" lon="12.01961"><ele>299.5</ele><time>2026-04-18T08:57:52.076Z</time></trkpt><trkpt lat="44.035605" lon="12.0197233"><ele>304.25</ele><time>2026-04-18T08:57:53.076Z</time></trkpt><trkpt lat="44.0354783" lon="12.0198283"><ele>309.0</ele><time>2026-04-18T08:57:54.076Z</time></trkpt><trkpt lat="44.0353433" lon="12.0199467"><ele>307.6666666666667</ele><time>2026-04-18T08:57:55.076Z</time></trkpt><trkpt lat="44.0352133" lon="12.0200783"><ele>306.33333333333337</ele><time>2026-04-18T08:57:56.076Z</time></trkpt><trkpt lat="44.035095" lon="12.020225"><ele>305.0</ele><time>2026-04-18T08:57:57.076Z</time></trkpt><trkpt lat="44.035005" lon="12.0203833"><ele>305.0</ele><time>2026-04-18T08:57:58.076Z</time></trkpt><trkpt lat="44.0349567" lon="12.0205517"><ele>305.0</ele><time>2026-04-18T08:57:59.076Z</time></trkpt><trkpt lat="44.034945" lon="12.020715"><ele>305.0</ele><time>2026-04-18T08:58:00.076Z</time></trkpt><trkpt lat="44.0349567" lon="12.02089"><ele>305.0</ele><time>2026-04-18T08:58:01.075Z</time></trkpt><trkpt lat="44.0349867" lon="12.021075"><ele>304.5</ele><time>2026-04-18T08:58:02.076Z</time></trkpt><trkpt lat="44.0350333" lon="12.0212417"><ele>304.0</ele><time>2026-04-18T08:58:03.076Z</time></trkpt><trkpt lat="44.035095" lon="12.0214033"><ele>303.5</ele><time>2026-04-18T08:58:04.076Z</time></trkpt><trkpt lat="44.035165" lon="12.0215767"><ele>303.0</ele><time>2026-04-18T08:58:05.076Z</time></trkpt><trkpt lat="44.0352333" lon="12.02174"><ele>303.0</ele><time>2026-04-18T08:58:06.076Z</time></trkpt><trkpt lat="44.0353033" lon="12.0218983"><ele>303.0</ele><time>2026-04-18T08:58:07.075Z</time></trkpt><trkpt lat="44.0353733" lon="12.0220483"><ele>303.0</ele><time>2026-04-18T08:58:08.076Z</time></trkpt><trkpt lat="44.0354367" lon="12.02222"><ele>303.0</ele><time>2026-04-18T08:58:09.076Z</time></trkpt><trkpt lat="44.03548" lon="12.022405"><ele>303.0</ele><time>2026-04-18T08:58:10.076Z</time></trkpt><trkpt lat="44.0355067" lon="12.0225933"><ele>303.0</ele><time>2026-04-18T08:58:11.075Z</time></trkpt><trkpt lat="44.0355033" lon="12.022765"><ele>303.0</ele><time>2026-04-18T08:58:12.075Z</time></trkpt><trkpt lat="44.0354783" lon="12.0229367"><ele>303.0</ele><time>2026-04-18T08:58:13.076Z</time></trkpt><trkpt lat="44.0354467" lon="12.0231167"><ele>303.0</ele><time>2026-04-18T08:58:14.076Z</time></trkpt><trkpt lat="44.0354" lon="12.02327"><ele>303.0</ele><time>2026-04-18T08:58:15.075Z</time></trkpt><trkpt lat="44.0353567" lon="12.023415"><ele>303.0</ele><time>2026-04-18T08:58:16.076Z</time></trkpt><trkpt lat="44.0353183" lon="12.0235617"><ele>303.0</ele><time>2026-04-18T08:58:17.075Z</time></trkpt><trkpt lat="44.0352817" lon="12.0237133"><ele>301.5</ele><time>2026-04-18T08:58:18.076Z</time></trkpt><trkpt lat="44.0352467" lon="12.0238683"><ele>300.0</ele><time>2026-04-18T08:58:19.076Z</time></trkpt><trkpt lat="44.035215" lon="12.024025"><ele>298.5</ele><time>2026-04-18T08:58:20.076Z</time></trkpt><trkpt lat="44.03518" lon="12.0241917"><ele>297.0</ele><time>2026-04-18T08:58:21.076Z</time></trkpt><trkpt lat="44.03515" lon="12.02435"><ele>295.0</ele><time>2026-04-18T08:58:22.075Z</time></trkpt><trkpt lat="44.035125" lon="12.02451"><ele>293.0</ele><time>2026-04-18T08:58:23.076Z</time></trkpt><trkpt lat="44.0351017" lon="12.0246683"><ele>291.0</ele><time>2026-04-18T08:58:24.076Z</time></trkpt><trkpt lat="44.035075" lon="12.0248333"><ele>289.0</ele><time>2026-04-18T08:58:25.076Z</time></trkpt><trkpt lat="44.035055" lon="12.0249767"><ele>288.16666666666663</ele><time>2026-04-18T08:58:26.076Z</time></trkpt><trkpt lat="44.0350383" lon="12.0250967"><ele>287.3333333333333</ele><time>2026-04-18T08:58:27.076Z</time></trkpt><trkpt lat="44.0350267" lon="12.025205"><ele>286.5</ele><time>2026-04-18T08:58:28.076Z</time></trkpt><trkpt lat="44.0350117" lon="12.0252917"><ele>285.6666666666667</ele><time>2026-04-18T08:58:29.076Z</time></trkpt><trkpt lat="44.0349717" lon="12.02542"><ele>284.83333333333337</ele><time>2026-04-18T08:58:31.076Z</time></trkpt><trkpt lat="44.034895" lon="12.025435"><ele>284.0</ele><time>2026-04-18T08:58:33.075Z</time></trkpt><trkpt lat="44.0347917" lon="12.02533"><ele>281.59999999999997</ele><time>2026-04-18T08:58:35.075Z</time></trkpt><trkpt lat="44.03473" lon="12.0252333"><ele>279.2</ele><time>2026-04-18T08:58:36.076Z</time></trkpt><trkpt lat="44.03467" lon="12.025125"><ele>276.79999999999995</ele><time>2026-04-18T08:58:37.076Z</time></trkpt><trkpt lat="44.0345933" lon="12.02501"><ele>274.4</ele><time>2026-04-18T08:58:38.076Z</time></trkpt><trkpt lat="44.034525" lon="12.0248917"><ele>272.0</ele><time>2026-04-18T08:58:39.076Z</time></trkpt><trkpt lat="44.0344517" lon="12.0247717"><ele>272.0</ele><time>2026-04-18T08:58:40.075Z</time></trkpt><trkpt lat="44.0343783" lon="12.0246617"><ele>272.0</ele><time>2026-04-18T08:58:41.076Z</time></trkpt><trkpt lat="44.0343067" lon="12.024565"><ele>272.0</ele><time>2026-04-18T08:58:42.076Z</time></trkpt><trkpt lat="44.0342383" lon="12.0244767"><ele>272.0</ele><time>2026-04-18T08:58:43.075Z</time></trkpt><trkpt lat="44.03417" lon="12.0243867"><ele>272.0</ele><time>2026-04-18T08:58:44.076Z</time></trkpt><trkpt lat="44.0341017" lon="12.0242883"><ele>271.0</ele><time>2026-04-18T08:58:45.076Z</time></trkpt><trkpt lat="44.03404" lon="12.024185"><ele>270.0</ele><time>2026-04-18T08:58:46.076Z</time></trkpt><trkpt lat="44.0339817" lon="12.0240867"><ele>269.0</ele><time>2026-04-18T08:58:47.076Z</time></trkpt><trkpt lat="44.03392" lon="12.023985"><ele>268.0</ele><time>2026-04-18T08:58:48.076Z</time></trkpt><trkpt lat="44.0338517" lon="12.02388"><ele>267.0</ele><time>2026-04-18T08:58:49.076Z</time></trkpt><trkpt lat="44.0337767" lon="12.0237833"><ele>267.0</ele><time>2026-04-18T08:58:50.076Z</time></trkpt><trkpt lat="44.0337" lon="12.023685"><ele>267.0</ele><time>2026-04-18T08:58:51.076Z</time></trkpt><trkpt lat="44.0336233" lon="12.0235867"><ele>267.0</ele><time>2026-04-18T08:58:52.076Z</time></trkpt><trkpt lat="44.0335583" lon="12.0234783"><ele>267.0</ele><time>2026-04-18T08:58:53.075Z</time></trkpt><trkpt lat="44.0335067" lon="12.0233633"><ele>267.0</ele><time>2026-04-18T08:58:54.075Z</time></trkpt><trkpt lat="44.0334633" lon="12.0232383"><ele>265.8</ele><time>2026-04-18T08:58:55.075Z</time></trkpt><trkpt lat="44.0334233" lon="12.0231017"><ele>264.6</ele><time>2026-04-18T08:58:56.076Z</time></trkpt><trkpt lat="44.033385" lon="12.0229633"><ele>263.40000000000003</ele><time>2026-04-18T08:58:57.076Z</time></trkpt><trkpt lat="44.03333" lon="12.0228317"><ele>262.2</ele><time>2026-04-18T08:58:58.076Z</time></trkpt><trkpt lat="44.0332667" lon="12.02271"><ele>261.0</ele><time>2026-04-18T08:58:59.076Z</time></trkpt><trkpt lat="44.0331833" lon="12.0226067"><ele>261.0</ele><time>2026-04-18T08:59:00.075Z</time></trkpt><trkpt lat="44.0330867" lon="12.0225383"><ele>261.0</ele><time>2026-04-18T08:59:01.076Z</time></trkpt><trkpt lat="44.0329817" lon="12.022485"><ele>261.0</ele><time>2026-04-18T08:59:02.076Z</time></trkpt><trkpt lat="44.0328767" lon="12.022425"><ele>261.0</ele><time>2026-04-18T08:59:03.076Z</time></trkpt><trkpt lat="44.03278" lon="12.0223483"><ele>261.0</ele><time>2026-04-18T08:59:04.076Z</time></trkpt><trkpt lat="44.0326817" lon="12.0222667"><ele>259.5</ele><time>2026-04-18T08:59:05.076Z</time></trkpt><trkpt lat="44.0325867" lon="12.0221567"><ele>258.0</ele><time>2026-04-18T08:59:06.076Z</time></trkpt><trkpt lat="44.032495" lon="12.02205"><ele>256.5</ele><time>2026-04-18T08:59:07.075Z</time></trkpt><trkpt lat="44.0323933" lon="12.0219267"><ele>255.0</ele><time>2026-04-18T08:59:08.076Z</time></trkpt><trkpt lat="44.0322917" lon="12.0218067"><ele>255.0</ele><time>2026-04-18T08:59:09.076Z</time></trkpt><trkpt lat="44.0321883" lon="12.02169"><ele>255.0</ele><time>2026-04-18T08:59:10.076Z</time></trkpt><trkpt lat="44.0320883" lon="12.0215883"><ele>255.0</ele><time>2026-04-18T08:59:11.076Z</time></trkpt><trkpt lat="44.031985" lon="12.0215"><ele>255.0</ele><time>2026-04-18T08:59:12.075Z</time></trkpt><trkpt lat="44.031885" lon="12.0214317"><ele>256.5</ele><time>2026-04-18T08:59:13.076Z</time></trkpt><trkpt lat="44.0317867" lon="12.0213917"><ele>258.0</ele><time>2026-04-18T08:59:14.076Z</time></trkpt><trkpt lat="44.03167" lon="12.0213767"><ele>259.5</ele><time>2026-04-18T08:59:15.075Z</time></trkpt><trkpt lat="44.0315367" lon="12.0213967"><ele>261.0</ele><time>2026-04-18T08:59:16.076Z</time></trkpt><trkpt lat="44.03141" lon="12.021415"><ele>261.0</ele><time>2026-04-18T08:59:17.075Z</time></trkpt><trkpt lat="44.0312983" lon="12.0214367"><ele>261.0</ele><time>2026-04-18T08:59:18.076Z</time></trkpt><trkpt lat="44.0311933" lon="12.02143"><ele>261.0</ele><time>2026-04-18T08:59:19.076Z</time></trkpt><trkpt lat="44.0310917" lon="12.021415"><ele>261.0</ele><time>2026-04-18T08:59:20.075Z</time></trkpt><trkpt lat="44.0310017" lon="12.0213817"><ele>261.0</ele><time>2026-04-18T08:59:21.075Z</time></trkpt><trkpt lat="44.0309067" lon="12.02131"><ele>261.0</ele><time>2026-04-18T08:59:22.076Z</time></trkpt><trkpt lat="44.0308133" lon="12.0211967"><ele>261.0</ele><time>2026-04-18T08:59:23.076Z</time></trkpt><trkpt lat="44.0307367" lon="12.0210517"><ele>261.0</ele><time>2026-04-18T08:59:24.076Z</time></trkpt><trkpt lat="44.03066" lon="12.02091"><ele>261.0</ele><time>2026-04-18T08:59:25.076Z</time></trkpt><trkpt lat="44.030585" lon="12.020805"><ele>262.0</ele><time>2026-04-18T08:59:26.076Z</time></trkpt><trkpt lat="44.0304983" lon="12.020725"><ele>263.0</ele><time>2026-04-18T08:59:27.076Z</time></trkpt><trkpt lat="44.0304017" lon="12.020675"><ele>264.0</ele><time>2026-04-18T08:59:28.076Z</time></trkpt><trkpt lat="44.0303083" lon="12.0206433"><ele>265.0</ele><time>2026-04-18T08:59:29.076Z</time></trkpt><trkpt lat="44.0302" lon="12.0206117"><ele>266.0</ele><time>2026-04-18T08:59:30.076Z</time></trkpt><trkpt lat="44.0300817" lon="12.020595"><ele>265.0</ele><time>2026-04-18T08:59:31.076Z</time></trkpt><trkpt lat="44.029965" lon="12.0205583"><ele>264.0</ele><time>2026-04-18T08:59:32.076Z</time></trkpt><trkpt lat="44.029845" lon="12.0205183"><ele>263.0</ele><time>2026-04-18T08:59:33.076Z</time></trkpt><trkpt lat="44.0297217" lon="12.02047"><ele>262.0</ele><time>2026-04-18T08:59:34.075Z</time></trkpt><trkpt lat="44.0296" lon="12.0204267"><ele>262.0</ele><time>2026-04-18T08:59:35.076Z</time></trkpt><trkpt lat="44.029475" lon="12.0203783"><ele>262.0</ele><time>2026-04-18T08:59:36.076Z</time></trkpt><trkpt lat="44.02934" lon="12.02033"><ele>262.0</ele><time>2026-04-18T08:59:37.076Z</time></trkpt><trkpt lat="44.0292033" lon="12.0202867"><ele>262.0</ele><time>2026-04-18T08:59:38.076Z</time></trkpt><trkpt lat="44.029065" lon="12.02025"><ele>262.75</ele><time>2026-04-18T08:59:39.076Z</time></trkpt><trkpt lat="44.028925" lon="12.0201967"><ele>263.5</ele><time>2026-04-18T08:59:40.076Z</time></trkpt><trkpt lat="44.0287933" lon="12.0201183"><ele>264.25</ele><time>2026-04-18T08:59:41.076Z</time></trkpt><trkpt lat="44.0286583" lon="12.0200233"><ele>265.0</ele><time>2026-04-18T08:59:42.076Z</time></trkpt><trkpt lat="44.0285417" lon="12.01991"><ele>265.5</ele><time>2026-04-18T08:59:43.076Z</time></trkpt><trkpt lat="44.0284483" lon="12.0197883"><ele>266.0</ele><time>2026-04-18T08:59:44.076Z</time></trkpt><trkpt lat="44.0283733" lon="12.0196617"><ele>266.5</ele><time>2026-04-18T08:59:45.075Z</time></trkpt><trkpt lat="44.0283367" lon="12.0195267"><ele>267.0</ele><time>2026-04-18T08:59:46.076Z</time></trkpt><trkpt lat="44.0283283" lon="12.019375"><ele>267.0</ele><time>2026-04-18T08:59:47.076Z</time></trkpt><trkpt lat="44.0283433" lon="12.0192183"><ele>267.0</ele><time>2026-04-18T08:59:48.076Z</time></trkpt><trkpt lat="44.0283517" lon="12.0190533"><ele>267.0</ele><time>2026-04-18T08:59:49.076Z</time></trkpt><trkpt lat="44.028335" lon="12.01891"><ele>267.0</ele><time>2026-04-18T08:59:50.076Z</time></trkpt><trkpt lat="44.0282933" lon="12.01878"><ele>267.0</ele><time>2026-04-18T08:59:51.076Z</time></trkpt><trkpt lat="44.0282217" lon="12.0186683"><ele>268.6</ele><time>2026-04-18T08:59:52.076Z</time></trkpt><trkpt lat="44.028135" lon="12.0185867"><ele>270.2</ele><time>2026-04-18T08:59:53.076Z</time></trkpt><trkpt lat="44.02803" lon="12.0185333"><ele>271.8</ele><time>2026-04-18T08:59:54.076Z</time></trkpt><trkpt lat="44.0279283" lon="12.018495"><ele>273.4</ele><time>2026-04-18T08:59:55.076Z</time></trkpt><trkpt lat="44.0278233" lon="12.0184783"><ele>275.0</ele><time>2026-04-18T08:59:56.076Z</time></trkpt><trkpt lat="44.0277233" lon="12.0184333"><ele>275.0</ele><time>2026-04-18T08:59:57.076Z</time></trkpt><trkpt lat="44.0276183" lon="12.0183567"><ele>275.0</ele><time>2026-04-18T08:59:58.075Z</time></trkpt><trkpt lat="44.0275017" lon="12.0182783"><ele>275.0</ele><time>2026-04-18T08:59:59.075Z</time></trkpt><trkpt lat="44.0273933" lon="12.0181933"><ele>275.0</ele><time>2026-04-18T09:00:00.076Z</time></trkpt><trkpt lat="44.027285" lon="12.0181067"><ele>274.25</ele><time>2026-04-18T09:00:01.076Z</time></trkpt><trkpt lat="44.0271783" lon="12.01802"><ele>273.5</ele><time>2026-04-18T09:00:02.076Z</time></trkpt><trkpt lat="44.0270667" lon="12.0179383"><ele>272.75</ele><time>2026-04-18T09:00:03.076Z</time></trkpt><trkpt lat="44.0269583" lon="12.0178583"><ele>272.0</ele><time>2026-04-18T09:00:04.076Z</time></trkpt><trkpt lat="44.0268483" lon="12.0177783"><ele>272.0</ele><time>2026-04-18T09:00:05.076Z</time></trkpt><trkpt lat="44.0267433" lon="12.017695"><ele>272.0</ele><time>2026-04-18T09:00:06.076Z</time></trkpt><trkpt lat="44.0266417" lon="12.0176067"><ele>272.0</ele><time>2026-04-18T09:00:07.076Z</time></trkpt><trkpt lat="44.0265433" lon="12.01752"><ele>272.0</ele><time>2026-04-18T09:00:08.076Z</time></trkpt><trkpt lat="44.0264567" lon="12.0174317"><ele>272.5</ele><time>2026-04-18T09:00:09.075Z</time></trkpt><trkpt lat="44.0263833" lon="12.0173233"><ele>273.0</ele><time>2026-04-18T09:00:10.076Z</time></trkpt><trkpt lat="44.026315" lon="12.0172117"><ele>273.5</ele><time>2026-04-18T09:00:11.075Z</time></trkpt><trkpt lat="44.0262367" lon="12.01708"><ele>274.0</ele><time>2026-04-18T09:00:12.076Z</time></trkpt><trkpt lat="44.0261583" lon="12.01696"><ele>274.0</ele><time>2026-04-18T09:00:13.075Z</time></trkpt><trkpt lat="44.0260867" lon="12.0168517"><ele>274.0</ele><time>2026-04-18T09:00:14.076Z</time></trkpt><trkpt lat="44.0260033" lon="12.0167483"><ele>274.0</ele><time>2026-04-18T09:00:15.076Z</time></trkpt><trkpt lat="44.0259317" lon="12.016635"><ele>274.0</ele><time>2026-04-18T09:00:16.076Z</time></trkpt><trkpt lat="44.0258667" lon="12.01652"><ele>274.0</ele><time>2026-04-18T09:00:17.076Z</time></trkpt><trkpt lat="44.0258033" lon="12.0164183"><ele>274.66666666666663</ele><time>2026-04-18T09:00:18.075Z</time></trkpt><trkpt lat="44.0257383" lon="12.0163267"><ele>275.3333333333333</ele><time>2026-04-18T09:00:19.076Z</time></trkpt><trkpt lat="44.0256883" lon="12.0162517"><ele>276.0</ele><time>2026-04-18T09:00:20.076Z</time></trkpt><trkpt lat="44.0256133" lon="12.0161417"><ele>276.6666666666667</ele><time>2026-04-18T09:00:22.076Z</time></trkpt><trkpt lat="44.025565" lon="12.0160767"><ele>277.33333333333337</ele><time>2026-04-18T09:00:24.076Z</time></trkpt><trkpt lat="44.0255" lon="12.0160167"><ele>278.0</ele><time>2026-04-18T09:00:27.076Z</time></trkpt><trkpt lat="44.0254067" lon="12.0159867"><ele>278.0</ele><time>2026-04-18T09:02:28.077Z</time></trkpt><trkpt lat="44.0253" lon="12.015965"><ele>278.0</ele><time>2026-04-18T09:02:30.077Z</time></trkpt><trkpt lat="44.025205" lon="12.0159467"><ele>278.0</ele><time>2026-04-18T09:02:31.077Z</time></trkpt><trkpt lat="44.0250817" lon="12.0159317"><ele>278.0</ele><time>2026-04-18T09:02:32.077Z</time></trkpt><trkpt lat="44.02491" lon="12.0159183"><ele>279.33333333333337</ele><time>2026-04-18T09:02:33.077Z</time></trkpt><trkpt lat="44.02473" lon="12.0158833"><ele>280.6666666666667</ele><time>2026-04-18T09:02:34.077Z</time></trkpt><trkpt lat="44.02458" lon="12.015835"><ele>282.0</ele><time>2026-04-18T09:02:35.077Z</time></trkpt><trkpt lat="44.0244467" lon="12.01577"><ele>282.4</ele><time>2026-04-18T09:02:36.076Z</time></trkpt><trkpt lat="44.024335" lon="12.01569"><ele>282.79999999999995</ele><time>2026-04-18T09:02:37.077Z</time></trkpt><trkpt lat="44.0242383" lon="12.0156167"><ele>283.2</ele><time>2026-04-18T09:02:38.077Z</time></trkpt><trkpt lat="44.0241433" lon="12.0155517"><ele>283.59999999999997</ele><time>2026-04-18T09:02:39.077Z</time></trkpt><trkpt lat="44.024055" lon="12.01549"><ele>284.0</ele><time>2026-04-18T09:02:40.077Z</time></trkpt><trkpt lat="44.023965" lon="12.0154267"><ele>286.59999999999997</ele><time>2026-04-18T09:02:41.077Z</time></trkpt><trkpt lat="44.02388" lon="12.01538"><ele>289.2</ele><time>2026-04-18T09:02:42.077Z</time></trkpt><trkpt lat="44.023785" lon="12.0153433"><ele>291.79999999999995</ele><time>2026-04-18T09:02:43.076Z</time></trkpt><trkpt lat="44.0236933" lon="12.0153"><ele>294.4</ele><time>2026-04-18T09:02:44.077Z</time></trkpt><trkpt lat="44.023605" lon="12.0152383"><ele>297.0</ele><time>2026-04-18T09:02:45.077Z</time></trkpt><trkpt lat="44.0235283" lon="12.0151633"><ele>297.0</ele><time>2026-04-18T09:02:46.077Z</time></trkpt><trkpt lat="44.02346" lon="12.0150817"><ele>297.0</ele><time>2026-04-18T09:02:47.077Z</time></trkpt><trkpt lat="44.0234033" lon="12.0150033"><ele>297.0</ele><time>2026-04-18T09:02:48.077Z</time></trkpt><trkpt lat="44.023345" lon="12.014925"><ele>297.0</ele><time>2026-04-18T09:02:49.076Z</time></trkpt><trkpt lat="44.0232833" lon="12.0148583"><ele>297.0</ele><time>2026-04-18T09:02:50.076Z</time></trkpt><trkpt lat="44.023225" lon="12.0148033"><ele>297.0</ele><time>2026-04-18T09:02:51.077Z</time></trkpt><trkpt lat="44.0231433" lon="12.014755"><ele>297.0</ele><time>2026-04-18T09:02:52.077Z</time></trkpt><trkpt lat="44.0230633" lon="12.0147983"><ele>297.0</ele><time>2026-04-18T09:02:54.077Z</time></trkpt><trkpt lat="44.023055" lon="12.0149017"><ele>297.0</ele><time>2026-04-18T09:02:57.077Z</time></trkpt><trkpt lat="44.0231167" lon="12.0150183"><ele>297.0</ele><time>2026-04-18T09:02:59.077Z</time></trkpt><trkpt lat="44.02315" lon="12.0151483"><ele>297.0</ele><time>2026-04-18T09:03:01.076Z</time></trkpt><trkpt lat="44.0231583" lon="12.0152617"><ele>297.0</ele><time>2026-04-18T09:03:03.077Z</time></trkpt><trkpt lat="44.0230967" lon="12.0151967"><ele>299.1666666666667</ele><time>2026-04-18T09:03:05.077Z</time></trkpt><trkpt lat="44.0230283" lon="12.01514"><ele>301.3333333333333</ele><time>2026-04-18T09:03:06.077Z</time></trkpt><trkpt lat="44.0229483" lon="12.0151"><ele>303.5</ele><time>2026-04-18T09:03:07.077Z</time></trkpt><trkpt lat="44.0228617" lon="12.0150717"><ele>305.66666666666663</ele><time>2026-04-18T09:03:08.077Z</time></trkpt><trkpt lat="44.0227733" lon="12.0150533"><ele>307.8333333333333</ele><time>2026-04-18T09:03:09.077Z</time></trkpt><trkpt lat="44.0226883" lon="12.0150467"><ele>310.0</ele><time>2026-04-18T09:03:10.077Z</time></trkpt><trkpt lat="44.0226017" lon="12.015065"><ele>310.0</ele><time>2026-04-18T09:03:11.077Z</time></trkpt><trkpt lat="44.0225283" lon="12.0151067"><ele>310.0</ele><time>2026-04-18T09:03:12.076Z</time></trkpt><trkpt lat="44.0224567" lon="12.0151633"><ele>310.0</ele><time>2026-04-18T09:03:13.077Z</time></trkpt><trkpt lat="44.0223883" lon="12.0152167"><ele>310.0</ele><time>2026-04-18T09:03:14.077Z</time></trkpt><trkpt lat="44.0223217" lon="12.0152683"><ele>310.0</ele><time>2026-04-18T09:03:15.077Z</time></trkpt><trkpt lat="44.02227" lon="12.015325"><ele>310.0</ele><time>2026-04-18T09:03:16.077Z</time></trkpt><trkpt lat="44.0222067" lon="12.0153867"><ele>312.0</ele><time>2026-04-18T09:03:17.077Z</time></trkpt><trkpt lat="44.0221417" lon="12.01544"><ele>314.0</ele><time>2026-04-18T09:03:18.077Z</time></trkpt><trkpt lat="44.0220733" lon="12.0154917"><ele>316.0</ele><time>2026-04-18T09:03:19.077Z</time></trkpt><trkpt lat="44.022" lon="12.0155567"><ele>318.0</ele><time>2026-04-18T09:03:20.076Z</time></trkpt><trkpt lat="44.0219433" lon="12.01561"><ele>320.0</ele><time>2026-04-18T09:03:21.076Z</time></trkpt><trkpt lat="44.0218767" lon="12.0157117"><ele>322.0</ele><time>2026-04-18T09:03:23.077Z</time></trkpt><trkpt lat="44.0218833" lon="12.0158167"><ele>322.0</ele><time>2026-04-18T09:03:25.076Z</time></trkpt><trkpt lat="44.0219583" lon="12.0158433"><ele>322.0</ele><time>2026-04-18T09:03:27.077Z</time></trkpt><trkpt lat="44.0220817" lon="12.0157867"><ele>322.0</ele><time>2026-04-18T09:03:29.077Z</time></trkpt><trkpt lat="44.0221533" lon="12.0157483"><ele>322.0</ele><time>2026-04-18T09:03:30.077Z</time></trkpt><trkpt lat="44.0222333" lon="12.0157283"><ele>322.0</ele><time>2026-04-18T09:03:31.077Z</time></trkpt><trkpt lat="44.02232" lon="12.0157217"><ele>322.0</ele><time>2026-04-18T09:03:32.076Z</time></trkpt><trkpt lat="44.0223967" lon="12.0157133"><ele>322.0</ele><time>2026-04-18T09:03:33.077Z</time></trkpt><trkpt lat="44.0224717" lon="12.015725"><ele>322.0</ele><time>2026-04-18T09:03:34.077Z</time></trkpt><trkpt lat="44.022565" lon="12.0157717"><ele>322.0</ele><time>2026-04-18T09:03:36.077Z</time></trkpt><trkpt lat="44.0225917" lon="12.0158833"><ele>322.0</ele><time>2026-04-18T09:03:38.077Z</time></trkpt><trkpt lat="44.0225583" lon="12.0159783"><ele>322.0</ele><time>2026-04-18T09:03:39.077Z</time></trkpt><trkpt lat="44.02251" lon="12.016065"><ele>324.66666666666663</ele><time>2026-04-18T09:03:40.076Z</time></trkpt><trkpt lat="44.0224583" lon="12.0161583"><ele>327.3333333333333</ele><time>2026-04-18T09:03:41.077Z</time></trkpt><trkpt lat="44.02241" lon="12.0162467"><ele>330.0</ele><time>2026-04-18T09:03:42.077Z</time></trkpt><trkpt lat="44.0223683" lon="12.0163433"><ele>332.6666666666667</ele><time>2026-04-18T09:03:43.077Z</time></trkpt><trkpt lat="44.0223283" lon="12.0164417"><ele>335.33333333333337</ele><time>2026-04-18T09:03:44.077Z</time></trkpt><trkpt lat="44.0222917" lon="12.01654"><ele>338.0</ele><time>2026-04-18T09:03:45.076Z</time></trkpt><trkpt lat="44.0222633" lon="12.0166367"><ele>342.33333333333337</ele><time>2026-04-18T09:03:46.077Z</time></trkpt><trkpt lat="44.022235" lon="12.016735"><ele>346.6666666666667</ele><time>2026-04-18T09:03:47.077Z</time></trkpt><trkpt lat="44.0222033" lon="12.0168283"><ele>351.0</ele><time>2026-04-18T09:03:48.077Z</time></trkpt><trkpt lat="44.02216" lon="12.016925"><ele>355.3333333333333</ele><time>2026-04-18T09:03:49.077Z</time></trkpt><trkpt lat="44.0221083" lon="12.0170133"><ele>359.66666666666663</ele><time>2026-04-18T09:03:50.077Z</time></trkpt><trkpt lat="44.02205" lon="12.0170983"><ele>364.0</ele><time>2026-04-18T09:03:51.077Z</time></trkpt><trkpt lat="44.021985" lon="12.0171667"><ele>364.0</ele><time>2026-04-18T09:03:52.077Z</time></trkpt><trkpt lat="44.021915" lon="12.0172333"><ele>364.0</ele><time>2026-04-18T09:03:53.077Z</time></trkpt><trkpt lat="44.0218467" lon="12.0173067"><ele>364.0</ele><time>2026-04-18T09:03:54.077Z</time></trkpt><trkpt lat="44.021785" lon="12.0173883"><ele>364.0</ele><time>2026-04-18T09:03:55.077Z</time></trkpt><trkpt lat="44.021715" lon="12.01747"><ele>364.0</ele><time>2026-04-18T09:03:56.077Z</time></trkpt><trkpt lat="44.02165" lon="12.0175483"><ele>364.0</ele><time>2026-04-18T09:03:57.077Z</time></trkpt><trkpt lat="44.0215967" lon="12.0176317"><ele>367.16666666666663</ele><time>2026-04-18T09:03:58.076Z</time></trkpt><trkpt lat="44.0215517" lon="12.0177217"><ele>370.3333333333333</ele><time>2026-04-18T09:03:59.077Z</time></trkpt><trkpt lat="44.021505" lon="12.0178"><ele>373.5</ele><time>2026-04-18T09:04:00.077Z</time></trkpt><trkpt lat="44.0214617" lon="12.01787"><ele>376.6666666666667</ele><time>2026-04-18T09:04:01.077Z</time></trkpt><trkpt lat="44.0214017" lon="12.017925"><ele>379.83333333333337</ele><time>2026-04-18T09:04:02.077Z</time></trkpt><trkpt lat="44.0212983" lon="12.01796"><ele>383.0</ele><time>2026-04-18T09:04:04.076Z</time></trkpt><trkpt lat="44.0212167" lon="12.0178567"><ele>383.0</ele><time>2026-04-18T09:04:06.077Z</time></trkpt><trkpt lat="44.021195" lon="12.017765"><ele>383.0</ele><time>2026-04-18T09:04:07.077Z</time></trkpt><trkpt lat="44.0211767" lon="12.0176733"><ele>383.0</ele><time>2026-04-18T09:04:08.076Z</time></trkpt><trkpt lat="44.0211283" lon="12.017555"><ele>383.0</ele><time>2026-04-18T09:04:10.077Z</time></trkpt><trkpt lat="44.021065" lon="12.0175083"><ele>383.0</ele><time>2026-04-18T09:04:13.077Z</time></trkpt><trkpt lat="44.0209367" lon="12.0174783"><ele>383.0</ele><time>2026-04-18T09:04:52.077Z</time></trkpt><trkpt lat="44.020865" lon="12.0174883"><ele>384.79999999999995</ele><time>2026-04-18T09:05:58.076Z</time></trkpt><trkpt lat="44.0207617" lon="12.01756"><ele>386.6</ele><time>2026-04-18T09:06:00.077Z</time></trkpt><trkpt lat="44.02069" lon="12.0175967"><ele>388.4</ele><time>2026-04-18T09:06:01.077Z</time></trkpt><trkpt lat="44.0206" lon="12.01762"><ele>390.20000000000005</ele><time>2026-04-18T09:06:02.077Z</time></trkpt><trkpt lat="44.020525" lon="12.017635"><ele>392.0</ele><time>2026-04-18T09:06:03.076Z</time></trkpt><trkpt lat="44.020435" lon="12.0176517"><ele>392.0</ele><time>2026-04-18T09:06:04.077Z</time></trkpt><trkpt lat="44.020345" lon="12.0176833"><ele>392.0</ele><time>2026-04-18T09:06:05.077Z</time></trkpt><trkpt lat="44.020255" lon="12.0177267"><ele>392.0</ele><time>2026-04-18T09:06:06.077Z</time></trkpt><trkpt lat="44.0201583" lon="12.01777"><ele>392.0</ele><time>2026-04-18T09:06:07.077Z</time></trkpt><trkpt lat="44.020065" lon="12.0178017"><ele>392.0</ele><time>2026-04-18T09:06:08.076Z</time></trkpt><trkpt lat="44.0199667" lon="12.01781"><ele>394.99999999999994</ele><time>2026-04-18T09:06:09.077Z</time></trkpt><trkpt lat="44.0198717" lon="12.0177917"><ele>398.0</ele><time>2026-04-18T09:06:10.076Z</time></trkpt><trkpt lat="44.0197833" lon="12.0177717"><ele>401.0</ele><time>2026-04-18T09:06:11.077Z</time></trkpt><trkpt lat="44.0196967" lon="12.0177483"><ele>404.0</ele><time>2026-04-18T09:06:12.077Z</time></trkpt><trkpt lat="44.0196117" lon="12.0177333"><ele>406.99999999999994</ele><time>2026-04-18T09:06:13.077Z</time></trkpt><trkpt lat="44.019535" lon="12.0176767"><ele>410.0</ele><time>2026-04-18T09:06:14.077Z</time></trkpt><trkpt lat="44.0194767" lon="12.01761"><ele>410.0</ele><time>2026-04-18T09:06:15.077Z</time></trkpt><trkpt lat="44.0194167" lon="12.017515"><ele>410.0</ele><time>2026-04-18T09:06:16.077Z</time></trkpt><trkpt lat="44.0193667" lon="12.01741"><ele>410.0</ele><time>2026-04-18T09:06:17.077Z</time></trkpt><trkpt lat="44.01933" lon="12.0173083"><ele>410.0</ele><time>2026-04-18T09:06:18.076Z</time></trkpt><trkpt lat="44.0193017" lon="12.01721"><ele>410.0</ele><time>2026-04-18T09:06:19.077Z</time></trkpt><trkpt lat="44.0191933" lon="12.0171283"><ele>407.5</ele><time>2026-04-18T09:06:21.077Z</time></trkpt><trkpt lat="44.0191167" lon="12.01714"><ele>405.0</ele><time>2026-04-18T09:06:22.077Z</time></trkpt><trkpt lat="44.0190233" lon="12.01719"><ele>402.5</ele><time>2026-04-18T09:06:23.076Z</time></trkpt><trkpt lat="44.0189033" lon="12.017275"><ele>400.0</ele><time>2026-04-18T09:06:24.077Z</time></trkpt><trkpt lat="44.0187733" lon="12.0173867"><ele>403.25</ele><time>2026-04-18T09:06:25.076Z</time></trkpt><trkpt lat="44.0186483" lon="12.0175067"><ele>406.5</ele><time>2026-04-18T09:06:26.077Z</time></trkpt><trkpt lat="44.018535" lon="12.017625"><ele>409.75</ele><time>2026-04-18T09:06:27.077Z</time></trkpt><trkpt lat="44.0184417" lon="12.017725"><ele>413.0</ele><time>2026-04-18T09:06:28.077Z</time></trkpt><trkpt lat="44.0183683" lon="12.0178133"><ele>412.99999999999994</ele><time>2026-04-18T09:06:29.077Z</time></trkpt><trkpt lat="44.0183117" lon="12.0178933"><ele>413.0</ele><time>2026-04-18T09:06:30.076Z</time></trkpt><trkpt lat="44.0182583" lon="12.01797"><ele>413.0</ele><time>2026-04-18T09:06:31.077Z</time></trkpt><trkpt lat="44.0182167" lon="12.0180367"><ele>413.0</ele><time>2026-04-18T09:06:32.076Z</time></trkpt><trkpt lat="44.018275" lon="12.018"><ele>412.99999999999994</ele><time>2026-04-18T09:07:28.077Z</time></trkpt><trkpt lat="44.0183667" lon="12.0180233"><ele>413.0</ele><time>2026-04-18T09:07:48.076Z</time></trkpt><trkpt lat="44.0184833" lon="12.018035"><ele>412.99999999999994</ele><time>2026-04-18T09:07:50.076Z</time></trkpt><trkpt lat="44.0185583" lon="12.0180283"><ele>413.0</ele><time>2026-04-18T09:07:51.077Z</time></trkpt><trkpt lat="44.0186433" lon="12.0180183"><ele>413.0</ele><time>2026-04-18T09:07:52.077Z</time></trkpt><trkpt lat="44.0187117" lon="12.01801"><ele>413.0</ele><time>2026-04-18T09:07:53.077Z</time></trkpt><trkpt lat="44.018795" lon="12.0180017"><ele>412.99999999999994</ele><time>2026-04-18T09:07:55.078Z</time></trkpt><trkpt lat="44.01889" lon="12.0180167"><ele>413.0</ele><time>2026-04-18T09:08:20.077Z</time></trkpt><trkpt lat="44.0190083" lon="12.0181183"><ele>412.99999999999994</ele><time>2026-04-18T09:08:22.078Z</time></trkpt><trkpt lat="44.01908" lon="12.0181917"><ele>413.0</ele><time>2026-04-18T09:08:23.077Z</time></trkpt><trkpt lat="44.0191633" lon="12.0182717"><ele>413.0</ele><time>2026-04-18T09:08:24.078Z</time></trkpt><trkpt lat="44.0192467" lon="12.0183417"><ele>413.0</ele><time>2026-04-18T09:08:25.078Z</time></trkpt><trkpt lat="44.0193183" lon="12.018405"><ele>412.99999999999994</ele><time>2026-04-18T09:08:26.078Z</time></trkpt><trkpt lat="44.0193717" lon="12.0184783"><ele>413.0</ele><time>2026-04-18T09:08:27.078Z</time></trkpt><trkpt lat="44.0194083" lon="12.01863"><ele>416.4</ele><time>2026-04-18T09:08:29.078Z</time></trkpt><trkpt lat="44.0193317" lon="12.018785"><ele>419.79999999999995</ele><time>2026-04-18T09:08:31.078Z</time></trkpt><trkpt lat="44.01927" lon="12.0188483"><ele>423.2</ele><time>2026-04-18T09:08:32.078Z</time></trkpt><trkpt lat="44.0191983" lon="12.0188917"><ele>426.6</ele><time>2026-04-18T09:08:33.078Z</time></trkpt><trkpt lat="44.0191133" lon="12.0189233"><ele>430.0</ele><time>2026-04-18T09:08:34.078Z</time></trkpt><trkpt lat="44.0190067" lon="12.0189417"><ele>430.75</ele><time>2026-04-18T09:08:35.078Z</time></trkpt><trkpt lat="44.0188817" lon="12.01895"><ele>431.5</ele><time>2026-04-18T09:08:36.078Z</time></trkpt><trkpt lat="44.01875" lon="12.018965"><ele>432.25</ele><time>2026-04-18T09:08:37.078Z</time></trkpt><trkpt lat="44.0186267" lon="12.01898"><ele>433.0</ele><time>2026-04-18T09:08:38.078Z</time></trkpt><trkpt lat="44.01851" lon="12.018985"><ele>433.0</ele><time>2026-04-18T09:08:39.078Z</time></trkpt><trkpt lat="44.0184017" lon="12.0189983"><ele>432.99999999999994</ele><time>2026-04-18T09:08:40.077Z</time></trkpt><trkpt lat="44.0183" lon="12.0190267"><ele>432.99999999999994</ele><time>2026-04-18T09:08:41.077Z</time></trkpt><trkpt lat="44.0182083" lon="12.0190867"><ele>433.0</ele><time>2026-04-18T09:08:42.078Z</time></trkpt><trkpt lat="44.0181233" lon="12.01914"><ele>433.0</ele><time>2026-04-18T09:08:43.078Z</time></trkpt><trkpt lat="44.0180383" lon="12.0192033"><ele>438.50000000000006</ele><time>2026-04-18T09:08:44.078Z</time></trkpt><trkpt lat="44.0179567" lon="12.0192667"><ele>444.0</ele><time>2026-04-18T09:08:45.078Z</time></trkpt><trkpt lat="44.0178833" lon="12.0193167"><ele>449.5</ele><time>2026-04-18T09:08:46.078Z</time></trkpt><trkpt lat="44.0178217" lon="12.0193417"><ele>455.0</ele><time>2026-04-18T09:08:47.078Z</time></trkpt><trkpt lat="44.0177267" lon="12.0193083"><ele>460.50000000000006</ele><time>2026-04-18T09:08:49.077Z</time></trkpt><trkpt lat="44.01764" lon="12.0193467"><ele>466.0</ele><time>2026-04-18T09:08:51.078Z</time></trkpt><trkpt lat="44.017585" lon="12.0194517"><ele>466.00000000000006</ele><time>2026-04-18T09:08:53.078Z</time></trkpt><trkpt lat="44.0175533" lon="12.0196083"><ele>466.0</ele><time>2026-04-18T09:08:55.078Z</time></trkpt><trkpt lat="44.0175167" lon="12.0196967"><ele>466.0</ele><time>2026-04-18T09:08:56.077Z</time></trkpt><trkpt lat="44.0174717" lon="12.0197833"><ele>466.0</ele><time>2026-04-18T09:08:57.078Z</time></trkpt><trkpt lat="44.017415" lon="12.0198633"><ele>466.00000000000006</ele><time>2026-04-18T09:08:58.078Z</time></trkpt><trkpt lat="44.0173518" lon="12.0199344"><ele>466.0</ele><time>2026-04-18T09:08:59.078Z</time></trkpt><trkpt lat="44.0172841" lon="12.0200038"><ele>471.6</ele><time>2026-04-18T09:09:00.078Z</time></trkpt><trkpt lat="44.0172127" lon="12.0200594"><ele>477.20000000000005</ele><time>2026-04-18T09:09:01.078Z</time></trkpt><trkpt lat="44.0171328" lon="12.0201018"><ele>482.79999999999995</ele><time>2026-04-18T09:09:02.078Z</time></trkpt><trkpt lat="44.0170487" lon="12.0201339"><ele>488.4</ele><time>2026-04-18T09:09:03.077Z</time></trkpt><trkpt lat="44.01695" lon="12.020147"><ele>494.0</ele><time>2026-04-18T09:09:04.077Z</time></trkpt><trkpt lat="44.0168377" lon="12.0201382"><ele>494.0</ele><time>2026-04-18T09:09:05.078Z</time></trkpt><trkpt lat="44.0167313" lon="12.0201249"><ele>494.0</ele><time>2026-04-18T09:09:06.078Z</time></trkpt><trkpt lat="44.0166381" lon="12.0201312"><ele>494.0</ele><time>2026-04-18T09:09:07.078Z</time></trkpt><trkpt lat="44.0165374" lon="12.0201589"><ele>494.0</ele><time>2026-04-18T09:09:08.078Z</time></trkpt><trkpt lat="44.0164608" lon="12.020212"><ele>494.0</ele><time>2026-04-18T09:09:09.078Z</time></trkpt><trkpt lat="44.0163915" lon="12.0202603"><ele>495.0</ele><time>2026-04-18T09:09:10.077Z</time></trkpt><trkpt lat="44.0162915" lon="12.0202555"><ele>496.0</ele><time>2026-04-18T09:09:12.078Z</time></trkpt><trkpt lat="44.016234" lon="12.0201899"><ele>497.0</ele><time>2026-04-18T09:09:13.078Z</time></trkpt><trkpt lat="44.0161508" lon="12.0200972"><ele>498.0</ele><time>2026-04-18T09:09:14.078Z</time></trkpt><trkpt lat="44.0160624" lon="12.0199818"><ele>499.0</ele><time>2026-04-18T09:09:15.077Z</time></trkpt><trkpt lat="44.0159682" lon="12.0198524"><ele>498.5</ele><time>2026-04-18T09:09:16.078Z</time></trkpt><trkpt lat="44.0158731" lon="12.0197202"><ele>498.0</ele><time>2026-04-18T09:09:17.078Z</time></trkpt><trkpt lat="44.0157699" lon="12.0195877"><ele>497.5</ele><time>2026-04-18T09:09:18.078Z</time></trkpt><trkpt lat="44.015668" lon="12.0194579"><ele>497.0</ele><time>2026-04-18T09:09:19.078Z</time></trkpt><trkpt lat="44.0155754" lon="12.0193409"><ele>497.0</ele><time>2026-04-18T09:09:20.078Z</time></trkpt><trkpt lat="44.015499" lon="12.0192008"><ele>497.0</ele><time>2026-04-18T09:09:21.078Z</time></trkpt><trkpt lat="44.0154265" lon="12.0190554"><ele>497.0</ele><time>2026-04-18T09:09:22.077Z</time></trkpt><trkpt lat="44.01536" lon="12.0189023"><ele>497.0</ele><time>2026-04-18T09:09:23.077Z</time></trkpt><trkpt lat="44.0153037" lon="12.0187753"><ele>498.66666666666663</ele><time>2026-04-18T09:09:24.078Z</time></trkpt><trkpt lat="44.0152695" lon="12.0186537"><ele>500.3333333333333</ele><time>2026-04-18T09:09:25.078Z</time></trkpt><trkpt lat="44.015262" lon="12.0185436"><ele>502.0</ele><time>2026-04-18T09:09:26.078Z</time></trkpt><trkpt lat="44.0152819" lon="12.0184282"><ele>503.66666666666663</ele><time>2026-04-18T09:09:27.078Z</time></trkpt><trkpt lat="44.0152999" lon="12.0183029"><ele>505.3333333333333</ele><time>2026-04-18T09:09:28.078Z</time></trkpt><trkpt lat="44.0152931" lon="12.0181665"><ele>507.0</ele><time>2026-04-18T09:09:29.078Z</time></trkpt><trkpt lat="44.0152613" lon="12.0180204"><ele>508.8</ele><time>2026-04-18T09:09:30.078Z</time></trkpt><trkpt lat="44.0152383" lon="12.0178717"><ele>510.6</ele><time>2026-04-18T09:09:31.078Z</time></trkpt><trkpt lat="44.0152317" lon="12.01773"><ele>512.4000000000001</ele><time>2026-04-18T09:09:32.078Z</time></trkpt><trkpt lat="44.0152233" lon="12.0175833"><ele>514.2</ele><time>2026-04-18T09:09:33.077Z</time></trkpt><trkpt lat="44.015205" lon="12.0174283"><ele>516.0</ele><time>2026-04-18T09:09:34.078Z</time></trkpt><trkpt lat="44.0151833" lon="12.0172783"><ele>516.8</ele><time>2026-04-18T09:09:35.077Z</time></trkpt><trkpt lat="44.0151533" lon="12.017135"><ele>517.6</ele><time>2026-04-18T09:09:36.078Z</time></trkpt><trkpt lat="44.0151167" lon="12.0169917"><ele>518.4</ele><time>2026-04-18T09:09:37.077Z</time></trkpt><trkpt lat="44.0150717" lon="12.01685"><ele>519.2</ele><time>2026-04-18T09:09:38.078Z</time></trkpt><trkpt lat="44.0150317" lon="12.016725"><ele>520.0</ele><time>2026-04-18T09:09:39.078Z</time></trkpt><trkpt lat="44.0150033" lon="12.0166283"><ele>522.8</ele><time>2026-04-18T09:09:40.078Z</time></trkpt><trkpt lat="44.0149567" lon="12.0164883"><ele>525.6</ele><time>2026-04-18T09:09:42.078Z</time></trkpt><trkpt lat="44.0148333" lon="12.0163767"><ele>528.4</ele><time>2026-04-18T09:14:43.078Z</time></trkpt><trkpt lat="44.0147617" lon="12.0162633"><ele>531.2</ele><time>2026-04-18T09:14:45.077Z</time></trkpt><trkpt lat="44.0147183" lon="12.016195"><ele>534.0</ele><time>2026-04-18T09:14:46.077Z</time></trkpt><trkpt lat="44.0146478" lon="12.0160635"><ele>534.0</ele><time>2026-04-18T09:14:48.078Z</time></trkpt><trkpt lat="44.0145971" lon="12.0159521"><ele>534.0</ele><time>2026-04-18T09:14:50.079Z</time></trkpt><trkpt lat="44.0145544" lon="12.0158508"><ele>534.0</ele><time>2026-04-18T09:14:52.079Z</time></trkpt><trkpt lat="44.0145125" lon="12.0157178"><ele>534.0</ele><time>2026-04-18T09:14:54.079Z</time></trkpt><trkpt lat="44.0144713" lon="12.0155516"><ele>534.0</ele><time>2026-04-18T09:14:56.078Z</time></trkpt><trkpt lat="44.0144071" lon="12.0154135"><ele>536.6666666666666</ele><time>2026-04-18T09:14:58.079Z</time></trkpt><trkpt lat="44.0142963" lon="12.0153198"><ele>539.3333333333334</ele><time>2026-04-18T09:15:00.079Z</time></trkpt><trkpt lat="44.0142338" lon="12.0152772"><ele>542.0</ele><time>2026-04-18T09:15:01.079Z</time></trkpt><trkpt lat="44.0141726" lon="12.0152302"><ele>544.6666666666667</ele><time>2026-04-18T09:15:02.079Z</time></trkpt><trkpt lat="44.0141144" lon="12.0151785"><ele>547.3333333333334</ele><time>2026-04-18T09:15:03.079Z</time></trkpt><trkpt lat="44.0140566" lon="12.0151309"><ele>550.0</ele><time>2026-04-18T09:15:04.079Z</time></trkpt><trkpt lat="44.0139942" lon="12.0150825"><ele>551.8571428571429</ele><time>2026-04-18T09:15:05.079Z</time></trkpt><trkpt lat="44.0139296" lon="12.0150333"><ele>553.7142857142857</ele><time>2026-04-18T09:15:06.079Z</time></trkpt><trkpt lat="44.0138662" lon="12.0149889"><ele>555.5714285714286</ele><time>2026-04-18T09:15:07.079Z</time></trkpt><trkpt lat="44.0138054" lon="12.0149516"><ele>557.4285714285714</ele><time>2026-04-18T09:15:08.079Z</time></trkpt><trkpt lat="44.013744" lon="12.0149133"><ele>559.2857142857143</ele><time>2026-04-18T09:15:09.079Z</time></trkpt><trkpt lat="44.0136813" lon="12.0148842"><ele>561.1428571428571</ele><time>2026-04-18T09:15:10.079Z</time></trkpt><trkpt lat="44.0136177" lon="12.0148615"><ele>563.0</ele><time>2026-04-18T09:15:11.079Z</time></trkpt><trkpt lat="44.0135527" lon="12.0148545"><ele>565.4</ele><time>2026-04-18T09:15:12.078Z</time></trkpt><trkpt lat="44.0134317" lon="12.0148414"><ele>567.8</ele><time>2026-04-18T09:15:14.079Z</time></trkpt><trkpt lat="44.0133165" lon="12.0148096"><ele>570.2</ele><time>2026-04-18T09:15:16.078Z</time></trkpt><trkpt lat="44.0132053" lon="12.0147313"><ele>572.6</ele><time>2026-04-18T09:15:18.079Z</time></trkpt><trkpt lat="44.0131485" lon="12.0146677"><ele>575.0</ele><time>2026-04-18T09:15:19.079Z</time></trkpt><trkpt lat="44.013077" lon="12.0146006"><ele>575.3333333333333</ele><time>2026-04-18T09:15:20.079Z</time></trkpt><trkpt lat="44.0130108" lon="12.0145348"><ele>575.6666666666666</ele><time>2026-04-18T09:15:21.078Z</time></trkpt><trkpt lat="44.0129358" lon="12.0144756"><ele>576.0</ele><time>2026-04-18T09:15:22.079Z</time></trkpt><trkpt lat="44.0128594" lon="12.0144272"><ele>576.3333333333334</ele><time>2026-04-18T09:15:23.079Z</time></trkpt><trkpt lat="44.0127878" lon="12.0143817"><ele>576.6666666666667</ele><time>2026-04-18T09:15:24.079Z</time></trkpt><trkpt lat="44.0127218" lon="12.0143315"><ele>577.0</ele><time>2026-04-18T09:15:25.079Z</time></trkpt><trkpt lat="44.0126657" lon="12.0142838"><ele>577.0</ele><time>2026-04-18T09:15:26.079Z</time></trkpt><trkpt lat="44.0126049" lon="12.01424"><ele>577.0</ele><time>2026-04-18T09:15:27.079Z</time></trkpt><trkpt lat="44.0124986" lon="12.0141796"><ele>577.0</ele><time>2026-04-18T09:15:29.078Z</time></trkpt><trkpt lat="44.0124067" lon="12.0141533"><ele>577.0</ele><time>2026-04-18T09:15:31.078Z</time></trkpt><trkpt lat="44.0122667" lon="12.0140517"><ele>577.0</ele><time>2026-04-18T09:16:36.079Z</time></trkpt><trkpt lat="44.0122083" lon="12.0139417"><ele>580.5</ele><time>2026-04-18T09:16:38.079Z</time></trkpt><trkpt lat="44.01215" lon="12.0138133"><ele>584.0</ele><time>2026-04-18T09:16:40.079Z</time></trkpt><trkpt lat="44.0120783" lon="12.0136733"><ele>587.5</ele><time>2026-04-18T09:16:42.079Z</time></trkpt><trkpt lat="44.0120333" lon="12.0136017"><ele>591.0</ele><time>2026-04-18T09:16:43.079Z</time></trkpt><trkpt lat="44.0119883" lon="12.0135267"><ele>594.5</ele><time>2026-04-18T09:16:44.079Z</time></trkpt><trkpt lat="44.0119467" lon="12.0134567"><ele>598.0</ele><time>2026-04-18T09:16:45.079Z</time></trkpt><trkpt lat="44.0118917" lon="12.0133433"><ele>599.1999999999999</ele><time>2026-04-18T09:16:47.079Z</time></trkpt><trkpt lat="44.0118067" lon="12.0132183"><ele>600.4</ele><time>2026-04-18T09:16:49.079Z</time></trkpt><trkpt lat="44.0117583" lon="12.0131467"><ele>601.5999999999999</ele><time>2026-04-18T09:16:50.079Z</time></trkpt><trkpt lat="44.01169" lon="12.01303"><ele>602.8</ele><time>2026-04-18T09:16:52.079Z</time></trkpt><trkpt lat="44.0116467" lon="12.012925"><ele>604.0</ele><time>2026-04-18T09:16:54.079Z</time></trkpt><trkpt lat="44.0115917" lon="12.01283"><ele>604.0</ele><time>2026-04-18T09:16:56.079Z</time></trkpt><trkpt lat="44.0114917" lon="12.01271"><ele>604.0</ele><time>2026-04-18T09:16:58.079Z</time></trkpt><trkpt lat="44.0113967" lon="12.0126283"><ele>604.0</ele><time>2026-04-18T09:17:00.078Z</time></trkpt><trkpt lat="44.01126" lon="12.01259"><ele>604.0</ele><time>2026-04-18T09:17:02.079Z</time></trkpt><trkpt lat="44.0111967" lon="12.0125717"><ele>604.0</ele><time>2026-04-18T09:17:03.078Z</time></trkpt><trkpt lat="44.0111133" lon="12.0125383"><ele>604.0</ele><time>2026-04-18T09:17:04.079Z</time></trkpt><trkpt lat="44.0110317" lon="12.0125267"><ele>604.0</ele><time>2026-04-18T09:17:05.079Z</time></trkpt><trkpt lat="44.0109017" lon="12.0125233"><ele>604.0</ele><time>2026-04-18T09:17:07.079Z</time></trkpt><trkpt lat="44.0108183" lon="12.0125117"><ele>604.0</ele><time>2026-04-18T09:17:09.079Z</time></trkpt><trkpt lat="44.0107633" lon="12.0123683"><ele>604.0</ele><time>2026-04-18T09:17:11.079Z</time></trkpt><trkpt lat="44.0107367" lon="12.01228"><ele>605.6</ele><time>2026-04-18T09:17:12.079Z</time></trkpt><trkpt lat="44.0106917" lon="12.01221"><ele>607.2</ele><time>2026-04-18T09:17:13.078Z</time></trkpt><trkpt lat="44.01058" lon="12.01212"><ele>608.8000000000001</ele><time>2026-04-18T09:17:15.079Z</time></trkpt><trkpt lat="44.01051" lon="12.012085"><ele>610.4</ele><time>2026-04-18T09:17:16.079Z</time></trkpt><trkpt lat="44.0104067" lon="12.012025"><ele>612.0</ele><time>2026-04-18T09:17:18.078Z</time></trkpt><trkpt lat="44.0103233" lon="12.0119783"><ele>612.0</ele><time>2026-04-18T09:17:20.079Z</time></trkpt><trkpt lat="44.0102567" lon="12.0118933"><ele>612.0</ele><time>2026-04-18T09:17:22.079Z</time></trkpt><trkpt lat="44.0102283" lon="12.0117633"><ele>612.0</ele><time>2026-04-18T09:17:24.079Z</time></trkpt><trkpt lat="44.0101917" lon="12.0116783"><ele>612.0</ele><time>2026-04-18T09:17:25.079Z</time></trkpt><trkpt lat="44.0101467" lon="12.011585"><ele>612.0</ele><time>2026-04-18T09:17:26.078Z</time></trkpt><trkpt lat="44.0101283" lon="12.011475"><ele>612.0</ele><time>2026-04-18T09:17:27.079Z</time></trkpt><trkpt lat="44.0101133" lon="12.01136"><ele>611.3333333333334</ele><time>2026-04-18T09:17:28.079Z</time></trkpt><trkpt lat="44.010095" lon="12.0112517"><ele>610.6666666666666</ele><time>2026-04-18T09:17:29.078Z</time></trkpt><trkpt lat="44.0100867" lon="12.011145"><ele>610.0</ele><time>2026-04-18T09:17:30.079Z</time></trkpt><trkpt lat="44.0100733" lon="12.011035"><ele>609.3333333333333</ele><time>2026-04-18T09:17:31.079Z</time></trkpt><trkpt lat="44.010055" lon="12.0109233"><ele>608.6666666666666</ele><time>2026-04-18T09:17:32.079Z</time></trkpt><trkpt lat="44.010025" lon="12.0108267"><ele>608.0</ele><time>2026-04-18T09:17:33.079Z</time></trkpt><trkpt lat="44.010005" lon="12.0107033"><ele>607.6</ele><time>2026-04-18T09:17:35.079Z</time></trkpt><trkpt lat="44.0099767" lon="12.010585"><ele>607.1999999999999</ele><time>2026-04-18T09:17:37.079Z</time></trkpt><trkpt lat="44.0099383" lon="12.01047"><ele>606.8</ele><time>2026-04-18T09:17:39.078Z</time></trkpt><trkpt lat="44.0098433" lon="12.010385"><ele>606.4</ele><time>2026-04-18T09:17:41.079Z</time></trkpt><trkpt lat="44.0097733" lon="12.0103467"><ele>606.0</ele><time>2026-04-18T09:17:42.079Z</time></trkpt><trkpt lat="44.00969" lon="12.0103217"><ele>606.0</ele><time>2026-04-18T09:17:43.079Z</time></trkpt><trkpt lat="44.0096083" lon="12.010305"><ele>606.0</ele><time>2026-04-18T09:17:44.079Z</time></trkpt><trkpt lat="44.0095283" lon="12.0102933"><ele>606.0</ele><time>2026-04-18T09:17:45.079Z</time></trkpt><trkpt lat="44.0094617" lon="12.0102833"><ele>606.0</ele><time>2026-04-18T09:17:46.078Z</time></trkpt><trkpt lat="44.0093517" lon="12.01026"><ele>606.0</ele><time>2026-04-18T09:17:48.079Z</time></trkpt><trkpt lat="44.009255" lon="12.0102117"><ele>606.0</ele><time>2026-04-18T09:17:50.078Z</time></trkpt><trkpt lat="44.0091633" lon="12.0101733"><ele>604.25</ele><time>2026-04-18T09:17:52.079Z</time></trkpt><trkpt lat="44.0090667" lon="12.0101383"><ele>602.5</ele><time>2026-04-18T09:17:54.079Z</time></trkpt><trkpt lat="44.0089783" lon="12.0100467"><ele>600.75</ele><time>2026-04-18T09:17:56.079Z</time></trkpt><trkpt lat="44.0088783" lon="12.00995"><ele>599.0</ele><time>2026-04-18T09:17:58.078Z</time></trkpt><trkpt lat="44.0087733" lon="12.00985"><ele>599.0</ele><time>2026-04-18T09:18:00.079Z</time></trkpt><trkpt lat="44.0087083" lon="12.00981"><ele>599.0</ele><time>2026-04-18T09:18:01.078Z</time></trkpt><trkpt lat="44.008645" lon="12.0097633"><ele>599.0</ele><time>2026-04-18T09:18:02.079Z</time></trkpt><trkpt lat="44.008575" lon="12.0097083"><ele>599.0</ele><time>2026-04-18T09:18:03.079Z</time></trkpt><trkpt lat="44.0085133" lon="12.00965"><ele>599.0</ele><time>2026-04-18T09:18:04.079Z</time></trkpt><trkpt lat="44.0084067" lon="12.0095533"><ele>599.0</ele><time>2026-04-18T09:18:06.079Z</time></trkpt><trkpt lat="44.00835" lon="12.0095083"><ele>600.0</ele><time>2026-04-18T09:18:07.079Z</time></trkpt><trkpt lat="44.0082683" lon="12.0094067"><ele>601.0</ele><time>2026-04-18T09:18:09.079Z</time></trkpt><trkpt lat="44.0082283" lon="12.009275"><ele>602.0</ele><time>2026-04-18T09:18:11.079Z</time></trkpt><trkpt lat="44.0081683" lon="12.00915"><ele>603.0</ele><time>2026-04-18T09:18:13.079Z</time></trkpt><trkpt lat="44.008085" lon="12.0090617"><ele>604.0</ele><time>2026-04-18T09:18:15.079Z</time></trkpt><trkpt lat="44.0080133" lon="12.008975"><ele>604.0</ele><time>2026-04-18T09:18:17.079Z</time></trkpt><trkpt lat="44.0079733" lon="12.0088467"><ele>604.0</ele><time>2026-04-18T09:18:19.079Z</time></trkpt><trkpt lat="44.0079433" lon="12.008755"><ele>604.0</ele><time>2026-04-18T09:18:20.078Z</time></trkpt><trkpt lat="44.00792" lon="12.0086517"><ele>604.0</ele><time>2026-04-18T09:18:21.079Z</time></trkpt><trkpt lat="44.0078833" lon="12.0085617"><ele>604.0</ele><time>2026-04-18T09:18:22.079Z</time></trkpt><trkpt lat="44.0078483" lon="12.008475"><ele>604.0</ele><time>2026-04-18T09:18:23.079Z</time></trkpt><trkpt lat="44.0078133" lon="12.0083883"><ele>602.8333333333334</ele><time>2026-04-18T09:18:24.078Z</time></trkpt><trkpt lat="44.0077733" lon="12.0083033"><ele>601.6666666666667</ele><time>2026-04-18T09:18:25.079Z</time></trkpt><trkpt lat="44.00773" lon="12.0082083"><ele>600.5</ele><time>2026-04-18T09:18:26.079Z</time></trkpt><trkpt lat="44.0076783" lon="12.0081033"><ele>599.3333333333334</ele><time>2026-04-18T09:18:27.079Z</time></trkpt><trkpt lat="44.0076367" lon="12.0080133"><ele>598.1666666666666</ele><time>2026-04-18T09:18:28.079Z</time></trkpt><trkpt lat="44.0076067" lon="12.007935"><ele>597.0</ele><time>2026-04-18T09:18:29.078Z</time></trkpt><trkpt lat="44.0075583" lon="12.0078017"><ele>597.0</ele><time>2026-04-18T09:18:31.079Z</time></trkpt><trkpt lat="44.0075033" lon="12.0077183"><ele>597.0</ele><time>2026-04-18T09:18:33.078Z</time></trkpt><trkpt lat="44.0074233" lon="12.0077567"><ele>597.0</ele><time>2026-04-18T09:18:35.078Z</time></trkpt><trkpt lat="44.0073733" lon="12.0078617"><ele>597.0</ele><time>2026-04-18T09:18:37.079Z</time></trkpt><trkpt lat="44.0073283" lon="12.0079517"><ele>597.0</ele><time>2026-04-18T09:18:39.079Z</time></trkpt><trkpt lat="44.0072933" lon="12.00806"><ele>597.0</ele><time>2026-04-18T09:18:41.078Z</time></trkpt><trkpt lat="44.0073" lon="12.0082133"><ele>595.0</ele><time>2026-04-18T09:18:43.079Z</time></trkpt><trkpt lat="44.0073133" lon="12.0083783"><ele>593.0</ele><time>2026-04-18T09:18:45.079Z</time></trkpt><trkpt lat="44.0072867" lon="12.0085133"><ele>591.0</ele><time>2026-04-18T09:18:47.078Z</time></trkpt><trkpt lat="44.007215" lon="12.0085783"><ele>589.0</ele><time>2026-04-18T09:18:49.079Z</time></trkpt><trkpt lat="44.007135" lon="12.008665"><ele>587.0</ele><time>2026-04-18T09:18:51.079Z</time></trkpt><trkpt lat="44.0071067" lon="12.008785"><ele>587.0</ele><time>2026-04-18T09:18:53.079Z</time></trkpt><trkpt lat="44.0071267" lon="12.0089767"><ele>587.0</ele><time>2026-04-18T09:18:55.079Z</time></trkpt><trkpt lat="44.0071417" lon="12.0090833"><ele>587.0</ele><time>2026-04-18T09:18:56.079Z</time></trkpt><trkpt lat="44.0071533" lon="12.0092033"><ele>587.0</ele><time>2026-04-18T09:18:57.079Z</time></trkpt><trkpt lat="44.007155" lon="12.009325"><ele>587.0</ele><time>2026-04-18T09:18:58.079Z</time></trkpt><trkpt lat="44.00714" lon="12.0094233"><ele>587.6666666666666</ele><time>2026-04-18T09:18:59.079Z</time></trkpt><trkpt lat="44.00712" lon="12.0095133"><ele>588.3333333333333</ele><time>2026-04-18T09:19:00.079Z</time></trkpt><trkpt lat="44.007095" lon="12.0096883"><ele>589.0</ele><time>2026-04-18T09:19:02.079Z</time></trkpt><trkpt lat="44.0071017" lon="12.00978"><ele>589.6666666666666</ele><time>2026-04-18T09:19:03.079Z</time></trkpt><trkpt lat="44.007115" lon="12.00987"><ele>590.3333333333334</ele><time>2026-04-18T09:19:04.078Z</time></trkpt><trkpt lat="44.007115" lon="12.0099633"><ele>591.0</ele><time>2026-04-18T09:19:05.078Z</time></trkpt><trkpt lat="44.0071" lon="12.01006"><ele>592.0</ele><time>2026-04-18T09:19:06.079Z</time></trkpt><trkpt lat="44.00707" lon="12.01016"><ele>593.0</ele><time>2026-04-18T09:19:07.079Z</time></trkpt><trkpt lat="44.0070383" lon="12.0102517"><ele>594.0</ele><time>2026-04-18T09:19:08.079Z</time></trkpt><trkpt lat="44.0070133" lon="12.0103333"><ele>595.0</ele><time>2026-04-18T09:19:09.079Z</time></trkpt><trkpt lat="44.0069833" lon="12.0104133"><ele>596.0</ele><time>2026-04-18T09:19:10.079Z</time></trkpt><trkpt lat="44.0069083" lon="12.0105417"><ele>597.0</ele><time>2026-04-18T09:19:12.079Z</time></trkpt><trkpt lat="44.006865" lon="12.0106667"><ele>597.0</ele><time>2026-04-18T09:19:14.079Z</time></trkpt><trkpt lat="44.0068267" lon="12.0107767"><ele>597.0</ele><time>2026-04-18T09:19:16.079Z</time></trkpt><trkpt lat="44.0067567" lon="12.0108567"><ele>597.0</ele><time>2026-04-18T09:19:18.079Z</time></trkpt><trkpt lat="44.0066583" lon="12.0108833"><ele>597.0</ele><time>2026-04-18T09:19:20.079Z</time></trkpt><trkpt lat="44.0065467" lon="12.0109417"><ele>597.0</ele><time>2026-04-18T09:19:22.079Z</time></trkpt><trkpt lat="44.00644" lon="12.011025"><ele>596.5714285714287</ele><time>2026-04-18T09:19:24.079Z</time></trkpt><trkpt lat="44.0063767" lon="12.0110633"><ele>596.1428571428571</ele><time>2026-04-18T09:19:25.078Z</time></trkpt><trkpt lat="44.00631" lon="12.0110967"><ele>595.7142857142858</ele><time>2026-04-18T09:19:26.079Z</time></trkpt><trkpt lat="44.0062367" lon="12.0111183"><ele>595.2857142857143</ele><time>2026-04-18T09:19:27.079Z</time></trkpt><trkpt lat="44.0061617" lon="12.01113"><ele>594.8571428571429</ele><time>2026-04-18T09:19:28.079Z</time></trkpt><trkpt lat="44.006085" lon="12.01114"><ele>594.4285714285714</ele><time>2026-04-18T09:19:29.079Z</time></trkpt><trkpt lat="44.0060167" lon="12.0111617"><ele>594.0</ele><time>2026-04-18T09:19:30.079Z</time></trkpt><trkpt lat="44.0059483" lon="12.0111817"><ele>594.0</ele><time>2026-04-18T09:19:31.079Z</time></trkpt><trkpt lat="44.0058817" lon="12.0111867"><ele>594.0</ele><time>2026-04-18T09:19:32.079Z</time></trkpt><trkpt lat="44.0058133" lon="12.0111633"><ele>594.0</ele><time>2026-04-18T09:19:33.079Z</time></trkpt><trkpt lat="44.00575" lon="12.0111317"><ele>594.0</ele><time>2026-04-18T09:19:34.079Z</time></trkpt><trkpt lat="44.0056933" lon="12.0110817"><ele>594.0</ele><time>2026-04-18T09:19:35.079Z</time></trkpt><trkpt lat="44.005625" lon="12.0109683"><ele>594.0</ele><time>2026-04-18T09:19:37.079Z</time></trkpt><trkpt lat="44.0055633" lon="12.0108417"><ele>590.0</ele><time>2026-04-18T09:19:39.079Z</time></trkpt><trkpt lat="44.0054933" lon="12.0107433"><ele>586.0</ele><time>2026-04-18T09:19:41.078Z</time></trkpt><trkpt lat="44.0053867" lon="12.0106883"><ele>582.0</ele><time>2026-04-18T09:19:43.079Z</time></trkpt><trkpt lat="44.005305" lon="12.01065"><ele>578.0</ele><time>2026-04-18T09:19:45.079Z</time></trkpt><trkpt lat="44.00523" lon="12.0106033"><ele>574.0</ele><time>2026-04-18T09:19:47.079Z</time></trkpt><trkpt lat="44.0051417" lon="12.0105733"><ele>574.0</ele><time>2026-04-18T09:19:49.079Z</time></trkpt><trkpt lat="44.005035" lon="12.01055"><ele>574.0</ele><time>2026-04-18T09:19:51.079Z</time></trkpt><trkpt lat="44.0049433" lon="12.0105017"><ele>574.0</ele><time>2026-04-18T09:19:53.078Z</time></trkpt><trkpt lat="44.004845" lon="12.0104183"><ele>574.0</ele><time>2026-04-18T09:19:55.079Z</time></trkpt><trkpt lat="44.004775" lon="12.0103233"><ele>574.0</ele><time>2026-04-18T09:19:57.079Z</time></trkpt><trkpt lat="44.00473" lon="12.0102533"><ele>574.2</ele><time>2026-04-18T09:19:58.078Z</time></trkpt><trkpt lat="44.00468" lon="12.010175"><ele>574.4</ele><time>2026-04-18T09:19:59.079Z</time></trkpt><trkpt lat="44.0046317" lon="12.0101033"><ele>574.6</ele><time>2026-04-18T09:20:00.079Z</time></trkpt><trkpt lat="44.0045467" lon="12.0100117"><ele>574.8</ele><time>2026-04-18T09:20:02.079Z</time></trkpt><trkpt lat="44.0044683" lon="12.0099483"><ele>575.0</ele><time>2026-04-18T09:20:04.078Z</time></trkpt><trkpt lat="44.0043683" lon="12.00988"><ele>573.6</ele><time>2026-04-18T09:20:06.079Z</time></trkpt><trkpt lat="44.0042617" lon="12.0098233"><ele>572.2</ele><time>2026-04-18T09:20:08.079Z</time></trkpt><trkpt lat="44.004155" lon="12.0097933"><ele>570.8</ele><time>2026-04-18T09:20:10.079Z</time></trkpt><trkpt lat="44.0040483" lon="12.00982"><ele>569.4</ele><time>2026-04-18T09:20:12.079Z</time></trkpt><trkpt lat="44.00395" lon="12.0098667"><ele>568.0</ele><time>2026-04-18T09:20:14.078Z</time></trkpt><trkpt lat="44.003865" lon="12.0098833"><ele>567.3333333333334</ele><time>2026-04-18T09:20:16.079Z</time></trkpt><trkpt lat="44.0037683" lon="12.00988"><ele>566.6666666666667</ele><time>2026-04-18T09:20:18.079Z</time></trkpt><trkpt lat="44.0036867" lon="12.0098183"><ele>566.0</ele><time>2026-04-18T09:20:20.079Z</time></trkpt><trkpt lat="44.003665" lon="12.00973"><ele>565.3333333333334</ele><time>2026-04-18T09:20:22.078Z</time></trkpt><trkpt lat="44.0036617" lon="12.00964"><ele>564.6666666666666</ele><time>2026-04-18T09:20:24.079Z</time></trkpt><trkpt lat="44.00362" lon="12.00954"><ele>564.0</ele><time>2026-04-18T09:20:26.079Z</time></trkpt><trkpt lat="44.0035567" lon="12.00948"><ele>564.0</ele><time>2026-04-18T09:20:28.079Z</time></trkpt><trkpt lat="44.0034717" lon="12.0094333"><ele>564.0</ele><time>2026-04-18T09:20:30.079Z</time></trkpt><trkpt lat="44.0033867" lon="12.0094"><ele>564.0</ele><time>2026-04-18T09:20:32.079Z</time></trkpt><trkpt lat="44.0032983" lon="12.0093817"><ele>564.0</ele><time>2026-04-18T09:20:34.079Z</time></trkpt><trkpt lat="44.003235" lon="12.009405"><ele>564.0</ele><time>2026-04-18T09:20:35.079Z</time></trkpt><trkpt lat="44.0031117" lon="12.0094517"><ele>561.8333333333334</ele><time>2026-04-18T09:20:37.079Z</time></trkpt><trkpt lat="44.0030383" lon="12.0094567"><ele>559.6666666666666</ele><time>2026-04-18T09:20:38.079Z</time></trkpt><trkpt lat="44.0029633" lon="12.0094417"><ele>557.5</ele><time>2026-04-18T09:20:39.079Z</time></trkpt><trkpt lat="44.0028883" lon="12.0094217"><ele>555.3333333333333</ele><time>2026-04-18T09:20:40.079Z</time></trkpt><trkpt lat="44.002825" lon="12.0094"><ele>553.1666666666666</ele><time>2026-04-18T09:20:41.079Z</time></trkpt><trkpt lat="44.0027017" lon="12.0093683"><ele>551.0</ele><time>2026-04-18T09:20:43.079Z</time></trkpt><trkpt lat="44.0026317" lon="12.0093567"><ele>551.0</ele><time>2026-04-18T09:20:44.079Z</time></trkpt><trkpt lat="44.0025617" lon="12.0093417"><ele>551.0</ele><time>2026-04-18T09:20:45.079Z</time></trkpt><trkpt lat="44.00249" lon="12.00932"><ele>551.0</ele><time>2026-04-18T09:20:46.079Z</time></trkpt><trkpt lat="44.0024133" lon="12.0093067"><ele>551.0</ele><time>2026-04-18T09:20:47.079Z</time></trkpt><trkpt lat="44.00234" lon="12.009295"><ele>551.0</ele><time>2026-04-18T09:20:48.079Z</time></trkpt><trkpt lat="44.0022217" lon="12.00925"><ele>551.0</ele><time>2026-04-18T09:20:50.078Z</time></trkpt><trkpt lat="44.0021683" lon="12.0092033"><ele>551.0</ele><time>2026-04-18T09:20:51.079Z</time></trkpt><trkpt lat="44.0020967" lon="12.0091367"><ele>551.0</ele><time>2026-04-18T09:20:53.079Z</time></trkpt><trkpt lat="44.0020217" lon="12.0090567"><ele>551.0</ele><time>2026-04-18T09:21:27.079Z</time></trkpt><trkpt lat="44.0019617" lon="12.009005"><ele>551.0</ele><time>2026-04-18T09:21:28.079Z</time></trkpt><trkpt lat="44.0018783" lon="12.008935"><ele>551.0</ele><time>2026-04-18T09:21:29.078Z</time></trkpt><trkpt lat="44.0017767" lon="12.0088733"><ele>551.0</ele><time>2026-04-18T09:21:30.078Z</time></trkpt><trkpt lat="44.0016833" lon="12.008825"><ele>551.0</ele><time>2026-04-18T09:21:31.078Z</time></trkpt><trkpt lat="44.0016083" lon="12.008775"><ele>551.0</ele><time>2026-04-18T09:21:32.078Z</time></trkpt><trkpt lat="44.0015467" lon="12.008715"><ele>551.0</ele><time>2026-04-18T09:21:33.08Z</time></trkpt><trkpt lat="44.0014867" lon="12.0086583"><ele>551.0</ele><time>2026-04-18T09:21:34.079Z</time></trkpt><trkpt lat="44.001435" lon="12.0085967"><ele>551.0</ele><time>2026-04-18T09:21:35.08Z</time></trkpt><trkpt lat="44.0013867" lon="12.00854"><ele>553.8333333333333</ele><time>2026-04-18T09:21:36.079Z</time></trkpt><trkpt lat="44.0013333" lon="12.0084917"><ele>556.6666666666666</ele><time>2026-04-18T09:21:37.08Z</time></trkpt><trkpt lat="44.0012783" lon="12.008435"><ele>559.5</ele><time>2026-04-18T09:21:38.079Z</time></trkpt><trkpt lat="44.001215" lon="12.0083733"><ele>562.3333333333334</ele><time>2026-04-18T09:21:39.08Z</time></trkpt><trkpt lat="44.0011467" lon="12.00831"><ele>565.1666666666667</ele><time>2026-04-18T09:21:40.08Z</time></trkpt><trkpt lat="44.0010783" lon="12.0082417"><ele>568.0</ele><time>2026-04-18T09:21:41.079Z</time></trkpt><trkpt lat="44.0010167" lon="12.0081617"><ele>568.3333333333334</ele><time>2026-04-18T09:21:42.08Z</time></trkpt><trkpt lat="44.0009667" lon="12.0080833"><ele>568.6666666666667</ele><time>2026-04-18T09:21:43.079Z</time></trkpt><trkpt lat="44.0009283" lon="12.008005"><ele>569.0</ele><time>2026-04-18T09:21:44.08Z</time></trkpt><trkpt lat="44.00088" lon="12.0078667"><ele>569.3333333333334</ele><time>2026-04-18T09:21:46.079Z</time></trkpt><trkpt lat="44.0007933" lon="12.007745"><ele>569.6666666666666</ele><time>2026-04-18T09:21:48.08Z</time></trkpt><trkpt lat="44.00074" lon="12.00768"><ele>570.0</ele><time>2026-04-18T09:21:49.08Z</time></trkpt><trkpt lat="44.0006817" lon="12.0075917"><ele>572.1666666666666</ele><time>2026-04-18T09:21:50.08Z</time></trkpt><trkpt lat="44.0006283" lon="12.0074967"><ele>574.3333333333334</ele><time>2026-04-18T09:21:51.079Z</time></trkpt><trkpt lat="44.00057" lon="12.0074117"><ele>576.5</ele><time>2026-04-18T09:21:52.08Z</time></trkpt><trkpt lat="44.0005183" lon="12.007335"><ele>578.6666666666667</ele><time>2026-04-18T09:21:53.08Z</time></trkpt><trkpt lat="44.0004617" lon="12.007275"><ele>580.8333333333334</ele><time>2026-04-18T09:21:54.08Z</time></trkpt><trkpt lat="44.00039" lon="12.00723"><ele>583.0</ele><time>2026-04-18T09:21:55.08Z</time></trkpt><trkpt lat="44.0003133" lon="12.00721"><ele>583.1428571428572</ele><time>2026-04-18T09:21:56.08Z</time></trkpt><trkpt lat="44.0002483" lon="12.0071867"><ele>583.2857142857143</ele><time>2026-04-18T09:21:57.08Z</time></trkpt><trkpt lat="44.0001833" lon="12.0071567"><ele>583.4285714285714</ele><time>2026-04-18T09:21:58.08Z</time></trkpt><trkpt lat="44.000125" lon="12.007115"><ele>583.5714285714287</ele><time>2026-04-18T09:21:59.08Z</time></trkpt><trkpt lat="44.0000683" lon="12.007065"><ele>583.7142857142858</ele><time>2026-04-18T09:22:00.079Z</time></trkpt><trkpt lat="44.00002" lon="12.0070083"><ele>583.8571428571429</ele><time>2026-04-18T09:22:01.079Z</time></trkpt><trkpt lat="43.9999767" lon="12.0069383"><ele>584.0</ele><time>2026-04-18T09:22:02.08Z</time></trkpt><trkpt lat="43.9999417" lon="12.006855"><ele>584.0</ele><time>2026-04-18T09:22:03.08Z</time></trkpt><trkpt lat="43.9998917" lon="12.0066933"><ele>584.0</ele><time>2026-04-18T09:22:05.08Z</time></trkpt><trkpt lat="43.99985" lon="12.0065517"><ele>584.0</ele><time>2026-04-18T09:22:07.08Z</time></trkpt><trkpt lat="43.99982" lon="12.0064483"><ele>584.0</ele><time>2026-04-18T09:22:09.079Z</time></trkpt><trkpt lat="43.9997783" lon="12.0063567"><ele>584.0</ele><time>2026-04-18T09:22:11.08Z</time></trkpt><trkpt lat="43.9996967" lon="12.0062683"><ele>583.6666666666666</ele><time>2026-04-18T09:22:13.08Z</time></trkpt><trkpt lat="43.9996" lon="12.0061533"><ele>583.3333333333333</ele><time>2026-04-18T09:22:15.079Z</time></trkpt><trkpt lat="43.9995383" lon="12.006095"><ele>583.0</ele><time>2026-04-18T09:22:16.08Z</time></trkpt><trkpt lat="43.9994717" lon="12.0060333"><ele>582.6666666666666</ele><time>2026-04-18T09:22:17.08Z</time></trkpt><trkpt lat="43.9993967" lon="12.0059783"><ele>582.3333333333334</ele><time>2026-04-18T09:22:18.079Z</time></trkpt><trkpt lat="43.9993267" lon="12.005925"><ele>582.0</ele><time>2026-04-18T09:22:19.079Z</time></trkpt><trkpt lat="43.99927" lon="12.0058733"><ele>580.6666666666666</ele><time>2026-04-18T09:22:20.08Z</time></trkpt><trkpt lat="43.9992117" lon="12.0058167"><ele>579.3333333333334</ele><time>2026-04-18T09:22:21.08Z</time></trkpt><trkpt lat="43.9991533" lon="12.0057517"><ele>578.0</ele><time>2026-04-18T09:22:22.08Z</time></trkpt><trkpt lat="43.9990933" lon="12.0056633"><ele>576.6666666666667</ele><time>2026-04-18T09:22:23.08Z</time></trkpt><trkpt lat="43.9990283" lon="12.0055817"><ele>575.3333333333334</ele><time>2026-04-18T09:22:24.08Z</time></trkpt><trkpt lat="43.998965" lon="12.0055067"><ele>574.0</ele><time>2026-04-18T09:22:25.079Z</time></trkpt><trkpt lat="43.9988933" lon="12.00545"><ele>574.0</ele><time>2026-04-18T09:22:26.079Z</time></trkpt><trkpt lat="43.9988167" lon="12.0053933"><ele>574.0</ele><time>2026-04-18T09:22:27.08Z</time></trkpt><trkpt lat="43.9987383" lon="12.0053467"><ele>574.0</ele><time>2026-04-18T09:22:28.079Z</time></trkpt><trkpt lat="43.9986533" lon="12.00531"><ele>574.0</ele><time>2026-04-18T09:22:29.08Z</time></trkpt><trkpt lat="43.9985683" lon="12.0052717"><ele>574.0</ele><time>2026-04-18T09:22:30.08Z</time></trkpt><trkpt lat="43.99848" lon="12.0052417"><ele>574.0</ele><time>2026-04-18T09:22:31.079Z</time></trkpt><trkpt lat="43.9983883" lon="12.0052067"><ele>574.8</ele><time>2026-04-18T09:22:32.08Z</time></trkpt><trkpt lat="43.9982833" lon="12.0051767"><ele>575.5999999999999</ele><time>2026-04-18T09:22:33.08Z</time></trkpt><trkpt lat="43.998185" lon="12.0051433"><ele>576.4</ele><time>2026-04-18T09:22:34.08Z</time></trkpt><trkpt lat="43.998085" lon="12.005095"><ele>577.1999999999999</ele><time>2026-04-18T09:22:35.08Z</time></trkpt><trkpt lat="43.9979867" lon="12.0050317"><ele>578.0</ele><time>2026-04-18T09:22:36.079Z</time></trkpt><trkpt lat="43.99789" lon="12.00497"><ele>575.75</ele><time>2026-04-18T09:22:37.08Z</time></trkpt><trkpt lat="43.9977683" lon="12.0049183"><ele>573.5</ele><time>2026-04-18T09:22:38.08Z</time></trkpt><trkpt lat="43.997645" lon="12.0048617"><ele>571.25</ele><time>2026-04-18T09:22:39.08Z</time></trkpt><trkpt lat="43.9975217" lon="12.0048"><ele>569.0</ele><time>2026-04-18T09:22:40.08Z</time></trkpt><trkpt lat="43.9973917" lon="12.0047383"><ele>569.0</ele><time>2026-04-18T09:22:41.08Z</time></trkpt><trkpt lat="43.9972633" lon="12.0046867"><ele>569.0</ele><time>2026-04-18T09:22:42.08Z</time></trkpt><trkpt lat="43.9971417" lon="12.0046267"><ele>569.0</ele><time>2026-04-18T09:22:43.08Z</time></trkpt><trkpt lat="43.997025" lon="12.0045567"><ele>569.0</ele><time>2026-04-18T09:22:44.079Z</time></trkpt><trkpt lat="43.9969033" lon="12.004485"><ele>569.0</ele><time>2026-04-18T09:22:45.08Z</time></trkpt><trkpt lat="43.9967883" lon="12.0044217"><ele>569.0</ele><time>2026-04-18T09:22:46.08Z</time></trkpt><trkpt lat="43.996675" lon="12.004365"><ele>569.0</ele><time>2026-04-18T09:22:47.08Z</time></trkpt><trkpt lat="43.9965667" lon="12.0043067"><ele>569.0</ele><time>2026-04-18T09:22:48.08Z</time></trkpt><trkpt lat="43.9964633" lon="12.0042333"><ele>568.5</ele><time>2026-04-18T09:22:49.08Z</time></trkpt><trkpt lat="43.9963467" lon="12.0041617"><ele>568.0</ele><time>2026-04-18T09:22:50.079Z</time></trkpt><trkpt lat="43.9962383" lon="12.0040917"><ele>567.5</ele><time>2026-04-18T09:22:51.08Z</time></trkpt><trkpt lat="43.9961383" lon="12.0040467"><ele>567.0</ele><time>2026-04-18T09:22:52.08Z</time></trkpt><trkpt lat="43.99604" lon="12.0040017"><ele>567.0</ele><time>2026-04-18T09:22:53.08Z</time></trkpt><trkpt lat="43.9959333" lon="12.00395"><ele>567.0</ele><time>2026-04-18T09:22:54.08Z</time></trkpt><trkpt lat="43.99584" lon="12.0038867"><ele>567.0</ele><time>2026-04-18T09:22:55.08Z</time></trkpt><trkpt lat="43.9957433" lon="12.0038217"><ele>567.0</ele><time>2026-04-18T09:22:56.079Z</time></trkpt><trkpt lat="43.9956467" lon="12.0037633"><ele>567.0</ele><time>2026-04-18T09:22:57.08Z</time></trkpt><trkpt lat="43.9955433" lon="12.0037067"><ele>573.8000000000001</ele><time>2026-04-18T09:22:58.079Z</time></trkpt><trkpt lat="43.99544" lon="12.0036517"><ele>580.6</ele><time>2026-04-18T09:22:59.08Z</time></trkpt><trkpt lat="43.9953417" lon="12.00362"><ele>587.4000000000001</ele><time>2026-04-18T09:23:00.08Z</time></trkpt><trkpt lat="43.99524" lon="12.0036067"><ele>594.2</ele><time>2026-04-18T09:23:01.079Z</time></trkpt><trkpt lat="43.9951333" lon="12.0036217"><ele>601.0</ele><time>2026-04-18T09:23:02.08Z</time></trkpt><trkpt lat="43.9950467" lon="12.0036517"><ele>606.6</ele><time>2026-04-18T09:23:03.08Z</time></trkpt><trkpt lat="43.9949733" lon="12.00368"><ele>612.2</ele><time>2026-04-18T09:23:04.08Z</time></trkpt><trkpt lat="43.9949033" lon="12.0036783"><ele>617.8</ele><time>2026-04-18T09:23:05.08Z</time></trkpt><trkpt lat="43.994785" lon="12.0035983"><ele>623.4</ele><time>2026-04-18T09:23:07.08Z</time></trkpt><trkpt lat="43.9947183" lon="12.0035317"><ele>629.0</ele><time>2026-04-18T09:23:08.08Z</time></trkpt><trkpt lat="43.99464" lon="12.0034533"><ele>629.0</ele><time>2026-04-18T09:23:09.08Z</time></trkpt><trkpt lat="43.9945683" lon="12.0033917"><ele>629.0</ele><time>2026-04-18T09:23:10.08Z</time></trkpt><trkpt lat="43.9944983" lon="12.0033533"><ele>629.0</ele><time>2026-04-18T09:23:11.079Z</time></trkpt><trkpt lat="43.9943733" lon="12.003365"><ele>629.0</ele><time>2026-04-18T09:23:13.079Z</time></trkpt><trkpt lat="43.99431" lon="12.003405"><ele>629.0</ele><time>2026-04-18T09:23:14.08Z</time></trkpt><trkpt lat="43.994235" lon="12.00346"><ele>629.0</ele><time>2026-04-18T09:23:15.08Z</time></trkpt><trkpt lat="43.9941417" lon="12.00352"><ele>630.6</ele><time>2026-04-18T09:23:16.078Z</time></trkpt><trkpt lat="43.9940467" lon="12.0035767"><ele>632.2</ele><time>2026-04-18T09:23:17.08Z</time></trkpt><trkpt lat="43.99397" lon="12.0036167"><ele>633.8000000000001</ele><time>2026-04-18T09:23:18.079Z</time></trkpt><trkpt lat="43.993865" lon="12.0036133"><ele>635.4</ele><time>2026-04-18T09:23:20.08Z</time></trkpt><trkpt lat="43.9937617" lon="12.0034717"><ele>637.0</ele><time>2026-04-18T09:23:22.08Z</time></trkpt><trkpt lat="43.99369" lon="12.003395"><ele>637.0</ele><time>2026-04-18T09:23:23.08Z</time></trkpt><trkpt lat="43.9936033" lon="12.0033333"><ele>637.0</ele><time>2026-04-18T09:23:24.08Z</time></trkpt><trkpt lat="43.993515" lon="12.003295"><ele>637.0</ele><time>2026-04-18T09:23:25.08Z</time></trkpt><trkpt lat="43.993425" lon="12.0032633"><ele>637.0</ele><time>2026-04-18T09:23:26.08Z</time></trkpt><trkpt lat="43.9933383" lon="12.0032367"><ele>637.0</ele><time>2026-04-18T09:23:27.08Z</time></trkpt><trkpt lat="43.99326" lon="12.0031833"><ele>639.4000000000001</ele><time>2026-04-18T09:23:28.08Z</time></trkpt><trkpt lat="43.9931967" lon="12.0030917"><ele>641.8000000000001</ele><time>2026-04-18T09:23:29.08Z</time></trkpt><trkpt lat="43.9931433" lon="12.0029733"><ele>644.2</ele><time>2026-04-18T09:23:30.079Z</time></trkpt><trkpt lat="43.99309" lon="12.00284"><ele>646.6</ele><time>2026-04-18T09:23:31.08Z</time></trkpt><trkpt lat="43.9930383" lon="12.0027167"><ele>649.0</ele><time>2026-04-18T09:23:32.079Z</time></trkpt><trkpt lat="43.9929833" lon="12.002595"><ele>651.8000000000001</ele><time>2026-04-18T09:23:33.08Z</time></trkpt><trkpt lat="43.992925" lon="12.0024883"><ele>654.6</ele><time>2026-04-18T09:23:34.08Z</time></trkpt><trkpt lat="43.99283" lon="12.0024083"><ele>657.4</ele><time>2026-04-18T09:23:35.079Z</time></trkpt><trkpt lat="43.9927367" lon="12.0023183"><ele>660.2</ele><time>2026-04-18T09:23:36.08Z</time></trkpt><trkpt lat="43.99264" lon="12.0022283"><ele>663.0</ele><time>2026-04-18T09:23:37.079Z</time></trkpt><trkpt lat="43.9925467" lon="12.0021167"><ele>658.4</ele><time>2026-04-18T09:23:38.08Z</time></trkpt><trkpt lat="43.9924583" lon="12.00201"><ele>653.8</ele><time>2026-04-18T09:23:39.08Z</time></trkpt><trkpt lat="43.992375" lon="12.001905"><ele>649.2</ele><time>2026-04-18T09:23:40.079Z</time></trkpt><trkpt lat="43.99231" lon="12.0017933"><ele>644.6</ele><time>2026-04-18T09:23:41.08Z</time></trkpt><trkpt lat="43.9922467" lon="12.001705"><ele>640.0</ele><time>2026-04-18T09:23:42.08Z</time></trkpt><trkpt lat="43.992185" lon="12.001635"><ele>639.5</ele><time>2026-04-18T09:23:43.08Z</time></trkpt><trkpt lat="43.9921333" lon="12.00158"><ele>639.0</ele><time>2026-04-18T09:23:44.08Z</time></trkpt><trkpt lat="43.992085" lon="12.0014983"><ele>638.5</ele><time>2026-04-18T09:23:46.08Z</time></trkpt><trkpt lat="43.9920533" lon="12.0013983"><ele>638.0</ele><time>2026-04-18T09:23:49.08Z</time></trkpt><trkpt lat="43.9920267" lon="12.0012817"><ele>637.5</ele><time>2026-04-18T09:23:52.08Z</time></trkpt><trkpt lat="43.991995" lon="12.0012"><ele>637.0</ele><time>2026-04-18T09:23:54.08Z</time></trkpt><trkpt lat="43.99193" lon="12.0010717"><ele>637.0</ele><time>2026-04-18T09:23:56.08Z</time></trkpt><trkpt lat="43.9918533" lon="12.0009417"><ele>637.0</ele><time>2026-04-18T09:23:58.08Z</time></trkpt><trkpt lat="43.9918083" lon="12.0008767"><ele>637.0</ele><time>2026-04-18T09:23:59.08Z</time></trkpt><trkpt lat="43.9917067" lon="12.00078"><ele>637.0</ele><time>2026-04-18T09:24:01.08Z</time></trkpt><trkpt lat="43.99158" lon="12.000715"><ele>637.0</ele><time>2026-04-18T09:24:03.08Z</time></trkpt><trkpt lat="43.9914933" lon="12.0006817"><ele>632.8333333333334</ele><time>2026-04-18T09:24:04.08Z</time></trkpt><trkpt lat="43.9914017" lon="12.0006383"><ele>628.6666666666667</ele><time>2026-04-18T09:24:05.079Z</time></trkpt><trkpt lat="43.9913167" lon="12.0005983"><ele>624.5</ele><time>2026-04-18T09:24:06.079Z</time></trkpt><trkpt lat="43.9912367" lon="12.0005567"><ele>620.3333333333334</ele><time>2026-04-18T09:24:07.08Z</time></trkpt><trkpt lat="43.99116" lon="12.0004983"><ele>616.1666666666666</ele><time>2026-04-18T09:24:08.08Z</time></trkpt><trkpt lat="43.9911" lon="12.0004167"><ele>612.0</ele><time>2026-04-18T09:24:09.08Z</time></trkpt><trkpt lat="43.9910383" lon="12.0003283"><ele>612.0</ele><time>2026-04-18T09:24:10.08Z</time></trkpt><trkpt lat="43.99098" lon="12.0002417"><ele>612.0</ele><time>2026-04-18T09:24:11.08Z</time></trkpt><trkpt lat="43.9909217" lon="12.0001533"><ele>612.0</ele><time>2026-04-18T09:24:12.079Z</time></trkpt><trkpt lat="43.9908567" lon="12.0000767"><ele>612.0</ele><time>2026-04-18T09:24:13.08Z</time></trkpt><trkpt lat="43.9907833" lon="11.9999967"><ele>612.0</ele><time>2026-04-18T09:24:14.08Z</time></trkpt><trkpt lat="43.99071" lon="11.9999067"><ele>612.0</ele><time>2026-04-18T09:24:15.08Z</time></trkpt><trkpt lat="43.9906367" lon="11.9998083"><ele>613.6</ele><time>2026-04-18T09:24:16.08Z</time></trkpt><trkpt lat="43.9905617" lon="11.9997167"><ele>615.2</ele><time>2026-04-18T09:24:17.08Z</time></trkpt><trkpt lat="43.9904833" lon="11.999625"><ele>616.8</ele><time>2026-04-18T09:24:18.08Z</time></trkpt><trkpt lat="43.99041" lon="11.9995433"><ele>618.4</ele><time>2026-04-18T09:24:19.079Z</time></trkpt><trkpt lat="43.990335" lon="11.9994683"><ele>620.0</ele><time>2026-04-18T09:24:20.08Z</time></trkpt><trkpt lat="43.990265" lon="11.9993983"><ele>620.0</ele><time>2026-04-18T09:24:21.08Z</time></trkpt><trkpt lat="43.9901867" lon="11.9993267"><ele>620.0</ele><time>2026-04-18T09:24:22.08Z</time></trkpt><trkpt lat="43.9900967" lon="11.9992567"><ele>620.0</ele><time>2026-04-18T09:24:23.08Z</time></trkpt><trkpt lat="43.9900033" lon="11.9992133"><ele>620.0</ele><time>2026-04-18T09:24:24.08Z</time></trkpt><trkpt lat="43.9899133" lon="11.9991717"><ele>620.0</ele><time>2026-04-18T09:24:25.08Z</time></trkpt><trkpt lat="43.9898317" lon="11.9991283"><ele>617.0</ele><time>2026-04-18T09:24:26.08Z</time></trkpt><trkpt lat="43.9897517" lon="11.9990783"><ele>614.0</ele><time>2026-04-18T09:24:27.08Z</time></trkpt><trkpt lat="43.9896683" lon="11.9990167"><ele>611.0</ele><time>2026-04-18T09:24:28.08Z</time></trkpt><trkpt lat="43.98959" lon="11.998945"><ele>608.0</ele><time>2026-04-18T09:24:29.08Z</time></trkpt><trkpt lat="43.989515" lon="11.99887"><ele>605.0</ele><time>2026-04-18T09:24:30.08Z</time></trkpt><trkpt lat="43.9894433" lon="11.998785"><ele>605.0</ele><time>2026-04-18T09:24:31.08Z</time></trkpt><trkpt lat="43.9893617" lon="11.998685"><ele>605.0</ele><time>2026-04-18T09:24:32.08Z</time></trkpt><trkpt lat="43.9892783" lon="11.9985983"><ele>605.0</ele><time>2026-04-18T09:24:33.079Z</time></trkpt><trkpt lat="43.98919" lon="11.99852"><ele>605.0</ele><time>2026-04-18T09:24:34.08Z</time></trkpt><trkpt lat="43.9891167" lon="11.9984517"><ele>605.0</ele><time>2026-04-18T09:24:35.08Z</time></trkpt><trkpt lat="43.989055" lon="11.9983733"><ele>606.8333333333333</ele><time>2026-04-18T09:24:36.08Z</time></trkpt><trkpt lat="43.9890167" lon="11.9982917"><ele>608.6666666666666</ele><time>2026-04-18T09:24:37.08Z</time></trkpt><trkpt lat="43.9889717" lon="11.99819"><ele>610.5</ele><time>2026-04-18T09:24:38.08Z</time></trkpt><trkpt lat="43.9889283" lon="11.9980633"><ele>612.3333333333334</ele><time>2026-04-18T09:24:39.08Z</time></trkpt><trkpt lat="43.98889" lon="11.9979383"><ele>614.1666666666667</ele><time>2026-04-18T09:24:40.079Z</time></trkpt><trkpt lat="43.98885" lon="11.9978317"><ele>616.0</ele><time>2026-04-18T09:24:41.08Z</time></trkpt><trkpt lat="43.9888067" lon="11.997735"><ele>616.0</ele><time>2026-04-18T09:24:42.079Z</time></trkpt><trkpt lat="43.9887633" lon="11.9976517"><ele>616.0</ele><time>2026-04-18T09:24:43.079Z</time></trkpt><trkpt lat="43.98871" lon="11.9975583"><ele>616.0</ele><time>2026-04-18T09:24:44.08Z</time></trkpt><trkpt lat="43.9886567" lon="11.9974617"><ele>616.0</ele><time>2026-04-18T09:24:45.08Z</time></trkpt><trkpt lat="43.988605" lon="11.9973483"><ele>616.0</ele><time>2026-04-18T09:24:46.08Z</time></trkpt><trkpt lat="43.9885567" lon="11.997225"><ele>616.0</ele><time>2026-04-18T09:24:47.08Z</time></trkpt><trkpt lat="43.9885083" lon="11.9970917"><ele>617.5</ele><time>2026-04-18T09:24:48.08Z</time></trkpt><trkpt lat="43.9884667" lon="11.99697"><ele>619.0</ele><time>2026-04-18T09:24:49.08Z</time></trkpt><trkpt lat="43.9884317" lon="11.996865"><ele>620.5</ele><time>2026-04-18T09:24:50.08Z</time></trkpt><trkpt lat="43.9883983" lon="11.9967683"><ele>622.0</ele><time>2026-04-18T09:24:51.08Z</time></trkpt><trkpt lat="43.9883717" lon="11.9966883"><ele>623.5</ele><time>2026-04-18T09:24:52.08Z</time></trkpt><trkpt lat="43.9883117" lon="11.9965817"><ele>625.0</ele><time>2026-04-18T09:24:54.08Z</time></trkpt><trkpt lat="43.988235" lon="11.99648"><ele>621.2</ele><time>2026-04-18T09:24:56.08Z</time></trkpt><trkpt lat="43.9881433" lon="11.9963917"><ele>617.4</ele><time>2026-04-18T09:24:58.08Z</time></trkpt><trkpt lat="43.9880483" lon="11.9962867"><ele>613.6</ele><time>2026-04-18T09:25:00.079Z</time></trkpt><trkpt lat="43.9879883" lon="11.9962133"><ele>609.8</ele><time>2026-04-18T09:25:01.08Z</time></trkpt><trkpt lat="43.9879267" lon="11.9961317"><ele>606.0</ele><time>2026-04-18T09:25:02.08Z</time></trkpt><trkpt lat="43.98787" lon="11.996055"><ele>606.0</ele><time>2026-04-18T09:25:03.079Z</time></trkpt><trkpt lat="43.9878183" lon="11.9959683"><ele>606.0</ele><time>2026-04-18T09:25:04.08Z</time></trkpt><trkpt lat="43.9877583" lon="11.9958917"><ele>606.0</ele><time>2026-04-18T09:25:05.08Z</time></trkpt><trkpt lat="43.9877083" lon="11.99583"><ele>606.0</ele><time>2026-04-18T09:25:06.079Z</time></trkpt><trkpt lat="43.9876583" lon="11.9957617"><ele>606.0</ele><time>2026-04-18T09:25:07.08Z</time></trkpt><trkpt lat="43.9875983" lon="11.99569"><ele>606.0</ele><time>2026-04-18T09:25:08.08Z</time></trkpt><trkpt lat="43.9875433" lon="11.9956067"><ele>604.6666666666666</ele><time>2026-04-18T09:25:09.08Z</time></trkpt><trkpt lat="43.987485" lon="11.995535"><ele>603.3333333333334</ele><time>2026-04-18T09:25:10.079Z</time></trkpt><trkpt lat="43.9874383" lon="11.9954617"><ele>602.0</ele><time>2026-04-18T09:25:11.08Z</time></trkpt><trkpt lat="43.9874017" lon="11.9953833"><ele>600.6666666666667</ele><time>2026-04-18T09:25:12.08Z</time></trkpt><trkpt lat="43.98734" lon="11.9952467"><ele>599.3333333333334</ele><time>2026-04-18T09:25:14.08Z</time></trkpt><trkpt lat="43.9872683" lon="11.9951267"><ele>598.0</ele><time>2026-04-18T09:25:16.079Z</time></trkpt><trkpt lat="43.9871867" lon="11.9950167"><ele>599.1666666666667</ele><time>2026-04-18T09:25:18.08Z</time></trkpt><trkpt lat="43.9871033" lon="11.994915"><ele>600.3333333333334</ele><time>2026-04-18T09:25:20.08Z</time></trkpt><trkpt lat="43.987045" lon="11.994865"><ele>601.5</ele><time>2026-04-18T09:25:21.08Z</time></trkpt><trkpt lat="43.98699" lon="11.994815"><ele>602.6666666666666</ele><time>2026-04-18T09:25:22.08Z</time></trkpt><trkpt lat="43.986915" lon="11.99472"><ele>603.8333333333333</ele><time>2026-04-18T09:25:24.079Z</time></trkpt><trkpt lat="43.9868633" lon="11.99466"><ele>605.0</ele><time>2026-04-18T09:25:25.08Z</time></trkpt><trkpt lat="43.98681" lon="11.994605"><ele>605.0</ele><time>2026-04-18T09:25:26.08Z</time></trkpt><trkpt lat="43.9867533" lon="11.9945483"><ele>605.0</ele><time>2026-04-18T09:25:27.08Z</time></trkpt><trkpt lat="43.9866567" lon="11.9944567"><ele>605.0</ele><time>2026-04-18T09:25:29.08Z</time></trkpt><trkpt lat="43.9865583" lon="11.994375"><ele>605.0</ele><time>2026-04-18T09:25:31.08Z</time></trkpt><trkpt lat="43.9864733" lon="11.994305"><ele>605.0</ele><time>2026-04-18T09:25:33.08Z</time></trkpt><trkpt lat="43.9863583" lon="11.99423"><ele>610.3333333333333</ele><time>2026-04-18T09:25:35.08Z</time></trkpt><trkpt lat="43.9862783" lon="11.99414"><ele>615.6666666666666</ele><time>2026-04-18T09:25:37.08Z</time></trkpt><trkpt lat="43.986285" lon="11.9940133"><ele>621.0</ele><time>2026-04-18T09:25:39.08Z</time></trkpt><trkpt lat="43.98626" lon="11.9938683"><ele>626.3333333333334</ele><time>2026-04-18T09:25:41.079Z</time></trkpt><trkpt lat="43.9862367" lon="11.9937833"><ele>631.6666666666667</ele><time>2026-04-18T09:25:42.079Z</time></trkpt><trkpt lat="43.9862183" lon="11.9936867"><ele>637.0</ele><time>2026-04-18T09:25:43.08Z</time></trkpt><trkpt lat="43.9861917" lon="11.99358"><ele>637.0</ele><time>2026-04-18T09:25:44.079Z</time></trkpt><trkpt lat="43.9861617" lon="11.9934867"><ele>637.0</ele><time>2026-04-18T09:25:45.08Z</time></trkpt><trkpt lat="43.98612" lon="11.9934067"><ele>637.0</ele><time>2026-04-18T09:25:46.08Z</time></trkpt><trkpt lat="43.986065" lon="11.9933267"><ele>637.0</ele><time>2026-04-18T09:25:47.08Z</time></trkpt><trkpt lat="43.9860283" lon="11.9932367"><ele>637.0</ele><time>2026-04-18T09:25:48.079Z</time></trkpt><trkpt lat="43.9859833" lon="11.9931467"><ele>637.0</ele><time>2026-04-18T09:25:49.08Z</time></trkpt><trkpt lat="43.9859367" lon="11.9930417"><ele>638.1428571428571</ele><time>2026-04-18T09:25:50.079Z</time></trkpt><trkpt lat="43.9858817" lon="11.9929617"><ele>639.2857142857142</ele><time>2026-04-18T09:25:51.08Z</time></trkpt><trkpt lat="43.98583" lon="11.9928983"><ele>640.4285714285714</ele><time>2026-04-18T09:25:52.08Z</time></trkpt><trkpt lat="43.9857717" lon="11.9928633"><ele>641.5714285714286</ele><time>2026-04-18T09:25:53.08Z</time></trkpt><trkpt lat="43.9857133" lon="11.9928217"><ele>642.7142857142857</ele><time>2026-04-18T09:25:54.08Z</time></trkpt><trkpt lat="43.9856617" lon="11.99275"><ele>643.8571428571429</ele><time>2026-04-18T09:25:55.08Z</time></trkpt><trkpt lat="43.985595" lon="11.9926967"><ele>645.0</ele><time>2026-04-18T09:25:56.08Z</time></trkpt><trkpt lat="43.9855333" lon="11.9926317"><ele>645.0</ele><time>2026-04-18T09:25:57.08Z</time></trkpt><trkpt lat="43.9854717" lon="11.9925667"><ele>645.0</ele><time>2026-04-18T09:25:58.08Z</time></trkpt><trkpt lat="43.985405" lon="11.9925017"><ele>645.0</ele><time>2026-04-18T09:25:59.08Z</time></trkpt><trkpt lat="43.98534" lon="11.99243"><ele>645.0</ele><time>2026-04-18T09:26:00.079Z</time></trkpt><trkpt lat="43.985255" lon="11.9923633"><ele>645.0</ele><time>2026-04-18T09:26:01.08Z</time></trkpt><trkpt lat="43.98516" lon="11.9923"><ele>645.0</ele><time>2026-04-18T09:26:02.08Z</time></trkpt><trkpt lat="43.985065" lon="11.9922333"><ele>647.8</ele><time>2026-04-18T09:26:03.08Z</time></trkpt><trkpt lat="43.9849733" lon="11.9921867"><ele>650.6</ele><time>2026-04-18T09:26:04.08Z</time></trkpt><trkpt lat="43.984875" lon="11.9921317"><ele>653.4000000000001</ele><time>2026-04-18T09:26:05.08Z</time></trkpt><trkpt lat="43.98477" lon="11.9920983"><ele>656.2</ele><time>2026-04-18T09:26:06.08Z</time></trkpt><trkpt lat="43.984685" lon="11.9920683"><ele>659.0</ele><time>2026-04-18T09:26:07.08Z</time></trkpt><trkpt lat="43.984625" lon="11.9920417"><ele>659.0</ele><time>2026-04-18T09:26:08.08Z</time></trkpt><trkpt lat="43.984555" lon="11.9919833"><ele>659.0</ele><time>2026-04-18T09:26:11.08Z</time></trkpt><trkpt lat="43.9844633" lon="11.9919167"><ele>659.0</ele><time>2026-04-18T09:26:30.079Z</time></trkpt><trkpt lat="43.9843933" lon="11.99194"><ele>659.0</ele><time>2026-04-18T09:26:32.08Z</time></trkpt><trkpt lat="43.9843167" lon="11.9920067"><ele>659.0</ele><time>2026-04-18T09:26:34.079Z</time></trkpt><trkpt lat="43.9842333" lon="11.9921117"><ele>660.2</ele><time>2026-04-18T09:26:36.08Z</time></trkpt><trkpt lat="43.984145" lon="11.9921933"><ele>661.4000000000001</ele><time>2026-04-18T09:26:38.079Z</time></trkpt><trkpt lat="43.9840467" lon="11.9922483"><ele>662.6</ele><time>2026-04-18T09:26:40.08Z</time></trkpt><trkpt lat="43.9839717" lon="11.9922783"><ele>663.8</ele><time>2026-04-18T09:26:41.079Z</time></trkpt><trkpt lat="43.983895" lon="11.99231"><ele>665.0</ele><time>2026-04-18T09:26:42.08Z</time></trkpt><trkpt lat="43.9837883" lon="11.992345"><ele>665.0</ele><time>2026-04-18T09:26:43.08Z</time></trkpt><trkpt lat="43.98368" lon="11.9923967"><ele>665.0</ele><time>2026-04-18T09:26:44.079Z</time></trkpt><trkpt lat="43.9835733" lon="11.9924483"><ele>665.0</ele><time>2026-04-18T09:26:45.079Z</time></trkpt><trkpt lat="43.983475" lon="11.99251"><ele>665.0</ele><time>2026-04-18T09:26:46.08Z</time></trkpt><trkpt lat="43.9833833" lon="11.99258"><ele>665.0</ele><time>2026-04-18T09:26:47.079Z</time></trkpt><trkpt lat="43.98329" lon="11.9926533"><ele>664.8333333333333</ele><time>2026-04-18T09:26:48.08Z</time></trkpt><trkpt lat="43.98319" lon="11.9927133"><ele>664.6666666666666</ele><time>2026-04-18T09:26:49.08Z</time></trkpt><trkpt lat="43.9831117" lon="11.9927817"><ele>664.5</ele><time>2026-04-18T09:26:50.08Z</time></trkpt><trkpt lat="43.9830483" lon="11.9928517"><ele>664.3333333333334</ele><time>2026-04-18T09:26:51.08Z</time></trkpt><trkpt lat="43.9829967" lon="11.9929217"><ele>664.1666666666667</ele><time>2026-04-18T09:26:52.08Z</time></trkpt><trkpt lat="43.98295" lon="11.992985"><ele>664.0</ele><time>2026-04-18T09:26:53.08Z</time></trkpt><trkpt lat="43.9828767" lon="11.9931"><ele>664.0</ele><time>2026-04-18T09:26:55.08Z</time></trkpt><trkpt lat="43.982835" lon="11.993175"><ele>664.0</ele><time>2026-04-18T09:26:57.079Z</time></trkpt><trkpt lat="43.98277" lon="11.9932083"><ele>664.0</ele><time>2026-04-18T09:27:09.08Z</time></trkpt><trkpt lat="43.9826767" lon="11.9933067"><ele>664.0</ele><time>2026-04-18T09:27:11.08Z</time></trkpt><trkpt lat="43.982625" lon="11.9933617"><ele>664.0</ele><time>2026-04-18T09:27:12.08Z</time></trkpt><trkpt lat="43.98253" lon="11.993465"><ele>664.0</ele><time>2026-04-18T09:27:14.08Z</time></trkpt><trkpt lat="43.9824533" lon="11.993585"><ele>664.6666666666667</ele><time>2026-04-18T09:27:15.079Z</time></trkpt><trkpt lat="43.9824" lon="11.9936417"><ele>665.3333333333334</ele><time>2026-04-18T09:27:16.079Z</time></trkpt><trkpt lat="43.98235" lon="11.9937183"><ele>666.0</ele><time>2026-04-18T09:27:17.08Z</time></trkpt><trkpt lat="43.9823333" lon="11.99386"><ele>666.6666666666666</ele><time>2026-04-18T09:27:18.08Z</time></trkpt><trkpt lat="43.9823167" lon="11.9939933"><ele>667.3333333333333</ele><time>2026-04-18T09:27:19.08Z</time></trkpt><trkpt lat="43.982275" lon="11.9940933"><ele>668.0</ele><time>2026-04-18T09:27:20.08Z</time></trkpt><trkpt lat="43.9822467" lon="11.9941967"><ele>668.0</ele><time>2026-04-18T09:27:21.08Z</time></trkpt><trkpt lat="43.982205" lon="11.9943033"><ele>668.0</ele><time>2026-04-18T09:27:22.08Z</time></trkpt><trkpt lat="43.982145" lon="11.99436"><ele>668.0</ele><time>2026-04-18T09:27:23.08Z</time></trkpt><trkpt lat="43.982065" lon="11.9944067"><ele>668.0</ele><time>2026-04-18T09:27:25.08Z</time></trkpt><trkpt lat="43.9819633" lon="11.994435"><ele>668.0</ele><time>2026-04-18T09:27:27.08Z</time></trkpt><trkpt lat="43.9818683" lon="11.9944817"><ele>668.0</ele><time>2026-04-18T09:27:29.08Z</time></trkpt><trkpt lat="43.9818" lon="11.99451"><ele>668.0</ele><time>2026-04-18T09:27:31.08Z</time></trkpt><trkpt lat="43.9817267" lon="11.9946"><ele>668.0</ele><time>2026-04-18T09:27:39.079Z</time></trkpt><trkpt lat="43.981645" lon="11.99473"><ele>668.0</ele><time>2026-04-18T09:27:41.08Z</time></trkpt><trkpt lat="43.9816017" lon="11.994795"><ele>668.0</ele><time>2026-04-18T09:27:42.08Z</time></trkpt><trkpt lat="43.9815633" lon="11.9948667"><ele>668.0</ele><time>2026-04-18T09:27:43.079Z</time></trkpt><trkpt lat="43.98151" lon="11.9950283"><ele>670.5999999999999</ele><time>2026-04-18T09:27:45.08Z</time></trkpt><trkpt lat="43.9814733" lon="11.9951467"><ele>673.1999999999999</ele><time>2026-04-18T09:27:46.08Z</time></trkpt><trkpt lat="43.9814367" lon="11.9952767"><ele>675.8</ele><time>2026-04-18T09:27:47.08Z</time></trkpt><trkpt lat="43.981395" lon="11.9954"><ele>678.4</ele><time>2026-04-18T09:27:48.08Z</time></trkpt><trkpt lat="43.9813383" lon="11.9955167"><ele>681.0</ele><time>2026-04-18T09:27:49.08Z</time></trkpt><trkpt lat="43.9812867" lon="11.9956317"><ele>681.0</ele><time>2026-04-18T09:27:50.08Z</time></trkpt><trkpt lat="43.9812317" lon="11.9957367"><ele>681.0</ele><time>2026-04-18T09:27:51.08Z</time></trkpt><trkpt lat="43.9812167" lon="11.9958333"><ele>681.0</ele><time>2026-04-18T09:27:52.079Z</time></trkpt><trkpt lat="43.98121" lon="11.99593"><ele>681.0</ele><time>2026-04-18T09:27:53.08Z</time></trkpt><trkpt lat="43.98121" lon="11.9960333"><ele>681.0</ele><time>2026-04-18T09:27:54.079Z</time></trkpt><trkpt lat="43.9812133" lon="11.9961983"><ele>681.0</ele><time>2026-04-18T09:27:56.079Z</time></trkpt><trkpt lat="43.9811833" lon="11.9963217"><ele>680.5</ele><time>2026-04-18T09:27:58.08Z</time></trkpt><trkpt lat="43.9811383" lon="11.9963967"><ele>680.0</ele><time>2026-04-18T09:28:00.079Z</time></trkpt><trkpt lat="43.9810867" lon="11.996485"><ele>679.5</ele><time>2026-04-18T09:28:03.079Z</time></trkpt><trkpt lat="43.981015" lon="11.9965417"><ele>679.0</ele><time>2026-04-18T09:28:06.08Z</time></trkpt><trkpt lat="43.9809233" lon="11.9965467"><ele>678.5</ele><time>2026-04-18T09:28:09.08Z</time></trkpt><trkpt lat="43.980855" lon="11.9965317"><ele>678.0</ele><time>2026-04-18T09:28:11.079Z</time></trkpt><trkpt lat="43.980785" lon="11.9965117"><ele>680.8</ele><time>2026-04-18T09:28:13.08Z</time></trkpt><trkpt lat="43.980715" lon="11.9964917"><ele>683.5999999999999</ele><time>2026-04-18T09:28:15.079Z</time></trkpt><trkpt lat="43.9806033" lon="11.996435"><ele>686.4000000000001</ele><time>2026-04-18T09:29:25.081Z</time></trkpt><trkpt lat="43.9805133" lon="11.9963817"><ele>689.2</ele><time>2026-04-18T09:29:28.081Z</time></trkpt><trkpt lat="43.9804183" lon="11.9963117"><ele>692.0</ele><time>2026-04-18T09:29:30.081Z</time></trkpt><trkpt lat="43.980365" lon="11.99626"><ele>692.0</ele><time>2026-04-18T09:29:31.081Z</time></trkpt><trkpt lat="43.980305" lon="11.9962083"><ele>692.0</ele><time>2026-04-18T09:29:32.081Z</time></trkpt><trkpt lat="43.980235" lon="11.9961483"><ele>692.0</ele><time>2026-04-18T09:29:33.081Z</time></trkpt><trkpt lat="43.9801733" lon="11.9960883"><ele>692.0</ele><time>2026-04-18T09:29:34.081Z</time></trkpt><trkpt lat="43.98011" lon="11.99602"><ele>692.0</ele><time>2026-04-18T09:29:35.081Z</time></trkpt><trkpt lat="43.980055" lon="11.9959467"><ele>692.0</ele><time>2026-04-18T09:29:36.081Z</time></trkpt><trkpt lat="43.9800083" lon="11.9958767"><ele>687.8333333333333</ele><time>2026-04-18T09:29:37.081Z</time></trkpt><trkpt lat="43.9799667" lon="11.9958017"><ele>683.6666666666666</ele><time>2026-04-18T09:29:38.081Z</time></trkpt><trkpt lat="43.9798967" lon="11.9956483"><ele>679.5</ele><time>2026-04-18T09:29:40.081Z</time></trkpt><trkpt lat="43.9798617" lon="11.99556"><ele>675.3333333333334</ele><time>2026-04-18T09:29:41.08Z</time></trkpt><trkpt lat="43.9798183" lon="11.9954767"><ele>671.1666666666667</ele><time>2026-04-18T09:29:42.08Z</time></trkpt><trkpt lat="43.979765" lon="11.995395"><ele>667.0</ele><time>2026-04-18T09:29:43.081Z</time></trkpt><trkpt lat="43.9797067" lon="11.9953083"><ele>667.0000000000001</ele><time>2026-04-18T09:29:44.081Z</time></trkpt><trkpt lat="43.9796517" lon="11.9952333"><ele>667.0</ele><time>2026-04-18T09:29:45.081Z</time></trkpt><trkpt lat="43.9796133" lon="11.9951483"><ele>667.0</ele><time>2026-04-18T09:29:46.081Z</time></trkpt><trkpt lat="43.9795817" lon="11.9950617"><ele>667.0</ele><time>2026-04-18T09:29:47.081Z</time></trkpt><trkpt lat="43.9795567" lon="11.99497"><ele>667.0</ele><time>2026-04-18T09:29:48.081Z</time></trkpt><trkpt lat="43.9795317" lon="11.9948783"><ele>667.0000000000001</ele><time>2026-04-18T09:29:49.081Z</time></trkpt><trkpt lat="43.9795017" lon="11.9947783"><ele>667.0</ele><time>2026-04-18T09:29:50.081Z</time></trkpt><trkpt lat="43.97946" lon="11.994665"><ele>667.8</ele><time>2026-04-18T09:29:51.081Z</time></trkpt><trkpt lat="43.9794233" lon="11.9945533"><ele>668.6</ele><time>2026-04-18T09:29:52.081Z</time></trkpt><trkpt lat="43.9793917" lon="11.9944367"><ele>669.4</ele><time>2026-04-18T09:29:53.081Z</time></trkpt><trkpt lat="43.9793683" lon="11.994305"><ele>670.1999999999999</ele><time>2026-04-18T09:29:54.081Z</time></trkpt><trkpt lat="43.97933" lon="11.9941817"><ele>671.0</ele><time>2026-04-18T09:29:55.081Z</time></trkpt><trkpt lat="43.9792883" lon="11.994075"><ele>669.0</ele><time>2026-04-18T09:29:56.08Z</time></trkpt><trkpt lat="43.97924" lon="11.993985"><ele>667.0</ele><time>2026-04-18T09:29:57.081Z</time></trkpt><trkpt lat="43.979195" lon="11.9939017"><ele>665.0</ele><time>2026-04-18T09:29:58.081Z</time></trkpt><trkpt lat="43.9790933" lon="11.9937933"><ele>663.0</ele><time>2026-04-18T09:30:00.081Z</time></trkpt><trkpt lat="43.979025" lon="11.9937533"><ele>661.0</ele><time>2026-04-18T09:30:01.081Z</time></trkpt><trkpt lat="43.978955" lon="11.99371"><ele>659.0</ele><time>2026-04-18T09:30:02.081Z</time></trkpt><trkpt lat="43.9788967" lon="11.9936683"><ele>659.0</ele><time>2026-04-18T09:30:03.081Z</time></trkpt><trkpt lat="43.9787867" lon="11.9935867"><ele>659.0</ele><time>2026-04-18T09:30:05.081Z</time></trkpt><trkpt lat="43.9787283" lon="11.99353"><ele>659.0</ele><time>2026-04-18T09:30:06.081Z</time></trkpt><trkpt lat="43.978675" lon="11.9934767"><ele>659.0</ele><time>2026-04-18T09:30:07.081Z</time></trkpt><trkpt lat="43.97861" lon="11.9934333"><ele>659.0</ele><time>2026-04-18T09:30:08.081Z</time></trkpt><trkpt lat="43.97855" lon="11.9933883"><ele>659.0</ele><time>2026-04-18T09:30:09.08Z</time></trkpt><trkpt lat="43.97843" lon="11.9933683"><ele>657.1666666666666</ele><time>2026-04-18T09:30:11.081Z</time></trkpt><trkpt lat="43.9783467" lon="11.9933733"><ele>655.3333333333333</ele><time>2026-04-18T09:30:12.08Z</time></trkpt><trkpt lat="43.97825" lon="11.993365"><ele>653.5</ele><time>2026-04-18T09:30:13.081Z</time></trkpt><trkpt lat="43.9781567" lon="11.9933417"><ele>651.6666666666666</ele><time>2026-04-18T09:30:14.081Z</time></trkpt><trkpt lat="43.97807" lon="11.993315"><ele>649.8333333333334</ele><time>2026-04-18T09:30:15.081Z</time></trkpt><trkpt lat="43.9779933" lon="11.993285"><ele>648.0</ele><time>2026-04-18T09:30:16.08Z</time></trkpt><trkpt lat="43.9779267" lon="11.9932583"><ele>653.0</ele><time>2026-04-18T09:30:17.081Z</time></trkpt><trkpt lat="43.9778267" lon="11.9931967"><ele>658.0</ele><time>2026-04-18T09:30:19.081Z</time></trkpt><trkpt lat="43.9777817" lon="11.993135"><ele>663.0</ele><time>2026-04-18T09:30:20.081Z</time></trkpt><trkpt lat="43.9777283" lon="11.9930233"><ele>668.0</ele><time>2026-04-18T09:30:22.081Z</time></trkpt><trkpt lat="43.9777383" lon="11.9929267"><ele>673.0</ele><time>2026-04-18T09:30:24.081Z</time></trkpt><trkpt lat="43.9778367" lon="11.9928483"><ele>673.0</ele><time>2026-04-18T09:30:44.081Z</time></trkpt><trkpt lat="43.9778967" lon="11.9928083"><ele>673.0</ele><time>2026-04-18T09:30:45.081Z</time></trkpt><trkpt lat="43.9779683" lon="11.9927667"><ele>673.0</ele><time>2026-04-18T09:30:46.081Z</time></trkpt><trkpt lat="43.97804" lon="11.9927333"><ele>673.0</ele><time>2026-04-18T09:30:47.081Z</time></trkpt><trkpt lat="43.9781167" lon="11.99268"><ele>673.0</ele><time>2026-04-18T09:30:48.08Z</time></trkpt><trkpt lat="43.9781833" lon="11.992645"><ele>673.0</ele><time>2026-04-18T09:30:49.08Z</time></trkpt><trkpt lat="43.9782583" lon="11.992605"><ele>673.0</ele><time>2026-04-18T09:30:50.081Z</time></trkpt><trkpt lat="43.97833" lon="11.9925817"><ele>673.0</ele><time>2026-04-18T09:30:51.081Z</time></trkpt><trkpt lat="43.9784" lon="11.9925517"><ele>673.0</ele><time>2026-04-18T09:30:52.08Z</time></trkpt><trkpt lat="43.9784617" lon="11.992515"><ele>673.0</ele><time>2026-04-18T09:30:53.081Z</time></trkpt><trkpt lat="43.9785067" lon="11.99245"><ele>673.0</ele><time>2026-04-18T09:30:54.081Z</time></trkpt><trkpt lat="43.9785483" lon="11.992295"><ele>673.0</ele><time>2026-04-18T09:30:56.081Z</time></trkpt><trkpt lat="43.9785933" lon="11.9921533"><ele>680.0</ele><time>2026-04-18T09:30:58.081Z</time></trkpt><trkpt lat="43.9786467" lon="11.9920583"><ele>687.0</ele><time>2026-04-18T09:31:00.081Z</time></trkpt><trkpt lat="43.978705" lon="11.9920133"><ele>694.0</ele><time>2026-04-18T09:31:03.08Z</time></trkpt><trkpt lat="43.9788317" lon="11.9919433"><ele>701.0</ele><time>2026-04-18T09:31:16.08Z</time></trkpt><trkpt lat="43.9788967" lon="11.9918817"><ele>708.0</ele><time>2026-04-18T09:31:19.08Z</time></trkpt><trkpt lat="43.9789633" lon="11.9918183"><ele>715.0</ele><time>2026-04-18T09:31:21.08Z</time></trkpt><trkpt lat="43.9790567" lon="11.99174"><ele>715.0</ele><time>2026-04-18T09:31:23.081Z</time></trkpt><trkpt lat="43.9791133" lon="11.991695"><ele>715.0</ele><time>2026-04-18T09:31:24.081Z</time></trkpt><trkpt lat="43.9791683" lon="11.9916417"><ele>715.0</ele><time>2026-04-18T09:31:25.081Z</time></trkpt><trkpt lat="43.9792117" lon="11.9915617"><ele>715.0</ele><time>2026-04-18T09:31:26.081Z</time></trkpt><trkpt lat="43.9792533" lon="11.991475"><ele>715.0</ele><time>2026-04-18T09:31:27.08Z</time></trkpt><trkpt lat="43.9793117" lon="11.9913883"><ele>715.0</ele><time>2026-04-18T09:31:28.081Z</time></trkpt><trkpt lat="43.9793633" lon="11.9912983"><ele>715.0</ele><time>2026-04-18T09:31:29.081Z</time></trkpt><trkpt lat="43.9794133" lon="11.9912167"><ele>715.8333333333334</ele><time>2026-04-18T09:31:30.08Z</time></trkpt><trkpt lat="43.979465" lon="11.9911433"><ele>716.6666666666667</ele><time>2026-04-18T09:31:31.081Z</time></trkpt><trkpt lat="43.9795283" lon="11.991065"><ele>717.5</ele><time>2026-04-18T09:31:32.081Z</time></trkpt><trkpt lat="43.9795883" lon="11.9909783"><ele>718.3333333333334</ele><time>2026-04-18T09:31:33.08Z</time></trkpt><trkpt lat="43.9796433" lon="11.990895"><ele>719.1666666666666</ele><time>2026-04-18T09:31:34.081Z</time></trkpt><trkpt lat="43.979695" lon="11.990815"><ele>720.0</ele><time>2026-04-18T09:31:35.081Z</time></trkpt><trkpt lat="43.9797383" lon="11.9907433"><ele>720.0</ele><time>2026-04-18T09:31:36.081Z</time></trkpt><trkpt lat="43.979795" lon="11.9906917"><ele>720.0</ele><time>2026-04-18T09:31:37.081Z</time></trkpt><trkpt lat="43.9798717" lon="11.990625"><ele>720.0</ele><time>2026-04-18T09:31:39.081Z</time></trkpt><trkpt lat="43.9799817" lon="11.990595"><ele>720.0</ele><time>2026-04-18T09:31:41.081Z</time></trkpt><trkpt lat="43.980115" lon="11.990565"><ele>720.0</ele><time>2026-04-18T09:31:43.081Z</time></trkpt><trkpt lat="43.98018" lon="11.99055"><ele>725.2</ele><time>2026-04-18T09:31:44.081Z</time></trkpt><trkpt lat="43.9802783" lon="11.990495"><ele>730.4</ele><time>2026-04-18T09:31:46.081Z</time></trkpt><trkpt lat="43.9803267" lon="11.9903983"><ele>735.5999999999999</ele><time>2026-04-18T09:31:48.081Z</time></trkpt><trkpt lat="43.980355" lon="11.99025"><ele>740.8</ele><time>2026-04-18T09:31:50.081Z</time></trkpt><trkpt lat="43.9803883" lon="11.9900767"><ele>746.0</ele><time>2026-04-18T09:31:52.081Z</time></trkpt><trkpt lat="43.9804183" lon="11.9899117"><ele>746.0</ele><time>2026-04-18T09:31:54.08Z</time></trkpt><trkpt lat="43.9804367" lon="11.98982"><ele>746.0</ele><time>2026-04-18T09:31:55.081Z</time></trkpt><trkpt lat="43.98046" lon="11.9897333"><ele>746.0</ele><time>2026-04-18T09:31:56.081Z</time></trkpt><trkpt lat="43.9804983" lon="11.9895817"><ele>746.0</ele><time>2026-04-18T09:31:58.08Z</time></trkpt><trkpt lat="43.9805167" lon="11.9894667"><ele>746.0</ele><time>2026-04-18T09:31:59.081Z</time></trkpt><trkpt lat="43.9805267" lon="11.98934"><ele>746.0</ele><time>2026-04-18T09:32:01.081Z</time></trkpt><trkpt lat="43.9805433" lon="11.989245"><ele>746.0</ele><time>2026-04-18T09:32:02.081Z</time></trkpt><trkpt lat="43.9806267" lon="11.9892633"><ele>746.0</ele><time>2026-04-18T09:32:04.081Z</time></trkpt><trkpt lat="43.9807267" lon="11.98937"><ele>746.0</ele><time>2026-04-18T09:32:06.08Z</time></trkpt><trkpt lat="43.9807867" lon="11.9894917"><ele>746.0</ele><time>2026-04-18T09:32:08.081Z</time></trkpt><trkpt lat="43.98079" lon="11.9896083"><ele>746.0</ele><time>2026-04-18T09:32:10.08Z</time></trkpt><trkpt lat="43.9807717" lon="11.98971"><ele>746.0</ele><time>2026-04-18T09:32:12.081Z</time></trkpt><trkpt lat="43.980755" lon="11.9899083"><ele>746.0</ele><time>2026-04-18T09:32:22.081Z</time></trkpt><trkpt lat="43.98082" lon="11.9898717"><ele>746.0</ele><time>2026-04-18T09:32:24.081Z</time></trkpt><trkpt lat="43.98087" lon="11.9897517"><ele>746.0</ele><time>2026-04-18T09:32:26.081Z</time></trkpt><trkpt lat="43.98089" lon="11.9896367"><ele>746.0</ele><time>2026-04-18T09:32:27.081Z</time></trkpt><trkpt lat="43.98092" lon="11.9895333"><ele>748.4285714285714</ele><time>2026-04-18T09:32:28.081Z</time></trkpt><trkpt lat="43.98095" lon="11.9894367"><ele>750.8571428571429</ele><time>2026-04-18T09:32:29.081Z</time></trkpt><trkpt lat="43.9809667" lon="11.9893433"><ele>753.2857142857142</ele><time>2026-04-18T09:32:30.08Z</time></trkpt><trkpt lat="43.9809667" lon="11.9892517"><ele>755.7142857142858</ele><time>2026-04-18T09:32:31.081Z</time></trkpt><trkpt lat="43.98096" lon="11.98916"><ele>758.1428571428571</ele><time>2026-04-18T09:32:32.081Z</time></trkpt><trkpt lat="43.9809383" lon="11.9890617"><ele>760.5714285714286</ele><time>2026-04-18T09:32:33.08Z</time></trkpt><trkpt lat="43.9809167" lon="11.98896"><ele>763.0</ele><time>2026-04-18T09:32:34.081Z</time></trkpt><trkpt lat="43.98089" lon="11.98887"><ele>759.0</ele><time>2026-04-18T09:32:35.081Z</time></trkpt><trkpt lat="43.9808217" lon="11.98877"><ele>755.0</ele><time>2026-04-18T09:32:37.081Z</time></trkpt><trkpt lat="43.9807417" lon="11.988735"><ele>751.0</ele><time>2026-04-18T09:34:37.08Z</time></trkpt><trkpt lat="43.98064" lon="11.9886133"><ele>747.0</ele><time>2026-04-18T09:52:22.084Z</time></trkpt><trkpt lat="43.9805117" lon="11.988515"><ele>747.0</ele><time>2026-04-18T09:52:24.084Z</time></trkpt><trkpt lat="43.9804317" lon="11.9884483"><ele>747.0</ele><time>2026-04-18T09:52:25.084Z</time></trkpt><trkpt lat="43.9803517" lon="11.98839"><ele>747.0</ele><time>2026-04-18T09:52:26.084Z</time></trkpt><trkpt lat="43.9802667" lon="11.9883367"><ele>747.0</ele><time>2026-04-18T09:52:27.084Z</time></trkpt><trkpt lat="43.980175" lon="11.9882967"><ele>747.0</ele><time>2026-04-18T09:52:28.083Z</time></trkpt><trkpt lat="43.98008" lon="11.9882517"><ele>750.0</ele><time>2026-04-18T09:52:29.084Z</time></trkpt><trkpt lat="43.979985" lon="11.9882067"><ele>753.0</ele><time>2026-04-18T09:52:30.084Z</time></trkpt><trkpt lat="43.97988" lon="11.9881567"><ele>756.0</ele><time>2026-04-18T09:52:31.084Z</time></trkpt><trkpt lat="43.97977" lon="11.9880917"><ele>759.0</ele><time>2026-04-18T09:52:32.084Z</time></trkpt><trkpt lat="43.9796567" lon="11.9880383"><ele>759.0</ele><time>2026-04-18T09:52:33.084Z</time></trkpt><trkpt lat="43.97956" lon="11.9879867"><ele>759.0</ele><time>2026-04-18T09:52:34.084Z</time></trkpt><trkpt lat="43.9794667" lon="11.9879333"><ele>759.0</ele><time>2026-04-18T09:52:35.084Z</time></trkpt><trkpt lat="43.9793767" lon="11.987875"><ele>759.0</ele><time>2026-04-18T09:52:36.083Z</time></trkpt><trkpt lat="43.9792933" lon="11.9878217"><ele>759.0</ele><time>2026-04-18T09:52:37.084Z</time></trkpt><trkpt lat="43.9792167" lon="11.9877767"><ele>757.6</ele><time>2026-04-18T09:52:38.083Z</time></trkpt><trkpt lat="43.9791417" lon="11.98773"><ele>756.2</ele><time>2026-04-18T09:52:39.084Z</time></trkpt><trkpt lat="43.9790717" lon="11.987675"><ele>754.8000000000001</ele><time>2026-04-18T09:52:40.084Z</time></trkpt><trkpt lat="43.9789967" lon="11.987605"><ele>753.4000000000001</ele><time>2026-04-18T09:52:41.084Z</time></trkpt><trkpt lat="43.9789117" lon="11.9875317"><ele>752.0</ele><time>2026-04-18T09:52:42.084Z</time></trkpt><trkpt lat="43.9788133" lon="11.9874583"><ele>756.4000000000001</ele><time>2026-04-18T09:52:43.083Z</time></trkpt><trkpt lat="43.9787117" lon="11.9873867"><ele>760.8000000000001</ele><time>2026-04-18T09:52:44.083Z</time></trkpt><trkpt lat="43.9786233" lon="11.9873133"><ele>765.2</ele><time>2026-04-18T09:52:45.084Z</time></trkpt><trkpt lat="43.978545" lon="11.9872433"><ele>769.6</ele><time>2026-04-18T09:52:46.084Z</time></trkpt><trkpt lat="43.9784583" lon="11.98716"><ele>774.0</ele><time>2026-04-18T09:52:47.084Z</time></trkpt><trkpt lat="43.9783733" lon="11.9870817"><ele>770.8333333333334</ele><time>2026-04-18T09:52:48.084Z</time></trkpt><trkpt lat="43.9782883" lon="11.987005"><ele>767.6666666666666</ele><time>2026-04-18T09:52:49.084Z</time></trkpt><trkpt lat="43.9782083" lon="11.9869383"><ele>764.5</ele><time>2026-04-18T09:52:50.084Z</time></trkpt><trkpt lat="43.9781517" lon="11.98689"><ele>761.3333333333333</ele><time>2026-04-18T09:52:51.084Z</time></trkpt><trkpt lat="43.97808" lon="11.9868567"><ele>758.1666666666666</ele><time>2026-04-18T09:52:53.084Z</time></trkpt><trkpt lat="43.9781267" lon="11.98693"><ele>755.0</ele><time>2026-04-18T09:53:17.084Z</time></trkpt><trkpt lat="43.9780767" lon="11.9868633"><ele>755.0</ele><time>2026-04-18T09:53:46.084Z</time></trkpt><trkpt lat="43.9779783" lon="11.98686"><ele>755.0</ele><time>2026-04-18T09:54:07.084Z</time></trkpt><trkpt lat="43.97787" lon="11.986825"><ele>755.0</ele><time>2026-04-18T09:54:09.083Z</time></trkpt><trkpt lat="43.9777717" lon="11.9867717"><ele>755.0</ele><time>2026-04-18T09:54:10.084Z</time></trkpt><trkpt lat="43.97766" lon="11.9867083"><ele>755.0</ele><time>2026-04-18T09:54:11.084Z</time></trkpt><trkpt lat="43.977555" lon="11.9866583"><ele>756.6</ele><time>2026-04-18T09:54:12.084Z</time></trkpt><trkpt lat="43.9774567" lon="11.9866283"><ele>758.2</ele><time>2026-04-18T09:54:13.083Z</time></trkpt><trkpt lat="43.9773533" lon="11.9866"><ele>759.8</ele><time>2026-04-18T09:54:14.083Z</time></trkpt><trkpt lat="43.977265" lon="11.9865833"><ele>761.4</ele><time>2026-04-18T09:54:15.083Z</time></trkpt><trkpt lat="43.977185" lon="11.986585"><ele>763.0</ele><time>2026-04-18T09:54:16.084Z</time></trkpt><trkpt lat="43.9771" lon="11.98661"><ele>763.0</ele><time>2026-04-18T09:54:17.084Z</time></trkpt><trkpt lat="43.9770083" lon="11.9866567"><ele>763.0</ele><time>2026-04-18T09:54:18.084Z</time></trkpt><trkpt lat="43.976935" lon="11.9867067"><ele>763.0</ele><time>2026-04-18T09:54:19.084Z</time></trkpt><trkpt lat="43.9768717" lon="11.9867467"><ele>763.0</ele><time>2026-04-18T09:54:20.084Z</time></trkpt><trkpt lat="43.97681" lon="11.9867683"><ele>763.0</ele><time>2026-04-18T09:54:21.084Z</time></trkpt><trkpt lat="43.9766783" lon="11.9867333"><ele>763.0</ele><time>2026-04-18T09:54:23.084Z</time></trkpt><trkpt lat="43.976595" lon="11.9866983"><ele>760.4</ele><time>2026-04-18T09:54:24.084Z</time></trkpt><trkpt lat="43.9764967" lon="11.98666"><ele>757.8</ele><time>2026-04-18T09:54:25.083Z</time></trkpt><trkpt lat="43.9763933" lon="11.9866217"><ele>755.2</ele><time>2026-04-18T09:54:26.084Z</time></trkpt><trkpt lat="43.976285" lon="11.9866"><ele>752.6</ele><time>2026-04-18T09:54:27.084Z</time></trkpt><trkpt lat="43.9761783" lon="11.98658"><ele>750.0</ele><time>2026-04-18T09:54:28.084Z</time></trkpt><trkpt lat="43.9760817" lon="11.9865467"><ele>750.0</ele><time>2026-04-18T09:54:29.084Z</time></trkpt><trkpt lat="43.976005" lon="11.9865083"><ele>750.0</ele><time>2026-04-18T09:54:30.084Z</time></trkpt><trkpt lat="43.97593" lon="11.98647"><ele>750.0</ele><time>2026-04-18T09:54:31.084Z</time></trkpt><trkpt lat="43.9758617" lon="11.9864333"><ele>750.0</ele><time>2026-04-18T09:54:32.083Z</time></trkpt><trkpt lat="43.9757983" lon="11.986385"><ele>750.0</ele><time>2026-04-18T09:54:33.084Z</time></trkpt><trkpt lat="43.9757383" lon="11.98635"><ele>750.0</ele><time>2026-04-18T09:54:34.084Z</time></trkpt><trkpt lat="43.975665" lon="11.9863333"><ele>750.0</ele><time>2026-04-18T09:54:35.083Z</time></trkpt><trkpt lat="43.9755833" lon="11.9863333"><ele>746.25</ele><time>2026-04-18T09:54:36.084Z</time></trkpt><trkpt lat="43.9754817" lon="11.9863483"><ele>742.5</ele><time>2026-04-18T09:54:37.084Z</time></trkpt><trkpt lat="43.97536" lon="11.986375"><ele>738.75</ele><time>2026-04-18T09:54:38.083Z</time></trkpt><trkpt lat="43.97524" lon="11.9864083"><ele>735.0</ele><time>2026-04-18T09:54:39.084Z</time></trkpt><trkpt lat="43.9751267" lon="11.9864283"><ele>735.0</ele><time>2026-04-18T09:54:40.084Z</time></trkpt><trkpt lat="43.9749983" lon="11.9864467"><ele>735.0</ele><time>2026-04-18T09:54:41.083Z</time></trkpt><trkpt lat="43.9748733" lon="11.9864667"><ele>735.0</ele><time>2026-04-18T09:54:42.084Z</time></trkpt><trkpt lat="43.97475" lon="11.98649"><ele>735.0</ele><time>2026-04-18T09:54:43.084Z</time></trkpt><trkpt lat="43.97461" lon="11.98652"><ele>735.0</ele><time>2026-04-18T09:54:44.084Z</time></trkpt><trkpt lat="43.9744817" lon="11.9865433"><ele>735.0</ele><time>2026-04-18T09:54:45.084Z</time></trkpt><trkpt lat="43.9743583" lon="11.98655"><ele>735.0</ele><time>2026-04-18T09:54:46.084Z</time></trkpt><trkpt lat="43.974225" lon="11.986515"><ele>735.0</ele><time>2026-04-18T09:54:47.083Z</time></trkpt><trkpt lat="43.9741167" lon="11.98647"><ele>738.0</ele><time>2026-04-18T09:54:48.083Z</time></trkpt><trkpt lat="43.9740167" lon="11.986435"><ele>741.0</ele><time>2026-04-18T09:54:49.083Z</time></trkpt><trkpt lat="43.9739367" lon="11.986445"><ele>744.0</ele><time>2026-04-18T09:54:50.084Z</time></trkpt><trkpt lat="43.973855" lon="11.9864867"><ele>747.0</ele><time>2026-04-18T09:54:51.083Z</time></trkpt><trkpt lat="43.97378" lon="11.98656"><ele>750.0</ele><time>2026-04-18T09:54:52.084Z</time></trkpt><trkpt lat="43.9737083" lon="11.986675"><ele>751.4</ele><time>2026-04-18T09:54:53.084Z</time></trkpt><trkpt lat="43.9736267" lon="11.9868017"><ele>752.8</ele><time>2026-04-18T09:54:54.083Z</time></trkpt><trkpt lat="43.9735317" lon="11.9868967"><ele>754.2</ele><time>2026-04-18T09:54:55.084Z</time></trkpt><trkpt lat="43.9734317" lon="11.986945"><ele>755.6</ele><time>2026-04-18T09:54:56.084Z</time></trkpt><trkpt lat="43.973335" lon="11.9869467"><ele>757.0</ele><time>2026-04-18T09:54:57.084Z</time></trkpt><trkpt lat="43.973245" lon="11.98694"><ele>757.0</ele><time>2026-04-18T09:54:58.084Z</time></trkpt><trkpt lat="43.97316" lon="11.98695"><ele>757.0</ele><time>2026-04-18T09:54:59.084Z</time></trkpt><trkpt lat="43.9730767" lon="11.9869967"><ele>757.0</ele><time>2026-04-18T09:55:00.084Z</time></trkpt><trkpt lat="43.9730033" lon="11.987085"><ele>757.0</ele><time>2026-04-18T09:55:01.084Z</time></trkpt><trkpt lat="43.972945" lon="11.9872067"><ele>757.0</ele><time>2026-04-18T09:55:02.084Z</time></trkpt><trkpt lat="43.9728917" lon="11.98736"><ele>748.3333333333334</ele><time>2026-04-18T09:55:03.084Z</time></trkpt><trkpt lat="43.9728333" lon="11.9875433"><ele>739.6666666666666</ele><time>2026-04-18T09:55:04.083Z</time></trkpt><trkpt lat="43.9727767" lon="11.9877583"><ele>731.0</ele><time>2026-04-18T09:55:05.084Z</time></trkpt><trkpt lat="43.9727117" lon="11.9879633"><ele>731.0</ele><time>2026-04-18T09:55:06.084Z</time></trkpt><trkpt lat="43.972655" lon="11.9881267"><ele>731.0</ele><time>2026-04-18T09:55:07.084Z</time></trkpt><trkpt lat="43.9725717" lon="11.9882617"><ele>731.0</ele><time>2026-04-18T09:55:08.083Z</time></trkpt><trkpt lat="43.9724783" lon="11.98835"><ele>731.0</ele><time>2026-04-18T09:55:09.084Z</time></trkpt><trkpt lat="43.9723617" lon="11.9884"><ele>733.25</ele><time>2026-04-18T09:55:10.084Z</time></trkpt><trkpt lat="43.9722417" lon="11.9883883"><ele>735.5</ele><time>2026-04-18T09:55:11.084Z</time></trkpt><trkpt lat="43.9721167" lon="11.9883217"><ele>737.75</ele><time>2026-04-18T09:55:12.084Z</time></trkpt><trkpt lat="43.9719783" lon="11.98823"><ele>740.0</ele><time>2026-04-18T09:55:13.083Z</time></trkpt><trkpt lat="43.9718483" lon="11.9881317"><ele>741.5</ele><time>2026-04-18T09:55:14.084Z</time></trkpt><trkpt lat="43.971725" lon="11.9880317"><ele>743.0</ele><time>2026-04-18T09:55:15.084Z</time></trkpt><trkpt lat="43.9715983" lon="11.9879383"><ele>744.5</ele><time>2026-04-18T09:55:16.083Z</time></trkpt><trkpt lat="43.9714883" lon="11.9878483"><ele>746.0</ele><time>2026-04-18T09:55:17.084Z</time></trkpt><trkpt lat="43.9713883" lon="11.9877583"><ele>746.0</ele><time>2026-04-18T09:55:18.083Z</time></trkpt><trkpt lat="43.971305" lon="11.98766"><ele>746.0</ele><time>2026-04-18T09:55:19.084Z</time></trkpt><trkpt lat="43.97123" lon="11.9875567"><ele>746.0</ele><time>2026-04-18T09:55:20.084Z</time></trkpt><trkpt lat="43.97116" lon="11.98746"><ele>746.0</ele><time>2026-04-18T09:55:21.084Z</time></trkpt><trkpt lat="43.9710883" lon="11.9873733"><ele>746.0</ele><time>2026-04-18T09:55:22.084Z</time></trkpt><trkpt lat="43.9710267" lon="11.9872933"><ele>746.3333333333333</ele><time>2026-04-18T09:55:23.083Z</time></trkpt><trkpt lat="43.97097" lon="11.98722"><ele>746.6666666666666</ele><time>2026-04-18T09:55:24.084Z</time></trkpt><trkpt lat="43.97092" lon="11.98715"><ele>747.0</ele><time>2026-04-18T09:55:25.084Z</time></trkpt><trkpt lat="43.97087" lon="11.9870967"><ele>747.3333333333334</ele><time>2026-04-18T09:55:26.083Z</time></trkpt><trkpt lat="43.970795" lon="11.98701"><ele>747.6666666666667</ele><time>2026-04-18T09:55:28.083Z</time></trkpt><trkpt lat="43.97072" lon="11.9869333"><ele>748.0</ele><time>2026-04-18T09:55:30.083Z</time></trkpt><trkpt lat="43.97063" lon="11.9868767"><ele>748.0</ele><time>2026-04-18T09:55:32.084Z</time></trkpt><trkpt lat="43.97056" lon="11.98689"><ele>748.0</ele><time>2026-04-18T09:55:34.084Z</time></trkpt><trkpt lat="43.9705183" lon="11.987"><ele>748.0</ele><time>2026-04-18T09:55:37.084Z</time></trkpt><trkpt lat="43.9705" lon="11.9872083"><ele>748.0</ele><time>2026-04-18T09:55:39.084Z</time></trkpt><trkpt lat="43.9704983" lon="11.9873533"><ele>748.0</ele><time>2026-04-18T09:55:40.084Z</time></trkpt><trkpt lat="43.9705117" lon="11.98751"><ele>745.0</ele><time>2026-04-18T09:55:41.084Z</time></trkpt><trkpt lat="43.97053" lon="11.987675"><ele>742.0</ele><time>2026-04-18T09:55:42.083Z</time></trkpt><trkpt lat="43.9705567" lon="11.98784"><ele>739.0</ele><time>2026-04-18T09:55:43.084Z</time></trkpt><trkpt lat="43.9705783" lon="11.987995"><ele>736.0</ele><time>2026-04-18T09:55:44.083Z</time></trkpt><trkpt lat="43.9705867" lon="11.988135"><ele>736.0</ele><time>2026-04-18T09:55:45.084Z</time></trkpt><trkpt lat="43.9705883" lon="11.9882667"><ele>736.0</ele><time>2026-04-18T09:55:46.084Z</time></trkpt><trkpt lat="43.9705617" lon="11.98839"><ele>736.0</ele><time>2026-04-18T09:55:47.084Z</time></trkpt><trkpt lat="43.9705233" lon="11.9884883"><ele>736.0</ele><time>2026-04-18T09:55:48.084Z</time></trkpt><trkpt lat="43.9704533" lon="11.98856"><ele>736.0</ele><time>2026-04-18T09:55:49.084Z</time></trkpt><trkpt lat="43.97036" lon="11.9886067"><ele>732.8</ele><time>2026-04-18T09:55:50.084Z</time></trkpt><trkpt lat="43.970255" lon="11.9886283"><ele>729.5999999999999</ele><time>2026-04-18T09:55:51.084Z</time></trkpt><trkpt lat="43.970145" lon="11.9886317"><ele>726.4</ele><time>2026-04-18T09:55:52.084Z</time></trkpt><trkpt lat="43.970035" lon="11.98861"><ele>723.2</ele><time>2026-04-18T09:55:53.084Z</time></trkpt><trkpt lat="43.9699317" lon="11.9885733"><ele>720.0</ele><time>2026-04-18T09:55:54.084Z</time></trkpt><trkpt lat="43.96983" lon="11.9885167"><ele>720.0</ele><time>2026-04-18T09:55:55.084Z</time></trkpt><trkpt lat="43.9697333" lon="11.9884583"><ele>720.0</ele><time>2026-04-18T09:55:56.084Z</time></trkpt><trkpt lat="43.969635" lon="11.9884"><ele>720.0</ele><time>2026-04-18T09:55:57.083Z</time></trkpt><trkpt lat="43.969535" lon="11.988345"><ele>720.0</ele><time>2026-04-18T09:55:58.084Z</time></trkpt><trkpt lat="43.9694417" lon="11.9883167"><ele>720.0</ele><time>2026-04-18T09:55:59.084Z</time></trkpt><trkpt lat="43.9693617" lon="11.988315"><ele>720.0</ele><time>2026-04-18T09:56:00.083Z</time></trkpt><trkpt lat="43.969285" lon="11.9883517"><ele>720.0</ele><time>2026-04-18T09:56:01.084Z</time></trkpt><trkpt lat="43.969215" lon="11.988405"><ele>720.0</ele><time>2026-04-18T09:56:02.084Z</time></trkpt><trkpt lat="43.969155" lon="11.988475"><ele>720.0</ele><time>2026-04-18T09:56:03.083Z</time></trkpt><trkpt lat="43.9691233" lon="11.9886117"><ele>720.0</ele><time>2026-04-18T09:56:04.084Z</time></trkpt><trkpt lat="43.9690933" lon="11.9887717"><ele>724.8</ele><time>2026-04-18T09:56:05.084Z</time></trkpt><trkpt lat="43.9690517" lon="11.9889133"><ele>729.6</ele><time>2026-04-18T09:56:06.084Z</time></trkpt><trkpt lat="43.968995" lon="11.989025"><ele>734.4000000000001</ele><time>2026-04-18T09:56:07.084Z</time></trkpt><trkpt lat="43.9689317" lon="11.9891017"><ele>739.2</ele><time>2026-04-18T09:56:08.084Z</time></trkpt><trkpt lat="43.9688517" lon="11.9891533"><ele>744.0</ele><time>2026-04-18T09:56:09.084Z</time></trkpt><trkpt lat="43.968775" lon="11.989155"><ele>744.0</ele><time>2026-04-18T09:56:10.084Z</time></trkpt><trkpt lat="43.9686783" lon="11.9891167"><ele>744.0</ele><time>2026-04-18T09:56:11.084Z</time></trkpt><trkpt lat="43.9685567" lon="11.9890133"><ele>744.0</ele><time>2026-04-18T09:56:12.084Z</time></trkpt><trkpt lat="43.9684183" lon="11.9888967"><ele>744.0</ele><time>2026-04-18T09:56:13.084Z</time></trkpt><trkpt lat="43.9682867" lon="11.9887983"><ele>746.0</ele><time>2026-04-18T09:56:14.083Z</time></trkpt><trkpt lat="43.9681483" lon="11.9887167"><ele>748.0</ele><time>2026-04-18T09:56:15.084Z</time></trkpt><trkpt lat="43.9680117" lon="11.9886367"><ele>750.0</ele><time>2026-04-18T09:56:16.084Z</time></trkpt><trkpt lat="43.9678683" lon="11.98855"><ele>750.0</ele><time>2026-04-18T09:56:17.084Z</time></trkpt><trkpt lat="43.9677417" lon="11.988445"><ele>750.0</ele><time>2026-04-18T09:56:18.084Z</time></trkpt><trkpt lat="43.9676283" lon="11.9883383"><ele>750.0</ele><time>2026-04-18T09:56:19.083Z</time></trkpt><trkpt lat="43.9675267" lon="11.9882617"><ele>750.0</ele><time>2026-04-18T09:56:20.083Z</time></trkpt><trkpt lat="43.967435" lon="11.9882217"><ele>750.3333333333334</ele><time>2026-04-18T09:56:21.084Z</time></trkpt><trkpt lat="43.9673317" lon="11.988215"><ele>750.6666666666666</ele><time>2026-04-18T09:56:22.084Z</time></trkpt><trkpt lat="43.9672517" lon="11.9882267"><ele>751.0</ele><time>2026-04-18T09:56:23.084Z</time></trkpt><trkpt lat="43.9671633" lon="11.988255"><ele>751.3333333333333</ele><time>2026-04-18T09:56:24.084Z</time></trkpt><trkpt lat="43.9670717" lon="11.9883133"><ele>751.6666666666666</ele><time>2026-04-18T09:56:26.084Z</time></trkpt><trkpt lat="43.9670083" lon="11.9883617"><ele>752.0</ele><time>2026-04-18T09:56:28.084Z</time></trkpt><trkpt lat="43.9669333" lon="11.9884033"><ele>749.8</ele><time>2026-04-18T09:56:31.084Z</time></trkpt><trkpt lat="43.9668267" lon="11.9884267"><ele>747.6</ele><time>2026-04-18T09:56:58.085Z</time></trkpt><trkpt lat="43.9667483" lon="11.98845"><ele>745.4</ele><time>2026-04-18T09:56:59.085Z</time></trkpt><trkpt lat="43.9666567" lon="11.98849"><ele>743.1999999999999</ele><time>2026-04-18T09:57:00.085Z</time></trkpt><trkpt lat="43.966555" lon="11.9885583"><ele>741.0</ele><time>2026-04-18T09:57:01.085Z</time></trkpt><trkpt lat="43.9664467" lon="11.988655"><ele>741.0</ele><time>2026-04-18T09:57:02.085Z</time></trkpt><trkpt lat="43.9663383" lon="11.988775"><ele>741.0</ele><time>2026-04-18T09:57:03.085Z</time></trkpt><trkpt lat="43.9662217" lon="11.9889033"><ele>741.0</ele><time>2026-04-18T09:57:04.085Z</time></trkpt><trkpt lat="43.9661233" lon="11.9890167"><ele>741.0</ele><time>2026-04-18T09:57:05.085Z</time></trkpt><trkpt lat="43.9660117" lon="11.9891217"><ele>740.3333333333334</ele><time>2026-04-18T09:57:06.085Z</time></trkpt><trkpt lat="43.96593" lon="11.98922"><ele>739.6666666666666</ele><time>2026-04-18T09:57:07.085Z</time></trkpt><trkpt lat="43.965855" lon="11.9892917"><ele>739.0</ele><time>2026-04-18T09:57:08.084Z</time></trkpt><trkpt lat="43.9658033" lon="11.9893417"><ele>738.3333333333333</ele><time>2026-04-18T09:57:09.084Z</time></trkpt><trkpt lat="43.965745" lon="11.9893933"><ele>737.6666666666666</ele><time>2026-04-18T09:57:11.085Z</time></trkpt><trkpt lat="43.9658483" lon="11.9893283"><ele>737.0</ele><time>2026-04-18T09:57:55.085Z</time></trkpt><trkpt lat="43.9659117" lon="11.989285"><ele>737.0</ele><time>2026-04-18T09:57:56.084Z</time></trkpt><trkpt lat="43.965985" lon="11.9892417"><ele>737.0</ele><time>2026-04-18T09:57:58.085Z</time></trkpt><trkpt lat="43.9659033" lon="11.98927"><ele>737.0</ele><time>2026-04-18T09:58:24.085Z</time></trkpt><trkpt lat="43.965855" lon="11.9893283"><ele>737.0</ele><time>2026-04-18T09:58:25.085Z</time></trkpt><trkpt lat="43.9657667" lon="11.9893867"><ele>737.0</ele><time>2026-04-18T09:58:27.084Z</time></trkpt><trkpt lat="43.9656233" lon="11.98938"><ele>737.0</ele><time>2026-04-18T09:58:40.085Z</time></trkpt><trkpt lat="43.9655333" lon="11.9893833"><ele>737.0</ele><time>2026-04-18T09:58:41.085Z</time></trkpt><trkpt lat="43.9654233" lon="11.9893933"><ele>737.0</ele><time>2026-04-18T09:58:42.085Z</time></trkpt><trkpt lat="43.9653133" lon="11.9894233"><ele>737.0</ele><time>2026-04-18T09:58:43.085Z</time></trkpt><trkpt lat="43.9652167" lon="11.9894783"><ele>737.0</ele><time>2026-04-18T09:58:44.085Z</time></trkpt><trkpt lat="43.96513" lon="11.989565"><ele>737.0</ele><time>2026-04-18T09:58:45.085Z</time></trkpt><trkpt lat="43.9650583" lon="11.9896533"><ele>737.0</ele><time>2026-04-18T09:58:46.084Z</time></trkpt><trkpt lat="43.9649833" lon="11.98972"><ele>737.0</ele><time>2026-04-18T09:58:47.085Z</time></trkpt><trkpt lat="43.9649" lon="11.9897633"><ele>737.0</ele><time>2026-04-18T09:58:48.085Z</time></trkpt><trkpt lat="43.9648" lon="11.9897883"><ele>737.0</ele><time>2026-04-18T09:58:49.085Z</time></trkpt><trkpt lat="43.9646967" lon="11.9898017"><ele>740.4000000000001</ele><time>2026-04-18T09:58:50.085Z</time></trkpt><trkpt lat="43.9645983" lon="11.9897933"><ele>743.8000000000001</ele><time>2026-04-18T09:58:51.085Z</time></trkpt><trkpt lat="43.9645017" lon="11.9897883"><ele>747.2</ele><time>2026-04-18T09:58:52.085Z</time></trkpt><trkpt lat="43.9644017" lon="11.9898267"><ele>750.6</ele><time>2026-04-18T09:58:53.085Z</time></trkpt><trkpt lat="43.9643033" lon="11.9898817"><ele>754.0</ele><time>2026-04-18T09:58:54.085Z</time></trkpt><trkpt lat="43.964215" lon="11.989925"><ele>754.4000000000001</ele><time>2026-04-18T09:58:55.085Z</time></trkpt><trkpt lat="43.964125" lon="11.9899533"><ele>754.8</ele><time>2026-04-18T09:58:56.085Z</time></trkpt><trkpt lat="43.9640383" lon="11.9899683"><ele>755.2</ele><time>2026-04-18T09:58:57.085Z</time></trkpt><trkpt lat="43.96395" lon="11.9899783"><ele>755.5999999999999</ele><time>2026-04-18T09:58:58.084Z</time></trkpt><trkpt lat="43.96386" lon="11.9900067"><ele>756.0</ele><time>2026-04-18T09:58:59.084Z</time></trkpt><trkpt lat="43.9637633" lon="11.99001"><ele>756.0</ele><time>2026-04-18T09:59:00.085Z</time></trkpt><trkpt lat="43.963665" lon="11.9899917"><ele>756.0</ele><time>2026-04-18T09:59:01.085Z</time></trkpt><trkpt lat="43.963555" lon="11.98998"><ele>756.0</ele><time>2026-04-18T09:59:02.085Z</time></trkpt><trkpt lat="43.9634567" lon="11.989985"><ele>756.0</ele><time>2026-04-18T09:59:03.085Z</time></trkpt><trkpt lat="43.9633433" lon="11.990005"><ele>756.0</ele><time>2026-04-18T09:59:04.085Z</time></trkpt><trkpt lat="43.9632233" lon="11.9900417"><ele>747.25</ele><time>2026-04-18T09:59:05.085Z</time></trkpt><trkpt lat="43.9630967" lon="11.99009"><ele>738.5</ele><time>2026-04-18T09:59:06.084Z</time></trkpt><trkpt lat="43.96297" lon="11.9901517"><ele>729.75</ele><time>2026-04-18T09:59:07.085Z</time></trkpt><trkpt lat="43.9628217" lon="11.990215"><ele>721.0</ele><time>2026-04-18T09:59:08.085Z</time></trkpt><trkpt lat="43.9626883" lon="11.9902933"><ele>721.0</ele><time>2026-04-18T09:59:09.085Z</time></trkpt><trkpt lat="43.9625533" lon="11.99037"><ele>721.0</ele><time>2026-04-18T09:59:10.085Z</time></trkpt><trkpt lat="43.9624417" lon="11.9904267"><ele>721.0</ele><time>2026-04-18T09:59:11.085Z</time></trkpt><trkpt lat="43.962335" lon="11.9904883"><ele>721.0</ele><time>2026-04-18T09:59:12.084Z</time></trkpt><trkpt lat="43.9622317" lon="11.9905617"><ele>723.0</ele><time>2026-04-18T09:59:13.085Z</time></trkpt><trkpt lat="43.962135" lon="11.99065"><ele>725.0</ele><time>2026-04-18T09:59:14.085Z</time></trkpt><trkpt lat="43.9620383" lon="11.99077"><ele>727.0</ele><time>2026-04-18T09:59:15.084Z</time></trkpt><trkpt lat="43.9619317" lon="11.9909"><ele>729.0</ele><time>2026-04-18T09:59:16.085Z</time></trkpt><trkpt lat="43.9618117" lon="11.9910283"><ele>729.25</ele><time>2026-04-18T09:59:17.085Z</time></trkpt><trkpt lat="43.9616967" lon="11.991145"><ele>729.5</ele><time>2026-04-18T09:59:18.085Z</time></trkpt><trkpt lat="43.9615833" lon="11.9912517"><ele>729.75</ele><time>2026-04-18T09:59:19.085Z</time></trkpt><trkpt lat="43.96148" lon="11.991345"><ele>730.0</ele><time>2026-04-18T09:59:20.085Z</time></trkpt><trkpt lat="43.9613817" lon="11.9914317"><ele>730.0</ele><time>2026-04-18T09:59:21.085Z</time></trkpt><trkpt lat="43.9612783" lon="11.9914983"><ele>730.0</ele><time>2026-04-18T09:59:22.085Z</time></trkpt><trkpt lat="43.9611617" lon="11.9915433"><ele>730.0</ele><time>2026-04-18T09:59:23.084Z</time></trkpt><trkpt lat="43.9610533" lon="11.9915817"><ele>730.0</ele><time>2026-04-18T09:59:24.085Z</time></trkpt><trkpt lat="43.9609433" lon="11.991635"><ele>728.5</ele><time>2026-04-18T09:59:25.085Z</time></trkpt><trkpt lat="43.960835" lon="11.9916983"><ele>727.0</ele><time>2026-04-18T09:59:26.085Z</time></trkpt><trkpt lat="43.960725" lon="11.9917333"><ele>725.5</ele><time>2026-04-18T09:59:27.085Z</time></trkpt><trkpt lat="43.9606083" lon="11.9917317"><ele>724.0</ele><time>2026-04-18T09:59:28.085Z</time></trkpt><trkpt lat="43.96049" lon="11.991705"><ele>731.75</ele><time>2026-04-18T09:59:29.085Z</time></trkpt><trkpt lat="43.9603717" lon="11.9916583"><ele>739.5</ele><time>2026-04-18T09:59:30.085Z</time></trkpt><trkpt lat="43.9602583" lon="11.991625"><ele>747.25</ele><time>2026-04-18T09:59:31.084Z</time></trkpt><trkpt lat="43.9601383" lon="11.991625"><ele>755.0</ele><time>2026-04-18T09:59:32.085Z</time></trkpt><trkpt lat="43.96002" lon="11.9916667"><ele>751.25</ele><time>2026-04-18T09:59:33.084Z</time></trkpt><trkpt lat="43.9599" lon="11.991745"><ele>747.5</ele><time>2026-04-18T09:59:34.084Z</time></trkpt><trkpt lat="43.9597867" lon="11.9918533"><ele>743.75</ele><time>2026-04-18T09:59:35.085Z</time></trkpt><trkpt lat="43.9596733" lon="11.9919733"><ele>740.0</ele><time>2026-04-18T09:59:36.085Z</time></trkpt><trkpt lat="43.959565" lon="11.9920833"><ele>740.0</ele><time>2026-04-18T09:59:37.085Z</time></trkpt><trkpt lat="43.9594633" lon="11.9921767"><ele>740.0</ele><time>2026-04-18T09:59:38.085Z</time></trkpt><trkpt lat="43.9593483" lon="11.9922633"><ele>740.0</ele><time>2026-04-18T09:59:39.085Z</time></trkpt><trkpt lat="43.9592183" lon="11.9923417"><ele>740.0</ele><time>2026-04-18T09:59:40.085Z</time></trkpt><trkpt lat="43.9590817" lon="11.9923967"><ele>743.75</ele><time>2026-04-18T09:59:41.085Z</time></trkpt><trkpt lat="43.9589483" lon="11.99244"><ele>747.5</ele><time>2026-04-18T09:59:42.084Z</time></trkpt><trkpt lat="43.9588217" lon="11.992475"><ele>751.25</ele><time>2026-04-18T09:59:43.085Z</time></trkpt><trkpt lat="43.9587067" lon="11.99248"><ele>755.0</ele><time>2026-04-18T09:59:44.085Z</time></trkpt><trkpt lat="43.9585933" lon="11.9924817"><ele>755.0</ele><time>2026-04-18T09:59:45.085Z</time></trkpt><trkpt lat="43.9584783" lon="11.9924933"><ele>755.0</ele><time>2026-04-18T09:59:46.085Z</time></trkpt><trkpt lat="43.9583733" lon="11.99253"><ele>755.0</ele><time>2026-04-18T09:59:47.085Z</time></trkpt><trkpt lat="43.9582783" lon="11.9925783"><ele>755.0</ele><time>2026-04-18T09:59:48.085Z</time></trkpt><trkpt lat="43.9582067" lon="11.99264"><ele>755.0</ele><time>2026-04-18T09:59:49.085Z</time></trkpt><trkpt lat="43.95815" lon="11.9927"><ele>752.6</ele><time>2026-04-18T09:59:50.085Z</time></trkpt><trkpt lat="43.9580767" lon="11.9927933"><ele>750.2</ele><time>2026-04-18T09:59:52.085Z</time></trkpt><trkpt lat="43.9580383" lon="11.99288"><ele>747.8</ele><time>2026-04-18T09:59:55.085Z</time></trkpt><trkpt lat="43.957945" lon="11.9929633"><ele>745.4</ele><time>2026-04-18T10:00:17.084Z</time></trkpt><trkpt lat="43.9578417" lon="11.9930367"><ele>743.0</ele><time>2026-04-18T10:00:19.084Z</time></trkpt><trkpt lat="43.9577817" lon="11.9930717"><ele>743.0</ele><time>2026-04-18T10:00:20.084Z</time></trkpt><trkpt lat="43.9577117" lon="11.9931083"><ele>743.0</ele><time>2026-04-18T10:00:21.085Z</time></trkpt><trkpt lat="43.9576417" lon="11.993135"><ele>743.0</ele><time>2026-04-18T10:00:22.084Z</time></trkpt><trkpt lat="43.957565" lon="11.9931517"><ele>743.0</ele><time>2026-04-18T10:00:23.085Z</time></trkpt><trkpt lat="43.9574867" lon="11.9931533"><ele>743.0</ele><time>2026-04-18T10:00:24.085Z</time></trkpt><trkpt lat="43.9574067" lon="11.9931567"><ele>743.0</ele><time>2026-04-18T10:00:25.085Z</time></trkpt><trkpt lat="43.9573183" lon="11.9931517"><ele>742.8</ele><time>2026-04-18T10:00:26.084Z</time></trkpt><trkpt lat="43.9572183" lon="11.99317"><ele>742.5999999999999</ele><time>2026-04-18T10:00:27.084Z</time></trkpt><trkpt lat="43.9571133" lon="11.993205"><ele>742.4000000000001</ele><time>2026-04-18T10:00:28.085Z</time></trkpt><trkpt lat="43.9570217" lon="11.9932433"><ele>742.2</ele><time>2026-04-18T10:00:29.085Z</time></trkpt><trkpt lat="43.9569483" lon="11.9932967"><ele>742.0</ele><time>2026-04-18T10:00:30.085Z</time></trkpt><trkpt lat="43.9568867" lon="11.9933767"><ele>742.0</ele><time>2026-04-18T10:00:31.085Z</time></trkpt><trkpt lat="43.9568367" lon="11.9934767"><ele>742.0</ele><time>2026-04-18T10:00:32.085Z</time></trkpt><trkpt lat="43.9567883" lon="11.9936033"><ele>742.0</ele><time>2026-04-18T10:00:33.085Z</time></trkpt><trkpt lat="43.956745" lon="11.9937633"><ele>742.0</ele><time>2026-04-18T10:00:34.084Z</time></trkpt><trkpt lat="43.9567067" lon="11.9939383"><ele>742.0</ele><time>2026-04-18T10:00:35.085Z</time></trkpt><trkpt lat="43.9566667" lon="11.994105"><ele>748.4000000000001</ele><time>2026-04-18T10:00:36.085Z</time></trkpt><trkpt lat="43.95662" lon="11.9942617"><ele>754.8000000000001</ele><time>2026-04-18T10:00:37.085Z</time></trkpt><trkpt lat="43.9565717" lon="11.9943717"><ele>761.2</ele><time>2026-04-18T10:00:38.085Z</time></trkpt><trkpt lat="43.9565267" lon="11.994455"><ele>767.6</ele><time>2026-04-18T10:00:39.084Z</time></trkpt><trkpt lat="43.9564283" lon="11.9944917"><ele>774.0</ele><time>2026-04-18T10:00:41.084Z</time></trkpt><trkpt lat="43.9563783" lon="11.9944233"><ele>774.0</ele><time>2026-04-18T10:00:45.085Z</time></trkpt><trkpt lat="43.9563533" lon="11.9943283"><ele>774.0</ele><time>2026-04-18T10:00:58.085Z</time></trkpt><trkpt lat="43.95634" lon="11.9942367"><ele>774.0</ele><time>2026-04-18T10:00:59.085Z</time></trkpt><trkpt lat="43.9563167" lon="11.9941183"><ele>774.0</ele><time>2026-04-18T10:01:00.085Z</time></trkpt><trkpt lat="43.956285" lon="11.9939817"><ele>774.0</ele><time>2026-04-18T10:01:01.085Z</time></trkpt><trkpt lat="43.956255" lon="11.993845"><ele>774.0</ele><time>2026-04-18T10:01:02.085Z</time></trkpt><trkpt lat="43.9562083" lon="11.993695"><ele>775.25</ele><time>2026-04-18T10:01:03.085Z</time></trkpt><trkpt lat="43.956155" lon="11.9935417"><ele>776.5</ele><time>2026-04-18T10:01:04.085Z</time></trkpt><trkpt lat="43.9560833" lon="11.9933867"><ele>777.75</ele><time>2026-04-18T10:01:05.085Z</time></trkpt><trkpt lat="43.9559967" lon="11.9932233"><ele>779.0</ele><time>2026-04-18T10:01:06.085Z</time></trkpt><trkpt lat="43.9559" lon="11.993065"><ele>781.4000000000001</ele><time>2026-04-18T10:01:07.085Z</time></trkpt><trkpt lat="43.9558083" lon="11.9929233"><ele>783.8</ele><time>2026-04-18T10:01:08.085Z</time></trkpt><trkpt lat="43.95574" lon="11.9928017"><ele>786.2</ele><time>2026-04-18T10:01:09.085Z</time></trkpt><trkpt lat="43.95569" lon="11.9927083"><ele>788.5999999999999</ele><time>2026-04-18T10:01:10.085Z</time></trkpt><trkpt lat="43.9556467" lon="11.99264"><ele>791.0</ele><time>2026-04-18T10:01:11.084Z</time></trkpt><trkpt lat="43.9555767" lon="11.9925733"><ele>793.3333333333334</ele><time>2026-04-18T10:10:36.085Z</time></trkpt><trkpt lat="43.9555233" lon="11.9924983"><ele>795.6666666666667</ele><time>2026-04-18T10:10:38.086Z</time></trkpt><trkpt lat="43.955445" lon="11.99236"><ele>798.0</ele><time>2026-04-18T10:10:40.086Z</time></trkpt><trkpt lat="43.955415" lon="11.99227"><ele>800.3333333333333</ele><time>2026-04-18T10:10:41.086Z</time></trkpt><trkpt lat="43.955385" lon="11.99216"><ele>802.6666666666666</ele><time>2026-04-18T10:10:42.086Z</time></trkpt><trkpt lat="43.955355" lon="11.99205"><ele>805.0</ele><time>2026-04-18T10:10:43.086Z</time></trkpt><trkpt lat="43.95533" lon="11.99194"><ele>804.9999999999999</ele><time>2026-04-18T10:10:44.086Z</time></trkpt><trkpt lat="43.9553117" lon="11.9918517"><ele>805.0</ele><time>2026-04-18T10:10:45.086Z</time></trkpt><trkpt lat="43.9552783" lon="11.99173"><ele>805.0</ele><time>2026-04-18T10:10:47.085Z</time></trkpt><trkpt lat="43.95525" lon="11.9916317"><ele>805.0</ele><time>2026-04-18T10:10:50.086Z</time></trkpt><trkpt lat="43.9552083" lon="11.9915133"><ele>804.9999999999999</ele><time>2026-04-18T10:11:57.085Z</time></trkpt><trkpt lat="43.9551933" lon="11.991405"><ele>805.0</ele><time>2026-04-18T10:11:59.085Z</time></trkpt><trkpt lat="43.9551883" lon="11.99126"><ele>804.2</ele><time>2026-04-18T10:12:22.086Z</time></trkpt><trkpt lat="43.9552067" lon="11.9910783"><ele>803.4</ele><time>2026-04-18T10:12:24.087Z</time></trkpt><trkpt lat="43.9552167" lon="11.9909617"><ele>802.5999999999999</ele><time>2026-04-18T10:12:25.087Z</time></trkpt><trkpt lat="43.9552133" lon="11.99084"><ele>801.8</ele><time>2026-04-18T10:12:26.087Z</time></trkpt><trkpt lat="43.9551967" lon="11.9907083"><ele>801.0</ele><time>2026-04-18T10:12:27.087Z</time></trkpt><trkpt lat="43.95516" lon="11.99058"><ele>799.4</ele><time>2026-04-18T10:12:28.087Z</time></trkpt><trkpt lat="43.9551067" lon="11.9904567"><ele>797.8</ele><time>2026-04-18T10:12:29.087Z</time></trkpt><trkpt lat="43.9550517" lon="11.9903167"><ele>796.1999999999999</ele><time>2026-04-18T10:12:30.087Z</time></trkpt><trkpt lat="43.9549983" lon="11.99018"><ele>794.5999999999999</ele><time>2026-04-18T10:12:31.087Z</time></trkpt><trkpt lat="43.95494" lon="11.9900533"><ele>793.0</ele><time>2026-04-18T10:12:32.087Z</time></trkpt><trkpt lat="43.95489" lon="11.9899183"><ele>798.4</ele><time>2026-04-18T10:12:33.087Z</time></trkpt><trkpt lat="43.954845" lon="11.9897933"><ele>803.8</ele><time>2026-04-18T10:12:34.087Z</time></trkpt><trkpt lat="43.95481" lon="11.98967"><ele>809.2</ele><time>2026-04-18T10:12:35.087Z</time></trkpt><trkpt lat="43.9547667" lon="11.9895783"><ele>814.6</ele><time>2026-04-18T10:12:36.087Z</time></trkpt><trkpt lat="43.9546767" lon="11.9894917"><ele>820.0</ele><time>2026-04-18T10:12:38.087Z</time></trkpt><trkpt lat="43.9546083" lon="11.9894883"><ele>820.0</ele><time>2026-04-18T10:12:39.087Z</time></trkpt><trkpt lat="43.9545417" lon="11.989535"><ele>820.0</ele><time>2026-04-18T10:12:40.087Z</time></trkpt><trkpt lat="43.95447" lon="11.9896317"><ele>820.0</ele><time>2026-04-18T10:12:41.086Z</time></trkpt><trkpt lat="43.9543983" lon="11.9897483"><ele>820.0</ele><time>2026-04-18T10:12:42.087Z</time></trkpt><trkpt lat="43.9543167" lon="11.9898517"><ele>820.0</ele><time>2026-04-18T10:12:43.086Z</time></trkpt><trkpt lat="43.9542317" lon="11.989925"><ele>821.0</ele><time>2026-04-18T10:12:44.087Z</time></trkpt><trkpt lat="43.9541383" lon="11.989975"><ele>822.0</ele><time>2026-04-18T10:12:45.087Z</time></trkpt><trkpt lat="43.9540233" lon="11.9899967"><ele>823.0</ele><time>2026-04-18T10:12:46.087Z</time></trkpt><trkpt lat="43.953905" lon="11.9900167"><ele>824.0</ele><time>2026-04-18T10:12:47.087Z</time></trkpt><trkpt lat="43.953795" lon="11.9900333"><ele>825.0</ele><time>2026-04-18T10:12:48.087Z</time></trkpt><trkpt lat="43.9537067" lon="11.9900367"><ele>825.0</ele><time>2026-04-18T10:12:49.087Z</time></trkpt><trkpt lat="43.953625" lon="11.9900017"><ele>825.0</ele><time>2026-04-18T10:12:50.087Z</time></trkpt><trkpt lat="43.9535517" lon="11.98994"><ele>825.0</ele><time>2026-04-18T10:12:51.087Z</time></trkpt><trkpt lat="43.953485" lon="11.989895"><ele>825.0</ele><time>2026-04-18T10:12:52.087Z</time></trkpt><trkpt lat="43.9534167" lon="11.989875"><ele>825.0</ele><time>2026-04-18T10:12:53.087Z</time></trkpt><trkpt lat="43.9533183" lon="11.9899017"><ele>825.0</ele><time>2026-04-18T10:12:54.087Z</time></trkpt><trkpt lat="43.9532167" lon="11.989965"><ele>823.0</ele><time>2026-04-18T10:12:55.087Z</time></trkpt><trkpt lat="43.95313" lon="11.9899933"><ele>821.0</ele><time>2026-04-18T10:12:56.087Z</time></trkpt><trkpt lat="43.95304" lon="11.9899783"><ele>819.0</ele><time>2026-04-18T10:12:57.087Z</time></trkpt><trkpt lat="43.9529717" lon="11.9899167"><ele>817.0</ele><time>2026-04-18T10:12:58.086Z</time></trkpt><trkpt lat="43.9529" lon="11.9898"><ele>815.0</ele><time>2026-04-18T10:12:59.087Z</time></trkpt><trkpt lat="43.9528217" lon="11.9896767"><ele>815.0</ele><time>2026-04-18T10:13:00.087Z</time></trkpt><trkpt lat="43.952735" lon="11.989555"><ele>815.0</ele><time>2026-04-18T10:13:01.087Z</time></trkpt><trkpt lat="43.95265" lon="11.9894533"><ele>815.0</ele><time>2026-04-18T10:13:02.087Z</time></trkpt><trkpt lat="43.9525683" lon="11.9893633"><ele>815.0</ele><time>2026-04-18T10:13:03.087Z</time></trkpt><trkpt lat="43.952495" lon="11.9892633"><ele>815.0</ele><time>2026-04-18T10:13:04.086Z</time></trkpt><trkpt lat="43.95244" lon="11.9891333"><ele>809.75</ele><time>2026-04-18T10:13:05.087Z</time></trkpt><trkpt lat="43.9524233" lon="11.98896"><ele>804.5</ele><time>2026-04-18T10:13:06.087Z</time></trkpt><trkpt lat="43.9524017" lon="11.9887717"><ele>799.25</ele><time>2026-04-18T10:13:07.086Z</time></trkpt><trkpt lat="43.9523733" lon="11.9886"><ele>794.0</ele><time>2026-04-18T10:13:08.087Z</time></trkpt><trkpt lat="43.9523183" lon="11.988435"><ele>793.5</ele><time>2026-04-18T10:13:09.087Z</time></trkpt><trkpt lat="43.9522433" lon="11.9882833"><ele>793.0</ele><time>2026-04-18T10:13:10.087Z</time></trkpt><trkpt lat="43.9521583" lon="11.988165"><ele>792.5</ele><time>2026-04-18T10:13:11.087Z</time></trkpt><trkpt lat="43.9520467" lon="11.9880833"><ele>792.0</ele><time>2026-04-18T10:13:12.087Z</time></trkpt><trkpt lat="43.9519333" lon="11.9880067"><ele>792.0</ele><time>2026-04-18T10:13:13.087Z</time></trkpt><trkpt lat="43.9518183" lon="11.9879433"><ele>792.0</ele><time>2026-04-18T10:13:14.087Z</time></trkpt><trkpt lat="43.9516933" lon="11.98785"><ele>792.0</ele><time>2026-04-18T10:13:15.086Z</time></trkpt><trkpt lat="43.9515533" lon="11.9877283"><ele>792.0</ele><time>2026-04-18T10:13:16.087Z</time></trkpt><trkpt lat="43.9514017" lon="11.9875967"><ele>794.3333333333333</ele><time>2026-04-18T10:13:17.086Z</time></trkpt><trkpt lat="43.9512383" lon="11.987475"><ele>796.6666666666666</ele><time>2026-04-18T10:13:18.087Z</time></trkpt><trkpt lat="43.9510617" lon="11.987405"><ele>799.0</ele><time>2026-04-18T10:13:19.087Z</time></trkpt><trkpt lat="43.9509033" lon="11.98734"><ele>797.3333333333333</ele><time>2026-04-18T10:13:20.086Z</time></trkpt><trkpt lat="43.9507383" lon="11.9872917"><ele>795.6666666666667</ele><time>2026-04-18T10:13:21.087Z</time></trkpt><trkpt lat="43.95057" lon="11.9872383"><ele>794.0</ele><time>2026-04-18T10:13:22.086Z</time></trkpt><trkpt lat="43.950395" lon="11.9871717"><ele>794.0</ele><time>2026-04-18T10:13:23.087Z</time></trkpt><trkpt lat="43.95021" lon="11.987105"><ele>794.0</ele><time>2026-04-18T10:13:24.086Z</time></trkpt><trkpt lat="43.9500183" lon="11.9870467"><ele>794.0</ele><time>2026-04-18T10:13:25.087Z</time></trkpt><trkpt lat="43.9498283" lon="11.9869967"><ele>793.0</ele><time>2026-04-18T10:13:26.086Z</time></trkpt><trkpt lat="43.9496333" lon="11.9869467"><ele>792.0</ele><time>2026-04-18T10:13:27.086Z</time></trkpt><trkpt lat="43.94944" lon="11.9869083"><ele>791.0</ele><time>2026-04-18T10:13:28.087Z</time></trkpt><trkpt lat="43.94925" lon="11.9868867"><ele>788.6666666666667</ele><time>2026-04-18T10:13:29.087Z</time></trkpt><trkpt lat="43.94907" lon="11.9868733"><ele>786.3333333333333</ele><time>2026-04-18T10:13:30.087Z</time></trkpt><trkpt lat="43.948915" lon="11.9868917"><ele>784.0</ele><time>2026-04-18T10:13:31.087Z</time></trkpt><trkpt lat="43.9487833" lon="11.986915"><ele>784.0</ele><time>2026-04-18T10:13:32.087Z</time></trkpt><trkpt lat="43.948655" lon="11.9869383"><ele>784.0</ele><time>2026-04-18T10:13:33.087Z</time></trkpt><trkpt lat="43.9485383" lon="11.9869517"><ele>784.0</ele><time>2026-04-18T10:13:34.087Z</time></trkpt><trkpt lat="43.9484167" lon="11.9869517"><ele>784.0</ele><time>2026-04-18T10:13:35.087Z</time></trkpt><trkpt lat="43.9483017" lon="11.9869317"><ele>783.2</ele><time>2026-04-18T10:13:36.087Z</time></trkpt><trkpt lat="43.9481867" lon="11.9869067"><ele>782.4000000000001</ele><time>2026-04-18T10:13:37.086Z</time></trkpt><trkpt lat="43.9480817" lon="11.98689"><ele>781.6</ele><time>2026-04-18T10:13:38.087Z</time></trkpt><trkpt lat="43.9479933" lon="11.9868283"><ele>780.8</ele><time>2026-04-18T10:13:39.087Z</time></trkpt><trkpt lat="43.9479133" lon="11.9867383"><ele>780.0</ele><time>2026-04-18T10:13:40.087Z</time></trkpt><trkpt lat="43.9478217" lon="11.98665"><ele>784.0</ele><time>2026-04-18T10:13:41.087Z</time></trkpt><trkpt lat="43.94773" lon="11.9865867"><ele>788.0</ele><time>2026-04-18T10:13:42.087Z</time></trkpt><trkpt lat="43.947625" lon="11.9865417"><ele>792.0</ele><time>2026-04-18T10:13:43.087Z</time></trkpt><trkpt lat="43.9474983" lon="11.986505"><ele>796.0</ele><time>2026-04-18T10:13:44.086Z</time></trkpt><trkpt lat="43.9473617" lon="11.9864683"><ele>796.0</ele><time>2026-04-18T10:13:45.086Z</time></trkpt><trkpt lat="43.9472233" lon="11.9864283"><ele>796.0</ele><time>2026-04-18T10:13:46.086Z</time></trkpt><trkpt lat="43.9470867" lon="11.9863717"><ele>796.0</ele><time>2026-04-18T10:13:47.087Z</time></trkpt><trkpt lat="43.9469633" lon="11.9863317"><ele>796.0</ele><time>2026-04-18T10:13:48.087Z</time></trkpt><trkpt lat="43.9468367" lon="11.9863133"><ele>792.0</ele><time>2026-04-18T10:13:49.087Z</time></trkpt><trkpt lat="43.94671" lon="11.986295"><ele>788.0</ele><time>2026-04-18T10:13:50.086Z</time></trkpt><trkpt lat="43.946585" lon="11.9862467"><ele>784.0</ele><time>2026-04-18T10:13:51.087Z</time></trkpt><trkpt lat="43.9464717" lon="11.9862233"><ele>780.0</ele><time>2026-04-18T10:13:52.087Z</time></trkpt><trkpt lat="43.9463767" lon="11.9862217"><ele>780.0</ele><time>2026-04-18T10:13:53.087Z</time></trkpt><trkpt lat="43.94629" lon="11.9862483"><ele>780.0</ele><time>2026-04-18T10:13:54.087Z</time></trkpt><trkpt lat="43.9462167" lon="11.9863033"><ele>780.0</ele><time>2026-04-18T10:13:55.086Z</time></trkpt><trkpt lat="43.9461433" lon="11.9863717"><ele>780.0</ele><time>2026-04-18T10:13:56.087Z</time></trkpt><trkpt lat="43.9460467" lon="11.98643"><ele>780.0</ele><time>2026-04-18T10:13:57.087Z</time></trkpt><trkpt lat="43.9459067" lon="11.9865"><ele>782.75</ele><time>2026-04-18T10:13:58.087Z</time></trkpt><trkpt lat="43.9457733" lon="11.9865517"><ele>785.5</ele><time>2026-04-18T10:13:59.087Z</time></trkpt><trkpt lat="43.9456283" lon="11.9865933"><ele>788.25</ele><time>2026-04-18T10:14:00.087Z</time></trkpt><trkpt lat="43.9454817" lon="11.9866067"><ele>791.0</ele><time>2026-04-18T10:14:01.087Z</time></trkpt><trkpt lat="43.945325" lon="11.9866017"><ele>791.0</ele><time>2026-04-18T10:14:02.086Z</time></trkpt><trkpt lat="43.9451683" lon="11.98658"><ele>791.0</ele><time>2026-04-18T10:14:03.087Z</time></trkpt><trkpt lat="43.94502" lon="11.986545"><ele>791.0</ele><time>2026-04-18T10:14:04.087Z</time></trkpt><trkpt lat="43.9448917" lon="11.986495"><ele>791.0</ele><time>2026-04-18T10:14:05.087Z</time></trkpt><trkpt lat="43.94478" lon="11.986415"><ele>792.0</ele><time>2026-04-18T10:14:06.087Z</time></trkpt><trkpt lat="43.9446967" lon="11.9863167"><ele>793.0</ele><time>2026-04-18T10:14:07.087Z</time></trkpt><trkpt lat="43.9446383" lon="11.9862133"><ele>794.0</ele><time>2026-04-18T10:14:08.087Z</time></trkpt><trkpt lat="43.9445967" lon="11.9861217"><ele>795.0</ele><time>2026-04-18T10:14:09.087Z</time></trkpt><trkpt lat="43.9446333" lon="11.9860133"><ele>796.0</ele><time>2026-04-18T10:14:11.087Z</time></trkpt><trkpt lat="43.9447217" lon="11.9859217"><ele>799.1999999999999</ele><time>2026-04-18T10:14:13.086Z</time></trkpt><trkpt lat="43.9448" lon="11.98581"><ele>802.4</ele><time>2026-04-18T10:14:15.087Z</time></trkpt><trkpt lat="43.9448667" lon="11.9856567"><ele>805.6</ele><time>2026-04-18T10:14:17.087Z</time></trkpt><trkpt lat="43.9448933" lon="11.9855567"><ele>808.8</ele><time>2026-04-18T10:14:18.087Z</time></trkpt><trkpt lat="43.9449133" lon="11.9854683"><ele>812.0</ele><time>2026-04-18T10:14:19.087Z</time></trkpt><trkpt lat="43.9449333" lon="11.9853533"><ele>812.0000000000001</ele><time>2026-04-18T10:14:21.087Z</time></trkpt><trkpt lat="43.9449133" lon="11.98524"><ele>812.0</ele><time>2026-04-18T10:14:27.087Z</time></trkpt><trkpt lat="43.9448933" lon="11.9851167"><ele>812.0</ele><time>2026-04-18T10:14:29.086Z</time></trkpt><trkpt lat="43.9448583" lon="11.9850217"><ele>812.0</ele><time>2026-04-18T10:14:30.087Z</time></trkpt><trkpt lat="43.9448067" lon="11.9849283"><ele>812.0000000000001</ele><time>2026-04-18T10:14:31.087Z</time></trkpt><trkpt lat="43.9447383" lon="11.984845"><ele>812.0</ele><time>2026-04-18T10:14:32.087Z</time></trkpt><trkpt lat="43.9446733" lon="11.9847633"><ele>813.2</ele><time>2026-04-18T10:14:33.087Z</time></trkpt><trkpt lat="43.944625" lon="11.9846533"><ele>814.4000000000001</ele><time>2026-04-18T10:14:34.086Z</time></trkpt><trkpt lat="43.9445833" lon="11.9845317"><ele>815.5999999999999</ele><time>2026-04-18T10:14:35.086Z</time></trkpt><trkpt lat="43.9445417" lon="11.9843967"><ele>816.8</ele><time>2026-04-18T10:14:36.087Z</time></trkpt><trkpt lat="43.9445217" lon="11.9842617"><ele>818.0</ele><time>2026-04-18T10:14:37.087Z</time></trkpt><trkpt lat="43.9445067" lon="11.984155"><ele>818.0</ele><time>2026-04-18T10:14:38.087Z</time></trkpt><trkpt lat="43.9445433" lon="11.984"><ele>818.0</ele><time>2026-04-18T10:14:40.087Z</time></trkpt><trkpt lat="43.9446067" lon="11.9839383"><ele>818.0</ele><time>2026-04-18T10:14:41.086Z</time></trkpt><trkpt lat="43.9446917" lon="11.9838617"><ele>818.0</ele><time>2026-04-18T10:14:42.087Z</time></trkpt><trkpt lat="43.94477" lon="11.9837917"><ele>818.0</ele><time>2026-04-18T10:14:43.087Z</time></trkpt><trkpt lat="43.9448333" lon="11.98372"><ele>818.0</ele><time>2026-04-18T10:14:44.087Z</time></trkpt><trkpt lat="43.9448817" lon="11.9836633"><ele>818.0</ele><time>2026-04-18T10:14:45.087Z</time></trkpt><trkpt lat="43.94492" lon="11.9835333"><ele>818.0</ele><time>2026-04-18T10:14:47.087Z</time></trkpt><trkpt lat="43.9448967" lon="11.9834367"><ele>818.0</ele><time>2026-04-18T10:14:48.087Z</time></trkpt><trkpt lat="43.9448433" lon="11.9833233"><ele>818.0</ele><time>2026-04-18T10:14:49.087Z</time></trkpt><trkpt lat="43.9447333" lon="11.9832"><ele>818.75</ele><time>2026-04-18T10:14:50.087Z</time></trkpt><trkpt lat="43.9446217" lon="11.983085"><ele>819.5</ele><time>2026-04-18T10:14:51.087Z</time></trkpt><trkpt lat="43.9445267" lon="11.9829733"><ele>820.25</ele><time>2026-04-18T10:14:52.087Z</time></trkpt><trkpt lat="43.9444567" lon="11.9828567"><ele>821.0</ele><time>2026-04-18T10:14:53.087Z</time></trkpt><trkpt lat="43.9444183" lon="11.9827317"><ele>821.0000000000001</ele><time>2026-04-18T10:14:54.087Z</time></trkpt><trkpt lat="43.94442" lon="11.9826033"><ele>821.0</ele><time>2026-04-18T10:14:55.087Z</time></trkpt><trkpt lat="43.94444" lon="11.982485"><ele>821.0</ele><time>2026-04-18T10:14:56.086Z</time></trkpt><trkpt lat="43.9444783" lon="11.9823783"><ele>821.0</ele><time>2026-04-18T10:14:57.087Z</time></trkpt><trkpt lat="43.9445283" lon="11.9822733"><ele>821.0000000000001</ele><time>2026-04-18T10:14:58.087Z</time></trkpt><trkpt lat="43.9445717" lon="11.9821667"><ele>821.0</ele><time>2026-04-18T10:14:59.086Z</time></trkpt><trkpt lat="43.9446" lon="11.9820583"><ele>824.5999999999999</ele><time>2026-04-18T10:15:00.087Z</time></trkpt><trkpt lat="43.9446033" lon="11.981945"><ele>828.2</ele><time>2026-04-18T10:15:01.087Z</time></trkpt><trkpt lat="43.9445967" lon="11.98182"><ele>831.8</ele><time>2026-04-18T10:15:02.086Z</time></trkpt><trkpt lat="43.9445633" lon="11.98169"><ele>835.4000000000001</ele><time>2026-04-18T10:15:03.087Z</time></trkpt><trkpt lat="43.9444717" lon="11.98159"><ele>839.0</ele><time>2026-04-18T10:15:04.086Z</time></trkpt><trkpt lat="43.9443683" lon="11.9815233"><ele>840.5</ele><time>2026-04-18T10:15:05.086Z</time></trkpt><trkpt lat="43.944235" lon="11.98148"><ele>842.0</ele><time>2026-04-18T10:15:06.087Z</time></trkpt><trkpt lat="43.9440983" lon="11.981455"><ele>843.5</ele><time>2026-04-18T10:15:07.087Z</time></trkpt><trkpt lat="43.9439617" lon="11.981445"><ele>845.0</ele><time>2026-04-18T10:15:08.087Z</time></trkpt><trkpt lat="43.9438183" lon="11.9814467"><ele>839.4</ele><time>2026-04-18T10:15:09.087Z</time></trkpt><trkpt lat="43.9436867" lon="11.9814633"><ele>833.8</ele><time>2026-04-18T10:15:10.087Z</time></trkpt><trkpt lat="43.943575" lon="11.981485"><ele>828.2</ele><time>2026-04-18T10:15:11.087Z</time></trkpt><trkpt lat="43.9434883" lon="11.9815217"><ele>822.6</ele><time>2026-04-18T10:15:12.087Z</time></trkpt><trkpt lat="43.9434133" lon="11.981555"><ele>817.0</ele><time>2026-04-18T10:15:13.087Z</time></trkpt><trkpt lat="43.9433033" lon="11.98156"><ele>816.9999999999999</ele><time>2026-04-18T10:15:15.087Z</time></trkpt><trkpt lat="43.943235" lon="11.98155"><ele>817.0</ele><time>2026-04-18T10:15:16.086Z</time></trkpt><trkpt lat="43.94316" lon="11.9815383"><ele>817.0</ele><time>2026-04-18T10:15:17.087Z</time></trkpt><trkpt lat="43.9430783" lon="11.9815167"><ele>817.0</ele><time>2026-04-18T10:15:18.086Z</time></trkpt><trkpt lat="43.9429967" lon="11.98148"><ele>816.9999999999999</ele><time>2026-04-18T10:15:19.087Z</time></trkpt><trkpt lat="43.9429083" lon="11.9814133"><ele>817.0</ele><time>2026-04-18T10:15:20.086Z</time></trkpt><trkpt lat="43.9428133" lon="11.981325"><ele>817.0</ele><time>2026-04-18T10:15:21.087Z</time></trkpt><trkpt lat="43.94272" lon="11.98125"><ele>817.0</ele><time>2026-04-18T10:15:22.086Z</time></trkpt><trkpt lat="43.9426217" lon="11.9811917"><ele>817.0</ele><time>2026-04-18T10:15:23.087Z</time></trkpt><trkpt lat="43.9425183" lon="11.9811617"><ele>817.0</ele><time>2026-04-18T10:15:24.087Z</time></trkpt><trkpt lat="43.9423967" lon="11.9811517"><ele>817.0</ele><time>2026-04-18T10:15:25.087Z</time></trkpt><trkpt lat="43.9422717" lon="11.98116"><ele>821.75</ele><time>2026-04-18T10:15:26.087Z</time></trkpt><trkpt lat="43.942135" lon="11.9811983"><ele>826.5</ele><time>2026-04-18T10:15:27.087Z</time></trkpt><trkpt lat="43.9420133" lon="11.9812333"><ele>831.25</ele><time>2026-04-18T10:15:28.087Z</time></trkpt><trkpt lat="43.9418883" lon="11.9812667"><ele>836.0</ele><time>2026-04-18T10:15:29.087Z</time></trkpt><trkpt lat="43.9417617" lon="11.9812933"><ele>837.1999999999999</ele><time>2026-04-18T10:15:30.087Z</time></trkpt><trkpt lat="43.9416433" lon="11.981315"><ele>838.4</ele><time>2026-04-18T10:15:31.087Z</time></trkpt><trkpt lat="43.941545" lon="11.9813183"><ele>839.6</ele><time>2026-04-18T10:15:32.087Z</time></trkpt><trkpt lat="43.9414467" lon="11.9812983"><ele>840.8</ele><time>2026-04-18T10:15:33.086Z</time></trkpt><trkpt lat="43.94136" lon="11.98126"><ele>842.0</ele><time>2026-04-18T10:15:34.087Z</time></trkpt><trkpt lat="43.9412733" lon="11.9812"><ele>842.0</ele><time>2026-04-18T10:15:35.087Z</time></trkpt><trkpt lat="43.9411867" lon="11.9811283"><ele>842.0</ele><time>2026-04-18T10:15:36.087Z</time></trkpt><trkpt lat="43.9410867" lon="11.9810283"><ele>842.0</ele><time>2026-04-18T10:15:37.086Z</time></trkpt><trkpt lat="43.94099" lon="11.9809133"><ele>842.0</ele><time>2026-04-18T10:15:38.087Z</time></trkpt><trkpt lat="43.9408683" lon="11.9808167"><ele>841.0</ele><time>2026-04-18T10:15:39.087Z</time></trkpt><trkpt lat="43.9407433" lon="11.9807267"><ele>840.0</ele><time>2026-04-18T10:15:40.087Z</time></trkpt><trkpt lat="43.94063" lon="11.98061"><ele>839.0</ele><time>2026-04-18T10:15:41.086Z</time></trkpt><trkpt lat="43.94051" lon="11.9805017"><ele>838.0</ele><time>2026-04-18T10:15:42.087Z</time></trkpt><trkpt lat="43.9404" lon="11.9803933"><ele>838.0</ele><time>2026-04-18T10:15:43.087Z</time></trkpt><trkpt lat="43.9402883" lon="11.98028"><ele>838.0</ele><time>2026-04-18T10:15:44.087Z</time></trkpt><trkpt lat="43.940175" lon="11.980165"><ele>838.0</ele><time>2026-04-18T10:15:45.087Z</time></trkpt><trkpt lat="43.94006" lon="11.98006"><ele>838.0</ele><time>2026-04-18T10:15:46.087Z</time></trkpt><trkpt lat="43.9399517" lon="11.9799483"><ele>836.0</ele><time>2026-04-18T10:15:47.087Z</time></trkpt><trkpt lat="43.9398583" lon="11.9798083"><ele>834.0</ele><time>2026-04-18T10:15:48.087Z</time></trkpt><trkpt lat="43.9397783" lon="11.9796433"><ele>832.0</ele><time>2026-04-18T10:15:49.086Z</time></trkpt><trkpt lat="43.9396933" lon="11.9794667"><ele>830.0</ele><time>2026-04-18T10:15:50.086Z</time></trkpt><trkpt lat="43.939605" lon="11.979325"><ele>830.0</ele><time>2026-04-18T10:15:51.087Z</time></trkpt><trkpt lat="43.93951" lon="11.9791867"><ele>830.0</ele><time>2026-04-18T10:15:52.087Z</time></trkpt><trkpt lat="43.9394083" lon="11.979055"><ele>830.0</ele><time>2026-04-18T10:15:53.086Z</time></trkpt><trkpt lat="43.9393117" lon="11.9789317"><ele>830.0</ele><time>2026-04-18T10:15:54.087Z</time></trkpt><trkpt lat="43.93921" lon="11.97884"><ele>831.0</ele><time>2026-04-18T10:15:55.086Z</time></trkpt><trkpt lat="43.9390983" lon="11.9787683"><ele>832.0</ele><time>2026-04-18T10:15:56.087Z</time></trkpt><trkpt lat="43.9389883" lon="11.9787"><ele>833.0</ele><time>2026-04-18T10:15:57.087Z</time></trkpt><trkpt lat="43.938895" lon="11.978625"><ele>834.0</ele><time>2026-04-18T10:15:58.087Z</time></trkpt><trkpt lat="43.9388" lon="11.9785217"><ele>834.0</ele><time>2026-04-18T10:15:59.087Z</time></trkpt><trkpt lat="43.938715" lon="11.9784167"><ele>834.0</ele><time>2026-04-18T10:16:00.087Z</time></trkpt><trkpt lat="43.9386183" lon="11.9783383"><ele>834.0</ele><time>2026-04-18T10:16:01.087Z</time></trkpt><trkpt lat="43.938495" lon="11.97829"><ele>834.0</ele><time>2026-04-18T10:16:02.087Z</time></trkpt><trkpt lat="43.9383483" lon="11.97826"><ele>837.5</ele><time>2026-04-18T10:16:03.086Z</time></trkpt><trkpt lat="43.9382083" lon="11.9782283"><ele>841.0</ele><time>2026-04-18T10:16:04.087Z</time></trkpt><trkpt lat="43.938075" lon="11.9781833"><ele>844.5</ele><time>2026-04-18T10:16:05.087Z</time></trkpt><trkpt lat="43.937965" lon="11.97812"><ele>848.0</ele><time>2026-04-18T10:16:06.087Z</time></trkpt><trkpt lat="43.9378633" lon="11.9780333"><ele>848.0</ele><time>2026-04-18T10:16:07.087Z</time></trkpt><trkpt lat="43.9377717" lon="11.9779267"><ele>848.0</ele><time>2026-04-18T10:16:08.087Z</time></trkpt><trkpt lat="43.9376967" lon="11.9778083"><ele>848.0</ele><time>2026-04-18T10:16:09.087Z</time></trkpt><trkpt lat="43.93761" lon="11.97767"><ele>848.0</ele><time>2026-04-18T10:16:10.086Z</time></trkpt><trkpt lat="43.9375017" lon="11.97754"><ele>851.2</ele><time>2026-04-18T10:16:11.087Z</time></trkpt><trkpt lat="43.9374017" lon="11.9774217"><ele>854.4</ele><time>2026-04-18T10:16:12.087Z</time></trkpt><trkpt lat="43.9373117" lon="11.9773217"><ele>857.6000000000001</ele><time>2026-04-18T10:16:13.087Z</time></trkpt><trkpt lat="43.93724" lon="11.9772383"><ele>860.8000000000001</ele><time>2026-04-18T10:16:14.087Z</time></trkpt><trkpt lat="43.9371867" lon="11.9771767"><ele>864.0</ele><time>2026-04-18T10:16:15.087Z</time></trkpt><trkpt lat="43.9371067" lon="11.9771"><ele>864.0</ele><time>2026-04-18T10:16:17.087Z</time></trkpt><trkpt lat="43.9369933" lon="11.9769983"><ele>864.0</ele><time>2026-04-18T10:17:21.087Z</time></trkpt><trkpt lat="43.9368667" lon="11.9769933"><ele>864.0</ele><time>2026-04-18T10:17:23.087Z</time></trkpt><trkpt lat="43.936775" lon="11.97699"><ele>864.0</ele><time>2026-04-18T10:17:24.087Z</time></trkpt><trkpt lat="43.9366767" lon="11.9769633"><ele>864.25</ele><time>2026-04-18T10:17:25.086Z</time></trkpt><trkpt lat="43.9365717" lon="11.9769133"><ele>864.5</ele><time>2026-04-18T10:17:26.086Z</time></trkpt><trkpt lat="43.936465" lon="11.9768367"><ele>864.75</ele><time>2026-04-18T10:17:27.087Z</time></trkpt><trkpt lat="43.9363717" lon="11.9767383"><ele>865.0</ele><time>2026-04-18T10:17:28.087Z</time></trkpt><trkpt lat="43.936275" lon="11.9766533"><ele>867.1666666666666</ele><time>2026-04-18T10:17:29.087Z</time></trkpt><trkpt lat="43.936185" lon="11.976595"><ele>869.3333333333333</ele><time>2026-04-18T10:17:30.087Z</time></trkpt><trkpt lat="43.9360917" lon="11.976565"><ele>871.5</ele><time>2026-04-18T10:17:31.087Z</time></trkpt><trkpt lat="43.9360017" lon="11.9765533"><ele>873.6666666666667</ele><time>2026-04-18T10:17:32.087Z</time></trkpt><trkpt lat="43.9359217" lon="11.9765733"><ele>875.8333333333334</ele><time>2026-04-18T10:17:33.087Z</time></trkpt><trkpt lat="43.9358633" lon="11.9766117"><ele>878.0</ele><time>2026-04-18T10:17:34.087Z</time></trkpt><trkpt lat="43.9358067" lon="11.9766617"><ele>876.5000000000001</ele><time>2026-04-18T10:17:35.087Z</time></trkpt><trkpt lat="43.9357583" lon="11.9767467"><ele>875.0</ele><time>2026-04-18T10:17:36.087Z</time></trkpt><trkpt lat="43.9357033" lon="11.9768183"><ele>873.5</ele><time>2026-04-18T10:17:37.087Z</time></trkpt><trkpt lat="43.9356417" lon="11.9768717"><ele>872.0</ele><time>2026-04-18T10:17:38.086Z</time></trkpt><trkpt lat="43.9355033" lon="11.976875"><ele>870.5000000000001</ele><time>2026-04-18T10:17:40.087Z</time></trkpt><trkpt lat="43.9354333" lon="11.97683"><ele>869.0</ele><time>2026-04-18T10:17:41.087Z</time></trkpt><trkpt lat="43.93538" lon="11.9767467"><ele>872.6</ele><time>2026-04-18T10:17:42.087Z</time></trkpt><trkpt lat="43.93534" lon="11.976645"><ele>876.2</ele><time>2026-04-18T10:17:43.087Z</time></trkpt><trkpt lat="43.9353133" lon="11.9764967"><ele>879.8000000000001</ele><time>2026-04-18T10:17:44.087Z</time></trkpt><trkpt lat="43.9352817" lon="11.976345"><ele>883.4000000000001</ele><time>2026-04-18T10:17:45.087Z</time></trkpt><trkpt lat="43.935235" lon="11.9761983"><ele>887.0</ele><time>2026-04-18T10:17:46.086Z</time></trkpt><trkpt lat="43.9351633" lon="11.97608"><ele>887.0</ele><time>2026-04-18T10:17:47.087Z</time></trkpt><trkpt lat="43.9350767" lon="11.975975"><ele>887.0</ele><time>2026-04-18T10:17:48.087Z</time></trkpt><trkpt lat="43.935005" lon="11.975855"><ele>887.0</ele><time>2026-04-18T10:17:49.087Z</time></trkpt><trkpt lat="43.93495" lon="11.975715"><ele>887.0</ele><time>2026-04-18T10:17:50.086Z</time></trkpt><trkpt lat="43.9349" lon="11.97557"><ele>889.2</ele><time>2026-04-18T10:17:51.087Z</time></trkpt><trkpt lat="43.9348417" lon="11.9754283"><ele>891.4000000000001</ele><time>2026-04-18T10:17:52.087Z</time></trkpt><trkpt lat="43.934775" lon="11.975325"><ele>893.5999999999999</ele><time>2026-04-18T10:17:53.087Z</time></trkpt><trkpt lat="43.9347067" lon="11.975265"><ele>895.8</ele><time>2026-04-18T10:17:54.087Z</time></trkpt><trkpt lat="43.9346417" lon="11.9752233"><ele>898.0</ele><time>2026-04-18T10:17:55.087Z</time></trkpt><trkpt lat="43.9345467" lon="11.9751717"><ele>897.9999999999999</ele><time>2026-04-18T10:17:57.087Z</time></trkpt><trkpt lat="43.9344667" lon="11.9750783"><ele>898.0</ele><time>2026-04-18T10:18:32.086Z</time></trkpt><trkpt lat="43.9343717" lon="11.9750733"><ele>898.0</ele><time>2026-04-18T10:18:34.087Z</time></trkpt><trkpt lat="43.934305" lon="11.97506"><ele>898.0</ele><time>2026-04-18T10:18:35.087Z</time></trkpt><trkpt lat="43.9342233" lon="11.9750467"><ele>897.9999999999999</ele><time>2026-04-18T10:18:36.086Z</time></trkpt><trkpt lat="43.9341317" lon="11.9750367"><ele>898.0</ele><time>2026-04-18T10:18:37.087Z</time></trkpt><trkpt lat="43.9340333" lon="11.97503"><ele>893.5999999999999</ele><time>2026-04-18T10:18:38.087Z</time></trkpt><trkpt lat="43.9339267" lon="11.9750383"><ele>889.1999999999999</ele><time>2026-04-18T10:18:39.087Z</time></trkpt><trkpt lat="43.9338183" lon="11.9750483"><ele>884.8</ele><time>2026-04-18T10:18:40.087Z</time></trkpt><trkpt lat="43.9337117" lon="11.97506"><ele>880.4</ele><time>2026-04-18T10:18:41.087Z</time></trkpt><trkpt lat="43.933615" lon="11.975065"><ele>876.0</ele><time>2026-04-18T10:18:42.087Z</time></trkpt><trkpt lat="43.9335233" lon="11.9750617"><ele>876.0</ele><time>2026-04-18T10:18:43.086Z</time></trkpt><trkpt lat="43.93342" lon="11.9750533"><ele>875.9999999999999</ele><time>2026-04-18T10:18:44.087Z</time></trkpt><trkpt lat="43.93331" lon="11.9750533"><ele>875.9999999999999</ele><time>2026-04-18T10:18:45.086Z</time></trkpt><trkpt lat="43.933195" lon="11.97506"><ele>876.0</ele><time>2026-04-18T10:18:46.087Z</time></trkpt><trkpt lat="43.9330933" lon="11.97507"><ele>876.0</ele><time>2026-04-18T10:18:47.087Z</time></trkpt><trkpt lat="43.9330017" lon="11.9750833"><ele>875.8333333333334</ele><time>2026-04-18T10:18:48.087Z</time></trkpt><trkpt lat="43.93292" lon="11.9750983"><ele>875.6666666666667</ele><time>2026-04-18T10:18:49.087Z</time></trkpt><trkpt lat="43.932845" lon="11.9751133"><ele>875.5</ele><time>2026-04-18T10:18:50.087Z</time></trkpt><trkpt lat="43.9327517" lon="11.9751367"><ele>875.3333333333334</ele><time>2026-04-18T10:18:52.087Z</time></trkpt><trkpt lat="43.9326817" lon="11.975155"><ele>875.1666666666667</ele><time>2026-04-18T10:18:55.086Z</time></trkpt><trkpt lat="43.9326133" lon="11.9751617"><ele>875.0</ele><time>2026-04-18T10:18:58.086Z</time></trkpt><trkpt lat="43.9325567" lon="11.9752017"><ele>878.0000000000001</ele><time>2026-04-18T10:19:02.086Z</time></trkpt><trkpt lat="43.9325067" lon="11.9752833"><ele>881.0</ele><time>2026-04-18T10:19:30.087Z</time></trkpt><trkpt lat="43.9324933" lon="11.9751967"><ele>884.0</ele><time>2026-04-18T10:19:32.087Z</time></trkpt><trkpt lat="43.932495" lon="11.9750817"><ele>887.0</ele><time>2026-04-18T10:19:34.087Z</time></trkpt><trkpt lat="43.93249" lon="11.9749483"><ele>890.0000000000001</ele><time>2026-04-18T10:19:36.087Z</time></trkpt><trkpt lat="43.9324867" lon="11.9748167"><ele>893.0</ele><time>2026-04-18T10:19:38.087Z</time></trkpt><trkpt lat="43.9324983" lon="11.9746767"><ele>896.5999999999999</ele><time>2026-04-18T10:19:40.087Z</time></trkpt><trkpt lat="43.9325633" lon="11.9745433"><ele>900.1999999999999</ele><time>2026-04-18T10:19:42.087Z</time></trkpt><trkpt lat="43.9326383" lon="11.9744567"><ele>903.8</ele><time>2026-04-18T10:19:44.086Z</time></trkpt><trkpt lat="43.9326983" lon="11.974415"><ele>907.4</ele><time>2026-04-18T10:19:46.087Z</time></trkpt><trkpt lat="43.932795" lon="11.97444"><ele>911.0</ele><time>2026-04-18T10:19:49.087Z</time></trkpt><trkpt lat="43.9328883" lon="11.9744567"><ele>911.0</ele><time>2026-04-18T10:19:52.087Z</time></trkpt><trkpt lat="43.9329717" lon="11.9745083"><ele>910.9999999999999</ele><time>2026-04-18T10:19:54.087Z</time></trkpt><trkpt lat="43.9330867" lon="11.97459"><ele>910.9999999999999</ele><time>2026-04-18T10:19:56.087Z</time></trkpt><trkpt lat="43.9332017" lon="11.9745783"><ele>911.0</ele><time>2026-04-18T10:19:58.087Z</time></trkpt><trkpt lat="43.9332833" lon="11.974575"><ele>911.0</ele><time>2026-04-18T10:20:00.086Z</time></trkpt><trkpt lat="43.9333633" lon="11.9745767"><ele>911.1999999999999</ele><time>2026-04-18T10:20:02.086Z</time></trkpt><trkpt lat="43.9334717" lon="11.9745583"><ele>911.3999999999999</ele><time>2026-04-18T10:20:04.087Z</time></trkpt><trkpt lat="43.9335367" lon="11.9745367"><ele>911.6</ele><time>2026-04-18T10:20:05.087Z</time></trkpt><trkpt lat="43.9336583" lon="11.97451"><ele>911.8</ele><time>2026-04-18T10:20:07.087Z</time></trkpt><trkpt lat="43.9337583" lon="11.9744633"><ele>912.0</ele><time>2026-04-18T10:20:09.086Z</time></trkpt><trkpt lat="43.9338167" lon="11.97436"><ele>912.0</ele><time>2026-04-18T10:20:11.087Z</time></trkpt><trkpt lat="43.933855" lon="11.9742717"><ele>912.0</ele><time>2026-04-18T10:20:12.087Z</time></trkpt><trkpt lat="43.9339117" lon="11.9741417"><ele>912.0</ele><time>2026-04-18T10:20:14.087Z</time></trkpt><trkpt lat="43.933945" lon="11.9740233"><ele>912.0</ele><time>2026-04-18T10:20:16.087Z</time></trkpt><trkpt lat="43.933955" lon="11.97392"><ele>912.0</ele><time>2026-04-18T10:20:18.087Z</time></trkpt><trkpt lat="43.933985" lon="11.9738167"><ele>912.0</ele><time>2026-04-18T10:20:20.087Z</time></trkpt><trkpt lat="43.9340283" lon="11.9737167"><ele>912.0</ele><time>2026-04-18T10:20:23.087Z</time></trkpt><trkpt lat="43.934055" lon="11.9736"><ele>912.0</ele><time>2026-04-18T10:20:26.087Z</time></trkpt><trkpt lat="43.93405" lon="11.9735017"><ele>912.0</ele><time>2026-04-18T10:20:28.087Z</time></trkpt><trkpt lat="43.9340483" lon="11.9734033"><ele>912.0</ele><time>2026-04-18T10:20:30.087Z</time></trkpt><trkpt lat="43.934065" lon="11.973285"><ele>912.0</ele><time>2026-04-18T10:20:32.087Z</time></trkpt><trkpt lat="43.934075" lon="11.97319"><ele>912.0</ele><time>2026-04-18T10:20:34.087Z</time></trkpt><trkpt lat="43.9341117" lon="11.9731083"><ele>912.0</ele><time>2026-04-18T10:20:36.087Z</time></trkpt><trkpt lat="43.9341567" lon="11.973015"><ele>912.0</ele><time>2026-04-18T10:20:38.087Z</time></trkpt><trkpt lat="43.9342233" lon="11.9729417"><ele>912.0</ele><time>2026-04-18T10:20:40.086Z</time></trkpt><trkpt lat="43.9343217" lon="11.9728817"><ele>912.0</ele><time>2026-04-18T10:20:42.087Z</time></trkpt><trkpt lat="43.93442" lon="11.9727833"><ele>912.0</ele><time>2026-04-18T10:20:44.087Z</time></trkpt><trkpt lat="43.9345" lon="11.97268"><ele>909.8</ele><time>2026-04-18T10:20:46.087Z</time></trkpt><trkpt lat="43.93455" lon="11.9725533"><ele>907.6</ele><time>2026-04-18T10:20:48.087Z</time></trkpt><trkpt lat="43.9345617" lon="11.9724233"><ele>905.3999999999999</ele><time>2026-04-18T10:20:50.088Z</time></trkpt><trkpt lat="43.9345633" lon="11.9722883"><ele>903.1999999999999</ele><time>2026-04-18T10:20:52.088Z</time></trkpt><trkpt lat="43.9345517" lon="11.9721283"><ele>901.0</ele><time>2026-04-18T10:20:54.088Z</time></trkpt><trkpt lat="43.9345483" lon="11.97199"><ele>901.0</ele><time>2026-04-18T10:20:56.087Z</time></trkpt><trkpt lat="43.9345567" lon="11.9718483"><ele>900.9999999999999</ele><time>2026-04-18T10:20:58.088Z</time></trkpt><trkpt lat="43.9345417" lon="11.9717033"><ele>900.9999999999999</ele><time>2026-04-18T10:21:00.088Z</time></trkpt><trkpt lat="43.934515" lon="11.9715417"><ele>901.0</ele><time>2026-04-18T10:21:02.088Z</time></trkpt><trkpt lat="43.93451" lon="11.9714333"><ele>901.0</ele><time>2026-04-18T10:21:03.088Z</time></trkpt><trkpt lat="43.9345067" lon="11.9712883"><ele>902.0</ele><time>2026-04-18T10:21:05.087Z</time></trkpt><trkpt lat="43.93449" lon="11.971135"><ele>902.9999999999999</ele><time>2026-04-18T10:21:07.087Z</time></trkpt><trkpt lat="43.9344467" lon="11.971"><ele>903.9999999999999</ele><time>2026-04-18T10:21:09.088Z</time></trkpt><trkpt lat="43.9344067" lon="11.9709283"><ele>905.0</ele><time>2026-04-18T10:21:10.088Z</time></trkpt><trkpt lat="43.934345" lon="11.9708167"><ele>906.0</ele><time>2026-04-18T10:21:12.088Z</time></trkpt><trkpt lat="43.9342933" lon="11.9706717"><ele>906.1666666666666</ele><time>2026-04-18T10:21:14.088Z</time></trkpt><trkpt lat="43.9342717" lon="11.9705833"><ele>906.3333333333333</ele><time>2026-04-18T10:21:15.087Z</time></trkpt><trkpt lat="43.934255" lon="11.9704983"><ele>906.5</ele><time>2026-04-18T10:21:16.088Z</time></trkpt><trkpt lat="43.934235" lon="11.9703533"><ele>906.6666666666666</ele><time>2026-04-18T10:21:18.087Z</time></trkpt><trkpt lat="43.9341983" lon="11.97019"><ele>906.8333333333333</ele><time>2026-04-18T10:21:20.088Z</time></trkpt><trkpt lat="43.9341717" lon="11.9700917"><ele>907.0</ele><time>2026-04-18T10:21:21.087Z</time></trkpt><trkpt lat="43.9341367" lon="11.9699917"><ele>903.9999999999999</ele><time>2026-04-18T10:21:22.088Z</time></trkpt><trkpt lat="43.9341017" lon="11.969905"><ele>901.0</ele><time>2026-04-18T10:21:23.088Z</time></trkpt><trkpt lat="43.9340667" lon="11.969825"><ele>898.0</ele><time>2026-04-18T10:21:24.088Z</time></trkpt><trkpt lat="43.9340233" lon="11.96976"><ele>895.0</ele><time>2026-04-18T10:21:25.087Z</time></trkpt><trkpt lat="43.933985" lon="11.969685"><ele>891.9999999999999</ele><time>2026-04-18T10:21:26.088Z</time></trkpt><trkpt lat="43.9339483" lon="11.9696133"><ele>889.0</ele><time>2026-04-18T10:21:27.088Z</time></trkpt><trkpt lat="43.9338567" lon="11.9695017"><ele>889.0</ele><time>2026-04-18T10:21:29.088Z</time></trkpt><trkpt lat="43.9338017" lon="11.9694533"><ele>889.0000000000001</ele><time>2026-04-18T10:21:30.088Z</time></trkpt><trkpt lat="43.9337517" lon="11.9693983"><ele>889.0000000000001</ele><time>2026-04-18T10:21:31.087Z</time></trkpt><trkpt lat="43.93368" lon="11.9692633"><ele>889.0</ele><time>2026-04-18T10:21:33.088Z</time></trkpt><trkpt lat="43.9336383" lon="11.9691167"><ele>889.0</ele><time>2026-04-18T10:21:35.087Z</time></trkpt><trkpt lat="43.93361" lon="11.9689783"><ele>887.6666666666666</ele><time>2026-04-18T10:21:37.088Z</time></trkpt><trkpt lat="43.9335733" lon="11.9688817"><ele>886.3333333333333</ele><time>2026-04-18T10:21:39.088Z</time></trkpt><trkpt lat="43.9335367" lon="11.968795"><ele>885.0</ele><time>2026-04-18T10:22:04.087Z</time></trkpt><trkpt lat="43.9335183" lon="11.9686767"><ele>883.6666666666667</ele><time>2026-04-18T10:22:06.087Z</time></trkpt><trkpt lat="43.933485" lon="11.96855"><ele>882.3333333333334</ele><time>2026-04-18T10:22:08.088Z</time></trkpt><trkpt lat="43.9334633" lon="11.96843"><ele>881.0</ele><time>2026-04-18T10:22:10.088Z</time></trkpt><trkpt lat="43.9334333" lon="11.9683067"><ele>883.3333333333334</ele><time>2026-04-18T10:22:12.087Z</time></trkpt><trkpt lat="43.93341" lon="11.9682083"><ele>885.6666666666667</ele><time>2026-04-18T10:22:14.087Z</time></trkpt><trkpt lat="43.9333767" lon="11.9681017"><ele>888.0</ele><time>2026-04-18T10:22:16.087Z</time></trkpt><trkpt lat="43.93336" lon="11.9679783"><ele>890.3333333333333</ele><time>2026-04-18T10:22:18.088Z</time></trkpt><trkpt lat="43.9333283" lon="11.9678483"><ele>892.6666666666666</ele><time>2026-04-18T10:22:20.087Z</time></trkpt><trkpt lat="43.93329" lon="11.96773"><ele>895.0</ele><time>2026-04-18T10:22:22.087Z</time></trkpt><trkpt lat="43.93325" lon="11.9676083"><ele>895.0</ele><time>2026-04-18T10:22:24.088Z</time></trkpt><trkpt lat="43.93322" lon="11.9674767"><ele>895.0</ele><time>2026-04-18T10:22:26.087Z</time></trkpt><trkpt lat="43.9331883" lon="11.9673717"><ele>895.0</ele><time>2026-04-18T10:22:28.088Z</time></trkpt><trkpt lat="43.93315" lon="11.967265"><ele>895.0</ele><time>2026-04-18T10:22:30.088Z</time></trkpt><trkpt lat="43.9331" lon="11.9671583"><ele>895.0</ele><time>2026-04-18T10:22:32.088Z</time></trkpt><trkpt lat="43.9330367" lon="11.9670333"><ele>894.9999999999999</ele><time>2026-04-18T10:22:34.088Z</time></trkpt><trkpt lat="43.9329767" lon="11.9669283"><ele>895.0</ele><time>2026-04-18T10:22:36.088Z</time></trkpt><trkpt lat="43.93292" lon="11.9668417"><ele>895.0</ele><time>2026-04-18T10:22:38.088Z</time></trkpt><trkpt lat="43.9328783" lon="11.9667733"><ele>895.0</ele><time>2026-04-18T10:22:40.088Z</time></trkpt><trkpt lat="43.9328033" lon="11.9666917"><ele>894.9999999999999</ele><time>2026-04-18T10:22:55.087Z</time></trkpt><trkpt lat="43.9327433" lon="11.9666133"><ele>895.0</ele><time>2026-04-18T10:22:58.088Z</time></trkpt><trkpt lat="43.93267" lon="11.9665417"><ele>891.6</ele><time>2026-04-18T10:23:01.088Z</time></trkpt><trkpt lat="43.93261" lon="11.96646"><ele>888.2</ele><time>2026-04-18T10:23:03.088Z</time></trkpt><trkpt lat="43.9325467" lon="11.966365"><ele>884.8</ele><time>2026-04-18T10:23:05.088Z</time></trkpt><trkpt lat="43.9324717" lon="11.9662783"><ele>881.4</ele><time>2026-04-18T10:23:07.088Z</time></trkpt><trkpt lat="43.9323633" lon="11.9662"><ele>878.0</ele><time>2026-04-18T10:23:09.088Z</time></trkpt><trkpt lat="43.9323017" lon="11.96617"><ele>876.8333333333334</ele><time>2026-04-18T10:23:10.088Z</time></trkpt><trkpt lat="43.9322317" lon="11.9661517"><ele>875.6666666666667</ele><time>2026-04-18T10:23:11.088Z</time></trkpt><trkpt lat="43.9321517" lon="11.9661317"><ele>874.5</ele><time>2026-04-18T10:23:12.087Z</time></trkpt><trkpt lat="43.932075" lon="11.966115"><ele>873.3333333333333</ele><time>2026-04-18T10:23:13.087Z</time></trkpt><trkpt lat="43.9320117" lon="11.96609"><ele>872.1666666666666</ele><time>2026-04-18T10:23:14.088Z</time></trkpt><trkpt lat="43.9319533" lon="11.9660533"><ele>871.0</ele><time>2026-04-18T10:23:15.088Z</time></trkpt><trkpt lat="43.93187" lon="11.96594"><ele>868.8</ele><time>2026-04-18T10:23:17.087Z</time></trkpt><trkpt lat="43.9318067" lon="11.9658283"><ele>866.5999999999999</ele><time>2026-04-18T10:23:19.088Z</time></trkpt><trkpt lat="43.93172" lon="11.965745"><ele>864.4</ele><time>2026-04-18T10:23:21.088Z</time></trkpt><trkpt lat="43.9316267" lon="11.9656567"><ele>862.2</ele><time>2026-04-18T10:23:23.088Z</time></trkpt><trkpt lat="43.9315717" lon="11.965545"><ele>860.0</ele><time>2026-04-18T10:23:25.088Z</time></trkpt><trkpt lat="43.9315233" lon="11.965435"><ele>860.0</ele><time>2026-04-18T10:23:27.088Z</time></trkpt><trkpt lat="43.931455" lon="11.9653283"><ele>860.0</ele><time>2026-04-18T10:23:29.088Z</time></trkpt><trkpt lat="43.9314" lon="11.965265"><ele>860.0</ele><time>2026-04-18T10:23:30.088Z</time></trkpt><trkpt lat="43.9313533" lon="11.9651983"><ele>860.0</ele><time>2026-04-18T10:23:31.088Z</time></trkpt><trkpt lat="43.9312583" lon="11.9650817"><ele>860.0</ele><time>2026-04-18T10:23:33.088Z</time></trkpt><trkpt lat="43.9311633" lon="11.96498"><ele>860.2</ele><time>2026-04-18T10:23:35.088Z</time></trkpt><trkpt lat="43.9310967" lon="11.9648883"><ele>860.4</ele><time>2026-04-18T10:23:37.088Z</time></trkpt><trkpt lat="43.9310633" lon="11.96476"><ele>860.5999999999999</ele><time>2026-04-18T10:23:39.088Z</time></trkpt><trkpt lat="43.9310483" lon="11.96461"><ele>860.8</ele><time>2026-04-18T10:23:41.088Z</time></trkpt><trkpt lat="43.9310267" lon="11.9644433"><ele>861.0</ele><time>2026-04-18T10:23:43.087Z</time></trkpt><trkpt lat="43.93102" lon="11.96429"><ele>859.8</ele><time>2026-04-18T10:23:45.088Z</time></trkpt><trkpt lat="43.9310033" lon="11.9641283"><ele>858.5999999999999</ele><time>2026-04-18T10:23:47.088Z</time></trkpt><trkpt lat="43.930965" lon="11.963995"><ele>857.4</ele><time>2026-04-18T10:23:49.087Z</time></trkpt><trkpt lat="43.9309183" lon="11.963875"><ele>856.2</ele><time>2026-04-18T10:23:51.087Z</time></trkpt><trkpt lat="43.930885" lon="11.9637417"><ele>855.0</ele><time>2026-04-18T10:23:53.087Z</time></trkpt><trkpt lat="43.9308533" lon="11.9636133"><ele>851.8</ele><time>2026-04-18T10:23:55.088Z</time></trkpt><trkpt lat="43.930805" lon="11.96348"><ele>848.6</ele><time>2026-04-18T10:23:57.088Z</time></trkpt><trkpt lat="43.9307517" lon="11.96335"><ele>845.4000000000001</ele><time>2026-04-18T10:23:59.088Z</time></trkpt><trkpt lat="43.9306833" lon="11.96323"><ele>842.2</ele><time>2026-04-18T10:24:01.087Z</time></trkpt><trkpt lat="43.9306217" lon="11.9630917"><ele>839.0</ele><time>2026-04-18T10:24:03.087Z</time></trkpt><trkpt lat="43.9305733" lon="11.9629783"><ele>837.3333333333334</ele><time>2026-04-18T10:24:05.087Z</time></trkpt><trkpt lat="43.930525" lon="11.9628983"><ele>835.6666666666667</ele><time>2026-04-18T10:24:07.087Z</time></trkpt><trkpt lat="43.9304567" lon="11.9628333"><ele>834.0</ele><time>2026-04-18T10:24:09.088Z</time></trkpt><trkpt lat="43.9304183" lon="11.962725"><ele>832.3333333333333</ele><time>2026-04-18T10:24:11.087Z</time></trkpt><trkpt lat="43.930385" lon="11.962625"><ele>830.6666666666666</ele><time>2026-04-18T10:24:13.088Z</time></trkpt><trkpt lat="43.9303233" lon="11.9625467"><ele>829.0</ele><time>2026-04-18T10:24:15.088Z</time></trkpt><trkpt lat="43.930235" lon="11.9625133"><ele>826.4999999999999</ele><time>2026-04-18T10:24:17.088Z</time></trkpt><trkpt lat="43.9301483" lon="11.9624883"><ele>824.0</ele><time>2026-04-18T10:24:19.088Z</time></trkpt><trkpt lat="43.9300583" lon="11.9624267"><ele>821.5</ele><time>2026-04-18T10:24:21.087Z</time></trkpt><trkpt lat="43.9299733" lon="11.9623783"><ele>819.0</ele><time>2026-04-18T10:24:23.087Z</time></trkpt><trkpt lat="43.929915" lon="11.9622917"><ele>816.4999999999999</ele><time>2026-04-18T10:24:25.087Z</time></trkpt><trkpt lat="43.9299433" lon="11.9621917"><ele>814.0</ele><time>2026-04-18T10:24:28.088Z</time></trkpt><trkpt lat="43.9300267" lon="11.9622167"><ele>813.6</ele><time>2026-04-18T10:25:02.088Z</time></trkpt><trkpt lat="43.930095" lon="11.962225"><ele>813.2</ele><time>2026-04-18T10:25:03.088Z</time></trkpt><trkpt lat="43.9301817" lon="11.9622417"><ele>812.8000000000001</ele><time>2026-04-18T10:25:04.088Z</time></trkpt><trkpt lat="43.9302833" lon="11.9622717"><ele>812.4000000000001</ele><time>2026-04-18T10:25:05.088Z</time></trkpt><trkpt lat="43.93042" lon="11.9623033"><ele>812.0</ele><time>2026-04-18T10:25:06.087Z</time></trkpt><trkpt lat="43.930555" lon="11.962335"><ele>812.0</ele><time>2026-04-18T10:25:07.088Z</time></trkpt><trkpt lat="43.9306867" lon="11.9623617"><ele>812.0</ele><time>2026-04-18T10:25:08.087Z</time></trkpt><trkpt lat="43.93082" lon="11.96237"><ele>812.0</ele><time>2026-04-18T10:25:09.088Z</time></trkpt><trkpt lat="43.9309583" lon="11.96236"><ele>812.0</ele><time>2026-04-18T10:25:10.088Z</time></trkpt><trkpt lat="43.9310917" lon="11.9623383"><ele>813.0</ele><time>2026-04-18T10:25:11.088Z</time></trkpt><trkpt lat="43.9312117" lon="11.9623133"><ele>814.0</ele><time>2026-04-18T10:25:12.087Z</time></trkpt><trkpt lat="43.9313283" lon="11.9622883"><ele>815.0</ele><time>2026-04-18T10:25:13.088Z</time></trkpt><trkpt lat="43.9314333" lon="11.9622667"><ele>816.0</ele><time>2026-04-18T10:25:14.088Z</time></trkpt><trkpt lat="43.9315317" lon="11.9622533"><ele>817.0</ele><time>2026-04-18T10:25:15.088Z</time></trkpt><trkpt lat="43.9316367" lon="11.96222"><ele>815.2</ele><time>2026-04-18T10:25:16.088Z</time></trkpt><trkpt lat="43.93174" lon="11.9621817"><ele>813.4000000000001</ele><time>2026-04-18T10:25:17.088Z</time></trkpt><trkpt lat="43.931835" lon="11.96213"><ele>811.5999999999999</ele><time>2026-04-18T10:25:18.087Z</time></trkpt><trkpt lat="43.931925" lon="11.96208"><ele>809.8</ele><time>2026-04-18T10:25:19.088Z</time></trkpt><trkpt lat="43.9320067" lon="11.9620283"><ele>808.0</ele><time>2026-04-18T10:25:20.088Z</time></trkpt><trkpt lat="43.9320967" lon="11.96199"><ele>807.9999999999999</ele><time>2026-04-18T10:25:21.087Z</time></trkpt><trkpt lat="43.9321717" lon="11.9619767"><ele>808.0</ele><time>2026-04-18T10:25:22.088Z</time></trkpt><trkpt lat="43.93225" lon="11.9619767"><ele>808.0</ele><time>2026-04-18T10:25:23.087Z</time></trkpt><trkpt lat="43.9323383" lon="11.962"><ele>808.0</ele><time>2026-04-18T10:25:24.088Z</time></trkpt><trkpt lat="43.9324233" lon="11.9620283"><ele>807.9999999999999</ele><time>2026-04-18T10:25:25.088Z</time></trkpt><trkpt lat="43.9325217" lon="11.96207"><ele>808.0</ele><time>2026-04-18T10:25:26.088Z</time></trkpt><trkpt lat="43.9326133" lon="11.9621067"><ele>805.2</ele><time>2026-04-18T10:25:27.087Z</time></trkpt><trkpt lat="43.9326983" lon="11.9621283"><ele>802.4</ele><time>2026-04-18T10:25:28.088Z</time></trkpt><trkpt lat="43.932785" lon="11.9621733"><ele>799.6</ele><time>2026-04-18T10:25:29.088Z</time></trkpt><trkpt lat="43.9328783" lon="11.9622217"><ele>796.8000000000001</ele><time>2026-04-18T10:25:30.088Z</time></trkpt><trkpt lat="43.932985" lon="11.9622833"><ele>794.0</ele><time>2026-04-18T10:25:31.088Z</time></trkpt><trkpt lat="43.9331067" lon="11.9623417"><ele>794.0</ele><time>2026-04-18T10:25:32.088Z</time></trkpt><trkpt lat="43.933235" lon="11.9623933"><ele>794.0</ele><time>2026-04-18T10:25:33.088Z</time></trkpt><trkpt lat="43.9333717" lon="11.962435"><ele>794.0</ele><time>2026-04-18T10:25:34.088Z</time></trkpt><trkpt lat="43.93351" lon="11.9624467"><ele>794.0</ele><time>2026-04-18T10:25:35.088Z</time></trkpt><trkpt lat="43.9336317" lon="11.96245"><ele>792.5</ele><time>2026-04-18T10:25:36.088Z</time></trkpt><trkpt lat="43.93376" lon="11.96245"><ele>791.0</ele><time>2026-04-18T10:25:37.087Z</time></trkpt><trkpt lat="43.9338833" lon="11.962425"><ele>789.5</ele><time>2026-04-18T10:25:38.088Z</time></trkpt><trkpt lat="43.9340017" lon="11.9623833"><ele>788.0</ele><time>2026-04-18T10:25:39.088Z</time></trkpt><trkpt lat="43.9341167" lon="11.9623117"><ele>787.25</ele><time>2026-04-18T10:25:40.088Z</time></trkpt><trkpt lat="43.9342267" lon="11.962225"><ele>786.5</ele><time>2026-04-18T10:25:41.088Z</time></trkpt><trkpt lat="43.9343267" lon="11.962125"><ele>785.75</ele><time>2026-04-18T10:25:42.087Z</time></trkpt><trkpt lat="43.93442" lon="11.962025"><ele>785.0</ele><time>2026-04-18T10:25:43.088Z</time></trkpt><trkpt lat="43.93451" lon="11.9619217"><ele>785.0</ele><time>2026-04-18T10:25:44.088Z</time></trkpt><trkpt lat="43.9346017" lon="11.9618383"><ele>785.0</ele><time>2026-04-18T10:25:45.088Z</time></trkpt><trkpt lat="43.9346917" lon="11.9617767"><ele>785.0</ele><time>2026-04-18T10:25:46.088Z</time></trkpt><trkpt lat="43.9347917" lon="11.9617233"><ele>785.0</ele><time>2026-04-18T10:25:47.088Z</time></trkpt><trkpt lat="43.9348967" lon="11.9616867"><ele>785.0</ele><time>2026-04-18T10:25:48.087Z</time></trkpt><trkpt lat="43.9350033" lon="11.961655"><ele>787.6</ele><time>2026-04-18T10:25:49.088Z</time></trkpt><trkpt lat="43.9351017" lon="11.9616233"><ele>790.2</ele><time>2026-04-18T10:25:50.088Z</time></trkpt><trkpt lat="43.9351833" lon="11.9615733"><ele>792.8</ele><time>2026-04-18T10:25:51.088Z</time></trkpt><trkpt lat="43.9352633" lon="11.96151"><ele>795.4</ele><time>2026-04-18T10:25:52.088Z</time></trkpt><trkpt lat="43.935335" lon="11.9614317"><ele>798.0</ele><time>2026-04-18T10:25:53.088Z</time></trkpt><trkpt lat="43.9354083" lon="11.9613617"><ele>798.0</ele><time>2026-04-18T10:25:54.087Z</time></trkpt><trkpt lat="43.9355" lon="11.9613"><ele>798.0</ele><time>2026-04-18T10:25:55.088Z</time></trkpt><trkpt lat="43.9356083" lon="11.961265"><ele>798.0</ele><time>2026-04-18T10:25:56.088Z</time></trkpt><trkpt lat="43.9357217" lon="11.9612417"><ele>798.0</ele><time>2026-04-18T10:25:57.088Z</time></trkpt><trkpt lat="43.93583" lon="11.9612133"><ele>798.0</ele><time>2026-04-18T10:25:58.088Z</time></trkpt><trkpt lat="43.935925" lon="11.96117"><ele>797.8</ele><time>2026-04-18T10:25:59.088Z</time></trkpt><trkpt lat="43.9360233" lon="11.9611133"><ele>797.5999999999999</ele><time>2026-04-18T10:26:00.088Z</time></trkpt><trkpt lat="43.9361217" lon="11.9610433"><ele>797.4000000000001</ele><time>2026-04-18T10:26:01.088Z</time></trkpt><trkpt lat="43.93621" lon="11.960975"><ele>797.2</ele><time>2026-04-18T10:26:02.088Z</time></trkpt><trkpt lat="43.936305" lon="11.960905"><ele>797.0</ele><time>2026-04-18T10:26:03.087Z</time></trkpt><trkpt lat="43.9363883" lon="11.9608467"><ele>793.2</ele><time>2026-04-18T10:26:04.088Z</time></trkpt><trkpt lat="43.9364833" lon="11.960805"><ele>789.4000000000001</ele><time>2026-04-18T10:26:05.088Z</time></trkpt><trkpt lat="43.9365883" lon="11.9608"><ele>785.5999999999999</ele><time>2026-04-18T10:26:06.088Z</time></trkpt><trkpt lat="43.9367067" lon="11.9607967"><ele>781.8</ele><time>2026-04-18T10:26:07.088Z</time></trkpt><trkpt lat="43.936815" lon="11.9607917"><ele>778.0</ele><time>2026-04-18T10:26:08.088Z</time></trkpt><trkpt lat="43.9369167" lon="11.9607717"><ele>777.2</ele><time>2026-04-18T10:26:09.088Z</time></trkpt><trkpt lat="43.9370067" lon="11.9607233"><ele>776.4</ele><time>2026-04-18T10:26:10.087Z</time></trkpt><trkpt lat="43.9371017" lon="11.9606617"><ele>775.6</ele><time>2026-04-18T10:26:11.088Z</time></trkpt><trkpt lat="43.9371917" lon="11.960585"><ele>774.8000000000001</ele><time>2026-04-18T10:26:12.088Z</time></trkpt><trkpt lat="43.93728" lon="11.960505"><ele>774.0</ele><time>2026-04-18T10:26:13.088Z</time></trkpt><trkpt lat="43.937365" lon="11.9604217"><ele>774.0</ele><time>2026-04-18T10:26:14.088Z</time></trkpt><trkpt lat="43.9374483" lon="11.9603367"><ele>774.0</ele><time>2026-04-18T10:26:15.088Z</time></trkpt><trkpt lat="43.93752" lon="11.9602417"><ele>774.0</ele><time>2026-04-18T10:26:16.087Z</time></trkpt><trkpt lat="43.9375833" lon="11.9601367"><ele>774.0</ele><time>2026-04-18T10:26:17.088Z</time></trkpt><trkpt lat="43.9376417" lon="11.9600317"><ele>774.0</ele><time>2026-04-18T10:26:18.087Z</time></trkpt><trkpt lat="43.93771" lon="11.9599333"><ele>770.6</ele><time>2026-04-18T10:26:19.088Z</time></trkpt><trkpt lat="43.9377883" lon="11.9598333"><ele>767.2</ele><time>2026-04-18T10:26:20.088Z</time></trkpt><trkpt lat="43.9378783" lon="11.9597367"><ele>763.8000000000001</ele><time>2026-04-18T10:26:21.088Z</time></trkpt><trkpt lat="43.9379733" lon="11.9596417"><ele>760.4000000000001</ele><time>2026-04-18T10:26:22.088Z</time></trkpt><trkpt lat="43.93807" lon="11.9595733"><ele>757.0</ele><time>2026-04-18T10:26:23.088Z</time></trkpt><trkpt lat="43.938155" lon="11.9595183"><ele>757.0</ele><time>2026-04-18T10:26:24.088Z</time></trkpt><trkpt lat="43.9382317" lon="11.9594783"><ele>757.0</ele><time>2026-04-18T10:26:25.088Z</time></trkpt><trkpt lat="43.9382983" lon="11.9594417"><ele>757.0</ele><time>2026-04-18T10:26:26.088Z</time></trkpt><trkpt lat="43.9383683" lon="11.9594033"><ele>757.0</ele><time>2026-04-18T10:26:27.088Z</time></trkpt><trkpt lat="43.9384367" lon="11.959375"><ele>757.0</ele><time>2026-04-18T10:26:28.088Z</time></trkpt><trkpt lat="43.938505" lon="11.9593517"><ele>757.0</ele><time>2026-04-18T10:26:29.088Z</time></trkpt><trkpt lat="43.9385817" lon="11.9593167"><ele>757.3333333333334</ele><time>2026-04-18T10:26:30.088Z</time></trkpt><trkpt lat="43.938665" lon="11.959285"><ele>757.6666666666667</ele><time>2026-04-18T10:26:31.088Z</time></trkpt><trkpt lat="43.9387467" lon="11.9592433"><ele>758.0</ele><time>2026-04-18T10:26:32.088Z</time></trkpt><trkpt lat="43.9388133" lon="11.9592083"><ele>758.3333333333334</ele><time>2026-04-18T10:26:33.087Z</time></trkpt><trkpt lat="43.9389133" lon="11.9591367"><ele>758.6666666666666</ele><time>2026-04-18T10:26:35.088Z</time></trkpt><trkpt lat="43.93897" lon="11.9590883"><ele>759.0</ele><time>2026-04-18T10:26:36.088Z</time></trkpt><trkpt lat="43.9390283" lon="11.959035"><ele>759.0</ele><time>2026-04-18T10:26:37.087Z</time></trkpt><trkpt lat="43.9390867" lon="11.9589817"><ele>759.0</ele><time>2026-04-18T10:26:38.088Z</time></trkpt><trkpt lat="43.9391467" lon="11.9589267"><ele>759.0</ele><time>2026-04-18T10:26:39.088Z</time></trkpt><trkpt lat="43.9392417" lon="11.95882"><ele>759.0</ele><time>2026-04-18T10:26:41.088Z</time></trkpt><trkpt lat="43.93932" lon="11.9587317"><ele>759.0</ele><time>2026-04-18T10:26:43.087Z</time></trkpt><trkpt lat="43.939385" lon="11.9586417"><ele>758.8333333333334</ele><time>2026-04-18T10:26:45.087Z</time></trkpt><trkpt lat="43.939445" lon="11.958525"><ele>758.6666666666666</ele><time>2026-04-18T10:26:47.088Z</time></trkpt><trkpt lat="43.93949" lon="11.95842"><ele>758.5</ele><time>2026-04-18T10:26:49.088Z</time></trkpt><trkpt lat="43.9395483" lon="11.958295"><ele>758.3333333333333</ele><time>2026-04-18T10:26:51.087Z</time></trkpt><trkpt lat="43.93958" lon="11.9582133"><ele>758.1666666666666</ele><time>2026-04-18T10:26:52.088Z</time></trkpt><trkpt lat="43.9396067" lon="11.9581217"><ele>758.0</ele><time>2026-04-18T10:26:53.088Z</time></trkpt><trkpt lat="43.939635" lon="11.9580383"><ele>761.2</ele><time>2026-04-18T10:26:54.087Z</time></trkpt><trkpt lat="43.939675" lon="11.9579033"><ele>764.4</ele><time>2026-04-18T10:26:56.087Z</time></trkpt><trkpt lat="43.9397183" lon="11.957775"><ele>767.6</ele><time>2026-04-18T10:26:58.088Z</time></trkpt><trkpt lat="43.9397867" lon="11.9576567"><ele>770.8000000000001</ele><time>2026-04-18T10:27:00.088Z</time></trkpt><trkpt lat="43.9398267" lon="11.9575817"><ele>774.0</ele><time>2026-04-18T10:27:01.088Z</time></trkpt><trkpt lat="43.9398667" lon="11.9574967"><ele>775.2857142857143</ele><time>2026-04-18T10:27:02.088Z</time></trkpt><trkpt lat="43.9399033" lon="11.9574167"><ele>776.5714285714287</ele><time>2026-04-18T10:27:03.088Z</time></trkpt><trkpt lat="43.9399383" lon="11.957335"><ele>777.8571428571429</ele><time>2026-04-18T10:27:04.088Z</time></trkpt><trkpt lat="43.9399683" lon="11.9572567"><ele>779.1428571428571</ele><time>2026-04-18T10:27:05.088Z</time></trkpt><trkpt lat="43.94" lon="11.957175"><ele>780.4285714285714</ele><time>2026-04-18T10:27:06.088Z</time></trkpt><trkpt lat="43.9400383" lon="11.957095"><ele>781.7142857142857</ele><time>2026-04-18T10:27:07.088Z</time></trkpt><trkpt lat="43.940075" lon="11.9570117"><ele>783.0</ele><time>2026-04-18T10:27:08.088Z</time></trkpt><trkpt lat="43.940115" lon="11.95693"><ele>784.3333333333334</ele><time>2026-04-18T10:27:09.088Z</time></trkpt><trkpt lat="43.9401583" lon="11.95685"><ele>785.6666666666667</ele><time>2026-04-18T10:27:10.088Z</time></trkpt><trkpt lat="43.940195" lon="11.956775"><ele>787.0</ele><time>2026-04-18T10:27:11.088Z</time></trkpt><trkpt lat="43.9402383" lon="11.9567067"><ele>788.3333333333334</ele><time>2026-04-18T10:27:12.087Z</time></trkpt><trkpt lat="43.9402767" lon="11.9566367"><ele>789.6666666666667</ele><time>2026-04-18T10:27:13.087Z</time></trkpt><trkpt lat="43.9403183" lon="11.956565"><ele>791.0</ele><time>2026-04-18T10:27:14.088Z</time></trkpt><trkpt lat="43.9404217" lon="11.9564667"><ele>792.0</ele><time>2026-04-18T10:27:16.087Z</time></trkpt><trkpt lat="43.9405133" lon="11.9563867"><ele>793.0</ele><time>2026-04-18T10:27:18.087Z</time></trkpt><trkpt lat="43.9405683" lon="11.9562967"><ele>794.0</ele><time>2026-04-18T10:27:20.088Z</time></trkpt><trkpt lat="43.9406367" lon="11.9562"><ele>795.0</ele><time>2026-04-18T10:27:22.088Z</time></trkpt><trkpt lat="43.9407133" lon="11.9561067"><ele>796.0</ele><time>2026-04-18T10:27:24.088Z</time></trkpt><trkpt lat="43.940785" lon="11.9559917"><ele>795.1666666666666</ele><time>2026-04-18T10:27:26.088Z</time></trkpt><trkpt lat="43.9408383" lon="11.9558667"><ele>794.3333333333333</ele><time>2026-04-18T10:27:28.088Z</time></trkpt><trkpt lat="43.9408933" lon="11.95573"><ele>793.5</ele><time>2026-04-18T10:27:30.088Z</time></trkpt><trkpt lat="43.940915" lon="11.9556383"><ele>792.6666666666667</ele><time>2026-04-18T10:27:31.087Z</time></trkpt><trkpt lat="43.9409333" lon="11.9555383"><ele>791.8333333333334</ele><time>2026-04-18T10:27:32.088Z</time></trkpt><trkpt lat="43.9409433" lon="11.95545"><ele>791.0</ele><time>2026-04-18T10:27:33.088Z</time></trkpt><trkpt lat="43.940945" lon="11.95531"><ele>790.1666666666667</ele><time>2026-04-18T10:27:35.088Z</time></trkpt><trkpt lat="43.940925" lon="11.9551467"><ele>789.3333333333334</ele><time>2026-04-18T10:27:37.088Z</time></trkpt><trkpt lat="43.9409133" lon="11.95504"><ele>788.5</ele><time>2026-04-18T10:27:38.088Z</time></trkpt><trkpt lat="43.9409017" lon="11.9549317"><ele>787.6666666666667</ele><time>2026-04-18T10:27:39.088Z</time></trkpt><trkpt lat="43.94089" lon="11.95482"><ele>786.8333333333334</ele><time>2026-04-18T10:27:40.088Z</time></trkpt><trkpt lat="43.9408683" lon="11.9547"><ele>786.0</ele><time>2026-04-18T10:27:41.088Z</time></trkpt><trkpt lat="43.940845" lon="11.95457"><ele>786.0</ele><time>2026-04-18T10:27:42.088Z</time></trkpt><trkpt lat="43.9408133" lon="11.9544567"><ele>786.0</ele><time>2026-04-18T10:27:43.087Z</time></trkpt><trkpt lat="43.9407817" lon="11.9543633"><ele>786.0</ele><time>2026-04-18T10:27:44.087Z</time></trkpt><trkpt lat="43.9407333" lon="11.95421"><ele>786.0</ele><time>2026-04-18T10:27:46.088Z</time></trkpt><trkpt lat="43.94072" lon="11.9541233"><ele>786.0</ele><time>2026-04-18T10:27:47.088Z</time></trkpt><trkpt lat="43.9406983" lon="11.9539817"><ele>785.8333333333334</ele><time>2026-04-18T10:27:49.088Z</time></trkpt><trkpt lat="43.9406833" lon="11.9538667"><ele>785.6666666666667</ele><time>2026-04-18T10:27:51.087Z</time></trkpt><trkpt lat="43.9406933" lon="11.9537667"><ele>785.5</ele><time>2026-04-18T10:27:53.087Z</time></trkpt><trkpt lat="43.9407467" lon="11.9536817"><ele>785.3333333333334</ele><time>2026-04-18T10:27:55.088Z</time></trkpt><trkpt lat="43.94085" lon="11.9536"><ele>785.1666666666667</ele><time>2026-04-18T10:27:57.088Z</time></trkpt><trkpt lat="43.94092" lon="11.9535667"><ele>785.0</ele><time>2026-04-18T10:27:58.088Z</time></trkpt><trkpt lat="43.9409917" lon="11.95356"><ele>786.0</ele><time>2026-04-18T10:27:59.087Z</time></trkpt><trkpt lat="43.94106" lon="11.9535433"><ele>787.0</ele><time>2026-04-18T10:28:00.088Z</time></trkpt><trkpt lat="43.9411217" lon="11.95351"><ele>788.0</ele><time>2026-04-18T10:28:01.088Z</time></trkpt><trkpt lat="43.94122" lon="11.9534333"><ele>789.0</ele><time>2026-04-18T10:28:03.088Z</time></trkpt><trkpt lat="43.9412867" lon="11.9533133"><ele>790.0</ele><time>2026-04-18T10:28:05.087Z</time></trkpt><trkpt lat="43.941335" lon="11.9531517"><ele>790.0</ele><time>2026-04-18T10:28:07.088Z</time></trkpt><trkpt lat="43.9413983" lon="11.9530083"><ele>790.0</ele><time>2026-04-18T10:28:09.088Z</time></trkpt><trkpt lat="43.9415133" lon="11.9528783"><ele>790.0</ele><time>2026-04-18T10:28:11.088Z</time></trkpt><trkpt lat="43.9415933" lon="11.9528083"><ele>790.0</ele><time>2026-04-18T10:28:12.087Z</time></trkpt><trkpt lat="43.9416783" lon="11.952735"><ele>786.6</ele><time>2026-04-18T10:28:13.088Z</time></trkpt><trkpt lat="43.94176" lon="11.9526517"><ele>783.2</ele><time>2026-04-18T10:28:14.088Z</time></trkpt><trkpt lat="43.94183" lon="11.9525467"><ele>779.8</ele><time>2026-04-18T10:28:15.088Z</time></trkpt><trkpt lat="43.94189" lon="11.95243"><ele>776.4</ele><time>2026-04-18T10:28:16.088Z</time></trkpt><trkpt lat="43.9419533" lon="11.9522967"><ele>773.0</ele><time>2026-04-18T10:28:17.088Z</time></trkpt><trkpt lat="43.942005" lon="11.95216"><ele>772.5999999999999</ele><time>2026-04-18T10:28:18.088Z</time></trkpt><trkpt lat="43.9420533" lon="11.95203"><ele>772.1999999999999</ele><time>2026-04-18T10:28:19.088Z</time></trkpt><trkpt lat="43.9421067" lon="11.95189"><ele>771.8</ele><time>2026-04-18T10:28:20.088Z</time></trkpt><trkpt lat="43.9421617" lon="11.9517717"><ele>771.4</ele><time>2026-04-18T10:28:21.088Z</time></trkpt><trkpt lat="43.94222" lon="11.9516667"><ele>771.0</ele><time>2026-04-18T10:28:22.088Z</time></trkpt><trkpt lat="43.9422833" lon="11.9515783"><ele>770.0</ele><time>2026-04-18T10:28:23.088Z</time></trkpt><trkpt lat="43.9423483" lon="11.95152"><ele>769.0</ele><time>2026-04-18T10:28:24.088Z</time></trkpt><trkpt lat="43.942415" lon="11.9514817"><ele>768.0</ele><time>2026-04-18T10:28:25.088Z</time></trkpt><trkpt lat="43.9425217" lon="11.9514167"><ele>767.0</ele><time>2026-04-18T10:28:27.087Z</time></trkpt><trkpt lat="43.9425833" lon="11.9513467"><ele>766.0</ele><time>2026-04-18T10:28:29.088Z</time></trkpt><trkpt lat="43.9426017" lon="11.95121"><ele>765.0</ele><time>2026-04-18T10:28:32.088Z</time></trkpt><trkpt lat="43.94262" lon="11.951095"><ele>761.8333333333334</ele><time>2026-04-18T10:28:34.088Z</time></trkpt><trkpt lat="43.9426633" lon="11.9509867"><ele>758.6666666666666</ele><time>2026-04-18T10:28:36.087Z</time></trkpt><trkpt lat="43.942705" lon="11.95084"><ele>755.5</ele><time>2026-04-18T10:28:38.088Z</time></trkpt><trkpt lat="43.94272" lon="11.95075"><ele>752.3333333333333</ele><time>2026-04-18T10:28:39.088Z</time></trkpt><trkpt lat="43.9427417" lon="11.9506533"><ele>749.1666666666666</ele><time>2026-04-18T10:28:40.088Z</time></trkpt><trkpt lat="43.9427683" lon="11.95057"><ele>746.0</ele><time>2026-04-18T10:28:41.088Z</time></trkpt><trkpt lat="43.9428233" lon="11.9504"><ele>746.0</ele><time>2026-04-18T10:28:43.088Z</time></trkpt><trkpt lat="43.9428567" lon="11.950315"><ele>746.0</ele><time>2026-04-18T10:28:44.088Z</time></trkpt><trkpt lat="43.942925" lon="11.9501533"><ele>746.0</ele><time>2026-04-18T10:28:46.088Z</time></trkpt><trkpt lat="43.9429667" lon="11.950045"><ele>746.0</ele><time>2026-04-18T10:28:47.088Z</time></trkpt><trkpt lat="43.9430033" lon="11.9499217"><ele>746.0</ele><time>2026-04-18T10:28:48.087Z</time></trkpt><trkpt lat="43.9430367" lon="11.9497933"><ele>747.1999999999999</ele><time>2026-04-18T10:28:49.088Z</time></trkpt><trkpt lat="43.9430733" lon="11.94967"><ele>748.4</ele><time>2026-04-18T10:28:50.087Z</time></trkpt><trkpt lat="43.9431117" lon="11.9495433"><ele>749.6</ele><time>2026-04-18T10:28:51.088Z</time></trkpt><trkpt lat="43.9431467" lon="11.949425"><ele>750.8</ele><time>2026-04-18T10:28:52.088Z</time></trkpt><trkpt lat="43.9431833" lon="11.9493117"><ele>752.0</ele><time>2026-04-18T10:28:53.088Z</time></trkpt><trkpt lat="43.94322" lon="11.9492033"><ele>753.5</ele><time>2026-04-18T10:28:54.088Z</time></trkpt><trkpt lat="43.94325" lon="11.9491"><ele>755.0</ele><time>2026-04-18T10:28:55.088Z</time></trkpt><trkpt lat="43.9432683" lon="11.9490033"><ele>756.5</ele><time>2026-04-18T10:28:56.087Z</time></trkpt><trkpt lat="43.943285" lon="11.9489133"><ele>758.0</ele><time>2026-04-18T10:28:57.088Z</time></trkpt><trkpt lat="43.9432983" lon="11.9488117"><ele>759.5</ele><time>2026-04-18T10:28:58.088Z</time></trkpt><trkpt lat="43.9433183" lon="11.9487"><ele>761.0</ele><time>2026-04-18T10:28:59.088Z</time></trkpt><trkpt lat="43.943345" lon="11.948595"><ele>760.5</ele><time>2026-04-18T10:29:00.088Z</time></trkpt><trkpt lat="43.9433817" lon="11.9484933"><ele>760.0</ele><time>2026-04-18T10:29:01.088Z</time></trkpt><trkpt lat="43.9434267" lon="11.9483917"><ele>759.5</ele><time>2026-04-18T10:29:02.088Z</time></trkpt><trkpt lat="43.9434833" lon="11.9483"><ele>759.0</ele><time>2026-04-18T10:29:03.088Z</time></trkpt><trkpt lat="43.9435433" lon="11.94825"><ele>758.5</ele><time>2026-04-18T10:29:04.088Z</time></trkpt><trkpt lat="43.943605" lon="11.94821"><ele>758.0</ele><time>2026-04-18T10:29:05.088Z</time></trkpt><trkpt lat="43.9436833" lon="11.9481833"><ele>758.0</ele><time>2026-04-18T10:29:07.087Z</time></trkpt><trkpt lat="43.943765" lon="11.9481983"><ele>758.0</ele><time>2026-04-18T10:29:09.088Z</time></trkpt><trkpt lat="43.9438583" lon="11.948285"><ele>758.0</ele><time>2026-04-18T10:29:11.088Z</time></trkpt><trkpt lat="43.9439217" lon="11.94837"><ele>758.0</ele><time>2026-04-18T10:29:12.088Z</time></trkpt><trkpt lat="43.9440017" lon="11.9485167"><ele>758.0</ele><time>2026-04-18T10:29:13.088Z</time></trkpt><trkpt lat="43.9440783" lon="11.948615"><ele>758.0</ele><time>2026-04-18T10:29:14.088Z</time></trkpt><trkpt lat="43.9441417" lon="11.9487517"><ele>758.0</ele><time>2026-04-18T10:29:15.088Z</time></trkpt><trkpt lat="43.9442133" lon="11.9488783"><ele>758.0</ele><time>2026-04-18T10:29:16.088Z</time></trkpt><trkpt lat="43.94427" lon="11.9489617"><ele>758.0</ele><time>2026-04-18T10:29:17.088Z</time></trkpt><trkpt lat="43.9443317" lon="11.9490417"><ele>758.0</ele><time>2026-04-18T10:29:18.088Z</time></trkpt><trkpt lat="43.9443867" lon="11.9491233"><ele>757.6666666666666</ele><time>2026-04-18T10:29:19.088Z</time></trkpt><trkpt lat="43.9444433" lon="11.949205"><ele>757.3333333333333</ele><time>2026-04-18T10:29:20.087Z</time></trkpt><trkpt lat="43.9444983" lon="11.9492883"><ele>757.0</ele><time>2026-04-18T10:29:21.087Z</time></trkpt><trkpt lat="43.944545" lon="11.9493617"><ele>756.6666666666666</ele><time>2026-04-18T10:29:22.088Z</time></trkpt><trkpt lat="43.9446017" lon="11.949455"><ele>756.3333333333334</ele><time>2026-04-18T10:29:24.089Z</time></trkpt><trkpt lat="43.94466" lon="11.9495517"><ele>756.0</ele><time>2026-04-18T10:30:11.088Z</time></trkpt><trkpt lat="43.9447167" lon="11.9496167"><ele>756.0</ele><time>2026-04-18T10:30:12.089Z</time></trkpt><trkpt lat="43.9447983" lon="11.9496733"><ele>756.0</ele><time>2026-04-18T10:30:13.089Z</time></trkpt><trkpt lat="43.944905" lon="11.949735"><ele>756.0</ele><time>2026-04-18T10:30:14.089Z</time></trkpt><trkpt lat="43.9450067" lon="11.949805"><ele>756.0</ele><time>2026-04-18T10:30:15.088Z</time></trkpt><trkpt lat="43.9451117" lon="11.949895"><ele>756.0</ele><time>2026-04-18T10:30:16.089Z</time></trkpt><trkpt lat="43.9452067" lon="11.9499917"><ele>755.8</ele><time>2026-04-18T10:30:17.089Z</time></trkpt><trkpt lat="43.945295" lon="11.9501"><ele>755.5999999999999</ele><time>2026-04-18T10:30:18.089Z</time></trkpt><trkpt lat="43.9453867" lon="11.9501817"><ele>755.4</ele><time>2026-04-18T10:30:19.089Z</time></trkpt><trkpt lat="43.9454817" lon="11.9502433"><ele>755.2</ele><time>2026-04-18T10:30:20.089Z</time></trkpt><trkpt lat="43.94559" lon="11.9502817"><ele>755.0</ele><time>2026-04-18T10:30:21.088Z</time></trkpt><trkpt lat="43.9456917" lon="11.9502883"><ele>755.0</ele><time>2026-04-18T10:30:22.088Z</time></trkpt><trkpt lat="43.94579" lon="11.9502733"><ele>755.0</ele><time>2026-04-18T10:30:23.089Z</time></trkpt><trkpt lat="43.9458833" lon="11.9502317"><ele>755.0</ele><time>2026-04-18T10:30:24.089Z</time></trkpt><trkpt lat="43.94599" lon="11.9502067"><ele>755.0</ele><time>2026-04-18T10:30:25.089Z</time></trkpt><trkpt lat="43.946105" lon="11.950185"><ele>755.0</ele><time>2026-04-18T10:30:26.089Z</time></trkpt><trkpt lat="43.9462167" lon="11.9501783"><ele>754.8</ele><time>2026-04-18T10:30:27.089Z</time></trkpt><trkpt lat="43.946325" lon="11.9501817"><ele>754.6</ele><time>2026-04-18T10:30:28.089Z</time></trkpt><trkpt lat="43.946425" lon="11.9501917"><ele>754.4000000000001</ele><time>2026-04-18T10:30:29.089Z</time></trkpt><trkpt lat="43.9465217" lon="11.9502217"><ele>754.2</ele><time>2026-04-18T10:30:30.089Z</time></trkpt><trkpt lat="43.94662" lon="11.9502583"><ele>754.0</ele><time>2026-04-18T10:30:31.089Z</time></trkpt><trkpt lat="43.9467117" lon="11.9503033"><ele>754.0</ele><time>2026-04-18T10:30:32.089Z</time></trkpt><trkpt lat="43.9467983" lon="11.9503583"><ele>754.0</ele><time>2026-04-18T10:30:33.089Z</time></trkpt><trkpt lat="43.9468817" lon="11.9504083"><ele>754.0</ele><time>2026-04-18T10:30:34.089Z</time></trkpt><trkpt lat="43.9469717" lon="11.950465"><ele>754.0</ele><time>2026-04-18T10:30:35.089Z</time></trkpt><trkpt lat="43.9470567" lon="11.9505067"><ele>754.0</ele><time>2026-04-18T10:30:36.089Z</time></trkpt><trkpt lat="43.947155" lon="11.9505467"><ele>754.0</ele><time>2026-04-18T10:30:37.089Z</time></trkpt><trkpt lat="43.9472517" lon="11.9505767"><ele>754.0</ele><time>2026-04-18T10:30:38.089Z</time></trkpt><trkpt lat="43.9473367" lon="11.9505933"><ele>754.0</ele><time>2026-04-18T10:30:39.089Z</time></trkpt><trkpt lat="43.947415" lon="11.9505933"><ele>754.0</ele><time>2026-04-18T10:30:40.088Z</time></trkpt><trkpt lat="43.9474867" lon="11.9505717"><ele>754.0</ele><time>2026-04-18T10:30:41.089Z</time></trkpt><trkpt lat="43.947555" lon="11.950535"><ele>754.0</ele><time>2026-04-18T10:30:42.089Z</time></trkpt><trkpt lat="43.947625" lon="11.9505033"><ele>752.6</ele><time>2026-04-18T10:30:43.088Z</time></trkpt><trkpt lat="43.9477067" lon="11.9504583"><ele>751.2</ele><time>2026-04-18T10:30:44.089Z</time></trkpt><trkpt lat="43.9477967" lon="11.9504317"><ele>749.8000000000001</ele><time>2026-04-18T10:30:45.089Z</time></trkpt><trkpt lat="43.9479017" lon="11.950405"><ele>748.4000000000001</ele><time>2026-04-18T10:30:46.088Z</time></trkpt><trkpt lat="43.94802" lon="11.9503667"><ele>747.0</ele><time>2026-04-18T10:30:47.088Z</time></trkpt><trkpt lat="43.9481333" lon="11.9503433"><ele>747.0</ele><time>2026-04-18T10:30:48.089Z</time></trkpt><trkpt lat="43.948255" lon="11.9503233"><ele>747.0</ele><time>2026-04-18T10:30:49.089Z</time></trkpt><trkpt lat="43.9483917" lon="11.950305"><ele>747.0</ele><time>2026-04-18T10:30:50.089Z</time></trkpt><trkpt lat="43.9485317" lon="11.9502833"><ele>747.0</ele><time>2026-04-18T10:30:51.089Z</time></trkpt><trkpt lat="43.94866" lon="11.950275"><ele>749.0</ele><time>2026-04-18T10:30:52.089Z</time></trkpt><trkpt lat="43.9487683" lon="11.950305"><ele>751.0</ele><time>2026-04-18T10:30:53.089Z</time></trkpt><trkpt lat="43.9488783" lon="11.9503217"><ele>753.0</ele><time>2026-04-18T10:30:54.089Z</time></trkpt><trkpt lat="43.9489883" lon="11.950295"><ele>755.0</ele><time>2026-04-18T10:30:55.089Z</time></trkpt><trkpt lat="43.9491017" lon="11.95026"><ele>757.0</ele><time>2026-04-18T10:30:56.089Z</time></trkpt><trkpt lat="43.9492167" lon="11.9502467"><ele>758.5</ele><time>2026-04-18T10:30:57.089Z</time></trkpt><trkpt lat="43.949335" lon="11.9502217"><ele>760.0</ele><time>2026-04-18T10:30:58.089Z</time></trkpt><trkpt lat="43.9494783" lon="11.95019"><ele>761.5</ele><time>2026-04-18T10:30:59.089Z</time></trkpt><trkpt lat="43.9496117" lon="11.9501567"><ele>763.0</ele><time>2026-04-18T10:31:00.089Z</time></trkpt><trkpt lat="43.9497333" lon="11.9501183"><ele>763.0</ele><time>2026-04-18T10:31:01.088Z</time></trkpt><trkpt lat="43.9498367" lon="11.9500483"><ele>763.0</ele><time>2026-04-18T10:31:02.089Z</time></trkpt><trkpt lat="43.949935" lon="11.9499883"><ele>763.0</ele><time>2026-04-18T10:31:03.089Z</time></trkpt><trkpt lat="43.95003" lon="11.9499367"><ele>763.0</ele><time>2026-04-18T10:31:04.089Z</time></trkpt><trkpt lat="43.9501283" lon="11.9499017"><ele>763.0</ele><time>2026-04-18T10:31:05.089Z</time></trkpt><trkpt lat="43.9502183" lon="11.94987"><ele>764.8333333333334</ele><time>2026-04-18T10:31:06.089Z</time></trkpt><trkpt lat="43.9503117" lon="11.9498367"><ele>766.6666666666667</ele><time>2026-04-18T10:31:07.089Z</time></trkpt><trkpt lat="43.9503967" lon="11.94981"><ele>768.5</ele><time>2026-04-18T10:31:08.088Z</time></trkpt><trkpt lat="43.9504767" lon="11.94978"><ele>770.3333333333334</ele><time>2026-04-18T10:31:09.089Z</time></trkpt><trkpt lat="43.9505467" lon="11.9497467"><ele>772.1666666666666</ele><time>2026-04-18T10:31:10.089Z</time></trkpt><trkpt lat="43.9506133" lon="11.9497033"><ele>774.0</ele><time>2026-04-18T10:31:11.089Z</time></trkpt><trkpt lat="43.9506867" lon="11.949665"><ele>774.0</ele><time>2026-04-18T10:31:12.089Z</time></trkpt><trkpt lat="43.9507583" lon="11.9496317"><ele>774.0</ele><time>2026-04-18T10:31:13.089Z</time></trkpt><trkpt lat="43.9508233" lon="11.9496017"><ele>774.0</ele><time>2026-04-18T10:31:14.088Z</time></trkpt><trkpt lat="43.9508967" lon="11.9495867"><ele>774.0</ele><time>2026-04-18T10:31:15.088Z</time></trkpt><trkpt lat="43.95098" lon="11.94958"><ele>774.0</ele><time>2026-04-18T10:31:16.089Z</time></trkpt><trkpt lat="43.9510867" lon="11.9495883"><ele>774.0</ele><time>2026-04-18T10:31:17.089Z</time></trkpt><trkpt lat="43.9512217" lon="11.9496033"><ele>774.0</ele><time>2026-04-18T10:31:18.089Z</time></trkpt><trkpt lat="43.9513567" lon="11.9496217"><ele>774.0</ele><time>2026-04-18T10:31:19.089Z</time></trkpt><trkpt lat="43.9514917" lon="11.949655"><ele>774.0</ele><time>2026-04-18T10:31:20.088Z</time></trkpt><trkpt lat="43.9516183" lon="11.9496867"><ele>774.0</ele><time>2026-04-18T10:31:21.089Z</time></trkpt><trkpt lat="43.951735" lon="11.949725"><ele>772.4000000000001</ele><time>2026-04-18T10:31:22.088Z</time></trkpt><trkpt lat="43.9518333" lon="11.9497767"><ele>770.8</ele><time>2026-04-18T10:31:23.089Z</time></trkpt><trkpt lat="43.951925" lon="11.9498283"><ele>769.2</ele><time>2026-04-18T10:31:24.089Z</time></trkpt><trkpt lat="43.9520033" lon="11.9498683"><ele>767.5999999999999</ele><time>2026-04-18T10:31:25.089Z</time></trkpt><trkpt lat="43.9520717" lon="11.9499083"><ele>766.0</ele><time>2026-04-18T10:31:26.089Z</time></trkpt><trkpt lat="43.9521817" lon="11.94997"><ele>766.0</ele><time>2026-04-18T10:31:28.089Z</time></trkpt><trkpt lat="43.9522983" lon="11.95004"><ele>766.0</ele><time>2026-04-18T10:31:30.089Z</time></trkpt><trkpt lat="43.952365" lon="11.9500867"><ele>766.0</ele><time>2026-04-18T10:31:31.089Z</time></trkpt><trkpt lat="43.952425" lon="11.9501717"><ele>766.0</ele><time>2026-04-18T10:31:32.089Z</time></trkpt><trkpt lat="43.9524933" lon="11.9502667"><ele>766.0</ele><time>2026-04-18T10:31:33.089Z</time></trkpt><trkpt lat="43.9525667" lon="11.9503583"><ele>765.0</ele><time>2026-04-18T10:31:34.089Z</time></trkpt><trkpt lat="43.952635" lon="11.9504667"><ele>764.0</ele><time>2026-04-18T10:31:35.089Z</time></trkpt><trkpt lat="43.9527167" lon="11.9505767"><ele>763.0</ele><time>2026-04-18T10:31:36.089Z</time></trkpt><trkpt lat="43.9527983" lon="11.95069"><ele>762.0</ele><time>2026-04-18T10:31:37.089Z</time></trkpt><trkpt lat="43.9529017" lon="11.9507683"><ele>762.0</ele><time>2026-04-18T10:31:38.088Z</time></trkpt><trkpt lat="43.953005" lon="11.950835"><ele>762.0</ele><time>2026-04-18T10:31:39.089Z</time></trkpt><trkpt lat="43.9530867" lon="11.950875"><ele>762.0</ele><time>2026-04-18T10:31:40.089Z</time></trkpt><trkpt lat="43.9531583" lon="11.9509083"><ele>762.0</ele><time>2026-04-18T10:31:41.089Z</time></trkpt><trkpt lat="43.9532367" lon="11.9509483"><ele>762.0</ele><time>2026-04-18T10:31:42.088Z</time></trkpt><trkpt lat="43.9533083" lon="11.950985"><ele>762.0</ele><time>2026-04-18T10:31:43.089Z</time></trkpt><trkpt lat="43.9533683" lon="11.9510133"><ele>761.5</ele><time>2026-04-18T10:31:44.089Z</time></trkpt><trkpt lat="43.9534317" lon="11.95104"><ele>761.0</ele><time>2026-04-18T10:31:45.089Z</time></trkpt><trkpt lat="43.9535" lon="11.95106"><ele>760.5</ele><time>2026-04-18T10:31:46.089Z</time></trkpt><trkpt lat="43.953575" lon="11.951095"><ele>760.0</ele><time>2026-04-18T10:31:47.089Z</time></trkpt><trkpt lat="43.9536633" lon="11.9511283"><ele>759.5</ele><time>2026-04-18T10:31:48.089Z</time></trkpt><trkpt lat="43.9537667" lon="11.9511833"><ele>759.0</ele><time>2026-04-18T10:31:49.089Z</time></trkpt><trkpt lat="43.9538633" lon="11.9512467"><ele>759.0</ele><time>2026-04-18T10:31:50.088Z</time></trkpt><trkpt lat="43.9539467" lon="11.95129"><ele>759.0</ele><time>2026-04-18T10:31:51.089Z</time></trkpt><trkpt lat="43.954015" lon="11.9513333"><ele>759.0</ele><time>2026-04-18T10:31:52.089Z</time></trkpt><trkpt lat="43.954085" lon="11.95138"><ele>759.0</ele><time>2026-04-18T10:31:53.089Z</time></trkpt><trkpt lat="43.9541517" lon="11.9514317"><ele>759.0</ele><time>2026-04-18T10:31:54.088Z</time></trkpt><trkpt lat="43.9542217" lon="11.9514733"><ele>759.0</ele><time>2026-04-18T10:31:55.088Z</time></trkpt><trkpt lat="43.9542867" lon="11.9515033"><ele>758.6666666666666</ele><time>2026-04-18T10:31:56.089Z</time></trkpt><trkpt lat="43.95439" lon="11.9515217"><ele>758.3333333333334</ele><time>2026-04-18T10:31:58.089Z</time></trkpt><trkpt lat="43.9544867" lon="11.9515367"><ele>758.0</ele><time>2026-04-18T10:32:00.088Z</time></trkpt><trkpt lat="43.954605" lon="11.951535"><ele>757.6666666666667</ele><time>2026-04-18T10:32:02.089Z</time></trkpt><trkpt lat="43.9546683" lon="11.951525"><ele>757.3333333333334</ele><time>2026-04-18T10:32:03.089Z</time></trkpt><trkpt lat="43.9547333" lon="11.9515217"><ele>757.0</ele><time>2026-04-18T10:32:04.089Z</time></trkpt><trkpt lat="43.954845" lon="11.95154"><ele>757.0</ele><time>2026-04-18T10:32:06.089Z</time></trkpt><trkpt lat="43.9549233" lon="11.9516017"><ele>757.0</ele><time>2026-04-18T10:32:08.089Z</time></trkpt><trkpt lat="43.9550117" lon="11.95171"><ele>757.0</ele><time>2026-04-18T10:32:10.088Z</time></trkpt><trkpt lat="43.955075" lon="11.9518017"><ele>757.0</ele><time>2026-04-18T10:32:11.089Z</time></trkpt><trkpt lat="43.95513" lon="11.9518783"><ele>757.0</ele><time>2026-04-18T10:32:12.089Z</time></trkpt><trkpt lat="43.9551817" lon="11.9519467"><ele>757.0</ele><time>2026-04-18T10:32:13.089Z</time></trkpt><trkpt lat="43.955235" lon="11.9520133"><ele>752.75</ele><time>2026-04-18T10:32:14.088Z</time></trkpt><trkpt lat="43.9553167" lon="11.95212"><ele>748.5</ele><time>2026-04-18T10:32:16.089Z</time></trkpt><trkpt lat="43.9553933" lon="11.9522117"><ele>744.25</ele><time>2026-04-18T10:32:18.088Z</time></trkpt><trkpt lat="43.9554833" lon="11.9523"><ele>740.0</ele><time>2026-04-18T10:32:20.089Z</time></trkpt><trkpt lat="43.9556133" lon="11.9523783"><ele>740.0</ele><time>2026-04-18T10:32:22.088Z</time></trkpt><trkpt lat="43.9556833" lon="11.95242"><ele>740.0</ele><time>2026-04-18T10:32:23.089Z</time></trkpt><trkpt lat="43.9557583" lon="11.9524483"><ele>740.0</ele><time>2026-04-18T10:32:24.088Z</time></trkpt><trkpt lat="43.9558383" lon="11.9524733"><ele>740.0</ele><time>2026-04-18T10:32:25.089Z</time></trkpt><trkpt lat="43.9559183" lon="11.9524883"><ele>740.0</ele><time>2026-04-18T10:32:26.089Z</time></trkpt><trkpt lat="43.95599" lon="11.9525017"><ele>740.0</ele><time>2026-04-18T10:32:27.089Z</time></trkpt><trkpt lat="43.9560633" lon="11.9525167"><ele>735.6</ele><time>2026-04-18T10:32:28.089Z</time></trkpt><trkpt lat="43.95617" lon="11.9525483"><ele>731.2</ele><time>2026-04-18T10:32:30.089Z</time></trkpt><trkpt lat="43.9563033" lon="11.952565"><ele>726.8</ele><time>2026-04-18T10:32:42.089Z</time></trkpt><trkpt lat="43.956375" lon="11.9525933"><ele>722.4</ele><time>2026-04-18T10:32:44.088Z</time></trkpt><trkpt lat="43.9564683" lon="11.95261"><ele>718.0</ele><time>2026-04-18T10:32:46.089Z</time></trkpt><trkpt lat="43.95657" lon="11.9526333"><ele>718.0</ele><time>2026-04-18T10:32:48.089Z</time></trkpt><trkpt lat="43.9566917" lon="11.9526283"><ele>718.0</ele><time>2026-04-18T10:32:50.089Z</time></trkpt><trkpt lat="43.9567583" lon="11.9526133"><ele>718.0</ele><time>2026-04-18T10:32:51.088Z</time></trkpt><trkpt lat="43.9568367" lon="11.9526017"><ele>718.0</ele><time>2026-04-18T10:32:52.089Z</time></trkpt><trkpt lat="43.9569133" lon="11.9525917"><ele>718.0</ele><time>2026-04-18T10:32:53.089Z</time></trkpt><trkpt lat="43.9569933" lon="11.9525867"><ele>718.0</ele><time>2026-04-18T10:32:54.089Z</time></trkpt><trkpt lat="43.95706" lon="11.95258"><ele>720.4</ele><time>2026-04-18T10:32:55.089Z</time></trkpt><trkpt lat="43.9571233" lon="11.952575"><ele>722.8</ele><time>2026-04-18T10:32:56.088Z</time></trkpt><trkpt lat="43.9572333" lon="11.9525867"><ele>725.2</ele><time>2026-04-18T10:32:58.089Z</time></trkpt><trkpt lat="43.957345" lon="11.9526383"><ele>727.6</ele><time>2026-04-18T10:33:00.088Z</time></trkpt><trkpt lat="43.9574067" lon="11.9526717"><ele>730.0</ele><time>2026-04-18T10:33:01.089Z</time></trkpt><trkpt lat="43.95753" lon="11.9526983"><ele>731.8333333333334</ele><time>2026-04-18T10:33:03.089Z</time></trkpt><trkpt lat="43.9575933" lon="11.9526983"><ele>733.6666666666667</ele><time>2026-04-18T10:33:04.088Z</time></trkpt><trkpt lat="43.9576667" lon="11.95269"><ele>735.5</ele><time>2026-04-18T10:33:05.089Z</time></trkpt><trkpt lat="43.95774" lon="11.95268"><ele>737.3333333333334</ele><time>2026-04-18T10:33:06.088Z</time></trkpt><trkpt lat="43.9578067" lon="11.9526733"><ele>739.1666666666666</ele><time>2026-04-18T10:33:07.089Z</time></trkpt><trkpt lat="43.957905" lon="11.9526867"><ele>741.0</ele><time>2026-04-18T10:33:09.089Z</time></trkpt><trkpt lat="43.9579783" lon="11.9527383"><ele>741.0</ele><time>2026-04-18T10:33:11.089Z</time></trkpt><trkpt lat="43.9580267" lon="11.952795"><ele>741.0</ele><time>2026-04-18T10:33:13.089Z</time></trkpt><trkpt lat="43.9580933" lon="11.9528667"><ele>741.0</ele><time>2026-04-18T10:33:16.088Z</time></trkpt><trkpt lat="43.958175" lon="11.9528917"><ele>741.0</ele><time>2026-04-18T10:33:18.089Z</time></trkpt><trkpt lat="43.95827" lon="11.9528983"><ele>741.0</ele><time>2026-04-18T10:33:20.089Z</time></trkpt><trkpt lat="43.9583633" lon="11.9529217"><ele>741.0</ele><time>2026-04-18T10:33:22.088Z</time></trkpt><trkpt lat="43.9584567" lon="11.952945"><ele>738.8333333333334</ele><time>2026-04-18T10:33:24.089Z</time></trkpt><trkpt lat="43.95856" lon="11.9529883"><ele>736.6666666666666</ele><time>2026-04-18T10:33:26.089Z</time></trkpt><trkpt lat="43.958625" lon="11.9529983"><ele>734.5</ele><time>2026-04-18T10:33:27.089Z</time></trkpt><trkpt lat="43.95869" lon="11.9529967"><ele>732.3333333333333</ele><time>2026-04-18T10:33:28.089Z</time></trkpt><trkpt lat="43.9587633" lon="11.9530033"><ele>730.1666666666666</ele><time>2026-04-18T10:33:29.089Z</time></trkpt><trkpt lat="43.9588283" lon="11.9530167"><ele>728.0</ele><time>2026-04-18T10:33:30.088Z</time></trkpt><trkpt lat="43.9589533" lon="11.953065"><ele>728.0</ele><time>2026-04-18T10:33:32.089Z</time></trkpt><trkpt lat="43.9590483" lon="11.9530617"><ele>728.0</ele><time>2026-04-18T10:33:34.089Z</time></trkpt><trkpt lat="43.95913" lon="11.9530133"><ele>728.0</ele><time>2026-04-18T10:33:36.089Z</time></trkpt><trkpt lat="43.95922" lon="11.9529883"><ele>728.0</ele><time>2026-04-18T10:33:38.088Z</time></trkpt><trkpt lat="43.9593233" lon="11.952975"><ele>728.0</ele><time>2026-04-18T10:33:40.088Z</time></trkpt><trkpt lat="43.959425" lon="11.9529517"><ele>727.2</ele><time>2026-04-18T10:33:42.089Z</time></trkpt><trkpt lat="43.95953" lon="11.9528533"><ele>726.4</ele><time>2026-04-18T10:33:44.089Z</time></trkpt><trkpt lat="43.9595867" lon="11.9527883"><ele>725.6</ele><time>2026-04-18T10:33:45.089Z</time></trkpt><trkpt lat="43.95964" lon="11.9527217"><ele>724.8000000000001</ele><time>2026-04-18T10:33:46.089Z</time></trkpt><trkpt lat="43.959685" lon="11.9526333"><ele>724.0</ele><time>2026-04-18T10:33:47.089Z</time></trkpt><trkpt lat="43.959755" lon="11.9525167"><ele>724.0</ele><time>2026-04-18T10:33:49.089Z</time></trkpt><trkpt lat="43.9598167" lon="11.9524217"><ele>724.0</ele><time>2026-04-18T10:33:51.089Z</time></trkpt><trkpt lat="43.9598667" lon="11.9523167"><ele>724.0</ele><time>2026-04-18T10:33:53.089Z</time></trkpt><trkpt lat="43.959885" lon="11.95221"><ele>724.0</ele><time>2026-04-18T10:33:55.089Z</time></trkpt><trkpt lat="43.9598783" lon="11.9520767"><ele>724.0</ele><time>2026-04-18T10:33:57.089Z</time></trkpt><trkpt lat="43.9598733" lon="11.9519517"><ele>724.0</ele><time>2026-04-18T10:33:59.089Z</time></trkpt><trkpt lat="43.959845" lon="11.9518183"><ele>724.0</ele><time>2026-04-18T10:34:01.089Z</time></trkpt><trkpt lat="43.9598383" lon="11.9517117"><ele>724.0</ele><time>2026-04-18T10:34:03.089Z</time></trkpt><trkpt lat="43.9598833" lon="11.9516"><ele>724.0</ele><time>2026-04-18T10:34:05.089Z</time></trkpt><trkpt lat="43.9599483" lon="11.9514633"><ele>724.0</ele><time>2026-04-18T10:34:07.089Z</time></trkpt><trkpt lat="43.960015" lon="11.951335"><ele>724.0</ele><time>2026-04-18T10:34:09.089Z</time></trkpt><trkpt lat="43.96006" lon="11.9512233"><ele>718.6</ele><time>2026-04-18T10:34:11.089Z</time></trkpt><trkpt lat="43.9600783" lon="11.9511017"><ele>713.2</ele><time>2026-04-18T10:34:13.089Z</time></trkpt><trkpt lat="43.9600983" lon="11.9509817"><ele>707.8000000000001</ele><time>2026-04-18T10:34:15.089Z</time></trkpt><trkpt lat="43.9601167" lon="11.9508517"><ele>702.4000000000001</ele><time>2026-04-18T10:34:17.089Z</time></trkpt><trkpt lat="43.9601083" lon="11.95066"><ele>697.0</ele><time>2026-04-18T10:35:04.089Z</time></trkpt><trkpt lat="43.9601283" lon="11.9505533"><ele>697.0</ele><time>2026-04-18T10:35:50.089Z</time></trkpt><trkpt lat="43.96018" lon="11.9505017"><ele>697.0</ele><time>2026-04-18T10:35:54.088Z</time></trkpt><trkpt lat="43.960255" lon="11.9505467"><ele>697.0</ele><time>2026-04-18T10:36:00.089Z</time></trkpt><trkpt lat="43.960325" lon="11.9505917"><ele>697.0</ele><time>2026-04-18T10:36:04.089Z</time></trkpt><trkpt lat="43.9604133" lon="11.9506"><ele>697.0</ele><time>2026-04-18T10:36:07.089Z</time></trkpt><trkpt lat="43.9604883" lon="11.9505933"><ele>697.0</ele><time>2026-04-18T10:36:09.088Z</time></trkpt><trkpt lat="43.9605733" lon="11.95058"><ele>697.0</ele><time>2026-04-18T10:36:11.089Z</time></trkpt><trkpt lat="43.960675" lon="11.950565"><ele>697.0</ele><time>2026-04-18T10:36:13.088Z</time></trkpt><trkpt lat="43.9607567" lon="11.9505217"><ele>697.0</ele><time>2026-04-18T10:36:15.089Z</time></trkpt><trkpt lat="43.96083" lon="11.95045"><ele>697.0</ele><time>2026-04-18T10:36:17.089Z</time></trkpt><trkpt lat="43.9609133" lon="11.9503717"><ele>697.0</ele><time>2026-04-18T10:36:19.089Z</time></trkpt><trkpt lat="43.9609917" lon="11.9503117"><ele>695.3333333333334</ele><time>2026-04-18T10:36:21.089Z</time></trkpt><trkpt lat="43.9610533" lon="11.9502583"><ele>693.6666666666667</ele><time>2026-04-18T10:36:23.089Z</time></trkpt><trkpt lat="43.9611583" lon="11.9501467"><ele>692.0</ele><time>2026-04-18T10:37:24.089Z</time></trkpt><trkpt lat="43.961225" lon="11.9501317"><ele>690.3333333333334</ele><time>2026-04-18T10:37:28.089Z</time></trkpt><trkpt lat="43.9613017" lon="11.9500967"><ele>688.6666666666666</ele><time>2026-04-18T10:37:31.088Z</time></trkpt><trkpt lat="43.961355" lon="11.9500233"><ele>687.0</ele><time>2026-04-18T10:37:34.089Z</time></trkpt><trkpt lat="43.9614" lon="11.94991"><ele>687.0</ele><time>2026-04-18T10:37:42.089Z</time></trkpt><trkpt lat="43.9614267" lon="11.94981"><ele>687.0</ele><time>2026-04-18T10:37:44.089Z</time></trkpt><trkpt lat="43.9614767" lon="11.94967"><ele>687.0</ele><time>2026-04-18T10:37:46.089Z</time></trkpt><trkpt lat="43.9615267" lon="11.9495"><ele>687.0</ele><time>2026-04-18T10:37:48.089Z</time></trkpt><trkpt lat="43.96155" lon="11.9493983"><ele>687.0</ele><time>2026-04-18T10:37:49.089Z</time></trkpt><trkpt lat="43.96157" lon="11.9493033"><ele>690.2</ele><time>2026-04-18T10:37:50.089Z</time></trkpt><trkpt lat="43.96158" lon="11.94913"><ele>693.4000000000001</ele><time>2026-04-18T10:37:52.088Z</time></trkpt><trkpt lat="43.9615917" lon="11.9489767"><ele>696.5999999999999</ele><time>2026-04-18T10:37:53.089Z</time></trkpt><trkpt lat="43.96159" lon="11.948825"><ele>699.8</ele><time>2026-04-18T10:37:55.089Z</time></trkpt><trkpt lat="43.96163" lon="11.94873"><ele>703.0</ele><time>2026-04-18T10:37:57.088Z</time></trkpt><trkpt lat="43.9616833" lon="11.9486433"><ele>699.7142857142857</ele><time>2026-04-18T10:38:00.089Z</time></trkpt><trkpt lat="43.961735" lon="11.94859"><ele>696.4285714285714</ele><time>2026-04-18T10:38:03.089Z</time></trkpt><trkpt lat="43.9617767" lon="11.94849"><ele>693.1428571428571</ele><time>2026-04-18T10:38:07.089Z</time></trkpt><trkpt lat="43.9617967" lon="11.9484"><ele>689.8571428571429</ele><time>2026-04-18T10:38:09.088Z</time></trkpt><trkpt lat="43.961825" lon="11.94831"><ele>686.5714285714286</ele><time>2026-04-18T10:38:11.089Z</time></trkpt><trkpt lat="43.9618433" lon="11.9482067"><ele>683.2857142857143</ele><time>2026-04-18T10:38:13.089Z</time></trkpt><trkpt lat="43.961845" lon="11.9480967"><ele>680.0</ele><time>2026-04-18T10:38:15.089Z</time></trkpt><trkpt lat="43.9618417" lon="11.947995"><ele>680.0</ele><time>2026-04-18T10:38:17.089Z</time></trkpt><trkpt lat="43.9618183" lon="11.9478833"><ele>680.0</ele><time>2026-04-18T10:38:20.089Z</time></trkpt><trkpt lat="43.9617917" lon="11.9477883"><ele>680.0</ele><time>2026-04-18T10:38:24.089Z</time></trkpt><trkpt lat="43.9617567" lon="11.947685"><ele>680.0</ele><time>2026-04-18T10:38:27.089Z</time></trkpt><trkpt lat="43.9617283" lon="11.9475883"><ele>680.0</ele><time>2026-04-18T10:38:29.089Z</time></trkpt><trkpt lat="43.961705" lon="11.9475033"><ele>680.0</ele><time>2026-04-18T10:38:31.089Z</time></trkpt><trkpt lat="43.961635" lon="11.9473467"><ele>678.0</ele><time>2026-04-18T10:42:45.09Z</time></trkpt><trkpt lat="43.9616183" lon="11.947255"><ele>676.0</ele><time>2026-04-18T10:42:56.09Z</time></trkpt><trkpt lat="43.96159" lon="11.9471583"><ele>674.0</ele><time>2026-04-18T10:42:58.09Z</time></trkpt><trkpt lat="43.9615683" lon="11.9470567"><ele>672.0</ele><time>2026-04-18T10:43:00.089Z</time></trkpt><trkpt lat="43.961545" lon="11.9469633"><ele>670.0</ele><time>2026-04-18T10:43:02.09Z</time></trkpt><trkpt lat="43.9615" lon="11.946885"><ele>668.0</ele><time>2026-04-18T10:43:04.09Z</time></trkpt><trkpt lat="43.9614317" lon="11.9467883"><ele>665.2</ele><time>2026-04-18T10:43:06.09Z</time></trkpt><trkpt lat="43.9613733" lon="11.946675"><ele>662.4</ele><time>2026-04-18T10:43:08.09Z</time></trkpt><trkpt lat="43.96136" lon="11.9465767"><ele>659.6</ele><time>2026-04-18T10:43:10.09Z</time></trkpt><trkpt lat="43.9613317" lon="11.9464133"><ele>656.8000000000001</ele><time>2026-04-18T10:47:01.09Z</time></trkpt><trkpt lat="43.961275" lon="11.946245"><ele>654.0</ele><time>2026-04-18T10:47:03.09Z</time></trkpt><trkpt lat="43.9612533" lon="11.9461583"><ele>654.0</ele><time>2026-04-18T10:47:04.09Z</time></trkpt><trkpt lat="43.9612083" lon="11.946045"><ele>654.0</ele><time>2026-04-18T10:47:06.09Z</time></trkpt><trkpt lat="43.961145" lon="11.945905"><ele>654.0</ele><time>2026-04-18T10:52:46.091Z</time></trkpt><trkpt lat="43.96113" lon="11.9458117"><ele>654.0</ele><time>2026-04-18T10:52:47.091Z</time></trkpt><trkpt lat="43.9611067" lon="11.9457"><ele>654.0</ele><time>2026-04-18T10:52:48.091Z</time></trkpt><trkpt lat="43.9610917" lon="11.9455983"><ele>654.0</ele><time>2026-04-18T10:52:49.091Z</time></trkpt><trkpt lat="43.9610683" lon="11.9454633"><ele>653.5</ele><time>2026-04-18T10:52:51.091Z</time></trkpt><trkpt lat="43.9610433" lon="11.945365"><ele>653.0</ele><time>2026-04-18T10:52:54.091Z</time></trkpt><trkpt lat="43.9610117" lon="11.9452767"><ele>652.5</ele><time>2026-04-18T10:52:56.09Z</time></trkpt><trkpt lat="43.9609567" lon="11.9452183"><ele>652.0</ele><time>2026-04-18T10:52:58.091Z</time></trkpt><trkpt lat="43.9608967" lon="11.9451417"><ele>651.5</ele><time>2026-04-18T10:53:01.091Z</time></trkpt><trkpt lat="43.960845" lon="11.9450483"><ele>651.0</ele><time>2026-04-18T10:53:03.091Z</time></trkpt><trkpt lat="43.9608017" lon="11.9449367"><ele>651.0</ele><time>2026-04-18T10:53:05.091Z</time></trkpt><trkpt lat="43.9607567" lon="11.94482"><ele>651.0</ele><time>2026-04-18T10:53:07.091Z</time></trkpt><trkpt lat="43.960725" lon="11.9446933"><ele>651.0</ele><time>2026-04-18T10:53:09.091Z</time></trkpt><trkpt lat="43.96071" lon="11.9445267"><ele>651.0</ele><time>2026-04-18T10:53:11.091Z</time></trkpt><trkpt lat="43.960695" lon="11.944375"><ele>651.0</ele><time>2026-04-18T10:53:13.091Z</time></trkpt><trkpt lat="43.96063" lon="11.944285"><ele>651.0</ele><time>2026-04-18T10:53:15.091Z</time></trkpt><trkpt lat="43.9605517" lon="11.9442267"><ele>651.0</ele><time>2026-04-18T10:53:17.091Z</time></trkpt><trkpt lat="43.960455" lon="11.9441833"><ele>651.0</ele><time>2026-04-18T10:53:19.09Z</time></trkpt><trkpt lat="43.9603883" lon="11.9441483"><ele>651.0</ele><time>2026-04-18T10:53:21.09Z</time></trkpt><trkpt lat="43.9603217" lon="11.94409"><ele>651.0</ele><time>2026-04-18T10:53:24.09Z</time></trkpt><trkpt lat="43.9602517" lon="11.9439933"><ele>651.0</ele><time>2026-04-18T10:53:27.091Z</time></trkpt><trkpt lat="43.960205" lon="11.9439133"><ele>652.1666666666666</ele><time>2026-04-18T10:53:29.091Z</time></trkpt><trkpt lat="43.960165" lon="11.9437983"><ele>653.3333333333334</ele><time>2026-04-18T10:53:32.091Z</time></trkpt><trkpt lat="43.9601833" lon="11.9436833"><ele>654.5</ele><time>2026-04-18T10:53:34.091Z</time></trkpt><trkpt lat="43.96021" lon="11.9435783"><ele>655.6666666666667</ele><time>2026-04-18T10:53:36.091Z</time></trkpt><trkpt lat="43.9602517" lon="11.9434167"><ele>656.8333333333334</ele><time>2026-04-18T10:53:51.091Z</time></trkpt><trkpt lat="43.9602717" lon="11.9433333"><ele>658.0</ele><time>2026-04-18T10:53:53.091Z</time></trkpt><trkpt lat="43.9602467" lon="11.9432017"><ele>659.0</ele><time>2026-04-18T10:53:56.091Z</time></trkpt><trkpt lat="43.9602217" lon="11.9431083"><ele>660.0</ele><time>2026-04-18T10:53:58.091Z</time></trkpt><trkpt lat="43.9602" lon="11.943005"><ele>661.0</ele><time>2026-04-18T10:54:00.091Z</time></trkpt><trkpt lat="43.9601717" lon="11.94292"><ele>662.0</ele><time>2026-04-18T10:54:02.09Z</time></trkpt><trkpt lat="43.9601233" lon="11.9428517"><ele>663.0</ele><time>2026-04-18T10:54:04.09Z</time></trkpt><trkpt lat="43.9600933" lon="11.9427633"><ele>664.0</ele><time>2026-04-18T10:54:06.091Z</time></trkpt><trkpt lat="43.96006" lon="11.942655"><ele>665.0</ele><time>2026-04-18T10:54:08.091Z</time></trkpt><trkpt lat="43.9600367" lon="11.9425233"><ele>660.6</ele><time>2026-04-18T10:54:10.091Z</time></trkpt><trkpt lat="43.9599867" lon="11.9424083"><ele>656.2</ele><time>2026-04-18T10:54:12.091Z</time></trkpt><trkpt lat="43.9599183" lon="11.9422767"><ele>651.8</ele><time>2026-04-18T10:54:14.091Z</time></trkpt><trkpt lat="43.9598483" lon="11.94218"><ele>647.4</ele><time>2026-04-18T10:54:16.091Z</time></trkpt><trkpt lat="43.9598333" lon="11.9420767"><ele>643.0</ele><time>2026-04-18T10:54:19.091Z</time></trkpt><trkpt lat="43.9598783" lon="11.9419817"><ele>643.0</ele><time>2026-04-18T10:54:21.091Z</time></trkpt><trkpt lat="43.9599183" lon="11.9418917"><ele>643.0</ele><time>2026-04-18T10:54:23.091Z</time></trkpt><trkpt lat="43.9599417" lon="11.9418083"><ele>643.0</ele><time>2026-04-18T10:54:26.091Z</time></trkpt><trkpt lat="43.95993" lon="11.9417083"><ele>643.0</ele><time>2026-04-18T10:54:30.091Z</time></trkpt><trkpt lat="43.9599267" lon="11.9416033"><ele>643.0</ele><time>2026-04-18T10:54:33.091Z</time></trkpt><trkpt lat="43.9599417" lon="11.9415033"><ele>643.0</ele><time>2026-04-18T10:54:35.091Z</time></trkpt><trkpt lat="43.9599517" lon="11.9413833"><ele>643.0</ele><time>2026-04-18T10:54:38.091Z</time></trkpt><trkpt lat="43.959945" lon="11.94121"><ele>643.0</ele><time>2026-04-18T10:54:48.091Z</time></trkpt><trkpt lat="43.959965" lon="11.9410383"><ele>643.0</ele><time>2026-04-18T10:56:15.091Z</time></trkpt><trkpt lat="43.9600133" lon="11.9409733"><ele>643.0</ele><time>2026-04-18T10:56:18.09Z</time></trkpt><trkpt lat="43.960155" lon="11.940855"><ele>643.0</ele><time>2026-04-18T10:56:37.091Z</time></trkpt><trkpt lat="43.9602" lon="11.9407783"><ele>643.0</ele><time>2026-04-18T10:56:40.091Z</time></trkpt><trkpt lat="43.96023" lon="11.9406733"><ele>643.0</ele><time>2026-04-18T10:56:42.091Z</time></trkpt><trkpt lat="43.9602617" lon="11.9405883"><ele>643.0</ele><time>2026-04-18T10:56:44.091Z</time></trkpt><trkpt lat="43.9603233" lon="11.9404383"><ele>643.0</ele><time>2026-04-18T10:57:40.091Z</time></trkpt><trkpt lat="43.9603417" lon="11.9403533"><ele>643.0</ele><time>2026-04-18T10:59:35.092Z</time></trkpt><trkpt lat="43.9603533" lon="11.940235"><ele>643.0</ele><time>2026-04-18T10:59:38.092Z</time></trkpt><trkpt lat="43.96038" lon="11.940125"><ele>643.0</ele><time>2026-04-18T10:59:40.092Z</time></trkpt><trkpt lat="43.9603967" lon="11.9400133"><ele>643.0</ele><time>2026-04-18T10:59:42.092Z</time></trkpt><trkpt lat="43.96041" lon="11.9399183"><ele>643.0</ele><time>2026-04-18T10:59:44.092Z</time></trkpt><trkpt lat="43.9604133" lon="11.9398067"><ele>643.0</ele><time>2026-04-18T10:59:46.092Z</time></trkpt><trkpt lat="43.9604" lon="11.9396733"><ele>643.0</ele><time>2026-04-18T10:59:48.092Z</time></trkpt><trkpt lat="43.9603933" lon="11.9395467"><ele>637.6</ele><time>2026-04-18T10:59:50.092Z</time></trkpt><trkpt lat="43.9603567" lon="11.9394583"><ele>632.1999999999999</ele><time>2026-04-18T11:00:07.091Z</time></trkpt><trkpt lat="43.9602933" lon="11.939355"><ele>626.8</ele><time>2026-04-18T11:00:09.092Z</time></trkpt><trkpt lat="43.9602183" lon="11.93924"><ele>621.4</ele><time>2026-04-18T11:00:11.092Z</time></trkpt><trkpt lat="43.9601583" lon="11.93911"><ele>616.0</ele><time>2026-04-18T11:00:13.091Z</time></trkpt><trkpt lat="43.9601017" lon="11.938975"><ele>615.8333333333334</ele><time>2026-04-18T11:00:15.092Z</time></trkpt><trkpt lat="43.960055" lon="11.9389117"><ele>615.6666666666667</ele><time>2026-04-18T11:00:16.092Z</time></trkpt><trkpt lat="43.960005" lon="11.9388517"><ele>615.5</ele><time>2026-04-18T11:00:17.092Z</time></trkpt><trkpt lat="43.9599483" lon="11.93879"><ele>615.3333333333334</ele><time>2026-04-18T11:00:18.092Z</time></trkpt><trkpt lat="43.9598417" lon="11.9387117"><ele>615.1666666666666</ele><time>2026-04-18T11:00:20.091Z</time></trkpt><trkpt lat="43.9597517" lon="11.9386133"><ele>615.0</ele><time>2026-04-18T11:00:22.092Z</time></trkpt><trkpt lat="43.9596433" lon="11.93851"><ele>615.0</ele><time>2026-04-18T11:00:24.092Z</time></trkpt><trkpt lat="43.9595683" lon="11.938465"><ele>615.0</ele><time>2026-04-18T11:00:25.092Z</time></trkpt><trkpt lat="43.9594817" lon="11.9384383"><ele>615.0</ele><time>2026-04-18T11:00:26.091Z</time></trkpt><trkpt lat="43.9593867" lon="11.9384133"><ele>615.0</ele><time>2026-04-18T11:00:27.092Z</time></trkpt><trkpt lat="43.9593083" lon="11.9383883"><ele>615.0</ele><time>2026-04-18T11:00:28.092Z</time></trkpt><trkpt lat="43.9592367" lon="11.938375"><ele>615.0</ele><time>2026-04-18T11:00:29.092Z</time></trkpt><trkpt lat="43.9591717" lon="11.93837"><ele>616.6</ele><time>2026-04-18T11:00:30.092Z</time></trkpt><trkpt lat="43.9590583" lon="11.93834"><ele>618.2</ele><time>2026-04-18T11:00:32.092Z</time></trkpt><trkpt lat="43.9589733" lon="11.93827"><ele>619.8</ele><time>2026-04-18T11:00:34.092Z</time></trkpt><trkpt lat="43.9589033" lon="11.938185"><ele>621.4</ele><time>2026-04-18T11:00:36.092Z</time></trkpt><trkpt lat="43.9588617" lon="11.9380983"><ele>623.0</ele><time>2026-04-18T11:00:38.092Z</time></trkpt><trkpt lat="43.9588567" lon="11.9380017"><ele>623.0</ele><time>2026-04-18T11:00:40.092Z</time></trkpt><trkpt lat="43.958875" lon="11.9379033"><ele>623.0</ele><time>2026-04-18T11:00:43.092Z</time></trkpt><trkpt lat="43.9589067" lon="11.9378033"><ele>623.0</ele><time>2026-04-18T11:00:46.091Z</time></trkpt><trkpt lat="43.958915" lon="11.9377117"><ele>623.0</ele><time>2026-04-18T11:00:49.092Z</time></trkpt><trkpt lat="43.9589233" lon="11.93759"><ele>623.0</ele><time>2026-04-18T11:00:52.092Z</time></trkpt><trkpt lat="43.958895" lon="11.93751"><ele>623.0</ele><time>2026-04-18T11:00:55.092Z</time></trkpt><trkpt lat="43.9588783" lon="11.93741"><ele>623.0</ele><time>2026-04-18T11:00:58.092Z</time></trkpt><trkpt lat="43.9589217" lon="11.937315"><ele>622.5</ele><time>2026-04-18T11:01:00.091Z</time></trkpt><trkpt lat="43.958975" lon="11.9372217"><ele>622.0</ele><time>2026-04-18T11:01:02.092Z</time></trkpt><trkpt lat="43.959015" lon="11.9371317"><ele>621.5</ele><time>2026-04-18T11:01:04.091Z</time></trkpt><trkpt lat="43.9590717" lon="11.9369933"><ele>621.0</ele><time>2026-04-18T11:01:06.092Z</time></trkpt><trkpt lat="43.9591017" lon="11.93691"><ele>620.5</ele><time>2026-04-18T11:01:07.092Z</time></trkpt><trkpt lat="43.959135" lon="11.9367717"><ele>620.0</ele><time>2026-04-18T11:01:09.092Z</time></trkpt><trkpt lat="43.95916" lon="11.9366617"><ele>617.6</ele><time>2026-04-18T11:01:11.092Z</time></trkpt><trkpt lat="43.9591233" lon="11.93654"><ele>615.2</ele><time>2026-04-18T11:01:13.092Z</time></trkpt><trkpt lat="43.95908" lon="11.9364717"><ele>612.8</ele><time>2026-04-18T11:01:14.092Z</time></trkpt><trkpt lat="43.95904" lon="11.9363967"><ele>610.4</ele><time>2026-04-18T11:01:15.091Z</time></trkpt><trkpt lat="43.9589783" lon="11.9362483"><ele>608.0</ele><time>2026-04-18T11:01:17.092Z</time></trkpt><trkpt lat="43.9589483" lon="11.936105"><ele>608.0</ele><time>2026-04-18T11:01:19.092Z</time></trkpt><trkpt lat="43.95897" lon="11.9359717"><ele>608.0</ele><time>2026-04-18T11:01:21.092Z</time></trkpt><trkpt lat="43.9590117" lon="11.9358233"><ele>608.0</ele><time>2026-04-18T11:01:23.091Z</time></trkpt><trkpt lat="43.9590383" lon="11.93574"><ele>608.0</ele><time>2026-04-18T11:01:24.092Z</time></trkpt><trkpt lat="43.959065" lon="11.9356383"><ele>608.0</ele><time>2026-04-18T11:01:25.092Z</time></trkpt><trkpt lat="43.9590883" lon="11.9355467"><ele>608.0</ele><time>2026-04-18T11:01:26.092Z</time></trkpt><trkpt lat="43.9591" lon="11.9354533"><ele>607.6666666666666</ele><time>2026-04-18T11:01:27.092Z</time></trkpt><trkpt lat="43.9591" lon="11.9353583"><ele>607.3333333333333</ele><time>2026-04-18T11:01:28.092Z</time></trkpt><trkpt lat="43.9591033" lon="11.9352217"><ele>607.0</ele><time>2026-04-18T11:01:30.092Z</time></trkpt><trkpt lat="43.9591133" lon="11.9351017"><ele>606.6666666666666</ele><time>2026-04-18T11:01:32.092Z</time></trkpt><trkpt lat="43.9591317" lon="11.9349967"><ele>606.3333333333334</ele><time>2026-04-18T11:01:35.091Z</time></trkpt><trkpt lat="43.9591217" lon="11.9348967"><ele>606.0</ele><time>2026-04-18T11:01:39.091Z</time></trkpt><trkpt lat="43.95905" lon="11.9348017"><ele>604.2</ele><time>2026-04-18T11:01:42.092Z</time></trkpt><trkpt lat="43.9589317" lon="11.93471"><ele>602.4000000000001</ele><time>2026-04-18T11:01:44.092Z</time></trkpt><trkpt lat="43.9588367" lon="11.9346683"><ele>600.6</ele><time>2026-04-18T11:01:45.092Z</time></trkpt><trkpt lat="43.95873" lon="11.9346417"><ele>598.8000000000001</ele><time>2026-04-18T11:01:46.092Z</time></trkpt><trkpt lat="43.95863" lon="11.93461"><ele>597.0</ele><time>2026-04-18T11:01:47.092Z</time></trkpt><trkpt lat="43.95853" lon="11.9345733"><ele>597.0</ele><time>2026-04-18T11:01:48.092Z</time></trkpt><trkpt lat="43.9584317" lon="11.9345383"><ele>597.0</ele><time>2026-04-18T11:01:49.092Z</time></trkpt><trkpt lat="43.958345" lon="11.9345233"><ele>597.0</ele><time>2026-04-18T11:01:50.092Z</time></trkpt><trkpt lat="43.9582733" lon="11.9345017"><ele>597.0</ele><time>2026-04-18T11:01:51.091Z</time></trkpt><trkpt lat="43.9581733" lon="11.9344633"><ele>597.0</ele><time>2026-04-18T11:01:53.092Z</time></trkpt><trkpt lat="43.9581433" lon="11.934355"><ele>597.0</ele><time>2026-04-18T11:01:55.092Z</time></trkpt><trkpt lat="43.958165" lon="11.9341833"><ele>592.0</ele><time>2026-04-18T11:01:57.092Z</time></trkpt><trkpt lat="43.9581867" lon="11.93409"><ele>587.0</ele><time>2026-04-18T11:01:58.092Z</time></trkpt><trkpt lat="43.9582033" lon="11.9339983"><ele>582.0</ele><time>2026-04-18T11:01:59.092Z</time></trkpt><trkpt lat="43.9582183" lon="11.9339067"><ele>577.0</ele><time>2026-04-18T11:02:00.091Z</time></trkpt><trkpt lat="43.9582133" lon="11.933755"><ele>572.0</ele><time>2026-04-18T11:02:02.091Z</time></trkpt><trkpt lat="43.958195" lon="11.933595"><ele>567.0</ele><time>2026-04-18T11:02:04.092Z</time></trkpt><trkpt lat="43.95817" lon="11.9334267"><ele>566.0</ele><time>2026-04-18T11:02:06.092Z</time></trkpt><trkpt lat="43.958165" lon="11.933335"><ele>565.0</ele><time>2026-04-18T11:02:07.092Z</time></trkpt><trkpt lat="43.9581483" lon="11.9332433"><ele>564.0</ele><time>2026-04-18T11:02:08.092Z</time></trkpt><trkpt lat="43.958135" lon="11.9331483"><ele>563.0</ele><time>2026-04-18T11:02:09.092Z</time></trkpt><trkpt lat="43.9581183" lon="11.9330617"><ele>562.0</ele><time>2026-04-18T11:02:10.091Z</time></trkpt><trkpt lat="43.95812" lon="11.9329033"><ele>561.0</ele><time>2026-04-18T11:02:12.092Z</time></trkpt><trkpt lat="43.9581367" lon="11.9328183"><ele>560.0</ele><time>2026-04-18T11:02:13.092Z</time></trkpt><trkpt lat="43.95816" lon="11.9327317"><ele>560.0</ele><time>2026-04-18T11:02:14.092Z</time></trkpt><trkpt lat="43.95819" lon="11.9326433"><ele>560.0</ele><time>2026-04-18T11:02:15.092Z</time></trkpt><trkpt lat="43.9582367" lon="11.9325533"><ele>560.0</ele><time>2026-04-18T11:02:16.092Z</time></trkpt><trkpt lat="43.9582967" lon="11.9324617"><ele>560.0</ele><time>2026-04-18T11:02:17.092Z</time></trkpt><trkpt lat="43.9583483" lon="11.9323617"><ele>560.0</ele><time>2026-04-18T11:02:18.092Z</time></trkpt><trkpt lat="43.95838" lon="11.93228"><ele>560.0</ele><time>2026-04-18T11:02:19.092Z</time></trkpt><trkpt lat="43.9584133" lon="11.932205"><ele>557.2</ele><time>2026-04-18T11:02:20.092Z</time></trkpt><trkpt lat="43.95841" lon="11.93204"><ele>554.4</ele><time>2026-04-18T11:02:22.092Z</time></trkpt><trkpt lat="43.9583817" lon="11.9319117"><ele>551.6</ele><time>2026-04-18T11:02:23.092Z</time></trkpt><trkpt lat="43.9583433" lon="11.9318017"><ele>548.8</ele><time>2026-04-18T11:02:24.091Z</time></trkpt><trkpt lat="43.9583017" lon="11.9316983"><ele>546.0</ele><time>2026-04-18T11:02:25.091Z</time></trkpt><trkpt lat="43.9582633" lon="11.9315767"><ele>544.3333333333334</ele><time>2026-04-18T11:02:26.092Z</time></trkpt><trkpt lat="43.958235" lon="11.9314617"><ele>542.6666666666666</ele><time>2026-04-18T11:02:27.092Z</time></trkpt><trkpt lat="43.9582067" lon="11.9313567"><ele>541.0</ele><time>2026-04-18T11:02:28.092Z</time></trkpt><trkpt lat="43.9581667" lon="11.931235"><ele>539.3333333333333</ele><time>2026-04-18T11:02:29.091Z</time></trkpt><trkpt lat="43.95811" lon="11.9311433"><ele>537.6666666666666</ele><time>2026-04-18T11:02:30.092Z</time></trkpt><trkpt lat="43.9580383" lon="11.9310567"><ele>536.0</ele><time>2026-04-18T11:02:31.092Z</time></trkpt><trkpt lat="43.9579783" lon="11.9309783"><ele>537.8</ele><time>2026-04-18T11:02:32.092Z</time></trkpt><trkpt lat="43.9579233" lon="11.930885"><ele>539.6</ele><time>2026-04-18T11:02:33.092Z</time></trkpt><trkpt lat="43.9578683" lon="11.930775"><ele>541.4</ele><time>2026-04-18T11:02:34.092Z</time></trkpt><trkpt lat="43.95781" lon="11.9306417"><ele>543.2</ele><time>2026-04-18T11:02:35.092Z</time></trkpt><trkpt lat="43.9577333" lon="11.9305233"><ele>545.0</ele><time>2026-04-18T11:02:36.091Z</time></trkpt><trkpt lat="43.9576433" lon="11.9304067"><ele>545.0</ele><time>2026-04-18T11:02:37.092Z</time></trkpt><trkpt lat="43.95755" lon="11.930295"><ele>545.0</ele><time>2026-04-18T11:02:38.092Z</time></trkpt><trkpt lat="43.95747" lon="11.93019"><ele>545.0</ele><time>2026-04-18T11:02:39.091Z</time></trkpt><trkpt lat="43.9574017" lon="11.9301"><ele>545.0</ele><time>2026-04-18T11:02:40.092Z</time></trkpt><trkpt lat="43.95734" lon="11.9300317"><ele>545.0</ele><time>2026-04-18T11:02:41.092Z</time></trkpt><trkpt lat="43.9572933" lon="11.9299717"><ele>541.8333333333333</ele><time>2026-04-18T11:02:42.091Z</time></trkpt><trkpt lat="43.9572467" lon="11.92989"><ele>538.6666666666666</ele><time>2026-04-18T11:02:44.092Z</time></trkpt><trkpt lat="43.9571367" lon="11.9298283"><ele>535.5</ele><time>2026-04-18T11:04:18.092Z</time></trkpt><trkpt lat="43.9570767" lon="11.929755"><ele>532.3333333333334</ele><time>2026-04-18T11:04:19.091Z</time></trkpt><trkpt lat="43.9570067" lon="11.929695"><ele>529.1666666666667</ele><time>2026-04-18T11:04:20.092Z</time></trkpt><trkpt lat="43.95695" lon="11.9296217"><ele>526.0</ele><time>2026-04-18T11:04:21.092Z</time></trkpt><trkpt lat="43.9569067" lon="11.9295533"><ele>526.0</ele><time>2026-04-18T11:04:22.092Z</time></trkpt><trkpt lat="43.9568533" lon="11.929425"><ele>526.0</ele><time>2026-04-18T11:04:24.091Z</time></trkpt><trkpt lat="43.956855" lon="11.9293133"><ele>526.0</ele><time>2026-04-18T11:04:26.091Z</time></trkpt><trkpt lat="43.9569183" lon="11.929185"><ele>526.0</ele><time>2026-04-18T11:04:28.092Z</time></trkpt><trkpt lat="43.9569617" lon="11.9291183"><ele>526.0</ele><time>2026-04-18T11:04:29.092Z</time></trkpt><trkpt lat="43.9570083" lon="11.9290317"><ele>526.0</ele><time>2026-04-18T11:04:30.092Z</time></trkpt><trkpt lat="43.957045" lon="11.9289383"><ele>523.5</ele><time>2026-04-18T11:04:31.092Z</time></trkpt><trkpt lat="43.9570867" lon="11.9288367"><ele>521.0</ele><time>2026-04-18T11:04:32.092Z</time></trkpt><trkpt lat="43.9571317" lon="11.9287383"><ele>518.5</ele><time>2026-04-18T11:04:33.092Z</time></trkpt><trkpt lat="43.95718" lon="11.9286567"><ele>516.0</ele><time>2026-04-18T11:04:34.091Z</time></trkpt><trkpt lat="43.95723" lon="11.9285867"><ele>513.5</ele><time>2026-04-18T11:04:35.092Z</time></trkpt><trkpt lat="43.9572783" lon="11.9285283"><ele>511.0</ele><time>2026-04-18T11:04:36.092Z</time></trkpt><trkpt lat="43.9573383" lon="11.9284167"><ele>505.6</ele><time>2026-04-18T11:04:38.092Z</time></trkpt><trkpt lat="43.9573017" lon="11.9283333"><ele>500.20000000000005</ele><time>2026-04-18T11:04:40.092Z</time></trkpt><trkpt lat="43.9571567" lon="11.9283"><ele>494.79999999999995</ele><time>2026-04-18T11:04:42.092Z</time></trkpt><trkpt lat="43.9570517" lon="11.92831"><ele>489.4</ele><time>2026-04-18T11:04:43.091Z</time></trkpt><trkpt lat="43.9569567" lon="11.92833"><ele>484.0</ele><time>2026-04-18T11:04:44.092Z</time></trkpt><trkpt lat="43.95686" lon="11.9283733"><ele>486.2</ele><time>2026-04-18T11:04:45.092Z</time></trkpt><trkpt lat="43.9567567" lon="11.9284067"><ele>488.4</ele><time>2026-04-18T11:04:46.092Z</time></trkpt><trkpt lat="43.9566583" lon="11.9284233"><ele>490.6</ele><time>2026-04-18T11:04:47.092Z</time></trkpt><trkpt lat="43.956555" lon="11.9284267"><ele>492.8</ele><time>2026-04-18T11:04:48.092Z</time></trkpt><trkpt lat="43.9564483" lon="11.9284233"><ele>495.0</ele><time>2026-04-18T11:04:49.092Z</time></trkpt><trkpt lat="43.9563517" lon="11.9284283"><ele>495.0</ele><time>2026-04-18T11:04:50.092Z</time></trkpt><trkpt lat="43.9562567" lon="11.9284417"><ele>495.0</ele><time>2026-04-18T11:04:51.092Z</time></trkpt><trkpt lat="43.956175" lon="11.9284617"><ele>495.0</ele><time>2026-04-18T11:04:52.091Z</time></trkpt><trkpt lat="43.9560817" lon="11.9284433"><ele>495.0</ele><time>2026-04-18T11:04:54.092Z</time></trkpt><trkpt lat="43.9560117" lon="11.9283533"><ele>495.0</ele><time>2026-04-18T11:04:56.092Z</time></trkpt><trkpt lat="43.9559917" lon="11.9282667"><ele>495.0</ele><time>2026-04-18T11:04:57.092Z</time></trkpt><trkpt lat="43.9559933" lon="11.9281567"><ele>492.3333333333333</ele><time>2026-04-18T11:04:58.091Z</time></trkpt><trkpt lat="43.9560017" lon="11.9280383"><ele>489.66666666666663</ele><time>2026-04-18T11:04:59.092Z</time></trkpt><trkpt lat="43.9560117" lon="11.9279333"><ele>487.0</ele><time>2026-04-18T11:05:00.092Z</time></trkpt><trkpt lat="43.9560233" lon="11.927825"><ele>484.3333333333333</ele><time>2026-04-18T11:05:01.092Z</time></trkpt><trkpt lat="43.956035" lon="11.9277183"><ele>481.66666666666663</ele><time>2026-04-18T11:05:02.092Z</time></trkpt><trkpt lat="43.9560417" lon="11.927615"><ele>479.0</ele><time>2026-04-18T11:05:03.092Z</time></trkpt><trkpt lat="43.956045" lon="11.927525"><ele>476.0</ele><time>2026-04-18T11:05:04.091Z</time></trkpt><trkpt lat="43.9560467" lon="11.9274333"><ele>473.0</ele><time>2026-04-18T11:05:05.092Z</time></trkpt><trkpt lat="43.956055" lon="11.9272533"><ele>470.0</ele><time>2026-04-18T11:05:07.092Z</time></trkpt><trkpt lat="43.956085" lon="11.9270867"><ele>467.0</ele><time>2026-04-18T11:05:09.092Z</time></trkpt><trkpt lat="43.9561283" lon="11.9269533"><ele>464.0</ele><time>2026-04-18T11:05:11.092Z</time></trkpt><trkpt lat="43.956195" lon="11.92682"><ele>461.0</ele><time>2026-04-18T11:05:13.092Z</time></trkpt><trkpt lat="43.9562467" lon="11.9266933"><ele>458.0</ele><time>2026-04-18T11:05:15.092Z</time></trkpt><trkpt lat="43.9562083" lon="11.9265833"><ele>455.0</ele><time>2026-04-18T11:05:17.092Z</time></trkpt><trkpt lat="43.9561133" lon="11.9265333"><ele>452.0</ele><time>2026-04-18T11:05:19.092Z</time></trkpt><trkpt lat="43.955985" lon="11.926535"><ele>449.0</ele><time>2026-04-18T11:05:21.092Z</time></trkpt><trkpt lat="43.955925" lon="11.9265667"><ele>447.6</ele><time>2026-04-18T11:05:22.092Z</time></trkpt><trkpt lat="43.955835" lon="11.92661"><ele>446.2</ele><time>2026-04-18T11:05:24.091Z</time></trkpt><trkpt lat="43.955755" lon="11.9265483"><ele>444.80000000000007</ele><time>2026-04-18T11:05:27.092Z</time></trkpt><trkpt lat="43.9557717" lon="11.92641"><ele>443.40000000000003</ele><time>2026-04-18T11:05:29.092Z</time></trkpt><trkpt lat="43.9558017" lon="11.92633"><ele>442.0</ele><time>2026-04-18T11:05:30.092Z</time></trkpt><trkpt lat="43.9558617" lon="11.926215"><ele>443.40000000000003</ele><time>2026-04-18T11:05:31.092Z</time></trkpt><trkpt lat="43.9559217" lon="11.92612"><ele>444.80000000000007</ele><time>2026-04-18T11:05:32.092Z</time></trkpt><trkpt lat="43.9559817" lon="11.9260267"><ele>446.2</ele><time>2026-04-18T11:05:33.091Z</time></trkpt><trkpt lat="43.9560517" lon="11.9259333"><ele>447.6</ele><time>2026-04-18T11:05:34.092Z</time></trkpt><trkpt lat="43.95612" lon="11.9258567"><ele>449.0</ele><time>2026-04-18T11:05:35.092Z</time></trkpt><trkpt lat="43.9561917" lon="11.9257783"><ele>445.99999999999994</ele><time>2026-04-18T11:05:36.092Z</time></trkpt><trkpt lat="43.956275" lon="11.9257"><ele>443.0</ele><time>2026-04-18T11:05:37.091Z</time></trkpt><trkpt lat="43.9563583" lon="11.9256333"><ele>440.0</ele><time>2026-04-18T11:05:38.092Z</time></trkpt><trkpt lat="43.9564283" lon="11.9255767"><ele>437.0</ele><time>2026-04-18T11:05:39.091Z</time></trkpt><trkpt lat="43.9564917" lon="11.9255283"><ele>433.99999999999994</ele><time>2026-04-18T11:05:40.092Z</time></trkpt><trkpt lat="43.9565633" lon="11.9254817"><ele>431.0</ele><time>2026-04-18T11:05:41.092Z</time></trkpt><trkpt lat="43.95663" lon="11.92543"><ele>431.0</ele><time>2026-04-18T11:05:42.092Z</time></trkpt><trkpt lat="43.956695" lon="11.9253867"><ele>431.0</ele><time>2026-04-18T11:05:43.091Z</time></trkpt><trkpt lat="43.9568" lon="11.9253317"><ele>431.0</ele><time>2026-04-18T11:05:45.091Z</time></trkpt><trkpt lat="43.95685" lon="11.9252667"><ele>431.0</ele><time>2026-04-18T11:05:47.092Z</time></trkpt><trkpt lat="43.9568367" lon="11.92517"><ele>431.0</ele><time>2026-04-18T11:05:49.092Z</time></trkpt><trkpt lat="43.95672" lon="11.925075"><ele>427.99999999999994</ele><time>2026-04-18T11:05:51.091Z</time></trkpt><trkpt lat="43.9566483" lon="11.92502"><ele>425.0</ele><time>2026-04-18T11:05:52.091Z</time></trkpt><trkpt lat="43.9565767" lon="11.924975"><ele>422.0</ele><time>2026-04-18T11:05:53.091Z</time></trkpt><trkpt lat="43.95649" lon="11.92495"><ele>419.0</ele><time>2026-04-18T11:05:54.092Z</time></trkpt><trkpt lat="43.956395" lon="11.9249383"><ele>415.99999999999994</ele><time>2026-04-18T11:05:55.092Z</time></trkpt><trkpt lat="43.956295" lon="11.924955"><ele>413.0</ele><time>2026-04-18T11:05:56.091Z</time></trkpt><trkpt lat="43.9561917" lon="11.9249817"><ele>413.0</ele><time>2026-04-18T11:05:57.092Z</time></trkpt><trkpt lat="43.9560967" lon="11.92499"><ele>413.0</ele><time>2026-04-18T11:05:58.092Z</time></trkpt><trkpt lat="43.9560033" lon="11.9249767"><ele>413.0</ele><time>2026-04-18T11:05:59.092Z</time></trkpt><trkpt lat="43.9559133" lon="11.9249283"><ele>413.0</ele><time>2026-04-18T11:06:00.092Z</time></trkpt><trkpt lat="43.9558183" lon="11.9248667"><ele>413.0</ele><time>2026-04-18T11:06:01.092Z</time></trkpt><trkpt lat="43.95572" lon="11.924805"><ele>412.49999999999994</ele><time>2026-04-18T11:06:02.092Z</time></trkpt><trkpt lat="43.95563" lon="11.924775"><ele>412.0</ele><time>2026-04-18T11:06:03.092Z</time></trkpt><trkpt lat="43.9555333" lon="11.9247433"><ele>411.5</ele><time>2026-04-18T11:06:04.092Z</time></trkpt><trkpt lat="43.9554567" lon="11.924725"><ele>411.0</ele><time>2026-04-18T11:06:05.092Z</time></trkpt><trkpt lat="43.955385" lon="11.9247267"><ele>410.49999999999994</ele><time>2026-04-18T11:06:06.091Z</time></trkpt><trkpt lat="43.955315" lon="11.9247383"><ele>410.0</ele><time>2026-04-18T11:06:07.092Z</time></trkpt><trkpt lat="43.95524" lon="11.9247667"><ele>409.99999999999994</ele><time>2026-04-18T11:06:08.092Z</time></trkpt><trkpt lat="43.9551633" lon="11.924805"><ele>410.0</ele><time>2026-04-18T11:06:09.092Z</time></trkpt><trkpt lat="43.9550833" lon="11.92486"><ele>410.0</ele><time>2026-04-18T11:06:10.092Z</time></trkpt><trkpt lat="43.954995" lon="11.92491"><ele>410.0</ele><time>2026-04-18T11:06:11.092Z</time></trkpt><trkpt lat="43.9549133" lon="11.9249467"><ele>409.99999999999994</ele><time>2026-04-18T11:06:12.092Z</time></trkpt><trkpt lat="43.95484" lon="11.9249717"><ele>410.0</ele><time>2026-04-18T11:06:13.091Z</time></trkpt><trkpt lat="43.95477" lon="11.9249817"><ele>408.8</ele><time>2026-04-18T11:06:14.091Z</time></trkpt><trkpt lat="43.9546583" lon="11.9249033"><ele>407.6</ele><time>2026-04-18T11:06:16.092Z</time></trkpt><trkpt lat="43.9546517" lon="11.9248083"><ele>406.4</ele><time>2026-04-18T11:06:17.092Z</time></trkpt><trkpt lat="43.9546617" lon="11.9247"><ele>405.2</ele><time>2026-04-18T11:06:18.092Z</time></trkpt><trkpt lat="43.95471" lon="11.9245583"><ele>404.0</ele><time>2026-04-18T11:06:19.092Z</time></trkpt><trkpt lat="43.9547817" lon="11.9244217"><ele>404.0</ele><time>2026-04-18T11:06:20.091Z</time></trkpt><trkpt lat="43.9548667" lon="11.9242933"><ele>404.0</ele><time>2026-04-18T11:06:21.091Z</time></trkpt><trkpt lat="43.9549517" lon="11.9241917"><ele>404.0</ele><time>2026-04-18T11:06:22.092Z</time></trkpt><trkpt lat="43.9550333" lon="11.9241033"><ele>404.0</ele><time>2026-04-18T11:06:23.091Z</time></trkpt><trkpt lat="43.955125" lon="11.9240267"><ele>404.0</ele><time>2026-04-18T11:06:24.092Z</time></trkpt><trkpt lat="43.955205" lon="11.9239783"><ele>403.2</ele><time>2026-04-18T11:06:25.091Z</time></trkpt><trkpt lat="43.955275" lon="11.92391"><ele>402.4</ele><time>2026-04-18T11:06:26.092Z</time></trkpt><trkpt lat="43.9553317" lon="11.923845"><ele>401.6</ele><time>2026-04-18T11:06:27.092Z</time></trkpt><trkpt lat="43.9553917" lon="11.9237"><ele>400.8</ele><time>2026-04-18T11:06:29.091Z</time></trkpt><trkpt lat="43.9554167" lon="11.9235517"><ele>400.0</ele><time>2026-04-18T11:06:31.092Z</time></trkpt><trkpt lat="43.9554733" lon="11.9234667"><ele>400.0</ele><time>2026-04-18T11:06:33.092Z</time></trkpt><trkpt lat="43.9555517" lon="11.92338"><ele>400.0</ele><time>2026-04-18T11:06:35.092Z</time></trkpt><trkpt lat="43.9554885" lon="11.9234122"><ele>400.0</ele><time>2026-04-18T11:07:35.137Z</time></trkpt><trkpt lat="43.9555583" lon="11.9233517"><ele>400.0</ele><time>2026-04-18T11:08:37.092Z</time></trkpt><trkpt lat="43.955445" lon="11.923355"><ele>400.0</ele><time>2026-04-18T11:08:45.092Z</time></trkpt><trkpt lat="43.9553417" lon="11.9233267"><ele>403.4</ele><time>2026-04-18T11:08:47.092Z</time></trkpt><trkpt lat="43.9552817" lon="11.9232617"><ele>406.8</ele><time>2026-04-18T11:08:49.092Z</time></trkpt><trkpt lat="43.95522" lon="11.92315"><ele>410.20000000000005</ele><time>2026-04-18T11:09:05.093Z</time></trkpt><trkpt lat="43.9551833" lon="11.9230467"><ele>413.6</ele><time>2026-04-18T11:09:07.093Z</time></trkpt><trkpt lat="43.9551883" lon="11.922915"><ele>417.0</ele><time>2026-04-18T11:09:09.093Z</time></trkpt><trkpt lat="43.955235" lon="11.92278"><ele>417.0</ele><time>2026-04-18T11:09:11.093Z</time></trkpt><trkpt lat="43.9553117" lon="11.9226417"><ele>417.0</ele><time>2026-04-18T11:09:13.093Z</time></trkpt><trkpt lat="43.9553933" lon="11.9225283"><ele>417.0</ele><time>2026-04-18T11:09:15.093Z</time></trkpt><trkpt lat="43.95547" lon="11.9224217"><ele>417.0</ele><time>2026-04-18T11:09:17.093Z</time></trkpt><trkpt lat="43.9555333" lon="11.92231"><ele>417.8333333333333</ele><time>2026-04-18T11:09:19.093Z</time></trkpt><trkpt lat="43.955575" lon="11.9221933"><ele>418.66666666666663</ele><time>2026-04-18T11:09:21.092Z</time></trkpt><trkpt lat="43.95562" lon="11.9220683"><ele>419.5</ele><time>2026-04-18T11:09:23.093Z</time></trkpt><trkpt lat="43.9556683" lon="11.9219583"><ele>420.3333333333333</ele><time>2026-04-18T11:09:25.092Z</time></trkpt><trkpt lat="43.955705" lon="11.92187"><ele>421.16666666666663</ele><time>2026-04-18T11:09:26.093Z</time></trkpt><trkpt lat="43.95575" lon="11.921795"><ele>422.0</ele><time>2026-04-18T11:09:27.092Z</time></trkpt><trkpt lat="43.955795" lon="11.92172"><ele>422.49999999999994</ele><time>2026-04-18T11:09:28.093Z</time></trkpt><trkpt lat="43.9558817" lon="11.9216067"><ele>423.0</ele><time>2026-04-18T11:09:30.093Z</time></trkpt><trkpt lat="43.95595" lon="11.9215183"><ele>423.5</ele><time>2026-04-18T11:09:32.093Z</time></trkpt><trkpt lat="43.9559967" lon="11.9214333"><ele>424.0</ele><time>2026-04-18T11:09:34.093Z</time></trkpt><trkpt lat="43.9560217" lon="11.921325"><ele>424.49999999999994</ele><time>2026-04-18T11:09:37.093Z</time></trkpt><trkpt lat="43.955965" lon="11.921275"><ele>425.0</ele><time>2026-04-18T11:09:39.093Z</time></trkpt><trkpt lat="43.9558583" lon="11.92126"><ele>421.16666666666663</ele><time>2026-04-18T11:09:41.093Z</time></trkpt><trkpt lat="43.9557517" lon="11.921275"><ele>417.3333333333333</ele><time>2026-04-18T11:09:43.093Z</time></trkpt><trkpt lat="43.9556833" lon="11.9213067"><ele>413.5</ele><time>2026-04-18T11:09:44.093Z</time></trkpt><trkpt lat="43.9556267" lon="11.92135"><ele>409.66666666666663</ele><time>2026-04-18T11:09:45.093Z</time></trkpt><trkpt lat="43.9555717" lon="11.9214167"><ele>405.8333333333333</ele><time>2026-04-18T11:09:46.093Z</time></trkpt><trkpt lat="43.9555167" lon="11.9214983"><ele>402.0</ele><time>2026-04-18T11:09:47.093Z</time></trkpt><trkpt lat="43.9554667" lon="11.9215833"><ele>402.0</ele><time>2026-04-18T11:09:48.093Z</time></trkpt><trkpt lat="43.9554117" lon="11.9216567"><ele>402.0</ele><time>2026-04-18T11:09:49.093Z</time></trkpt><trkpt lat="43.9553583" lon="11.9217283"><ele>402.0</ele><time>2026-04-18T11:09:50.093Z</time></trkpt><trkpt lat="43.9552883" lon="11.92179"><ele>402.0</ele><time>2026-04-18T11:09:51.093Z</time></trkpt><trkpt lat="43.9552217" lon="11.921845"><ele>402.0</ele><time>2026-04-18T11:09:52.093Z</time></trkpt><trkpt lat="43.955165" lon="11.9219"><ele>402.0</ele><time>2026-04-18T11:09:53.092Z</time></trkpt><trkpt lat="43.9551083" lon="11.9219467"><ele>402.0</ele><time>2026-04-18T11:09:54.092Z</time></trkpt><trkpt lat="43.9550483" lon="11.9219867"><ele>402.1666666666667</ele><time>2026-04-18T11:09:55.093Z</time></trkpt><trkpt lat="43.9549833" lon="11.9220183"><ele>402.33333333333337</ele><time>2026-04-18T11:09:56.092Z</time></trkpt><trkpt lat="43.9549117" lon="11.9220283"><ele>402.5</ele><time>2026-04-18T11:09:57.093Z</time></trkpt><trkpt lat="43.9548233" lon="11.9220517"><ele>402.6666666666667</ele><time>2026-04-18T11:09:58.093Z</time></trkpt><trkpt lat="43.9547317" lon="11.9220783"><ele>402.83333333333337</ele><time>2026-04-18T11:09:59.093Z</time></trkpt><trkpt lat="43.954645" lon="11.9221"><ele>403.0</ele><time>2026-04-18T11:10:00.093Z</time></trkpt><trkpt lat="43.9545617" lon="11.9221167"><ele>403.00000000000006</ele><time>2026-04-18T11:10:01.093Z</time></trkpt><trkpt lat="43.9544833" lon="11.922135"><ele>403.0</ele><time>2026-04-18T11:10:02.093Z</time></trkpt><trkpt lat="43.95441" lon="11.9221583"><ele>403.0</ele><time>2026-04-18T11:10:03.093Z</time></trkpt><trkpt lat="43.9543467" lon="11.9221917"><ele>403.0</ele><time>2026-04-18T11:10:04.093Z</time></trkpt><trkpt lat="43.9542417" lon="11.9222267"><ele>403.00000000000006</ele><time>2026-04-18T11:10:06.093Z</time></trkpt><trkpt lat="43.95416" lon="11.9221917"><ele>403.0</ele><time>2026-04-18T11:10:08.093Z</time></trkpt><trkpt lat="43.9541333" lon="11.9220667"><ele>400.79999999999995</ele><time>2026-04-18T11:10:10.092Z</time></trkpt><trkpt lat="43.9541667" lon="11.9219467"><ele>398.6</ele><time>2026-04-18T11:10:11.093Z</time></trkpt><trkpt lat="43.954175" lon="11.921835"><ele>396.4</ele><time>2026-04-18T11:10:12.093Z</time></trkpt><trkpt lat="43.954205" lon="11.92168"><ele>394.20000000000005</ele><time>2026-04-18T11:10:13.093Z</time></trkpt><trkpt lat="43.95423" lon="11.9215283"><ele>392.0</ele><time>2026-04-18T11:10:14.093Z</time></trkpt><trkpt lat="43.9542433" lon="11.9214033"><ele>389.20000000000005</ele><time>2026-04-18T11:10:15.093Z</time></trkpt><trkpt lat="43.954255" lon="11.921295"><ele>386.4</ele><time>2026-04-18T11:10:16.093Z</time></trkpt><trkpt lat="43.9542433" lon="11.9211983"><ele>383.6</ele><time>2026-04-18T11:10:17.093Z</time></trkpt><trkpt lat="43.9541933" lon="11.9210533"><ele>380.79999999999995</ele><time>2026-04-18T11:10:19.093Z</time></trkpt><trkpt lat="43.9540883" lon="11.921"><ele>378.0</ele><time>2026-04-18T11:10:21.092Z</time></trkpt><trkpt lat="43.95401" lon="11.921"><ele>377.8333333333333</ele><time>2026-04-18T11:10:22.093Z</time></trkpt><trkpt lat="43.9539217" lon="11.9209983"><ele>377.6666666666667</ele><time>2026-04-18T11:10:23.093Z</time></trkpt><trkpt lat="43.9538417" lon="11.92099"><ele>377.5</ele><time>2026-04-18T11:10:24.093Z</time></trkpt><trkpt lat="43.953765" lon="11.9209717"><ele>377.33333333333337</ele><time>2026-04-18T11:10:25.093Z</time></trkpt><trkpt lat="43.9537033" lon="11.92094"><ele>377.1666666666667</ele><time>2026-04-18T11:10:26.093Z</time></trkpt><trkpt lat="43.9536467" lon="11.9208983"><ele>377.0</ele><time>2026-04-18T11:10:27.093Z</time></trkpt><trkpt lat="43.9535817" lon="11.9207417"><ele>374.0</ele><time>2026-04-18T11:10:29.093Z</time></trkpt><trkpt lat="43.9535483" lon="11.9206183"><ele>371.0</ele><time>2026-04-18T11:10:30.092Z</time></trkpt><trkpt lat="43.9535067" lon="11.9204883"><ele>368.0</ele><time>2026-04-18T11:10:31.093Z</time></trkpt><trkpt lat="43.9534783" lon="11.9203667"><ele>365.0</ele><time>2026-04-18T11:10:32.092Z</time></trkpt><trkpt lat="43.9534583" lon="11.9202617"><ele>362.0</ele><time>2026-04-18T11:10:33.093Z</time></trkpt><trkpt lat="43.9534317" lon="11.9201683"><ele>359.0</ele><time>2026-04-18T11:10:34.093Z</time></trkpt><trkpt lat="43.9534033" lon="11.9200783"><ele>357.6666666666667</ele><time>2026-04-18T11:10:35.092Z</time></trkpt><trkpt lat="43.953355" lon="11.9199967"><ele>356.33333333333337</ele><time>2026-04-18T11:10:36.093Z</time></trkpt><trkpt lat="43.9532917" lon="11.919925"><ele>355.0</ele><time>2026-04-18T11:10:37.092Z</time></trkpt><trkpt lat="43.9532067" lon="11.919875"><ele>353.6666666666667</ele><time>2026-04-18T11:10:38.093Z</time></trkpt><trkpt lat="43.953105" lon="11.9198483"><ele>352.3333333333333</ele><time>2026-04-18T11:10:39.093Z</time></trkpt><trkpt lat="43.953015" lon="11.9198233"><ele>351.0</ele><time>2026-04-18T11:10:40.093Z</time></trkpt><trkpt lat="43.95293" lon="11.9198017"><ele>351.0</ele><time>2026-04-18T11:10:41.093Z</time></trkpt><trkpt lat="43.9528433" lon="11.9197633"><ele>351.0</ele><time>2026-04-18T11:10:42.093Z</time></trkpt><trkpt lat="43.9527533" lon="11.9197267"><ele>351.0</ele><time>2026-04-18T11:10:43.093Z</time></trkpt><trkpt lat="43.9526683" lon="11.9196767"><ele>351.0</ele><time>2026-04-18T11:10:44.093Z</time></trkpt><trkpt lat="43.952605" lon="11.9196033"><ele>351.0</ele><time>2026-04-18T11:10:45.093Z</time></trkpt><trkpt lat="43.9525433" lon="11.9195267"><ele>351.0</ele><time>2026-04-18T11:10:46.093Z</time></trkpt><trkpt lat="43.9524783" lon="11.9194567"><ele>353.8333333333333</ele><time>2026-04-18T11:10:47.093Z</time></trkpt><trkpt lat="43.9524117" lon="11.9193967"><ele>356.6666666666667</ele><time>2026-04-18T11:10:48.093Z</time></trkpt><trkpt lat="43.9523417" lon="11.9193533"><ele>359.5</ele><time>2026-04-18T11:10:49.093Z</time></trkpt><trkpt lat="43.9522633" lon="11.91933"><ele>362.33333333333337</ele><time>2026-04-18T11:10:50.092Z</time></trkpt><trkpt lat="43.9521833" lon="11.9193183"><ele>365.1666666666667</ele><time>2026-04-18T11:10:51.092Z</time></trkpt><trkpt lat="43.9520883" lon="11.9193267"><ele>368.0</ele><time>2026-04-18T11:10:52.092Z</time></trkpt><trkpt lat="43.9519967" lon="11.91935"><ele>368.0</ele><time>2026-04-18T11:10:53.093Z</time></trkpt><trkpt lat="43.9519167" lon="11.91939"><ele>368.0</ele><time>2026-04-18T11:10:54.093Z</time></trkpt><trkpt lat="43.9518367" lon="11.9194233"><ele>368.0</ele><time>2026-04-18T11:10:55.092Z</time></trkpt><trkpt lat="43.9517517" lon="11.919435"><ele>368.0</ele><time>2026-04-18T11:10:56.093Z</time></trkpt><trkpt lat="43.9516767" lon="11.9194167"><ele>368.0</ele><time>2026-04-18T11:10:57.093Z</time></trkpt><trkpt lat="43.9515967" lon="11.9193783"><ele>368.0</ele><time>2026-04-18T11:10:58.093Z</time></trkpt><trkpt lat="43.9515233" lon="11.9193183"><ele>367.83333333333337</ele><time>2026-04-18T11:10:59.093Z</time></trkpt><trkpt lat="43.9514667" lon="11.919235"><ele>367.6666666666667</ele><time>2026-04-18T11:11:00.093Z</time></trkpt><trkpt lat="43.9514167" lon="11.9191383"><ele>367.5</ele><time>2026-04-18T11:11:01.092Z</time></trkpt><trkpt lat="43.9513683" lon="11.9190367"><ele>367.3333333333333</ele><time>2026-04-18T11:11:02.093Z</time></trkpt><trkpt lat="43.9513117" lon="11.9189483"><ele>367.16666666666663</ele><time>2026-04-18T11:11:03.093Z</time></trkpt><trkpt lat="43.9512467" lon="11.91885"><ele>367.0</ele><time>2026-04-18T11:11:04.093Z</time></trkpt><trkpt lat="43.9511683" lon="11.918755"><ele>363.20000000000005</ele><time>2026-04-18T11:11:05.093Z</time></trkpt><trkpt lat="43.9510917" lon="11.9186667"><ele>359.4</ele><time>2026-04-18T11:11:06.093Z</time></trkpt><trkpt lat="43.951015" lon="11.9185733"><ele>355.6</ele><time>2026-04-18T11:11:07.093Z</time></trkpt><trkpt lat="43.950935" lon="11.91849"><ele>351.79999999999995</ele><time>2026-04-18T11:11:08.093Z</time></trkpt><trkpt lat="43.9508583" lon="11.918405"><ele>348.0</ele><time>2026-04-18T11:11:09.093Z</time></trkpt><trkpt lat="43.9507767" lon="11.9183383"><ele>340.1666666666667</ele><time>2026-04-18T11:11:10.093Z</time></trkpt><trkpt lat="43.9507117" lon="11.9182683"><ele>332.3333333333333</ele><time>2026-04-18T11:11:11.093Z</time></trkpt><trkpt lat="43.9506583" lon="11.9181967"><ele>324.5</ele><time>2026-04-18T11:11:12.093Z</time></trkpt><trkpt lat="43.9505917" lon="11.91813"><ele>316.66666666666663</ele><time>2026-04-18T11:11:13.093Z</time></trkpt><trkpt lat="43.9505133" lon="11.91807"><ele>308.8333333333333</ele><time>2026-04-18T11:11:14.092Z</time></trkpt><trkpt lat="43.9504383" lon="11.9180067"><ele>301.0</ele><time>2026-04-18T11:11:15.093Z</time></trkpt><trkpt lat="43.9503667" lon="11.91794"><ele>301.0</ele><time>2026-04-18T11:11:16.092Z</time></trkpt><trkpt lat="43.9503033" lon="11.9178683"><ele>301.0</ele><time>2026-04-18T11:11:17.093Z</time></trkpt><trkpt lat="43.9502333" lon="11.917805"><ele>301.0</ele><time>2026-04-18T11:11:18.093Z</time></trkpt><trkpt lat="43.950175" lon="11.9177417"><ele>301.0</ele><time>2026-04-18T11:11:19.093Z</time></trkpt><trkpt lat="43.9501183" lon="11.9176817"><ele>301.0</ele><time>2026-04-18T11:11:20.093Z</time></trkpt><trkpt lat="43.9500567" lon="11.9176183"><ele>301.0</ele><time>2026-04-18T11:11:21.093Z</time></trkpt><trkpt lat="43.949995" lon="11.91755"><ele>300.42857142857144</ele><time>2026-04-18T11:11:22.093Z</time></trkpt><trkpt lat="43.94994" lon="11.91748"><ele>299.8571428571429</ele><time>2026-04-18T11:11:23.093Z</time></trkpt><trkpt lat="43.94989" lon="11.9174083"><ele>299.2857142857143</ele><time>2026-04-18T11:11:24.093Z</time></trkpt><trkpt lat="43.949845" lon="11.9173317"><ele>298.7142857142857</ele><time>2026-04-18T11:11:25.093Z</time></trkpt><trkpt lat="43.9498" lon="11.9172517"><ele>298.14285714285717</ele><time>2026-04-18T11:11:26.093Z</time></trkpt><trkpt lat="43.94975" lon="11.9171733"><ele>297.57142857142856</ele><time>2026-04-18T11:11:27.093Z</time></trkpt><trkpt lat="43.9497017" lon="11.9170983"><ele>297.0</ele><time>2026-04-18T11:11:28.092Z</time></trkpt><trkpt lat="43.9496517" lon="11.9170267"><ele>297.0</ele><time>2026-04-18T11:11:29.093Z</time></trkpt><trkpt lat="43.9496" lon="11.9169583"><ele>297.0</ele><time>2026-04-18T11:11:30.093Z</time></trkpt><trkpt lat="43.9495517" lon="11.916895"><ele>297.0</ele><time>2026-04-18T11:11:31.092Z</time></trkpt><trkpt lat="43.949505" lon="11.9168233"><ele>297.0</ele><time>2026-04-18T11:11:32.093Z</time></trkpt><trkpt lat="43.9494533" lon="11.9167617"><ele>297.0</ele><time>2026-04-18T11:11:33.092Z</time></trkpt><trkpt lat="43.9494" lon="11.9166983"><ele>297.0</ele><time>2026-04-18T11:11:34.092Z</time></trkpt><trkpt lat="43.94931" lon="11.9165967"><ele>294.0</ele><time>2026-04-18T11:11:36.092Z</time></trkpt><trkpt lat="43.9492267" lon="11.9165233"><ele>291.0</ele><time>2026-04-18T11:11:38.093Z</time></trkpt><trkpt lat="43.9492067" lon="11.9164283"><ele>288.0</ele><time>2026-04-18T11:11:40.093Z</time></trkpt><trkpt lat="43.9492817" lon="11.9163067"><ele>285.0</ele><time>2026-04-18T11:11:42.093Z</time></trkpt><trkpt lat="43.9493467" lon="11.91624"><ele>282.0</ele><time>2026-04-18T11:11:43.093Z</time></trkpt><trkpt lat="43.9494033" lon="11.9161667"><ele>279.0</ele><time>2026-04-18T11:11:44.093Z</time></trkpt><trkpt lat="43.9494617" lon="11.916095"><ele>277.99999999999994</ele><time>2026-04-18T11:11:45.093Z</time></trkpt><trkpt lat="43.949515" lon="11.9160367"><ele>277.0</ele><time>2026-04-18T11:11:46.093Z</time></trkpt><trkpt lat="43.949565" lon="11.9159683"><ele>276.0</ele><time>2026-04-18T11:11:47.093Z</time></trkpt><trkpt lat="43.9496117" lon="11.9158983"><ele>275.0</ele><time>2026-04-18T11:11:48.093Z</time></trkpt><trkpt lat="43.9496583" lon="11.9158283"><ele>274.0</ele><time>2026-04-18T11:11:49.093Z</time></trkpt><trkpt lat="43.949705" lon="11.915765"><ele>272.99999999999994</ele><time>2026-04-18T11:11:50.093Z</time></trkpt><trkpt lat="43.9497717" lon="11.91567"><ele>272.0</ele><time>2026-04-18T11:11:52.093Z</time></trkpt><trkpt lat="43.9498133" lon="11.9156017"><ele>272.0</ele><time>2026-04-18T11:11:55.093Z</time></trkpt><trkpt lat="43.9497417" lon="11.9156617"><ele>272.0</ele><time>2026-04-18T11:12:23.093Z</time></trkpt><trkpt lat="43.94965" lon="11.9157933"><ele>272.0</ele><time>2026-04-18T11:12:25.093Z</time></trkpt><trkpt lat="43.9495933" lon="11.9158617"><ele>272.0</ele><time>2026-04-18T11:12:26.092Z</time></trkpt><trkpt lat="43.94954" lon="11.9159583"><ele>272.0</ele><time>2026-04-18T11:12:28.093Z</time></trkpt><trkpt lat="43.9496133" lon="11.915945"><ele>270.6666666666667</ele><time>2026-04-18T11:12:37.093Z</time></trkpt><trkpt lat="43.9496767" lon="11.915865"><ele>269.33333333333337</ele><time>2026-04-18T11:12:39.093Z</time></trkpt><trkpt lat="43.9497567" lon="11.9157717"><ele>268.0</ele><time>2026-04-18T11:12:41.092Z</time></trkpt><trkpt lat="43.9498267" lon="11.9156817"><ele>266.6666666666667</ele><time>2026-04-18T11:12:43.093Z</time></trkpt><trkpt lat="43.9498767" lon="11.9155967"><ele>265.3333333333333</ele><time>2026-04-18T11:12:46.092Z</time></trkpt><trkpt lat="43.9499083" lon="11.9155133"><ele>264.0</ele><time>2026-04-18T11:12:54.093Z</time></trkpt><trkpt lat="43.949915" lon="11.9154017"><ele>264.0</ele><time>2026-04-18T11:12:57.093Z</time></trkpt><trkpt lat="43.949895" lon="11.9152833"><ele>264.0</ele><time>2026-04-18T11:13:16.093Z</time></trkpt><trkpt lat="43.94981" lon="11.91519"><ele>264.0</ele><time>2026-04-18T11:13:18.093Z</time></trkpt><trkpt lat="43.9497217" lon="11.915105"><ele>264.0</ele><time>2026-04-18T11:13:20.093Z</time></trkpt><trkpt lat="43.9496533" lon="11.9150617"><ele>264.0</ele><time>2026-04-18T11:13:21.093Z</time></trkpt><trkpt lat="43.9495667" lon="11.9150417"><ele>264.0</ele><time>2026-04-18T11:13:22.093Z</time></trkpt><trkpt lat="43.949475" lon="11.9150383"><ele>264.0</ele><time>2026-04-18T11:13:23.093Z</time></trkpt><trkpt lat="43.9493767" lon="11.9150567"><ele>264.0</ele><time>2026-04-18T11:13:24.093Z</time></trkpt><trkpt lat="43.9492767" lon="11.915085"><ele>264.0</ele><time>2026-04-18T11:13:25.093Z</time></trkpt><trkpt lat="43.9491683" lon="11.91511"><ele>264.0</ele><time>2026-04-18T11:13:26.093Z</time></trkpt><trkpt lat="43.9490483" lon="11.915115"><ele>265.2</ele><time>2026-04-18T11:13:27.093Z</time></trkpt><trkpt lat="43.948925" lon="11.9151067"><ele>266.4</ele><time>2026-04-18T11:13:28.093Z</time></trkpt><trkpt lat="43.948825" lon="11.9151033"><ele>267.6</ele><time>2026-04-18T11:13:29.093Z</time></trkpt><trkpt lat="43.9487467" lon="11.915095"><ele>268.8</ele><time>2026-04-18T11:13:30.093Z</time></trkpt><trkpt lat="43.9486733" lon="11.9150867"><ele>270.0</ele><time>2026-04-18T11:13:31.093Z</time></trkpt><trkpt lat="43.9485967" lon="11.915075"><ele>269.6666666666667</ele><time>2026-04-18T11:13:32.093Z</time></trkpt><trkpt lat="43.9485183" lon="11.9150317"><ele>269.3333333333333</ele><time>2026-04-18T11:13:33.093Z</time></trkpt><trkpt lat="43.9484467" lon="11.9149883"><ele>269.0</ele><time>2026-04-18T11:13:34.093Z</time></trkpt><trkpt lat="43.9483833" lon="11.9149317"><ele>268.66666666666663</ele><time>2026-04-18T11:13:35.093Z</time></trkpt><trkpt lat="43.9483133" lon="11.9148817"><ele>268.3333333333333</ele><time>2026-04-18T11:13:36.093Z</time></trkpt><trkpt lat="43.94824" lon="11.9148217"><ele>268.0</ele><time>2026-04-18T11:13:37.093Z</time></trkpt><trkpt lat="43.948175" lon="11.9147583"><ele>268.0</ele><time>2026-04-18T11:13:38.093Z</time></trkpt><trkpt lat="43.9480717" lon="11.9146733"><ele>268.0</ele><time>2026-04-18T11:13:40.092Z</time></trkpt><trkpt lat="43.9479783" lon="11.9145883"><ele>268.0</ele><time>2026-04-18T11:13:42.093Z</time></trkpt><trkpt lat="43.9478983" lon="11.9145033"><ele>268.0</ele><time>2026-04-18T11:13:44.093Z</time></trkpt><trkpt lat="43.9478317" lon="11.91442"><ele>268.0</ele><time>2026-04-18T11:13:46.093Z</time></trkpt><trkpt lat="43.94774" lon="11.9143267"><ele>267.2</ele><time>2026-04-18T11:13:48.093Z</time></trkpt><trkpt lat="43.9476667" lon="11.9142117"><ele>266.4</ele><time>2026-04-18T11:13:50.093Z</time></trkpt><trkpt lat="43.9476533" lon="11.9140583"><ele>265.59999999999997</ele><time>2026-04-18T11:13:52.093Z</time></trkpt><trkpt lat="43.9476917" lon="11.9139683"><ele>264.8</ele><time>2026-04-18T11:13:53.092Z</time></trkpt><trkpt lat="43.9477433" lon="11.9138767"><ele>264.0</ele><time>2026-04-18T11:13:54.093Z</time></trkpt><trkpt lat="43.947795" lon="11.91376"><ele>264.0</ele><time>2026-04-18T11:13:55.093Z</time></trkpt><trkpt lat="43.9478417" lon="11.9136517"><ele>264.0</ele><time>2026-04-18T11:13:56.093Z</time></trkpt><trkpt lat="43.94789" lon="11.9135483"><ele>264.0</ele><time>2026-04-18T11:13:57.093Z</time></trkpt><trkpt lat="43.947935" lon="11.9134617"><ele>264.0</ele><time>2026-04-18T11:13:58.093Z</time></trkpt><trkpt lat="43.9479783" lon="11.91338"><ele>264.0</ele><time>2026-04-18T11:13:59.092Z</time></trkpt><trkpt lat="43.94802" lon="11.9133017"><ele>264.0</ele><time>2026-04-18T11:14:00.093Z</time></trkpt><trkpt lat="43.94806" lon="11.9132283"><ele>263.59999999999997</ele><time>2026-04-18T11:14:01.093Z</time></trkpt><trkpt lat="43.9480967" lon="11.913155"><ele>263.2</ele><time>2026-04-18T11:14:02.093Z</time></trkpt><trkpt lat="43.948165" lon="11.913015"><ele>262.79999999999995</ele><time>2026-04-18T11:14:04.093Z</time></trkpt><trkpt lat="43.9482367" lon="11.9128833"><ele>262.4</ele><time>2026-04-18T11:14:06.093Z</time></trkpt><trkpt lat="43.9483133" lon="11.9127467"><ele>262.0</ele><time>2026-04-18T11:14:08.093Z</time></trkpt><trkpt lat="43.9483517" lon="11.9126617"><ele>260.8</ele><time>2026-04-18T11:14:09.093Z</time></trkpt><trkpt lat="43.94839" lon="11.9125533"><ele>259.6</ele><time>2026-04-18T11:14:10.093Z</time></trkpt><trkpt lat="43.9484133" lon="11.9124417"><ele>258.40000000000003</ele><time>2026-04-18T11:14:11.092Z</time></trkpt><trkpt lat="43.9484117" lon="11.9123317"><ele>257.2</ele><time>2026-04-18T11:14:12.093Z</time></trkpt><trkpt lat="43.9483883" lon="11.912195"><ele>256.0</ele><time>2026-04-18T11:14:13.093Z</time></trkpt><trkpt lat="43.9483367" lon="11.9120483"><ele>256.0</ele><time>2026-04-18T11:14:14.093Z</time></trkpt><trkpt lat="43.948265" lon="11.9118983"><ele>256.0</ele><time>2026-04-18T11:14:15.093Z</time></trkpt><trkpt lat="43.948185" lon="11.91175"><ele>256.0</ele><time>2026-04-18T11:14:16.093Z</time></trkpt><trkpt lat="43.94811" lon="11.9116233"><ele>256.0</ele><time>2026-04-18T11:14:17.093Z</time></trkpt><trkpt lat="43.9480433" lon="11.9114983"><ele>254.8</ele><time>2026-04-18T11:14:18.093Z</time></trkpt><trkpt lat="43.94799" lon="11.9113717"><ele>253.60000000000002</ele><time>2026-04-18T11:14:19.093Z</time></trkpt><trkpt lat="43.947965" lon="11.9112483"><ele>252.4</ele><time>2026-04-18T11:14:20.092Z</time></trkpt><trkpt lat="43.947935" lon="11.9111117"><ele>251.2</ele><time>2026-04-18T11:14:21.093Z</time></trkpt><trkpt lat="43.947895" lon="11.91098"><ele>250.0</ele><time>2026-04-18T11:14:22.093Z</time></trkpt><trkpt lat="43.9478417" lon="11.9108633"><ele>249.75</ele><time>2026-04-18T11:14:23.093Z</time></trkpt><trkpt lat="43.9477783" lon="11.910745"><ele>249.5</ele><time>2026-04-18T11:14:24.093Z</time></trkpt><trkpt lat="43.9477017" lon="11.91061"><ele>249.25</ele><time>2026-04-18T11:14:25.093Z</time></trkpt><trkpt lat="43.9476117" lon="11.910475"><ele>249.0</ele><time>2026-04-18T11:14:26.093Z</time></trkpt><trkpt lat="43.9475383" lon="11.91036"><ele>250.0</ele><time>2026-04-18T11:14:27.092Z</time></trkpt><trkpt lat="43.9474783" lon="11.91027"><ele>251.0</ele><time>2026-04-18T11:14:28.093Z</time></trkpt><trkpt lat="43.9474333" lon="11.9102017"><ele>252.0</ele><time>2026-04-18T11:14:29.093Z</time></trkpt><trkpt lat="43.9473783" lon="11.9101333"><ele>253.0</ele><time>2026-04-18T11:14:31.093Z</time></trkpt><trkpt lat="43.94733" lon="11.9100383"><ele>254.0</ele><time>2026-04-18T11:14:34.093Z</time></trkpt><trkpt lat="43.94727" lon="11.9099717"><ele>255.0</ele><time>2026-04-18T11:15:40.093Z</time></trkpt><trkpt lat="43.9472167" lon="11.90985"><ele>255.0</ele><time>2026-04-18T11:15:42.093Z</time></trkpt><trkpt lat="43.9471517" lon="11.9097483"><ele>255.0</ele><time>2026-04-18T11:15:44.093Z</time></trkpt><trkpt lat="43.9470933" lon="11.9096717"><ele>255.0</ele><time>2026-04-18T11:15:46.093Z</time></trkpt><trkpt lat="43.947035" lon="11.909585"><ele>255.0</ele><time>2026-04-18T11:15:49.092Z</time></trkpt><trkpt lat="43.94697" lon="11.9095033"><ele>255.0</ele><time>2026-04-18T11:15:56.092Z</time></trkpt><trkpt lat="43.9469267" lon="11.9094383"><ele>255.0</ele><time>2026-04-18T11:15:58.093Z</time></trkpt><trkpt lat="43.9469367" lon="11.9093517"><ele>254.6</ele><time>2026-04-18T11:16:00.093Z</time></trkpt><trkpt lat="43.9470133" lon="11.9091983"><ele>254.2</ele><time>2026-04-18T11:16:02.092Z</time></trkpt><trkpt lat="43.947065" lon="11.9090933"><ele>253.8</ele><time>2026-04-18T11:16:03.093Z</time></trkpt><trkpt lat="43.9471217" lon="11.9089867"><ele>253.4</ele><time>2026-04-18T11:16:04.093Z</time></trkpt><trkpt lat="43.9471767" lon="11.9088917"><ele>253.0</ele><time>2026-04-18T11:16:05.092Z</time></trkpt><trkpt lat="43.9472333" lon="11.9087867"><ele>253.0</ele><time>2026-04-18T11:16:06.093Z</time></trkpt><trkpt lat="43.9472883" lon="11.9086817"><ele>253.0</ele><time>2026-04-18T11:16:07.093Z</time></trkpt><trkpt lat="43.9473433" lon="11.9085733"><ele>253.0</ele><time>2026-04-18T11:16:08.092Z</time></trkpt><trkpt lat="43.9473917" lon="11.908465"><ele>253.0</ele><time>2026-04-18T11:16:09.093Z</time></trkpt><trkpt lat="43.9474333" lon="11.9083633"><ele>253.0</ele><time>2026-04-18T11:16:10.093Z</time></trkpt><trkpt lat="43.9474667" lon="11.908255"><ele>253.8</ele><time>2026-04-18T11:16:11.093Z</time></trkpt><trkpt lat="43.94751" lon="11.9081433"><ele>254.60000000000002</ele><time>2026-04-18T11:16:12.093Z</time></trkpt><trkpt lat="43.9475517" lon="11.908025"><ele>255.39999999999998</ele><time>2026-04-18T11:16:13.092Z</time></trkpt><trkpt lat="43.947595" lon="11.9079133"><ele>256.2</ele><time>2026-04-18T11:16:14.093Z</time></trkpt><trkpt lat="43.9476367" lon="11.9078033"><ele>257.0</ele><time>2026-04-18T11:16:15.092Z</time></trkpt><trkpt lat="43.9476767" lon="11.9076883"><ele>259.4</ele><time>2026-04-18T11:16:16.093Z</time></trkpt><trkpt lat="43.94772" lon="11.9075683"><ele>261.79999999999995</ele><time>2026-04-18T11:16:17.092Z</time></trkpt><trkpt lat="43.9477667" lon="11.9074433"><ele>264.2</ele><time>2026-04-18T11:16:18.092Z</time></trkpt><trkpt lat="43.9478183" lon="11.9073267"><ele>266.59999999999997</ele><time>2026-04-18T11:16:19.093Z</time></trkpt><trkpt lat="43.9478683" lon="11.90723"><ele>269.0</ele><time>2026-04-18T11:16:20.093Z</time></trkpt><trkpt lat="43.947925" lon="11.9071683"><ele>269.0</ele><time>2026-04-18T11:16:21.093Z</time></trkpt><trkpt lat="43.94799" lon="11.90711"><ele>269.0</ele><time>2026-04-18T11:16:22.093Z</time></trkpt><trkpt lat="43.9480633" lon="11.907065"><ele>269.0</ele><time>2026-04-18T11:16:23.093Z</time></trkpt><trkpt lat="43.9481383" lon="11.907055"><ele>269.0</ele><time>2026-04-18T11:16:24.092Z</time></trkpt><trkpt lat="43.9482383" lon="11.9070933"><ele>269.0</ele><time>2026-04-18T11:16:25.092Z</time></trkpt><trkpt lat="43.94835" lon="11.9071633"><ele>271.0</ele><time>2026-04-18T11:16:26.093Z</time></trkpt><trkpt lat="43.9484617" lon="11.9072483"><ele>273.0</ele><time>2026-04-18T11:16:27.093Z</time></trkpt><trkpt lat="43.9485767" lon="11.9073483"><ele>275.0</ele><time>2026-04-18T11:16:28.093Z</time></trkpt><trkpt lat="43.9486933" lon="11.90746"><ele>277.0</ele><time>2026-04-18T11:16:29.092Z</time></trkpt><trkpt lat="43.948805" lon="11.907585"><ele>277.0</ele><time>2026-04-18T11:16:30.093Z</time></trkpt><trkpt lat="43.9489083" lon="11.9077217"><ele>277.0</ele><time>2026-04-18T11:16:31.093Z</time></trkpt><trkpt lat="43.949" lon="11.90787"><ele>277.0</ele><time>2026-04-18T11:16:32.092Z</time></trkpt><trkpt lat="43.9490833" lon="11.9080433"><ele>277.0</ele><time>2026-04-18T11:16:33.093Z</time></trkpt><trkpt lat="43.9491417" lon="11.9082183"><ele>277.0</ele><time>2026-04-18T11:16:34.093Z</time></trkpt><trkpt lat="43.9491833" lon="11.9083917"><ele>277.0</ele><time>2026-04-18T11:16:35.093Z</time></trkpt><trkpt lat="43.94921" lon="11.908555"><ele>277.0</ele><time>2026-04-18T11:16:36.093Z</time></trkpt><trkpt lat="43.9492367" lon="11.90871"><ele>277.0</ele><time>2026-04-18T11:16:37.093Z</time></trkpt><trkpt lat="43.9492683" lon="11.90886"><ele>277.5</ele><time>2026-04-18T11:16:38.093Z</time></trkpt><trkpt lat="43.9493183" lon="11.9090017"><ele>278.0</ele><time>2026-04-18T11:16:39.093Z</time></trkpt><trkpt lat="43.94938" lon="11.9091383"><ele>278.5</ele><time>2026-04-18T11:16:40.092Z</time></trkpt><trkpt lat="43.9494583" lon="11.9092583"><ele>279.0</ele><time>2026-04-18T11:16:41.093Z</time></trkpt><trkpt lat="43.949535" lon="11.9093833"><ele>279.0</ele><time>2026-04-18T11:16:42.093Z</time></trkpt><trkpt lat="43.9496217" lon="11.9094817"><ele>279.0</ele><time>2026-04-18T11:16:43.092Z</time></trkpt><trkpt lat="43.9497133" lon="11.90957"><ele>279.0</ele><time>2026-04-18T11:16:44.093Z</time></trkpt><trkpt lat="43.9498083" lon="11.909645"><ele>279.0</ele><time>2026-04-18T11:16:45.093Z</time></trkpt><trkpt lat="43.9499067" lon="11.9096933"><ele>279.0</ele><time>2026-04-18T11:16:46.093Z</time></trkpt><trkpt lat="43.950015" lon="11.9097233"><ele>278.75</ele><time>2026-04-18T11:16:47.093Z</time></trkpt><trkpt lat="43.95014" lon="11.9097567"><ele>278.5</ele><time>2026-04-18T11:16:48.093Z</time></trkpt><trkpt lat="43.9502883" lon="11.909785"><ele>278.25</ele><time>2026-04-18T11:16:49.093Z</time></trkpt><trkpt lat="43.9504267" lon="11.9098133"><ele>278.0</ele><time>2026-04-18T11:16:50.092Z</time></trkpt><trkpt lat="43.9505533" lon="11.9098467"><ele>278.0</ele><time>2026-04-18T11:16:51.093Z</time></trkpt><trkpt lat="43.95067" lon="11.9098783"><ele>278.0</ele><time>2026-04-18T11:16:52.093Z</time></trkpt><trkpt lat="43.95079" lon="11.9099083"><ele>278.0</ele><time>2026-04-18T11:16:53.093Z</time></trkpt><trkpt lat="43.950915" lon="11.9099417"><ele>278.0</ele><time>2026-04-18T11:16:54.093Z</time></trkpt><trkpt lat="43.951045" lon="11.9099783"><ele>277.75</ele><time>2026-04-18T11:16:55.093Z</time></trkpt><trkpt lat="43.9511833" lon="11.9100167"><ele>277.5</ele><time>2026-04-18T11:16:56.093Z</time></trkpt><trkpt lat="43.9513233" lon="11.9100483"><ele>277.25</ele><time>2026-04-18T11:16:57.093Z</time></trkpt><trkpt lat="43.9514517" lon="11.9100783"><ele>277.0</ele><time>2026-04-18T11:16:58.093Z</time></trkpt><trkpt lat="43.9515717" lon="11.910105"><ele>276.5</ele><time>2026-04-18T11:16:59.093Z</time></trkpt><trkpt lat="43.9516717" lon="11.9101367"><ele>276.0</ele><time>2026-04-18T11:17:00.093Z</time></trkpt><trkpt lat="43.951765" lon="11.9101567"><ele>275.5</ele><time>2026-04-18T11:17:01.093Z</time></trkpt><trkpt lat="43.9518517" lon="11.9101767"><ele>275.0</ele><time>2026-04-18T11:17:02.093Z</time></trkpt><trkpt lat="43.9519333" lon="11.9101967"><ele>274.5</ele><time>2026-04-18T11:17:03.092Z</time></trkpt><trkpt lat="43.95201" lon="11.9102167"><ele>274.0</ele><time>2026-04-18T11:17:04.092Z</time></trkpt><trkpt lat="43.952085" lon="11.9102367"><ele>274.0</ele><time>2026-04-18T11:17:05.093Z</time></trkpt><trkpt lat="43.9521467" lon="11.9102567"><ele>274.0</ele><time>2026-04-18T11:17:06.093Z</time></trkpt><trkpt lat="43.9522183" lon="11.9102933"><ele>274.0</ele><time>2026-04-18T11:17:07.093Z</time></trkpt><trkpt lat="43.9522883" lon="11.9103383"><ele>274.0</ele><time>2026-04-18T11:17:08.092Z</time></trkpt><trkpt lat="43.9523567" lon="11.9103717"><ele>274.0</ele><time>2026-04-18T11:17:09.093Z</time></trkpt><trkpt lat="43.9524433" lon="11.9103917"><ele>274.0</ele><time>2026-04-18T11:17:10.093Z</time></trkpt><trkpt lat="43.952555" lon="11.9103983"><ele>274.0</ele><time>2026-04-18T11:17:11.092Z</time></trkpt><trkpt lat="43.95267" lon="11.9104133"><ele>274.0</ele><time>2026-04-18T11:17:12.092Z</time></trkpt><trkpt lat="43.9527883" lon="11.9104283"><ele>274.0</ele><time>2026-04-18T11:17:13.093Z</time></trkpt><trkpt lat="43.95291" lon="11.9104583"><ele>274.0</ele><time>2026-04-18T11:17:14.093Z</time></trkpt><trkpt lat="43.95305" lon="11.9105"><ele>274.0</ele><time>2026-04-18T11:17:15.092Z</time></trkpt><trkpt lat="43.95322" lon="11.9105433"><ele>274.0</ele><time>2026-04-18T11:17:16.092Z</time></trkpt><trkpt lat="43.9533783" lon="11.9105917"><ele>274.0</ele><time>2026-04-18T11:17:17.093Z</time></trkpt><trkpt lat="43.9535233" lon="11.9106417"><ele>273.66666666666663</ele><time>2026-04-18T11:17:18.092Z</time></trkpt><trkpt lat="43.95369" lon="11.9106867"><ele>273.3333333333333</ele><time>2026-04-18T11:17:19.093Z</time></trkpt><trkpt lat="43.953865" lon="11.9107183"><ele>273.0</ele><time>2026-04-18T11:17:20.092Z</time></trkpt><trkpt lat="43.9540517" lon="11.9107583"><ele>272.0</ele><time>2026-04-18T11:17:21.092Z</time></trkpt><trkpt lat="43.95424" lon="11.9108"><ele>271.0</ele><time>2026-04-18T11:17:22.093Z</time></trkpt><trkpt lat="43.954425" lon="11.9108433"><ele>270.0</ele><time>2026-04-18T11:17:23.093Z</time></trkpt><trkpt lat="43.9546033" lon="11.9108933"><ele>268.3333333333333</ele><time>2026-04-18T11:17:24.092Z</time></trkpt><trkpt lat="43.9547683" lon="11.9109383"><ele>266.66666666666663</ele><time>2026-04-18T11:17:25.093Z</time></trkpt><trkpt lat="43.95493" lon="11.9109833"><ele>265.0</ele><time>2026-04-18T11:17:26.093Z</time></trkpt><trkpt lat="43.9550783" lon="11.9110383"><ele>265.0</ele><time>2026-04-18T11:17:27.093Z</time></trkpt><trkpt lat="43.95522" lon="11.9110733"><ele>265.0</ele><time>2026-04-18T11:17:28.092Z</time></trkpt><trkpt lat="43.9553533" lon="11.911115"><ele>265.0</ele><time>2026-04-18T11:17:29.093Z</time></trkpt><trkpt lat="43.9554867" lon="11.91116"><ele>265.0</ele><time>2026-04-18T11:17:30.093Z</time></trkpt><trkpt lat="43.9556017" lon="11.9111983"><ele>265.0</ele><time>2026-04-18T11:17:31.092Z</time></trkpt><trkpt lat="43.9557033" lon="11.9112267"><ele>265.0</ele><time>2026-04-18T11:17:32.093Z</time></trkpt><trkpt lat="43.9557917" lon="11.9112467"><ele>265.0</ele><time>2026-04-18T11:17:33.093Z</time></trkpt><trkpt lat="43.9558817" lon="11.91128"><ele>265.0</ele><time>2026-04-18T11:17:34.093Z</time></trkpt><trkpt lat="43.9559583" lon="11.9113033"><ele>265.0</ele><time>2026-04-18T11:17:35.093Z</time></trkpt><trkpt lat="43.9560717" lon="11.9113483"><ele>265.25</ele><time>2026-04-18T11:17:37.092Z</time></trkpt><trkpt lat="43.9561733" lon="11.9113833"><ele>265.5</ele><time>2026-04-18T11:17:39.093Z</time></trkpt><trkpt lat="43.956265" lon="11.9114083"><ele>265.75</ele><time>2026-04-18T11:17:41.093Z</time></trkpt><trkpt lat="43.9563767" lon="11.9114533"><ele>266.0</ele><time>2026-04-18T11:18:04.093Z</time></trkpt><trkpt lat="43.9565167" lon="11.911485"><ele>266.0</ele><time>2026-04-18T11:18:06.093Z</time></trkpt><trkpt lat="43.9566233" lon="11.9115067"><ele>266.0</ele><time>2026-04-18T11:18:07.093Z</time></trkpt><trkpt lat="43.9567467" lon="11.9115283"><ele>266.0</ele><time>2026-04-18T11:18:08.093Z</time></trkpt><trkpt lat="43.95686" lon="11.9115533"><ele>266.0</ele><time>2026-04-18T11:18:09.092Z</time></trkpt><trkpt lat="43.9569833" lon="11.911585"><ele>266.0</ele><time>2026-04-18T11:18:10.092Z</time></trkpt><trkpt lat="43.9571167" lon="11.9116083"><ele>266.0</ele><time>2026-04-18T11:18:11.092Z</time></trkpt><trkpt lat="43.957265" lon="11.91163"><ele>266.0</ele><time>2026-04-18T11:18:12.093Z</time></trkpt><trkpt lat="43.9574167" lon="11.91165"><ele>266.0</ele><time>2026-04-18T11:18:13.093Z</time></trkpt><trkpt lat="43.9575733" lon="11.911665"><ele>266.0</ele><time>2026-04-18T11:18:14.093Z</time></trkpt><trkpt lat="43.9577333" lon="11.9116667"><ele>266.0</ele><time>2026-04-18T11:18:15.093Z</time></trkpt><trkpt lat="43.9578833" lon="11.911655"><ele>266.0</ele><time>2026-04-18T11:18:16.093Z</time></trkpt><trkpt lat="43.9580467" lon="11.911625"><ele>266.0</ele><time>2026-04-18T11:18:17.093Z</time></trkpt><trkpt lat="43.9582217" lon="11.9115483"><ele>266.0</ele><time>2026-04-18T11:18:18.093Z</time></trkpt><trkpt lat="43.9584017" lon="11.9114733"><ele>266.0</ele><time>2026-04-18T11:18:19.093Z</time></trkpt><trkpt lat="43.9585817" lon="11.911405"><ele>264.33333333333337</ele><time>2026-04-18T11:18:20.092Z</time></trkpt><trkpt lat="43.958755" lon="11.9113733"><ele>262.6666666666667</ele><time>2026-04-18T11:18:21.093Z</time></trkpt><trkpt lat="43.9589367" lon="11.9113633"><ele>261.0</ele><time>2026-04-18T11:18:22.093Z</time></trkpt><trkpt lat="43.9591133" lon="11.9113633"><ele>260.0</ele><time>2026-04-18T11:18:23.093Z</time></trkpt><trkpt lat="43.9592767" lon="11.911395"><ele>259.0</ele><time>2026-04-18T11:18:24.092Z</time></trkpt><trkpt lat="43.9594433" lon="11.91142"><ele>258.0</ele><time>2026-04-18T11:18:25.092Z</time></trkpt><trkpt lat="43.9596083" lon="11.9114367"><ele>258.0</ele><time>2026-04-18T11:18:26.092Z</time></trkpt><trkpt lat="43.95979" lon="11.9114383"><ele>258.0</ele><time>2026-04-18T11:18:27.093Z</time></trkpt><trkpt lat="43.9599683" lon="11.9114083"><ele>258.0</ele><time>2026-04-18T11:18:28.093Z</time></trkpt><trkpt lat="43.9601267" lon="11.91134"><ele>256.3333333333333</ele><time>2026-04-18T11:18:29.093Z</time></trkpt><trkpt lat="43.96027" lon="11.9112417"><ele>254.66666666666666</ele><time>2026-04-18T11:18:30.093Z</time></trkpt><trkpt lat="43.960405" lon="11.911115"><ele>253.0</ele><time>2026-04-18T11:18:31.093Z</time></trkpt><trkpt lat="43.9605233" lon="11.910975"><ele>252.66666666666666</ele><time>2026-04-18T11:18:32.092Z</time></trkpt><trkpt lat="43.960645" lon="11.91083"><ele>252.33333333333331</ele><time>2026-04-18T11:18:33.093Z</time></trkpt><trkpt lat="43.9607667" lon="11.9106683"><ele>252.0</ele><time>2026-04-18T11:18:34.092Z</time></trkpt><trkpt lat="43.9608717" lon="11.91054"><ele>252.0</ele><time>2026-04-18T11:18:35.093Z</time></trkpt><trkpt lat="43.960975" lon="11.910425"><ele>252.0</ele><time>2026-04-18T11:18:36.093Z</time></trkpt><trkpt lat="43.9610733" lon="11.9103067"><ele>252.0</ele><time>2026-04-18T11:18:37.093Z</time></trkpt><trkpt lat="43.9611767" lon="11.910185"><ele>252.0</ele><time>2026-04-18T11:18:38.093Z</time></trkpt><trkpt lat="43.961285" lon="11.9100517"><ele>254.0</ele><time>2026-04-18T11:18:39.093Z</time></trkpt><trkpt lat="43.961385" lon="11.9099083"><ele>256.0</ele><time>2026-04-18T11:18:40.093Z</time></trkpt><trkpt lat="43.9614917" lon="11.9097683"><ele>258.0</ele><time>2026-04-18T11:18:41.092Z</time></trkpt><trkpt lat="43.9615883" lon="11.9096333"><ele>260.0</ele><time>2026-04-18T11:18:42.093Z</time></trkpt><trkpt lat="43.96169" lon="11.9095083"><ele>261.25</ele><time>2026-04-18T11:18:43.093Z</time></trkpt><trkpt lat="43.9617933" lon="11.90939"><ele>262.5</ele><time>2026-04-18T11:18:44.093Z</time></trkpt><trkpt lat="43.9619017" lon="11.90928"><ele>263.75</ele><time>2026-04-18T11:18:45.093Z</time></trkpt><trkpt lat="43.9620133" lon="11.90916"><ele>265.0</ele><time>2026-04-18T11:18:46.093Z</time></trkpt><trkpt lat="43.96213" lon="11.9090617"><ele>265.0</ele><time>2026-04-18T11:18:47.093Z</time></trkpt><trkpt lat="43.9622583" lon="11.9089683"><ele>265.0</ele><time>2026-04-18T11:18:48.093Z</time></trkpt><trkpt lat="43.962385" lon="11.9088917"><ele>265.0</ele><time>2026-04-18T11:18:49.093Z</time></trkpt><trkpt lat="43.9625133" lon="11.9088267"><ele>265.0</ele><time>2026-04-18T11:18:50.093Z</time></trkpt><trkpt lat="43.9626433" lon="11.9087617"><ele>263.75</ele><time>2026-04-18T11:18:51.093Z</time></trkpt><trkpt lat="43.9627783" lon="11.9087233"><ele>262.5</ele><time>2026-04-18T11:18:52.093Z</time></trkpt><trkpt lat="43.9629183" lon="11.9087283"><ele>261.25</ele><time>2026-04-18T11:18:53.093Z</time></trkpt><trkpt lat="43.96306" lon="11.9087567"><ele>260.0</ele><time>2026-04-18T11:18:54.093Z</time></trkpt><trkpt lat="43.963195" lon="11.9088183"><ele>260.0</ele><time>2026-04-18T11:18:55.093Z</time></trkpt><trkpt lat="43.963325" lon="11.9088883"><ele>260.0</ele><time>2026-04-18T11:18:56.093Z</time></trkpt><trkpt lat="43.96346" lon="11.9089517"><ele>260.0</ele><time>2026-04-18T11:18:57.093Z</time></trkpt><trkpt lat="43.9636033" lon="11.908995"><ele>260.0</ele><time>2026-04-18T11:18:58.093Z</time></trkpt><trkpt lat="43.9637483" lon="11.9090233"><ele>260.0</ele><time>2026-04-18T11:18:59.093Z</time></trkpt><trkpt lat="43.963885" lon="11.90904"><ele>260.0</ele><time>2026-04-18T11:19:00.093Z</time></trkpt><trkpt lat="43.96402" lon="11.9090467"><ele>260.0</ele><time>2026-04-18T11:19:01.093Z</time></trkpt><trkpt lat="43.9641533" lon="11.9090417"><ele>260.0</ele><time>2026-04-18T11:19:02.093Z</time></trkpt><trkpt lat="43.964285" lon="11.909035"><ele>260.0</ele><time>2026-04-18T11:19:03.093Z</time></trkpt><trkpt lat="43.9644233" lon="11.9090283"><ele>260.0</ele><time>2026-04-18T11:19:04.093Z</time></trkpt><trkpt lat="43.9645617" lon="11.9090367"><ele>260.0</ele><time>2026-04-18T11:19:05.093Z</time></trkpt><trkpt lat="43.9647" lon="11.9090733"><ele>260.0</ele><time>2026-04-18T11:19:06.093Z</time></trkpt><trkpt lat="43.9648467" lon="11.9091217"><ele>260.0</ele><time>2026-04-18T11:19:07.093Z</time></trkpt><trkpt lat="43.96499" lon="11.9091517"><ele>260.0</ele><time>2026-04-18T11:19:08.092Z</time></trkpt><trkpt lat="43.9651333" lon="11.9092033"><ele>260.0</ele><time>2026-04-18T11:19:09.093Z</time></trkpt><trkpt lat="43.96528" lon="11.9092367"><ele>260.0</ele><time>2026-04-18T11:19:10.092Z</time></trkpt><trkpt lat="43.9654233" lon="11.9092733"><ele>259.75</ele><time>2026-04-18T11:19:11.093Z</time></trkpt><trkpt lat="43.96556" lon="11.9093083"><ele>259.5</ele><time>2026-04-18T11:19:12.093Z</time></trkpt><trkpt lat="43.9656917" lon="11.90935"><ele>259.25</ele><time>2026-04-18T11:19:13.093Z</time></trkpt><trkpt lat="43.9658217" lon="11.9093933"><ele>259.0</ele><time>2026-04-18T11:19:14.093Z</time></trkpt><trkpt lat="43.9659483" lon="11.9094233"><ele>259.0</ele><time>2026-04-18T11:19:15.093Z</time></trkpt><trkpt lat="43.966075" lon="11.9094283"><ele>259.0</ele><time>2026-04-18T11:19:16.093Z</time></trkpt><trkpt lat="43.9661917" lon="11.90942"><ele>259.0</ele><time>2026-04-18T11:19:17.093Z</time></trkpt><trkpt lat="43.966305" lon="11.9093617"><ele>259.0</ele><time>2026-04-18T11:19:18.093Z</time></trkpt><trkpt lat="43.9664217" lon="11.9092683"><ele>259.0</ele><time>2026-04-18T11:19:19.092Z</time></trkpt><trkpt lat="43.966535" lon="11.9091767"><ele>259.0</ele><time>2026-04-18T11:19:20.093Z</time></trkpt><trkpt lat="43.9666617" lon="11.9090783"><ele>259.0</ele><time>2026-04-18T11:19:21.093Z</time></trkpt><trkpt lat="43.9667817" lon="11.90899"><ele>259.0</ele><time>2026-04-18T11:19:22.093Z</time></trkpt><trkpt lat="43.9669067" lon="11.90889"><ele>259.0</ele><time>2026-04-18T11:19:23.093Z</time></trkpt><trkpt lat="43.967025" lon="11.9087883"><ele>259.0</ele><time>2026-04-18T11:19:24.092Z</time></trkpt><trkpt lat="43.9671433" lon="11.90869"><ele>259.0</ele><time>2026-04-18T11:19:25.092Z</time></trkpt><trkpt lat="43.9672617" lon="11.908585"><ele>259.0</ele><time>2026-04-18T11:19:26.093Z</time></trkpt><trkpt lat="43.9673767" lon="11.9084783"><ele>260.75</ele><time>2026-04-18T11:19:27.093Z</time></trkpt><trkpt lat="43.9674917" lon="11.9083783"><ele>262.5</ele><time>2026-04-18T11:19:28.093Z</time></trkpt><trkpt lat="43.9676" lon="11.9082767"><ele>264.25</ele><time>2026-04-18T11:19:29.093Z</time></trkpt><trkpt lat="43.967715" lon="11.90819"><ele>266.0</ele><time>2026-04-18T11:19:30.092Z</time></trkpt><trkpt lat="43.9678283" lon="11.908135"><ele>266.0</ele><time>2026-04-18T11:19:31.093Z</time></trkpt><trkpt lat="43.967955" lon="11.9081017"><ele>266.0</ele><time>2026-04-18T11:19:32.093Z</time></trkpt><trkpt lat="43.96809" lon="11.9080983"><ele>266.0</ele><time>2026-04-18T11:19:33.093Z</time></trkpt><trkpt lat="43.9682217" lon="11.90811"><ele>266.0</ele><time>2026-04-18T11:19:34.093Z</time></trkpt><trkpt lat="43.96835" lon="11.9080967"><ele>264.25</ele><time>2026-04-18T11:19:35.093Z</time></trkpt><trkpt lat="43.9684767" lon="11.90806"><ele>262.5</ele><time>2026-04-18T11:19:36.093Z</time></trkpt><trkpt lat="43.968615" lon="11.9080083"><ele>260.75</ele><time>2026-04-18T11:19:37.092Z</time></trkpt><trkpt lat="43.9687517" lon="11.90796"><ele>259.0</ele><time>2026-04-18T11:19:38.093Z</time></trkpt><trkpt lat="43.96889" lon="11.9078967"><ele>259.0</ele><time>2026-04-18T11:19:39.093Z</time></trkpt><trkpt lat="43.969025" lon="11.9078533"><ele>259.0</ele><time>2026-04-18T11:19:40.093Z</time></trkpt><trkpt lat="43.9691617" lon="11.9077983"><ele>259.0</ele><time>2026-04-18T11:19:41.093Z</time></trkpt><trkpt lat="43.9692967" lon="11.907735"><ele>259.0</ele><time>2026-04-18T11:19:42.093Z</time></trkpt><trkpt lat="43.9694283" lon="11.907675"><ele>259.25</ele><time>2026-04-18T11:19:43.093Z</time></trkpt><trkpt lat="43.9695667" lon="11.9076033"><ele>259.5</ele><time>2026-04-18T11:19:44.093Z</time></trkpt><trkpt lat="43.9696967" lon="11.9075367"><ele>259.75</ele><time>2026-04-18T11:19:45.093Z</time></trkpt><trkpt lat="43.9698283" lon="11.9074417"><ele>260.0</ele><time>2026-04-18T11:19:46.093Z</time></trkpt><trkpt lat="43.9699633" lon="11.90734"><ele>258.0</ele><time>2026-04-18T11:19:47.093Z</time></trkpt><trkpt lat="43.9700983" lon="11.9072783"><ele>256.0</ele><time>2026-04-18T11:19:48.093Z</time></trkpt><trkpt lat="43.970245" lon="11.9072067"><ele>254.0</ele><time>2026-04-18T11:19:49.093Z</time></trkpt><trkpt lat="43.9703917" lon="11.9071483"><ele>254.0</ele><time>2026-04-18T11:19:50.093Z</time></trkpt><trkpt lat="43.9705383" lon="11.9071117"><ele>254.0</ele><time>2026-04-18T11:19:51.093Z</time></trkpt><trkpt lat="43.97068" lon="11.9070867"><ele>254.0</ele><time>2026-04-18T11:19:52.092Z</time></trkpt><trkpt lat="43.9708267" lon="11.90708"><ele>254.0</ele><time>2026-04-18T11:19:53.093Z</time></trkpt><trkpt lat="43.9709767" lon="11.907075"><ele>252.33333333333334</ele><time>2026-04-18T11:19:54.092Z</time></trkpt><trkpt lat="43.9711283" lon="11.9070733"><ele>250.66666666666669</ele><time>2026-04-18T11:19:55.093Z</time></trkpt><trkpt lat="43.9712833" lon="11.9070733"><ele>249.0</ele><time>2026-04-18T11:19:56.093Z</time></trkpt><trkpt lat="43.9714417" lon="11.907065"><ele>249.0</ele><time>2026-04-18T11:19:57.092Z</time></trkpt><trkpt lat="43.971595" lon="11.9070317"><ele>249.0</ele><time>2026-04-18T11:19:58.093Z</time></trkpt><trkpt lat="43.971745" lon="11.906985"><ele>249.0</ele><time>2026-04-18T11:19:59.092Z</time></trkpt><trkpt lat="43.9718917" lon="11.9069217"><ele>247.75</ele><time>2026-04-18T11:20:00.093Z</time></trkpt><trkpt lat="43.97203" lon="11.9068217"><ele>246.5</ele><time>2026-04-18T11:20:01.093Z</time></trkpt><trkpt lat="43.9721533" lon="11.9067133"><ele>245.25</ele><time>2026-04-18T11:20:02.092Z</time></trkpt><trkpt lat="43.9722683" lon="11.9065933"><ele>244.0</ele><time>2026-04-18T11:20:03.093Z</time></trkpt><trkpt lat="43.97239" lon="11.9064533"><ele>244.25</ele><time>2026-04-18T11:20:04.092Z</time></trkpt><trkpt lat="43.97251" lon="11.9063333"><ele>244.5</ele><time>2026-04-18T11:20:05.092Z</time></trkpt><trkpt lat="43.9726333" lon="11.9062167"><ele>244.75</ele><time>2026-04-18T11:20:06.093Z</time></trkpt><trkpt lat="43.972745" lon="11.9060883"><ele>245.0</ele><time>2026-04-18T11:20:07.092Z</time></trkpt><trkpt lat="43.9728617" lon="11.9059767"><ele>247.0</ele><time>2026-04-18T11:20:08.093Z</time></trkpt><trkpt lat="43.9729833" lon="11.9058617"><ele>249.0</ele><time>2026-04-18T11:20:09.093Z</time></trkpt><trkpt lat="43.9731067" lon="11.9057533"><ele>251.0</ele><time>2026-04-18T11:20:10.093Z</time></trkpt><trkpt lat="43.973235" lon="11.9056383"><ele>253.0</ele><time>2026-04-18T11:20:11.093Z</time></trkpt><trkpt lat="43.9733733" lon="11.9055433"><ele>253.0</ele><time>2026-04-18T11:20:12.093Z</time></trkpt><trkpt lat="43.9735117" lon="11.9054567"><ele>253.0</ele><time>2026-04-18T11:20:13.092Z</time></trkpt><trkpt lat="43.97365" lon="11.9053733"><ele>253.0</ele><time>2026-04-18T11:20:14.092Z</time></trkpt><trkpt lat="43.9737967" lon="11.9052867"><ele>253.0</ele><time>2026-04-18T11:20:15.093Z</time></trkpt><trkpt lat="43.973945" lon="11.9052017"><ele>253.0</ele><time>2026-04-18T11:20:16.093Z</time></trkpt><trkpt lat="43.9740833" lon="11.9051133"><ele>253.0</ele><time>2026-04-18T11:20:17.093Z</time></trkpt><trkpt lat="43.9742217" lon="11.905025"><ele>256.3333333333333</ele><time>2026-04-18T11:20:18.093Z</time></trkpt><trkpt lat="43.9743633" lon="11.904935"><ele>259.6666666666667</ele><time>2026-04-18T11:20:19.094Z</time></trkpt><trkpt lat="43.9745" lon="11.9048517"><ele>263.0</ele><time>2026-04-18T11:20:20.093Z</time></trkpt><trkpt lat="43.97464" lon="11.9047767"><ele>263.0</ele><time>2026-04-18T11:20:21.094Z</time></trkpt><trkpt lat="43.9747833" lon="11.9047017"><ele>263.0</ele><time>2026-04-18T11:20:22.094Z</time></trkpt><trkpt lat="43.9749333" lon="11.9046417"><ele>263.0</ele><time>2026-04-18T11:20:23.093Z</time></trkpt><trkpt lat="43.9750767" lon="11.9045867"><ele>262.5</ele><time>2026-04-18T11:20:24.094Z</time></trkpt><trkpt lat="43.97522" lon="11.90455"><ele>262.0</ele><time>2026-04-18T11:20:25.093Z</time></trkpt><trkpt lat="43.9753617" lon="11.9045117"><ele>261.5</ele><time>2026-04-18T11:20:26.094Z</time></trkpt><trkpt lat="43.9754967" lon="11.9044733"><ele>261.0</ele><time>2026-04-18T11:20:27.094Z</time></trkpt><trkpt lat="43.97564" lon="11.9044333"><ele>261.0</ele><time>2026-04-18T11:20:28.094Z</time></trkpt><trkpt lat="43.97578" lon="11.9043933"><ele>261.0</ele><time>2026-04-18T11:20:29.094Z</time></trkpt><trkpt lat="43.9759267" lon="11.90435"><ele>261.0</ele><time>2026-04-18T11:20:30.094Z</time></trkpt><trkpt lat="43.9760717" lon="11.90431"><ele>261.0</ele><time>2026-04-18T11:20:31.094Z</time></trkpt><trkpt lat="43.9762183" lon="11.9042617"><ele>263.0</ele><time>2026-04-18T11:20:32.094Z</time></trkpt><trkpt lat="43.9763717" lon="11.9042117"><ele>265.0</ele><time>2026-04-18T11:20:33.093Z</time></trkpt><trkpt lat="43.9765217" lon="11.9041617"><ele>267.0</ele><time>2026-04-18T11:20:34.094Z</time></trkpt><trkpt lat="43.9766867" lon="11.90412"><ele>267.0</ele><time>2026-04-18T11:20:35.094Z</time></trkpt><trkpt lat="43.976865" lon="11.9040683"><ele>267.0</ele><time>2026-04-18T11:20:36.093Z</time></trkpt><trkpt lat="43.9770517" lon="11.90402"><ele>267.0</ele><time>2026-04-18T11:20:37.094Z</time></trkpt><trkpt lat="43.977245" lon="11.9039667"><ele>267.0</ele><time>2026-04-18T11:20:38.094Z</time></trkpt><trkpt lat="43.9774417" lon="11.90391"><ele>267.0</ele><time>2026-04-18T11:20:39.094Z</time></trkpt><trkpt lat="43.9776367" lon="11.903845"><ele>267.0</ele><time>2026-04-18T11:20:40.094Z</time></trkpt><trkpt lat="43.9778233" lon="11.9037917"><ele>267.3333333333333</ele><time>2026-04-18T11:20:41.094Z</time></trkpt><trkpt lat="43.9780033" lon="11.9037433"><ele>267.66666666666663</ele><time>2026-04-18T11:20:42.094Z</time></trkpt><trkpt lat="43.9781783" lon="11.90369"><ele>268.0</ele><time>2026-04-18T11:20:43.093Z</time></trkpt><trkpt lat="43.9783417" lon="11.9036833"><ele>269.66666666666663</ele><time>2026-04-18T11:20:44.094Z</time></trkpt><trkpt lat="43.9784983" lon="11.9036983"><ele>271.3333333333333</ele><time>2026-04-18T11:20:45.094Z</time></trkpt><trkpt lat="43.9786483" lon="11.90377"><ele>273.0</ele><time>2026-04-18T11:20:46.094Z</time></trkpt><trkpt lat="43.9788033" lon="11.9038367"><ele>273.0</ele><time>2026-04-18T11:20:47.094Z</time></trkpt><trkpt lat="43.978935" lon="11.9039117"><ele>273.0</ele><time>2026-04-18T11:20:48.094Z</time></trkpt><trkpt lat="43.9790567" lon="11.9039833"><ele>273.0</ele><time>2026-04-18T11:20:49.094Z</time></trkpt><trkpt lat="43.9791883" lon="11.9040417"><ele>273.0</ele><time>2026-04-18T11:20:50.094Z</time></trkpt><trkpt lat="43.9793167" lon="11.90412"><ele>275.5</ele><time>2026-04-18T11:20:51.094Z</time></trkpt><trkpt lat="43.9794583" lon="11.904175"><ele>278.0</ele><time>2026-04-18T11:20:52.094Z</time></trkpt><trkpt lat="43.9795933" lon="11.9042183"><ele>280.5</ele><time>2026-04-18T11:20:53.093Z</time></trkpt><trkpt lat="43.9797267" lon="11.9042417"><ele>283.0</ele><time>2026-04-18T11:20:54.094Z</time></trkpt><trkpt lat="43.97986" lon="11.90426"><ele>281.25</ele><time>2026-04-18T11:20:55.094Z</time></trkpt><trkpt lat="43.9799917" lon="11.9042817"><ele>279.5</ele><time>2026-04-18T11:20:56.094Z</time></trkpt><trkpt lat="43.9801283" lon="11.9042717"><ele>277.75</ele><time>2026-04-18T11:20:57.094Z</time></trkpt><trkpt lat="43.9802567" lon="11.904235"><ele>276.0</ele><time>2026-04-18T11:20:58.094Z</time></trkpt><trkpt lat="43.980375" lon="11.9041683"><ele>276.0</ele><time>2026-04-18T11:20:59.093Z</time></trkpt><trkpt lat="43.98049" lon="11.9040833"><ele>276.0</ele><time>2026-04-18T11:21:00.094Z</time></trkpt><trkpt lat="43.980615" lon="11.9039933"><ele>276.0</ele><time>2026-04-18T11:21:01.093Z</time></trkpt><trkpt lat="43.9807383" lon="11.9039167"><ele>276.0</ele><time>2026-04-18T11:21:02.093Z</time></trkpt><trkpt lat="43.980875" lon="11.903855"><ele>276.75</ele><time>2026-04-18T11:21:03.094Z</time></trkpt><trkpt lat="43.9810183" lon="11.9038333"><ele>277.5</ele><time>2026-04-18T11:21:04.093Z</time></trkpt><trkpt lat="43.9811583" lon="11.9038633"><ele>278.25</ele><time>2026-04-18T11:21:05.094Z</time></trkpt><trkpt lat="43.9812967" lon="11.903905"><ele>279.0</ele><time>2026-04-18T11:21:06.094Z</time></trkpt><trkpt lat="43.9814283" lon="11.90396"><ele>279.0</ele><time>2026-04-18T11:21:07.094Z</time></trkpt><trkpt lat="43.9815583" lon="11.904005"><ele>279.0</ele><time>2026-04-18T11:21:08.094Z</time></trkpt><trkpt lat="43.9816867" lon="11.9040633"><ele>279.0</ele><time>2026-04-18T11:21:09.093Z</time></trkpt><trkpt lat="43.9818067" lon="11.9041267"><ele>279.0</ele><time>2026-04-18T11:21:10.094Z</time></trkpt><trkpt lat="43.9819317" lon="11.9042183"><ele>276.5</ele><time>2026-04-18T11:21:11.094Z</time></trkpt><trkpt lat="43.98205" lon="11.9043167"><ele>274.0</ele><time>2026-04-18T11:21:12.094Z</time></trkpt><trkpt lat="43.9821683" lon="11.9044117"><ele>271.5</ele><time>2026-04-18T11:21:13.094Z</time></trkpt><trkpt lat="43.9822933" lon="11.9044983"><ele>269.0</ele><time>2026-04-18T11:21:14.094Z</time></trkpt><trkpt lat="43.9824083" lon="11.90458"><ele>277.5</ele><time>2026-04-18T11:21:15.094Z</time></trkpt><trkpt lat="43.9825217" lon="11.90467"><ele>286.0</ele><time>2026-04-18T11:21:16.094Z</time></trkpt><trkpt lat="43.98263" lon="11.9047533"><ele>294.5</ele><time>2026-04-18T11:21:17.094Z</time></trkpt><trkpt lat="43.98274" lon="11.9048533"><ele>303.0</ele><time>2026-04-18T11:21:18.094Z</time></trkpt><trkpt lat="43.9828567" lon="11.9049533"><ele>303.0</ele><time>2026-04-18T11:21:19.094Z</time></trkpt><trkpt lat="43.9829833" lon="11.9050533"><ele>303.0</ele><time>2026-04-18T11:21:20.093Z</time></trkpt><trkpt lat="43.9831067" lon="11.9051683"><ele>303.0</ele><time>2026-04-18T11:21:21.094Z</time></trkpt><trkpt lat="43.9832183" lon="11.9052983"><ele>303.0</ele><time>2026-04-18T11:21:22.094Z</time></trkpt><trkpt lat="43.9833217" lon="11.9054367"><ele>295.5</ele><time>2026-04-18T11:21:23.094Z</time></trkpt><trkpt lat="43.9834167" lon="11.9055783"><ele>288.0</ele><time>2026-04-18T11:21:24.094Z</time></trkpt><trkpt lat="43.9835217" lon="11.9056983"><ele>280.5</ele><time>2026-04-18T11:21:25.094Z</time></trkpt><trkpt lat="43.9836433" lon="11.9058167"><ele>273.0</ele><time>2026-04-18T11:21:26.093Z</time></trkpt><trkpt lat="43.9837683" lon="11.9059217"><ele>269.0</ele><time>2026-04-18T11:21:27.094Z</time></trkpt><trkpt lat="43.9839033" lon="11.9060083"><ele>265.0</ele><time>2026-04-18T11:21:28.093Z</time></trkpt><trkpt lat="43.9840567" lon="11.906075"><ele>261.0</ele><time>2026-04-18T11:21:29.094Z</time></trkpt><trkpt lat="43.9842133" lon="11.9061317"><ele>261.0</ele><time>2026-04-18T11:21:30.094Z</time></trkpt><trkpt lat="43.98437" lon="11.90618"><ele>261.0</ele><time>2026-04-18T11:21:31.094Z</time></trkpt><trkpt lat="43.9845183" lon="11.906205"><ele>261.0</ele><time>2026-04-18T11:21:32.094Z</time></trkpt><trkpt lat="43.9846683" lon="11.9062283"><ele>261.0</ele><time>2026-04-18T11:21:33.094Z</time></trkpt><trkpt lat="43.9848167" lon="11.906255"><ele>261.0</ele><time>2026-04-18T11:21:34.093Z</time></trkpt><trkpt lat="43.9849517" lon="11.90628"><ele>261.0</ele><time>2026-04-18T11:21:35.094Z</time></trkpt><trkpt lat="43.9851" lon="11.906315"><ele>261.0</ele><time>2026-04-18T11:21:36.094Z</time></trkpt><trkpt lat="43.98524" lon="11.9063417"><ele>261.5</ele><time>2026-04-18T11:21:37.094Z</time></trkpt><trkpt lat="43.985385" lon="11.9063667"><ele>262.0</ele><time>2026-04-18T11:21:38.094Z</time></trkpt><trkpt lat="43.9855317" lon="11.906395"><ele>262.5</ele><time>2026-04-18T11:21:39.094Z</time></trkpt><trkpt lat="43.9856817" lon="11.9064133"><ele>263.0</ele><time>2026-04-18T11:21:40.094Z</time></trkpt><trkpt lat="43.9858383" lon="11.90644"><ele>262.25</ele><time>2026-04-18T11:21:41.094Z</time></trkpt><trkpt lat="43.9859833" lon="11.9064617"><ele>261.5</ele><time>2026-04-18T11:21:42.094Z</time></trkpt><trkpt lat="43.9861167" lon="11.9064767"><ele>260.75</ele><time>2026-04-18T11:21:43.094Z</time></trkpt><trkpt lat="43.9862583" lon="11.9064883"><ele>260.0</ele><time>2026-04-18T11:21:44.094Z</time></trkpt><trkpt lat="43.9863817" lon="11.906495"><ele>260.0</ele><time>2026-04-18T11:21:45.094Z</time></trkpt><trkpt lat="43.9865" lon="11.906505"><ele>260.0</ele><time>2026-04-18T11:21:46.094Z</time></trkpt><trkpt lat="43.98662" lon="11.906525"><ele>260.0</ele><time>2026-04-18T11:21:47.093Z</time></trkpt><trkpt lat="43.986735" lon="11.9065633"><ele>260.0</ele><time>2026-04-18T11:21:48.094Z</time></trkpt><trkpt lat="43.9868517" lon="11.9066267"><ele>260.25</ele><time>2026-04-18T11:21:49.094Z</time></trkpt><trkpt lat="43.986965" lon="11.906705"><ele>260.5</ele><time>2026-04-18T11:21:50.093Z</time></trkpt><trkpt lat="43.98707" lon="11.9067867"><ele>260.75</ele><time>2026-04-18T11:21:51.094Z</time></trkpt><trkpt lat="43.9871733" lon="11.906865"><ele>261.0</ele><time>2026-04-18T11:21:52.093Z</time></trkpt><trkpt lat="43.9872633" lon="11.9069333"><ele>259.8</ele><time>2026-04-18T11:21:53.093Z</time></trkpt><trkpt lat="43.9873517" lon="11.906985"><ele>258.6</ele><time>2026-04-18T11:21:54.094Z</time></trkpt><trkpt lat="43.98744" lon="11.9069933"><ele>257.4</ele><time>2026-04-18T11:21:55.094Z</time></trkpt><trkpt lat="43.9875367" lon="11.906955"><ele>256.2</ele><time>2026-04-18T11:21:56.094Z</time></trkpt><trkpt lat="43.9876367" lon="11.9068917"><ele>255.0</ele><time>2026-04-18T11:21:57.094Z</time></trkpt><trkpt lat="43.987745" lon="11.90682"><ele>255.0</ele><time>2026-04-18T11:21:58.093Z</time></trkpt><trkpt lat="43.9878633" lon="11.9067667"><ele>255.0</ele><time>2026-04-18T11:21:59.094Z</time></trkpt><trkpt lat="43.987995" lon="11.9067433"><ele>255.0</ele><time>2026-04-18T11:22:00.094Z</time></trkpt><trkpt lat="43.9881583" lon="11.9067317"><ele>255.0</ele><time>2026-04-18T11:22:01.094Z</time></trkpt><trkpt lat="43.9883317" lon="11.9067467"><ele>254.5</ele><time>2026-04-18T11:22:02.094Z</time></trkpt><trkpt lat="43.988475" lon="11.90678"><ele>254.0</ele><time>2026-04-18T11:22:03.094Z</time></trkpt><trkpt lat="43.988615" lon="11.9068117"><ele>253.5</ele><time>2026-04-18T11:22:04.094Z</time></trkpt><trkpt lat="43.9887533" lon="11.9068367"><ele>253.0</ele><time>2026-04-18T11:22:05.094Z</time></trkpt><trkpt lat="43.98889" lon="11.9068533"><ele>253.0</ele><time>2026-04-18T11:22:06.094Z</time></trkpt><trkpt lat="43.9890267" lon="11.9068667"><ele>253.0</ele><time>2026-04-18T11:22:07.094Z</time></trkpt><trkpt lat="43.9891517" lon="11.9068883"><ele>253.0</ele><time>2026-04-18T11:22:08.094Z</time></trkpt><trkpt lat="43.9892883" lon="11.906905"><ele>253.0</ele><time>2026-04-18T11:22:09.094Z</time></trkpt><trkpt lat="43.98943" lon="11.906915"><ele>253.5</ele><time>2026-04-18T11:22:10.094Z</time></trkpt><trkpt lat="43.9895633" lon="11.9069217"><ele>254.0</ele><time>2026-04-18T11:22:11.094Z</time></trkpt><trkpt lat="43.9896967" lon="11.9069333"><ele>254.5</ele><time>2026-04-18T11:22:12.094Z</time></trkpt><trkpt lat="43.9898383" lon="11.90693"><ele>255.0</ele><time>2026-04-18T11:22:13.094Z</time></trkpt><trkpt lat="43.989975" lon="11.9069233"><ele>254.0</ele><time>2026-04-18T11:22:14.094Z</time></trkpt><trkpt lat="43.9901133" lon="11.9069233"><ele>253.0</ele><time>2026-04-18T11:22:15.094Z</time></trkpt><trkpt lat="43.990255" lon="11.9069233"><ele>252.0</ele><time>2026-04-18T11:22:16.094Z</time></trkpt><trkpt lat="43.9904017" lon="11.9069283"><ele>251.0</ele><time>2026-04-18T11:22:17.093Z</time></trkpt><trkpt lat="43.990545" lon="11.9069217"><ele>251.0</ele><time>2026-04-18T11:22:18.093Z</time></trkpt><trkpt lat="43.9906867" lon="11.9069333"><ele>251.0</ele><time>2026-04-18T11:22:19.094Z</time></trkpt><trkpt lat="43.9908233" lon="11.90694"><ele>251.0</ele><time>2026-04-18T11:22:20.094Z</time></trkpt><trkpt lat="43.9909683" lon="11.9069417"><ele>251.0</ele><time>2026-04-18T11:22:21.093Z</time></trkpt><trkpt lat="43.9911017" lon="11.9069333"><ele>250.25</ele><time>2026-04-18T11:22:22.094Z</time></trkpt><trkpt lat="43.9912367" lon="11.9069417"><ele>249.5</ele><time>2026-04-18T11:22:23.094Z</time></trkpt><trkpt lat="43.9913783" lon="11.9069467"><ele>248.75</ele><time>2026-04-18T11:22:24.094Z</time></trkpt><trkpt lat="43.99153" lon="11.9069567"><ele>248.0</ele><time>2026-04-18T11:22:25.093Z</time></trkpt><trkpt lat="43.9916833" lon="11.90698"><ele>248.0</ele><time>2026-04-18T11:22:26.094Z</time></trkpt><trkpt lat="43.991835" lon="11.90703"><ele>248.0</ele><time>2026-04-18T11:22:27.094Z</time></trkpt><trkpt lat="43.9919833" lon="11.9070867"><ele>248.0</ele><time>2026-04-18T11:22:28.094Z</time></trkpt><trkpt lat="43.992125" lon="11.9071517"><ele>248.0</ele><time>2026-04-18T11:22:29.094Z</time></trkpt><trkpt lat="43.9922683" lon="11.90722"><ele>248.0</ele><time>2026-04-18T11:22:30.094Z</time></trkpt><trkpt lat="43.992405" lon="11.907285"><ele>248.0</ele><time>2026-04-18T11:22:31.093Z</time></trkpt><trkpt lat="43.9925283" lon="11.9073367"><ele>248.0</ele><time>2026-04-18T11:22:32.094Z</time></trkpt><trkpt lat="43.9926567" lon="11.9074067"><ele>248.5</ele><time>2026-04-18T11:22:33.094Z</time></trkpt><trkpt lat="43.9927883" lon="11.907485"><ele>249.0</ele><time>2026-04-18T11:22:34.094Z</time></trkpt><trkpt lat="43.9929183" lon="11.90756"><ele>249.5</ele><time>2026-04-18T11:22:35.094Z</time></trkpt><trkpt lat="43.9930567" lon="11.9076333"><ele>250.0</ele><time>2026-04-18T11:22:36.094Z</time></trkpt><trkpt lat="43.993195" lon="11.9076967"><ele>248.0</ele><time>2026-04-18T11:22:37.094Z</time></trkpt><trkpt lat="43.99333" lon="11.907775"><ele>246.0</ele><time>2026-04-18T11:22:38.094Z</time></trkpt><trkpt lat="43.9934633" lon="11.9078433"><ele>244.0</ele><time>2026-04-18T11:22:39.094Z</time></trkpt><trkpt lat="43.9935933" lon="11.90791"><ele>242.0</ele><time>2026-04-18T11:22:40.094Z</time></trkpt><trkpt lat="43.9937217" lon="11.9079783"><ele>242.0</ele><time>2026-04-18T11:22:41.094Z</time></trkpt><trkpt lat="43.9938483" lon="11.90805"><ele>242.0</ele><time>2026-04-18T11:22:42.093Z</time></trkpt><trkpt lat="43.9939733" lon="11.9081217"><ele>242.0</ele><time>2026-04-18T11:22:43.094Z</time></trkpt><trkpt lat="43.9940983" lon="11.9081933"><ele>242.0</ele><time>2026-04-18T11:22:44.094Z</time></trkpt><trkpt lat="43.9942233" lon="11.9082683"><ele>241.75</ele><time>2026-04-18T11:22:45.094Z</time></trkpt><trkpt lat="43.994345" lon="11.9083467"><ele>241.5</ele><time>2026-04-18T11:22:46.093Z</time></trkpt><trkpt lat="43.9944667" lon="11.9084367"><ele>241.25</ele><time>2026-04-18T11:22:47.094Z</time></trkpt><trkpt lat="43.9945817" lon="11.9085267"><ele>241.0</ele><time>2026-04-18T11:22:48.094Z</time></trkpt><trkpt lat="43.9946967" lon="11.9086267"><ele>240.75</ele><time>2026-04-18T11:22:49.094Z</time></trkpt><trkpt lat="43.9948083" lon="11.9087333"><ele>240.5</ele><time>2026-04-18T11:22:50.093Z</time></trkpt><trkpt lat="43.9949283" lon="11.9088367"><ele>240.25</ele><time>2026-04-18T11:22:51.094Z</time></trkpt><trkpt lat="43.9950367" lon="11.9089283"><ele>240.0</ele><time>2026-04-18T11:22:52.094Z</time></trkpt><trkpt lat="43.99516" lon="11.9090333"><ele>240.0</ele><time>2026-04-18T11:22:53.094Z</time></trkpt><trkpt lat="43.9952767" lon="11.9091383"><ele>240.0</ele><time>2026-04-18T11:22:54.093Z</time></trkpt><trkpt lat="43.99539" lon="11.90924"><ele>240.0</ele><time>2026-04-18T11:22:55.094Z</time></trkpt><trkpt lat="43.9954967" lon="11.9093467"><ele>240.0</ele><time>2026-04-18T11:22:56.094Z</time></trkpt><trkpt lat="43.995605" lon="11.9094467"><ele>239.5</ele><time>2026-04-18T11:22:57.094Z</time></trkpt><trkpt lat="43.99572" lon="11.90955"><ele>239.0</ele><time>2026-04-18T11:22:58.094Z</time></trkpt><trkpt lat="43.9958333" lon="11.9096417"><ele>238.5</ele><time>2026-04-18T11:22:59.094Z</time></trkpt><trkpt lat="43.9959567" lon="11.90973"><ele>238.0</ele><time>2026-04-18T11:23:00.094Z</time></trkpt><trkpt lat="43.996075" lon="11.90982"><ele>238.0</ele><time>2026-04-18T11:23:01.093Z</time></trkpt><trkpt lat="43.9961917" lon="11.9099417"><ele>238.0</ele><time>2026-04-18T11:23:02.094Z</time></trkpt><trkpt lat="43.996295" lon="11.9100317"><ele>238.0</ele><time>2026-04-18T11:23:03.094Z</time></trkpt><trkpt lat="43.99639" lon="11.9101133"><ele>238.0</ele><time>2026-04-18T11:23:04.094Z</time></trkpt><trkpt lat="43.9964733" lon="11.910195"><ele>237.60000000000002</ele><time>2026-04-18T11:23:05.094Z</time></trkpt><trkpt lat="43.9965583" lon="11.9102733"><ele>237.20000000000002</ele><time>2026-04-18T11:23:06.093Z</time></trkpt><trkpt lat="43.9966433" lon="11.9103517"><ele>236.8</ele><time>2026-04-18T11:23:07.093Z</time></trkpt><trkpt lat="43.9967133" lon="11.9104433"><ele>236.4</ele><time>2026-04-18T11:23:08.094Z</time></trkpt><trkpt lat="43.9967633" lon="11.9105533"><ele>236.0</ele><time>2026-04-18T11:23:09.094Z</time></trkpt><trkpt lat="43.9967817" lon="11.9106733"><ele>235.83333333333334</ele><time>2026-04-18T11:23:10.094Z</time></trkpt><trkpt lat="43.9967733" lon="11.9107933"><ele>235.66666666666669</ele><time>2026-04-18T11:23:11.094Z</time></trkpt><trkpt lat="43.9967583" lon="11.91091"><ele>235.5</ele><time>2026-04-18T11:23:12.093Z</time></trkpt><trkpt lat="43.9967433" lon="11.9110183"><ele>235.33333333333331</ele><time>2026-04-18T11:23:13.094Z</time></trkpt><trkpt lat="43.9967233" lon="11.9111233"><ele>235.16666666666666</ele><time>2026-04-18T11:23:14.093Z</time></trkpt><trkpt lat="43.9967067" lon="11.9112233"><ele>235.0</ele><time>2026-04-18T11:23:15.093Z</time></trkpt><trkpt lat="43.99669" lon="11.91132"><ele>234.99999999999997</ele><time>2026-04-18T11:23:16.094Z</time></trkpt><trkpt lat="43.9966817" lon="11.9114217"><ele>235.0</ele><time>2026-04-18T11:23:17.094Z</time></trkpt><trkpt lat="43.9966683" lon="11.9115233"><ele>235.0</ele><time>2026-04-18T11:23:18.094Z</time></trkpt><trkpt lat="43.99665" lon="11.9116417"><ele>235.0</ele><time>2026-04-18T11:23:19.094Z</time></trkpt><trkpt lat="43.996635" lon="11.9117767"><ele>234.99999999999997</ele><time>2026-04-18T11:23:20.093Z</time></trkpt><trkpt lat="43.9966183" lon="11.911905"><ele>235.0</ele><time>2026-04-18T11:23:21.094Z</time></trkpt><trkpt lat="43.9966033" lon="11.9120333"><ele>234.6</ele><time>2026-04-18T11:23:22.094Z</time></trkpt><trkpt lat="43.996585" lon="11.912155"><ele>234.2</ele><time>2026-04-18T11:23:23.093Z</time></trkpt><trkpt lat="43.9965717" lon="11.912295"><ele>233.8</ele><time>2026-04-18T11:23:24.094Z</time></trkpt><trkpt lat="43.9965633" lon="11.91244"><ele>233.4</ele><time>2026-04-18T11:23:25.093Z</time></trkpt><trkpt lat="43.99655" lon="11.9125883"><ele>233.0</ele><time>2026-04-18T11:23:26.094Z</time></trkpt><trkpt lat="43.9965517" lon="11.912725"><ele>232.16666666666669</ele><time>2026-04-18T11:23:27.094Z</time></trkpt><trkpt lat="43.9965767" lon="11.9128533"><ele>231.33333333333334</ele><time>2026-04-18T11:23:28.093Z</time></trkpt><trkpt lat="43.9966167" lon="11.9129683"><ele>230.5</ele><time>2026-04-18T11:23:29.094Z</time></trkpt><trkpt lat="43.99667" lon="11.9130517"><ele>229.66666666666669</ele><time>2026-04-18T11:23:30.093Z</time></trkpt><trkpt lat="43.9967367" lon="11.9131083"><ele>228.83333333333334</ele><time>2026-04-18T11:23:31.094Z</time></trkpt><trkpt lat="43.996805" lon="11.9131383"><ele>228.0</ele><time>2026-04-18T11:23:32.094Z</time></trkpt><trkpt lat="43.9968867" lon="11.9131667"><ele>228.0</ele><time>2026-04-18T11:23:33.093Z</time></trkpt><trkpt lat="43.9969783" lon="11.9131833"><ele>228.0</ele><time>2026-04-18T11:23:34.093Z</time></trkpt><trkpt lat="43.9971033" lon="11.9131983"><ele>228.0</ele><time>2026-04-18T11:23:35.094Z</time></trkpt><trkpt lat="43.9972567" lon="11.913235"><ele>228.0</ele><time>2026-04-18T11:23:36.094Z</time></trkpt><trkpt lat="43.9974233" lon="11.9132733"><ele>226.66666666666669</ele><time>2026-04-18T11:23:37.094Z</time></trkpt><trkpt lat="43.9976083" lon="11.913315"><ele>225.33333333333334</ele><time>2026-04-18T11:23:38.094Z</time></trkpt><trkpt lat="43.9978" lon="11.9133483"><ele>224.0</ele><time>2026-04-18T11:23:39.094Z</time></trkpt><trkpt lat="43.997995" lon="11.9133883"><ele>222.66666666666669</ele><time>2026-04-18T11:23:40.094Z</time></trkpt><trkpt lat="43.99818" lon="11.9134267"><ele>221.33333333333331</ele><time>2026-04-18T11:23:41.094Z</time></trkpt><trkpt lat="43.9983667" lon="11.913475"><ele>220.0</ele><time>2026-04-18T11:23:42.094Z</time></trkpt><trkpt lat="43.9985667" lon="11.9135317"><ele>219.0</ele><time>2026-04-18T11:23:43.093Z</time></trkpt><trkpt lat="43.9987833" lon="11.9135883"><ele>218.0</ele><time>2026-04-18T11:23:44.094Z</time></trkpt><trkpt lat="43.9989767" lon="11.9136433"><ele>217.0</ele><time>2026-04-18T11:23:45.094Z</time></trkpt><trkpt lat="43.9991567" lon="11.9136917"><ele>215.33333333333331</ele><time>2026-04-18T11:23:46.094Z</time></trkpt><trkpt lat="43.9993267" lon="11.9137317"><ele>213.66666666666669</ele><time>2026-04-18T11:23:47.093Z</time></trkpt><trkpt lat="43.99949" lon="11.91377"><ele>212.0</ele><time>2026-04-18T11:23:48.094Z</time></trkpt><trkpt lat="43.9996433" lon="11.9138"><ele>212.0</ele><time>2026-04-18T11:23:49.094Z</time></trkpt><trkpt lat="43.99979" lon="11.9138333"><ele>212.0</ele><time>2026-04-18T11:23:50.094Z</time></trkpt><trkpt lat="43.999925" lon="11.9138567"><ele>212.0</ele><time>2026-04-18T11:23:51.094Z</time></trkpt><trkpt lat="44.00006" lon="11.9138783"><ele>212.0</ele><time>2026-04-18T11:23:52.094Z</time></trkpt><trkpt lat="44.000185" lon="11.9139033"><ele>212.0</ele><time>2026-04-18T11:23:53.094Z</time></trkpt><trkpt lat="44.0003033" lon="11.9139317"><ele>212.0</ele><time>2026-04-18T11:23:54.094Z</time></trkpt><trkpt lat="44.0004333" lon="11.913965"><ele>212.0</ele><time>2026-04-18T11:23:55.094Z</time></trkpt><trkpt lat="44.0005733" lon="11.9140267"><ele>212.0</ele><time>2026-04-18T11:23:56.093Z</time></trkpt><trkpt lat="44.0007083" lon="11.9141183"><ele>208.0</ele><time>2026-04-18T11:23:57.094Z</time></trkpt><trkpt lat="44.000845" lon="11.9142467"><ele>204.0</ele><time>2026-04-18T11:23:58.094Z</time></trkpt><trkpt lat="44.0009783" lon="11.91438"><ele>200.0</ele><time>2026-04-18T11:23:59.094Z</time></trkpt><trkpt lat="44.0011083" lon="11.91451"><ele>200.0</ele><time>2026-04-18T11:24:00.094Z</time></trkpt><trkpt lat="44.0012417" lon="11.9146333"><ele>200.0</ele><time>2026-04-18T11:24:01.094Z</time></trkpt><trkpt lat="44.00137" lon="11.9147483"><ele>200.0</ele><time>2026-04-18T11:24:02.093Z</time></trkpt><trkpt lat="44.0014983" lon="11.914865"><ele>200.0</ele><time>2026-04-18T11:24:03.094Z</time></trkpt><trkpt lat="44.0016217" lon="11.9149933"><ele>200.0</ele><time>2026-04-18T11:24:04.094Z</time></trkpt><trkpt lat="44.0017333" lon="11.9151267"><ele>200.0</ele><time>2026-04-18T11:24:05.094Z</time></trkpt><trkpt lat="44.00184" lon="11.915275"><ele>202.0</ele><time>2026-04-18T11:24:06.094Z</time></trkpt><trkpt lat="44.00194" lon="11.9154283"><ele>204.0</ele><time>2026-04-18T11:24:07.093Z</time></trkpt><trkpt lat="44.0020267" lon="11.915595"><ele>206.0</ele><time>2026-04-18T11:24:08.094Z</time></trkpt><trkpt lat="44.00211" lon="11.91577"><ele>208.0</ele><time>2026-04-18T11:24:09.093Z</time></trkpt><trkpt lat="44.00218" lon="11.9159517"><ele>209.75</ele><time>2026-04-18T11:24:10.094Z</time></trkpt><trkpt lat="44.00224" lon="11.9161367"><ele>211.5</ele><time>2026-04-18T11:24:11.094Z</time></trkpt><trkpt lat="44.0022933" lon="11.916325"><ele>213.25</ele><time>2026-04-18T11:24:12.094Z</time></trkpt><trkpt lat="44.0023467" lon="11.9165267"><ele>215.0</ele><time>2026-04-18T11:24:13.094Z</time></trkpt><trkpt lat="44.0023917" lon="11.9167183"><ele>215.25</ele><time>2026-04-18T11:24:14.093Z</time></trkpt><trkpt lat="44.00243" lon="11.9169033"><ele>215.5</ele><time>2026-04-18T11:24:15.094Z</time></trkpt><trkpt lat="44.0024767" lon="11.9170917"><ele>215.75</ele><time>2026-04-18T11:24:16.094Z</time></trkpt><trkpt lat="44.0025233" lon="11.91728"><ele>216.0</ele><time>2026-04-18T11:24:17.094Z</time></trkpt><trkpt lat="44.002565" lon="11.9174583"><ele>217.0</ele><time>2026-04-18T11:24:18.094Z</time></trkpt><trkpt lat="44.0026067" lon="11.9176317"><ele>218.0</ele><time>2026-04-18T11:24:19.094Z</time></trkpt><trkpt lat="44.00265" lon="11.9178117"><ele>219.0</ele><time>2026-04-18T11:24:20.093Z</time></trkpt><trkpt lat="44.0027" lon="11.9179883"><ele>220.0</ele><time>2026-04-18T11:24:21.094Z</time></trkpt><trkpt lat="44.0027533" lon="11.9181567"><ele>220.0</ele><time>2026-04-18T11:24:22.094Z</time></trkpt><trkpt lat="44.00281" lon="11.9183333"><ele>220.0</ele><time>2026-04-18T11:24:23.094Z</time></trkpt><trkpt lat="44.0028717" lon="11.9185167"><ele>220.0</ele><time>2026-04-18T11:24:24.094Z</time></trkpt><trkpt lat="44.0029283" lon="11.918695"><ele>220.0</ele><time>2026-04-18T11:24:25.094Z</time></trkpt><trkpt lat="44.00299" lon="11.918875"><ele>224.0</ele><time>2026-04-18T11:24:26.094Z</time></trkpt><trkpt lat="44.003055" lon="11.9190567"><ele>228.0</ele><time>2026-04-18T11:24:27.094Z</time></trkpt><trkpt lat="44.0031167" lon="11.9192417"><ele>232.0</ele><time>2026-04-18T11:24:28.094Z</time></trkpt><trkpt lat="44.0031817" lon="11.9194233"><ele>236.0</ele><time>2026-04-18T11:24:29.094Z</time></trkpt><trkpt lat="44.003245" lon="11.9196067"><ele>236.25</ele><time>2026-04-18T11:24:30.094Z</time></trkpt><trkpt lat="44.00331" lon="11.9197833"><ele>236.5</ele><time>2026-04-18T11:24:31.094Z</time></trkpt><trkpt lat="44.0033733" lon="11.91996"><ele>236.75</ele><time>2026-04-18T11:24:32.094Z</time></trkpt><trkpt lat="44.0034283" lon="11.9201367"><ele>237.0</ele><time>2026-04-18T11:24:33.094Z</time></trkpt><trkpt lat="44.0034917" lon="11.9203017"><ele>237.0</ele><time>2026-04-18T11:24:34.093Z</time></trkpt><trkpt lat="44.0035517" lon="11.92048"><ele>237.0</ele><time>2026-04-18T11:24:35.094Z</time></trkpt><trkpt lat="44.00362" lon="11.9206583"><ele>237.0</ele><time>2026-04-18T11:24:36.093Z</time></trkpt><trkpt lat="44.003685" lon="11.9208267"><ele>237.0</ele><time>2026-04-18T11:24:37.094Z</time></trkpt><trkpt lat="44.0037517" lon="11.9209933"><ele>241.75</ele><time>2026-04-18T11:24:38.094Z</time></trkpt><trkpt lat="44.0038183" lon="11.9211583"><ele>246.5</ele><time>2026-04-18T11:24:39.094Z</time></trkpt><trkpt lat="44.003885" lon="11.9213217"><ele>251.25</ele><time>2026-04-18T11:24:40.094Z</time></trkpt><trkpt lat="44.0039517" lon="11.92148"><ele>256.0</ele><time>2026-04-18T11:24:41.094Z</time></trkpt><trkpt lat="44.0040167" lon="11.92164"><ele>257.5</ele><time>2026-04-18T11:24:42.093Z</time></trkpt><trkpt lat="44.0040817" lon="11.921805"><ele>259.0</ele><time>2026-04-18T11:24:43.094Z</time></trkpt><trkpt lat="44.0041467" lon="11.9219683"><ele>260.5</ele><time>2026-04-18T11:24:44.094Z</time></trkpt><trkpt lat="44.00421" lon="11.9221217"><ele>262.0</ele><time>2026-04-18T11:24:45.094Z</time></trkpt><trkpt lat="44.0042667" lon="11.922275"><ele>255.5</ele><time>2026-04-18T11:24:46.094Z</time></trkpt><trkpt lat="44.004325" lon="11.9224317"><ele>249.0</ele><time>2026-04-18T11:24:47.094Z</time></trkpt><trkpt lat="44.0043767" lon="11.9225833"><ele>242.5</ele><time>2026-04-18T11:24:48.094Z</time></trkpt><trkpt lat="44.0044233" lon="11.92274"><ele>236.0</ele><time>2026-04-18T11:24:49.093Z</time></trkpt><trkpt lat="44.004465" lon="11.9229"><ele>236.0</ele><time>2026-04-18T11:24:50.094Z</time></trkpt><trkpt lat="44.0045033" lon="11.9230583"><ele>236.0</ele><time>2026-04-18T11:24:51.094Z</time></trkpt><trkpt lat="44.0045417" lon="11.9232183"><ele>236.0</ele><time>2026-04-18T11:24:52.093Z</time></trkpt><trkpt lat="44.0045767" lon="11.9233833"><ele>236.0</ele><time>2026-04-18T11:24:53.094Z</time></trkpt><trkpt lat="44.0046133" lon="11.9235533"><ele>236.5</ele><time>2026-04-18T11:24:54.094Z</time></trkpt><trkpt lat="44.0046517" lon="11.9237217"><ele>237.0</ele><time>2026-04-18T11:24:55.094Z</time></trkpt><trkpt lat="44.00469" lon="11.9238933"><ele>237.5</ele><time>2026-04-18T11:24:56.094Z</time></trkpt><trkpt lat="44.0047283" lon="11.9240667"><ele>238.0</ele><time>2026-04-18T11:24:57.094Z</time></trkpt><trkpt lat="44.004765" lon="11.9242417"><ele>238.5</ele><time>2026-04-18T11:24:58.093Z</time></trkpt><trkpt lat="44.0048033" lon="11.924415"><ele>239.0</ele><time>2026-04-18T11:24:59.094Z</time></trkpt><trkpt lat="44.00484" lon="11.9245917"><ele>239.5</ele><time>2026-04-18T11:25:00.094Z</time></trkpt><trkpt lat="44.0048783" lon="11.92477"><ele>240.0</ele><time>2026-04-18T11:25:01.094Z</time></trkpt><trkpt lat="44.0049183" lon="11.9249533"><ele>240.75</ele><time>2026-04-18T11:25:02.094Z</time></trkpt><trkpt lat="44.0049533" lon="11.9251383"><ele>241.5</ele><time>2026-04-18T11:25:03.094Z</time></trkpt><trkpt lat="44.0049883" lon="11.925315"><ele>242.25</ele><time>2026-04-18T11:25:04.094Z</time></trkpt><trkpt lat="44.0050317" lon="11.9254983"><ele>243.0</ele><time>2026-04-18T11:25:05.094Z</time></trkpt><trkpt lat="44.005065" lon="11.92568"><ele>241.75</ele><time>2026-04-18T11:25:06.094Z</time></trkpt><trkpt lat="44.0051" lon="11.92586"><ele>240.5</ele><time>2026-04-18T11:25:07.093Z</time></trkpt><trkpt lat="44.0051367" lon="11.9260417"><ele>239.25</ele><time>2026-04-18T11:25:08.094Z</time></trkpt><trkpt lat="44.0051767" lon="11.9262267"><ele>238.0</ele><time>2026-04-18T11:25:09.094Z</time></trkpt><trkpt lat="44.005215" lon="11.9264183"><ele>238.0</ele><time>2026-04-18T11:25:10.094Z</time></trkpt><trkpt lat="44.00525" lon="11.9266167"><ele>238.0</ele><time>2026-04-18T11:25:11.094Z</time></trkpt><trkpt lat="44.005295" lon="11.9268117"><ele>238.0</ele><time>2026-04-18T11:25:12.094Z</time></trkpt><trkpt lat="44.0053233" lon="11.927"><ele>238.0</ele><time>2026-04-18T11:25:13.094Z</time></trkpt><trkpt lat="44.005345" lon="11.9272"><ele>238.25</ele><time>2026-04-18T11:25:14.094Z</time></trkpt><trkpt lat="44.0053617" lon="11.92741"><ele>238.5</ele><time>2026-04-18T11:25:15.094Z</time></trkpt><trkpt lat="44.0053667" lon="11.9276"><ele>238.75</ele><time>2026-04-18T11:25:16.093Z</time></trkpt><trkpt lat="44.0053583" lon="11.9277717"><ele>239.0</ele><time>2026-04-18T11:25:17.094Z</time></trkpt><trkpt lat="44.00534" lon="11.9279433"><ele>238.25</ele><time>2026-04-18T11:25:18.094Z</time></trkpt><trkpt lat="44.0053183" lon="11.9281117"><ele>237.5</ele><time>2026-04-18T11:25:19.094Z</time></trkpt><trkpt lat="44.0052967" lon="11.928285"><ele>236.75</ele><time>2026-04-18T11:25:20.094Z</time></trkpt><trkpt lat="44.005275" lon="11.9284617"><ele>236.0</ele><time>2026-04-18T11:25:21.094Z</time></trkpt><trkpt lat="44.005255" lon="11.9286383"><ele>235.5</ele><time>2026-04-18T11:25:22.094Z</time></trkpt><trkpt lat="44.005235" lon="11.9288183"><ele>235.0</ele><time>2026-04-18T11:25:23.094Z</time></trkpt><trkpt lat="44.0052233" lon="11.9289983"><ele>234.5</ele><time>2026-04-18T11:25:24.094Z</time></trkpt><trkpt lat="44.0052167" lon="11.92918"><ele>234.0</ele><time>2026-04-18T11:25:25.094Z</time></trkpt><trkpt lat="44.0052267" lon="11.9293683"><ele>233.75</ele><time>2026-04-18T11:25:26.094Z</time></trkpt><trkpt lat="44.0052383" lon="11.9295517"><ele>233.5</ele><time>2026-04-18T11:25:27.094Z</time></trkpt><trkpt lat="44.0052517" lon="11.92973"><ele>233.25</ele><time>2026-04-18T11:25:28.094Z</time></trkpt><trkpt lat="44.00527" lon="11.9298933"><ele>233.0</ele><time>2026-04-18T11:25:29.094Z</time></trkpt><trkpt lat="44.0052983" lon="11.9300483"><ele>231.5</ele><time>2026-04-18T11:25:30.094Z</time></trkpt><trkpt lat="44.0053317" lon="11.9302033"><ele>230.0</ele><time>2026-04-18T11:25:31.094Z</time></trkpt><trkpt lat="44.00537" lon="11.930365"><ele>228.5</ele><time>2026-04-18T11:25:32.093Z</time></trkpt><trkpt lat="44.0054167" lon="11.9305367"><ele>227.0</ele><time>2026-04-18T11:25:33.094Z</time></trkpt><trkpt lat="44.005475" lon="11.9307083"><ele>227.0</ele><time>2026-04-18T11:25:34.094Z</time></trkpt><trkpt lat="44.0055417" lon="11.930875"><ele>227.0</ele><time>2026-04-18T11:25:35.093Z</time></trkpt><trkpt lat="44.00561" lon="11.9310367"><ele>227.0</ele><time>2026-04-18T11:25:36.094Z</time></trkpt><trkpt lat="44.00568" lon="11.9312067"><ele>227.0</ele><time>2026-04-18T11:25:37.094Z</time></trkpt><trkpt lat="44.0057533" lon="11.9313833"><ele>225.0</ele><time>2026-04-18T11:25:38.093Z</time></trkpt><trkpt lat="44.0058267" lon="11.93156"><ele>223.0</ele><time>2026-04-18T11:25:39.094Z</time></trkpt><trkpt lat="44.0058967" lon="11.9317317"><ele>221.0</ele><time>2026-04-18T11:25:40.094Z</time></trkpt><trkpt lat="44.0059717" lon="11.9319"><ele>219.0</ele><time>2026-04-18T11:25:41.094Z</time></trkpt><trkpt lat="44.00604" lon="11.93208"><ele>217.5</ele><time>2026-04-18T11:25:42.094Z</time></trkpt><trkpt lat="44.0061083" lon="11.9322367"><ele>216.0</ele><time>2026-04-18T11:25:43.094Z</time></trkpt><trkpt lat="44.006175" lon="11.9323933"><ele>214.5</ele><time>2026-04-18T11:25:44.093Z</time></trkpt><trkpt lat="44.0062417" lon="11.932555"><ele>213.0</ele><time>2026-04-18T11:25:45.094Z</time></trkpt><trkpt lat="44.0063117" lon="11.9327167"><ele>213.0</ele><time>2026-04-18T11:25:46.093Z</time></trkpt><trkpt lat="44.0063817" lon="11.9328817"><ele>213.0</ele><time>2026-04-18T11:25:47.094Z</time></trkpt><trkpt lat="44.00645" lon="11.933045"><ele>213.0</ele><time>2026-04-18T11:25:48.094Z</time></trkpt><trkpt lat="44.0065183" lon="11.9332067"><ele>213.0</ele><time>2026-04-18T11:25:49.094Z</time></trkpt><trkpt lat="44.0065833" lon="11.933365"><ele>214.5</ele><time>2026-04-18T11:25:50.094Z</time></trkpt><trkpt lat="44.0066433" lon="11.93352"><ele>216.0</ele><time>2026-04-18T11:25:51.094Z</time></trkpt><trkpt lat="44.0067" lon="11.9336717"><ele>217.5</ele><time>2026-04-18T11:25:52.094Z</time></trkpt><trkpt lat="44.0067433" lon="11.933825"><ele>219.0</ele><time>2026-04-18T11:25:53.094Z</time></trkpt><trkpt lat="44.0067883" lon="11.9339883"><ele>219.0</ele><time>2026-04-18T11:25:54.094Z</time></trkpt><trkpt lat="44.0068317" lon="11.9341567"><ele>219.0</ele><time>2026-04-18T11:25:55.093Z</time></trkpt><trkpt lat="44.006875" lon="11.9343217"><ele>219.0</ele><time>2026-04-18T11:25:56.094Z</time></trkpt><trkpt lat="44.0069033" lon="11.934505"><ele>219.0</ele><time>2026-04-18T11:25:57.093Z</time></trkpt><trkpt lat="44.0069167" lon="11.9346883"><ele>219.0</ele><time>2026-04-18T11:25:58.094Z</time></trkpt><trkpt lat="44.0069317" lon="11.9348783"><ele>219.0</ele><time>2026-04-18T11:25:59.094Z</time></trkpt><trkpt lat="44.0069383" lon="11.9350633"><ele>219.0</ele><time>2026-04-18T11:26:00.093Z</time></trkpt><trkpt lat="44.0069483" lon="11.9352517"><ele>219.0</ele><time>2026-04-18T11:26:01.093Z</time></trkpt><trkpt lat="44.006965" lon="11.93544"><ele>219.0</ele><time>2026-04-18T11:26:02.094Z</time></trkpt><trkpt lat="44.00698" lon="11.9356267"><ele>219.0</ele><time>2026-04-18T11:26:03.094Z</time></trkpt><trkpt lat="44.0069983" lon="11.93581"><ele>219.0</ele><time>2026-04-18T11:26:04.094Z</time></trkpt><trkpt lat="44.0070133" lon="11.9359917"><ele>219.0</ele><time>2026-04-18T11:26:05.094Z</time></trkpt><trkpt lat="44.00702" lon="11.9361717"><ele>219.0</ele><time>2026-04-18T11:26:06.094Z</time></trkpt><trkpt lat="44.007025" lon="11.9363467"><ele>219.0</ele><time>2026-04-18T11:26:07.094Z</time></trkpt><trkpt lat="44.0070317" lon="11.936515"><ele>219.0</ele><time>2026-04-18T11:26:08.094Z</time></trkpt><trkpt lat="44.0070433" lon="11.9366683"><ele>219.0</ele><time>2026-04-18T11:26:09.094Z</time></trkpt><trkpt lat="44.0070483" lon="11.9368217"><ele>219.0</ele><time>2026-04-18T11:26:10.093Z</time></trkpt><trkpt lat="44.0070583" lon="11.9369833"><ele>219.0</ele><time>2026-04-18T11:26:11.094Z</time></trkpt><trkpt lat="44.0070633" lon="11.9371517"><ele>219.0</ele><time>2026-04-18T11:26:12.093Z</time></trkpt><trkpt lat="44.007065" lon="11.9373133"><ele>219.0</ele><time>2026-04-18T11:26:13.094Z</time></trkpt><trkpt lat="44.0070767" lon="11.9374633"><ele>218.6</ele><time>2026-04-18T11:26:14.094Z</time></trkpt><trkpt lat="44.0070917" lon="11.937615"><ele>218.2</ele><time>2026-04-18T11:26:15.093Z</time></trkpt><trkpt lat="44.007105" lon="11.9377667"><ele>217.79999999999998</ele><time>2026-04-18T11:26:16.094Z</time></trkpt><trkpt lat="44.0071167" lon="11.937925"><ele>217.39999999999998</ele><time>2026-04-18T11:26:17.093Z</time></trkpt><trkpt lat="44.0071317" lon="11.938075"><ele>217.0</ele><time>2026-04-18T11:26:18.094Z</time></trkpt><trkpt lat="44.00714" lon="11.9382283"><ele>217.5</ele><time>2026-04-18T11:26:19.094Z</time></trkpt><trkpt lat="44.0071483" lon="11.9383867"><ele>218.0</ele><time>2026-04-18T11:26:20.094Z</time></trkpt><trkpt lat="44.0071633" lon="11.938555"><ele>218.5</ele><time>2026-04-18T11:26:21.094Z</time></trkpt><trkpt lat="44.00718" lon="11.93873"><ele>219.0</ele><time>2026-04-18T11:26:22.094Z</time></trkpt><trkpt lat="44.0071917" lon="11.93892"><ele>219.0</ele><time>2026-04-18T11:26:23.094Z</time></trkpt><trkpt lat="44.0072017" lon="11.9391067"><ele>219.0</ele><time>2026-04-18T11:26:24.094Z</time></trkpt><trkpt lat="44.007215" lon="11.9392767"><ele>219.0</ele><time>2026-04-18T11:26:25.094Z</time></trkpt><trkpt lat="44.0072217" lon="11.939425"><ele>219.0</ele><time>2026-04-18T11:26:26.094Z</time></trkpt><trkpt lat="44.0072267" lon="11.9395533"><ele>219.2</ele><time>2026-04-18T11:26:27.094Z</time></trkpt><trkpt lat="44.0072367" lon="11.9396917"><ele>219.39999999999998</ele><time>2026-04-18T11:26:28.094Z</time></trkpt><trkpt lat="44.0072467" lon="11.939825"><ele>219.6</ele><time>2026-04-18T11:26:29.094Z</time></trkpt><trkpt lat="44.007255" lon="11.9399633"><ele>219.8</ele><time>2026-04-18T11:26:30.094Z</time></trkpt><trkpt lat="44.007265" lon="11.9401083"><ele>220.0</ele><time>2026-04-18T11:26:31.094Z</time></trkpt><trkpt lat="44.0072717" lon="11.9402433"><ele>219.99999999999997</ele><time>2026-04-18T11:26:32.094Z</time></trkpt><trkpt lat="44.007275" lon="11.94037"><ele>220.0</ele><time>2026-04-18T11:26:33.094Z</time></trkpt><trkpt lat="44.0072717" lon="11.9404917"><ele>220.0</ele><time>2026-04-18T11:26:34.094Z</time></trkpt><trkpt lat="44.0072533" lon="11.940605"><ele>220.0</ele><time>2026-04-18T11:26:35.093Z</time></trkpt><trkpt lat="44.0072367" lon="11.940725"><ele>219.99999999999997</ele><time>2026-04-18T11:26:36.094Z</time></trkpt><trkpt lat="44.0071983" lon="11.9408367"><ele>220.0</ele><time>2026-04-18T11:26:37.094Z</time></trkpt><trkpt lat="44.0071717" lon="11.940955"><ele>219.6</ele><time>2026-04-18T11:26:38.094Z</time></trkpt><trkpt lat="44.00714" lon="11.94106"><ele>219.2</ele><time>2026-04-18T11:26:39.094Z</time></trkpt><trkpt lat="44.0070983" lon="11.941165"><ele>218.8</ele><time>2026-04-18T11:26:40.094Z</time></trkpt><trkpt lat="44.0070433" lon="11.9412617"><ele>218.4</ele><time>2026-04-18T11:26:41.094Z</time></trkpt><trkpt lat="44.0069767" lon="11.9413567"><ele>218.0</ele><time>2026-04-18T11:26:42.094Z</time></trkpt><trkpt lat="44.0069083" lon="11.9414567"><ele>218.0</ele><time>2026-04-18T11:26:43.093Z</time></trkpt><trkpt lat="44.006835" lon="11.9415617"><ele>218.0</ele><time>2026-04-18T11:26:44.094Z</time></trkpt><trkpt lat="44.0067633" lon="11.9416733"><ele>218.0</ele><time>2026-04-18T11:26:45.094Z</time></trkpt><trkpt lat="44.00669" lon="11.94179"><ele>218.0</ele><time>2026-04-18T11:26:46.093Z</time></trkpt><trkpt lat="44.0066217" lon="11.9419067"><ele>218.0</ele><time>2026-04-18T11:26:47.094Z</time></trkpt><trkpt lat="44.006565" lon="11.9420183"><ele>219.0</ele><time>2026-04-18T11:26:48.094Z</time></trkpt><trkpt lat="44.00653" lon="11.9421317"><ele>220.0</ele><time>2026-04-18T11:26:49.094Z</time></trkpt><trkpt lat="44.006505" lon="11.9422467"><ele>221.0</ele><time>2026-04-18T11:26:50.094Z</time></trkpt><trkpt lat="44.0064817" lon="11.9423667"><ele>222.0</ele><time>2026-04-18T11:26:51.094Z</time></trkpt><trkpt lat="44.0064617" lon="11.9425"><ele>223.0</ele><time>2026-04-18T11:26:52.094Z</time></trkpt><trkpt lat="44.0064433" lon="11.94265"><ele>223.0</ele><time>2026-04-18T11:26:53.094Z</time></trkpt><trkpt lat="44.0064267" lon="11.9427917"><ele>223.0</ele><time>2026-04-18T11:26:54.094Z</time></trkpt><trkpt lat="44.0064133" lon="11.942935"><ele>223.0</ele><time>2026-04-18T11:26:55.094Z</time></trkpt><trkpt lat="44.0064017" lon="11.94309"><ele>223.0</ele><time>2026-04-18T11:26:56.094Z</time></trkpt><trkpt lat="44.0063967" lon="11.9432483"><ele>223.0</ele><time>2026-04-18T11:26:57.094Z</time></trkpt><trkpt lat="44.0064083" lon="11.94342"><ele>223.5</ele><time>2026-04-18T11:26:58.094Z</time></trkpt><trkpt lat="44.0064283" lon="11.943585"><ele>224.0</ele><time>2026-04-18T11:26:59.094Z</time></trkpt><trkpt lat="44.0064667" lon="11.9437533"><ele>224.5</ele><time>2026-04-18T11:27:00.093Z</time></trkpt><trkpt lat="44.0065217" lon="11.943915"><ele>225.0</ele><time>2026-04-18T11:27:01.094Z</time></trkpt><trkpt lat="44.0066017" lon="11.944075"><ele>223.25</ele><time>2026-04-18T11:27:02.094Z</time></trkpt><trkpt lat="44.0067" lon="11.944215"><ele>221.5</ele><time>2026-04-18T11:27:03.094Z</time></trkpt><trkpt lat="44.0068083" lon="11.9443383"><ele>219.75</ele><time>2026-04-18T11:27:04.093Z</time></trkpt><trkpt lat="44.0069233" lon="11.9444483"><ele>218.0</ele><time>2026-04-18T11:27:05.094Z</time></trkpt><trkpt lat="44.0070433" lon="11.9445417"><ele>218.0</ele><time>2026-04-18T11:27:06.093Z</time></trkpt><trkpt lat="44.007165" lon="11.9446267"><ele>218.0</ele><time>2026-04-18T11:27:07.093Z</time></trkpt><trkpt lat="44.00728" lon="11.9447133"><ele>218.0</ele><time>2026-04-18T11:27:08.093Z</time></trkpt><trkpt lat="44.00739" lon="11.9447933"><ele>218.0</ele><time>2026-04-18T11:27:09.094Z</time></trkpt><trkpt lat="44.0075083" lon="11.9448733"><ele>218.0</ele><time>2026-04-18T11:27:10.094Z</time></trkpt><trkpt lat="44.0076317" lon="11.9449567"><ele>218.0</ele><time>2026-04-18T11:27:11.093Z</time></trkpt><trkpt lat="44.0077567" lon="11.9450333"><ele>218.0</ele><time>2026-04-18T11:27:12.094Z</time></trkpt><trkpt lat="44.0078817" lon="11.94512"><ele>218.0</ele><time>2026-04-18T11:27:13.094Z</time></trkpt><trkpt lat="44.0079983" lon="11.9452133"><ele>218.0</ele><time>2026-04-18T11:27:14.094Z</time></trkpt><trkpt lat="44.0081217" lon="11.9453"><ele>218.0</ele><time>2026-04-18T11:27:15.093Z</time></trkpt><trkpt lat="44.0082483" lon="11.9453983"><ele>218.0</ele><time>2026-04-18T11:27:16.094Z</time></trkpt><trkpt lat="44.00838" lon="11.945495"><ele>218.0</ele><time>2026-04-18T11:27:17.094Z</time></trkpt><trkpt lat="44.0085017" lon="11.9455933"><ele>215.5</ele><time>2026-04-18T11:27:18.094Z</time></trkpt><trkpt lat="44.0086133" lon="11.9456967"><ele>213.0</ele><time>2026-04-18T11:27:19.094Z</time></trkpt><trkpt lat="44.0087267" lon="11.9458067"><ele>210.5</ele><time>2026-04-18T11:27:20.093Z</time></trkpt><trkpt lat="44.0088367" lon="11.94593"><ele>208.0</ele><time>2026-04-18T11:27:21.094Z</time></trkpt><trkpt lat="44.00893" lon="11.9460767"><ele>208.0</ele><time>2026-04-18T11:27:22.094Z</time></trkpt><trkpt lat="44.0090067" lon="11.9462233"><ele>208.0</ele><time>2026-04-18T11:27:23.094Z</time></trkpt><trkpt lat="44.0090767" lon="11.9463683"><ele>208.0</ele><time>2026-04-18T11:27:24.093Z</time></trkpt><trkpt lat="44.0091517" lon="11.9465167"><ele>208.0</ele><time>2026-04-18T11:27:25.094Z</time></trkpt><trkpt lat="44.0092317" lon="11.9466683"><ele>205.75</ele><time>2026-04-18T11:27:26.094Z</time></trkpt><trkpt lat="44.009305" lon="11.9468217"><ele>203.5</ele><time>2026-04-18T11:27:27.094Z</time></trkpt><trkpt lat="44.0093833" lon="11.946975"><ele>201.25</ele><time>2026-04-18T11:27:28.094Z</time></trkpt><trkpt lat="44.0094583" lon="11.94712"><ele>199.0</ele><time>2026-04-18T11:27:29.094Z</time></trkpt><trkpt lat="44.0095267" lon="11.947265"><ele>199.0</ele><time>2026-04-18T11:27:30.094Z</time></trkpt><trkpt lat="44.009595" lon="11.9474117"><ele>199.0</ele><time>2026-04-18T11:27:31.093Z</time></trkpt><trkpt lat="44.0096633" lon="11.9475617"><ele>199.0</ele><time>2026-04-18T11:27:32.094Z</time></trkpt><trkpt lat="44.00974" lon="11.9477217"><ele>199.0</ele><time>2026-04-18T11:27:33.094Z</time></trkpt><trkpt lat="44.0098167" lon="11.9478767"><ele>199.5</ele><time>2026-04-18T11:27:34.093Z</time></trkpt><trkpt lat="44.009895" lon="11.948035"><ele>200.0</ele><time>2026-04-18T11:27:35.094Z</time></trkpt><trkpt lat="44.009975" lon="11.948205"><ele>200.5</ele><time>2026-04-18T11:27:36.094Z</time></trkpt><trkpt lat="44.0100583" lon="11.94837"><ele>201.0</ele><time>2026-04-18T11:27:37.093Z</time></trkpt><trkpt lat="44.0101467" lon="11.94854"><ele>201.0</ele><time>2026-04-18T11:27:38.094Z</time></trkpt><trkpt lat="44.0102233" lon="11.9487167"><ele>201.0</ele><time>2026-04-18T11:27:39.094Z</time></trkpt><trkpt lat="44.01029" lon="11.9489"><ele>201.0</ele><time>2026-04-18T11:27:40.094Z</time></trkpt><trkpt lat="44.0103583" lon="11.94908"><ele>201.0</ele><time>2026-04-18T11:27:41.093Z</time></trkpt><trkpt lat="44.0104217" lon="11.949275"><ele>201.75</ele><time>2026-04-18T11:27:42.093Z</time></trkpt><trkpt lat="44.0104833" lon="11.94946"><ele>202.5</ele><time>2026-04-18T11:27:43.094Z</time></trkpt><trkpt lat="44.010545" lon="11.949655"><ele>203.25</ele><time>2026-04-18T11:27:44.094Z</time></trkpt><trkpt lat="44.0106033" lon="11.94983"><ele>204.0</ele><time>2026-04-18T11:27:45.094Z</time></trkpt><trkpt lat="44.0106583" lon="11.9499983"><ele>205.0</ele><time>2026-04-18T11:27:46.094Z</time></trkpt><trkpt lat="44.010715" lon="11.9501717"><ele>206.0</ele><time>2026-04-18T11:27:47.093Z</time></trkpt><trkpt lat="44.0107717" lon="11.9503483"><ele>207.0</ele><time>2026-04-18T11:27:48.093Z</time></trkpt><trkpt lat="44.0108283" lon="11.9505233"><ele>208.0</ele><time>2026-04-18T11:27:49.094Z</time></trkpt><trkpt lat="44.0108817" lon="11.95069"><ele>204.5</ele><time>2026-04-18T11:27:50.093Z</time></trkpt><trkpt lat="44.01093" lon="11.9508517"><ele>201.0</ele><time>2026-04-18T11:27:51.094Z</time></trkpt><trkpt lat="44.01098" lon="11.9510167"><ele>197.5</ele><time>2026-04-18T11:27:52.094Z</time></trkpt><trkpt lat="44.011035" lon="11.951185"><ele>194.0</ele><time>2026-04-18T11:27:53.094Z</time></trkpt><trkpt lat="44.0110933" lon="11.9513517"><ele>194.0</ele><time>2026-04-18T11:27:54.094Z</time></trkpt><trkpt lat="44.0111517" lon="11.9515167"><ele>194.0</ele><time>2026-04-18T11:27:55.094Z</time></trkpt><trkpt lat="44.0112067" lon="11.9516783"><ele>194.0</ele><time>2026-04-18T11:27:56.094Z</time></trkpt><trkpt lat="44.0112633" lon="11.95184"><ele>194.0</ele><time>2026-04-18T11:27:57.094Z</time></trkpt><trkpt lat="44.0113183" lon="11.952005"><ele>194.75</ele><time>2026-04-18T11:27:58.093Z</time></trkpt><trkpt lat="44.0113717" lon="11.9521667"><ele>195.5</ele><time>2026-04-18T11:27:59.093Z</time></trkpt><trkpt lat="44.0114217" lon="11.95233"><ele>196.25</ele><time>2026-04-18T11:28:00.094Z</time></trkpt><trkpt lat="44.011475" lon="11.9524883"><ele>197.0</ele><time>2026-04-18T11:28:01.094Z</time></trkpt><trkpt lat="44.0115217" lon="11.9526383"><ele>197.39999999999998</ele><time>2026-04-18T11:28:02.094Z</time></trkpt><trkpt lat="44.011565" lon="11.9527767"><ele>197.79999999999998</ele><time>2026-04-18T11:28:03.093Z</time></trkpt><trkpt lat="44.0116033" lon="11.9529083"><ele>198.2</ele><time>2026-04-18T11:28:04.094Z</time></trkpt><trkpt lat="44.01163" lon="11.9530333"><ele>198.6</ele><time>2026-04-18T11:28:05.093Z</time></trkpt><trkpt lat="44.011645" lon="11.9531617"><ele>199.0</ele><time>2026-04-18T11:28:06.093Z</time></trkpt><trkpt lat="44.0116433" lon="11.9532767"><ele>199.39999999999998</ele><time>2026-04-18T11:28:07.094Z</time></trkpt><trkpt lat="44.0116067" lon="11.9534267"><ele>199.8</ele><time>2026-04-18T11:28:09.094Z</time></trkpt><trkpt lat="44.0116826" lon="11.9534487"><ele>200.2</ele><time>2026-04-18T11:28:39.163Z</time></trkpt><trkpt lat="44.0117631" lon="11.9535035"><ele>200.60000000000002</ele><time>2026-04-18T11:28:41.094Z</time></trkpt><trkpt lat="44.0118433" lon="11.953655"><ele>201.0</ele><time>2026-04-18T11:28:43.094Z</time></trkpt><trkpt lat="44.0118733" lon="11.9537383"><ele>199.4</ele><time>2026-04-18T11:28:44.094Z</time></trkpt><trkpt lat="44.01191" lon="11.953845"><ele>197.8</ele><time>2026-04-18T11:28:45.094Z</time></trkpt><trkpt lat="44.0119517" lon="11.9539583"><ele>196.20000000000002</ele><time>2026-04-18T11:28:46.093Z</time></trkpt><trkpt lat="44.0119917" lon="11.954085"><ele>194.60000000000002</ele><time>2026-04-18T11:28:47.094Z</time></trkpt><trkpt lat="44.012035" lon="11.95423"><ele>193.0</ele><time>2026-04-18T11:28:48.094Z</time></trkpt><trkpt lat="44.012075" lon="11.9543917"><ele>193.0</ele><time>2026-04-18T11:28:49.093Z</time></trkpt><trkpt lat="44.0121133" lon="11.954575"><ele>193.0</ele><time>2026-04-18T11:28:50.094Z</time></trkpt><trkpt lat="44.0121483" lon="11.9547567"><ele>193.0</ele><time>2026-04-18T11:28:51.094Z</time></trkpt><trkpt lat="44.012175" lon="11.9549283"><ele>193.0</ele><time>2026-04-18T11:28:52.093Z</time></trkpt><trkpt lat="44.01222" lon="11.9551117"><ele>193.0</ele><time>2026-04-18T11:28:53.094Z</time></trkpt><trkpt lat="44.0122633" lon="11.9553083"><ele>193.0</ele><time>2026-04-18T11:28:54.093Z</time></trkpt><trkpt lat="44.0123" lon="11.95551"><ele>193.0</ele><time>2026-04-18T11:28:55.094Z</time></trkpt><trkpt lat="44.012325" lon="11.9557267"><ele>193.25</ele><time>2026-04-18T11:28:56.094Z</time></trkpt><trkpt lat="44.0123617" lon="11.9559233"><ele>193.5</ele><time>2026-04-18T11:28:57.094Z</time></trkpt><trkpt lat="44.01239" lon="11.9561133"><ele>193.75</ele><time>2026-04-18T11:28:58.093Z</time></trkpt><trkpt lat="44.0124083" lon="11.9562867"><ele>194.0</ele><time>2026-04-18T11:28:59.094Z</time></trkpt><trkpt lat="44.0124383" lon="11.956455"><ele>194.0</ele><time>2026-04-18T11:29:00.094Z</time></trkpt><trkpt lat="44.012465" lon="11.9566117"><ele>194.0</ele><time>2026-04-18T11:29:01.093Z</time></trkpt><trkpt lat="44.0124867" lon="11.9567733"><ele>194.0</ele><time>2026-04-18T11:29:02.094Z</time></trkpt><trkpt lat="44.0125183" lon="11.9569467"><ele>194.0</ele><time>2026-04-18T11:29:03.094Z</time></trkpt><trkpt lat="44.0125467" lon="11.9571267"><ele>191.75</ele><time>2026-04-18T11:29:04.094Z</time></trkpt><trkpt lat="44.0125767" lon="11.9573067"><ele>189.5</ele><time>2026-04-18T11:29:05.093Z</time></trkpt><trkpt lat="44.01261" lon="11.95749"><ele>187.25</ele><time>2026-04-18T11:29:06.094Z</time></trkpt><trkpt lat="44.0126367" lon="11.9576767"><ele>185.0</ele><time>2026-04-18T11:29:07.094Z</time></trkpt><trkpt lat="44.012665" lon="11.9578583"><ele>185.0</ele><time>2026-04-18T11:29:08.094Z</time></trkpt><trkpt lat="44.0126917" lon="11.9580467"><ele>185.0</ele><time>2026-04-18T11:29:09.094Z</time></trkpt><trkpt lat="44.0127217" lon="11.9582417"><ele>185.0</ele><time>2026-04-18T11:29:10.094Z</time></trkpt><trkpt lat="44.01275" lon="11.9584367"><ele>185.0</ele><time>2026-04-18T11:29:11.094Z</time></trkpt><trkpt lat="44.0127817" lon="11.95864"><ele>186.0</ele><time>2026-04-18T11:29:12.094Z</time></trkpt><trkpt lat="44.0128133" lon="11.9588433"><ele>187.0</ele><time>2026-04-18T11:29:13.094Z</time></trkpt><trkpt lat="44.0128417" lon="11.959045"><ele>188.0</ele><time>2026-04-18T11:29:14.094Z</time></trkpt><trkpt lat="44.012865" lon="11.9592667"><ele>189.66666666666666</ele><time>2026-04-18T11:29:15.094Z</time></trkpt><trkpt lat="44.0128883" lon="11.959485"><ele>191.33333333333331</ele><time>2026-04-18T11:29:16.094Z</time></trkpt><trkpt lat="44.0129167" lon="11.9596967"><ele>193.0</ele><time>2026-04-18T11:29:17.094Z</time></trkpt><trkpt lat="44.01295" lon="11.9599117"><ele>196.0</ele><time>2026-04-18T11:29:18.093Z</time></trkpt><trkpt lat="44.0129833" lon="11.96013"><ele>199.0</ele><time>2026-04-18T11:29:19.094Z</time></trkpt><trkpt lat="44.0130033" lon="11.9603417"><ele>202.0</ele><time>2026-04-18T11:29:20.094Z</time></trkpt><trkpt lat="44.01303" lon="11.960555"><ele>202.0</ele><time>2026-04-18T11:29:21.094Z</time></trkpt><trkpt lat="44.01307" lon="11.96077"><ele>202.0</ele><time>2026-04-18T11:29:22.094Z</time></trkpt><trkpt lat="44.0131283" lon="11.9609833"><ele>202.0</ele><time>2026-04-18T11:29:23.093Z</time></trkpt><trkpt lat="44.0131967" lon="11.961185"><ele>204.0</ele><time>2026-04-18T11:29:24.094Z</time></trkpt><trkpt lat="44.013275" lon="11.9613767"><ele>206.0</ele><time>2026-04-18T11:29:25.094Z</time></trkpt><trkpt lat="44.01336" lon="11.96156"><ele>208.0</ele><time>2026-04-18T11:29:26.094Z</time></trkpt><trkpt lat="44.01345" lon="11.9617333"><ele>204.0</ele><time>2026-04-18T11:29:27.093Z</time></trkpt><trkpt lat="44.013545" lon="11.961915"><ele>200.0</ele><time>2026-04-18T11:29:28.094Z</time></trkpt><trkpt lat="44.01364" lon="11.9620983"><ele>196.0</ele><time>2026-04-18T11:29:29.094Z</time></trkpt><trkpt lat="44.0137367" lon="11.962285"><ele>196.0</ele><time>2026-04-18T11:29:30.094Z</time></trkpt><trkpt lat="44.0138367" lon="11.962475"><ele>196.0</ele><time>2026-04-18T11:29:31.094Z</time></trkpt><trkpt lat="44.0139383" lon="11.96266"><ele>196.0</ele><time>2026-04-18T11:29:32.094Z</time></trkpt><trkpt lat="44.0140367" lon="11.9628333"><ele>193.33333333333331</ele><time>2026-04-18T11:29:33.094Z</time></trkpt><trkpt lat="44.0141483" lon="11.9630017"><ele>190.66666666666666</ele><time>2026-04-18T11:29:34.094Z</time></trkpt><trkpt lat="44.0142667" lon="11.9631667"><ele>188.0</ele><time>2026-04-18T11:29:35.094Z</time></trkpt><trkpt lat="44.0143967" lon="11.9633267"><ele>191.0</ele><time>2026-04-18T11:29:36.094Z</time></trkpt><trkpt lat="44.0145283" lon="11.963485"><ele>194.0</ele><time>2026-04-18T11:29:37.094Z</time></trkpt><trkpt lat="44.014665" lon="11.963645"><ele>197.0</ele><time>2026-04-18T11:29:38.094Z</time></trkpt><trkpt lat="44.0148017" lon="11.9638067"><ele>197.0</ele><time>2026-04-18T11:29:39.094Z</time></trkpt><trkpt lat="44.0149333" lon="11.9639717"><ele>197.0</ele><time>2026-04-18T11:29:40.094Z</time></trkpt><trkpt lat="44.0150667" lon="11.96413"><ele>197.0</ele><time>2026-04-18T11:29:41.094Z</time></trkpt><trkpt lat="44.0152" lon="11.96429"><ele>193.0</ele><time>2026-04-18T11:29:42.094Z</time></trkpt><trkpt lat="44.0153333" lon="11.9644533"><ele>189.0</ele><time>2026-04-18T11:29:43.093Z</time></trkpt><trkpt lat="44.0154517" lon="11.9645967"><ele>185.0</ele><time>2026-04-18T11:29:44.094Z</time></trkpt><trkpt lat="44.0155783" lon="11.9647383"><ele>185.0</ele><time>2026-04-18T11:29:45.094Z</time></trkpt><trkpt lat="44.015705" lon="11.9648833"><ele>185.0</ele><time>2026-04-18T11:29:46.093Z</time></trkpt><trkpt lat="44.01582" lon="11.9650317"><ele>185.0</ele><time>2026-04-18T11:29:47.094Z</time></trkpt><trkpt lat="44.01594" lon="11.9651833"><ele>183.25</ele><time>2026-04-18T11:29:48.094Z</time></trkpt><trkpt lat="44.0160517" lon="11.9653133"><ele>181.5</ele><time>2026-04-18T11:29:49.093Z</time></trkpt><trkpt lat="44.0161583" lon="11.9654417"><ele>179.75</ele><time>2026-04-18T11:29:50.093Z</time></trkpt><trkpt lat="44.0162567" lon="11.965565"><ele>178.0</ele><time>2026-04-18T11:29:51.094Z</time></trkpt><trkpt lat="44.0163633" lon="11.9657017"><ele>178.0</ele><time>2026-04-18T11:29:52.094Z</time></trkpt><trkpt lat="44.016455" lon="11.965855"><ele>178.0</ele><time>2026-04-18T11:29:53.094Z</time></trkpt><trkpt lat="44.01654" lon="11.9660233"><ele>178.0</ele><time>2026-04-18T11:29:54.094Z</time></trkpt><trkpt lat="44.0166217" lon="11.96621"><ele>178.0</ele><time>2026-04-18T11:29:55.093Z</time></trkpt><trkpt lat="44.0166983" lon="11.9664167"><ele>182.0</ele><time>2026-04-18T11:29:56.094Z</time></trkpt><trkpt lat="44.0167617" lon="11.966635"><ele>186.0</ele><time>2026-04-18T11:29:57.094Z</time></trkpt><trkpt lat="44.0168183" lon="11.9668433"><ele>190.0</ele><time>2026-04-18T11:29:58.093Z</time></trkpt><trkpt lat="44.016875" lon="11.967055"><ele>190.33333333333334</ele><time>2026-04-18T11:29:59.094Z</time></trkpt><trkpt lat="44.01693" lon="11.96727"><ele>190.66666666666666</ele><time>2026-04-18T11:30:00.093Z</time></trkpt><trkpt lat="44.016985" lon="11.9674767"><ele>191.0</ele><time>2026-04-18T11:30:01.094Z</time></trkpt><trkpt lat="44.0170383" lon="11.967665"><ele>192.75</ele><time>2026-04-18T11:30:02.094Z</time></trkpt><trkpt lat="44.017095" lon="11.9678483"><ele>194.5</ele><time>2026-04-18T11:30:03.094Z</time></trkpt><trkpt lat="44.0171617" lon="11.9680283"><ele>196.25</ele><time>2026-04-18T11:30:04.094Z</time></trkpt><trkpt lat="44.0172317" lon="11.9682033"><ele>198.0</ele><time>2026-04-18T11:30:05.094Z</time></trkpt><trkpt lat="44.0173117" lon="11.9683867"><ele>198.66666666666669</ele><time>2026-04-18T11:30:06.094Z</time></trkpt><trkpt lat="44.0174033" lon="11.9685683"><ele>199.33333333333334</ele><time>2026-04-18T11:30:07.094Z</time></trkpt><trkpt lat="44.0175" lon="11.9687467"><ele>200.0</ele><time>2026-04-18T11:30:08.093Z</time></trkpt><trkpt lat="44.0176083" lon="11.9689217"><ele>200.0</ele><time>2026-04-18T11:30:09.094Z</time></trkpt><trkpt lat="44.0177133" lon="11.96909"><ele>200.0</ele><time>2026-04-18T11:30:10.093Z</time></trkpt><trkpt lat="44.0178233" lon="11.9692367"><ele>200.0</ele><time>2026-04-18T11:30:11.094Z</time></trkpt><trkpt lat="44.017945" lon="11.9693783"><ele>200.0</ele><time>2026-04-18T11:30:12.094Z</time></trkpt><trkpt lat="44.0180633" lon="11.9695067"><ele>200.0</ele><time>2026-04-18T11:30:13.094Z</time></trkpt><trkpt lat="44.0181917" lon="11.9696467"><ele>200.0</ele><time>2026-04-18T11:30:14.094Z</time></trkpt><trkpt lat="44.018325" lon="11.9697733"><ele>200.0</ele><time>2026-04-18T11:30:15.094Z</time></trkpt><trkpt lat="44.01846" lon="11.96989"><ele>200.0</ele><time>2026-04-18T11:30:16.094Z</time></trkpt><trkpt lat="44.018595" lon="11.9700083"><ele>200.0</ele><time>2026-04-18T11:30:17.094Z</time></trkpt><trkpt lat="44.0187367" lon="11.9701167"><ele>203.66666666666669</ele><time>2026-04-18T11:30:18.094Z</time></trkpt><trkpt lat="44.0188783" lon="11.970235"><ele>207.33333333333331</ele><time>2026-04-18T11:30:19.094Z</time></trkpt><trkpt lat="44.019015" lon="11.9703517"><ele>211.0</ele><time>2026-04-18T11:30:20.093Z</time></trkpt><trkpt lat="44.0191483" lon="11.9704717"><ele>205.33333333333331</ele><time>2026-04-18T11:30:21.094Z</time></trkpt><trkpt lat="44.019275" lon="11.9705917"><ele>199.66666666666669</ele><time>2026-04-18T11:30:22.094Z</time></trkpt><trkpt lat="44.019405" lon="11.97071"><ele>194.0</ele><time>2026-04-18T11:30:23.094Z</time></trkpt><trkpt lat="44.0195283" lon="11.9708233"><ele>193.5</ele><time>2026-04-18T11:30:24.094Z</time></trkpt><trkpt lat="44.01965" lon="11.9709317"><ele>193.0</ele><time>2026-04-18T11:30:25.094Z</time></trkpt><trkpt lat="44.01977" lon="11.9710383"><ele>192.5</ele><time>2026-04-18T11:30:26.094Z</time></trkpt><trkpt lat="44.0198833" lon="11.9711417"><ele>192.0</ele><time>2026-04-18T11:30:27.094Z</time></trkpt><trkpt lat="44.0200017" lon="11.9712533"><ele>192.0</ele><time>2026-04-18T11:30:28.093Z</time></trkpt><trkpt lat="44.0201183" lon="11.9713683"><ele>192.0</ele><time>2026-04-18T11:30:29.094Z</time></trkpt><trkpt lat="44.020245" lon="11.9714867"><ele>192.0</ele><time>2026-04-18T11:30:30.094Z</time></trkpt><trkpt lat="44.0203733" lon="11.9716067"><ele>195.0</ele><time>2026-04-18T11:30:31.093Z</time></trkpt><trkpt lat="44.0204983" lon="11.97173"><ele>198.0</ele><time>2026-04-18T11:30:32.094Z</time></trkpt><trkpt lat="44.02063" lon="11.9718533"><ele>201.0</ele><time>2026-04-18T11:30:33.094Z</time></trkpt><trkpt lat="44.0207667" lon="11.9719833"><ele>197.66666666666666</ele><time>2026-04-18T11:30:34.094Z</time></trkpt><trkpt lat="44.0209083" lon="11.9721133"><ele>194.33333333333331</ele><time>2026-04-18T11:30:35.094Z</time></trkpt><trkpt lat="44.02104" lon="11.9722483"><ele>191.0</ele><time>2026-04-18T11:30:36.093Z</time></trkpt><trkpt lat="44.0211633" lon="11.9723667"><ele>191.0</ele><time>2026-04-18T11:30:37.094Z</time></trkpt><trkpt lat="44.0212867" lon="11.972485"><ele>191.0</ele><time>2026-04-18T11:30:38.093Z</time></trkpt><trkpt lat="44.0214083" lon="11.9725967"><ele>191.0</ele><time>2026-04-18T11:30:39.094Z</time></trkpt><trkpt lat="44.021535" lon="11.9727117"><ele>191.0</ele><time>2026-04-18T11:30:40.093Z</time></trkpt><trkpt lat="44.0216517" lon="11.972825"><ele>191.25</ele><time>2026-04-18T11:30:41.094Z</time></trkpt><trkpt lat="44.021775" lon="11.9729383"><ele>191.5</ele><time>2026-04-18T11:30:42.093Z</time></trkpt><trkpt lat="44.0218933" lon="11.9730483"><ele>191.75</ele><time>2026-04-18T11:30:43.094Z</time></trkpt><trkpt lat="44.0220133" lon="11.9731567"><ele>192.0</ele><time>2026-04-18T11:30:44.093Z</time></trkpt><trkpt lat="44.0221317" lon="11.9732667"><ele>192.75</ele><time>2026-04-18T11:30:45.094Z</time></trkpt><trkpt lat="44.0222483" lon="11.9733733"><ele>193.5</ele><time>2026-04-18T11:30:46.093Z</time></trkpt><trkpt lat="44.0223733" lon="11.9734867"><ele>194.25</ele><time>2026-04-18T11:30:47.094Z</time></trkpt><trkpt lat="44.0224983" lon="11.973605"><ele>195.0</ele><time>2026-04-18T11:30:48.093Z</time></trkpt><trkpt lat="44.0226267" lon="11.97372"><ele>195.0</ele><time>2026-04-18T11:30:49.094Z</time></trkpt><trkpt lat="44.02275" lon="11.9738433"><ele>195.0</ele><time>2026-04-18T11:30:50.094Z</time></trkpt><trkpt lat="44.0228733" lon="11.9739533"><ele>195.0</ele><time>2026-04-18T11:30:51.094Z</time></trkpt><trkpt lat="44.0229917" lon="11.9740617"><ele>195.0</ele><time>2026-04-18T11:30:52.094Z</time></trkpt><trkpt lat="44.0231067" lon="11.9741683"><ele>195.5</ele><time>2026-04-18T11:30:53.094Z</time></trkpt><trkpt lat="44.0232267" lon="11.9742817"><ele>196.0</ele><time>2026-04-18T11:30:54.093Z</time></trkpt><trkpt lat="44.0233417" lon="11.9743933"><ele>196.5</ele><time>2026-04-18T11:30:55.093Z</time></trkpt><trkpt lat="44.0234617" lon="11.9745067"><ele>197.0</ele><time>2026-04-18T11:30:56.093Z</time></trkpt><trkpt lat="44.0235833" lon="11.974625"><ele>197.0</ele><time>2026-04-18T11:30:57.093Z</time></trkpt><trkpt lat="44.0237117" lon="11.9747433"><ele>197.0</ele><time>2026-04-18T11:30:58.094Z</time></trkpt><trkpt lat="44.0238433" lon="11.9748617"><ele>197.0</ele><time>2026-04-18T11:30:59.094Z</time></trkpt><trkpt lat="44.0239767" lon="11.9749817"><ele>198.0</ele><time>2026-04-18T11:31:00.094Z</time></trkpt><trkpt lat="44.02411" lon="11.9751017"><ele>199.0</ele><time>2026-04-18T11:31:01.094Z</time></trkpt><trkpt lat="44.024245" lon="11.9752233"><ele>200.0</ele><time>2026-04-18T11:31:02.094Z</time></trkpt><trkpt lat="44.024375" lon="11.9753417"><ele>197.0</ele><time>2026-04-18T11:31:03.094Z</time></trkpt><trkpt lat="44.0244983" lon="11.975455"><ele>194.0</ele><time>2026-04-18T11:31:04.094Z</time></trkpt><trkpt lat="44.024625" lon="11.9755683"><ele>191.0</ele><time>2026-04-18T11:31:05.094Z</time></trkpt><trkpt lat="44.02475" lon="11.9756867"><ele>191.0</ele><time>2026-04-18T11:31:06.094Z</time></trkpt><trkpt lat="44.0248717" lon="11.975805"><ele>191.0</ele><time>2026-04-18T11:31:07.094Z</time></trkpt><trkpt lat="44.0249883" lon="11.975935"><ele>191.0</ele><time>2026-04-18T11:31:08.093Z</time></trkpt><trkpt lat="44.0250983" lon="11.9760783"><ele>191.0</ele><time>2026-04-18T11:31:09.093Z</time></trkpt><trkpt lat="44.0252017" lon="11.976235"><ele>188.33333333333331</ele><time>2026-04-18T11:31:10.094Z</time></trkpt><trkpt lat="44.0252933" lon="11.97641"><ele>185.66666666666666</ele><time>2026-04-18T11:31:11.094Z</time></trkpt><trkpt lat="44.0253817" lon="11.9766083"><ele>183.0</ele><time>2026-04-18T11:31:12.094Z</time></trkpt><trkpt lat="44.0254633" lon="11.9767933"><ele>183.0</ele><time>2026-04-18T11:31:13.094Z</time></trkpt><trkpt lat="44.02554" lon="11.9769667"><ele>183.0</ele><time>2026-04-18T11:31:14.094Z</time></trkpt><trkpt lat="44.025615" lon="11.9771333"><ele>183.0</ele><time>2026-04-18T11:31:15.094Z</time></trkpt><trkpt lat="44.0256883" lon="11.9772983"><ele>183.0</ele><time>2026-04-18T11:31:16.094Z</time></trkpt><trkpt lat="44.0257583" lon="11.9774567"><ele>182.5</ele><time>2026-04-18T11:31:17.094Z</time></trkpt><trkpt lat="44.02582" lon="11.97762"><ele>182.0</ele><time>2026-04-18T11:31:18.094Z</time></trkpt><trkpt lat="44.0258967" lon="11.9777717"><ele>181.5</ele><time>2026-04-18T11:31:19.094Z</time></trkpt><trkpt lat="44.0259683" lon="11.977925"><ele>181.0</ele><time>2026-04-18T11:31:20.093Z</time></trkpt><trkpt lat="44.02603" lon="11.978085"><ele>181.0</ele><time>2026-04-18T11:31:21.094Z</time></trkpt><trkpt lat="44.0261" lon="11.97822"><ele>181.0</ele><time>2026-04-18T11:31:22.093Z</time></trkpt><trkpt lat="44.02617" lon="11.9783583"><ele>181.0</ele><time>2026-04-18T11:31:23.094Z</time></trkpt><trkpt lat="44.0262317" lon="11.97849"><ele>181.0</ele><time>2026-04-18T11:31:24.093Z</time></trkpt><trkpt lat="44.0263017" lon="11.9786217"><ele>181.5</ele><time>2026-04-18T11:31:25.094Z</time></trkpt><trkpt lat="44.0263817" lon="11.9787617"><ele>182.0</ele><time>2026-04-18T11:31:26.094Z</time></trkpt><trkpt lat="44.0264767" lon="11.9788933"><ele>182.5</ele><time>2026-04-18T11:31:27.094Z</time></trkpt><trkpt lat="44.0265817" lon="11.9790317"><ele>183.0</ele><time>2026-04-18T11:31:28.094Z</time></trkpt><trkpt lat="44.026695" lon="11.9791783"><ele>182.33333333333334</ele><time>2026-04-18T11:31:29.094Z</time></trkpt><trkpt lat="44.0268117" lon="11.9793167"><ele>181.66666666666669</ele><time>2026-04-18T11:31:30.094Z</time></trkpt><trkpt lat="44.02693" lon="11.979465"><ele>181.0</ele><time>2026-04-18T11:31:31.094Z</time></trkpt><trkpt lat="44.0270567" lon="11.97962"><ele>181.0</ele><time>2026-04-18T11:31:32.094Z</time></trkpt><trkpt lat="44.0271733" lon="11.9797833"><ele>181.0</ele><time>2026-04-18T11:31:33.093Z</time></trkpt><trkpt lat="44.0272667" lon="11.9799517"><ele>181.0</ele><time>2026-04-18T11:31:34.094Z</time></trkpt><trkpt lat="44.0273467" lon="11.980135"><ele>181.0</ele><time>2026-04-18T11:31:35.094Z</time></trkpt><trkpt lat="44.0274233" lon="11.98034"><ele>181.0</ele><time>2026-04-18T11:31:36.094Z</time></trkpt><trkpt lat="44.0274967" lon="11.9805517"><ele>181.0</ele><time>2026-04-18T11:31:37.093Z</time></trkpt><trkpt lat="44.02757" lon="11.98076"><ele>178.66666666666669</ele><time>2026-04-18T11:31:38.093Z</time></trkpt><trkpt lat="44.0276517" lon="11.9809533"><ele>176.33333333333334</ele><time>2026-04-18T11:31:39.094Z</time></trkpt><trkpt lat="44.02775" lon="11.981135"><ele>174.0</ele><time>2026-04-18T11:31:40.094Z</time></trkpt><trkpt lat="44.0278583" lon="11.9813067"><ele>174.0</ele><time>2026-04-18T11:31:41.094Z</time></trkpt><trkpt lat="44.0279733" lon="11.9814567"><ele>174.0</ele><time>2026-04-18T11:31:42.094Z</time></trkpt><trkpt lat="44.0280917" lon="11.9816"><ele>174.0</ele><time>2026-04-18T11:31:43.093Z</time></trkpt><trkpt lat="44.0282117" lon="11.9817417"><ele>171.33333333333334</ele><time>2026-04-18T11:31:44.093Z</time></trkpt><trkpt lat="44.02833" lon="11.98188"><ele>168.66666666666669</ele><time>2026-04-18T11:31:45.094Z</time></trkpt><trkpt lat="44.02846" lon="11.9820217"><ele>166.0</ele><time>2026-04-18T11:31:46.094Z</time></trkpt><trkpt lat="44.0285817" lon="11.9821633"><ele>166.0</ele><time>2026-04-18T11:31:47.094Z</time></trkpt><trkpt lat="44.028695" lon="11.9823"><ele>166.0</ele><time>2026-04-18T11:31:48.094Z</time></trkpt><trkpt lat="44.0288183" lon="11.9824433"><ele>166.0</ele><time>2026-04-18T11:31:49.094Z</time></trkpt><trkpt lat="44.028935" lon="11.9825783"><ele>166.75</ele><time>2026-04-18T11:31:50.094Z</time></trkpt><trkpt lat="44.0290467" lon="11.9827167"><ele>167.5</ele><time>2026-04-18T11:31:51.094Z</time></trkpt><trkpt lat="44.0291583" lon="11.9828517"><ele>168.25</ele><time>2026-04-18T11:31:52.095Z</time></trkpt><trkpt lat="44.0292667" lon="11.982985"><ele>169.0</ele><time>2026-04-18T11:31:53.095Z</time></trkpt><trkpt lat="44.02939" lon="11.98313"><ele>166.66666666666669</ele><time>2026-04-18T11:31:54.094Z</time></trkpt><trkpt lat="44.02951" lon="11.9832717"><ele>164.33333333333334</ele><time>2026-04-18T11:31:55.095Z</time></trkpt><trkpt lat="44.0296317" lon="11.9834117"><ele>162.0</ele><time>2026-04-18T11:31:56.095Z</time></trkpt><trkpt lat="44.0297533" lon="11.98355"><ele>162.0</ele><time>2026-04-18T11:31:57.095Z</time></trkpt><trkpt lat="44.0298783" lon="11.98369"><ele>162.0</ele><time>2026-04-18T11:31:58.095Z</time></trkpt><trkpt lat="44.0300067" lon="11.9838333"><ele>162.0</ele><time>2026-04-18T11:31:59.095Z</time></trkpt><trkpt lat="44.030135" lon="11.9839733"><ele>161.33333333333334</ele><time>2026-04-18T11:32:00.095Z</time></trkpt><trkpt lat="44.0302567" lon="11.9841083"><ele>160.66666666666669</ele><time>2026-04-18T11:32:01.095Z</time></trkpt><trkpt lat="44.030375" lon="11.984235"><ele>160.0</ele><time>2026-04-18T11:32:02.095Z</time></trkpt><trkpt lat="44.0304933" lon="11.984365"><ele>159.66666666666669</ele><time>2026-04-18T11:32:03.095Z</time></trkpt><trkpt lat="44.0306133" lon="11.9844967"><ele>159.33333333333334</ele><time>2026-04-18T11:32:04.095Z</time></trkpt><trkpt lat="44.0307317" lon="11.9846267"><ele>159.0</ele><time>2026-04-18T11:32:05.095Z</time></trkpt><trkpt lat="44.0308467" lon="11.98476"><ele>159.0</ele><time>2026-04-18T11:32:06.095Z</time></trkpt><trkpt lat="44.0309683" lon="11.9848983"><ele>159.0</ele><time>2026-04-18T11:32:07.095Z</time></trkpt><trkpt lat="44.0310917" lon="11.9850367"><ele>159.0</ele><time>2026-04-18T11:32:08.095Z</time></trkpt><trkpt lat="44.03121" lon="11.9851683"><ele>159.0</ele><time>2026-04-18T11:32:09.095Z</time></trkpt><trkpt lat="44.0313283" lon="11.985295"><ele>159.0</ele><time>2026-04-18T11:32:10.095Z</time></trkpt><trkpt lat="44.0314383" lon="11.9854217"><ele>159.0</ele><time>2026-04-18T11:32:11.094Z</time></trkpt><trkpt lat="44.031555" lon="11.985545"><ele>159.0</ele><time>2026-04-18T11:32:12.095Z</time></trkpt><trkpt lat="44.0316683" lon="11.9856717"><ele>158.5</ele><time>2026-04-18T11:32:13.095Z</time></trkpt><trkpt lat="44.0317767" lon="11.9857883"><ele>158.0</ele><time>2026-04-18T11:32:14.095Z</time></trkpt><trkpt lat="44.03189" lon="11.9859167"><ele>157.5</ele><time>2026-04-18T11:32:15.095Z</time></trkpt><trkpt lat="44.0320067" lon="11.9860417"><ele>157.0</ele><time>2026-04-18T11:32:16.094Z</time></trkpt><trkpt lat="44.032125" lon="11.9861733"><ele>156.66666666666669</ele><time>2026-04-18T11:32:17.095Z</time></trkpt><trkpt lat="44.032245" lon="11.986305"><ele>156.33333333333334</ele><time>2026-04-18T11:32:18.094Z</time></trkpt><trkpt lat="44.03236" lon="11.9864317"><ele>156.0</ele><time>2026-04-18T11:32:19.095Z</time></trkpt><trkpt lat="44.0324783" lon="11.9865683"><ele>158.0</ele><time>2026-04-18T11:32:20.094Z</time></trkpt><trkpt lat="44.032595" lon="11.9866983"><ele>160.0</ele><time>2026-04-18T11:32:21.095Z</time></trkpt><trkpt lat="44.0327183" lon="11.9868367"><ele>162.0</ele><time>2026-04-18T11:32:22.095Z</time></trkpt><trkpt lat="44.0328417" lon="11.986975"><ele>162.0</ele><time>2026-04-18T11:32:23.095Z</time></trkpt><trkpt lat="44.0329633" lon="11.9871067"><ele>162.0</ele><time>2026-04-18T11:32:24.095Z</time></trkpt><trkpt lat="44.033085" lon="11.9872517"><ele>162.0</ele><time>2026-04-18T11:32:25.095Z</time></trkpt><trkpt lat="44.0332033" lon="11.98739"><ele>161.25</ele><time>2026-04-18T11:32:26.094Z</time></trkpt><trkpt lat="44.0333183" lon="11.9875267"><ele>160.5</ele><time>2026-04-18T11:32:27.094Z</time></trkpt><trkpt lat="44.0334233" lon="11.9876667"><ele>159.75</ele><time>2026-04-18T11:32:28.095Z</time></trkpt><trkpt lat="44.033525" lon="11.9878083"><ele>159.0</ele><time>2026-04-18T11:32:29.095Z</time></trkpt><trkpt lat="44.0336233" lon="11.9879483"><ele>159.0</ele><time>2026-04-18T11:32:30.095Z</time></trkpt><trkpt lat="44.033715" lon="11.9881033"><ele>159.0</ele><time>2026-04-18T11:32:31.095Z</time></trkpt><trkpt lat="44.033815" lon="11.9882617"><ele>159.0</ele><time>2026-04-18T11:32:32.095Z</time></trkpt><trkpt lat="44.0339167" lon="11.9884217"><ele>159.0</ele><time>2026-04-18T11:32:33.094Z</time></trkpt><trkpt lat="44.03402" lon="11.9885833"><ele>159.0</ele><time>2026-04-18T11:32:34.095Z</time></trkpt><trkpt lat="44.03412" lon="11.9887383"><ele>159.0</ele><time>2026-04-18T11:32:35.095Z</time></trkpt><trkpt lat="44.03421" lon="11.9888867"><ele>159.0</ele><time>2026-04-18T11:32:36.095Z</time></trkpt><trkpt lat="44.034315" lon="11.9890583"><ele>157.0</ele><time>2026-04-18T11:32:37.094Z</time></trkpt><trkpt lat="44.03442" lon="11.9892133"><ele>155.0</ele><time>2026-04-18T11:32:38.095Z</time></trkpt><trkpt lat="44.0345233" lon="11.9893783"><ele>153.0</ele><time>2026-04-18T11:32:39.095Z</time></trkpt><trkpt lat="44.0346283" lon="11.9895417"><ele>153.0</ele><time>2026-04-18T11:32:40.095Z</time></trkpt><trkpt lat="44.034725" lon="11.9897067"><ele>153.0</ele><time>2026-04-18T11:32:41.095Z</time></trkpt><trkpt lat="44.034825" lon="11.9898667"><ele>153.0</ele><time>2026-04-18T11:32:42.095Z</time></trkpt><trkpt lat="44.034915" lon="11.9900117"><ele>153.0</ele><time>2026-04-18T11:32:43.094Z</time></trkpt><trkpt lat="44.0350067" lon="11.99016"><ele>151.5</ele><time>2026-04-18T11:32:44.094Z</time></trkpt><trkpt lat="44.0351" lon="11.990305"><ele>150.0</ele><time>2026-04-18T11:32:45.095Z</time></trkpt><trkpt lat="44.0351983" lon="11.9904517"><ele>148.5</ele><time>2026-04-18T11:32:46.095Z</time></trkpt><trkpt lat="44.0352933" lon="11.9906067"><ele>147.0</ele><time>2026-04-18T11:32:47.094Z</time></trkpt><trkpt lat="44.0353917" lon="11.990765"><ele>149.66666666666666</ele><time>2026-04-18T11:32:48.095Z</time></trkpt><trkpt lat="44.0354933" lon="11.9909183"><ele>152.33333333333331</ele><time>2026-04-18T11:32:49.095Z</time></trkpt><trkpt lat="44.035595" lon="11.9910717"><ele>155.0</ele><time>2026-04-18T11:32:50.095Z</time></trkpt><trkpt lat="44.035695" lon="11.99123"><ele>155.0</ele><time>2026-04-18T11:32:51.095Z</time></trkpt><trkpt lat="44.0358" lon="11.99138"><ele>155.0</ele><time>2026-04-18T11:32:52.095Z</time></trkpt><trkpt lat="44.0359" lon="11.9915283"><ele>155.0</ele><time>2026-04-18T11:32:53.095Z</time></trkpt><trkpt lat="44.035995" lon="11.99168"><ele>155.0</ele><time>2026-04-18T11:32:54.095Z</time></trkpt><trkpt lat="44.036085" lon="11.9918333"><ele>153.5</ele><time>2026-04-18T11:32:55.095Z</time></trkpt><trkpt lat="44.0361783" lon="11.9919867"><ele>152.0</ele><time>2026-04-18T11:32:56.095Z</time></trkpt><trkpt lat="44.0362733" lon="11.9921333"><ele>150.5</ele><time>2026-04-18T11:32:57.095Z</time></trkpt><trkpt lat="44.03637" lon="11.9922767"><ele>149.0</ele><time>2026-04-18T11:32:58.095Z</time></trkpt><trkpt lat="44.0364783" lon="11.99241"><ele>149.0</ele><time>2026-04-18T11:32:59.095Z</time></trkpt><trkpt lat="44.036585" lon="11.9925283"><ele>149.0</ele><time>2026-04-18T11:33:00.095Z</time></trkpt><trkpt lat="44.0367" lon="11.9926283"><ele>149.0</ele><time>2026-04-18T11:33:01.095Z</time></trkpt><trkpt lat="44.0368183" lon="11.9927283"><ele>149.0</ele><time>2026-04-18T11:33:02.095Z</time></trkpt><trkpt lat="44.036945" lon="11.9928317"><ele>149.0</ele><time>2026-04-18T11:33:03.095Z</time></trkpt><trkpt lat="44.0370717" lon="11.99294"><ele>149.0</ele><time>2026-04-18T11:33:04.095Z</time></trkpt><trkpt lat="44.0372" lon="11.9930267"><ele>149.0</ele><time>2026-04-18T11:33:05.095Z</time></trkpt><trkpt lat="44.0373183" lon="11.9931433"><ele>149.0</ele><time>2026-04-18T11:33:06.095Z</time></trkpt><trkpt lat="44.0374417" lon="11.99325"><ele>148.25</ele><time>2026-04-18T11:33:07.094Z</time></trkpt><trkpt lat="44.03757" lon="11.9933567"><ele>147.5</ele><time>2026-04-18T11:33:08.095Z</time></trkpt><trkpt lat="44.0376917" lon="11.9934667"><ele>146.75</ele><time>2026-04-18T11:33:09.095Z</time></trkpt><trkpt lat="44.0378117" lon="11.9935717"><ele>146.0</ele><time>2026-04-18T11:33:10.095Z</time></trkpt><trkpt lat="44.0379267" lon="11.99367"><ele>146.0</ele><time>2026-04-18T11:33:11.094Z</time></trkpt><trkpt lat="44.0380417" lon="11.9937667"><ele>146.0</ele><time>2026-04-18T11:33:12.095Z</time></trkpt><trkpt lat="44.0381567" lon="11.9938733"><ele>146.0</ele><time>2026-04-18T11:33:13.095Z</time></trkpt><trkpt lat="44.0382667" lon="11.9939833"><ele>146.0</ele><time>2026-04-18T11:33:14.095Z</time></trkpt><trkpt lat="44.0383667" lon="11.99411"><ele>144.5</ele><time>2026-04-18T11:33:15.095Z</time></trkpt><trkpt lat="44.0384483" lon="11.99426"><ele>143.0</ele><time>2026-04-18T11:33:16.095Z</time></trkpt><trkpt lat="44.0385133" lon="11.99443"><ele>141.5</ele><time>2026-04-18T11:33:17.095Z</time></trkpt><trkpt lat="44.038565" lon="11.9946033"><ele>140.0</ele><time>2026-04-18T11:33:18.095Z</time></trkpt><trkpt lat="44.0386067" lon="11.9947883"><ele>140.0</ele><time>2026-04-18T11:33:19.094Z</time></trkpt><trkpt lat="44.03864" lon="11.994985"><ele>140.0</ele><time>2026-04-18T11:33:20.095Z</time></trkpt><trkpt lat="44.0386583" lon="11.9951817"><ele>140.0</ele><time>2026-04-18T11:33:21.095Z</time></trkpt><trkpt lat="44.038665" lon="11.9953833"><ele>140.0</ele><time>2026-04-18T11:33:22.095Z</time></trkpt><trkpt lat="44.03867" lon="11.99558"><ele>140.75</ele><time>2026-04-18T11:33:23.095Z</time></trkpt><trkpt lat="44.03868" lon="11.99578"><ele>141.5</ele><time>2026-04-18T11:33:24.095Z</time></trkpt><trkpt lat="44.0387" lon="11.9959817"><ele>142.25</ele><time>2026-04-18T11:33:25.095Z</time></trkpt><trkpt lat="44.0387317" lon="11.99618"><ele>143.0</ele><time>2026-04-18T11:33:26.094Z</time></trkpt><trkpt lat="44.0387717" lon="11.9963733"><ele>141.0</ele><time>2026-04-18T11:33:27.094Z</time></trkpt><trkpt lat="44.038815" lon="11.9965633"><ele>139.0</ele><time>2026-04-18T11:33:28.095Z</time></trkpt><trkpt lat="44.038875" lon="11.9967633"><ele>137.0</ele><time>2026-04-18T11:33:29.095Z</time></trkpt><trkpt lat="44.0389567" lon="11.996935"><ele>135.0</ele><time>2026-04-18T11:33:30.094Z</time></trkpt><trkpt lat="44.03905" lon="11.9970933"><ele>131.5</ele><time>2026-04-18T11:33:31.095Z</time></trkpt><trkpt lat="44.0391517" lon="11.9972517"><ele>128.0</ele><time>2026-04-18T11:33:32.094Z</time></trkpt><trkpt lat="44.03925" lon="11.9974067"><ele>124.5</ele><time>2026-04-18T11:33:33.095Z</time></trkpt><trkpt lat="44.0393467" lon="11.9975617"><ele>121.0</ele><time>2026-04-18T11:33:34.095Z</time></trkpt><trkpt lat="44.0394367" lon="11.9977117"><ele>121.0</ele><time>2026-04-18T11:33:35.095Z</time></trkpt><trkpt lat="44.039525" lon="11.99785"><ele>121.0</ele><time>2026-04-18T11:33:36.094Z</time></trkpt><trkpt lat="44.03961" lon="11.9979833"><ele>121.0</ele><time>2026-04-18T11:33:37.095Z</time></trkpt><trkpt lat="44.039695" lon="11.99812"><ele>121.0</ele><time>2026-04-18T11:33:38.095Z</time></trkpt><trkpt lat="44.03978" lon="11.9982617"><ele>121.0</ele><time>2026-04-18T11:33:39.094Z</time></trkpt><trkpt lat="44.0398683" lon="11.9984067"><ele>121.0</ele><time>2026-04-18T11:33:40.095Z</time></trkpt><trkpt lat="44.0399617" lon="11.9985583"><ele>121.0</ele><time>2026-04-18T11:33:41.095Z</time></trkpt><trkpt lat="44.0400567" lon="11.9987133"><ele>121.0</ele><time>2026-04-18T11:33:42.095Z</time></trkpt><trkpt lat="44.040155" lon="11.998865"><ele>121.0</ele><time>2026-04-18T11:33:43.094Z</time></trkpt><trkpt lat="44.04025" lon="11.9990117"><ele>121.0</ele><time>2026-04-18T11:33:44.095Z</time></trkpt><trkpt lat="44.0403367" lon="11.9991533"><ele>121.0</ele><time>2026-04-18T11:33:45.094Z</time></trkpt><trkpt lat="44.0404233" lon="11.9992933"><ele>121.0</ele><time>2026-04-18T11:33:46.095Z</time></trkpt><trkpt lat="44.0405117" lon="11.999445"><ele>120.75</ele><time>2026-04-18T11:33:47.094Z</time></trkpt><trkpt lat="44.0406" lon="11.9996017"><ele>120.5</ele><time>2026-04-18T11:33:48.095Z</time></trkpt><trkpt lat="44.0406883" lon="11.9997667"><ele>120.25</ele><time>2026-04-18T11:33:49.095Z</time></trkpt><trkpt lat="44.040775" lon="11.999935"><ele>120.0</ele><time>2026-04-18T11:33:50.095Z</time></trkpt><trkpt lat="44.0408567" lon="12.0001033"><ele>120.0</ele><time>2026-04-18T11:33:51.095Z</time></trkpt><trkpt lat="44.040935" lon="12.0002683"><ele>120.0</ele><time>2026-04-18T11:33:52.095Z</time></trkpt><trkpt lat="44.04101" lon="12.0004333"><ele>120.0</ele><time>2026-04-18T11:33:53.095Z</time></trkpt><trkpt lat="44.0410883" lon="12.0006"><ele>120.0</ele><time>2026-04-18T11:33:54.094Z</time></trkpt><trkpt lat="44.04117" lon="12.0007633"><ele>119.75</ele><time>2026-04-18T11:33:55.095Z</time></trkpt><trkpt lat="44.0412483" lon="12.0009333"><ele>119.5</ele><time>2026-04-18T11:33:56.095Z</time></trkpt><trkpt lat="44.0413267" lon="12.0010983"><ele>119.25</ele><time>2026-04-18T11:33:57.094Z</time></trkpt><trkpt lat="44.0414067" lon="12.00127"><ele>119.0</ele><time>2026-04-18T11:33:58.095Z</time></trkpt><trkpt lat="44.04148" lon="12.0014317"><ele>119.0</ele><time>2026-04-18T11:33:59.095Z</time></trkpt><trkpt lat="44.0415617" lon="12.0015967"><ele>119.0</ele><time>2026-04-18T11:34:00.095Z</time></trkpt><trkpt lat="44.04164" lon="12.0017683"><ele>119.0</ele><time>2026-04-18T11:34:01.095Z</time></trkpt><trkpt lat="44.0417217" lon="12.00195"><ele>119.0</ele><time>2026-04-18T11:34:02.095Z</time></trkpt><trkpt lat="44.0417917" lon="12.0021183"><ele>119.25</ele><time>2026-04-18T11:34:03.094Z</time></trkpt><trkpt lat="44.0418617" lon="12.00227"><ele>119.5</ele><time>2026-04-18T11:34:04.095Z</time></trkpt><trkpt lat="44.0419283" lon="12.0024167"><ele>119.75</ele><time>2026-04-18T11:34:05.095Z</time></trkpt><trkpt lat="44.0419917" lon="12.0025783"><ele>120.0</ele><time>2026-04-18T11:34:06.095Z</time></trkpt><trkpt lat="44.04206" lon="12.00274"><ele>119.5</ele><time>2026-04-18T11:34:07.094Z</time></trkpt><trkpt lat="44.042135" lon="12.0028883"><ele>119.0</ele><time>2026-04-18T11:34:08.095Z</time></trkpt><trkpt lat="44.0422067" lon="12.003035"><ele>118.5</ele><time>2026-04-18T11:34:09.095Z</time></trkpt><trkpt lat="44.0422783" lon="12.00319"><ele>118.0</ele><time>2026-04-18T11:34:10.094Z</time></trkpt><trkpt lat="44.0423583" lon="12.0033433"><ele>118.0</ele><time>2026-04-18T11:34:11.095Z</time></trkpt><trkpt lat="44.04243" lon="12.0035083"><ele>118.0</ele><time>2026-04-18T11:34:12.094Z</time></trkpt><trkpt lat="44.0425117" lon="12.0036883"><ele>118.0</ele><time>2026-04-18T11:34:13.094Z</time></trkpt><trkpt lat="44.0425833" lon="12.0038817"><ele>118.0</ele><time>2026-04-18T11:34:14.094Z</time></trkpt><trkpt lat="44.042635" lon="12.004085"><ele>117.75</ele><time>2026-04-18T11:34:15.094Z</time></trkpt><trkpt lat="44.042665" lon="12.0042783"><ele>117.5</ele><time>2026-04-18T11:34:16.095Z</time></trkpt><trkpt lat="44.0426967" lon="12.0044833"><ele>117.25</ele><time>2026-04-18T11:34:17.095Z</time></trkpt><trkpt lat="44.042725" lon="12.0046717"><ele>117.0</ele><time>2026-04-18T11:34:18.095Z</time></trkpt><trkpt lat="44.0427433" lon="12.0048267"><ele>117.0</ele><time>2026-04-18T11:34:19.095Z</time></trkpt><trkpt lat="44.0427583" lon="12.0049567"><ele>117.0</ele><time>2026-04-18T11:34:20.094Z</time></trkpt><trkpt lat="44.0427667" lon="12.0050617"><ele>117.0</ele><time>2026-04-18T11:34:21.095Z</time></trkpt><trkpt lat="44.042775" lon="12.005155"><ele>117.0</ele><time>2026-04-18T11:34:22.095Z</time></trkpt><trkpt lat="44.0427917" lon="12.0053133"><ele>117.0</ele><time>2026-04-18T11:34:24.095Z</time></trkpt><trkpt lat="44.0428117" lon="12.0053983"><ele>117.0</ele><time>2026-04-18T11:34:26.094Z</time></trkpt><trkpt lat="44.0428417" lon="12.0055233"><ele>117.0</ele><time>2026-04-18T11:34:38.095Z</time></trkpt><trkpt lat="44.042935" lon="12.0056283"><ele>116.99999999999999</ele><time>2026-04-18T11:34:40.095Z</time></trkpt><trkpt lat="44.043" lon="12.0056933"><ele>116.99999999999999</ele><time>2026-04-18T11:34:41.094Z</time></trkpt><trkpt lat="44.043075" lon="12.0057567"><ele>117.0</ele><time>2026-04-18T11:34:42.094Z</time></trkpt><trkpt lat="44.043155" lon="12.0058183"><ele>117.0</ele><time>2026-04-18T11:34:43.095Z</time></trkpt><trkpt lat="44.0432483" lon="12.005865"><ele>117.5</ele><time>2026-04-18T11:34:44.095Z</time></trkpt><trkpt lat="44.0433567" lon="12.0058967"><ele>118.0</ele><time>2026-04-18T11:34:45.095Z</time></trkpt><trkpt lat="44.0434717" lon="12.0059183"><ele>118.5</ele><time>2026-04-18T11:34:46.094Z</time></trkpt><trkpt lat="44.0435967" lon="12.0059417"><ele>119.0</ele><time>2026-04-18T11:34:47.095Z</time></trkpt><trkpt lat="44.0437183" lon="12.0059633"><ele>119.0</ele><time>2026-04-18T11:34:48.094Z</time></trkpt><trkpt lat="44.0438283" lon="12.0059833"><ele>119.0</ele><time>2026-04-18T11:34:49.095Z</time></trkpt><trkpt lat="44.0439333" lon="12.006"><ele>119.0</ele><time>2026-04-18T11:34:50.095Z</time></trkpt><trkpt lat="44.044025" lon="12.00602"><ele>119.0</ele><time>2026-04-18T11:34:51.095Z</time></trkpt><trkpt lat="44.044105" lon="12.00604"><ele>119.0</ele><time>2026-04-18T11:34:52.095Z</time></trkpt><trkpt lat="44.0441767" lon="12.006055"><ele>118.49999999999999</ele><time>2026-04-18T11:34:53.095Z</time></trkpt><trkpt lat="44.0442483" lon="12.0060783"><ele>118.0</ele><time>2026-04-18T11:34:54.095Z</time></trkpt><trkpt lat="44.0443183" lon="12.00609"><ele>117.5</ele><time>2026-04-18T11:34:55.095Z</time></trkpt><trkpt lat="44.0443867" lon="12.0060983"><ele>117.0</ele><time>2026-04-18T11:34:56.094Z</time></trkpt><trkpt lat="44.0445017" lon="12.0060867"><ele>116.49999999999999</ele><time>2026-04-18T11:34:58.095Z</time></trkpt><trkpt lat="44.0445583" lon="12.0060417"><ele>116.0</ele><time>2026-04-18T11:34:59.095Z</time></trkpt><trkpt lat="44.0446067" lon="12.0059733"><ele>115.99999999999999</ele><time>2026-04-18T11:35:00.094Z</time></trkpt><trkpt lat="44.0446283" lon="12.0058683"><ele>116.0</ele><time>2026-04-18T11:35:01.095Z</time></trkpt><trkpt lat="44.0446533" lon="12.0057667"><ele>116.0</ele><time>2026-04-18T11:35:02.095Z</time></trkpt><trkpt lat="44.04468" lon="12.005645"><ele>116.0</ele><time>2026-04-18T11:35:03.095Z</time></trkpt><trkpt lat="44.0447033" lon="12.00552"><ele>115.99999999999999</ele><time>2026-04-18T11:35:04.095Z</time></trkpt><trkpt lat="44.0447233" lon="12.005405"><ele>116.0</ele><time>2026-04-18T11:35:05.095Z</time></trkpt><trkpt lat="44.0447433" lon="12.00529"><ele>116.33333333333333</ele><time>2026-04-18T11:35:06.095Z</time></trkpt><trkpt lat="44.04477" lon="12.0051967"><ele>116.66666666666666</ele><time>2026-04-18T11:35:07.095Z</time></trkpt><trkpt lat="44.0448" lon="12.0051183"><ele>117.0</ele><time>2026-04-18T11:35:08.094Z</time></trkpt><trkpt lat="44.0448733" lon="12.00501"><ele>117.33333333333334</ele><time>2026-04-18T11:35:10.095Z</time></trkpt><trkpt lat="44.0449733" lon="12.00499"><ele>117.66666666666667</ele><time>2026-04-18T11:35:12.095Z</time></trkpt><trkpt lat="44.0450467" lon="12.00503"><ele>118.0</ele><time>2026-04-18T11:35:13.095Z</time></trkpt><trkpt lat="44.04512" lon="12.0050717"><ele>118.2</ele><time>2026-04-18T11:35:14.095Z</time></trkpt><trkpt lat="44.04521" lon="12.0051283"><ele>118.4</ele><time>2026-04-18T11:35:15.094Z</time></trkpt><trkpt lat="44.0453017" lon="12.00519"><ele>118.60000000000001</ele><time>2026-04-18T11:35:16.095Z</time></trkpt><trkpt lat="44.0453967" lon="12.005245"><ele>118.80000000000001</ele><time>2026-04-18T11:35:17.095Z</time></trkpt><trkpt lat="44.0454917" lon="12.0053017"><ele>119.0</ele><time>2026-04-18T11:35:18.094Z</time></trkpt><trkpt lat="44.04559" lon="12.0053533"><ele>119.0</ele><time>2026-04-18T11:35:19.095Z</time></trkpt><trkpt lat="44.0456883" lon="12.00541"><ele>119.0</ele><time>2026-04-18T11:35:20.094Z</time></trkpt><trkpt lat="44.04579" lon="12.0054667"><ele>119.0</ele><time>2026-04-18T11:35:21.095Z</time></trkpt><trkpt lat="44.0458983" lon="12.0055233"><ele>119.0</ele><time>2026-04-18T11:35:22.095Z</time></trkpt><trkpt lat="44.045995" lon="12.005575"><ele>119.0</ele><time>2026-04-18T11:35:23.095Z</time></trkpt><trkpt lat="44.046095" lon="12.0056267"><ele>118.80000000000001</ele><time>2026-04-18T11:35:24.095Z</time></trkpt><trkpt lat="44.0461933" lon="12.0056867"><ele>118.60000000000001</ele><time>2026-04-18T11:35:25.095Z</time></trkpt><trkpt lat="44.0462933" lon="12.005755"><ele>118.4</ele><time>2026-04-18T11:35:26.095Z</time></trkpt><trkpt lat="44.0464017" lon="12.005835"><ele>118.2</ele><time>2026-04-18T11:35:27.095Z</time></trkpt><trkpt lat="44.0464967" lon="12.0059033"><ele>118.0</ele><time>2026-04-18T11:35:28.095Z</time></trkpt><trkpt lat="44.04659" lon="12.0059583"><ele>117.60000000000001</ele><time>2026-04-18T11:35:29.095Z</time></trkpt><trkpt lat="44.0466883" lon="12.0060083"><ele>117.20000000000002</ele><time>2026-04-18T11:35:30.094Z</time></trkpt><trkpt lat="44.0467817" lon="12.0060583"><ele>116.8</ele><time>2026-04-18T11:35:31.094Z</time></trkpt><trkpt lat="44.046875" lon="12.0061183"><ele>116.4</ele><time>2026-04-18T11:35:32.094Z</time></trkpt><trkpt lat="44.046965" lon="12.0061917"><ele>116.0</ele><time>2026-04-18T11:35:33.095Z</time></trkpt><trkpt lat="44.0470517" lon="12.00628"><ele>116.0</ele><time>2026-04-18T11:35:34.095Z</time></trkpt><trkpt lat="44.0471317" lon="12.006385"><ele>116.0</ele><time>2026-04-18T11:35:35.095Z</time></trkpt><trkpt lat="44.047205" lon="12.0065"><ele>116.0</ele><time>2026-04-18T11:35:36.095Z</time></trkpt><trkpt lat="44.04727" lon="12.0066167"><ele>116.0</ele><time>2026-04-18T11:35:37.095Z</time></trkpt><trkpt lat="44.0473433" lon="12.006735"><ele>116.0</ele><time>2026-04-18T11:35:38.095Z</time></trkpt><trkpt lat="44.0474317" lon="12.0068583"><ele>117.0</ele><time>2026-04-18T11:35:39.094Z</time></trkpt><trkpt lat="44.0475167" lon="12.0069883"><ele>118.0</ele><time>2026-04-18T11:35:40.095Z</time></trkpt><trkpt lat="44.0476017" lon="12.0071217"><ele>119.0</ele><time>2026-04-18T11:35:41.095Z</time></trkpt><trkpt lat="44.0477067" lon="12.0072733"><ele>120.0</ele><time>2026-04-18T11:35:42.095Z</time></trkpt><trkpt lat="44.0478167" lon="12.0074283"><ele>119.2</ele><time>2026-04-18T11:35:43.094Z</time></trkpt><trkpt lat="44.047915" lon="12.0075683"><ele>118.4</ele><time>2026-04-18T11:35:44.095Z</time></trkpt><trkpt lat="44.048005" lon="12.0076733"><ele>117.6</ele><time>2026-04-18T11:35:45.094Z</time></trkpt><trkpt lat="44.0480817" lon="12.00773"><ele>116.8</ele><time>2026-04-18T11:35:46.094Z</time></trkpt><trkpt lat="44.04817" lon="12.0077433"><ele>116.0</ele><time>2026-04-18T11:35:47.095Z</time></trkpt><trkpt lat="44.048265" lon="12.0077217"><ele>118.6</ele><time>2026-04-18T11:35:48.095Z</time></trkpt><trkpt lat="44.04836" lon="12.007655"><ele>121.19999999999999</ele><time>2026-04-18T11:35:49.094Z</time></trkpt><trkpt lat="44.04845" lon="12.0075783"><ele>123.80000000000001</ele><time>2026-04-18T11:35:50.095Z</time></trkpt><trkpt lat="44.0485533" lon="12.0075033"><ele>126.4</ele><time>2026-04-18T11:35:51.095Z</time></trkpt><trkpt lat="44.0486617" lon="12.00743"><ele>129.0</ele><time>2026-04-18T11:35:52.095Z</time></trkpt><trkpt lat="44.048775" lon="12.00736"><ele>130.75</ele><time>2026-04-18T11:35:53.095Z</time></trkpt><trkpt lat="44.0488783" lon="12.007285"><ele>132.5</ele><time>2026-04-18T11:35:54.095Z</time></trkpt><trkpt lat="44.0489667" lon="12.0071767"><ele>134.25</ele><time>2026-04-18T11:35:55.095Z</time></trkpt><trkpt lat="44.049045" lon="12.00705"><ele>136.0</ele><time>2026-04-18T11:35:56.095Z</time></trkpt><trkpt lat="44.0491183" lon="12.00692"><ele>139.0</ele><time>2026-04-18T11:35:57.095Z</time></trkpt><trkpt lat="44.0491833" lon="12.0067833"><ele>142.0</ele><time>2026-04-18T11:35:58.095Z</time></trkpt><trkpt lat="44.0492533" lon="12.0066533"><ele>145.0</ele><time>2026-04-18T11:35:59.095Z</time></trkpt><trkpt lat="44.049325" lon="12.00654"><ele>148.0</ele><time>2026-04-18T11:36:00.094Z</time></trkpt><trkpt lat="44.04942" lon="12.0064417"><ele>151.25</ele><time>2026-04-18T11:36:01.094Z</time></trkpt><trkpt lat="44.049515" lon="12.0063767"><ele>154.5</ele><time>2026-04-18T11:36:02.095Z</time></trkpt><trkpt lat="44.049635" lon="12.0063433"><ele>157.75</ele><time>2026-04-18T11:36:03.095Z</time></trkpt><trkpt lat="44.0497533" lon="12.0063417"><ele>161.0</ele><time>2026-04-18T11:36:04.095Z</time></trkpt><trkpt lat="44.049885" lon="12.00635"><ele>164.25</ele><time>2026-04-18T11:36:05.095Z</time></trkpt><trkpt lat="44.0500133" lon="12.0063417"><ele>167.5</ele><time>2026-04-18T11:36:06.095Z</time></trkpt><trkpt lat="44.0501367" lon="12.006335"><ele>170.75</ele><time>2026-04-18T11:36:07.094Z</time></trkpt><trkpt lat="44.05025" lon="12.0063383"><ele>174.0</ele><time>2026-04-18T11:36:08.095Z</time></trkpt><trkpt lat="44.0503583" lon="12.00632"><ele>174.0</ele><time>2026-04-18T11:36:09.095Z</time></trkpt><trkpt lat="44.0504683" lon="12.0063183"><ele>174.0</ele><time>2026-04-18T11:36:10.095Z</time></trkpt><trkpt lat="44.05057" lon="12.0063167"><ele>174.0</ele><time>2026-04-18T11:36:11.095Z</time></trkpt><trkpt lat="44.0506583" lon="12.0063317"><ele>174.0</ele><time>2026-04-18T11:36:12.095Z</time></trkpt><trkpt lat="44.0507333" lon="12.0063483"><ele>174.0</ele><time>2026-04-18T11:36:13.095Z</time></trkpt><trkpt lat="44.0508433" lon="12.00634"><ele>178.2</ele><time>2026-04-18T11:36:15.095Z</time></trkpt><trkpt lat="44.0508883" lon="12.0062333"><ele>182.39999999999998</ele><time>2026-04-18T11:36:17.095Z</time></trkpt><trkpt lat="44.050895" lon="12.00614"><ele>186.6</ele><time>2026-04-18T11:36:18.095Z</time></trkpt><trkpt lat="44.0508883" lon="12.0060083"><ele>190.8</ele><time>2026-04-18T11:36:19.095Z</time></trkpt><trkpt lat="44.05086" lon="12.005845"><ele>195.0</ele><time>2026-04-18T11:36:20.095Z</time></trkpt><trkpt lat="44.0508167" lon="12.005695"><ele>195.8</ele><time>2026-04-18T11:36:21.095Z</time></trkpt><trkpt lat="44.0507433" lon="12.0055817"><ele>196.6</ele><time>2026-04-18T11:36:22.095Z</time></trkpt><trkpt lat="44.050655" lon="12.005495"><ele>197.39999999999998</ele><time>2026-04-18T11:36:23.095Z</time></trkpt><trkpt lat="44.0505583" lon="12.00542"><ele>198.2</ele><time>2026-04-18T11:36:24.095Z</time></trkpt><trkpt lat="44.0504617" lon="12.0053817"><ele>199.0</ele><time>2026-04-18T11:36:25.095Z</time></trkpt><trkpt lat="44.0503933" lon="12.0053417"><ele>199.0</ele><time>2026-04-18T11:36:26.095Z</time></trkpt><trkpt lat="44.050305" lon="12.0052667"><ele>199.0</ele><time>2026-04-18T11:36:28.095Z</time></trkpt><trkpt lat="44.0503833" lon="12.005305"><ele>199.0</ele><time>2026-04-18T11:36:31.094Z</time></trkpt><trkpt lat="44.0505067" lon="12.005325"><ele>199.0</ele><time>2026-04-18T11:36:32.094Z</time></trkpt><trkpt lat="44.050625" lon="12.00536"><ele>199.0</ele><time>2026-04-18T11:36:33.095Z</time></trkpt><trkpt lat="44.0507383" lon="12.005415"><ele>201.79999999999998</ele><time>2026-04-18T11:36:34.094Z</time></trkpt><trkpt lat="44.0508383" lon="12.0054833"><ele>204.6</ele><time>2026-04-18T11:36:35.095Z</time></trkpt><trkpt lat="44.050915" lon="12.005575"><ele>207.4</ele><time>2026-04-18T11:36:36.095Z</time></trkpt><trkpt lat="44.050975" lon="12.005665"><ele>210.2</ele><time>2026-04-18T11:36:37.095Z</time></trkpt><trkpt lat="44.0510367" lon="12.005745"><ele>213.0</ele><time>2026-04-18T11:36:38.094Z</time></trkpt><trkpt lat="44.051105" lon="12.0057933"><ele>213.0</ele><time>2026-04-18T11:36:39.095Z</time></trkpt><trkpt lat="44.051205" lon="12.0058267"><ele>213.0</ele><time>2026-04-18T11:36:40.095Z</time></trkpt><trkpt lat="44.0512917" lon="12.00582"><ele>213.0</ele><time>2026-04-18T11:36:41.095Z</time></trkpt><trkpt lat="44.0513767" lon="12.0058067"><ele>213.0</ele><time>2026-04-18T11:36:42.095Z</time></trkpt><trkpt lat="44.0514567" lon="12.00572"><ele>213.0</ele><time>2026-04-18T11:36:44.094Z</time></trkpt><trkpt lat="44.0514383" lon="12.0056183"><ele>213.0</ele><time>2026-04-18T11:36:45.095Z</time></trkpt><trkpt lat="44.051365" lon="12.0055"><ele>213.0</ele><time>2026-04-18T11:36:46.095Z</time></trkpt><trkpt lat="44.0512883" lon="12.0053767"><ele>213.0</ele><time>2026-04-18T11:36:47.095Z</time></trkpt><trkpt lat="44.05122" lon="12.00526"><ele>213.0</ele><time>2026-04-18T11:36:48.094Z</time></trkpt><trkpt lat="44.05116" lon="12.0051467"><ele>213.0</ele><time>2026-04-18T11:36:49.095Z</time></trkpt><trkpt lat="44.0511117" lon="12.0050267"><ele>215.0</ele><time>2026-04-18T11:36:50.095Z</time></trkpt><trkpt lat="44.0510583" lon="12.0048983"><ele>217.0</ele><time>2026-04-18T11:36:51.095Z</time></trkpt><trkpt lat="44.051035" lon="12.0047883"><ele>219.0</ele><time>2026-04-18T11:36:52.095Z</time></trkpt><trkpt lat="44.05104" lon="12.0046817"><ele>221.0</ele><time>2026-04-18T11:36:53.095Z</time></trkpt><trkpt lat="44.0510633" lon="12.0045667"><ele>223.0</ele><time>2026-04-18T11:36:54.095Z</time></trkpt><trkpt lat="44.0511217" lon="12.0044483"><ele>223.0</ele><time>2026-04-18T11:36:55.095Z</time></trkpt><trkpt lat="44.0512117" lon="12.0043483"><ele>223.0</ele><time>2026-04-18T11:36:56.095Z</time></trkpt><trkpt lat="44.0513067" lon="12.00425"><ele>223.0</ele><time>2026-04-18T11:36:57.095Z</time></trkpt><trkpt lat="44.0514183" lon="12.004145"><ele>223.0</ele><time>2026-04-18T11:36:58.095Z</time></trkpt><trkpt lat="44.0515317" lon="12.004035"><ele>229.0</ele><time>2026-04-18T11:36:59.095Z</time></trkpt><trkpt lat="44.0516517" lon="12.0039033"><ele>235.0</ele><time>2026-04-18T11:37:00.095Z</time></trkpt><trkpt lat="44.051775" lon="12.0037833"><ele>241.0</ele><time>2026-04-18T11:37:01.095Z</time></trkpt><trkpt lat="44.0519" lon="12.0036483"><ele>241.0</ele><time>2026-04-18T11:37:02.095Z</time></trkpt><trkpt lat="44.0520217" lon="12.00351"><ele>241.0</ele><time>2026-04-18T11:37:03.095Z</time></trkpt><trkpt lat="44.05215" lon="12.0033583"><ele>241.0</ele><time>2026-04-18T11:37:04.095Z</time></trkpt><trkpt lat="44.0522783" lon="12.0032083"><ele>241.75</ele><time>2026-04-18T11:37:05.095Z</time></trkpt><trkpt lat="44.0524033" lon="12.0030533"><ele>242.5</ele><time>2026-04-18T11:37:06.095Z</time></trkpt><trkpt lat="44.0525133" lon="12.002915"><ele>243.25</ele><time>2026-04-18T11:37:07.094Z</time></trkpt><trkpt lat="44.0526067" lon="12.0027917"><ele>244.0</ele><time>2026-04-18T11:37:08.094Z</time></trkpt><trkpt lat="44.0526883" lon="12.00266"><ele>246.5</ele><time>2026-04-18T11:37:09.094Z</time></trkpt><trkpt lat="44.052755" lon="12.0025083"><ele>249.0</ele><time>2026-04-18T11:37:10.095Z</time></trkpt><trkpt lat="44.052815" lon="12.0023283"><ele>251.5</ele><time>2026-04-18T11:37:11.095Z</time></trkpt><trkpt lat="44.0528683" lon="12.0021567"><ele>254.0</ele><time>2026-04-18T11:37:12.095Z</time></trkpt><trkpt lat="44.052905" lon="12.0019967"><ele>254.0</ele><time>2026-04-18T11:37:13.095Z</time></trkpt><trkpt lat="44.0529633" lon="12.0018333"><ele>254.0</ele><time>2026-04-18T11:37:14.095Z</time></trkpt><trkpt lat="44.05304" lon="12.0017067"><ele>254.0</ele><time>2026-04-18T11:37:15.095Z</time></trkpt><trkpt lat="44.053125" lon="12.0016067"><ele>254.0</ele><time>2026-04-18T11:37:16.095Z</time></trkpt><trkpt lat="44.0532183" lon="12.00153"><ele>257.2</ele><time>2026-04-18T11:37:17.095Z</time></trkpt><trkpt lat="44.053325" lon="12.0014567"><ele>260.4</ele><time>2026-04-18T11:37:18.095Z</time></trkpt><trkpt lat="44.0534283" lon="12.0014067"><ele>263.6</ele><time>2026-04-18T11:37:19.094Z</time></trkpt><trkpt lat="44.05352" lon="12.0013567"><ele>266.8</ele><time>2026-04-18T11:37:20.094Z</time></trkpt><trkpt lat="44.0536333" lon="12.0012983"><ele>270.0</ele><time>2026-04-18T11:37:21.095Z</time></trkpt><trkpt lat="44.053745" lon="12.001215"><ele>270.0</ele><time>2026-04-18T11:37:22.094Z</time></trkpt><trkpt lat="44.0538433" lon="12.0011267"><ele>270.0</ele><time>2026-04-18T11:37:23.095Z</time></trkpt><trkpt lat="44.0539383" lon="12.0010367"><ele>270.0</ele><time>2026-04-18T11:37:24.095Z</time></trkpt><trkpt lat="44.0540383" lon="12.00095"><ele>270.0</ele><time>2026-04-18T11:37:25.095Z</time></trkpt><trkpt lat="44.0541483" lon="12.00088"><ele>271.5</ele><time>2026-04-18T11:37:26.095Z</time></trkpt><trkpt lat="44.054285" lon="12.000825"><ele>273.0</ele><time>2026-04-18T11:37:27.094Z</time></trkpt><trkpt lat="44.054405" lon="12.0007583"><ele>274.5</ele><time>2026-04-18T11:37:28.095Z</time></trkpt><trkpt lat="44.0545183" lon="12.0006667"><ele>276.0</ele><time>2026-04-18T11:37:29.095Z</time></trkpt><trkpt lat="44.054645" lon="12.000575"><ele>276.0</ele><time>2026-04-18T11:37:30.094Z</time></trkpt><trkpt lat="44.0547817" lon="12.00049"><ele>276.0</ele><time>2026-04-18T11:37:31.094Z</time></trkpt><trkpt lat="44.0549267" lon="12.000415"><ele>276.0</ele><time>2026-04-18T11:37:32.095Z</time></trkpt><trkpt lat="44.0550583" lon="12.0003633"><ele>276.0</ele><time>2026-04-18T11:37:33.094Z</time></trkpt><trkpt lat="44.0551633" lon="12.0003167"><ele>280.0</ele><time>2026-04-18T11:37:34.094Z</time></trkpt><trkpt lat="44.0552567" lon="12.00026"><ele>284.0</ele><time>2026-04-18T11:37:35.095Z</time></trkpt><trkpt lat="44.0553467" lon="12.0001783"><ele>288.0</ele><time>2026-04-18T11:37:36.095Z</time></trkpt><trkpt lat="44.0554383" lon="12.0000883"><ele>292.0</ele><time>2026-04-18T11:37:37.095Z</time></trkpt><trkpt lat="44.0555183" lon="12.0000017"><ele>296.0</ele><time>2026-04-18T11:37:38.095Z</time></trkpt><trkpt lat="44.0556017" lon="11.999915"><ele>296.0</ele><time>2026-04-18T11:37:39.095Z</time></trkpt><trkpt lat="44.0556917" lon="11.9998283"><ele>296.0</ele><time>2026-04-18T11:37:40.094Z</time></trkpt><trkpt lat="44.0557817" lon="11.9997367"><ele>296.0</ele><time>2026-04-18T11:37:41.095Z</time></trkpt><trkpt lat="44.0558767" lon="11.999645"><ele>296.0</ele><time>2026-04-18T11:37:42.095Z</time></trkpt><trkpt lat="44.0559833" lon="11.9995583"><ele>299.25</ele><time>2026-04-18T11:37:43.095Z</time></trkpt><trkpt lat="44.056095" lon="11.99948"><ele>302.5</ele><time>2026-04-18T11:37:44.095Z</time></trkpt><trkpt lat="44.0562117" lon="11.999445"><ele>305.75</ele><time>2026-04-18T11:37:45.095Z</time></trkpt><trkpt lat="44.0563267" lon="11.999435"><ele>309.0</ele><time>2026-04-18T11:37:46.095Z</time></trkpt><trkpt lat="44.056425" lon="11.999405"><ele>309.0</ele><time>2026-04-18T11:37:47.095Z</time></trkpt><trkpt lat="44.0565033" lon="11.999355"><ele>309.0</ele><time>2026-04-18T11:37:48.095Z</time></trkpt><trkpt lat="44.0565717" lon="11.9992667"><ele>309.0</ele><time>2026-04-18T11:37:49.095Z</time></trkpt><trkpt lat="44.05664" lon="11.9991683"><ele>309.0</ele><time>2026-04-18T11:37:50.095Z</time></trkpt><trkpt lat="44.0567133" lon="11.9990733"><ele>309.0</ele><time>2026-04-18T11:37:51.094Z</time></trkpt><trkpt lat="44.0567817" lon="11.9989717"><ele>312.79999999999995</ele><time>2026-04-18T11:37:52.094Z</time></trkpt><trkpt lat="44.05685" lon="11.9988783"><ele>316.59999999999997</ele><time>2026-04-18T11:37:53.095Z</time></trkpt><trkpt lat="44.0569267" lon="11.9987767"><ele>320.4</ele><time>2026-04-18T11:37:54.094Z</time></trkpt><trkpt lat="44.0570067" lon="11.9986717"><ele>324.2</ele><time>2026-04-18T11:37:55.095Z</time></trkpt><trkpt lat="44.057095" lon="11.99856"><ele>328.0</ele><time>2026-04-18T11:37:56.095Z</time></trkpt><trkpt lat="44.0571867" lon="11.998445"><ele>331.0</ele><time>2026-04-18T11:37:57.095Z</time></trkpt><trkpt lat="44.057295" lon="11.9983133"><ele>334.0</ele><time>2026-04-18T11:37:58.095Z</time></trkpt><trkpt lat="44.0574183" lon="11.9981717"><ele>337.0</ele><time>2026-04-18T11:37:59.095Z</time></trkpt><trkpt lat="44.0575417" lon="11.9980467"><ele>340.25</ele><time>2026-04-18T11:38:00.095Z</time></trkpt><trkpt lat="44.05765" lon="11.9979383"><ele>343.5</ele><time>2026-04-18T11:38:01.095Z</time></trkpt><trkpt lat="44.0577433" lon="11.997845"><ele>346.75</ele><time>2026-04-18T11:38:02.095Z</time></trkpt><trkpt lat="44.0578267" lon="11.99775"><ele>350.0</ele><time>2026-04-18T11:38:03.095Z</time></trkpt><trkpt lat="44.05791" lon="11.997655"><ele>350.0</ele><time>2026-04-18T11:38:04.095Z</time></trkpt><trkpt lat="44.057985" lon="11.99756"><ele>350.0</ele><time>2026-04-18T11:38:05.095Z</time></trkpt><trkpt lat="44.0580467" lon="11.9974633"><ele>350.0</ele><time>2026-04-18T11:38:06.094Z</time></trkpt><trkpt lat="44.058105" lon="11.9973567"><ele>350.0</ele><time>2026-04-18T11:38:07.095Z</time></trkpt><trkpt lat="44.0581717" lon="11.9972617"><ele>350.0</ele><time>2026-04-18T11:38:08.095Z</time></trkpt><trkpt lat="44.0582467" lon="11.997155"><ele>353.0</ele><time>2026-04-18T11:38:09.094Z</time></trkpt><trkpt lat="44.0583267" lon="11.997045"><ele>356.0</ele><time>2026-04-18T11:38:10.095Z</time></trkpt><trkpt lat="44.05841" lon="11.996925"><ele>359.0</ele><time>2026-04-18T11:38:11.094Z</time></trkpt><trkpt lat="44.0584933" lon="11.9968033"><ele>362.0</ele><time>2026-04-18T11:38:12.095Z</time></trkpt><trkpt lat="44.0585783" lon="11.9966833"><ele>363.0</ele><time>2026-04-18T11:38:13.095Z</time></trkpt><trkpt lat="44.0586617" lon="11.996555"><ele>364.0</ele><time>2026-04-18T11:38:14.095Z</time></trkpt><trkpt lat="44.0587367" lon="11.996415"><ele>365.0</ele><time>2026-04-18T11:38:15.095Z</time></trkpt><trkpt lat="44.0587967" lon="11.9963"><ele>366.0</ele><time>2026-04-18T11:38:16.095Z</time></trkpt><trkpt lat="44.05885" lon="11.9961783"><ele>366.0</ele><time>2026-04-18T11:38:17.094Z</time></trkpt><trkpt lat="44.0589067" lon="11.996075"><ele>366.0</ele><time>2026-04-18T11:38:18.095Z</time></trkpt><trkpt lat="44.0589767" lon="11.9959683"><ele>366.0</ele><time>2026-04-18T11:38:19.095Z</time></trkpt><trkpt lat="44.0590633" lon="11.9958733"><ele>366.0</ele><time>2026-04-18T11:38:20.094Z</time></trkpt><trkpt lat="44.0591483" lon="11.9957733"><ele>366.0</ele><time>2026-04-18T11:38:21.094Z</time></trkpt><trkpt lat="44.0592317" lon="11.99569"><ele>368.6666666666667</ele><time>2026-04-18T11:38:22.095Z</time></trkpt><trkpt lat="44.059305" lon="11.9956167"><ele>371.3333333333333</ele><time>2026-04-18T11:38:23.095Z</time></trkpt><trkpt lat="44.05938" lon="11.99556"><ele>374.0</ele><time>2026-04-18T11:38:24.095Z</time></trkpt><trkpt lat="44.0594467" lon="11.9954933"><ele>376.66666666666663</ele><time>2026-04-18T11:38:25.094Z</time></trkpt><trkpt lat="44.059495" lon="11.9954083"><ele>379.3333333333333</ele><time>2026-04-18T11:38:26.095Z</time></trkpt><trkpt lat="44.0595333" lon="11.9953217"><ele>382.0</ele><time>2026-04-18T11:38:27.095Z</time></trkpt><trkpt lat="44.05957" lon="11.995225"><ele>382.0</ele><time>2026-04-18T11:38:28.094Z</time></trkpt><trkpt lat="44.0596017" lon="11.9951283"><ele>382.0</ele><time>2026-04-18T11:38:29.095Z</time></trkpt><trkpt lat="44.059635" lon="11.9950333"><ele>382.0</ele><time>2026-04-18T11:38:30.095Z</time></trkpt><trkpt lat="44.0596783" lon="11.9949417"><ele>382.0</ele><time>2026-04-18T11:38:31.094Z</time></trkpt><trkpt lat="44.0597217" lon="11.9948517"><ele>382.0</ele><time>2026-04-18T11:38:32.095Z</time></trkpt><trkpt lat="44.0597733" lon="11.994745"><ele>382.0</ele><time>2026-04-18T11:38:33.095Z</time></trkpt><trkpt lat="44.0598167" lon="11.9946317"><ele>383.40000000000003</ele><time>2026-04-18T11:38:34.095Z</time></trkpt><trkpt lat="44.059855" lon="11.99449"><ele>384.8</ele><time>2026-04-18T11:38:35.094Z</time></trkpt><trkpt lat="44.0598833" lon="11.9943567"><ele>386.2</ele><time>2026-04-18T11:38:36.095Z</time></trkpt><trkpt lat="44.0599117" lon="11.9942267"><ele>387.6</ele><time>2026-04-18T11:38:37.095Z</time></trkpt><trkpt lat="44.0599333" lon="11.9941167"><ele>389.0</ele><time>2026-04-18T11:38:38.094Z</time></trkpt><trkpt lat="44.0599483" lon="11.99403"><ele>391.79999999999995</ele><time>2026-04-18T11:38:39.095Z</time></trkpt><trkpt lat="44.0599667" lon="11.9939417"><ele>394.59999999999997</ele><time>2026-04-18T11:38:40.094Z</time></trkpt><trkpt lat="44.0600067" lon="11.9937883"><ele>397.4</ele><time>2026-04-18T11:38:42.095Z</time></trkpt><trkpt lat="44.060065" lon="11.9936767"><ele>400.2</ele><time>2026-04-18T11:38:44.095Z</time></trkpt><trkpt lat="44.0601383" lon="11.99358"><ele>403.0</ele><time>2026-04-18T11:38:46.095Z</time></trkpt><trkpt lat="44.0601917" lon="11.9935233"><ele>403.00000000000006</ele><time>2026-04-18T11:38:47.095Z</time></trkpt><trkpt lat="44.060265" lon="11.9934667"><ele>403.0</ele><time>2026-04-18T11:38:48.095Z</time></trkpt><trkpt lat="44.060345" lon="11.9934067"><ele>403.0</ele><time>2026-04-18T11:38:49.095Z</time></trkpt><trkpt lat="44.060425" lon="11.9933483"><ele>403.0</ele><time>2026-04-18T11:38:50.095Z</time></trkpt><trkpt lat="44.0605033" lon="11.99327"><ele>403.00000000000006</ele><time>2026-04-18T11:38:51.095Z</time></trkpt><trkpt lat="44.0605683" lon="11.9931933"><ele>403.0</ele><time>2026-04-18T11:38:52.095Z</time></trkpt><trkpt lat="44.0606333" lon="11.993125"><ele>403.2</ele><time>2026-04-18T11:38:53.095Z</time></trkpt><trkpt lat="44.0607017" lon="11.9930783"><ele>403.4</ele><time>2026-04-18T11:38:54.095Z</time></trkpt><trkpt lat="44.0607833" lon="11.99305"><ele>403.59999999999997</ele><time>2026-04-18T11:38:55.095Z</time></trkpt><trkpt lat="44.060895" lon="11.9930467"><ele>403.79999999999995</ele><time>2026-04-18T11:38:56.095Z</time></trkpt><trkpt lat="44.0610383" lon="11.9930833"><ele>404.0</ele><time>2026-04-18T11:38:57.094Z</time></trkpt><trkpt lat="44.0611733" lon="11.9931267"><ele>404.0</ele><time>2026-04-18T11:38:58.095Z</time></trkpt><trkpt lat="44.06129" lon="11.9931267"><ele>404.0</ele><time>2026-04-18T11:38:59.095Z</time></trkpt><trkpt lat="44.061395" lon="11.99311"><ele>404.0</ele><time>2026-04-18T11:39:00.095Z</time></trkpt><trkpt lat="44.0615033" lon="11.993065"><ele>404.0</ele><time>2026-04-18T11:39:01.095Z</time></trkpt><trkpt lat="44.0616083" lon="11.9930083"><ele>404.0</ele><time>2026-04-18T11:39:02.095Z</time></trkpt><trkpt lat="44.0617067" lon="11.992955"><ele>403.79999999999995</ele><time>2026-04-18T11:39:03.095Z</time></trkpt><trkpt lat="44.0617983" lon="11.9929267"><ele>403.59999999999997</ele><time>2026-04-18T11:39:04.094Z</time></trkpt><trkpt lat="44.0618833" lon="11.992935"><ele>403.4</ele><time>2026-04-18T11:39:05.095Z</time></trkpt><trkpt lat="44.0619683" lon="11.9929917"><ele>403.2</ele><time>2026-04-18T11:39:06.094Z</time></trkpt><trkpt lat="44.0620633" lon="11.9930883"><ele>403.0</ele><time>2026-04-18T11:39:07.094Z</time></trkpt><trkpt lat="44.0621467" lon="11.9931883"><ele>403.0</ele><time>2026-04-18T11:39:08.095Z</time></trkpt><trkpt lat="44.06221" lon="11.9932617"><ele>403.0</ele><time>2026-04-18T11:39:09.095Z</time></trkpt><trkpt lat="44.0622933" lon="11.9933133"><ele>403.0</ele><time>2026-04-18T11:39:10.095Z</time></trkpt><trkpt lat="44.0623783" lon="11.99336"><ele>403.0</ele><time>2026-04-18T11:39:11.095Z</time></trkpt><trkpt lat="44.06248" lon="11.9934133"><ele>403.0</ele><time>2026-04-18T11:39:12.095Z</time></trkpt><trkpt lat="44.062585" lon="11.9934683"><ele>402.2</ele><time>2026-04-18T11:39:13.095Z</time></trkpt><trkpt lat="44.062675" lon="11.9935283"><ele>401.4</ele><time>2026-04-18T11:39:14.095Z</time></trkpt><trkpt lat="44.0627683" lon="11.993545"><ele>400.59999999999997</ele><time>2026-04-18T11:39:15.095Z</time></trkpt><trkpt lat="44.0628567" lon="11.9935267"><ele>399.79999999999995</ele><time>2026-04-18T11:39:16.095Z</time></trkpt><trkpt lat="44.062945" lon="11.9934967"><ele>399.0</ele><time>2026-04-18T11:39:17.095Z</time></trkpt><trkpt lat="44.0630233" lon="11.9934717"><ele>399.0</ele><time>2026-04-18T11:39:18.095Z</time></trkpt><trkpt lat="44.0630967" lon="11.9934917"><ele>399.0</ele><time>2026-04-18T11:39:19.095Z</time></trkpt><trkpt lat="44.0631567" lon="11.99353"><ele>399.0</ele><time>2026-04-18T11:39:20.094Z</time></trkpt><trkpt lat="44.06325" lon="11.9936267"><ele>399.0</ele><time>2026-04-18T11:39:22.095Z</time></trkpt><trkpt lat="44.0633317" lon="11.9936883"><ele>399.0</ele><time>2026-04-18T11:39:24.095Z</time></trkpt><trkpt lat="44.0634117" lon="11.99372"><ele>399.0</ele><time>2026-04-18T11:39:27.095Z</time></trkpt><trkpt lat="44.063455" lon="11.9937983"><ele>399.2</ele><time>2026-04-18T11:39:29.095Z</time></trkpt><trkpt lat="44.0634617" lon="11.9939367"><ele>399.4</ele><time>2026-04-18T11:39:31.095Z</time></trkpt><trkpt lat="44.0634717" lon="11.99411"><ele>399.6</ele><time>2026-04-18T11:39:33.095Z</time></trkpt><trkpt lat="44.06348" lon="11.9942"><ele>399.8</ele><time>2026-04-18T11:39:34.095Z</time></trkpt><trkpt lat="44.0634983" lon="11.9943667"><ele>400.0</ele><time>2026-04-18T11:39:36.095Z</time></trkpt><trkpt lat="44.06352" lon="11.9945383"><ele>398.8571428571429</ele><time>2026-04-18T11:39:38.095Z</time></trkpt><trkpt lat="44.0635317" lon="11.994635"><ele>397.7142857142857</ele><time>2026-04-18T11:39:39.094Z</time></trkpt><trkpt lat="44.0635567" lon="11.994755"><ele>396.57142857142856</ele><time>2026-04-18T11:39:40.095Z</time></trkpt><trkpt lat="44.0635883" lon="11.9948667"><ele>395.42857142857144</ele><time>2026-04-18T11:39:41.094Z</time></trkpt><trkpt lat="44.063615" lon="11.9949617"><ele>394.2857142857143</ele><time>2026-04-18T11:39:42.095Z</time></trkpt><trkpt lat="44.0636467" lon="11.99504"><ele>393.14285714285717</ele><time>2026-04-18T11:39:43.095Z</time></trkpt><trkpt lat="44.0636867" lon="11.9951083"><ele>392.0</ele><time>2026-04-18T11:39:44.095Z</time></trkpt><trkpt lat="44.06374" lon="11.995175"><ele>388.8</ele><time>2026-04-18T11:39:45.095Z</time></trkpt><trkpt lat="44.063825" lon="11.995245"><ele>385.6</ele><time>2026-04-18T11:39:46.094Z</time></trkpt><trkpt lat="44.0639167" lon="11.9953183"><ele>382.40000000000003</ele><time>2026-04-18T11:39:47.095Z</time></trkpt><trkpt lat="44.064005" lon="11.99539"><ele>379.20000000000005</ele><time>2026-04-18T11:39:48.095Z</time></trkpt><trkpt lat="44.0640983" lon="11.9954583"><ele>376.0</ele><time>2026-04-18T11:39:49.095Z</time></trkpt><trkpt lat="44.06418" lon="11.995505"><ele>375.66666666666663</ele><time>2026-04-18T11:39:50.095Z</time></trkpt><trkpt lat="44.0642533" lon="11.99554"><ele>375.3333333333333</ele><time>2026-04-18T11:39:51.095Z</time></trkpt><trkpt lat="44.064335" lon="11.995615"><ele>375.0</ele><time>2026-04-18T11:39:53.095Z</time></trkpt><trkpt lat="44.06432" lon="11.9957317"><ele>374.6666666666667</ele><time>2026-04-18T11:39:55.095Z</time></trkpt><trkpt lat="44.06428" lon="11.9958083"><ele>374.33333333333337</ele><time>2026-04-18T11:39:56.095Z</time></trkpt><trkpt lat="44.0642267" lon="11.99589"><ele>374.0</ele><time>2026-04-18T11:39:57.095Z</time></trkpt><trkpt lat="44.0641833" lon="11.9959867"><ele>372.79999999999995</ele><time>2026-04-18T11:39:58.095Z</time></trkpt><trkpt lat="44.06415" lon="11.9961017"><ele>371.59999999999997</ele><time>2026-04-18T11:39:59.095Z</time></trkpt><trkpt lat="44.064125" lon="11.996245"><ele>370.4</ele><time>2026-04-18T11:40:00.094Z</time></trkpt><trkpt lat="44.0640967" lon="11.9964017"><ele>369.2</ele><time>2026-04-18T11:40:01.094Z</time></trkpt><trkpt lat="44.0640717" lon="11.996545"><ele>368.0</ele><time>2026-04-18T11:40:02.095Z</time></trkpt><trkpt lat="44.0640383" lon="11.996695"><ele>364.5</ele><time>2026-04-18T11:40:03.095Z</time></trkpt><trkpt lat="44.0640067" lon="11.9968467"><ele>361.0</ele><time>2026-04-18T11:40:04.095Z</time></trkpt><trkpt lat="44.0639783" lon="11.9969767"><ele>357.5</ele><time>2026-04-18T11:40:05.095Z</time></trkpt><trkpt lat="44.0639333" lon="11.99708"><ele>354.0</ele><time>2026-04-18T11:40:06.095Z</time></trkpt><trkpt lat="44.06389" lon="11.9971633"><ele>350.5</ele><time>2026-04-18T11:40:07.094Z</time></trkpt><trkpt lat="44.06385" lon="11.997235"><ele>347.0</ele><time>2026-04-18T11:40:08.095Z</time></trkpt><trkpt lat="44.0638183" lon="11.9973133"><ele>347.0</ele><time>2026-04-18T11:40:09.095Z</time></trkpt><trkpt lat="44.0638" lon="11.9974017"><ele>347.0</ele><time>2026-04-18T11:40:10.095Z</time></trkpt><trkpt lat="44.0637933" lon="11.9975017"><ele>347.0</ele><time>2026-04-18T11:40:11.095Z</time></trkpt><trkpt lat="44.0637933" lon="11.9976033"><ele>347.0</ele><time>2026-04-18T11:40:12.094Z</time></trkpt><trkpt lat="44.0637967" lon="11.99771"><ele>347.0</ele><time>2026-04-18T11:40:13.095Z</time></trkpt><trkpt lat="44.063805" lon="11.9978283"><ele>347.0</ele><time>2026-04-18T11:40:14.095Z</time></trkpt><trkpt lat="44.0638267" lon="11.9979733"><ele>344.25</ele><time>2026-04-18T11:40:15.095Z</time></trkpt><trkpt lat="44.0638683" lon="11.9981467"><ele>341.5</ele><time>2026-04-18T11:40:16.095Z</time></trkpt><trkpt lat="44.0639217" lon="11.9983217"><ele>338.75</ele><time>2026-04-18T11:40:17.095Z</time></trkpt><trkpt lat="44.0639733" lon="11.998475"><ele>336.0</ele><time>2026-04-18T11:40:18.094Z</time></trkpt><trkpt lat="44.064015" lon="11.998605"><ele>337.0</ele><time>2026-04-18T11:40:19.095Z</time></trkpt><trkpt lat="44.0640533" lon="11.998715"><ele>338.0</ele><time>2026-04-18T11:40:20.095Z</time></trkpt><trkpt lat="44.0640983" lon="11.99881"><ele>339.0</ele><time>2026-04-18T11:40:21.095Z</time></trkpt><trkpt lat="44.06416" lon="11.9989017"><ele>340.0</ele><time>2026-04-18T11:40:22.094Z</time></trkpt><trkpt lat="44.0642317" lon="11.999"><ele>341.0</ele><time>2026-04-18T11:40:23.095Z</time></trkpt><trkpt lat="44.0642983" lon="11.9991033"><ele>339.0</ele><time>2026-04-18T11:40:24.095Z</time></trkpt><trkpt lat="44.06435" lon="11.999215"><ele>337.0</ele><time>2026-04-18T11:40:25.095Z</time></trkpt><trkpt lat="44.064395" lon="11.99934"><ele>335.0</ele><time>2026-04-18T11:40:26.094Z</time></trkpt><trkpt lat="44.0644333" lon="11.9994783"><ele>333.0</ele><time>2026-04-18T11:40:27.095Z</time></trkpt><trkpt lat="44.06447" lon="11.99962"><ele>331.0</ele><time>2026-04-18T11:40:28.095Z</time></trkpt><trkpt lat="44.0644983" lon="11.9997483"><ele>331.0</ele><time>2026-04-18T11:40:29.094Z</time></trkpt><trkpt lat="44.06452" lon="11.99987"><ele>331.0</ele><time>2026-04-18T11:40:30.095Z</time></trkpt><trkpt lat="44.0645333" lon="11.999995"><ele>331.0</ele><time>2026-04-18T11:40:31.095Z</time></trkpt><trkpt lat="44.0645383" lon="12.0001233"><ele>331.0</ele><time>2026-04-18T11:40:32.095Z</time></trkpt><trkpt lat="44.064525" lon="12.0002483"><ele>331.0</ele><time>2026-04-18T11:40:33.095Z</time></trkpt><trkpt lat="44.0645217" lon="12.000355"><ele>331.0</ele><time>2026-04-18T11:40:34.095Z</time></trkpt><trkpt lat="44.064515" lon="12.0004583"><ele>331.0</ele><time>2026-04-18T11:40:35.094Z</time></trkpt><trkpt lat="44.0645217" lon="12.0005733"><ele>331.0</ele><time>2026-04-18T11:40:36.094Z</time></trkpt><trkpt lat="44.06452" lon="12.000695"><ele>331.0</ele><time>2026-04-18T11:40:37.095Z</time></trkpt><trkpt lat="44.0645233" lon="12.0008217"><ele>331.0</ele><time>2026-04-18T11:40:38.095Z</time></trkpt><trkpt lat="44.0645317" lon="12.0009717"><ele>331.0</ele><time>2026-04-18T11:40:39.094Z</time></trkpt><trkpt lat="44.0645517" lon="12.0011317"><ele>328.8</ele><time>2026-04-18T11:40:40.095Z</time></trkpt><trkpt lat="44.064585" lon="12.00129"><ele>326.6</ele><time>2026-04-18T11:40:41.095Z</time></trkpt><trkpt lat="44.0646133" lon="12.0014383"><ele>324.4</ele><time>2026-04-18T11:40:42.094Z</time></trkpt><trkpt lat="44.06463" lon="12.0015817"><ele>322.2</ele><time>2026-04-18T11:40:43.095Z</time></trkpt><trkpt lat="44.0646383" lon="12.0017117"><ele>320.0</ele><time>2026-04-18T11:40:44.095Z</time></trkpt><trkpt lat="44.0646433" lon="12.0018417"><ele>317.83333333333337</ele><time>2026-04-18T11:40:45.095Z</time></trkpt><trkpt lat="44.06465" lon="12.0019783"><ele>315.6666666666667</ele><time>2026-04-18T11:40:46.095Z</time></trkpt><trkpt lat="44.064665" lon="12.002105"><ele>313.5</ele><time>2026-04-18T11:40:47.094Z</time></trkpt><trkpt lat="44.0646933" lon="12.0022167"><ele>311.3333333333333</ele><time>2026-04-18T11:40:48.095Z</time></trkpt><trkpt lat="44.0647283" lon="12.0023183"><ele>309.16666666666663</ele><time>2026-04-18T11:40:49.095Z</time></trkpt><trkpt lat="44.064765" lon="12.0024133"><ele>307.0</ele><time>2026-04-18T11:40:50.095Z</time></trkpt><trkpt lat="44.0647983" lon="12.0025083"><ele>306.1428571428571</ele><time>2026-04-18T11:40:51.094Z</time></trkpt><trkpt lat="44.0648217" lon="12.0026"><ele>305.2857142857143</ele><time>2026-04-18T11:40:52.095Z</time></trkpt><trkpt lat="44.0648283" lon="12.002695"><ele>304.42857142857144</ele><time>2026-04-18T11:40:53.095Z</time></trkpt><trkpt lat="44.0648167" lon="12.0027917"><ele>303.57142857142856</ele><time>2026-04-18T11:40:54.095Z</time></trkpt><trkpt lat="44.0647983" lon="12.0028933"><ele>302.7142857142857</ele><time>2026-04-18T11:40:55.095Z</time></trkpt><trkpt lat="44.0647733" lon="12.0029933"><ele>301.85714285714283</ele><time>2026-04-18T11:40:56.094Z</time></trkpt><trkpt lat="44.0647467" lon="12.0031017"><ele>301.0</ele><time>2026-04-18T11:40:57.095Z</time></trkpt><trkpt lat="44.0647217" lon="12.003205"><ele>301.0</ele><time>2026-04-18T11:40:58.095Z</time></trkpt><trkpt lat="44.0647133" lon="12.003305"><ele>301.0</ele><time>2026-04-18T11:40:59.094Z</time></trkpt><trkpt lat="44.0647217" lon="12.0033967"><ele>301.0</ele><time>2026-04-18T11:41:00.095Z</time></trkpt><trkpt lat="44.0647567" lon="12.0034817"><ele>301.0</ele><time>2026-04-18T11:41:01.095Z</time></trkpt><trkpt lat="44.0648117" lon="12.0035467"><ele>301.0</ele><time>2026-04-18T11:41:02.095Z</time></trkpt><trkpt lat="44.064885" lon="12.003585"><ele>301.0</ele><time>2026-04-18T11:41:03.095Z</time></trkpt><trkpt lat="44.0649717" lon="12.0036083"><ele>301.0</ele><time>2026-04-18T11:41:04.095Z</time></trkpt><trkpt lat="44.06506" lon="12.00364"><ele>299.16666666666663</ele><time>2026-04-18T11:41:05.095Z</time></trkpt><trkpt lat="44.065125" lon="12.0037"><ele>297.3333333333333</ele><time>2026-04-18T11:41:06.095Z</time></trkpt><trkpt lat="44.065175" lon="12.003795"><ele>295.5</ele><time>2026-04-18T11:41:07.095Z</time></trkpt><trkpt lat="44.0652067" lon="12.0039017"><ele>293.6666666666667</ele><time>2026-04-18T11:41:08.095Z</time></trkpt><trkpt lat="44.0652033" lon="12.0040033"><ele>291.83333333333337</ele><time>2026-04-18T11:41:09.094Z</time></trkpt><trkpt lat="44.0651767" lon="12.0041217"><ele>290.0</ele><time>2026-04-18T11:41:10.095Z</time></trkpt><trkpt lat="44.0651283" lon="12.00424"><ele>288.6</ele><time>2026-04-18T11:41:11.094Z</time></trkpt><trkpt lat="44.0650533" lon="12.004345"><ele>287.2</ele><time>2026-04-18T11:41:12.095Z</time></trkpt><trkpt lat="44.0649717" lon="12.004445"><ele>285.8</ele><time>2026-04-18T11:41:13.094Z</time></trkpt><trkpt lat="44.0649067" lon="12.0045467"><ele>284.4</ele><time>2026-04-18T11:41:14.094Z</time></trkpt><trkpt lat="44.0648733" lon="12.0046433"><ele>283.0</ele><time>2026-04-18T11:41:15.095Z</time></trkpt><trkpt lat="44.0648767" lon="12.004735"><ele>283.0</ele><time>2026-04-18T11:41:16.095Z</time></trkpt><trkpt lat="44.064915" lon="12.0048367"><ele>283.0</ele><time>2026-04-18T11:41:17.095Z</time></trkpt><trkpt lat="44.0649783" lon="12.0049483"><ele>283.0</ele><time>2026-04-18T11:41:18.095Z</time></trkpt><trkpt lat="44.0650283" lon="12.00507"><ele>283.0</ele><time>2026-04-18T11:41:19.095Z</time></trkpt><trkpt lat="44.0650567" lon="12.0052"><ele>283.0</ele><time>2026-04-18T11:41:20.095Z</time></trkpt><trkpt lat="44.0650483" lon="12.005335"><ele>282.0</ele><time>2026-04-18T11:41:21.094Z</time></trkpt><trkpt lat="44.0650217" lon="12.0054917"><ele>281.0</ele><time>2026-04-18T11:41:22.094Z</time></trkpt><trkpt lat="44.0649883" lon="12.0056667"><ele>280.0</ele><time>2026-04-18T11:41:23.095Z</time></trkpt><trkpt lat="44.0649733" lon="12.0058267"><ele>279.0</ele><time>2026-04-18T11:41:24.095Z</time></trkpt><trkpt lat="44.06497" lon="12.0059667"><ele>278.0</ele><time>2026-04-18T11:41:25.094Z</time></trkpt><trkpt lat="44.0649783" lon="12.0060767"><ele>277.0</ele><time>2026-04-18T11:41:26.095Z</time></trkpt><trkpt lat="44.0650017" lon="12.0061817"><ele>276.0</ele><time>2026-04-18T11:41:27.095Z</time></trkpt><trkpt lat="44.0650483" lon="12.0062983"><ele>275.0</ele><time>2026-04-18T11:41:28.095Z</time></trkpt><trkpt lat="44.0651083" lon="12.00641"><ele>274.0</ele><time>2026-04-18T11:41:29.095Z</time></trkpt><trkpt lat="44.0651733" lon="12.0065133"><ele>274.0</ele><time>2026-04-18T11:41:30.095Z</time></trkpt><trkpt lat="44.0652483" lon="12.0066283"><ele>274.0</ele><time>2026-04-18T11:41:31.095Z</time></trkpt><trkpt lat="44.0653233" lon="12.0067383"><ele>274.0</ele><time>2026-04-18T11:41:32.095Z</time></trkpt><trkpt lat="44.0653983" lon="12.00683"><ele>274.0</ele><time>2026-04-18T11:41:33.095Z</time></trkpt><trkpt lat="44.0654767" lon="12.0069"><ele>274.0</ele><time>2026-04-18T11:41:34.095Z</time></trkpt><trkpt lat="44.0655517" lon="12.006945"><ele>274.0</ele><time>2026-04-18T11:41:35.095Z</time></trkpt><trkpt lat="44.0656433" lon="12.00698"><ele>274.0</ele><time>2026-04-18T11:41:36.094Z</time></trkpt><trkpt lat="44.0657417" lon="12.007015"><ele>274.0</ele><time>2026-04-18T11:41:37.095Z</time></trkpt><trkpt lat="44.06584" lon="12.00705"><ele>274.0</ele><time>2026-04-18T11:41:38.095Z</time></trkpt><trkpt lat="44.0659367" lon="12.00708"><ele>274.0</ele><time>2026-04-18T11:41:39.095Z</time></trkpt><trkpt lat="44.0660383" lon="12.007115"><ele>274.0</ele><time>2026-04-18T11:41:40.095Z</time></trkpt><trkpt lat="44.0661417" lon="12.007145"><ele>274.0</ele><time>2026-04-18T11:41:41.095Z</time></trkpt><trkpt lat="44.0662483" lon="12.0071767"><ele>274.0</ele><time>2026-04-18T11:41:42.095Z</time></trkpt><trkpt lat="44.0663517" lon="12.0072167"><ele>274.0</ele><time>2026-04-18T11:41:43.095Z</time></trkpt><trkpt lat="44.066455" lon="12.007285"><ele>274.0</ele><time>2026-04-18T11:41:44.095Z</time></trkpt><trkpt lat="44.0665567" lon="12.0073583"><ele>272.25</ele><time>2026-04-18T11:41:45.095Z</time></trkpt><trkpt lat="44.0666417" lon="12.0074567"><ele>270.5</ele><time>2026-04-18T11:41:46.095Z</time></trkpt><trkpt lat="44.0667317" lon="12.0075783"><ele>268.75</ele><time>2026-04-18T11:41:47.095Z</time></trkpt><trkpt lat="44.06683" lon="12.0077067"><ele>267.0</ele><time>2026-04-18T11:41:48.095Z</time></trkpt><trkpt lat="44.066925" lon="12.0078467"><ele>267.0</ele><time>2026-04-18T11:41:49.095Z</time></trkpt><trkpt lat="44.0670183" lon="12.0079917"><ele>267.0</ele><time>2026-04-18T11:41:50.094Z</time></trkpt><trkpt lat="44.067095" lon="12.0081217"><ele>267.0</ele><time>2026-04-18T11:41:51.095Z</time></trkpt><trkpt lat="44.0671617" lon="12.0082383"><ele>267.0</ele><time>2026-04-18T11:41:52.095Z</time></trkpt><trkpt lat="44.0672183" lon="12.0083517"><ele>268.1666666666667</ele><time>2026-04-18T11:41:53.094Z</time></trkpt><trkpt lat="44.06727" lon="12.0084567"><ele>269.3333333333333</ele><time>2026-04-18T11:41:54.095Z</time></trkpt><trkpt lat="44.06732" lon="12.00856"><ele>270.5</ele><time>2026-04-18T11:41:55.095Z</time></trkpt><trkpt lat="44.0673683" lon="12.0086533"><ele>271.66666666666663</ele><time>2026-04-18T11:41:56.095Z</time></trkpt><trkpt lat="44.0674217" lon="12.0087383"><ele>272.8333333333333</ele><time>2026-04-18T11:41:57.094Z</time></trkpt><trkpt lat="44.0674817" lon="12.0088283"><ele>274.0</ele><time>2026-04-18T11:41:58.095Z</time></trkpt><trkpt lat="44.067545" lon="12.00893"><ele>270.3333333333333</ele><time>2026-04-18T11:41:59.095Z</time></trkpt><trkpt lat="44.0676017" lon="12.0090283"><ele>266.66666666666663</ele><time>2026-04-18T11:42:00.095Z</time></trkpt><trkpt lat="44.0676567" lon="12.0091383"><ele>263.0</ele><time>2026-04-18T11:42:01.095Z</time></trkpt><trkpt lat="44.0676967" lon="12.009245"><ele>259.3333333333333</ele><time>2026-04-18T11:42:02.095Z</time></trkpt><trkpt lat="44.0677217" lon="12.0093517"><ele>255.66666666666666</ele><time>2026-04-18T11:42:03.095Z</time></trkpt><trkpt lat="44.0677367" lon="12.009465"><ele>252.0</ele><time>2026-04-18T11:42:04.095Z</time></trkpt><trkpt lat="44.067745" lon="12.0095733"><ele>252.0</ele><time>2026-04-18T11:42:05.095Z</time></trkpt><trkpt lat="44.0677433" lon="12.0096783"><ele>252.0</ele><time>2026-04-18T11:42:06.095Z</time></trkpt><trkpt lat="44.0677467" lon="12.0097817"><ele>252.0</ele><time>2026-04-18T11:42:07.095Z</time></trkpt><trkpt lat="44.0677517" lon="12.0098783"><ele>252.0</ele><time>2026-04-18T11:42:08.095Z</time></trkpt><trkpt lat="44.067755" lon="12.0099733"><ele>252.0</ele><time>2026-04-18T11:42:09.095Z</time></trkpt><trkpt lat="44.0677633" lon="12.0100667"><ele>252.0</ele><time>2026-04-18T11:42:10.095Z</time></trkpt><trkpt lat="44.067775" lon="12.0101617"><ele>252.0</ele><time>2026-04-18T11:42:11.095Z</time></trkpt><trkpt lat="44.0677983" lon="12.01025"><ele>251.42857142857144</ele><time>2026-04-18T11:42:12.095Z</time></trkpt><trkpt lat="44.06784" lon="12.0103317"><ele>250.85714285714286</ele><time>2026-04-18T11:42:13.095Z</time></trkpt><trkpt lat="44.0678933" lon="12.0103967"><ele>250.28571428571428</ele><time>2026-04-18T11:42:14.095Z</time></trkpt><trkpt lat="44.0679517" lon="12.0104517"><ele>249.71428571428572</ele><time>2026-04-18T11:42:15.095Z</time></trkpt><trkpt lat="44.0680183" lon="12.010495"><ele>249.14285714285717</ele><time>2026-04-18T11:42:16.095Z</time></trkpt><trkpt lat="44.0680917" lon="12.0105233"><ele>248.57142857142858</ele><time>2026-04-18T11:42:17.095Z</time></trkpt><trkpt lat="44.0681633" lon="12.0105483"><ele>248.0</ele><time>2026-04-18T11:42:18.095Z</time></trkpt><trkpt lat="44.06823" lon="12.01058"><ele>243.60000000000002</ele><time>2026-04-18T11:42:19.095Z</time></trkpt><trkpt lat="44.068295" lon="12.0106183"><ele>239.20000000000002</ele><time>2026-04-18T11:42:20.095Z</time></trkpt><trkpt lat="44.0684067" lon="12.0106667"><ele>234.8</ele><time>2026-04-18T11:42:22.095Z</time></trkpt><trkpt lat="44.068515" lon="12.0106367"><ele>230.4</ele><time>2026-04-18T11:42:24.095Z</time></trkpt><trkpt lat="44.0685833" lon="12.0105217"><ele>226.0</ele><time>2026-04-18T11:42:26.095Z</time></trkpt><trkpt lat="44.0686383" lon="12.0104333"><ele>225.99999999999997</ele><time>2026-04-18T11:42:28.094Z</time></trkpt><trkpt lat="44.0686933" lon="12.0103833"><ele>226.0</ele><time>2026-04-18T11:42:30.095Z</time></trkpt><trkpt lat="44.0687533" lon="12.01031"><ele>226.0</ele><time>2026-04-18T11:42:32.094Z</time></trkpt><trkpt lat="44.06882" lon="12.010205"><ele>226.0</ele><time>2026-04-18T11:42:34.095Z</time></trkpt><trkpt lat="44.0688717" lon="12.010115"><ele>225.99999999999997</ele><time>2026-04-18T11:42:36.095Z</time></trkpt><trkpt lat="44.068925" lon="12.01004"><ele>226.0</ele><time>2026-04-18T11:42:38.095Z</time></trkpt><trkpt lat="44.0689867" lon="12.0099783"><ele>226.20000000000002</ele><time>2026-04-18T11:42:41.095Z</time></trkpt><trkpt lat="44.06907" lon="12.0099267"><ele>226.40000000000003</ele><time>2026-04-18T11:42:44.095Z</time></trkpt><trkpt lat="44.06914" lon="12.00993"><ele>226.6</ele><time>2026-04-18T11:42:46.095Z</time></trkpt><trkpt lat="44.0692383" lon="12.00997"><ele>226.8</ele><time>2026-04-18T11:42:48.095Z</time></trkpt><trkpt lat="44.06933" lon="12.010015"><ele>227.0</ele><time>2026-04-18T11:42:50.095Z</time></trkpt><trkpt lat="44.0694167" lon="12.0100433"><ele>224.00000000000003</ele><time>2026-04-18T11:42:52.095Z</time></trkpt><trkpt lat="44.0694933" lon="12.01003"><ele>221.0</ele><time>2026-04-18T11:42:54.095Z</time></trkpt><trkpt lat="44.0695933" lon="12.0099567"><ele>218.0</ele><time>2026-04-18T11:42:56.095Z</time></trkpt><trkpt lat="44.0696383" lon="12.0098883"><ele>215.0</ele><time>2026-04-18T11:42:57.094Z</time></trkpt><trkpt lat="44.0696783" lon="12.00979"><ele>212.00000000000003</ele><time>2026-04-18T11:42:58.095Z</time></trkpt><trkpt lat="44.0697283" lon="12.0096683"><ele>209.0</ele><time>2026-04-18T11:42:59.095Z</time></trkpt><trkpt lat="44.0697783" lon="12.0095583"><ele>209.0</ele><time>2026-04-18T11:43:00.094Z</time></trkpt><trkpt lat="44.069825" lon="12.00946"><ele>209.0</ele><time>2026-04-18T11:43:01.095Z</time></trkpt><trkpt lat="44.069865" lon="12.0093517"><ele>209.0</ele><time>2026-04-18T11:43:02.095Z</time></trkpt><trkpt lat="44.0698967" lon="12.00924"><ele>209.0</ele><time>2026-04-18T11:43:03.095Z</time></trkpt><trkpt lat="44.0699183" lon="12.009115"><ele>209.0</ele><time>2026-04-18T11:43:04.095Z</time></trkpt><trkpt lat="44.0699317" lon="12.0089733"><ele>206.0</ele><time>2026-04-18T11:43:05.095Z</time></trkpt><trkpt lat="44.069955" lon="12.008835"><ele>203.0</ele><time>2026-04-18T11:43:06.095Z</time></trkpt><trkpt lat="44.0699833" lon="12.0087067"><ele>200.0</ele><time>2026-04-18T11:43:07.095Z</time></trkpt><trkpt lat="44.0700233" lon="12.0085833"><ele>197.0</ele><time>2026-04-18T11:43:08.095Z</time></trkpt><trkpt lat="44.07008" lon="12.0084533"><ele>194.0</ele><time>2026-04-18T11:43:09.095Z</time></trkpt><trkpt lat="44.0701517" lon="12.0083133"><ele>193.5</ele><time>2026-04-18T11:43:10.095Z</time></trkpt><trkpt lat="44.0702067" lon="12.0081833"><ele>193.0</ele><time>2026-04-18T11:43:11.095Z</time></trkpt><trkpt lat="44.0702617" lon="12.00803"><ele>192.5</ele><time>2026-04-18T11:43:12.094Z</time></trkpt><trkpt lat="44.07031" lon="12.0078767"><ele>192.0</ele><time>2026-04-18T11:43:13.094Z</time></trkpt><trkpt lat="44.0703583" lon="12.0077333"><ele>192.0</ele><time>2026-04-18T11:43:14.095Z</time></trkpt><trkpt lat="44.0703883" lon="12.0076083"><ele>192.0</ele><time>2026-04-18T11:43:15.094Z</time></trkpt><trkpt lat="44.0704283" lon="12.00749"><ele>192.0</ele><time>2026-04-18T11:43:16.094Z</time></trkpt><trkpt lat="44.070475" lon="12.007385"><ele>192.0</ele><time>2026-04-18T11:43:17.095Z</time></trkpt><trkpt lat="44.0705167" lon="12.0072783"><ele>192.0</ele><time>2026-04-18T11:43:18.095Z</time></trkpt><trkpt lat="44.070545" lon="12.00716"><ele>190.6</ele><time>2026-04-18T11:43:19.095Z</time></trkpt><trkpt lat="44.0705617" lon="12.00704"><ele>189.2</ele><time>2026-04-18T11:43:20.095Z</time></trkpt><trkpt lat="44.0705633" lon="12.00692"><ele>187.8</ele><time>2026-04-18T11:43:21.094Z</time></trkpt><trkpt lat="44.07054" lon="12.00679"><ele>186.4</ele><time>2026-04-18T11:43:22.095Z</time></trkpt><trkpt lat="44.0704867" lon="12.00666"><ele>185.0</ele><time>2026-04-18T11:43:23.095Z</time></trkpt><trkpt lat="44.0704217" lon="12.0065417"><ele>184.16666666666666</ele><time>2026-04-18T11:43:24.095Z</time></trkpt><trkpt lat="44.07035" lon="12.00645"><ele>183.33333333333331</ele><time>2026-04-18T11:43:25.094Z</time></trkpt><trkpt lat="44.0702817" lon="12.0064017"><ele>182.5</ele><time>2026-04-18T11:43:26.095Z</time></trkpt><trkpt lat="44.0702067" lon="12.0063583"><ele>181.66666666666666</ele><time>2026-04-18T11:43:27.095Z</time></trkpt><trkpt lat="44.0701567" lon="12.0063017"><ele>180.83333333333334</ele><time>2026-04-18T11:43:28.094Z</time></trkpt><trkpt lat="44.070155" lon="12.0061217"><ele>180.0</ele><time>2026-04-18T11:43:30.095Z</time></trkpt><trkpt lat="44.0702167" lon="12.00604"><ele>180.0</ele><time>2026-04-18T11:43:31.095Z</time></trkpt><trkpt lat="44.0703067" lon="12.0059617"><ele>180.0</ele><time>2026-04-18T11:43:32.095Z</time></trkpt><trkpt lat="44.0704267" lon="12.0058883"><ele>180.0</ele><time>2026-04-18T11:43:33.095Z</time></trkpt><trkpt lat="44.070545" lon="12.0058367"><ele>180.0</ele><time>2026-04-18T11:43:34.094Z</time></trkpt><trkpt lat="44.070665" lon="12.0058083"><ele>180.25</ele><time>2026-04-18T11:43:35.095Z</time></trkpt><trkpt lat="44.0707967" lon="12.0058117"><ele>180.5</ele><time>2026-04-18T11:43:36.095Z</time></trkpt><trkpt lat="44.0709317" lon="12.005835"><ele>180.75</ele><time>2026-04-18T11:43:37.095Z</time></trkpt><trkpt lat="44.0710667" lon="12.0058633"><ele>181.0</ele><time>2026-04-18T11:43:38.094Z</time></trkpt><trkpt lat="44.0711967" lon="12.0058883"><ele>181.0</ele><time>2026-04-18T11:43:39.095Z</time></trkpt><trkpt lat="44.0712983" lon="12.0059033"><ele>181.0</ele><time>2026-04-18T11:43:40.094Z</time></trkpt><trkpt lat="44.0713717" lon="12.0058817"><ele>181.0</ele><time>2026-04-18T11:43:41.095Z</time></trkpt><trkpt lat="44.0714617" lon="12.00576"><ele>181.0</ele><time>2026-04-18T11:43:43.094Z</time></trkpt><trkpt lat="44.071455" lon="12.005635"><ele>181.0</ele><time>2026-04-18T11:43:44.094Z</time></trkpt><trkpt lat="44.0714217" lon="12.0054917"><ele>181.0</ele><time>2026-04-18T11:43:45.095Z</time></trkpt><trkpt lat="44.0713717" lon="12.0053183"><ele>181.0</ele><time>2026-04-18T11:43:46.095Z</time></trkpt><trkpt lat="44.0713083" lon="12.0051217"><ele>181.0</ele><time>2026-04-18T11:43:47.095Z</time></trkpt><trkpt lat="44.071235" lon="12.0048883"><ele>184.66666666666669</ele><time>2026-04-18T11:43:48.095Z</time></trkpt><trkpt lat="44.07117" lon="12.004655"><ele>188.33333333333334</ele><time>2026-04-18T11:43:49.095Z</time></trkpt><trkpt lat="44.07111" lon="12.0044283"><ele>192.0</ele><time>2026-04-18T11:43:50.095Z</time></trkpt><trkpt lat="44.0710633" lon="12.0041933"><ele>195.33333333333331</ele><time>2026-04-18T11:43:51.095Z</time></trkpt><trkpt lat="44.0710233" lon="12.003945"><ele>198.66666666666666</ele><time>2026-04-18T11:43:52.095Z</time></trkpt><trkpt lat="44.0709783" lon="12.00369"><ele>202.0</ele><time>2026-04-18T11:43:53.094Z</time></trkpt><trkpt lat="44.0709317" lon="12.0034483"><ele>203.75</ele><time>2026-04-18T11:43:54.095Z</time></trkpt><trkpt lat="44.070895" lon="12.0032667"><ele>205.5</ele><time>2026-04-18T11:43:55.095Z</time></trkpt><trkpt lat="44.070855" lon="12.003125"><ele>207.25</ele><time>2026-04-18T11:43:56.095Z</time></trkpt><trkpt lat="44.0707883" lon="12.00297"><ele>209.0</ele><time>2026-04-18T11:43:57.095Z</time></trkpt><trkpt lat="44.0707017" lon="12.002795"><ele>209.0</ele><time>2026-04-18T11:43:58.095Z</time></trkpt><trkpt lat="44.0706017" lon="12.0025867"><ele>209.0</ele><time>2026-04-18T11:43:59.094Z</time></trkpt><trkpt lat="44.0704983" lon="12.0023867"><ele>209.0</ele><time>2026-04-18T11:44:00.095Z</time></trkpt><trkpt lat="44.0703833" lon="12.00218"><ele>213.0</ele><time>2026-04-18T11:44:01.095Z</time></trkpt><trkpt lat="44.0702733" lon="12.00198"><ele>217.0</ele><time>2026-04-18T11:44:02.095Z</time></trkpt><trkpt lat="44.070165" lon="12.0017983"><ele>221.0</ele><time>2026-04-18T11:44:03.095Z</time></trkpt><trkpt lat="44.0700717" lon="12.0016167"><ele>223.25</ele><time>2026-04-18T11:44:04.095Z</time></trkpt><trkpt lat="44.0699833" lon="12.0014417"><ele>225.5</ele><time>2026-04-18T11:44:05.094Z</time></trkpt><trkpt lat="44.0699083" lon="12.00128"><ele>227.75</ele><time>2026-04-18T11:44:06.094Z</time></trkpt><trkpt lat="44.0698367" lon="12.001125"><ele>230.0</ele><time>2026-04-18T11:44:07.095Z</time></trkpt><trkpt lat="44.0697833" lon="12.0009867"><ele>230.6</ele><time>2026-04-18T11:44:08.095Z</time></trkpt><trkpt lat="44.0697567" lon="12.000855"><ele>231.2</ele><time>2026-04-18T11:44:09.094Z</time></trkpt><trkpt lat="44.06976" lon="12.0007117"><ele>231.8</ele><time>2026-04-18T11:44:10.095Z</time></trkpt><trkpt lat="44.0697933" lon="12.000595"><ele>232.4</ele><time>2026-04-18T11:44:11.094Z</time></trkpt><trkpt lat="44.06985" lon="12.0004817"><ele>233.0</ele><time>2026-04-18T11:44:12.094Z</time></trkpt><trkpt lat="44.069925" lon="12.00037"><ele>236.66666666666669</ele><time>2026-04-18T11:44:13.095Z</time></trkpt><trkpt lat="44.0700267" lon="12.00024"><ele>240.33333333333331</ele><time>2026-04-18T11:44:14.094Z</time></trkpt><trkpt lat="44.0701467" lon="12.000105"><ele>244.0</ele><time>2026-04-18T11:44:15.094Z</time></trkpt><trkpt lat="44.0702667" lon="11.999955"><ele>244.0</ele><time>2026-04-18T11:44:16.095Z</time></trkpt><trkpt lat="44.0703917" lon="11.9997833"><ele>244.0</ele><time>2026-04-18T11:44:17.094Z</time></trkpt><trkpt lat="44.0705017" lon="11.9996033"><ele>244.0</ele><time>2026-04-18T11:44:18.095Z</time></trkpt><trkpt lat="44.07058" lon="11.99944"><ele>244.0</ele><time>2026-04-18T11:44:19.095Z</time></trkpt><trkpt lat="44.0706333" lon="11.9992983"><ele>243.99999999999997</ele><time>2026-04-18T11:44:20.095Z</time></trkpt><trkpt lat="44.070665" lon="11.9991883"><ele>243.99999999999997</ele><time>2026-04-18T11:44:21.095Z</time></trkpt><trkpt lat="44.070655" lon="11.9990233"><ele>244.0</ele><time>2026-04-18T11:44:23.095Z</time></trkpt><trkpt lat="44.0706" lon="11.9989617"><ele>244.0</ele><time>2026-04-18T11:44:24.095Z</time></trkpt><trkpt lat="44.070515" lon="11.9989233"><ele>247.0</ele><time>2026-04-18T11:44:25.095Z</time></trkpt><trkpt lat="44.0704183" lon="11.9989067"><ele>250.0</ele><time>2026-04-18T11:44:26.095Z</time></trkpt><trkpt lat="44.0703117" lon="11.9989133"><ele>253.0</ele><time>2026-04-18T11:44:27.095Z</time></trkpt><trkpt lat="44.07017" lon="11.99893"><ele>256.0</ele><time>2026-04-18T11:44:28.095Z</time></trkpt><trkpt lat="44.070025" lon="11.99894"><ele>255.5</ele><time>2026-04-18T11:44:29.095Z</time></trkpt><trkpt lat="44.06987" lon="11.998935"><ele>255.0</ele><time>2026-04-18T11:44:30.095Z</time></trkpt><trkpt lat="44.0697283" lon="11.9989217"><ele>254.5</ele><time>2026-04-18T11:44:31.095Z</time></trkpt><trkpt lat="44.06961" lon="11.9988933"><ele>254.0</ele><time>2026-04-18T11:44:32.095Z</time></trkpt><trkpt lat="44.0695317" lon="11.998845"><ele>254.00000000000003</ele><time>2026-04-18T11:44:33.095Z</time></trkpt><trkpt lat="44.06948" lon="11.9987767"><ele>254.0</ele><time>2026-04-18T11:44:34.095Z</time></trkpt><trkpt lat="44.069425" lon="11.9986967"><ele>254.0</ele><time>2026-04-18T11:44:35.094Z</time></trkpt><trkpt lat="44.0693733" lon="11.9986017"><ele>254.0</ele><time>2026-04-18T11:44:36.095Z</time></trkpt><trkpt lat="44.0693167" lon="11.9984883"><ele>254.00000000000003</ele><time>2026-04-18T11:44:37.095Z</time></trkpt><trkpt lat="44.0692433" lon="11.9983717"><ele>254.0</ele><time>2026-04-18T11:44:38.095Z</time></trkpt><trkpt lat="44.06916" lon="11.9982483"><ele>257.2</ele><time>2026-04-18T11:44:39.095Z</time></trkpt><trkpt lat="44.0690733" lon="11.998145"><ele>260.4</ele><time>2026-04-18T11:44:40.095Z</time></trkpt><trkpt lat="44.0690167" lon="11.9980433"><ele>263.6</ele><time>2026-04-18T11:44:41.095Z</time></trkpt><trkpt lat="44.06898" lon="11.99794"><ele>266.8</ele><time>2026-04-18T11:44:42.095Z</time></trkpt><trkpt lat="44.068955" lon="11.997815"><ele>270.0</ele><time>2026-04-18T11:44:43.095Z</time></trkpt><trkpt lat="44.068945" lon="11.9976933"><ele>270.0</ele><time>2026-04-18T11:44:44.094Z</time></trkpt><trkpt lat="44.068945" lon="11.9975517"><ele>270.0</ele><time>2026-04-18T11:44:45.095Z</time></trkpt><trkpt lat="44.0689483" lon="11.99738"><ele>270.0</ele><time>2026-04-18T11:44:46.095Z</time></trkpt><trkpt lat="44.0689533" lon="11.9972067"><ele>270.0</ele><time>2026-04-18T11:44:47.095Z</time></trkpt><trkpt lat="44.0689433" lon="11.9970433"><ele>270.8</ele><time>2026-04-18T11:44:48.094Z</time></trkpt><trkpt lat="44.06894" lon="11.9968783"><ele>271.6</ele><time>2026-04-18T11:44:49.095Z</time></trkpt><trkpt lat="44.0689417" lon="11.99673"><ele>272.4</ele><time>2026-04-18T11:44:50.095Z</time></trkpt><trkpt lat="44.06895" lon="11.9965767"><ele>273.2</ele><time>2026-04-18T11:44:51.095Z</time></trkpt><trkpt lat="44.068955" lon="11.99643"><ele>274.0</ele><time>2026-04-18T11:44:52.095Z</time></trkpt><trkpt lat="44.0689417" lon="11.9963067"><ele>275.2</ele><time>2026-04-18T11:44:53.095Z</time></trkpt><trkpt lat="44.0689117" lon="11.9962017"><ele>276.4</ele><time>2026-04-18T11:44:54.095Z</time></trkpt><trkpt lat="44.0688683" lon="11.99611"><ele>277.6</ele><time>2026-04-18T11:44:55.094Z</time></trkpt><trkpt lat="44.0687983" lon="11.99604"><ele>278.8</ele><time>2026-04-18T11:44:56.095Z</time></trkpt><trkpt lat="44.0687083" lon="11.995975"><ele>280.0</ele><time>2026-04-18T11:44:57.094Z</time></trkpt><trkpt lat="44.0686117" lon="11.99589"><ele>282.0</ele><time>2026-04-18T11:44:58.095Z</time></trkpt><trkpt lat="44.0685" lon="11.9958017"><ele>284.0</ele><time>2026-04-18T11:44:59.095Z</time></trkpt><trkpt lat="44.0683933" lon="11.99573"><ele>286.0</ele><time>2026-04-18T11:45:00.095Z</time></trkpt><trkpt lat="44.0683133" lon="11.9956817"><ele>288.0</ele><time>2026-04-18T11:45:01.095Z</time></trkpt><trkpt lat="44.0682533" lon="11.9955617"><ele>290.0</ele><time>2026-04-18T11:45:03.095Z</time></trkpt><trkpt lat="44.0683367" lon="11.9954117"><ele>290.0</ele><time>2026-04-18T11:45:05.095Z</time></trkpt><trkpt lat="44.0684383" lon="11.9953633"><ele>290.0</ele><time>2026-04-18T11:45:06.094Z</time></trkpt><trkpt lat="44.06856" lon="11.995325"><ele>290.0</ele><time>2026-04-18T11:45:07.095Z</time></trkpt><trkpt lat="44.0686867" lon="11.9952967"><ele>290.0</ele><time>2026-04-18T11:45:08.095Z</time></trkpt><trkpt lat="44.0688333" lon="11.99529"><ele>290.0</ele><time>2026-04-18T11:45:09.094Z</time></trkpt><trkpt lat="44.0689783" lon="11.99529"><ele>290.0</ele><time>2026-04-18T11:45:10.095Z</time></trkpt><trkpt lat="44.0690917" lon="11.9952617"><ele>290.0</ele><time>2026-04-18T11:45:11.095Z</time></trkpt><trkpt lat="44.0691917" lon="11.995245"><ele>290.0</ele><time>2026-04-18T11:45:12.095Z</time></trkpt><trkpt lat="44.0692783" lon="11.9952717"><ele>291.0</ele><time>2026-04-18T11:45:13.095Z</time></trkpt><trkpt lat="44.0693533" lon="11.99536"><ele>292.0</ele><time>2026-04-18T11:45:14.095Z</time></trkpt><trkpt lat="44.069415" lon="11.9954783"><ele>293.0</ele><time>2026-04-18T11:45:15.095Z</time></trkpt><trkpt lat="44.069465" lon="11.9955783"><ele>294.0</ele><time>2026-04-18T11:45:16.095Z</time></trkpt><trkpt lat="44.069525" lon="11.9956383"><ele>295.0</ele><time>2026-04-18T11:45:17.094Z</time></trkpt><trkpt lat="44.0696117" lon="11.9956767"><ele>295.0</ele><time>2026-04-18T11:45:18.094Z</time></trkpt><trkpt lat="44.0697067" lon="11.995655"><ele>295.0</ele><time>2026-04-18T11:45:19.094Z</time></trkpt><trkpt lat="44.06979" lon="11.9955867"><ele>295.0</ele><time>2026-04-18T11:45:20.094Z</time></trkpt><trkpt lat="44.069855" lon="11.995515"><ele>295.0</ele><time>2026-04-18T11:45:21.094Z</time></trkpt><trkpt lat="44.0698817" lon="11.9954167"><ele>295.0</ele><time>2026-04-18T11:45:22.094Z</time></trkpt><trkpt lat="44.06987" lon="11.9953183"><ele>295.0</ele><time>2026-04-18T11:45:23.095Z</time></trkpt><trkpt lat="44.0698433" lon="11.9952117"><ele>295.0</ele><time>2026-04-18T11:45:24.094Z</time></trkpt><trkpt lat="44.069805" lon="11.9950967"><ele>295.0</ele><time>2026-04-18T11:45:25.095Z</time></trkpt><trkpt lat="44.0697617" lon="11.9949733"><ele>295.0</ele><time>2026-04-18T11:45:26.095Z</time></trkpt><trkpt lat="44.0697183" lon="11.9948417"><ele>295.0</ele><time>2026-04-18T11:45:27.094Z</time></trkpt><trkpt lat="44.0696767" lon="11.9947133"><ele>295.0</ele><time>2026-04-18T11:45:28.095Z</time></trkpt><trkpt lat="44.06964" lon="11.9945867"><ele>297.2</ele><time>2026-04-18T11:45:29.095Z</time></trkpt><trkpt lat="44.0696183" lon="11.994465"><ele>299.4</ele><time>2026-04-18T11:45:30.095Z</time></trkpt><trkpt lat="44.06961" lon="11.9943483"><ele>301.6</ele><time>2026-04-18T11:45:31.095Z</time></trkpt><trkpt lat="44.0696083" lon="11.9942167"><ele>303.8</ele><time>2026-04-18T11:45:32.095Z</time></trkpt><trkpt lat="44.0696083" lon="11.994085"><ele>306.0</ele><time>2026-04-18T11:45:33.095Z</time></trkpt><trkpt lat="44.0696083" lon="11.9939517"><ele>308.6</ele><time>2026-04-18T11:45:34.095Z</time></trkpt><trkpt lat="44.0696117" lon="11.9938167"><ele>311.20000000000005</ele><time>2026-04-18T11:45:35.095Z</time></trkpt><trkpt lat="44.0696167" lon="11.9936667"><ele>313.79999999999995</ele><time>2026-04-18T11:45:36.094Z</time></trkpt><trkpt lat="44.06962" lon="11.99351"><ele>316.4</ele><time>2026-04-18T11:45:37.095Z</time></trkpt><trkpt lat="44.0696233" lon="11.993345"><ele>319.0</ele><time>2026-04-18T11:45:38.095Z</time></trkpt><trkpt lat="44.0696217" lon="11.9931717"><ele>322.25</ele><time>2026-04-18T11:45:39.095Z</time></trkpt><trkpt lat="44.0696233" lon="11.9929867"><ele>325.5</ele><time>2026-04-18T11:45:40.095Z</time></trkpt><trkpt lat="44.0696267" lon="11.9928267"><ele>328.75</ele><time>2026-04-18T11:45:41.095Z</time></trkpt><trkpt lat="44.069635" lon="11.992675"><ele>332.0</ele><time>2026-04-18T11:45:42.095Z</time></trkpt><trkpt lat="44.0696533" lon="11.9925167"><ele>333.8</ele><time>2026-04-18T11:45:43.095Z</time></trkpt><trkpt lat="44.0696767" lon="11.9923617"><ele>335.6</ele><time>2026-04-18T11:45:44.094Z</time></trkpt><trkpt lat="44.0697133" lon="11.9922167"><ele>337.40000000000003</ele><time>2026-04-18T11:45:45.095Z</time></trkpt><trkpt lat="44.069755" lon="11.9920867"><ele>339.20000000000005</ele><time>2026-04-18T11:45:46.095Z</time></trkpt><trkpt lat="44.0698133" lon="11.9919667"><ele>341.0</ele><time>2026-04-18T11:45:47.095Z</time></trkpt><trkpt lat="44.069895" lon="11.9918567"><ele>341.25</ele><time>2026-04-18T11:45:48.095Z</time></trkpt><trkpt lat="44.0700033" lon="11.9917583"><ele>341.5</ele><time>2026-04-18T11:45:49.095Z</time></trkpt><trkpt lat="44.0701283" lon="11.9916967"><ele>341.75</ele><time>2026-04-18T11:45:50.095Z</time></trkpt><trkpt lat="44.0702483" lon="11.9916483"><ele>342.0</ele><time>2026-04-18T11:45:51.095Z</time></trkpt><trkpt lat="44.0703533" lon="11.9916117"><ele>342.0</ele><time>2026-04-18T11:45:52.094Z</time></trkpt><trkpt lat="44.0704717" lon="11.9915883"><ele>342.0</ele><time>2026-04-18T11:45:53.094Z</time></trkpt><trkpt lat="44.07059" lon="11.9915667"><ele>342.0</ele><time>2026-04-18T11:45:54.095Z</time></trkpt><trkpt lat="44.07071" lon="11.991535"><ele>342.0</ele><time>2026-04-18T11:45:55.095Z</time></trkpt><trkpt lat="44.070815" lon="11.99149"><ele>340.6</ele><time>2026-04-18T11:45:56.095Z</time></trkpt><trkpt lat="44.0709033" lon="11.9914333"><ele>339.20000000000005</ele><time>2026-04-18T11:45:57.095Z</time></trkpt><trkpt lat="44.0709783" lon="11.991355"><ele>337.8</ele><time>2026-04-18T11:45:58.095Z</time></trkpt><trkpt lat="44.07105" lon="11.9912517"><ele>336.4</ele><time>2026-04-18T11:45:59.095Z</time></trkpt><trkpt lat="44.0711283" lon="11.9911383"><ele>335.0</ele><time>2026-04-18T11:46:00.095Z</time></trkpt><trkpt lat="44.0712" lon="11.9910283"><ele>335.0</ele><time>2026-04-18T11:46:01.094Z</time></trkpt><trkpt lat="44.0712683" lon="11.9909417"><ele>335.0</ele><time>2026-04-18T11:46:02.095Z</time></trkpt><trkpt lat="44.0713417" lon="11.9908867"><ele>335.0</ele><time>2026-04-18T11:46:03.095Z</time></trkpt><trkpt lat="44.0714267" lon="11.99087"><ele>335.0</ele><time>2026-04-18T11:46:04.095Z</time></trkpt><trkpt lat="44.0715217" lon="11.9908833"><ele>335.0</ele><time>2026-04-18T11:46:05.095Z</time></trkpt><trkpt lat="44.0716267" lon="11.9909217"><ele>334.8</ele><time>2026-04-18T11:46:06.095Z</time></trkpt><trkpt lat="44.07173" lon="11.9909817"><ele>334.6</ele><time>2026-04-18T11:46:07.095Z</time></trkpt><trkpt lat="44.0718233" lon="11.9910283"><ele>334.4</ele><time>2026-04-18T11:46:08.095Z</time></trkpt><trkpt lat="44.071925" lon="11.99106"><ele>334.2</ele><time>2026-04-18T11:46:09.095Z</time></trkpt><trkpt lat="44.07203" lon="11.99104"><ele>334.0</ele><time>2026-04-18T11:46:10.095Z</time></trkpt><trkpt lat="44.0721433" lon="11.99101"><ele>334.0</ele><time>2026-04-18T11:46:11.094Z</time></trkpt><trkpt lat="44.0722583" lon="11.9909867"><ele>334.0</ele><time>2026-04-18T11:46:12.095Z</time></trkpt><trkpt lat="44.0723833" lon="11.990985"><ele>334.0</ele><time>2026-04-18T11:46:13.095Z</time></trkpt><trkpt lat="44.072525" lon="11.991005"><ele>334.0</ele><time>2026-04-18T11:46:14.095Z</time></trkpt><trkpt lat="44.0726733" lon="11.9910483"><ele>336.0</ele><time>2026-04-18T11:46:15.095Z</time></trkpt><trkpt lat="44.072815" lon="11.991105"><ele>338.0</ele><time>2026-04-18T11:46:16.094Z</time></trkpt><trkpt lat="44.07294" lon="11.99113"><ele>340.0</ele><time>2026-04-18T11:46:17.095Z</time></trkpt><trkpt lat="44.073055" lon="11.99112"><ele>342.0</ele><time>2026-04-18T11:46:18.094Z</time></trkpt><trkpt lat="44.0731733" lon="11.9911033"><ele>343.0</ele><time>2026-04-18T11:46:19.095Z</time></trkpt><trkpt lat="44.0732967" lon="11.9910567"><ele>344.0</ele><time>2026-04-18T11:46:20.095Z</time></trkpt><trkpt lat="44.0734233" lon="11.9909917"><ele>345.0</ele><time>2026-04-18T11:46:21.094Z</time></trkpt><trkpt lat="44.073555" lon="11.990905"><ele>346.0</ele><time>2026-04-18T11:46:22.095Z</time></trkpt><trkpt lat="44.073675" lon="11.9908217"><ele>351.66666666666663</ele><time>2026-04-18T11:46:23.095Z</time></trkpt><trkpt lat="44.0737933" lon="11.990735"><ele>357.3333333333333</ele><time>2026-04-18T11:46:24.095Z</time></trkpt><trkpt lat="44.073915" lon="11.990615"><ele>363.0</ele><time>2026-04-18T11:46:25.095Z</time></trkpt><trkpt lat="44.074055" lon="11.9904767"><ele>362.5</ele><time>2026-04-18T11:46:26.094Z</time></trkpt><trkpt lat="44.0741917" lon="11.990365"><ele>362.0</ele><time>2026-04-18T11:46:27.095Z</time></trkpt><trkpt lat="44.0743083" lon="11.9902717"><ele>361.5</ele><time>2026-04-18T11:46:28.095Z</time></trkpt><trkpt lat="44.0744067" lon="11.9901767"><ele>361.0</ele><time>2026-04-18T11:46:29.095Z</time></trkpt><trkpt lat="44.0744983" lon="11.9900817"><ele>364.8</ele><time>2026-04-18T11:46:30.095Z</time></trkpt><trkpt lat="44.0745833" lon="11.989985"><ele>368.6</ele><time>2026-04-18T11:46:31.095Z</time></trkpt><trkpt lat="44.0746617" lon="11.989885"><ele>372.4</ele><time>2026-04-18T11:46:32.094Z</time></trkpt><trkpt lat="44.0747367" lon="11.9898"><ele>376.2</ele><time>2026-04-18T11:46:33.095Z</time></trkpt><trkpt lat="44.07482" lon="11.9897033"><ele>380.0</ele><time>2026-04-18T11:46:34.095Z</time></trkpt><trkpt lat="44.0749183" lon="11.989645"><ele>376.0</ele><time>2026-04-18T11:46:35.094Z</time></trkpt><trkpt lat="44.0750267" lon="11.9895633"><ele>372.0</ele><time>2026-04-18T11:46:36.094Z</time></trkpt><trkpt lat="44.075135" lon="11.9894783"><ele>368.0</ele><time>2026-04-18T11:46:37.095Z</time></trkpt><trkpt lat="44.07524" lon="11.98939"><ele>364.0</ele><time>2026-04-18T11:46:38.095Z</time></trkpt><trkpt lat="44.0753417" lon="11.9893067"><ele>364.0</ele><time>2026-04-18T11:46:39.095Z</time></trkpt><trkpt lat="44.0754367" lon="11.9892083"><ele>364.0</ele><time>2026-04-18T11:46:40.095Z</time></trkpt><trkpt lat="44.075535" lon="11.9891083"><ele>364.0</ele><time>2026-04-18T11:46:41.095Z</time></trkpt><trkpt lat="44.0756283" lon="11.9890283"><ele>364.0</ele><time>2026-04-18T11:46:42.095Z</time></trkpt><trkpt lat="44.0757267" lon="11.9889983"><ele>366.0</ele><time>2026-04-18T11:46:43.095Z</time></trkpt><trkpt lat="44.0758433" lon="11.9890133"><ele>368.0</ele><time>2026-04-18T11:46:44.095Z</time></trkpt><trkpt lat="44.0759567" lon="11.989045"><ele>370.0</ele><time>2026-04-18T11:46:45.094Z</time></trkpt><trkpt lat="44.07605" lon="11.9890567"><ele>372.0</ele><time>2026-04-18T11:46:46.095Z</time></trkpt><trkpt lat="44.07615" lon="11.9890233"><ele>374.0</ele><time>2026-04-18T11:46:47.095Z</time></trkpt><trkpt lat="44.0762383" lon="11.9889567"><ele>374.0</ele><time>2026-04-18T11:46:48.095Z</time></trkpt><trkpt lat="44.0763033" lon="11.9888767"><ele>374.0</ele><time>2026-04-18T11:46:49.094Z</time></trkpt><trkpt lat="44.0763533" lon="11.988815"><ele>374.0</ele><time>2026-04-18T11:46:50.095Z</time></trkpt><trkpt lat="44.0764067" lon="11.9887467"><ele>374.0</ele><time>2026-04-18T11:46:51.095Z</time></trkpt><trkpt lat="44.0764567" lon="11.9886833"><ele>374.0</ele><time>2026-04-18T11:46:52.095Z</time></trkpt><trkpt lat="44.0765333" lon="11.988615"><ele>374.0</ele><time>2026-04-18T11:46:54.095Z</time></trkpt><trkpt lat="44.0766167" lon="11.9885817"><ele>373.79999999999995</ele><time>2026-04-18T11:46:56.094Z</time></trkpt><trkpt lat="44.0767267" lon="11.98858"><ele>373.59999999999997</ele><time>2026-04-18T11:46:58.094Z</time></trkpt><trkpt lat="44.0768183" lon="11.9886333"><ele>373.4</ele><time>2026-04-18T11:47:00.096Z</time></trkpt><trkpt lat="44.0769167" lon="11.9887367"><ele>373.2</ele><time>2026-04-18T11:47:02.095Z</time></trkpt><trkpt lat="44.0769667" lon="11.98882"><ele>373.0</ele><time>2026-04-18T11:47:03.096Z</time></trkpt><trkpt lat="44.0770167" lon="11.9889083"><ele>373.0</ele><time>2026-04-18T11:47:04.096Z</time></trkpt><trkpt lat="44.0770683" lon="11.98899"><ele>373.0</ele><time>2026-04-18T11:47:05.096Z</time></trkpt><trkpt lat="44.0771317" lon="11.989085"><ele>373.0</ele><time>2026-04-18T11:47:06.096Z</time></trkpt><trkpt lat="44.0771867" lon="11.9891783"><ele>373.0</ele><time>2026-04-18T11:47:07.096Z</time></trkpt><trkpt lat="44.0772333" lon="11.9892717"><ele>373.0</ele><time>2026-04-18T11:47:08.096Z</time></trkpt><trkpt lat="44.0772683" lon="11.9893617"><ele>373.0</ele><time>2026-04-18T11:47:09.096Z</time></trkpt><trkpt lat="44.07729" lon="11.989455"><ele>373.16666666666663</ele><time>2026-04-18T11:47:10.096Z</time></trkpt><trkpt lat="44.07731" lon="11.9895433"><ele>373.3333333333333</ele><time>2026-04-18T11:47:11.096Z</time></trkpt><trkpt lat="44.0773367" lon="11.9896233"><ele>373.5</ele><time>2026-04-18T11:47:12.096Z</time></trkpt><trkpt lat="44.0773783" lon="11.989705"><ele>373.6666666666667</ele><time>2026-04-18T11:47:13.096Z</time></trkpt><trkpt lat="44.0774267" lon="11.9898"><ele>373.83333333333337</ele><time>2026-04-18T11:47:14.095Z</time></trkpt><trkpt lat="44.0774717" lon="11.9899067"><ele>374.0</ele><time>2026-04-18T11:47:15.096Z</time></trkpt><trkpt lat="44.0775267" lon="11.9900133"><ele>372.6</ele><time>2026-04-18T11:47:16.096Z</time></trkpt><trkpt lat="44.0775833" lon="11.9901183"><ele>371.2</ele><time>2026-04-18T11:47:17.095Z</time></trkpt><trkpt lat="44.0776383" lon="11.9902183"><ele>369.8</ele><time>2026-04-18T11:47:18.096Z</time></trkpt><trkpt lat="44.0776833" lon="11.9902967"><ele>368.40000000000003</ele><time>2026-04-18T11:47:19.096Z</time></trkpt><trkpt lat="44.0777667" lon="11.9904033"><ele>367.0</ele><time>2026-04-18T11:47:21.096Z</time></trkpt><trkpt lat="44.0778133" lon="11.9905367"><ele>367.0</ele><time>2026-04-18T11:47:23.096Z</time></trkpt><trkpt lat="44.0778483" lon="11.9906683"><ele>367.0</ele><time>2026-04-18T11:47:25.096Z</time></trkpt><trkpt lat="44.0778633" lon="11.9908267"><ele>367.0</ele><time>2026-04-18T11:47:27.096Z</time></trkpt><trkpt lat="44.0778433" lon="11.9909933"><ele>367.0</ele><time>2026-04-18T11:47:29.095Z</time></trkpt><trkpt lat="44.07788" lon="11.99114"><ele>367.0</ele><time>2026-04-18T11:47:31.095Z</time></trkpt><trkpt lat="44.07799" lon="11.9912033"><ele>365.5</ele><time>2026-04-18T11:47:33.096Z</time></trkpt><trkpt lat="44.07806" lon="11.991215"><ele>364.0</ele><time>2026-04-18T11:47:34.095Z</time></trkpt><trkpt lat="44.0781267" lon="11.9912283"><ele>362.5</ele><time>2026-04-18T11:47:35.096Z</time></trkpt><trkpt lat="44.07819" lon="11.9912433"><ele>361.0</ele><time>2026-04-18T11:47:36.095Z</time></trkpt><trkpt lat="44.0782517" lon="11.9912633"><ele>359.5</ele><time>2026-04-18T11:47:37.096Z</time></trkpt><trkpt lat="44.07837" lon="11.9912983"><ele>358.0</ele><time>2026-04-18T11:47:39.096Z</time></trkpt><trkpt lat="44.0784383" lon="11.991325"><ele>358.0</ele><time>2026-04-18T11:47:40.096Z</time></trkpt><trkpt lat="44.0785383" lon="11.9913817"><ele>358.0</ele><time>2026-04-18T11:47:42.096Z</time></trkpt><trkpt lat="44.0786467" lon="11.9914683"><ele>358.0</ele><time>2026-04-18T11:47:44.095Z</time></trkpt><trkpt lat="44.0787083" lon="11.9915333"><ele>358.0</ele><time>2026-04-18T11:47:45.096Z</time></trkpt><trkpt lat="44.0787667" lon="11.9915883"><ele>358.0</ele><time>2026-04-18T11:47:46.096Z</time></trkpt><trkpt lat="44.078855" lon="11.9916633"><ele>356.8571428571429</ele><time>2026-04-18T11:47:48.096Z</time></trkpt><trkpt lat="44.0789133" lon="11.9916967"><ele>355.7142857142857</ele><time>2026-04-18T11:47:49.096Z</time></trkpt><trkpt lat="44.07898" lon="11.9917267"><ele>354.57142857142856</ele><time>2026-04-18T11:47:50.096Z</time></trkpt><trkpt lat="44.0790617" lon="11.9917483"><ele>353.42857142857144</ele><time>2026-04-18T11:47:51.096Z</time></trkpt><trkpt lat="44.07914" lon="11.99177"><ele>352.2857142857143</ele><time>2026-04-18T11:47:52.095Z</time></trkpt><trkpt lat="44.0792017" lon="11.9918117"><ele>351.14285714285717</ele><time>2026-04-18T11:47:53.096Z</time></trkpt><trkpt lat="44.0792567" lon="11.9918833"><ele>350.0</ele><time>2026-04-18T11:47:54.096Z</time></trkpt><trkpt lat="44.079315" lon="11.9919767"><ele>350.0</ele><time>2026-04-18T11:47:55.096Z</time></trkpt><trkpt lat="44.07938" lon="11.9920683"><ele>350.0</ele><time>2026-04-18T11:47:56.096Z</time></trkpt><trkpt lat="44.079465" lon="11.9921617"><ele>350.0</ele><time>2026-04-18T11:47:57.096Z</time></trkpt><trkpt lat="44.079565" lon="11.9922517"><ele>350.0</ele><time>2026-04-18T11:47:58.096Z</time></trkpt><trkpt lat="44.0796717" lon="11.992345"><ele>350.0</ele><time>2026-04-18T11:47:59.096Z</time></trkpt><trkpt lat="44.0797767" lon="11.99244"><ele>348.4</ele><time>2026-04-18T11:48:00.096Z</time></trkpt><trkpt lat="44.0798767" lon="11.9925333"><ele>346.8</ele><time>2026-04-18T11:48:01.096Z</time></trkpt><trkpt lat="44.07997" lon="11.9926217"><ele>345.20000000000005</ele><time>2026-04-18T11:48:02.096Z</time></trkpt><trkpt lat="44.0800517" lon="11.9927017"><ele>343.6</ele><time>2026-04-18T11:48:03.096Z</time></trkpt><trkpt lat="44.08013" lon="11.9927783"><ele>342.0</ele><time>2026-04-18T11:48:04.096Z</time></trkpt><trkpt lat="44.0802167" lon="11.99287"><ele>342.0</ele><time>2026-04-18T11:48:05.095Z</time></trkpt><trkpt lat="44.0803083" lon="11.9929783"><ele>342.0</ele><time>2026-04-18T11:48:06.095Z</time></trkpt><trkpt lat="44.0804033" lon="11.9931083"><ele>342.0</ele><time>2026-04-18T11:48:07.096Z</time></trkpt><trkpt lat="44.0804867" lon="11.99324"><ele>342.0</ele><time>2026-04-18T11:48:08.096Z</time></trkpt><trkpt lat="44.0805533" lon="11.9933667"><ele>339.6</ele><time>2026-04-18T11:48:09.096Z</time></trkpt><trkpt lat="44.0805983" lon="11.9935117"><ele>337.20000000000005</ele><time>2026-04-18T11:48:10.096Z</time></trkpt><trkpt lat="44.08063" lon="11.9936517"><ele>334.8</ele><time>2026-04-18T11:48:11.096Z</time></trkpt><trkpt lat="44.0806567" lon="11.99378"><ele>332.4</ele><time>2026-04-18T11:48:12.096Z</time></trkpt><trkpt lat="44.0806767" lon="11.9939117"><ele>330.0</ele><time>2026-04-18T11:48:13.096Z</time></trkpt><trkpt lat="44.0807067" lon="11.9940267"><ele>330.0</ele><time>2026-04-18T11:48:14.096Z</time></trkpt><trkpt lat="44.08076" lon="11.994125"><ele>330.0</ele><time>2026-04-18T11:48:15.096Z</time></trkpt><trkpt lat="44.0808367" lon="11.9942383"><ele>330.0</ele><time>2026-04-18T11:48:16.096Z</time></trkpt><trkpt lat="44.0809367" lon="11.9943567"><ele>330.0</ele><time>2026-04-18T11:48:17.096Z</time></trkpt><trkpt lat="44.0810483" lon="11.9944733"><ele>332.5</ele><time>2026-04-18T11:48:18.096Z</time></trkpt><trkpt lat="44.0811583" lon="11.994585"><ele>335.0</ele><time>2026-04-18T11:48:19.096Z</time></trkpt><trkpt lat="44.0812717" lon="11.9947033"><ele>337.5</ele><time>2026-04-18T11:48:20.096Z</time></trkpt><trkpt lat="44.081375" lon="11.9948133"><ele>340.0</ele><time>2026-04-18T11:48:21.096Z</time></trkpt><trkpt lat="44.0814783" lon="11.9949283"><ele>338.25</ele><time>2026-04-18T11:48:22.096Z</time></trkpt><trkpt lat="44.0815817" lon="11.995035"><ele>336.5</ele><time>2026-04-18T11:48:23.096Z</time></trkpt><trkpt lat="44.0816833" lon="11.9951433"><ele>334.75</ele><time>2026-04-18T11:48:24.096Z</time></trkpt><trkpt lat="44.08177" lon="11.9952583"><ele>333.0</ele><time>2026-04-18T11:48:25.096Z</time></trkpt><trkpt lat="44.0818417" lon="11.9953683"><ele>337.0</ele><time>2026-04-18T11:48:26.096Z</time></trkpt><trkpt lat="44.0818917" lon="11.9954717"><ele>341.0</ele><time>2026-04-18T11:48:27.096Z</time></trkpt><trkpt lat="44.0819383" lon="11.995565"><ele>345.0</ele><time>2026-04-18T11:48:28.096Z</time></trkpt><trkpt lat="44.081985" lon="11.9956733"><ele>349.0</ele><time>2026-04-18T11:48:29.096Z</time></trkpt><trkpt lat="44.0820233" lon="11.9957583"><ele>353.0</ele><time>2026-04-18T11:48:30.096Z</time></trkpt><trkpt lat="44.082075" lon="11.9958517"><ele>357.0</ele><time>2026-04-18T11:48:31.096Z</time></trkpt><trkpt lat="44.0821533" lon="11.9959633"><ele>357.0</ele><time>2026-04-18T11:48:32.096Z</time></trkpt><trkpt lat="44.08223" lon="11.9960667"><ele>357.0</ele><time>2026-04-18T11:48:33.096Z</time></trkpt><trkpt lat="44.0822967" lon="11.9961383"><ele>357.0</ele><time>2026-04-18T11:48:34.096Z</time></trkpt><trkpt lat="44.0823683" lon="11.9962067"><ele>357.0</ele><time>2026-04-18T11:48:35.096Z</time></trkpt><trkpt lat="44.0824367" lon="11.9962733"><ele>357.0</ele><time>2026-04-18T11:48:36.095Z</time></trkpt><trkpt lat="44.0825117" lon="11.9963117"><ele>357.0</ele><time>2026-04-18T11:48:37.096Z</time></trkpt><trkpt lat="44.082605" lon="11.9963717"><ele>360.0</ele><time>2026-04-18T11:48:38.095Z</time></trkpt><trkpt lat="44.0826917" lon="11.9964133"><ele>363.0</ele><time>2026-04-18T11:48:39.096Z</time></trkpt><trkpt lat="44.0827583" lon="11.9964567"><ele>366.0</ele><time>2026-04-18T11:48:40.095Z</time></trkpt><trkpt lat="44.082815" lon="11.9965217"><ele>369.0</ele><time>2026-04-18T11:48:41.095Z</time></trkpt><trkpt lat="44.0828817" lon="11.996625"><ele>372.0</ele><time>2026-04-18T11:48:42.095Z</time></trkpt><trkpt lat="44.0829483" lon="11.9967583"><ele>372.0</ele><time>2026-04-18T11:48:43.096Z</time></trkpt><trkpt lat="44.083005" lon="11.9968733"><ele>372.0</ele><time>2026-04-18T11:48:44.096Z</time></trkpt><trkpt lat="44.0830617" lon="11.9969717"><ele>372.0</ele><time>2026-04-18T11:48:45.096Z</time></trkpt><trkpt lat="44.0831367" lon="11.9970883"><ele>372.0</ele><time>2026-04-18T11:48:46.096Z</time></trkpt><trkpt lat="44.083215" lon="11.9972167"><ele>372.0</ele><time>2026-04-18T11:48:47.096Z</time></trkpt><trkpt lat="44.0832933" lon="11.9973283"><ele>373.6</ele><time>2026-04-18T11:48:48.096Z</time></trkpt><trkpt lat="44.0833717" lon="11.997425"><ele>375.20000000000005</ele><time>2026-04-18T11:48:49.095Z</time></trkpt><trkpt lat="44.0834467" lon="11.9975133"><ele>376.8</ele><time>2026-04-18T11:48:50.096Z</time></trkpt><trkpt lat="44.083515" lon="11.9975733"><ele>378.4</ele><time>2026-04-18T11:48:51.096Z</time></trkpt><trkpt lat="44.0835933" lon="11.99763"><ele>380.0</ele><time>2026-04-18T11:48:52.096Z</time></trkpt><trkpt lat="44.0836717" lon="11.9976733"><ele>380.0</ele><time>2026-04-18T11:48:53.096Z</time></trkpt><trkpt lat="44.08375" lon="11.9977067"><ele>380.0</ele><time>2026-04-18T11:48:54.096Z</time></trkpt><trkpt lat="44.0838233" lon="11.9977317"><ele>380.0</ele><time>2026-04-18T11:48:55.096Z</time></trkpt><trkpt lat="44.0838867" lon="11.9977617"><ele>380.0</ele><time>2026-04-18T11:48:56.096Z</time></trkpt><trkpt lat="44.0839467" lon="11.997805"><ele>380.0</ele><time>2026-04-18T11:48:57.096Z</time></trkpt><trkpt lat="44.084005" lon="11.9978667"><ele>380.0</ele><time>2026-04-18T11:48:58.096Z</time></trkpt><trkpt lat="44.0840567" lon="11.9979367"><ele>380.0</ele><time>2026-04-18T11:48:59.096Z</time></trkpt><trkpt lat="44.0841217" lon="11.9980267"><ele>382.0</ele><time>2026-04-18T11:49:01.095Z</time></trkpt><trkpt lat="44.0842083" lon="11.9980533"><ele>384.0</ele><time>2026-04-18T11:49:03.096Z</time></trkpt><trkpt lat="44.0843117" lon="11.9980767"><ele>386.0</ele><time>2026-04-18T11:49:05.096Z</time></trkpt><trkpt lat="44.0843883" lon="11.99809"><ele>388.0</ele><time>2026-04-18T11:49:07.095Z</time></trkpt><trkpt lat="44.08445" lon="11.9980533"><ele>389.99999999999994</ele><time>2026-04-18T11:49:09.096Z</time></trkpt><trkpt lat="44.0845017" lon="11.9979567"><ele>392.0</ele><time>2026-04-18T11:49:11.096Z</time></trkpt><trkpt lat="44.0845433" lon="11.997835"><ele>392.0</ele><time>2026-04-18T11:49:13.096Z</time></trkpt><trkpt lat="44.0845783" lon="11.997685"><ele>392.0</ele><time>2026-04-18T11:49:15.096Z</time></trkpt><trkpt lat="44.084625" lon="11.997555"><ele>392.0</ele><time>2026-04-18T11:49:17.096Z</time></trkpt><trkpt lat="44.084675" lon="11.9973983"><ele>392.0</ele><time>2026-04-18T11:49:19.095Z</time></trkpt><trkpt lat="44.0847117" lon="11.997305"><ele>392.0</ele><time>2026-04-18T11:49:20.095Z</time></trkpt><trkpt lat="44.0847517" lon="11.9972"><ele>391.16666666666663</ele><time>2026-04-18T11:49:21.095Z</time></trkpt><trkpt lat="44.084795" lon="11.9971"><ele>390.3333333333333</ele><time>2026-04-18T11:49:22.095Z</time></trkpt><trkpt lat="44.0848267" lon="11.997"><ele>389.5</ele><time>2026-04-18T11:49:23.096Z</time></trkpt><trkpt lat="44.0848517" lon="11.9968867"><ele>388.66666666666663</ele><time>2026-04-18T11:49:24.096Z</time></trkpt><trkpt lat="44.0848867" lon="11.99677"><ele>387.8333333333333</ele><time>2026-04-18T11:49:25.095Z</time></trkpt><trkpt lat="44.08495" lon="11.9966717"><ele>387.0</ele><time>2026-04-18T11:49:26.096Z</time></trkpt><trkpt lat="44.0850367" lon="11.9965883"><ele>382.8</ele><time>2026-04-18T11:49:27.096Z</time></trkpt><trkpt lat="44.085135" lon="11.9965067"><ele>378.6</ele><time>2026-04-18T11:49:28.096Z</time></trkpt><trkpt lat="44.085225" lon="11.9964383"><ele>374.40000000000003</ele><time>2026-04-18T11:49:29.096Z</time></trkpt><trkpt lat="44.085305" lon="11.9963683"><ele>370.20000000000005</ele><time>2026-04-18T11:49:30.096Z</time></trkpt><trkpt lat="44.08538" lon="11.9963083"><ele>366.0</ele><time>2026-04-18T11:49:31.096Z</time></trkpt><trkpt lat="44.08545" lon="11.9962517"><ele>366.0</ele><time>2026-04-18T11:49:32.096Z</time></trkpt><trkpt lat="44.085515" lon="11.9961933"><ele>366.0</ele><time>2026-04-18T11:49:33.096Z</time></trkpt><trkpt lat="44.085575" lon="11.9961383"><ele>366.0</ele><time>2026-04-18T11:49:34.095Z</time></trkpt><trkpt lat="44.0856367" lon="11.9960817"><ele>366.0</ele><time>2026-04-18T11:49:35.096Z</time></trkpt><trkpt lat="44.0856933" lon="11.99602"><ele>366.0</ele><time>2026-04-18T11:49:36.096Z</time></trkpt><trkpt lat="44.0857533" lon="11.9959583"><ele>366.0</ele><time>2026-04-18T11:49:37.096Z</time></trkpt><trkpt lat="44.0858283" lon="11.99589"><ele>363.25</ele><time>2026-04-18T11:49:38.096Z</time></trkpt><trkpt lat="44.085925" lon="11.995825"><ele>360.5</ele><time>2026-04-18T11:49:39.096Z</time></trkpt><trkpt lat="44.0860317" lon="11.9957383"><ele>357.75</ele><time>2026-04-18T11:49:40.096Z</time></trkpt><trkpt lat="44.0861267" lon="11.9956483"><ele>355.0</ele><time>2026-04-18T11:49:41.096Z</time></trkpt><trkpt lat="44.0862133" lon="11.9955533"><ele>355.0</ele><time>2026-04-18T11:49:42.095Z</time></trkpt><trkpt lat="44.086275" lon="11.995455"><ele>355.0</ele><time>2026-04-18T11:49:43.096Z</time></trkpt><trkpt lat="44.0863133" lon="11.9953667"><ele>355.0</ele><time>2026-04-18T11:49:44.096Z</time></trkpt><trkpt lat="44.086335" lon="11.99527"><ele>355.0</ele><time>2026-04-18T11:49:45.096Z</time></trkpt><trkpt lat="44.08635" lon="11.99518"><ele>355.0</ele><time>2026-04-18T11:49:46.095Z</time></trkpt><trkpt lat="44.086375" lon="11.9950933"><ele>355.0</ele><time>2026-04-18T11:49:47.096Z</time></trkpt><trkpt lat="44.086415" lon="11.9950183"><ele>355.0</ele><time>2026-04-18T11:49:48.096Z</time></trkpt><trkpt lat="44.0864683" lon="11.9949383"><ele>352.5</ele><time>2026-04-18T11:49:49.096Z</time></trkpt><trkpt lat="44.08652" lon="11.9948617"><ele>350.0</ele><time>2026-04-18T11:49:50.096Z</time></trkpt><trkpt lat="44.086575" lon="11.9947783"><ele>347.5</ele><time>2026-04-18T11:49:51.096Z</time></trkpt><trkpt lat="44.0866333" lon="11.994705"><ele>345.0</ele><time>2026-04-18T11:49:52.096Z</time></trkpt><trkpt lat="44.0866917" lon="11.99463"><ele>342.5</ele><time>2026-04-18T11:49:53.096Z</time></trkpt><trkpt lat="44.0867517" lon="11.994535"><ele>340.0</ele><time>2026-04-18T11:49:54.096Z</time></trkpt><trkpt lat="44.086815" lon="11.9944317"><ele>340.0</ele><time>2026-04-18T11:49:55.096Z</time></trkpt><trkpt lat="44.08687" lon="11.994335"><ele>340.0</ele><time>2026-04-18T11:49:56.096Z</time></trkpt><trkpt lat="44.0869217" lon="11.9942533"><ele>340.0</ele><time>2026-04-18T11:49:57.096Z</time></trkpt><trkpt lat="44.0869733" lon="11.99418"><ele>340.0</ele><time>2026-04-18T11:49:58.096Z</time></trkpt><trkpt lat="44.0870183" lon="11.994085"><ele>340.0</ele><time>2026-04-18T11:49:59.096Z</time></trkpt><trkpt lat="44.08706" lon="11.9939817"><ele>340.0</ele><time>2026-04-18T11:50:00.096Z</time></trkpt><trkpt lat="44.0871017" lon="11.9938783"><ele>337.16666666666663</ele><time>2026-04-18T11:50:01.096Z</time></trkpt><trkpt lat="44.0871283" lon="11.9937683"><ele>334.3333333333333</ele><time>2026-04-18T11:50:02.096Z</time></trkpt><trkpt lat="44.0871533" lon="11.9936633"><ele>331.5</ele><time>2026-04-18T11:50:03.096Z</time></trkpt><trkpt lat="44.0871983" lon="11.9935617"><ele>328.6666666666667</ele><time>2026-04-18T11:50:04.096Z</time></trkpt><trkpt lat="44.08725" lon="11.993475"><ele>325.83333333333337</ele><time>2026-04-18T11:50:05.096Z</time></trkpt><trkpt lat="44.08731" lon="11.9933783"><ele>323.0</ele><time>2026-04-18T11:50:06.096Z</time></trkpt><trkpt lat="44.08737" lon="11.9932733"><ele>319.0</ele><time>2026-04-18T11:50:07.096Z</time></trkpt><trkpt lat="44.08743" lon="11.9931717"><ele>315.0</ele><time>2026-04-18T11:50:08.096Z</time></trkpt><trkpt lat="44.0874883" lon="11.9930617"><ele>311.0</ele><time>2026-04-18T11:50:09.096Z</time></trkpt><trkpt lat="44.0875433" lon="11.9929433"><ele>307.0</ele><time>2026-04-18T11:50:10.096Z</time></trkpt><trkpt lat="44.08759" lon="11.9928217"><ele>303.0</ele><time>2026-04-18T11:50:11.096Z</time></trkpt><trkpt lat="44.0876317" lon="11.9926867"><ele>303.0</ele><time>2026-04-18T11:50:12.095Z</time></trkpt><trkpt lat="44.0876933" lon="11.9925383"><ele>303.0</ele><time>2026-04-18T11:50:13.096Z</time></trkpt><trkpt lat="44.0877533" lon="11.992385"><ele>303.0</ele><time>2026-04-18T11:50:14.096Z</time></trkpt><trkpt lat="44.0878033" lon="11.9922333"><ele>303.0</ele><time>2026-04-18T11:50:15.096Z</time></trkpt><trkpt lat="44.0878433" lon="11.9920883"><ele>301.4</ele><time>2026-04-18T11:50:16.096Z</time></trkpt><trkpt lat="44.0878767" lon="11.9919567"><ele>299.8</ele><time>2026-04-18T11:50:17.096Z</time></trkpt><trkpt lat="44.0879017" lon="11.99184"><ele>298.2</ele><time>2026-04-18T11:50:18.096Z</time></trkpt><trkpt lat="44.0879233" lon="11.9917267"><ele>296.6</ele><time>2026-04-18T11:50:19.095Z</time></trkpt><trkpt lat="44.0879467" lon="11.99159"><ele>295.0</ele><time>2026-04-18T11:50:20.095Z</time></trkpt><trkpt lat="44.0879867" lon="11.9914683"><ele>293.6</ele><time>2026-04-18T11:50:21.096Z</time></trkpt><trkpt lat="44.088035" lon="11.991365"><ele>292.2</ele><time>2026-04-18T11:50:22.096Z</time></trkpt><trkpt lat="44.0881017" lon="11.9912667"><ele>290.8</ele><time>2026-04-18T11:50:23.096Z</time></trkpt><trkpt lat="44.0881717" lon="11.991145"><ele>289.4</ele><time>2026-04-18T11:50:24.096Z</time></trkpt><trkpt lat="44.08823" lon="11.990995"><ele>288.0</ele><time>2026-04-18T11:50:25.096Z</time></trkpt><trkpt lat="44.088285" lon="11.9908483"><ele>286.4</ele><time>2026-04-18T11:50:26.095Z</time></trkpt><trkpt lat="44.0883467" lon="11.990715"><ele>284.8</ele><time>2026-04-18T11:50:27.096Z</time></trkpt><trkpt lat="44.0884067" lon="11.9905967"><ele>283.2</ele><time>2026-04-18T11:50:28.096Z</time></trkpt><trkpt lat="44.0884633" lon="11.9904883"><ele>281.6</ele><time>2026-04-18T11:50:29.096Z</time></trkpt><trkpt lat="44.08851" lon="11.99039"><ele>280.0</ele><time>2026-04-18T11:50:30.096Z</time></trkpt><trkpt lat="44.088555" lon="11.9903083"><ele>280.0</ele><time>2026-04-18T11:50:31.096Z</time></trkpt><trkpt lat="44.0886067" lon="11.990235"><ele>280.0</ele><time>2026-04-18T11:50:32.096Z</time></trkpt><trkpt lat="44.0886567" lon="11.9901633"><ele>280.0</ele><time>2026-04-18T11:50:33.096Z</time></trkpt><trkpt lat="44.0887117" lon="11.9900917"><ele>280.0</ele><time>2026-04-18T11:50:34.096Z</time></trkpt><trkpt lat="44.0887517" lon="11.9900183"><ele>280.0</ele><time>2026-04-18T11:50:35.096Z</time></trkpt><trkpt lat="44.0887883" lon="11.98994"><ele>280.0</ele><time>2026-04-18T11:50:36.096Z</time></trkpt><trkpt lat="44.08881" lon="11.98985"><ele>280.0</ele><time>2026-04-18T11:50:37.096Z</time></trkpt><trkpt lat="44.0888217" lon="11.989755"><ele>278.0</ele><time>2026-04-18T11:50:38.096Z</time></trkpt><trkpt lat="44.0888267" lon="11.9896483"><ele>276.0</ele><time>2026-04-18T11:50:39.096Z</time></trkpt><trkpt lat="44.088835" lon="11.9895583"><ele>274.0</ele><time>2026-04-18T11:50:40.095Z</time></trkpt><trkpt lat="44.0888383" lon="11.989465"><ele>272.0</ele><time>2026-04-18T11:50:41.096Z</time></trkpt><trkpt lat="44.0888617" lon="11.989305"><ele>270.0</ele><time>2026-04-18T11:50:43.096Z</time></trkpt><trkpt lat="44.088885" lon="11.9891467"><ele>268.0</ele><time>2026-04-18T11:50:45.096Z</time></trkpt><trkpt lat="44.088885" lon="11.9890567"><ele>266.8333333333333</ele><time>2026-04-18T11:50:46.095Z</time></trkpt><trkpt lat="44.0888883" lon="11.9889667"><ele>265.66666666666663</ele><time>2026-04-18T11:50:47.096Z</time></trkpt><trkpt lat="44.0888667" lon="11.98879"><ele>264.5</ele><time>2026-04-18T11:50:49.096Z</time></trkpt><trkpt lat="44.088875" lon="11.9887"><ele>263.3333333333333</ele><time>2026-04-18T11:50:50.096Z</time></trkpt><trkpt lat="44.0888933" lon="11.9886083"><ele>262.1666666666667</ele><time>2026-04-18T11:50:51.096Z</time></trkpt><trkpt lat="44.088925" lon="11.9885283"><ele>261.0</ele><time>2026-04-18T11:50:52.096Z</time></trkpt><trkpt lat="44.088965" lon="11.98846"><ele>261.0</ele><time>2026-04-18T11:50:53.096Z</time></trkpt><trkpt lat="44.0890217" lon="11.9884"><ele>261.0</ele><time>2026-04-18T11:50:54.096Z</time></trkpt><trkpt lat="44.0890867" lon="11.9883433"><ele>261.0</ele><time>2026-04-18T11:50:55.096Z</time></trkpt><trkpt lat="44.0891467" lon="11.9882983"><ele>261.0</ele><time>2026-04-18T11:50:56.095Z</time></trkpt><trkpt lat="44.0892583" lon="11.9882767"><ele>261.0</ele><time>2026-04-18T11:50:58.096Z</time></trkpt><trkpt lat="44.0893683" lon="11.9883717"><ele>259.0</ele><time>2026-04-18T11:51:00.096Z</time></trkpt><trkpt lat="44.0894417" lon="11.9884783"><ele>257.0</ele><time>2026-04-18T11:51:01.095Z</time></trkpt><trkpt lat="44.0895217" lon="11.9886"><ele>255.00000000000003</ele><time>2026-04-18T11:51:02.096Z</time></trkpt><trkpt lat="44.0895983" lon="11.9887117"><ele>253.0</ele><time>2026-04-18T11:51:03.095Z</time></trkpt><trkpt lat="44.089665" lon="11.98881"><ele>251.0</ele><time>2026-04-18T11:51:04.095Z</time></trkpt><trkpt lat="44.0897267" lon="11.9889033"><ele>251.0</ele><time>2026-04-18T11:51:05.096Z</time></trkpt><trkpt lat="44.0897867" lon="11.9890017"><ele>251.00000000000003</ele><time>2026-04-18T11:51:06.095Z</time></trkpt><trkpt lat="44.0898533" lon="11.9890933"><ele>251.00000000000003</ele><time>2026-04-18T11:51:07.096Z</time></trkpt><trkpt lat="44.0899233" lon="11.9892017"><ele>251.0</ele><time>2026-04-18T11:51:08.096Z</time></trkpt><trkpt lat="44.0899933" lon="11.9892983"><ele>251.0</ele><time>2026-04-18T11:51:09.096Z</time></trkpt><trkpt lat="44.09006" lon="11.9893783"><ele>247.66666666666669</ele><time>2026-04-18T11:51:10.095Z</time></trkpt><trkpt lat="44.0901317" lon="11.9894583"><ele>244.33333333333334</ele><time>2026-04-18T11:51:11.095Z</time></trkpt><trkpt lat="44.09019" lon="11.989535"><ele>241.0</ele><time>2026-04-18T11:51:12.096Z</time></trkpt><trkpt lat="44.0902317" lon="11.98961"><ele>237.66666666666669</ele><time>2026-04-18T11:51:13.096Z</time></trkpt><trkpt lat="44.090265" lon="11.9896867"><ele>234.33333333333334</ele><time>2026-04-18T11:51:14.096Z</time></trkpt><trkpt lat="44.0903433" lon="11.9897817"><ele>231.0</ele><time>2026-04-18T11:51:16.096Z</time></trkpt><trkpt lat="44.0904083" lon="11.9898133"><ele>231.0</ele><time>2026-04-18T11:51:17.096Z</time></trkpt><trkpt lat="44.0904883" lon="11.98982"><ele>231.00000000000003</ele><time>2026-04-18T11:51:18.095Z</time></trkpt><trkpt lat="44.09057" lon="11.9897933"><ele>231.00000000000003</ele><time>2026-04-18T11:51:19.096Z</time></trkpt><trkpt lat="44.0906583" lon="11.989745"><ele>231.0</ele><time>2026-04-18T11:51:20.096Z</time></trkpt><trkpt lat="44.0907517" lon="11.9896583"><ele>231.0</ele><time>2026-04-18T11:51:21.095Z</time></trkpt><trkpt lat="44.0908517" lon="11.9895667"><ele>226.75</ele><time>2026-04-18T11:51:22.096Z</time></trkpt><trkpt lat="44.09096" lon="11.9894917"><ele>222.5</ele><time>2026-04-18T11:51:23.096Z</time></trkpt><trkpt lat="44.0910733" lon="11.9894417"><ele>218.25</ele><time>2026-04-18T11:51:24.096Z</time></trkpt><trkpt lat="44.091175" lon="11.9893917"><ele>214.0</ele><time>2026-04-18T11:51:25.095Z</time></trkpt><trkpt lat="44.0912683" lon="11.9893183"><ele>213.99999999999997</ele><time>2026-04-18T11:51:26.096Z</time></trkpt><trkpt lat="44.0913567" lon="11.989235"><ele>214.0</ele><time>2026-04-18T11:51:27.096Z</time></trkpt><trkpt lat="44.09143" lon="11.989175"><ele>214.0</ele><time>2026-04-18T11:51:28.096Z</time></trkpt><trkpt lat="44.0914833" lon="11.98912"><ele>214.0</ele><time>2026-04-18T11:51:29.096Z</time></trkpt><trkpt lat="44.091535" lon="11.9890667"><ele>213.99999999999997</ele><time>2026-04-18T11:51:30.095Z</time></trkpt><trkpt lat="44.0916217" lon="11.988955"><ele>214.0</ele><time>2026-04-18T11:51:32.096Z</time></trkpt><trkpt lat="44.0917" lon="11.9888467"><ele>213.0</ele><time>2026-04-18T11:51:34.096Z</time></trkpt><trkpt lat="44.0917517" lon="11.98874"><ele>211.99999999999997</ele><time>2026-04-18T11:51:36.096Z</time></trkpt><trkpt lat="44.0917867" lon="11.9885717"><ele>211.0</ele><time>2026-04-18T11:51:38.096Z</time></trkpt><trkpt lat="44.0918" lon="11.9884633"><ele>210.0</ele><time>2026-04-18T11:51:39.095Z</time></trkpt><trkpt lat="44.091815" lon="11.9883283"><ele>209.0</ele><time>2026-04-18T11:51:40.096Z</time></trkpt><trkpt lat="44.0918233" lon="11.9882"><ele>209.00000000000003</ele><time>2026-04-18T11:51:41.095Z</time></trkpt><trkpt lat="44.091815" lon="11.9880983"><ele>209.0</ele><time>2026-04-18T11:51:42.095Z</time></trkpt><trkpt lat="44.0917983" lon="11.9880133"><ele>209.0</ele><time>2026-04-18T11:51:43.096Z</time></trkpt><trkpt lat="44.0917633" lon="11.9878783"><ele>209.0</ele><time>2026-04-18T11:51:45.096Z</time></trkpt><trkpt lat="44.09177" lon="11.9877583"><ele>209.00000000000003</ele><time>2026-04-18T11:51:47.095Z</time></trkpt><trkpt lat="44.091785" lon="11.9876083"><ele>209.0</ele><time>2026-04-18T11:51:49.096Z</time></trkpt><trkpt lat="44.091715" lon="11.987475"><ele>207.33333333333334</ele><time>2026-04-18T11:51:51.096Z</time></trkpt><trkpt lat="44.0916567" lon="11.98743"><ele>205.66666666666669</ele><time>2026-04-18T11:51:53.095Z</time></trkpt><trkpt lat="44.0915983" lon="11.9873367"><ele>204.0</ele><time>2026-04-18T11:52:51.096Z</time></trkpt><trkpt lat="44.0914917" lon="11.9872567"><ele>202.33333333333331</ele><time>2026-04-18T11:52:53.096Z</time></trkpt><trkpt lat="44.091425" lon="11.9872067"><ele>200.66666666666666</ele><time>2026-04-18T11:52:54.096Z</time></trkpt><trkpt lat="44.0913683" lon="11.9871617"><ele>199.0</ele><time>2026-04-18T11:52:55.095Z</time></trkpt><trkpt lat="44.09131" lon="11.9871117"><ele>198.99999999999997</ele><time>2026-04-18T11:52:56.096Z</time></trkpt><trkpt lat="44.09125" lon="11.9870583"><ele>199.0</ele><time>2026-04-18T11:52:57.096Z</time></trkpt><trkpt lat="44.0911933" lon="11.986995"><ele>199.0</ele><time>2026-04-18T11:52:58.096Z</time></trkpt><trkpt lat="44.0911317" lon="11.9869233"><ele>199.0</ele><time>2026-04-18T11:52:59.096Z</time></trkpt><trkpt lat="44.0910683" lon="11.9868417"><ele>198.99999999999997</ele><time>2026-04-18T11:53:00.095Z</time></trkpt><trkpt lat="44.091005" lon="11.9867617"><ele>199.0</ele><time>2026-04-18T11:53:01.096Z</time></trkpt><trkpt lat="44.0909483" lon="11.9866967"><ele>199.16666666666666</ele><time>2026-04-18T11:53:02.096Z</time></trkpt><trkpt lat="44.090895" lon="11.986645"><ele>199.33333333333331</ele><time>2026-04-18T11:53:03.096Z</time></trkpt><trkpt lat="44.0908" lon="11.986525"><ele>199.5</ele><time>2026-04-18T11:53:05.096Z</time></trkpt><trkpt lat="44.090745" lon="11.98645"><ele>199.66666666666669</ele><time>2026-04-18T11:53:06.096Z</time></trkpt><trkpt lat="44.0906917" lon="11.98636"><ele>199.83333333333334</ele><time>2026-04-18T11:53:07.095Z</time></trkpt><trkpt lat="44.09064" lon="11.98626"><ele>200.0</ele><time>2026-04-18T11:53:08.096Z</time></trkpt><trkpt lat="44.0905967" lon="11.9861567"><ele>200.00000000000003</ele><time>2026-04-18T11:53:09.096Z</time></trkpt><trkpt lat="44.0905467" lon="11.9860633"><ele>200.0</ele><time>2026-04-18T11:53:10.096Z</time></trkpt><trkpt lat="44.0904933" lon="11.9859733"><ele>200.0</ele><time>2026-04-18T11:53:11.096Z</time></trkpt><trkpt lat="44.0904417" lon="11.985875"><ele>200.0</ele><time>2026-04-18T11:53:12.095Z</time></trkpt><trkpt lat="44.0903783" lon="11.9857933"><ele>200.00000000000003</ele><time>2026-04-18T11:53:13.096Z</time></trkpt><trkpt lat="44.0903067" lon="11.9857217"><ele>200.0</ele><time>2026-04-18T11:53:14.096Z</time></trkpt><trkpt lat="44.0902317" lon="11.9856667"><ele>198.2</ele><time>2026-04-18T11:53:15.096Z</time></trkpt><trkpt lat="44.0901517" lon="11.9856133"><ele>196.4</ele><time>2026-04-18T11:53:16.095Z</time></trkpt><trkpt lat="44.0900733" lon="11.985555"><ele>194.60000000000002</ele><time>2026-04-18T11:53:17.095Z</time></trkpt><trkpt lat="44.08998" lon="11.9855"><ele>192.8</ele><time>2026-04-18T11:53:18.096Z</time></trkpt><trkpt lat="44.0899017" lon="11.9854467"><ele>191.0</ele><time>2026-04-18T11:53:19.096Z</time></trkpt><trkpt lat="44.0898233" lon="11.98538"><ele>191.0</ele><time>2026-04-18T11:53:20.096Z</time></trkpt><trkpt lat="44.089735" lon="11.9853017"><ele>191.0</ele><time>2026-04-18T11:53:21.096Z</time></trkpt><trkpt lat="44.0896467" lon="11.9852383"><ele>191.0</ele><time>2026-04-18T11:53:22.096Z</time></trkpt><trkpt lat="44.0895567" lon="11.9851933"><ele>191.0</ele><time>2026-04-18T11:53:23.095Z</time></trkpt><trkpt lat="44.08948" lon="11.9851517"><ele>191.0</ele><time>2026-04-18T11:53:24.096Z</time></trkpt><trkpt lat="44.08939" lon="11.9850733"><ele>186.33333333333331</ele><time>2026-04-18T11:53:26.096Z</time></trkpt><trkpt lat="44.089365" lon="11.9849917"><ele>181.66666666666666</ele><time>2026-04-18T11:53:28.096Z</time></trkpt><trkpt lat="44.0894283" lon="11.9848917"><ele>177.0</ele><time>2026-04-18T11:53:30.096Z</time></trkpt><trkpt lat="44.0894917" lon="11.9848567"><ele>172.33333333333334</ele><time>2026-04-18T11:53:31.096Z</time></trkpt><trkpt lat="44.089575" lon="11.9848417"><ele>167.66666666666669</ele><time>2026-04-18T11:53:32.096Z</time></trkpt><trkpt lat="44.0896717" lon="11.9848217"><ele>163.0</ele><time>2026-04-18T11:53:33.096Z</time></trkpt><trkpt lat="44.0897567" lon="11.9847917"><ele>163.0</ele><time>2026-04-18T11:53:34.095Z</time></trkpt><trkpt lat="44.0898333" lon="11.9847633"><ele>163.0</ele><time>2026-04-18T11:53:35.096Z</time></trkpt><trkpt lat="44.089905" lon="11.9847267"><ele>163.0</ele><time>2026-04-18T11:53:36.096Z</time></trkpt><trkpt lat="44.0899733" lon="11.9846567"><ele>163.0</ele><time>2026-04-18T11:53:37.096Z</time></trkpt><trkpt lat="44.090035" lon="11.9845633"><ele>163.0</ele><time>2026-04-18T11:53:38.096Z</time></trkpt><trkpt lat="44.0900967" lon="11.9844333"><ele>163.0</ele><time>2026-04-18T11:53:39.096Z</time></trkpt><trkpt lat="44.0901467" lon="11.9842967"><ele>161.0</ele><time>2026-04-18T11:53:40.096Z</time></trkpt><trkpt lat="44.0902" lon="11.9841567"><ele>159.0</ele><time>2026-04-18T11:53:41.096Z</time></trkpt><trkpt lat="44.090255" lon="11.9840067"><ele>157.0</ele><time>2026-04-18T11:53:42.096Z</time></trkpt><trkpt lat="44.09032" lon="11.98382"><ele>155.0</ele><time>2026-04-18T11:53:43.096Z</time></trkpt><trkpt lat="44.0903767" lon="11.9836517"><ele>155.0</ele><time>2026-04-18T11:53:44.096Z</time></trkpt><trkpt lat="44.090435" lon="11.9835033"><ele>155.0</ele><time>2026-04-18T11:53:45.096Z</time></trkpt><trkpt lat="44.090495" lon="11.98336"><ele>155.0</ele><time>2026-04-18T11:53:46.096Z</time></trkpt><trkpt lat="44.09055" lon="11.9832383"><ele>155.0</ele><time>2026-04-18T11:53:47.096Z</time></trkpt><trkpt lat="44.0905933" lon="11.983115"><ele>155.0</ele><time>2026-04-18T11:53:48.095Z</time></trkpt><trkpt lat="44.0906467" lon="11.9829967"><ele>154.0</ele><time>2026-04-18T11:53:49.096Z</time></trkpt><trkpt lat="44.090705" lon="11.98288"><ele>153.0</ele><time>2026-04-18T11:53:50.096Z</time></trkpt><trkpt lat="44.0907783" lon="11.9827833"><ele>152.0</ele><time>2026-04-18T11:53:51.095Z</time></trkpt><trkpt lat="44.0908683" lon="11.9826917"><ele>151.0</ele><time>2026-04-18T11:53:52.096Z</time></trkpt><trkpt lat="44.0909733" lon="11.982625"><ele>150.0</ele><time>2026-04-18T11:53:53.096Z</time></trkpt><trkpt lat="44.0910767" lon="11.9825733"><ele>149.2</ele><time>2026-04-18T11:53:54.096Z</time></trkpt><trkpt lat="44.0911767" lon="11.9825133"><ele>148.4</ele><time>2026-04-18T11:53:55.096Z</time></trkpt><trkpt lat="44.0912583" lon="11.9824333"><ele>147.6</ele><time>2026-04-18T11:53:56.096Z</time></trkpt><trkpt lat="44.09134" lon="11.9823333"><ele>146.8</ele><time>2026-04-18T11:53:57.096Z</time></trkpt><trkpt lat="44.091405" lon="11.9821967"><ele>146.0</ele><time>2026-04-18T11:53:58.095Z</time></trkpt><trkpt lat="44.09146" lon="11.9820583"><ele>146.0</ele><time>2026-04-18T11:53:59.095Z</time></trkpt><trkpt lat="44.0915067" lon="11.98192"><ele>146.0</ele><time>2026-04-18T11:54:00.096Z</time></trkpt><trkpt lat="44.0915483" lon="11.9817917"><ele>146.0</ele><time>2026-04-18T11:54:01.096Z</time></trkpt><trkpt lat="44.09158" lon="11.9816733"><ele>146.0</ele><time>2026-04-18T11:54:02.096Z</time></trkpt><trkpt lat="44.09161" lon="11.9815717"><ele>146.0</ele><time>2026-04-18T11:54:03.096Z</time></trkpt><trkpt lat="44.0916433" lon="11.9814783"><ele>145.4</ele><time>2026-04-18T11:54:04.096Z</time></trkpt><trkpt lat="44.0916917" lon="11.9813733"><ele>144.8</ele><time>2026-04-18T11:54:06.096Z</time></trkpt><trkpt lat="44.091705" lon="11.9812533"><ele>144.20000000000002</ele><time>2026-04-18T11:54:17.096Z</time></trkpt><trkpt lat="44.0916283" lon="11.9812"><ele>143.6</ele><time>2026-04-18T11:54:18.096Z</time></trkpt><trkpt lat="44.0915283" lon="11.9811383"><ele>143.0</ele><time>2026-04-18T11:54:19.096Z</time></trkpt><trkpt lat="44.09141" lon="11.9810933"><ele>143.0</ele><time>2026-04-18T11:54:20.095Z</time></trkpt><trkpt lat="44.0912867" lon="11.981045"><ele>143.0</ele><time>2026-04-18T11:54:21.096Z</time></trkpt><trkpt lat="44.0911667" lon="11.98099"><ele>143.0</ele><time>2026-04-18T11:54:22.095Z</time></trkpt><trkpt lat="44.0910467" lon="11.980925"><ele>143.0</ele><time>2026-04-18T11:54:23.095Z</time></trkpt><trkpt lat="44.0909333" lon="11.9808317"><ele>143.25</ele><time>2026-04-18T11:54:24.096Z</time></trkpt><trkpt lat="44.0908433" lon="11.9807217"><ele>143.5</ele><time>2026-04-18T11:54:25.096Z</time></trkpt><trkpt lat="44.0907383" lon="11.980605"><ele>143.75</ele><time>2026-04-18T11:54:26.096Z</time></trkpt><trkpt lat="44.0906367" lon="11.9804717"><ele>144.0</ele><time>2026-04-18T11:54:27.096Z</time></trkpt><trkpt lat="44.090525" lon="11.9803383"><ele>144.0</ele><time>2026-04-18T11:54:28.096Z</time></trkpt><trkpt lat="44.0904167" lon="11.980235"><ele>144.0</ele><time>2026-04-18T11:54:29.096Z</time></trkpt><trkpt lat="44.09033" lon="11.98015"><ele>144.0</ele><time>2026-04-18T11:54:30.096Z</time></trkpt><trkpt lat="44.0902533" lon="11.9800833"><ele>144.0</ele><time>2026-04-18T11:54:31.096Z</time></trkpt><trkpt lat="44.09019" lon="11.9800183"><ele>144.0</ele><time>2026-04-18T11:54:32.096Z</time></trkpt><trkpt lat="44.0901283" lon="11.979965"><ele>144.66666666666666</ele><time>2026-04-18T11:54:33.096Z</time></trkpt><trkpt lat="44.0900817" lon="11.979905"><ele>145.33333333333334</ele><time>2026-04-18T11:54:34.096Z</time></trkpt><trkpt lat="44.0899833" lon="11.9798167"><ele>146.0</ele><time>2026-04-18T11:54:36.096Z</time></trkpt><trkpt lat="44.08992" lon="11.9797817"><ele>146.66666666666669</ele><time>2026-04-18T11:54:37.096Z</time></trkpt><trkpt lat="44.0898583" lon="11.9797383"><ele>147.33333333333334</ele><time>2026-04-18T11:54:38.096Z</time></trkpt><trkpt lat="44.0898083" lon="11.9796683"><ele>148.0</ele><time>2026-04-18T11:54:39.096Z</time></trkpt><trkpt lat="44.0897717" lon="11.9795267"><ele>148.0</ele><time>2026-04-18T11:54:41.096Z</time></trkpt><trkpt lat="44.0897483" lon="11.97939"><ele>148.0</ele><time>2026-04-18T11:54:43.095Z</time></trkpt><trkpt lat="44.0897167" lon="11.979295"><ele>148.0</ele><time>2026-04-18T11:54:45.096Z</time></trkpt><trkpt lat="44.089625" lon="11.9792"><ele>148.0</ele><time>2026-04-18T11:54:47.096Z</time></trkpt><trkpt lat="44.0895067" lon="11.9792117"><ele>148.0</ele><time>2026-04-18T11:54:49.096Z</time></trkpt><trkpt lat="44.08942" lon="11.9792917"><ele>148.0</ele><time>2026-04-18T11:54:51.096Z</time></trkpt><trkpt lat="44.0894717" lon="11.9793533"><ele>148.0</ele><time>2026-04-18T11:54:54.096Z</time></trkpt><trkpt lat="44.0895583" lon="11.979345"><ele>148.0</ele><time>2026-04-18T11:54:55.096Z</time></trkpt><trkpt lat="44.089635" lon="11.9793233"><ele>148.0</ele><time>2026-04-18T11:54:56.096Z</time></trkpt><trkpt lat="44.089685" lon="11.97938"><ele>148.0</ele><time>2026-04-18T12:06:58.097Z</time></trkpt><trkpt lat="44.0897017" lon="11.9794933"><ele>148.0</ele><time>2026-04-18T12:07:02.097Z</time></trkpt><trkpt lat="44.0897017" lon="11.979595"><ele>148.0</ele><time>2026-04-18T12:07:06.096Z</time></trkpt><trkpt lat="44.0897533" lon="11.9796933"><ele>148.0</ele><time>2026-04-18T12:07:09.097Z</time></trkpt><trkpt lat="44.0898267" lon="11.9797483"><ele>148.0</ele><time>2026-04-18T12:07:11.096Z</time></trkpt><trkpt lat="44.0899217" lon="11.9797883"><ele>148.0</ele><time>2026-04-18T12:07:13.097Z</time></trkpt><trkpt lat="44.089985" lon="11.9798167"><ele>148.0</ele><time>2026-04-18T12:07:14.097Z</time></trkpt><trkpt lat="44.0900683" lon="11.97985"><ele>148.0</ele><time>2026-04-18T12:07:15.097Z</time></trkpt><trkpt lat="44.090145" lon="11.9798817"><ele>148.5</ele><time>2026-04-18T12:07:16.097Z</time></trkpt><trkpt lat="44.0902183" lon="11.9799167"><ele>149.0</ele><time>2026-04-18T12:07:17.097Z</time></trkpt><trkpt lat="44.0902917" lon="11.9799517"><ele>149.5</ele><time>2026-04-18T12:07:18.097Z</time></trkpt><trkpt lat="44.09037" lon="11.9799867"><ele>150.0</ele><time>2026-04-18T12:07:19.097Z</time></trkpt><trkpt lat="44.0904533" lon="11.9800283"><ele>150.5</ele><time>2026-04-18T12:07:20.097Z</time></trkpt><trkpt lat="44.090545" lon="11.9800517"><ele>151.0</ele><time>2026-04-18T12:07:21.097Z</time></trkpt><trkpt lat="44.0906567" lon="11.9800783"><ele>149.8</ele><time>2026-04-18T12:07:22.097Z</time></trkpt><trkpt lat="44.0907683" lon="11.9801"><ele>148.6</ele><time>2026-04-18T12:07:23.097Z</time></trkpt><trkpt lat="44.09087" lon="11.98011"><ele>147.4</ele><time>2026-04-18T12:07:24.096Z</time></trkpt><trkpt lat="44.0909767" lon="11.9801133"><ele>146.2</ele><time>2026-04-18T12:07:25.097Z</time></trkpt><trkpt lat="44.0910917" lon="11.9800983"><ele>145.0</ele><time>2026-04-18T12:07:26.097Z</time></trkpt><trkpt lat="44.0912" lon="11.9800883"><ele>145.0</ele><time>2026-04-18T12:07:27.097Z</time></trkpt><trkpt lat="44.0913133" lon="11.98007"><ele>145.0</ele><time>2026-04-18T12:07:28.097Z</time></trkpt><trkpt lat="44.0914267" lon="11.9800533"><ele>145.0</ele><time>2026-04-18T12:07:29.097Z</time></trkpt><trkpt lat="44.0915483" lon="11.980035"><ele>145.0</ele><time>2026-04-18T12:07:30.097Z</time></trkpt><trkpt lat="44.0916733" lon="11.9800033"><ele>147.0</ele><time>2026-04-18T12:07:31.097Z</time></trkpt><trkpt lat="44.0917983" lon="11.9799617"><ele>149.0</ele><time>2026-04-18T12:07:32.097Z</time></trkpt><trkpt lat="44.0919267" lon="11.9799183"><ele>151.0</ele><time>2026-04-18T12:07:33.096Z</time></trkpt><trkpt lat="44.0920483" lon="11.979885"><ele>153.0</ele><time>2026-04-18T12:07:34.097Z</time></trkpt><trkpt lat="44.0921683" lon="11.9798517"><ele>153.0</ele><time>2026-04-18T12:07:35.096Z</time></trkpt><trkpt lat="44.092295" lon="11.9798133"><ele>153.0</ele><time>2026-04-18T12:07:36.097Z</time></trkpt><trkpt lat="44.092425" lon="11.979775"><ele>153.0</ele><time>2026-04-18T12:07:37.097Z</time></trkpt><trkpt lat="44.0925617" lon="11.9797417"><ele>153.0</ele><time>2026-04-18T12:07:38.097Z</time></trkpt><trkpt lat="44.092695" lon="11.9796967"><ele>153.0</ele><time>2026-04-18T12:07:39.097Z</time></trkpt><trkpt lat="44.09283" lon="11.9796533"><ele>153.0</ele><time>2026-04-18T12:07:40.097Z</time></trkpt><trkpt lat="44.09297" lon="11.9796033"><ele>153.0</ele><time>2026-04-18T12:07:41.097Z</time></trkpt><trkpt lat="44.093105" lon="11.9795567"><ele>153.0</ele><time>2026-04-18T12:07:42.097Z</time></trkpt><trkpt lat="44.0932383" lon="11.9795167"><ele>151.75</ele><time>2026-04-18T12:07:43.097Z</time></trkpt><trkpt lat="44.09338" lon="11.9794733"><ele>150.5</ele><time>2026-04-18T12:07:44.097Z</time></trkpt><trkpt lat="44.0935017" lon="11.97944"><ele>149.25</ele><time>2026-04-18T12:07:45.097Z</time></trkpt><trkpt lat="44.0936317" lon="11.979425"><ele>148.0</ele><time>2026-04-18T12:07:46.096Z</time></trkpt><trkpt lat="44.09376" lon="11.9794367"><ele>148.0</ele><time>2026-04-18T12:07:47.097Z</time></trkpt><trkpt lat="44.0938817" lon="11.9794817"><ele>148.0</ele><time>2026-04-18T12:07:48.097Z</time></trkpt><trkpt lat="44.0939917" lon="11.97954"><ele>148.0</ele><time>2026-04-18T12:07:49.097Z</time></trkpt><trkpt lat="44.0941" lon="11.9796"><ele>148.0</ele><time>2026-04-18T12:07:50.097Z</time></trkpt><trkpt lat="44.0942133" lon="11.9796767"><ele>148.0</ele><time>2026-04-18T12:07:51.097Z</time></trkpt><trkpt lat="44.0943283" lon="11.9797633"><ele>148.0</ele><time>2026-04-18T12:07:52.097Z</time></trkpt><trkpt lat="44.094445" lon="11.9798417"><ele>148.0</ele><time>2026-04-18T12:07:53.097Z</time></trkpt><trkpt lat="44.09456" lon="11.979925"><ele>148.0</ele><time>2026-04-18T12:07:54.097Z</time></trkpt><trkpt lat="44.0946733" lon="11.9800133"><ele>148.0</ele><time>2026-04-18T12:07:55.097Z</time></trkpt><trkpt lat="44.0947967" lon="11.9800933"><ele>148.0</ele><time>2026-04-18T12:07:56.097Z</time></trkpt><trkpt lat="44.09491" lon="11.9801767"><ele>148.0</ele><time>2026-04-18T12:07:57.097Z</time></trkpt><trkpt lat="44.0950217" lon="11.98026"><ele>148.0</ele><time>2026-04-18T12:07:58.097Z</time></trkpt><trkpt lat="44.0951383" lon="11.9803433"><ele>148.0</ele><time>2026-04-18T12:07:59.096Z</time></trkpt><trkpt lat="44.0952517" lon="11.9804267"><ele>148.0</ele><time>2026-04-18T12:08:00.097Z</time></trkpt><trkpt lat="44.0953617" lon="11.9805117"><ele>148.0</ele><time>2026-04-18T12:08:01.097Z</time></trkpt><trkpt lat="44.0954783" lon="11.9806033"><ele>148.0</ele><time>2026-04-18T12:08:02.097Z</time></trkpt><trkpt lat="44.095585" lon="11.9806867"><ele>148.0</ele><time>2026-04-18T12:08:03.097Z</time></trkpt><trkpt lat="44.095705" lon="11.9807717"><ele>148.0</ele><time>2026-04-18T12:08:04.097Z</time></trkpt><trkpt lat="44.095825" lon="11.98086"><ele>148.0</ele><time>2026-04-18T12:08:05.096Z</time></trkpt><trkpt lat="44.0959433" lon="11.980945"><ele>148.0</ele><time>2026-04-18T12:08:06.097Z</time></trkpt><trkpt lat="44.0960583" lon="11.9810367"><ele>147.5</ele><time>2026-04-18T12:08:07.097Z</time></trkpt><trkpt lat="44.0961767" lon="11.981125"><ele>147.0</ele><time>2026-04-18T12:08:08.097Z</time></trkpt><trkpt lat="44.0963" lon="11.9811967"><ele>146.5</ele><time>2026-04-18T12:08:09.097Z</time></trkpt><trkpt lat="44.0964217" lon="11.9812583"><ele>146.0</ele><time>2026-04-18T12:08:10.097Z</time></trkpt><trkpt lat="44.0965383" lon="11.9813133"><ele>145.75</ele><time>2026-04-18T12:08:11.097Z</time></trkpt><trkpt lat="44.096655" lon="11.98138"><ele>145.5</ele><time>2026-04-18T12:08:12.096Z</time></trkpt><trkpt lat="44.09679" lon="11.9814217"><ele>145.25</ele><time>2026-04-18T12:08:13.096Z</time></trkpt><trkpt lat="44.0969283" lon="11.9814617"><ele>145.0</ele><time>2026-04-18T12:08:14.097Z</time></trkpt><trkpt lat="44.0970567" lon="11.9814833"><ele>145.0</ele><time>2026-04-18T12:08:15.096Z</time></trkpt><trkpt lat="44.0971983" lon="11.981495"><ele>145.0</ele><time>2026-04-18T12:08:16.097Z</time></trkpt><trkpt lat="44.0973317" lon="11.9814817"><ele>145.0</ele><time>2026-04-18T12:08:17.097Z</time></trkpt><trkpt lat="44.0974617" lon="11.9814933"><ele>145.0</ele><time>2026-04-18T12:08:18.097Z</time></trkpt><trkpt lat="44.09759" lon="11.9814783"><ele>144.5</ele><time>2026-04-18T12:08:19.096Z</time></trkpt><trkpt lat="44.0977217" lon="11.9814533"><ele>144.0</ele><time>2026-04-18T12:08:20.096Z</time></trkpt><trkpt lat="44.09786" lon="11.9814233"><ele>143.5</ele><time>2026-04-18T12:08:21.097Z</time></trkpt><trkpt lat="44.0980033" lon="11.98139"><ele>143.0</ele><time>2026-04-18T12:08:22.097Z</time></trkpt><trkpt lat="44.0981433" lon="11.9813567"><ele>142.75</ele><time>2026-04-18T12:08:23.096Z</time></trkpt><trkpt lat="44.0982867" lon="11.98133"><ele>142.5</ele><time>2026-04-18T12:08:24.097Z</time></trkpt><trkpt lat="44.0984317" lon="11.981305"><ele>142.25</ele><time>2026-04-18T12:08:25.097Z</time></trkpt><trkpt lat="44.09858" lon="11.98129"><ele>142.0</ele><time>2026-04-18T12:08:26.097Z</time></trkpt><trkpt lat="44.0987317" lon="11.9812617"><ele>142.0</ele><time>2026-04-18T12:08:27.097Z</time></trkpt><trkpt lat="44.0988883" lon="11.9812383"><ele>142.0</ele><time>2026-04-18T12:08:28.097Z</time></trkpt><trkpt lat="44.0990367" lon="11.9812167"><ele>142.0</ele><time>2026-04-18T12:08:29.096Z</time></trkpt><trkpt lat="44.0991833" lon="11.9811883"><ele>142.0</ele><time>2026-04-18T12:08:30.097Z</time></trkpt><trkpt lat="44.0993317" lon="11.9811617"><ele>142.0</ele><time>2026-04-18T12:08:31.097Z</time></trkpt><trkpt lat="44.09948" lon="11.98114"><ele>142.0</ele><time>2026-04-18T12:08:32.097Z</time></trkpt><trkpt lat="44.09963" lon="11.98111"><ele>142.0</ele><time>2026-04-18T12:08:33.097Z</time></trkpt><trkpt lat="44.0997767" lon="11.98107"><ele>142.0</ele><time>2026-04-18T12:08:34.097Z</time></trkpt><trkpt lat="44.099925" lon="11.9810467"><ele>142.0</ele><time>2026-04-18T12:08:35.097Z</time></trkpt><trkpt lat="44.1000767" lon="11.9810133"><ele>140.75</ele><time>2026-04-18T12:08:36.097Z</time></trkpt><trkpt lat="44.1002267" lon="11.9809967"><ele>139.5</ele><time>2026-04-18T12:08:37.097Z</time></trkpt><trkpt lat="44.1003683" lon="11.9809933"><ele>138.25</ele><time>2026-04-18T12:08:38.097Z</time></trkpt><trkpt lat="44.1005167" lon="11.9809983"><ele>137.0</ele><time>2026-04-18T12:08:39.097Z</time></trkpt><trkpt lat="44.1006483" lon="11.98103"><ele>137.25</ele><time>2026-04-18T12:08:40.097Z</time></trkpt><trkpt lat="44.1007717" lon="11.981075"><ele>137.5</ele><time>2026-04-18T12:08:41.097Z</time></trkpt><trkpt lat="44.10091" lon="11.9811267"><ele>137.75</ele><time>2026-04-18T12:08:42.097Z</time></trkpt><trkpt lat="44.1010383" lon="11.9811717"><ele>138.0</ele><time>2026-04-18T12:08:43.097Z</time></trkpt><trkpt lat="44.1011667" lon="11.9812117"><ele>138.0</ele><time>2026-04-18T12:08:44.097Z</time></trkpt><trkpt lat="44.1012917" lon="11.98124"><ele>138.0</ele><time>2026-04-18T12:08:45.097Z</time></trkpt><trkpt lat="44.1014183" lon="11.9812683"><ele>138.0</ele><time>2026-04-18T12:08:46.097Z</time></trkpt><trkpt lat="44.1015567" lon="11.9813183"><ele>138.0</ele><time>2026-04-18T12:08:47.097Z</time></trkpt><trkpt lat="44.1016867" lon="11.9813667"><ele>137.5</ele><time>2026-04-18T12:08:48.097Z</time></trkpt><trkpt lat="44.10181" lon="11.9814017"><ele>137.0</ele><time>2026-04-18T12:08:49.096Z</time></trkpt><trkpt lat="44.101925" lon="11.9814333"><ele>136.5</ele><time>2026-04-18T12:08:50.097Z</time></trkpt><trkpt lat="44.102025" lon="11.98146"><ele>136.0</ele><time>2026-04-18T12:08:51.097Z</time></trkpt><trkpt lat="44.1021333" lon="11.9814917"><ele>136.0</ele><time>2026-04-18T12:08:52.097Z</time></trkpt><trkpt lat="44.1022283" lon="11.9815167"><ele>136.0</ele><time>2026-04-18T12:08:53.097Z</time></trkpt><trkpt lat="44.102335" lon="11.9815317"><ele>136.0</ele><time>2026-04-18T12:08:54.097Z</time></trkpt><trkpt lat="44.1024383" lon="11.9815433"><ele>136.0</ele><time>2026-04-18T12:08:55.097Z</time></trkpt><trkpt lat="44.1025283" lon="11.9815383"><ele>136.0</ele><time>2026-04-18T12:08:56.097Z</time></trkpt><trkpt lat="44.1026133" lon="11.981535"><ele>135.33333333333334</ele><time>2026-04-18T12:08:57.097Z</time></trkpt><trkpt lat="44.1026967" lon="11.9815367"><ele>134.66666666666669</ele><time>2026-04-18T12:08:58.097Z</time></trkpt><trkpt lat="44.1027767" lon="11.9815383"><ele>134.0</ele><time>2026-04-18T12:08:59.097Z</time></trkpt><trkpt lat="44.10287" lon="11.981545"><ele>133.33333333333334</ele><time>2026-04-18T12:09:01.097Z</time></trkpt><trkpt lat="44.10294" lon="11.9815333"><ele>132.66666666666666</ele><time>2026-04-18T12:09:05.097Z</time></trkpt><trkpt lat="44.103015" lon="11.9815167"><ele>132.0</ele><time>2026-04-18T12:09:07.097Z</time></trkpt><trkpt lat="44.10312" lon="11.981515"><ele>132.0</ele><time>2026-04-18T12:09:09.097Z</time></trkpt><trkpt lat="44.1031933" lon="11.981535"><ele>132.0</ele><time>2026-04-18T12:09:10.097Z</time></trkpt><trkpt lat="44.1032667" lon="11.98154"><ele>132.0</ele><time>2026-04-18T12:09:11.097Z</time></trkpt><trkpt lat="44.103345" lon="11.9815433"><ele>132.0</ele><time>2026-04-18T12:09:12.097Z</time></trkpt><trkpt lat="44.1034333" lon="11.9815533"><ele>132.0</ele><time>2026-04-18T12:09:13.097Z</time></trkpt><trkpt lat="44.1035217" lon="11.98156"><ele>132.0</ele><time>2026-04-18T12:09:14.096Z</time></trkpt><trkpt lat="44.1036117" lon="11.9815667"><ele>132.0</ele><time>2026-04-18T12:09:15.096Z</time></trkpt><trkpt lat="44.1037067" lon="11.9815583"><ele>132.0</ele><time>2026-04-18T12:09:16.097Z</time></trkpt><trkpt lat="44.1038117" lon="11.9815683"><ele>132.0</ele><time>2026-04-18T12:09:17.097Z</time></trkpt><trkpt lat="44.1039167" lon="11.98157"><ele>132.0</ele><time>2026-04-18T12:09:18.097Z</time></trkpt><trkpt lat="44.10402" lon="11.9815567"><ele>132.0</ele><time>2026-04-18T12:09:19.096Z</time></trkpt><trkpt lat="44.104135" lon="11.9815667"><ele>131.79999999999998</ele><time>2026-04-18T12:09:20.096Z</time></trkpt><trkpt lat="44.1042417" lon="11.9815667"><ele>131.6</ele><time>2026-04-18T12:09:21.096Z</time></trkpt><trkpt lat="44.1043417" lon="11.981575"><ele>131.39999999999998</ele><time>2026-04-18T12:09:22.097Z</time></trkpt><trkpt lat="44.1044517" lon="11.9815883"><ele>131.2</ele><time>2026-04-18T12:09:23.096Z</time></trkpt><trkpt lat="44.1045517" lon="11.9815917"><ele>131.0</ele><time>2026-04-18T12:09:24.097Z</time></trkpt><trkpt lat="44.1046467" lon="11.9815933"><ele>131.0</ele><time>2026-04-18T12:09:25.097Z</time></trkpt><trkpt lat="44.10475" lon="11.9816"><ele>131.0</ele><time>2026-04-18T12:09:26.097Z</time></trkpt><trkpt lat="44.104855" lon="11.9816083"><ele>131.0</ele><time>2026-04-18T12:09:27.096Z</time></trkpt><trkpt lat="44.1049467" lon="11.98161"><ele>131.0</ele><time>2026-04-18T12:09:28.096Z</time></trkpt><trkpt lat="44.10505" lon="11.9816183"><ele>131.0</ele><time>2026-04-18T12:09:29.097Z</time></trkpt><trkpt lat="44.1051567" lon="11.98163"><ele>130.6</ele><time>2026-04-18T12:09:30.096Z</time></trkpt><trkpt lat="44.1052583" lon="11.9816433"><ele>130.2</ele><time>2026-04-18T12:09:31.097Z</time></trkpt><trkpt lat="44.1053467" lon="11.9816433"><ele>129.8</ele><time>2026-04-18T12:09:32.097Z</time></trkpt><trkpt lat="44.1054283" lon="11.9816467"><ele>129.4</ele><time>2026-04-18T12:09:33.097Z</time></trkpt><trkpt lat="44.105515" lon="11.9816433"><ele>129.0</ele><time>2026-04-18T12:09:34.097Z</time></trkpt><trkpt lat="44.1056067" lon="11.9816467"><ele>129.0</ele><time>2026-04-18T12:09:35.097Z</time></trkpt><trkpt lat="44.1056983" lon="11.9816417"><ele>129.0</ele><time>2026-04-18T12:09:36.097Z</time></trkpt><trkpt lat="44.1057933" lon="11.9816583"><ele>129.0</ele><time>2026-04-18T12:09:37.097Z</time></trkpt><trkpt lat="44.105885" lon="11.9816617"><ele>129.0</ele><time>2026-04-18T12:09:38.097Z</time></trkpt><trkpt lat="44.10597" lon="11.98166"><ele>129.0</ele><time>2026-04-18T12:09:39.097Z</time></trkpt><trkpt lat="44.1060567" lon="11.9816517"><ele>129.0</ele><time>2026-04-18T12:09:40.096Z</time></trkpt><trkpt lat="44.106145" lon="11.98165"><ele>129.0</ele><time>2026-04-18T12:09:41.096Z</time></trkpt><trkpt lat="44.10623" lon="11.9816367"><ele>129.0</ele><time>2026-04-18T12:09:42.097Z</time></trkpt><trkpt lat="44.1063183" lon="11.9816133"><ele>129.0</ele><time>2026-04-18T12:09:43.096Z</time></trkpt><trkpt lat="44.1064033" lon="11.9815917"><ele>129.0</ele><time>2026-04-18T12:09:44.097Z</time></trkpt><trkpt lat="44.1064833" lon="11.9815667"><ele>129.0</ele><time>2026-04-18T12:09:45.097Z</time></trkpt><trkpt lat="44.1065733" lon="11.9815517"><ele>129.0</ele><time>2026-04-18T12:09:46.096Z</time></trkpt><trkpt lat="44.1066583" lon="11.981525"><ele>129.0</ele><time>2026-04-18T12:09:47.096Z</time></trkpt><trkpt lat="44.1067467" lon="11.9814967"><ele>129.0</ele><time>2026-04-18T12:09:48.097Z</time></trkpt><trkpt lat="44.1068417" lon="11.9814667"><ele>129.0</ele><time>2026-04-18T12:09:49.097Z</time></trkpt><trkpt lat="44.1069267" lon="11.9814333"><ele>129.0</ele><time>2026-04-18T12:09:50.097Z</time></trkpt><trkpt lat="44.1070267" lon="11.9814233"><ele>129.0</ele><time>2026-04-18T12:09:51.097Z</time></trkpt><trkpt lat="44.1071133" lon="11.9814117"><ele>129.0</ele><time>2026-04-18T12:09:52.097Z</time></trkpt><trkpt lat="44.1071967" lon="11.98138"><ele>129.0</ele><time>2026-04-18T12:09:53.097Z</time></trkpt><trkpt lat="44.10728" lon="11.981355"><ele>129.0</ele><time>2026-04-18T12:09:54.097Z</time></trkpt><trkpt lat="44.1073683" lon="11.9813233"><ele>129.0</ele><time>2026-04-18T12:09:55.097Z</time></trkpt><trkpt lat="44.1074517" lon="11.9813"><ele>129.0</ele><time>2026-04-18T12:09:56.097Z</time></trkpt><trkpt lat="44.1075317" lon="11.9812783"><ele>128.83333333333334</ele><time>2026-04-18T12:09:57.096Z</time></trkpt><trkpt lat="44.10761" lon="11.9812567"><ele>128.66666666666666</ele><time>2026-04-18T12:09:58.097Z</time></trkpt><trkpt lat="44.1076867" lon="11.9812283"><ele>128.5</ele><time>2026-04-18T12:09:59.097Z</time></trkpt><trkpt lat="44.1077667" lon="11.9812083"><ele>128.33333333333331</ele><time>2026-04-18T12:10:00.097Z</time></trkpt><trkpt lat="44.1078567" lon="11.9811883"><ele>128.16666666666666</ele><time>2026-04-18T12:10:01.096Z</time></trkpt><trkpt lat="44.10795" lon="11.9811667"><ele>128.0</ele><time>2026-04-18T12:10:02.097Z</time></trkpt><trkpt lat="44.1080483" lon="11.98114"><ele>128.0</ele><time>2026-04-18T12:10:03.096Z</time></trkpt><trkpt lat="44.1081517" lon="11.9811167"><ele>128.0</ele><time>2026-04-18T12:10:04.096Z</time></trkpt><trkpt lat="44.1082517" lon="11.98109"><ele>128.0</ele><time>2026-04-18T12:10:05.097Z</time></trkpt><trkpt lat="44.1083517" lon="11.9810633"><ele>128.0</ele><time>2026-04-18T12:10:06.096Z</time></trkpt><trkpt lat="44.108455" lon="11.9810467"><ele>128.0</ele><time>2026-04-18T12:10:07.097Z</time></trkpt><trkpt lat="44.10856" lon="11.9810383"><ele>127.60000000000001</ele><time>2026-04-18T12:10:08.096Z</time></trkpt><trkpt lat="44.108665" lon="11.9810133"><ele>127.20000000000002</ele><time>2026-04-18T12:10:09.097Z</time></trkpt><trkpt lat="44.1087733" lon="11.9809817"><ele>126.8</ele><time>2026-04-18T12:10:10.096Z</time></trkpt><trkpt lat="44.1088783" lon="11.9809683"><ele>126.4</ele><time>2026-04-18T12:10:11.097Z</time></trkpt><trkpt lat="44.1089833" lon="11.980945"><ele>126.0</ele><time>2026-04-18T12:10:12.096Z</time></trkpt><trkpt lat="44.1090817" lon="11.9809167"><ele>126.19999999999999</ele><time>2026-04-18T12:10:13.097Z</time></trkpt><trkpt lat="44.1091867" lon="11.9808867"><ele>126.39999999999999</ele><time>2026-04-18T12:10:14.097Z</time></trkpt><trkpt lat="44.1092983" lon="11.98086"><ele>126.6</ele><time>2026-04-18T12:10:15.096Z</time></trkpt><trkpt lat="44.1094083" lon="11.9808317"><ele>126.8</ele><time>2026-04-18T12:10:16.096Z</time></trkpt><trkpt lat="44.10951" lon="11.9807983"><ele>127.0</ele><time>2026-04-18T12:10:17.097Z</time></trkpt><trkpt lat="44.10962" lon="11.9807567"><ele>127.0</ele><time>2026-04-18T12:10:18.097Z</time></trkpt><trkpt lat="44.1097283" lon="11.9807133"><ele>127.0</ele><time>2026-04-18T12:10:19.097Z</time></trkpt><trkpt lat="44.1098383" lon="11.9806583"><ele>127.0</ele><time>2026-04-18T12:10:20.097Z</time></trkpt><trkpt lat="44.1099383" lon="11.9805783"><ele>127.0</ele><time>2026-04-18T12:10:21.096Z</time></trkpt><trkpt lat="44.1100383" lon="11.9804883"><ele>125.75</ele><time>2026-04-18T12:10:22.097Z</time></trkpt><trkpt lat="44.1101217" lon="11.9803767"><ele>124.5</ele><time>2026-04-18T12:10:23.096Z</time></trkpt><trkpt lat="44.1101883" lon="11.98025"><ele>123.25</ele><time>2026-04-18T12:10:24.097Z</time></trkpt><trkpt lat="44.110265" lon="11.9801183"><ele>122.0</ele><time>2026-04-18T12:10:25.097Z</time></trkpt><trkpt lat="44.1103467" lon="11.9799967"><ele>122.0</ele><time>2026-04-18T12:10:26.097Z</time></trkpt><trkpt lat="44.11043" lon="11.9798633"><ele>122.0</ele><time>2026-04-18T12:10:27.097Z</time></trkpt><trkpt lat="44.1105183" lon="11.97974"><ele>122.0</ele><time>2026-04-18T12:10:28.097Z</time></trkpt><trkpt lat="44.1106033" lon="11.9795933"><ele>122.0</ele><time>2026-04-18T12:10:29.097Z</time></trkpt><trkpt lat="44.1106933" lon="11.9794617"><ele>120.75</ele><time>2026-04-18T12:10:30.097Z</time></trkpt><trkpt lat="44.1107833" lon="11.9793433"><ele>119.5</ele><time>2026-04-18T12:10:31.096Z</time></trkpt><trkpt lat="44.1108667" lon="11.9792383"><ele>118.25</ele><time>2026-04-18T12:10:32.097Z</time></trkpt><trkpt lat="44.110965" lon="11.97915"><ele>117.0</ele><time>2026-04-18T12:10:33.097Z</time></trkpt><trkpt lat="44.1110767" lon="11.9790767"><ele>117.0</ele><time>2026-04-18T12:10:34.097Z</time></trkpt><trkpt lat="44.1112" lon="11.9790367"><ele>117.0</ele><time>2026-04-18T12:10:35.097Z</time></trkpt><trkpt lat="44.1113233" lon="11.979005"><ele>117.0</ele><time>2026-04-18T12:10:36.097Z</time></trkpt><trkpt lat="44.1114433" lon="11.9789783"><ele>117.0</ele><time>2026-04-18T12:10:37.097Z</time></trkpt><trkpt lat="44.11157" lon="11.97896"><ele>116.25</ele><time>2026-04-18T12:10:38.097Z</time></trkpt><trkpt lat="44.1117" lon="11.9789417"><ele>115.5</ele><time>2026-04-18T12:10:39.097Z</time></trkpt><trkpt lat="44.1118317" lon="11.97892"><ele>114.75</ele><time>2026-04-18T12:10:40.097Z</time></trkpt><trkpt lat="44.1119617" lon="11.97889"><ele>114.0</ele><time>2026-04-18T12:10:41.097Z</time></trkpt><trkpt lat="44.1120817" lon="11.9788833"><ele>114.0</ele><time>2026-04-18T12:10:42.097Z</time></trkpt><trkpt lat="44.1121933" lon="11.978895"><ele>114.0</ele><time>2026-04-18T12:10:43.097Z</time></trkpt><trkpt lat="44.1123117" lon="11.97891"><ele>114.0</ele><time>2026-04-18T12:10:44.097Z</time></trkpt><trkpt lat="44.1124333" lon="11.9789417"><ele>114.0</ele><time>2026-04-18T12:10:45.097Z</time></trkpt><trkpt lat="44.1125583" lon="11.9789833"><ele>114.5</ele><time>2026-04-18T12:10:46.097Z</time></trkpt><trkpt lat="44.1126683" lon="11.979015"><ele>115.0</ele><time>2026-04-18T12:10:47.097Z</time></trkpt><trkpt lat="44.112795" lon="11.9790633"><ele>115.5</ele><time>2026-04-18T12:10:48.097Z</time></trkpt><trkpt lat="44.1129267" lon="11.9791033"><ele>116.0</ele><time>2026-04-18T12:10:49.097Z</time></trkpt><trkpt lat="44.1130567" lon="11.97915"><ele>115.25</ele><time>2026-04-18T12:10:50.096Z</time></trkpt><trkpt lat="44.113185" lon="11.979185"><ele>114.5</ele><time>2026-04-18T12:10:51.096Z</time></trkpt><trkpt lat="44.11331" lon="11.9792233"><ele>113.75</ele><time>2026-04-18T12:10:52.097Z</time></trkpt><trkpt lat="44.11343" lon="11.9792633"><ele>113.0</ele><time>2026-04-18T12:10:53.097Z</time></trkpt><trkpt lat="44.1135583" lon="11.9793033"><ele>113.0</ele><time>2026-04-18T12:10:54.097Z</time></trkpt><trkpt lat="44.113685" lon="11.9793467"><ele>113.0</ele><time>2026-04-18T12:10:55.096Z</time></trkpt><trkpt lat="44.1138083" lon="11.9793867"><ele>113.0</ele><time>2026-04-18T12:10:56.097Z</time></trkpt><trkpt lat="44.113935" lon="11.97942"><ele>113.0</ele><time>2026-04-18T12:10:57.096Z</time></trkpt><trkpt lat="44.1140667" lon="11.97945"><ele>113.0</ele><time>2026-04-18T12:10:58.096Z</time></trkpt><trkpt lat="44.114195" lon="11.9794583"><ele>113.0</ele><time>2026-04-18T12:10:59.096Z</time></trkpt><trkpt lat="44.1143117" lon="11.9794383"><ele>113.0</ele><time>2026-04-18T12:11:00.096Z</time></trkpt><trkpt lat="44.1144333" lon="11.9793733"><ele>113.0</ele><time>2026-04-18T12:11:01.097Z</time></trkpt><trkpt lat="44.114545" lon="11.9793083"><ele>113.0</ele><time>2026-04-18T12:11:02.097Z</time></trkpt><trkpt lat="44.1146533" lon="11.9792217"><ele>113.0</ele><time>2026-04-18T12:11:03.097Z</time></trkpt><trkpt lat="44.1147583" lon="11.9790933"><ele>113.0</ele><time>2026-04-18T12:11:04.097Z</time></trkpt><trkpt lat="44.114865" lon="11.9789683"><ele>113.0</ele><time>2026-04-18T12:11:05.097Z</time></trkpt><trkpt lat="44.1149417" lon="11.978815"><ele>114.25</ele><time>2026-04-18T12:11:06.097Z</time></trkpt><trkpt lat="44.1150017" lon="11.9786467"><ele>115.5</ele><time>2026-04-18T12:11:07.097Z</time></trkpt><trkpt lat="44.115045" lon="11.9784717"><ele>116.75</ele><time>2026-04-18T12:11:08.097Z</time></trkpt><trkpt lat="44.1150583" lon="11.9782833"><ele>118.0</ele><time>2026-04-18T12:11:09.096Z</time></trkpt><trkpt lat="44.11507" lon="11.9781033"><ele>118.25</ele><time>2026-04-18T12:11:10.097Z</time></trkpt><trkpt lat="44.1150833" lon="11.9779133"><ele>118.5</ele><time>2026-04-18T12:11:11.097Z</time></trkpt><trkpt lat="44.1150983" lon="11.9777233"><ele>118.75</ele><time>2026-04-18T12:11:12.097Z</time></trkpt><trkpt lat="44.1151183" lon="11.9775483"><ele>119.0</ele><time>2026-04-18T12:11:13.097Z</time></trkpt><trkpt lat="44.1151433" lon="11.9773817"><ele>119.0</ele><time>2026-04-18T12:11:14.097Z</time></trkpt><trkpt lat="44.11518" lon="11.9772017"><ele>119.0</ele><time>2026-04-18T12:11:15.097Z</time></trkpt><trkpt lat="44.115225" lon="11.9770117"><ele>119.0</ele><time>2026-04-18T12:11:16.097Z</time></trkpt><trkpt lat="44.1153" lon="11.9768583"><ele>119.0</ele><time>2026-04-18T12:11:17.097Z</time></trkpt><trkpt lat="44.1153883" lon="11.9767067"><ele>119.0</ele><time>2026-04-18T12:11:18.097Z</time></trkpt><trkpt lat="44.1154767" lon="11.976565"><ele>119.0</ele><time>2026-04-18T12:11:19.097Z</time></trkpt><trkpt lat="44.1155617" lon="11.9764383"><ele>119.0</ele><time>2026-04-18T12:11:20.097Z</time></trkpt><trkpt lat="44.1156533" lon="11.9763283"><ele>119.0</ele><time>2026-04-18T12:11:21.097Z</time></trkpt><trkpt lat="44.1157633" lon="11.9762417"><ele>115.25</ele><time>2026-04-18T12:11:22.097Z</time></trkpt><trkpt lat="44.1158733" lon="11.97616"><ele>111.5</ele><time>2026-04-18T12:11:23.097Z</time></trkpt><trkpt lat="44.1159817" lon="11.9760883"><ele>107.75</ele><time>2026-04-18T12:11:24.096Z</time></trkpt><trkpt lat="44.1160967" lon="11.9760417"><ele>104.0</ele><time>2026-04-18T12:11:25.097Z</time></trkpt><trkpt lat="44.1162217" lon="11.9759983"><ele>104.0</ele><time>2026-04-18T12:11:26.097Z</time></trkpt><trkpt lat="44.116335" lon="11.9759633"><ele>104.0</ele><time>2026-04-18T12:11:27.097Z</time></trkpt><trkpt lat="44.1164467" lon="11.9759467"><ele>104.0</ele><time>2026-04-18T12:11:28.097Z</time></trkpt><trkpt lat="44.1165667" lon="11.975955"><ele>104.0</ele><time>2026-04-18T12:11:29.096Z</time></trkpt><trkpt lat="44.1166883" lon="11.97599"><ele>104.0</ele><time>2026-04-18T12:11:30.096Z</time></trkpt><trkpt lat="44.1168117" lon="11.976025"><ele>104.0</ele><time>2026-04-18T12:11:31.097Z</time></trkpt><trkpt lat="44.1169417" lon="11.97607"><ele>104.0</ele><time>2026-04-18T12:11:32.097Z</time></trkpt><trkpt lat="44.1170733" lon="11.9761117"><ele>104.0</ele><time>2026-04-18T12:11:33.097Z</time></trkpt><trkpt lat="44.1172083" lon="11.9761467"><ele>104.0</ele><time>2026-04-18T12:11:34.097Z</time></trkpt><trkpt lat="44.1173467" lon="11.976195"><ele>104.0</ele><time>2026-04-18T12:11:35.096Z</time></trkpt><trkpt lat="44.11748" lon="11.976225"><ele>104.0</ele><time>2026-04-18T12:11:36.097Z</time></trkpt><trkpt lat="44.1176083" lon="11.9762667"><ele>104.0</ele><time>2026-04-18T12:11:37.096Z</time></trkpt><trkpt lat="44.1177383" lon="11.97631"><ele>104.75</ele><time>2026-04-18T12:11:38.097Z</time></trkpt><trkpt lat="44.1178667" lon="11.9763433"><ele>105.5</ele><time>2026-04-18T12:11:39.097Z</time></trkpt><trkpt lat="44.1179883" lon="11.9763783"><ele>106.25</ele><time>2026-04-18T12:11:40.097Z</time></trkpt><trkpt lat="44.1181083" lon="11.9764083"><ele>107.0</ele><time>2026-04-18T12:11:41.097Z</time></trkpt><trkpt lat="44.1182217" lon="11.976445"><ele>107.25</ele><time>2026-04-18T12:11:42.097Z</time></trkpt><trkpt lat="44.11834" lon="11.97649"><ele>107.5</ele><time>2026-04-18T12:11:43.097Z</time></trkpt><trkpt lat="44.118455" lon="11.9765267"><ele>107.75</ele><time>2026-04-18T12:11:44.096Z</time></trkpt><trkpt lat="44.1185733" lon="11.9765583"><ele>108.0</ele><time>2026-04-18T12:11:45.097Z</time></trkpt><trkpt lat="44.1186933" lon="11.9765883"><ele>108.0</ele><time>2026-04-18T12:11:46.097Z</time></trkpt><trkpt lat="44.1188067" lon="11.976605"><ele>108.0</ele><time>2026-04-18T12:11:47.097Z</time></trkpt><trkpt lat="44.1189183" lon="11.9765967"><ele>108.0</ele><time>2026-04-18T12:11:48.097Z</time></trkpt><trkpt lat="44.1190333" lon="11.9765467"><ele>108.0</ele><time>2026-04-18T12:11:49.097Z</time></trkpt><trkpt lat="44.119135" lon="11.9764817"><ele>107.0</ele><time>2026-04-18T12:11:50.096Z</time></trkpt><trkpt lat="44.1192217" lon="11.9763633"><ele>106.0</ele><time>2026-04-18T12:11:51.096Z</time></trkpt><trkpt lat="44.1192867" lon="11.976235"><ele>105.0</ele><time>2026-04-18T12:11:52.096Z</time></trkpt><trkpt lat="44.1193417" lon="11.9760933"><ele>104.0</ele><time>2026-04-18T12:11:53.097Z</time></trkpt><trkpt lat="44.1193867" lon="11.9759383"><ele>105.75</ele><time>2026-04-18T12:11:54.097Z</time></trkpt><trkpt lat="44.1194417" lon="11.97578"><ele>107.5</ele><time>2026-04-18T12:11:55.097Z</time></trkpt><trkpt lat="44.119505" lon="11.97564"><ele>109.25</ele><time>2026-04-18T12:11:56.097Z</time></trkpt><trkpt lat="44.1195783" lon="11.9755017"><ele>111.0</ele><time>2026-04-18T12:11:57.097Z</time></trkpt><trkpt lat="44.1196633" lon="11.9753767"><ele>111.0</ele><time>2026-04-18T12:11:58.097Z</time></trkpt><trkpt lat="44.119755" lon="11.9752517"><ele>111.0</ele><time>2026-04-18T12:11:59.097Z</time></trkpt><trkpt lat="44.1198533" lon="11.9751283"><ele>111.0</ele><time>2026-04-18T12:12:00.096Z</time></trkpt><trkpt lat="44.1199417" lon="11.97501"><ele>111.0</ele><time>2026-04-18T12:12:01.096Z</time></trkpt><trkpt lat="44.1200367" lon="11.9749017"><ele>109.5</ele><time>2026-04-18T12:12:02.097Z</time></trkpt><trkpt lat="44.1201267" lon="11.974785"><ele>108.0</ele><time>2026-04-18T12:12:03.097Z</time></trkpt><trkpt lat="44.1202233" lon="11.974675"><ele>106.5</ele><time>2026-04-18T12:12:04.097Z</time></trkpt><trkpt lat="44.1203233" lon="11.9745717"><ele>105.0</ele><time>2026-04-18T12:12:05.097Z</time></trkpt><trkpt lat="44.12043" lon="11.974485"><ele>105.0</ele><time>2026-04-18T12:12:06.096Z</time></trkpt><trkpt lat="44.12055" lon="11.9744"><ele>105.0</ele><time>2026-04-18T12:12:07.097Z</time></trkpt><trkpt lat="44.12067" lon="11.9743317"><ele>105.0</ele><time>2026-04-18T12:12:08.097Z</time></trkpt><trkpt lat="44.1207883" lon="11.9742933"><ele>105.0</ele><time>2026-04-18T12:12:09.097Z</time></trkpt><trkpt lat="44.1209083" lon="11.97426"><ele>105.0</ele><time>2026-04-18T12:12:10.097Z</time></trkpt><trkpt lat="44.121035" lon="11.97425"><ele>105.0</ele><time>2026-04-18T12:12:11.097Z</time></trkpt><trkpt lat="44.1211617" lon="11.9742617"><ele>105.0</ele><time>2026-04-18T12:12:12.097Z</time></trkpt><trkpt lat="44.1212917" lon="11.9742733"><ele>105.0</ele><time>2026-04-18T12:12:13.097Z</time></trkpt><trkpt lat="44.1214383" lon="11.9742867"><ele>104.75</ele><time>2026-04-18T12:12:14.097Z</time></trkpt><trkpt lat="44.1215817" lon="11.9742983"><ele>104.5</ele><time>2026-04-18T12:12:15.097Z</time></trkpt><trkpt lat="44.12173" lon="11.974325"><ele>104.25</ele><time>2026-04-18T12:12:16.097Z</time></trkpt><trkpt lat="44.1218817" lon="11.9743517"><ele>104.0</ele><time>2026-04-18T12:12:17.096Z</time></trkpt><trkpt lat="44.12203" lon="11.9743783"><ele>104.0</ele><time>2026-04-18T12:12:18.097Z</time></trkpt><trkpt lat="44.1221833" lon="11.9744133"><ele>104.0</ele><time>2026-04-18T12:12:19.097Z</time></trkpt><trkpt lat="44.1223317" lon="11.9744517"><ele>104.0</ele><time>2026-04-18T12:12:20.097Z</time></trkpt><trkpt lat="44.1224783" lon="11.9744867"><ele>103.66666666666666</ele><time>2026-04-18T12:12:21.097Z</time></trkpt><trkpt lat="44.122625" lon="11.9745317"><ele>103.33333333333334</ele><time>2026-04-18T12:12:22.097Z</time></trkpt><trkpt lat="44.1227733" lon="11.974565"><ele>103.0</ele><time>2026-04-18T12:12:23.096Z</time></trkpt><trkpt lat="44.12293" lon="11.9745767"><ele>103.0</ele><time>2026-04-18T12:12:24.097Z</time></trkpt><trkpt lat="44.1230783" lon="11.9745733"><ele>103.0</ele><time>2026-04-18T12:12:25.097Z</time></trkpt><trkpt lat="44.12323" lon="11.9745617"><ele>103.0</ele><time>2026-04-18T12:12:26.097Z</time></trkpt><trkpt lat="44.123375" lon="11.974535"><ele>103.0</ele><time>2026-04-18T12:12:27.096Z</time></trkpt><trkpt lat="44.1235217" lon="11.974515"><ele>103.0</ele><time>2026-04-18T12:12:28.097Z</time></trkpt><trkpt lat="44.12366" lon="11.9745"><ele>103.0</ele><time>2026-04-18T12:12:29.097Z</time></trkpt><trkpt lat="44.1238033" lon="11.9744983"><ele>103.0</ele><time>2026-04-18T12:12:30.097Z</time></trkpt><trkpt lat="44.1239383" lon="11.9744867"><ele>103.0</ele><time>2026-04-18T12:12:31.097Z</time></trkpt><trkpt lat="44.1240667" lon="11.9744983"><ele>104.75</ele><time>2026-04-18T12:12:32.097Z</time></trkpt><trkpt lat="44.124195" lon="11.974515"><ele>106.5</ele><time>2026-04-18T12:12:33.097Z</time></trkpt><trkpt lat="44.1243167" lon="11.9745467"><ele>108.25</ele><time>2026-04-18T12:12:34.097Z</time></trkpt><trkpt lat="44.1244483" lon="11.9745833"><ele>110.0</ele><time>2026-04-18T12:12:35.097Z</time></trkpt><trkpt lat="44.1245817" lon="11.974635"><ele>110.0</ele><time>2026-04-18T12:12:36.097Z</time></trkpt><trkpt lat="44.12472" lon="11.9746917"><ele>110.0</ele><time>2026-04-18T12:12:37.097Z</time></trkpt><trkpt lat="44.1248717" lon="11.9747367"><ele>110.0</ele><time>2026-04-18T12:12:38.096Z</time></trkpt><trkpt lat="44.1250283" lon="11.97478"><ele>109.0</ele><time>2026-04-18T12:12:39.096Z</time></trkpt><trkpt lat="44.1251917" lon="11.974825"><ele>108.0</ele><time>2026-04-18T12:12:40.097Z</time></trkpt><trkpt lat="44.12536" lon="11.9748633"><ele>107.0</ele><time>2026-04-18T12:12:41.096Z</time></trkpt><trkpt lat="44.1255183" lon="11.9749017"><ele>107.0</ele><time>2026-04-18T12:12:42.097Z</time></trkpt><trkpt lat="44.1256867" lon="11.974945"><ele>107.0</ele><time>2026-04-18T12:12:43.097Z</time></trkpt><trkpt lat="44.1258583" lon="11.9749883"><ele>107.0</ele><time>2026-04-18T12:12:44.097Z</time></trkpt><trkpt lat="44.1260233" lon="11.9750333"><ele>103.66666666666666</ele><time>2026-04-18T12:12:45.097Z</time></trkpt><trkpt lat="44.1261933" lon="11.97507"><ele>100.33333333333334</ele><time>2026-04-18T12:12:46.096Z</time></trkpt><trkpt lat="44.126365" lon="11.975105"><ele>97.0</ele><time>2026-04-18T12:12:47.096Z</time></trkpt><trkpt lat="44.126535" lon="11.9751467"><ele>96.0</ele><time>2026-04-18T12:12:48.097Z</time></trkpt><trkpt lat="44.1267083" lon="11.9751917"><ele>95.0</ele><time>2026-04-18T12:12:49.097Z</time></trkpt><trkpt lat="44.126885" lon="11.9752333"><ele>94.0</ele><time>2026-04-18T12:12:50.097Z</time></trkpt><trkpt lat="44.1270633" lon="11.9752717"><ele>94.0</ele><time>2026-04-18T12:12:51.097Z</time></trkpt><trkpt lat="44.12724" lon="11.975325"><ele>94.0</ele><time>2026-04-18T12:12:52.097Z</time></trkpt><trkpt lat="44.12741" lon="11.9753667"><ele>94.0</ele><time>2026-04-18T12:12:53.097Z</time></trkpt><trkpt lat="44.1275817" lon="11.9754033"><ele>94.33333333333333</ele><time>2026-04-18T12:12:54.097Z</time></trkpt><trkpt lat="44.1277533" lon="11.9754467"><ele>94.66666666666667</ele><time>2026-04-18T12:12:55.096Z</time></trkpt><trkpt lat="44.1279183" lon="11.9754767"><ele>95.0</ele><time>2026-04-18T12:12:56.097Z</time></trkpt><trkpt lat="44.1280733" lon="11.9755117"><ele>96.0</ele><time>2026-04-18T12:12:57.097Z</time></trkpt><trkpt lat="44.1282317" lon="11.9755433"><ele>97.0</ele><time>2026-04-18T12:12:58.097Z</time></trkpt><trkpt lat="44.12838" lon="11.9755667"><ele>98.0</ele><time>2026-04-18T12:12:59.096Z</time></trkpt><trkpt lat="44.1285267" lon="11.9755917"><ele>98.0</ele><time>2026-04-18T12:13:00.096Z</time></trkpt><trkpt lat="44.1286733" lon="11.975605"><ele>98.0</ele><time>2026-04-18T12:13:01.097Z</time></trkpt><trkpt lat="44.128825" lon="11.97561"><ele>98.0</ele><time>2026-04-18T12:13:02.097Z</time></trkpt><trkpt lat="44.128965" lon="11.9756167"><ele>98.0</ele><time>2026-04-18T12:13:03.097Z</time></trkpt><trkpt lat="44.12911" lon="11.975615"><ele>98.25</ele><time>2026-04-18T12:13:04.097Z</time></trkpt><trkpt lat="44.12925" lon="11.97559"><ele>98.5</ele><time>2026-04-18T12:13:05.097Z</time></trkpt><trkpt lat="44.1293867" lon="11.9755683"><ele>98.75</ele><time>2026-04-18T12:13:06.097Z</time></trkpt><trkpt lat="44.12953" lon="11.9755417"><ele>99.0</ele><time>2026-04-18T12:13:07.097Z</time></trkpt><trkpt lat="44.1296717" lon="11.975535"><ele>99.0</ele><time>2026-04-18T12:13:08.096Z</time></trkpt><trkpt lat="44.1298133" lon="11.9755467"><ele>99.0</ele><time>2026-04-18T12:13:09.097Z</time></trkpt><trkpt lat="44.12996" lon="11.9755717"><ele>99.0</ele><time>2026-04-18T12:13:10.096Z</time></trkpt><trkpt lat="44.1300933" lon="11.9756267"><ele>99.0</ele><time>2026-04-18T12:13:11.097Z</time></trkpt><trkpt lat="44.1302283" lon="11.9756917"><ele>99.25</ele><time>2026-04-18T12:13:12.097Z</time></trkpt><trkpt lat="44.1303583" lon="11.97578"><ele>99.5</ele><time>2026-04-18T12:13:13.097Z</time></trkpt><trkpt lat="44.1304833" lon="11.97589"><ele>99.75</ele><time>2026-04-18T12:13:14.096Z</time></trkpt><trkpt lat="44.1305967" lon="11.9759817"><ele>100.0</ele><time>2026-04-18T12:13:15.096Z</time></trkpt><trkpt lat="44.130725" lon="11.9760883"><ele>99.33333333333334</ele><time>2026-04-18T12:13:16.096Z</time></trkpt><trkpt lat="44.1308767" lon="11.9761717"><ele>98.66666666666666</ele><time>2026-04-18T12:13:17.097Z</time></trkpt><trkpt lat="44.131025" lon="11.9762517"><ele>98.0</ele><time>2026-04-18T12:13:18.096Z</time></trkpt><trkpt lat="44.13118" lon="11.97633"><ele>98.0</ele><time>2026-04-18T12:13:19.097Z</time></trkpt><trkpt lat="44.131335" lon="11.9763967"><ele>98.0</ele><time>2026-04-18T12:13:20.097Z</time></trkpt><trkpt lat="44.1314917" lon="11.9764717"><ele>98.0</ele><time>2026-04-18T12:13:21.097Z</time></trkpt><trkpt lat="44.13165" lon="11.9765433"><ele>99.33333333333333</ele><time>2026-04-18T12:13:22.097Z</time></trkpt><trkpt lat="44.1318133" lon="11.9766167"><ele>100.66666666666666</ele><time>2026-04-18T12:13:23.096Z</time></trkpt><trkpt lat="44.1319783" lon="11.97669"><ele>102.0</ele><time>2026-04-18T12:13:24.097Z</time></trkpt><trkpt lat="44.13214" lon="11.9767633"><ele>99.33333333333333</ele><time>2026-04-18T12:13:25.097Z</time></trkpt><trkpt lat="44.1323017" lon="11.976835"><ele>96.66666666666666</ele><time>2026-04-18T12:13:26.097Z</time></trkpt><trkpt lat="44.13246" lon="11.9769083"><ele>94.0</ele><time>2026-04-18T12:13:27.097Z</time></trkpt><trkpt lat="44.1326167" lon="11.9769833"><ele>94.0</ele><time>2026-04-18T12:13:28.097Z</time></trkpt><trkpt lat="44.1327683" lon="11.97705"><ele>94.0</ele><time>2026-04-18T12:13:29.097Z</time></trkpt><trkpt lat="44.1329183" lon="11.9771233"><ele>94.0</ele><time>2026-04-18T12:13:30.097Z</time></trkpt><trkpt lat="44.133075" lon="11.9771967"><ele>95.0</ele><time>2026-04-18T12:13:31.097Z</time></trkpt><trkpt lat="44.133225" lon="11.9772567"><ele>96.0</ele><time>2026-04-18T12:13:32.097Z</time></trkpt><trkpt lat="44.1333667" lon="11.9773133"><ele>97.0</ele><time>2026-04-18T12:13:33.097Z</time></trkpt><trkpt lat="44.1335083" lon="11.9773833"><ele>97.0</ele><time>2026-04-18T12:13:34.097Z</time></trkpt><trkpt lat="44.1336533" lon="11.97747"><ele>97.0</ele><time>2026-04-18T12:13:35.097Z</time></trkpt><trkpt lat="44.1337967" lon="11.9775717"><ele>97.0</ele><time>2026-04-18T12:13:36.097Z</time></trkpt><trkpt lat="44.1339233" lon="11.9776917"><ele>95.33333333333334</ele><time>2026-04-18T12:13:37.097Z</time></trkpt><trkpt lat="44.1340483" lon="11.9778283"><ele>93.66666666666667</ele><time>2026-04-18T12:13:38.097Z</time></trkpt><trkpt lat="44.1341633" lon="11.977965"><ele>92.0</ele><time>2026-04-18T12:13:39.096Z</time></trkpt><trkpt lat="44.1342883" lon="11.978105"><ele>92.0</ele><time>2026-04-18T12:13:40.097Z</time></trkpt><trkpt lat="44.1344067" lon="11.97825"><ele>92.0</ele><time>2026-04-18T12:13:41.097Z</time></trkpt><trkpt lat="44.134525" lon="11.9783917"><ele>92.0</ele><time>2026-04-18T12:13:42.096Z</time></trkpt><trkpt lat="44.1346183" lon="11.978515"><ele>92.0</ele><time>2026-04-18T12:13:43.097Z</time></trkpt><trkpt lat="44.1347267" lon="11.9786733"><ele>90.66666666666667</ele><time>2026-04-18T12:13:44.096Z</time></trkpt><trkpt lat="44.13483" lon="11.9788317"><ele>89.33333333333333</ele><time>2026-04-18T12:13:45.096Z</time></trkpt><trkpt lat="44.1349367" lon="11.978985"><ele>88.0</ele><time>2026-04-18T12:13:46.097Z</time></trkpt><trkpt lat="44.1350433" lon="11.9791283"><ele>88.5</ele><time>2026-04-18T12:13:47.097Z</time></trkpt><trkpt lat="44.1351483" lon="11.97927"><ele>89.0</ele><time>2026-04-18T12:13:48.096Z</time></trkpt><trkpt lat="44.1352583" lon="11.9794017"><ele>89.5</ele><time>2026-04-18T12:13:49.097Z</time></trkpt><trkpt lat="44.1353733" lon="11.979545"><ele>90.0</ele><time>2026-04-18T12:13:50.097Z</time></trkpt><trkpt lat="44.135495" lon="11.9796717"><ele>90.0</ele><time>2026-04-18T12:13:51.096Z</time></trkpt><trkpt lat="44.1356233" lon="11.9797917"><ele>90.0</ele><time>2026-04-18T12:13:52.097Z</time></trkpt><trkpt lat="44.13576" lon="11.9799117"><ele>90.0</ele><time>2026-04-18T12:13:53.097Z</time></trkpt><trkpt lat="44.1358967" lon="11.9800267"><ele>90.0</ele><time>2026-04-18T12:13:54.097Z</time></trkpt><trkpt lat="44.13603" lon="11.9801383"><ele>90.0</ele><time>2026-04-18T12:13:55.096Z</time></trkpt><trkpt lat="44.1361567" lon="11.9802567"><ele>90.0</ele><time>2026-04-18T12:13:56.096Z</time></trkpt><trkpt lat="44.136285" lon="11.98037"><ele>90.0</ele><time>2026-04-18T12:13:57.097Z</time></trkpt><trkpt lat="44.1364117" lon="11.9804833"><ele>90.0</ele><time>2026-04-18T12:13:58.096Z</time></trkpt><trkpt lat="44.1365367" lon="11.9805917"><ele>90.0</ele><time>2026-04-18T12:13:59.096Z</time></trkpt><trkpt lat="44.1366617" lon="11.9807017"><ele>90.0</ele><time>2026-04-18T12:14:00.097Z</time></trkpt><trkpt lat="44.1367817" lon="11.980815"><ele>91.0</ele><time>2026-04-18T12:14:01.097Z</time></trkpt><trkpt lat="44.1369033" lon="11.9809267"><ele>92.0</ele><time>2026-04-18T12:14:02.097Z</time></trkpt><trkpt lat="44.137035" lon="11.98104"><ele>93.0</ele><time>2026-04-18T12:14:03.097Z</time></trkpt><trkpt lat="44.1371633" lon="11.9811467"><ele>93.0</ele><time>2026-04-18T12:14:04.097Z</time></trkpt><trkpt lat="44.1373" lon="11.9812433"><ele>93.0</ele><time>2026-04-18T12:14:05.097Z</time></trkpt><trkpt lat="44.1374533" lon="11.9813483"><ele>93.0</ele><time>2026-04-18T12:14:06.097Z</time></trkpt><trkpt lat="44.13761" lon="11.98144"><ele>93.0</ele><time>2026-04-18T12:14:07.096Z</time></trkpt><trkpt lat="44.137765" lon="11.9815267"><ele>93.0</ele><time>2026-04-18T12:14:08.097Z</time></trkpt><trkpt lat="44.1379233" lon="11.9816083"><ele>93.0</ele><time>2026-04-18T12:14:09.097Z</time></trkpt><trkpt lat="44.1380783" lon="11.9817033"><ele>92.33333333333333</ele><time>2026-04-18T12:14:10.097Z</time></trkpt><trkpt lat="44.1382383" lon="11.9817917"><ele>91.66666666666666</ele><time>2026-04-18T12:14:11.097Z</time></trkpt><trkpt lat="44.1383967" lon="11.9818733"><ele>91.0</ele><time>2026-04-18T12:14:12.096Z</time></trkpt><trkpt lat="44.1385433" lon="11.9819567"><ele>91.0</ele><time>2026-04-18T12:14:13.097Z</time></trkpt><trkpt lat="44.1386983" lon="11.9820233"><ele>91.0</ele><time>2026-04-18T12:14:14.097Z</time></trkpt><trkpt lat="44.138855" lon="11.9820967"><ele>91.0</ele><time>2026-04-18T12:14:15.097Z</time></trkpt><trkpt lat="44.1390067" lon="11.9821667"><ele>91.33333333333333</ele><time>2026-04-18T12:14:16.097Z</time></trkpt><trkpt lat="44.13915" lon="11.9822333"><ele>91.66666666666667</ele><time>2026-04-18T12:14:17.097Z</time></trkpt><trkpt lat="44.139295" lon="11.9823133"><ele>92.0</ele><time>2026-04-18T12:14:18.097Z</time></trkpt><trkpt lat="44.1394383" lon="11.982385"><ele>92.0</ele><time>2026-04-18T12:14:19.097Z</time></trkpt><trkpt lat="44.1395783" lon="11.9824517"><ele>92.0</ele><time>2026-04-18T12:14:20.097Z</time></trkpt><trkpt lat="44.1397267" lon="11.982515"><ele>92.0</ele><time>2026-04-18T12:14:21.096Z</time></trkpt><trkpt lat="44.1398783" lon="11.9825683"><ele>91.33333333333334</ele><time>2026-04-18T12:14:22.097Z</time></trkpt><trkpt lat="44.1400283" lon="11.9826267"><ele>90.66666666666667</ele><time>2026-04-18T12:14:23.097Z</time></trkpt><trkpt lat="44.1401733" lon="11.982695"><ele>90.0</ele><time>2026-04-18T12:14:24.097Z</time></trkpt><trkpt lat="44.140325" lon="11.9827583"><ele>90.0</ele><time>2026-04-18T12:14:25.097Z</time></trkpt><trkpt lat="44.1404817" lon="11.9828167"><ele>90.0</ele><time>2026-04-18T12:14:26.097Z</time></trkpt><trkpt lat="44.14063" lon="11.98288"><ele>90.0</ele><time>2026-04-18T12:14:27.096Z</time></trkpt><trkpt lat="44.1407767" lon="11.9829517"><ele>90.33333333333333</ele><time>2026-04-18T12:14:28.096Z</time></trkpt><trkpt lat="44.1409183" lon="11.9830267"><ele>90.66666666666666</ele><time>2026-04-18T12:14:29.097Z</time></trkpt><trkpt lat="44.1410533" lon="11.9831"><ele>91.0</ele><time>2026-04-18T12:14:30.096Z</time></trkpt><trkpt lat="44.1411983" lon="11.9832067"><ele>91.0</ele><time>2026-04-18T12:14:31.097Z</time></trkpt><trkpt lat="44.1413317" lon="11.9833083"><ele>91.0</ele><time>2026-04-18T12:14:32.097Z</time></trkpt><trkpt lat="44.141465" lon="11.98341"><ele>91.0</ele><time>2026-04-18T12:14:33.097Z</time></trkpt><trkpt lat="44.1415883" lon="11.983515"><ele>91.0</ele><time>2026-04-18T12:14:34.097Z</time></trkpt><trkpt lat="44.14171" lon="11.983635"><ele>90.25</ele><time>2026-04-18T12:14:35.096Z</time></trkpt><trkpt lat="44.1418267" lon="11.9837667"><ele>89.5</ele><time>2026-04-18T12:14:36.097Z</time></trkpt><trkpt lat="44.1419417" lon="11.9838883"><ele>88.75</ele><time>2026-04-18T12:14:37.097Z</time></trkpt><trkpt lat="44.142045" lon="11.98401"><ele>88.0</ele><time>2026-04-18T12:14:38.097Z</time></trkpt><trkpt lat="44.1421567" lon="11.9841267"><ele>87.75</ele><time>2026-04-18T12:14:39.097Z</time></trkpt><trkpt lat="44.1422633" lon="11.98424"><ele>87.5</ele><time>2026-04-18T12:14:40.097Z</time></trkpt><trkpt lat="44.1423783" lon="11.9843517"><ele>87.25</ele><time>2026-04-18T12:14:41.097Z</time></trkpt><trkpt lat="44.142495" lon="11.9844667"><ele>87.0</ele><time>2026-04-18T12:14:42.097Z</time></trkpt><trkpt lat="44.14261" lon="11.9845733"><ele>87.0</ele><time>2026-04-18T12:14:43.096Z</time></trkpt><trkpt lat="44.1427117" lon="11.984685"><ele>87.0</ele><time>2026-04-18T12:14:44.096Z</time></trkpt><trkpt lat="44.1428067" lon="11.984785"><ele>87.0</ele><time>2026-04-18T12:14:45.097Z</time></trkpt><trkpt lat="44.1428783" lon="11.9848633"><ele>87.0</ele><time>2026-04-18T12:14:46.096Z</time></trkpt><trkpt lat="44.1429417" lon="11.984925"><ele>87.0</ele><time>2026-04-18T12:14:47.097Z</time></trkpt><trkpt lat="44.14301" lon="11.9849867"><ele>86.33333333333333</ele><time>2026-04-18T12:14:48.097Z</time></trkpt><trkpt lat="44.1430733" lon="11.985055"><ele>85.66666666666667</ele><time>2026-04-18T12:14:49.097Z</time></trkpt><trkpt lat="44.14314" lon="11.9851217"><ele>85.0</ele><time>2026-04-18T12:14:50.097Z</time></trkpt><trkpt lat="44.14321" lon="11.98519"><ele>84.33333333333334</ele><time>2026-04-18T12:14:51.097Z</time></trkpt><trkpt lat="44.1432817" lon="11.985265"><ele>83.66666666666667</ele><time>2026-04-18T12:14:52.097Z</time></trkpt><trkpt lat="44.1433633" lon="11.9853417"><ele>83.0</ele><time>2026-04-18T12:14:53.097Z</time></trkpt><trkpt lat="44.1434467" lon="11.9854167"><ele>83.0</ele><time>2026-04-18T12:14:54.096Z</time></trkpt><trkpt lat="44.1435433" lon="11.985495"><ele>83.0</ele><time>2026-04-18T12:14:55.097Z</time></trkpt><trkpt lat="44.1436367" lon="11.9855783"><ele>83.0</ele><time>2026-04-18T12:14:56.097Z</time></trkpt><trkpt lat="44.1437233" lon="11.9856667"><ele>83.0</ele><time>2026-04-18T12:14:57.096Z</time></trkpt><trkpt lat="44.1438233" lon="11.9857733"><ele>82.0</ele><time>2026-04-18T12:14:58.097Z</time></trkpt><trkpt lat="44.1439233" lon="11.9858733"><ele>81.0</ele><time>2026-04-18T12:14:59.097Z</time></trkpt><trkpt lat="44.1440133" lon="11.9859733"><ele>80.0</ele><time>2026-04-18T12:15:00.097Z</time></trkpt><trkpt lat="44.1441167" lon="11.9860733"><ele>79.0</ele><time>2026-04-18T12:15:01.097Z</time></trkpt><trkpt lat="44.1442167" lon="11.9861717"><ele>79.0</ele><time>2026-04-18T12:15:02.097Z</time></trkpt><trkpt lat="44.144315" lon="11.9862717"><ele>79.0</ele><time>2026-04-18T12:15:03.097Z</time></trkpt><trkpt lat="44.14442" lon="11.9863683"><ele>79.0</ele><time>2026-04-18T12:15:04.096Z</time></trkpt><trkpt lat="44.1445217" lon="11.986465"><ele>79.0</ele><time>2026-04-18T12:15:05.097Z</time></trkpt><trkpt lat="44.1446167" lon="11.9865683"><ele>79.0</ele><time>2026-04-18T12:15:06.097Z</time></trkpt><trkpt lat="44.144705" lon="11.9866683"><ele>79.0</ele><time>2026-04-18T12:15:07.096Z</time></trkpt><trkpt lat="44.144795" lon="11.986765"><ele>79.0</ele><time>2026-04-18T12:15:08.097Z</time></trkpt><trkpt lat="44.1448833" lon="11.9868617"><ele>79.0</ele><time>2026-04-18T12:15:09.096Z</time></trkpt><trkpt lat="44.1449683" lon="11.9869617"><ele>79.0</ele><time>2026-04-18T12:15:10.097Z</time></trkpt><trkpt lat="44.145045" lon="11.9870633"><ele>79.0</ele><time>2026-04-18T12:15:11.096Z</time></trkpt><trkpt lat="44.145115" lon="11.9871617"><ele>79.0</ele><time>2026-04-18T12:15:12.097Z</time></trkpt><trkpt lat="44.1451817" lon="11.9872433"><ele>79.0</ele><time>2026-04-18T12:15:13.097Z</time></trkpt><trkpt lat="44.1452417" lon="11.9873167"><ele>79.0</ele><time>2026-04-18T12:15:14.096Z</time></trkpt><trkpt lat="44.1452983" lon="11.987385"><ele>79.0</ele><time>2026-04-18T12:15:15.097Z</time></trkpt><trkpt lat="44.145355" lon="11.9874483"><ele>79.33333333333333</ele><time>2026-04-18T12:15:16.097Z</time></trkpt><trkpt lat="44.14541" lon="11.9875133"><ele>79.66666666666666</ele><time>2026-04-18T12:15:17.097Z</time></trkpt><trkpt lat="44.1454667" lon="11.9875817"><ele>80.0</ele><time>2026-04-18T12:15:18.097Z</time></trkpt><trkpt lat="44.145525" lon="11.987655"><ele>80.33333333333333</ele><time>2026-04-18T12:15:19.097Z</time></trkpt><trkpt lat="44.1455883" lon="11.9877267"><ele>80.66666666666667</ele><time>2026-04-18T12:15:20.097Z</time></trkpt><trkpt lat="44.1456583" lon="11.987805"><ele>81.0</ele><time>2026-04-18T12:15:21.097Z</time></trkpt><trkpt lat="44.14572" lon="11.98789"><ele>81.0</ele><time>2026-04-18T12:15:22.096Z</time></trkpt><trkpt lat="44.1457833" lon="11.9879883"><ele>81.0</ele><time>2026-04-18T12:15:23.096Z</time></trkpt><trkpt lat="44.1458433" lon="11.988095"><ele>81.0</ele><time>2026-04-18T12:15:24.096Z</time></trkpt><trkpt lat="44.145905" lon="11.988205"><ele>81.0</ele><time>2026-04-18T12:15:25.096Z</time></trkpt><trkpt lat="44.145955" lon="11.98834"><ele>81.0</ele><time>2026-04-18T12:15:26.097Z</time></trkpt><trkpt lat="44.14599" lon="11.98849"><ele>80.39999999999999</ele><time>2026-04-18T12:15:27.096Z</time></trkpt><trkpt lat="44.14602" lon="11.988645"><ele>79.8</ele><time>2026-04-18T12:15:28.097Z</time></trkpt><trkpt lat="44.1460417" lon="11.9888017"><ele>79.19999999999999</ele><time>2026-04-18T12:15:29.097Z</time></trkpt><trkpt lat="44.146055" lon="11.9889517"><ele>78.6</ele><time>2026-04-18T12:15:30.097Z</time></trkpt><trkpt lat="44.1460867" lon="11.9890967"><ele>78.0</ele><time>2026-04-18T12:15:31.097Z</time></trkpt><trkpt lat="44.1461067" lon="11.9892333"><ele>76.75</ele><time>2026-04-18T12:15:32.097Z</time></trkpt><trkpt lat="44.14613" lon="11.9893833"><ele>75.5</ele><time>2026-04-18T12:15:33.096Z</time></trkpt><trkpt lat="44.1461567" lon="11.98954"><ele>74.25</ele><time>2026-04-18T12:15:34.097Z</time></trkpt><trkpt lat="44.146185" lon="11.9897"><ele>73.0</ele><time>2026-04-18T12:15:35.096Z</time></trkpt><trkpt lat="44.1462233" lon="11.9898633"><ele>73.0</ele><time>2026-04-18T12:15:36.097Z</time></trkpt><trkpt lat="44.1462683" lon="11.990025"><ele>73.0</ele><time>2026-04-18T12:15:37.097Z</time></trkpt><trkpt lat="44.14632" lon="11.990185"><ele>73.0</ele><time>2026-04-18T12:15:38.096Z</time></trkpt><trkpt lat="44.1463767" lon="11.990335"><ele>73.0</ele><time>2026-04-18T12:15:39.096Z</time></trkpt><trkpt lat="44.1464433" lon="11.99048"><ele>73.0</ele><time>2026-04-18T12:15:40.096Z</time></trkpt><trkpt lat="44.14651" lon="11.990605"><ele>73.0</ele><time>2026-04-18T12:15:41.096Z</time></trkpt><trkpt lat="44.146575" lon="11.9907167"><ele>73.0</ele><time>2026-04-18T12:15:42.097Z</time></trkpt><trkpt lat="44.1466417" lon="11.9908017"><ele>73.0</ele><time>2026-04-18T12:15:43.097Z</time></trkpt><trkpt lat="44.1466983" lon="11.9908767"><ele>73.0</ele><time>2026-04-18T12:15:44.097Z</time></trkpt><trkpt lat="44.1467567" lon="11.9909417"><ele>74.2</ele><time>2026-04-18T12:15:45.097Z</time></trkpt><trkpt lat="44.1468317" lon="11.99102"><ele>75.4</ele><time>2026-04-18T12:15:46.097Z</time></trkpt><trkpt lat="44.14691" lon="11.9911033"><ele>76.60000000000001</ele><time>2026-04-18T12:15:47.097Z</time></trkpt><trkpt lat="44.146995" lon="11.9911867"><ele>77.8</ele><time>2026-04-18T12:15:48.097Z</time></trkpt><trkpt lat="44.1470817" lon="11.9912667"><ele>79.0</ele><time>2026-04-18T12:15:49.096Z</time></trkpt><trkpt lat="44.147155" lon="11.9913467"><ele>79.0</ele><time>2026-04-18T12:15:50.097Z</time></trkpt><trkpt lat="44.1472283" lon="11.9914267"><ele>79.0</ele><time>2026-04-18T12:15:51.097Z</time></trkpt><trkpt lat="44.1473083" lon="11.9914933"><ele>79.0</ele><time>2026-04-18T12:15:52.097Z</time></trkpt><trkpt lat="44.1473783" lon="11.9915583"><ele>79.0</ele><time>2026-04-18T12:15:53.097Z</time></trkpt><trkpt lat="44.1474417" lon="11.99162"><ele>79.0</ele><time>2026-04-18T12:15:54.097Z</time></trkpt><trkpt lat="44.1475" lon="11.99169"><ele>79.0</ele><time>2026-04-18T12:15:55.096Z</time></trkpt><trkpt lat="44.1475717" lon="11.9917567"><ele>78.66666666666666</ele><time>2026-04-18T12:15:56.096Z</time></trkpt><trkpt lat="44.1476467" lon="11.9918183"><ele>78.33333333333333</ele><time>2026-04-18T12:15:57.097Z</time></trkpt><trkpt lat="44.1477267" lon="11.9918767"><ele>78.0</ele><time>2026-04-18T12:15:58.096Z</time></trkpt><trkpt lat="44.1478017" lon="11.99194"><ele>77.66666666666667</ele><time>2026-04-18T12:15:59.096Z</time></trkpt><trkpt lat="44.14788" lon="11.992"><ele>77.33333333333334</ele><time>2026-04-18T12:16:00.097Z</time></trkpt><trkpt lat="44.147955" lon="11.99207"><ele>77.0</ele><time>2026-04-18T12:16:01.096Z</time></trkpt><trkpt lat="44.1480267" lon="11.9921333"><ele>77.0</ele><time>2026-04-18T12:16:02.097Z</time></trkpt><trkpt lat="44.1481033" lon="11.9922033"><ele>77.0</ele><time>2026-04-18T12:16:03.097Z</time></trkpt><trkpt lat="44.1481817" lon="11.9922717"><ele>77.0</ele><time>2026-04-18T12:16:04.096Z</time></trkpt><trkpt lat="44.148265" lon="11.9923417"><ele>77.0</ele><time>2026-04-18T12:16:05.096Z</time></trkpt><trkpt lat="44.1483383" lon="11.992415"><ele>77.0</ele><time>2026-04-18T12:16:06.097Z</time></trkpt><trkpt lat="44.1484217" lon="11.9924783"><ele>76.0</ele><time>2026-04-18T12:16:07.096Z</time></trkpt><trkpt lat="44.14851" lon="11.9925467"><ele>75.0</ele><time>2026-04-18T12:16:08.096Z</time></trkpt><trkpt lat="44.1485983" lon="11.99262"><ele>74.0</ele><time>2026-04-18T12:16:09.097Z</time></trkpt><trkpt lat="44.1486883" lon="11.9926933"><ele>73.0</ele><time>2026-04-18T12:16:10.097Z</time></trkpt><trkpt lat="44.1487783" lon="11.99277"><ele>72.0</ele><time>2026-04-18T12:16:11.097Z</time></trkpt><trkpt lat="44.1488717" lon="11.9928483"><ele>72.0</ele><time>2026-04-18T12:16:12.097Z</time></trkpt><trkpt lat="44.1489583" lon="11.9929233"><ele>72.0</ele><time>2026-04-18T12:16:13.097Z</time></trkpt><trkpt lat="44.1490383" lon="11.992985"><ele>72.0</ele><time>2026-04-18T12:16:14.097Z</time></trkpt><trkpt lat="44.1491117" lon="11.9930433"><ele>72.0</ele><time>2026-04-18T12:16:15.097Z</time></trkpt><trkpt lat="44.1491783" lon="11.993095"><ele>72.0</ele><time>2026-04-18T12:16:16.097Z</time></trkpt><trkpt lat="44.1492417" lon="11.9931317"><ele>72.0</ele><time>2026-04-18T12:16:17.097Z</time></trkpt><trkpt lat="44.14933" lon="11.993155"><ele>76.0</ele><time>2026-04-18T12:16:19.097Z</time></trkpt><trkpt lat="44.1493983" lon="11.9931083"><ele>76.0</ele><time>2026-04-18T12:16:22.097Z</time></trkpt><trkpt lat="44.1494567" lon="11.9930333"><ele>76.0</ele><time>2026-04-18T12:16:26.096Z</time></trkpt></trkseg></trk></gpx>